<?xml version="1.0" encoding="UTF-8" standalone="no" ?>
<gpx xmlns="http://www.topografix.com/GPX/1/1" xmlns:xsi="http://www.w3.org/2001/XMLSchema-instance" xsi:schemaLocation="http://www.topografix.com/GPX/1/1 http://www.topografix.com/GPX/1/1/gpx.xsd" version="1.1" creator="VisuGPX - https://www.visugpx.com">
  <metadata>
    <name>BERVILLE</name>
    <desc><![CDATA[<p>Heure de départ: 14:16 8 août 2021<br/>Heure d'arrivée: 18:22 8 août 2021<br/>Distance: 62,5 km (04:06)<br/>Temps déplacement: 03:54<br/>Vitesse moyenne: 15,21 km/h<br/>Vitesse moyenne mouv.: 15,99 km/h<br/>Vitesse Max.: 46,14 km/h<br/>Altitude minimale: 49 m<br/>Altitude maximale: 199 m<br/>Vitesse de montée: 624,8 m/h<br/>Vitesse de descente: 1103,9 m/h<br/>Gain d'altitude: 975 m<br/>Perte d'altitude: 975 m<br/>Temps de montée: 01:33<br/>Temps de descente: 00:53<br/></p><hr align="center" width="480" style="height: 2px; width: 517px"/>]]></desc>
  </metadata>
  <trk>
    <name><![CDATA[ALLER]]></name>
    <desc><![CDATA[<p>Heure de départ: 14:16 8 août 2021<br/>Heure d'arrivée: 18:22 8 août 2021<br/>Distance: 62,5 km (04:06)<br/>Temps déplacement: 03:54<br/>Vitesse moyenne: 15,21 km/h<br/>Vitesse moyenne mouv.: 15,99 km/h<br/>Vitesse Max.: 46,14 km/h<br/>Altitude minimale: 49 m<br/>Altitude maximale: 199 m<br/>Vitesse de montée: 624,8 m/h<br/>Vitesse de descente: 1103,9 m/h<br/>Gain d'altitude: 975 m<br/>Perte d'altitude: 975 m<br/>Temps de montée: 01:33<br/>Temps de descente: 00:53<br/></p><hr align="center" width="480" style="height: 2px; width: 517px"/>]]></desc>
    <trkseg>
      <trkpt lat="48.99812" lon="-0.0041">
        <ele>72.75</ele>
        <time>2021-08-08T12:16:38Z</time>
      </trkpt>
      <trkpt lat="48.99783" lon="-0.00396">
        <ele>72.82</ele>
        <time>2021-08-08T12:16:42Z</time>
      </trkpt>
      <trkpt lat="48.99783" lon="-0.00398">
        <ele>72.86</ele>
        <time>2021-08-08T12:16:43Z</time>
      </trkpt>
      <trkpt lat="48.99788" lon="-0.00405">
        <ele>72.85</ele>
        <time>2021-08-08T12:16:44Z</time>
      </trkpt>
      <trkpt lat="48.99789" lon="-0.00407">
        <ele>72.85</ele>
        <time>2021-08-08T12:16:45Z</time>
      </trkpt>
      <trkpt lat="48.99789" lon="-0.00408">
        <ele>72.87</ele>
        <time>2021-08-08T12:16:46Z</time>
      </trkpt>
      <trkpt lat="48.99789" lon="-0.00409">
        <ele>72.88</ele>
        <time>2021-08-08T12:16:47Z</time>
      </trkpt>
      <trkpt lat="48.99792" lon="-0.00415">
        <ele>72.95</ele>
        <time>2021-08-08T12:16:49Z</time>
      </trkpt>
      <trkpt lat="48.99791" lon="-0.00416">
        <ele>72.98</ele>
        <time>2021-08-08T12:16:49Z</time>
      </trkpt>
      <trkpt lat="48.9979" lon="-0.00417">
        <ele>72.99</ele>
        <time>2021-08-08T12:16:50Z</time>
      </trkpt>
      <trkpt lat="48.9979" lon="-0.00418">
        <ele>73</ele>
        <time>2021-08-08T12:16:50Z</time>
      </trkpt>
      <trkpt lat="48.99789" lon="-0.00419">
        <ele>73</ele>
        <time>2021-08-08T12:16:51Z</time>
      </trkpt>
      <trkpt lat="48.99789" lon="-0.00422">
        <ele>73</ele>
        <time>2021-08-08T12:16:52Z</time>
      </trkpt>
      <trkpt lat="48.99883" lon="-0.00515">
        <ele>72.98828125</ele>
      </trkpt>
      <trkpt lat="48.99948" lon="-0.00519">
        <ele>73.07421875</ele>
      </trkpt>
      <trkpt lat="49.00069" lon="-0.0066">
        <ele>72.734375</ele>
      </trkpt>
      <trkpt lat="49.00098" lon="-0.00664">
        <ele>72.65234375</ele>
      </trkpt>
      <trkpt lat="49.003" lon="-0.00668">
        <ele>73.4453125</ele>
      </trkpt>
      <trkpt lat="49.00289" lon="-0.00719">
        <ele>74.40234375</ele>
      </trkpt>
      <trkpt lat="49.00219" lon="-0.00789">
        <ele>71.60546875</ele>
      </trkpt>
      <trkpt lat="49.00173" lon="-0.00898">
        <ele>63.8125</ele>
      </trkpt>
      <trkpt lat="49.00122" lon="-0.00968">
        <ele>57.51953125</ele>
      </trkpt>
      <trkpt lat="49.00064" lon="-0.0115">
        <ele>50.40234375</ele>
      </trkpt>
      <trkpt lat="49.00038" lon="-0.01374">
        <ele>51.90625</ele>
      </trkpt>
      <trkpt lat="49.00038" lon="-0.01479">
        <ele>52.9921875</ele>
      </trkpt>
      <trkpt lat="49.00091" lon="-0.01577">
        <ele>53.51171875</ele>
      </trkpt>
      <trkpt lat="49.00064" lon="-0.01702">
        <ele>53.02734375</ele>
      </trkpt>
      <trkpt lat="49.00072" lon="-0.01741">
        <ele>52.98046875</ele>
      </trkpt>
      <trkpt lat="48.99849" lon="-0.01678">
        <ele>55.78125</ele>
      </trkpt>
      <trkpt lat="48.99709" lon="-0.01623">
        <ele>56.80859375</ele>
      </trkpt>
      <trkpt lat="48.99684" lon="-0.01603">
        <ele>56.78515625</ele>
      </trkpt>
      <trkpt lat="48.99579" lon="-0.01568">
        <ele>57.53125</ele>
      </trkpt>
      <trkpt lat="48.9942" lon="-0.01591">
        <ele>57.9609375</ele>
      </trkpt>
      <trkpt lat="48.99331" lon="-0.01614">
        <ele>57.84765625</ele>
      </trkpt>
      <trkpt lat="48.99267" lon="-0.01668">
        <ele>57.0546875</ele>
      </trkpt>
      <trkpt lat="48.99178" lon="-0.01684">
        <ele>57.84765625</ele>
      </trkpt>
      <trkpt lat="48.9911" lon="-0.01726">
        <ele>59.23046875</ele>
      </trkpt>
      <trkpt lat="48.99008" lon="-0.01761">
        <ele>59.0625</ele>
      </trkpt>
      <trkpt lat="48.99008" lon="-0.01628">
        <ele>58.0078125</ele>
      </trkpt>
      <trkpt lat="48.9897" lon="-0.01617">
        <ele>58.01</ele>
        <time>2021-08-08T12:26:03Z</time>
      </trkpt>
      <trkpt lat="48.9897" lon="-0.01624">
        <ele>58.03</ele>
        <time>2021-08-08T12:26:04Z</time>
      </trkpt>
      <trkpt lat="48.9897" lon="-0.01633">
        <ele>58.06</ele>
        <time>2021-08-08T12:26:05Z</time>
      </trkpt>
      <trkpt lat="48.98969" lon="-0.01642">
        <ele>58.16</ele>
        <time>2021-08-08T12:26:06Z</time>
      </trkpt>
      <trkpt lat="48.98968" lon="-0.0165">
        <ele>58.4</ele>
        <time>2021-08-08T12:26:07Z</time>
      </trkpt>
      <trkpt lat="48.98966" lon="-0.01659">
        <ele>58.67</ele>
        <time>2021-08-08T12:26:08Z</time>
      </trkpt>
      <trkpt lat="48.98965" lon="-0.01668">
        <ele>58.9</ele>
        <time>2021-08-08T12:26:09Z</time>
      </trkpt>
      <trkpt lat="48.98964" lon="-0.01676">
        <ele>58.97</ele>
        <time>2021-08-08T12:26:10Z</time>
      </trkpt>
      <trkpt lat="48.98963" lon="-0.01684">
        <ele>58.99</ele>
        <time>2021-08-08T12:26:11Z</time>
      </trkpt>
      <trkpt lat="48.98961" lon="-0.01692">
        <ele>59</ele>
        <time>2021-08-08T12:26:12Z</time>
      </trkpt>
      <trkpt lat="48.98959" lon="-0.01699">
        <ele>59</ele>
        <time>2021-08-08T12:26:13Z</time>
      </trkpt>
      <trkpt lat="48.98958" lon="-0.01707">
        <ele>59</ele>
        <time>2021-08-08T12:26:14Z</time>
      </trkpt>
      <trkpt lat="48.98957" lon="-0.01715">
        <ele>59</ele>
        <time>2021-08-08T12:26:15Z</time>
      </trkpt>
      <trkpt lat="48.98955" lon="-0.01723">
        <ele>59.01</ele>
        <time>2021-08-08T12:26:16Z</time>
      </trkpt>
      <trkpt lat="48.98954" lon="-0.01731">
        <ele>59.15</ele>
        <time>2021-08-08T12:26:17Z</time>
      </trkpt>
      <trkpt lat="48.98952" lon="-0.01739">
        <ele>59.36</ele>
        <time>2021-08-08T12:26:18Z</time>
      </trkpt>
      <trkpt lat="48.9895" lon="-0.01748">
        <ele>59.61</ele>
        <time>2021-08-08T12:26:19Z</time>
      </trkpt>
      <trkpt lat="48.98949" lon="-0.01756">
        <ele>59.79</ele>
        <time>2021-08-08T12:26:20Z</time>
      </trkpt>
      <trkpt lat="48.98948" lon="-0.01764">
        <ele>59.89</ele>
        <time>2021-08-08T12:26:21Z</time>
      </trkpt>
      <trkpt lat="48.98946" lon="-0.01771">
        <ele>59.96</ele>
        <time>2021-08-08T12:26:22Z</time>
      </trkpt>
      <trkpt lat="48.98945" lon="-0.01777">
        <ele>59.99</ele>
        <time>2021-08-08T12:26:23Z</time>
      </trkpt>
      <trkpt lat="48.98943" lon="-0.01784">
        <ele>60</ele>
        <time>2021-08-08T12:26:24Z</time>
      </trkpt>
      <trkpt lat="48.9894" lon="-0.01789">
        <ele>60</ele>
        <time>2021-08-08T12:26:25Z</time>
      </trkpt>
      <trkpt lat="48.98936" lon="-0.01792">
        <ele>60</ele>
        <time>2021-08-08T12:26:26Z</time>
      </trkpt>
      <trkpt lat="48.98932" lon="-0.01793">
        <ele>60</ele>
        <time>2021-08-08T12:26:27Z</time>
      </trkpt>
      <trkpt lat="48.98927" lon="-0.01792">
        <ele>60</ele>
        <time>2021-08-08T12:26:28Z</time>
      </trkpt>
      <trkpt lat="48.98922" lon="-0.01789">
        <ele>60</ele>
        <time>2021-08-08T12:26:29Z</time>
      </trkpt>
      <trkpt lat="48.98918" lon="-0.01784">
        <ele>60</ele>
        <time>2021-08-08T12:26:30Z</time>
      </trkpt>
      <trkpt lat="48.98913" lon="-0.01778">
        <ele>60.09</ele>
        <time>2021-08-08T12:26:31Z</time>
      </trkpt>
      <trkpt lat="48.98908" lon="-0.01773">
        <ele>60.2</ele>
        <time>2021-08-08T12:26:32Z</time>
      </trkpt>
      <trkpt lat="48.98903" lon="-0.01768">
        <ele>60.28</ele>
        <time>2021-08-08T12:26:33Z</time>
      </trkpt>
      <trkpt lat="48.98899" lon="-0.01763">
        <ele>60.31</ele>
        <time>2021-08-08T12:26:34Z</time>
      </trkpt>
      <trkpt lat="48.98894" lon="-0.01759">
        <ele>60.27</ele>
        <time>2021-08-08T12:26:35Z</time>
      </trkpt>
      <trkpt lat="48.98889" lon="-0.01754">
        <ele>60.19</ele>
        <time>2021-08-08T12:26:36Z</time>
      </trkpt>
      <trkpt lat="48.98883" lon="-0.01749">
        <ele>60.19</ele>
        <time>2021-08-08T12:26:37Z</time>
      </trkpt>
      <trkpt lat="48.98878" lon="-0.01745">
        <ele>60.28</ele>
        <time>2021-08-08T12:26:38Z</time>
      </trkpt>
      <trkpt lat="48.98873" lon="-0.0174">
        <ele>60.35</ele>
        <time>2021-08-08T12:26:39Z</time>
      </trkpt>
      <trkpt lat="48.98867" lon="-0.01735">
        <ele>60.37</ele>
        <time>2021-08-08T12:26:40Z</time>
      </trkpt>
      <trkpt lat="48.98862" lon="-0.01731">
        <ele>60.31</ele>
        <time>2021-08-08T12:26:41Z</time>
      </trkpt>
      <trkpt lat="48.98857" lon="-0.01725">
        <ele>60.27</ele>
        <time>2021-08-08T12:26:42Z</time>
      </trkpt>
      <trkpt lat="48.98852" lon="-0.0172">
        <ele>60.29</ele>
        <time>2021-08-08T12:26:43Z</time>
      </trkpt>
      <trkpt lat="48.98847" lon="-0.01715">
        <ele>60.36</ele>
        <time>2021-08-08T12:26:44Z</time>
      </trkpt>
      <trkpt lat="48.98842" lon="-0.0171">
        <ele>60.38</ele>
        <time>2021-08-08T12:26:45Z</time>
      </trkpt>
      <trkpt lat="48.98837" lon="-0.01705">
        <ele>60.35</ele>
        <time>2021-08-08T12:26:46Z</time>
      </trkpt>
      <trkpt lat="48.98832" lon="-0.01699">
        <ele>60.26</ele>
        <time>2021-08-08T12:26:47Z</time>
      </trkpt>
      <trkpt lat="48.98827" lon="-0.01693">
        <ele>60.23</ele>
        <time>2021-08-08T12:26:48Z</time>
      </trkpt>
      <trkpt lat="48.98822" lon="-0.01687">
        <ele>60.35</ele>
        <time>2021-08-08T12:26:49Z</time>
      </trkpt>
      <trkpt lat="48.98817" lon="-0.01682">
        <ele>60.5</ele>
        <time>2021-08-08T12:26:50Z</time>
      </trkpt>
      <trkpt lat="48.98813" lon="-0.01676">
        <ele>60.66</ele>
        <time>2021-08-08T12:26:51Z</time>
      </trkpt>
      <trkpt lat="48.98809" lon="-0.01671">
        <ele>60.82</ele>
        <time>2021-08-08T12:26:52Z</time>
      </trkpt>
      <trkpt lat="48.98805" lon="-0.01666">
        <ele>60.94</ele>
        <time>2021-08-08T12:26:53Z</time>
      </trkpt>
      <trkpt lat="48.988" lon="-0.01662">
        <ele>60.88</ele>
        <time>2021-08-08T12:26:54Z</time>
      </trkpt>
      <trkpt lat="48.98796" lon="-0.01657">
        <ele>60.81</ele>
        <time>2021-08-08T12:26:55Z</time>
      </trkpt>
      <trkpt lat="48.98791" lon="-0.01653">
        <ele>60.78</ele>
        <time>2021-08-08T12:26:56Z</time>
      </trkpt>
      <trkpt lat="48.98787" lon="-0.01648">
        <ele>60.78</ele>
        <time>2021-08-08T12:26:57Z</time>
      </trkpt>
      <trkpt lat="48.98782" lon="-0.01643">
        <ele>60.84</ele>
        <time>2021-08-08T12:26:58Z</time>
      </trkpt>
      <trkpt lat="48.98778" lon="-0.01639">
        <ele>60.95</ele>
        <time>2021-08-08T12:26:59Z</time>
      </trkpt>
      <trkpt lat="48.98772" lon="-0.01634">
        <ele>60.99</ele>
        <time>2021-08-08T12:27:00Z</time>
      </trkpt>
      <trkpt lat="48.98768" lon="-0.0163">
        <ele>61</ele>
        <time>2021-08-08T12:27:01Z</time>
      </trkpt>
      <trkpt lat="48.98762" lon="-0.01626">
        <ele>61</ele>
        <time>2021-08-08T12:27:02Z</time>
      </trkpt>
      <trkpt lat="48.98758" lon="-0.01622">
        <ele>61</ele>
        <time>2021-08-08T12:27:03Z</time>
      </trkpt>
      <trkpt lat="48.98756" lon="-0.0162">
        <ele>61</ele>
        <time>2021-08-08T12:27:04Z</time>
      </trkpt>
      <trkpt lat="48.98755" lon="-0.01622">
        <ele>61</ele>
        <time>2021-08-08T12:27:05Z</time>
      </trkpt>
      <trkpt lat="48.98755" lon="-0.01622">
        <ele>61</ele>
        <time>2021-08-08T12:27:06Z</time>
      </trkpt>
      <trkpt lat="48.98755" lon="-0.01622">
        <ele>61</ele>
        <time>2021-08-08T12:27:07Z</time>
      </trkpt>
      <trkpt lat="48.98755" lon="-0.01622">
        <ele>61</ele>
        <time>2021-08-08T12:27:08Z</time>
      </trkpt>
      <trkpt lat="48.98755" lon="-0.01622">
        <ele>61</ele>
        <time>2021-08-08T12:27:09Z</time>
      </trkpt>
      <trkpt lat="48.98755" lon="-0.01622">
        <ele>61</ele>
        <time>2021-08-08T12:27:10Z</time>
      </trkpt>
      <trkpt lat="48.98755" lon="-0.01622">
        <ele>61</ele>
        <time>2021-08-08T12:27:11Z</time>
      </trkpt>
      <trkpt lat="48.98755" lon="-0.01622">
        <ele>61</ele>
        <time>2021-08-08T12:27:12Z</time>
      </trkpt>
      <trkpt lat="48.98755" lon="-0.01622">
        <ele>61</ele>
        <time>2021-08-08T12:27:13Z</time>
      </trkpt>
      <trkpt lat="48.98755" lon="-0.01622">
        <ele>61</ele>
        <time>2021-08-08T12:27:14Z</time>
      </trkpt>
      <trkpt lat="48.98755" lon="-0.01622">
        <ele>61</ele>
        <time>2021-08-08T12:27:15Z</time>
      </trkpt>
      <trkpt lat="48.98755" lon="-0.01622">
        <ele>61</ele>
        <time>2021-08-08T12:27:16Z</time>
      </trkpt>
      <trkpt lat="48.98752" lon="-0.01618">
        <ele>61</ele>
        <time>2021-08-08T12:27:17Z</time>
      </trkpt>
      <trkpt lat="48.98749" lon="-0.01615">
        <ele>61</ele>
        <time>2021-08-08T12:27:18Z</time>
      </trkpt>
      <trkpt lat="48.98747" lon="-0.01611">
        <ele>61</ele>
        <time>2021-08-08T12:27:19Z</time>
      </trkpt>
      <trkpt lat="48.98744" lon="-0.01607">
        <ele>60.92</ele>
        <time>2021-08-08T12:27:20Z</time>
      </trkpt>
      <trkpt lat="48.9874" lon="-0.01603">
        <ele>60.84</ele>
        <time>2021-08-08T12:27:21Z</time>
      </trkpt>
      <trkpt lat="48.98736" lon="-0.01599">
        <ele>60.8</ele>
        <time>2021-08-08T12:27:22Z</time>
      </trkpt>
      <trkpt lat="48.98732" lon="-0.01595">
        <ele>60.79</ele>
        <time>2021-08-08T12:27:23Z</time>
      </trkpt>
      <trkpt lat="48.98728" lon="-0.01591">
        <ele>60.82</ele>
        <time>2021-08-08T12:27:24Z</time>
      </trkpt>
      <trkpt lat="48.98724" lon="-0.01586">
        <ele>60.9</ele>
        <time>2021-08-08T12:27:25Z</time>
      </trkpt>
      <trkpt lat="48.9872" lon="-0.01581">
        <ele>60.93</ele>
        <time>2021-08-08T12:27:26Z</time>
      </trkpt>
      <trkpt lat="48.98715" lon="-0.01577">
        <ele>60.85</ele>
        <time>2021-08-08T12:27:27Z</time>
      </trkpt>
      <trkpt lat="48.9871" lon="-0.01571">
        <ele>60.79</ele>
        <time>2021-08-08T12:27:28Z</time>
      </trkpt>
      <trkpt lat="48.98704" lon="-0.01567">
        <ele>60.79</ele>
        <time>2021-08-08T12:27:29Z</time>
      </trkpt>
      <trkpt lat="48.98699" lon="-0.01562">
        <ele>60.85</ele>
        <time>2021-08-08T12:27:30Z</time>
      </trkpt>
      <trkpt lat="48.98694" lon="-0.01557">
        <ele>60.95</ele>
        <time>2021-08-08T12:27:31Z</time>
      </trkpt>
      <trkpt lat="48.98688" lon="-0.01551">
        <ele>60.9</ele>
        <time>2021-08-08T12:27:32Z</time>
      </trkpt>
      <trkpt lat="48.98683" lon="-0.01546">
        <ele>60.83</ele>
        <time>2021-08-08T12:27:33Z</time>
      </trkpt>
      <trkpt lat="48.98677" lon="-0.01541">
        <ele>60.81</ele>
        <time>2021-08-08T12:27:34Z</time>
      </trkpt>
      <trkpt lat="48.98671" lon="-0.01536">
        <ele>60.86</ele>
        <time>2021-08-08T12:27:35Z</time>
      </trkpt>
      <trkpt lat="48.98666" lon="-0.0153">
        <ele>60.96</ele>
        <time>2021-08-08T12:27:36Z</time>
      </trkpt>
      <trkpt lat="48.9866" lon="-0.01523">
        <ele>60.9</ele>
        <time>2021-08-08T12:27:37Z</time>
      </trkpt>
      <trkpt lat="48.98654" lon="-0.01517">
        <ele>60.82</ele>
        <time>2021-08-08T12:27:38Z</time>
      </trkpt>
      <trkpt lat="48.98647" lon="-0.01511">
        <ele>60.82</ele>
        <time>2021-08-08T12:27:39Z</time>
      </trkpt>
      <trkpt lat="48.98641" lon="-0.01505">
        <ele>60.9</ele>
        <time>2021-08-08T12:27:40Z</time>
      </trkpt>
      <trkpt lat="48.98635" lon="-0.01499">
        <ele>60.94</ele>
        <time>2021-08-08T12:27:41Z</time>
      </trkpt>
      <trkpt lat="48.98629" lon="-0.01493">
        <ele>60.87</ele>
        <time>2021-08-08T12:27:42Z</time>
      </trkpt>
      <trkpt lat="48.98623" lon="-0.01488">
        <ele>60.82</ele>
        <time>2021-08-08T12:27:43Z</time>
      </trkpt>
      <trkpt lat="48.98617" lon="-0.01482">
        <ele>60.84</ele>
        <time>2021-08-08T12:27:44Z</time>
      </trkpt>
      <trkpt lat="48.98611" lon="-0.01476">
        <ele>60.95</ele>
        <time>2021-08-08T12:27:45Z</time>
      </trkpt>
      <trkpt lat="48.98605" lon="-0.0147">
        <ele>60.92</ele>
        <time>2021-08-08T12:27:46Z</time>
      </trkpt>
      <trkpt lat="48.98599" lon="-0.01464">
        <ele>60.76</ele>
        <time>2021-08-08T12:27:47Z</time>
      </trkpt>
      <trkpt lat="48.98593" lon="-0.01458">
        <ele>60.56</ele>
        <time>2021-08-08T12:27:48Z</time>
      </trkpt>
      <trkpt lat="48.98586" lon="-0.01452">
        <ele>60.35</ele>
        <time>2021-08-08T12:27:49Z</time>
      </trkpt>
      <trkpt lat="48.9858" lon="-0.01446">
        <ele>60.13</ele>
        <time>2021-08-08T12:27:50Z</time>
      </trkpt>
      <trkpt lat="48.98574" lon="-0.01439">
        <ele>60.04</ele>
        <time>2021-08-08T12:27:51Z</time>
      </trkpt>
      <trkpt lat="48.98567" lon="-0.01433">
        <ele>60.01</ele>
        <time>2021-08-08T12:27:52Z</time>
      </trkpt>
      <trkpt lat="48.9856" lon="-0.01427">
        <ele>60</ele>
        <time>2021-08-08T12:27:53Z</time>
      </trkpt>
      <trkpt lat="48.98554" lon="-0.01421">
        <ele>60.01</ele>
        <time>2021-08-08T12:27:54Z</time>
      </trkpt>
      <trkpt lat="48.98547" lon="-0.01414">
        <ele>60</ele>
        <time>2021-08-08T12:27:55Z</time>
      </trkpt>
      <trkpt lat="48.98541" lon="-0.01408">
        <ele>60</ele>
        <time>2021-08-08T12:27:56Z</time>
      </trkpt>
      <trkpt lat="48.98534" lon="-0.01401">
        <ele>60</ele>
        <time>2021-08-08T12:27:57Z</time>
      </trkpt>
      <trkpt lat="48.98528" lon="-0.01395">
        <ele>60</ele>
        <time>2021-08-08T12:27:58Z</time>
      </trkpt>
      <trkpt lat="48.98522" lon="-0.01388">
        <ele>60</ele>
        <time>2021-08-08T12:27:59Z</time>
      </trkpt>
      <trkpt lat="48.98516" lon="-0.01382">
        <ele>60</ele>
        <time>2021-08-08T12:28:00Z</time>
      </trkpt>
      <trkpt lat="48.9851" lon="-0.01376">
        <ele>60</ele>
        <time>2021-08-08T12:28:01Z</time>
      </trkpt>
      <trkpt lat="48.98504" lon="-0.0137">
        <ele>60</ele>
        <time>2021-08-08T12:28:02Z</time>
      </trkpt>
      <trkpt lat="48.98498" lon="-0.01363">
        <ele>60</ele>
        <time>2021-08-08T12:28:03Z</time>
      </trkpt>
      <trkpt lat="48.98492" lon="-0.01357">
        <ele>59.89</ele>
        <time>2021-08-08T12:28:04Z</time>
      </trkpt>
      <trkpt lat="48.98486" lon="-0.0135">
        <ele>59.69</ele>
        <time>2021-08-08T12:28:05Z</time>
      </trkpt>
      <trkpt lat="48.9848" lon="-0.01344">
        <ele>59.48</ele>
        <time>2021-08-08T12:28:06Z</time>
      </trkpt>
      <trkpt lat="48.98473" lon="-0.01338">
        <ele>59.25</ele>
        <time>2021-08-08T12:28:07Z</time>
      </trkpt>
      <trkpt lat="48.98466" lon="-0.01331">
        <ele>59.07</ele>
        <time>2021-08-08T12:28:08Z</time>
      </trkpt>
      <trkpt lat="48.9846" lon="-0.01324">
        <ele>59.02</ele>
        <time>2021-08-08T12:28:09Z</time>
      </trkpt>
      <trkpt lat="48.98454" lon="-0.01318">
        <ele>59.01</ele>
        <time>2021-08-08T12:28:10Z</time>
      </trkpt>
      <trkpt lat="48.98448" lon="-0.01311">
        <ele>59</ele>
        <time>2021-08-08T12:28:11Z</time>
      </trkpt>
      <trkpt lat="48.98441" lon="-0.01305">
        <ele>58.98</ele>
        <time>2021-08-08T12:28:12Z</time>
      </trkpt>
      <trkpt lat="48.98434" lon="-0.01298">
        <ele>58.88</ele>
        <time>2021-08-08T12:28:13Z</time>
      </trkpt>
      <trkpt lat="48.98428" lon="-0.01292">
        <ele>58.83</ele>
        <time>2021-08-08T12:28:14Z</time>
      </trkpt>
      <trkpt lat="48.98421" lon="-0.01285">
        <ele>58.87</ele>
        <time>2021-08-08T12:28:15Z</time>
      </trkpt>
      <trkpt lat="48.98415" lon="-0.01279">
        <ele>58.96</ele>
        <time>2021-08-08T12:28:16Z</time>
      </trkpt>
      <trkpt lat="48.98408" lon="-0.01273">
        <ele>58.86</ele>
        <time>2021-08-08T12:28:17Z</time>
      </trkpt>
      <trkpt lat="48.98401" lon="-0.01267">
        <ele>58.69</ele>
        <time>2021-08-08T12:28:18Z</time>
      </trkpt>
      <trkpt lat="48.98395" lon="-0.01261">
        <ele>58.49</ele>
        <time>2021-08-08T12:28:19Z</time>
      </trkpt>
      <trkpt lat="48.98388" lon="-0.01256">
        <ele>58.29</ele>
        <time>2021-08-08T12:28:20Z</time>
      </trkpt>
      <trkpt lat="48.98381" lon="-0.0125">
        <ele>58.09</ele>
        <time>2021-08-08T12:28:21Z</time>
      </trkpt>
      <trkpt lat="48.98375" lon="-0.01244">
        <ele>58.03</ele>
        <time>2021-08-08T12:28:22Z</time>
      </trkpt>
      <trkpt lat="48.98368" lon="-0.01239">
        <ele>58.01</ele>
        <time>2021-08-08T12:28:23Z</time>
      </trkpt>
      <trkpt lat="48.98362" lon="-0.01233">
        <ele>58</ele>
        <time>2021-08-08T12:28:24Z</time>
      </trkpt>
      <trkpt lat="48.98355" lon="-0.01228">
        <ele>58</ele>
        <time>2021-08-08T12:28:25Z</time>
      </trkpt>
      <trkpt lat="48.98348" lon="-0.01223">
        <ele>58</ele>
        <time>2021-08-08T12:28:26Z</time>
      </trkpt>
      <trkpt lat="48.98341" lon="-0.01218">
        <ele>57.92</ele>
        <time>2021-08-08T12:28:27Z</time>
      </trkpt>
      <trkpt lat="48.98334" lon="-0.01213">
        <ele>57.74</ele>
        <time>2021-08-08T12:28:28Z</time>
      </trkpt>
      <trkpt lat="48.98327" lon="-0.01208">
        <ele>57.65</ele>
        <time>2021-08-08T12:28:29Z</time>
      </trkpt>
      <trkpt lat="48.98319" lon="-0.01203">
        <ele>57.65</ele>
        <time>2021-08-08T12:28:30Z</time>
      </trkpt>
      <trkpt lat="48.98312" lon="-0.01199">
        <ele>57.76</ele>
        <time>2021-08-08T12:28:31Z</time>
      </trkpt>
      <trkpt lat="48.98305" lon="-0.01195">
        <ele>57.93</ele>
        <time>2021-08-08T12:28:32Z</time>
      </trkpt>
      <trkpt lat="48.98297" lon="-0.01191">
        <ele>57.88</ele>
        <time>2021-08-08T12:28:33Z</time>
      </trkpt>
      <trkpt lat="48.9829" lon="-0.01187">
        <ele>57.77</ele>
        <time>2021-08-08T12:28:34Z</time>
      </trkpt>
      <trkpt lat="48.98283" lon="-0.01183">
        <ele>57.63</ele>
        <time>2021-08-08T12:28:35Z</time>
      </trkpt>
      <trkpt lat="48.98276" lon="-0.01178">
        <ele>57.51</ele>
        <time>2021-08-08T12:28:36Z</time>
      </trkpt>
      <trkpt lat="48.98269" lon="-0.01174">
        <ele>57.51</ele>
        <time>2021-08-08T12:28:37Z</time>
      </trkpt>
      <trkpt lat="48.98262" lon="-0.0117">
        <ele>57.59</ele>
        <time>2021-08-08T12:28:38Z</time>
      </trkpt>
      <trkpt lat="48.98255" lon="-0.01165">
        <ele>57.72</ele>
        <time>2021-08-08T12:28:39Z</time>
      </trkpt>
      <trkpt lat="48.98249" lon="-0.01162">
        <ele>57.79</ele>
        <time>2021-08-08T12:28:40Z</time>
      </trkpt>
      <trkpt lat="48.98242" lon="-0.01158">
        <ele>57.78</ele>
        <time>2021-08-08T12:28:41Z</time>
      </trkpt>
      <trkpt lat="48.98236" lon="-0.01154">
        <ele>57.78</ele>
        <time>2021-08-08T12:28:42Z</time>
      </trkpt>
      <trkpt lat="48.98229" lon="-0.0115">
        <ele>57.84</ele>
        <time>2021-08-08T12:28:43Z</time>
      </trkpt>
      <trkpt lat="48.98222" lon="-0.01146">
        <ele>57.95</ele>
        <time>2021-08-08T12:28:44Z</time>
      </trkpt>
      <trkpt lat="48.98215" lon="-0.01142">
        <ele>57.99</ele>
        <time>2021-08-08T12:28:45Z</time>
      </trkpt>
      <trkpt lat="48.98208" lon="-0.01138">
        <ele>58</ele>
        <time>2021-08-08T12:28:46Z</time>
      </trkpt>
      <trkpt lat="48.98201" lon="-0.01134">
        <ele>58</ele>
        <time>2021-08-08T12:28:47Z</time>
      </trkpt>
      <trkpt lat="48.98194" lon="-0.0113">
        <ele>58</ele>
        <time>2021-08-08T12:28:48Z</time>
      </trkpt>
      <trkpt lat="48.98187" lon="-0.01126">
        <ele>58</ele>
        <time>2021-08-08T12:28:49Z</time>
      </trkpt>
      <trkpt lat="48.9818" lon="-0.01123">
        <ele>58</ele>
        <time>2021-08-08T12:28:50Z</time>
      </trkpt>
      <trkpt lat="48.98174" lon="-0.01119">
        <ele>58</ele>
        <time>2021-08-08T12:28:51Z</time>
      </trkpt>
      <trkpt lat="48.98167" lon="-0.01116">
        <ele>58</ele>
        <time>2021-08-08T12:28:52Z</time>
      </trkpt>
      <trkpt lat="48.9816" lon="-0.01112">
        <ele>58</ele>
        <time>2021-08-08T12:28:53Z</time>
      </trkpt>
      <trkpt lat="48.98154" lon="-0.01108">
        <ele>58</ele>
        <time>2021-08-08T12:28:54Z</time>
      </trkpt>
      <trkpt lat="48.98147" lon="-0.01104">
        <ele>58</ele>
        <time>2021-08-08T12:28:55Z</time>
      </trkpt>
      <trkpt lat="48.9814" lon="-0.011">
        <ele>58</ele>
        <time>2021-08-08T12:28:56Z</time>
      </trkpt>
      <trkpt lat="48.98133" lon="-0.01096">
        <ele>58</ele>
        <time>2021-08-08T12:28:57Z</time>
      </trkpt>
      <trkpt lat="48.98127" lon="-0.01092">
        <ele>58</ele>
        <time>2021-08-08T12:28:58Z</time>
      </trkpt>
      <trkpt lat="48.9812" lon="-0.01088">
        <ele>58</ele>
        <time>2021-08-08T12:28:59Z</time>
      </trkpt>
      <trkpt lat="48.98113" lon="-0.01084">
        <ele>58</ele>
        <time>2021-08-08T12:29:00Z</time>
      </trkpt>
      <trkpt lat="48.98106" lon="-0.01081">
        <ele>58.19</ele>
        <time>2021-08-08T12:29:01Z</time>
      </trkpt>
      <trkpt lat="48.98099" lon="-0.01077">
        <ele>58.45</ele>
        <time>2021-08-08T12:29:02Z</time>
      </trkpt>
      <trkpt lat="48.98092" lon="-0.01073">
        <ele>58.69</ele>
        <time>2021-08-08T12:29:03Z</time>
      </trkpt>
      <trkpt lat="48.98085" lon="-0.0107">
        <ele>58.88</ele>
        <time>2021-08-08T12:29:04Z</time>
      </trkpt>
      <trkpt lat="48.98079" lon="-0.01066">
        <ele>58.96</ele>
        <time>2021-08-08T12:29:05Z</time>
      </trkpt>
      <trkpt lat="48.98072" lon="-0.01062">
        <ele>58.99</ele>
        <time>2021-08-08T12:29:06Z</time>
      </trkpt>
      <trkpt lat="48.98065" lon="-0.01059">
        <ele>59</ele>
        <time>2021-08-08T12:29:07Z</time>
      </trkpt>
      <trkpt lat="48.98058" lon="-0.01056">
        <ele>59</ele>
        <time>2021-08-08T12:29:08Z</time>
      </trkpt>
      <trkpt lat="48.98051" lon="-0.01053">
        <ele>59</ele>
        <time>2021-08-08T12:29:09Z</time>
      </trkpt>
      <trkpt lat="48.98044" lon="-0.01049">
        <ele>59</ele>
        <time>2021-08-08T12:29:10Z</time>
      </trkpt>
      <trkpt lat="48.98037" lon="-0.01045">
        <ele>59</ele>
        <time>2021-08-08T12:29:11Z</time>
      </trkpt>
      <trkpt lat="48.9803" lon="-0.01041">
        <ele>59</ele>
        <time>2021-08-08T12:29:12Z</time>
      </trkpt>
      <trkpt lat="48.98024" lon="-0.01037">
        <ele>59.07</ele>
        <time>2021-08-08T12:29:13Z</time>
      </trkpt>
      <trkpt lat="48.98017" lon="-0.01033">
        <ele>59.24</ele>
        <time>2021-08-08T12:29:14Z</time>
      </trkpt>
      <trkpt lat="48.9801" lon="-0.01029">
        <ele>59.49</ele>
        <time>2021-08-08T12:29:15Z</time>
      </trkpt>
      <trkpt lat="48.98004" lon="-0.01025">
        <ele>59.75</ele>
        <time>2021-08-08T12:29:16Z</time>
      </trkpt>
      <trkpt lat="48.97997" lon="-0.01021">
        <ele>59.93</ele>
        <time>2021-08-08T12:29:17Z</time>
      </trkpt>
      <trkpt lat="48.9799" lon="-0.01017">
        <ele>59.98</ele>
        <time>2021-08-08T12:29:18Z</time>
      </trkpt>
      <trkpt lat="48.97983" lon="-0.01013">
        <ele>59.99</ele>
        <time>2021-08-08T12:29:19Z</time>
      </trkpt>
      <trkpt lat="48.97977" lon="-0.0101">
        <ele>60</ele>
        <time>2021-08-08T12:29:20Z</time>
      </trkpt>
      <trkpt lat="48.9797" lon="-0.01007">
        <ele>60</ele>
        <time>2021-08-08T12:29:21Z</time>
      </trkpt>
      <trkpt lat="48.97964" lon="-0.01003">
        <ele>60</ele>
        <time>2021-08-08T12:29:22Z</time>
      </trkpt>
      <trkpt lat="48.97958" lon="-0.01">
        <ele>60</ele>
        <time>2021-08-08T12:29:23Z</time>
      </trkpt>
      <trkpt lat="48.97951" lon="-0.00996">
        <ele>60</ele>
        <time>2021-08-08T12:29:24Z</time>
      </trkpt>
      <trkpt lat="48.97945" lon="-0.00992">
        <ele>60</ele>
        <time>2021-08-08T12:29:25Z</time>
      </trkpt>
      <trkpt lat="48.97938" lon="-0.00989">
        <ele>60</ele>
        <time>2021-08-08T12:29:26Z</time>
      </trkpt>
      <trkpt lat="48.97931" lon="-0.00984">
        <ele>60</ele>
        <time>2021-08-08T12:29:27Z</time>
      </trkpt>
      <trkpt lat="48.97924" lon="-0.0098">
        <ele>60</ele>
        <time>2021-08-08T12:29:28Z</time>
      </trkpt>
      <trkpt lat="48.97918" lon="-0.00977">
        <ele>60</ele>
        <time>2021-08-08T12:29:29Z</time>
      </trkpt>
      <trkpt lat="48.97911" lon="-0.00973">
        <ele>60</ele>
        <time>2021-08-08T12:29:30Z</time>
      </trkpt>
      <trkpt lat="48.97904" lon="-0.00969">
        <ele>60</ele>
        <time>2021-08-08T12:29:31Z</time>
      </trkpt>
      <trkpt lat="48.97898" lon="-0.00965">
        <ele>60</ele>
        <time>2021-08-08T12:29:32Z</time>
      </trkpt>
      <trkpt lat="48.97892" lon="-0.00961">
        <ele>60</ele>
        <time>2021-08-08T12:29:33Z</time>
      </trkpt>
      <trkpt lat="48.97885" lon="-0.00957">
        <ele>60</ele>
        <time>2021-08-08T12:29:34Z</time>
      </trkpt>
      <trkpt lat="48.97879" lon="-0.00953">
        <ele>60</ele>
        <time>2021-08-08T12:29:35Z</time>
      </trkpt>
      <trkpt lat="48.97872" lon="-0.00949">
        <ele>60</ele>
        <time>2021-08-08T12:29:36Z</time>
      </trkpt>
      <trkpt lat="48.97865" lon="-0.00945">
        <ele>60</ele>
        <time>2021-08-08T12:29:37Z</time>
      </trkpt>
      <trkpt lat="48.97858" lon="-0.0094">
        <ele>60.07</ele>
        <time>2021-08-08T12:29:38Z</time>
      </trkpt>
      <trkpt lat="48.97852" lon="-0.00936">
        <ele>60.26</ele>
        <time>2021-08-08T12:29:39Z</time>
      </trkpt>
      <trkpt lat="48.97845" lon="-0.00932">
        <ele>60.49</ele>
        <time>2021-08-08T12:29:40Z</time>
      </trkpt>
      <trkpt lat="48.97838" lon="-0.00927">
        <ele>60.73</ele>
        <time>2021-08-08T12:29:41Z</time>
      </trkpt>
      <trkpt lat="48.97831" lon="-0.00923">
        <ele>60.92</ele>
        <time>2021-08-08T12:29:42Z</time>
      </trkpt>
      <trkpt lat="48.97825" lon="-0.00919">
        <ele>60.98</ele>
        <time>2021-08-08T12:29:43Z</time>
      </trkpt>
      <trkpt lat="48.97818" lon="-0.00914">
        <ele>60.94</ele>
        <time>2021-08-08T12:29:44Z</time>
      </trkpt>
      <trkpt lat="48.97811" lon="-0.0091">
        <ele>60.82</ele>
        <time>2021-08-08T12:29:45Z</time>
      </trkpt>
      <trkpt lat="48.97804" lon="-0.00907">
        <ele>60.71</ele>
        <time>2021-08-08T12:29:46Z</time>
      </trkpt>
      <trkpt lat="48.97797" lon="-0.00902">
        <ele>60.66</ele>
        <time>2021-08-08T12:29:47Z</time>
      </trkpt>
      <trkpt lat="48.97791" lon="-0.00898">
        <ele>60.67</ele>
        <time>2021-08-08T12:29:48Z</time>
      </trkpt>
      <trkpt lat="48.97784" lon="-0.00893">
        <ele>60.76</ele>
        <time>2021-08-08T12:29:49Z</time>
      </trkpt>
      <trkpt lat="48.97778" lon="-0.00889">
        <ele>60.93</ele>
        <time>2021-08-08T12:29:50Z</time>
      </trkpt>
      <trkpt lat="48.97771" lon="-0.00885">
        <ele>60.9</ele>
        <time>2021-08-08T12:29:51Z</time>
      </trkpt>
      <trkpt lat="48.97764" lon="-0.00881">
        <ele>60.87</ele>
        <time>2021-08-08T12:29:52Z</time>
      </trkpt>
      <trkpt lat="48.97757" lon="-0.00878">
        <ele>60.89</ele>
        <time>2021-08-08T12:29:53Z</time>
      </trkpt>
      <trkpt lat="48.9775" lon="-0.00874">
        <ele>60.96</ele>
        <time>2021-08-08T12:29:54Z</time>
      </trkpt>
      <trkpt lat="48.97744" lon="-0.00871">
        <ele>60.99</ele>
        <time>2021-08-08T12:29:55Z</time>
      </trkpt>
      <trkpt lat="48.97737" lon="-0.00867">
        <ele>61</ele>
        <time>2021-08-08T12:29:56Z</time>
      </trkpt>
      <trkpt lat="48.97731" lon="-0.00865">
        <ele>61</ele>
        <time>2021-08-08T12:29:57Z</time>
      </trkpt>
      <trkpt lat="48.97724" lon="-0.00862">
        <ele>61</ele>
        <time>2021-08-08T12:29:58Z</time>
      </trkpt>
      <trkpt lat="48.97718" lon="-0.00858">
        <ele>61</ele>
        <time>2021-08-08T12:29:59Z</time>
      </trkpt>
      <trkpt lat="48.97711" lon="-0.00855">
        <ele>61</ele>
        <time>2021-08-08T12:30:00Z</time>
      </trkpt>
      <trkpt lat="48.97705" lon="-0.00851">
        <ele>61</ele>
        <time>2021-08-08T12:30:01Z</time>
      </trkpt>
      <trkpt lat="48.97698" lon="-0.00847">
        <ele>61</ele>
        <time>2021-08-08T12:30:02Z</time>
      </trkpt>
      <trkpt lat="48.97692" lon="-0.00844">
        <ele>61.07</ele>
        <time>2021-08-08T12:30:03Z</time>
      </trkpt>
      <trkpt lat="48.97685" lon="-0.0084">
        <ele>61.25</ele>
        <time>2021-08-08T12:30:04Z</time>
      </trkpt>
      <trkpt lat="48.97678" lon="-0.00836">
        <ele>61.48</ele>
        <time>2021-08-08T12:30:05Z</time>
      </trkpt>
      <trkpt lat="48.97672" lon="-0.00833">
        <ele>61.71</ele>
        <time>2021-08-08T12:30:06Z</time>
      </trkpt>
      <trkpt lat="48.97665" lon="-0.00829">
        <ele>61.91</ele>
        <time>2021-08-08T12:30:07Z</time>
      </trkpt>
      <trkpt lat="48.97659" lon="-0.00826">
        <ele>61.97</ele>
        <time>2021-08-08T12:30:08Z</time>
      </trkpt>
      <trkpt lat="48.97652" lon="-0.00823">
        <ele>61.99</ele>
        <time>2021-08-08T12:30:09Z</time>
      </trkpt>
      <trkpt lat="48.97646" lon="-0.00819">
        <ele>62</ele>
        <time>2021-08-08T12:30:10Z</time>
      </trkpt>
      <trkpt lat="48.9764" lon="-0.00816">
        <ele>62</ele>
        <time>2021-08-08T12:30:11Z</time>
      </trkpt>
      <trkpt lat="48.97634" lon="-0.00812">
        <ele>62</ele>
        <time>2021-08-08T12:30:12Z</time>
      </trkpt>
      <trkpt lat="48.97628" lon="-0.00808">
        <ele>62</ele>
        <time>2021-08-08T12:30:13Z</time>
      </trkpt>
      <trkpt lat="48.97622" lon="-0.00805">
        <ele>62</ele>
        <time>2021-08-08T12:30:14Z</time>
      </trkpt>
      <trkpt lat="48.97616" lon="-0.00801">
        <ele>62</ele>
        <time>2021-08-08T12:30:15Z</time>
      </trkpt>
      <trkpt lat="48.9761" lon="-0.00798">
        <ele>62</ele>
        <time>2021-08-08T12:30:16Z</time>
      </trkpt>
      <trkpt lat="48.97604" lon="-0.00795">
        <ele>62</ele>
        <time>2021-08-08T12:30:17Z</time>
      </trkpt>
      <trkpt lat="48.97598" lon="-0.00791">
        <ele>62</ele>
        <time>2021-08-08T12:30:18Z</time>
      </trkpt>
      <trkpt lat="48.97592" lon="-0.00788">
        <ele>62</ele>
        <time>2021-08-08T12:30:19Z</time>
      </trkpt>
      <trkpt lat="48.97586" lon="-0.00785">
        <ele>62</ele>
        <time>2021-08-08T12:30:20Z</time>
      </trkpt>
      <trkpt lat="48.9758" lon="-0.00782">
        <ele>62</ele>
        <time>2021-08-08T12:30:21Z</time>
      </trkpt>
      <trkpt lat="48.97575" lon="-0.00778">
        <ele>62</ele>
        <time>2021-08-08T12:30:22Z</time>
      </trkpt>
      <trkpt lat="48.97569" lon="-0.00774">
        <ele>62</ele>
        <time>2021-08-08T12:30:23Z</time>
      </trkpt>
      <trkpt lat="48.97563" lon="-0.0077">
        <ele>62</ele>
        <time>2021-08-08T12:30:24Z</time>
      </trkpt>
      <trkpt lat="48.97557" lon="-0.00767">
        <ele>62</ele>
        <time>2021-08-08T12:30:25Z</time>
      </trkpt>
      <trkpt lat="48.97551" lon="-0.00765">
        <ele>62</ele>
        <time>2021-08-08T12:30:26Z</time>
      </trkpt>
      <trkpt lat="48.97546" lon="-0.00761">
        <ele>62</ele>
        <time>2021-08-08T12:30:27Z</time>
      </trkpt>
      <trkpt lat="48.9754" lon="-0.00758">
        <ele>62</ele>
        <time>2021-08-08T12:30:28Z</time>
      </trkpt>
      <trkpt lat="48.97535" lon="-0.00756">
        <ele>62</ele>
        <time>2021-08-08T12:30:29Z</time>
      </trkpt>
      <trkpt lat="48.9753" lon="-0.00754">
        <ele>62</ele>
        <time>2021-08-08T12:30:30Z</time>
      </trkpt>
      <trkpt lat="48.97526" lon="-0.00753">
        <ele>62</ele>
        <time>2021-08-08T12:30:31Z</time>
      </trkpt>
      <trkpt lat="48.97523" lon="-0.00751">
        <ele>62</ele>
        <time>2021-08-08T12:30:32Z</time>
      </trkpt>
      <trkpt lat="48.97523" lon="-0.0075">
        <ele>62</ele>
        <time>2021-08-08T12:30:33Z</time>
      </trkpt>
      <trkpt lat="48.97523" lon="-0.0075">
        <ele>62</ele>
        <time>2021-08-08T12:30:34Z</time>
      </trkpt>
      <trkpt lat="48.97523" lon="-0.0075">
        <ele>62</ele>
        <time>2021-08-08T12:30:35Z</time>
      </trkpt>
      <trkpt lat="48.97523" lon="-0.0075">
        <ele>62</ele>
        <time>2021-08-08T12:30:36Z</time>
      </trkpt>
      <trkpt lat="48.97523" lon="-0.0075">
        <ele>62</ele>
        <time>2021-08-08T12:30:37Z</time>
      </trkpt>
      <trkpt lat="48.97523" lon="-0.0075">
        <ele>62</ele>
        <time>2021-08-08T12:30:38Z</time>
      </trkpt>
      <trkpt lat="48.97523" lon="-0.0075">
        <ele>62</ele>
        <time>2021-08-08T12:30:39Z</time>
      </trkpt>
      <trkpt lat="48.97523" lon="-0.0075">
        <ele>62</ele>
        <time>2021-08-08T12:30:40Z</time>
      </trkpt>
      <trkpt lat="48.97523" lon="-0.0075">
        <ele>62</ele>
        <time>2021-08-08T12:30:41Z</time>
      </trkpt>
      <trkpt lat="48.97523" lon="-0.0075">
        <ele>62</ele>
        <time>2021-08-08T12:30:42Z</time>
      </trkpt>
      <trkpt lat="48.97523" lon="-0.0075">
        <ele>62</ele>
        <time>2021-08-08T12:30:43Z</time>
      </trkpt>
      <trkpt lat="48.97523" lon="-0.0075">
        <ele>62</ele>
        <time>2021-08-08T12:30:44Z</time>
      </trkpt>
      <trkpt lat="48.97523" lon="-0.0075">
        <ele>62</ele>
        <time>2021-08-08T12:30:45Z</time>
      </trkpt>
      <trkpt lat="48.97523" lon="-0.0075">
        <ele>62</ele>
        <time>2021-08-08T12:30:46Z</time>
      </trkpt>
      <trkpt lat="48.97523" lon="-0.0075">
        <ele>62</ele>
        <time>2021-08-08T12:30:47Z</time>
      </trkpt>
      <trkpt lat="48.97523" lon="-0.0075">
        <ele>62</ele>
        <time>2021-08-08T12:30:48Z</time>
      </trkpt>
      <trkpt lat="48.97523" lon="-0.0075">
        <ele>62</ele>
        <time>2021-08-08T12:30:49Z</time>
      </trkpt>
      <trkpt lat="48.97523" lon="-0.0075">
        <ele>62</ele>
        <time>2021-08-08T12:30:50Z</time>
      </trkpt>
      <trkpt lat="48.97524" lon="-0.00746">
        <ele>61.9</ele>
        <time>2021-08-08T12:30:51Z</time>
      </trkpt>
      <trkpt lat="48.97525" lon="-0.00743">
        <ele>61.79</ele>
        <time>2021-08-08T12:30:52Z</time>
      </trkpt>
      <trkpt lat="48.97527" lon="-0.0074">
        <ele>61.69</ele>
        <time>2021-08-08T12:30:53Z</time>
      </trkpt>
      <trkpt lat="48.97529" lon="-0.00736">
        <ele>61.54</ele>
        <time>2021-08-08T12:30:54Z</time>
      </trkpt>
      <trkpt lat="48.9753" lon="-0.0073">
        <ele>61.35</ele>
        <time>2021-08-08T12:30:55Z</time>
      </trkpt>
      <trkpt lat="48.97531" lon="-0.00723">
        <ele>61.13</ele>
        <time>2021-08-08T12:30:56Z</time>
      </trkpt>
      <trkpt lat="48.97531" lon="-0.00717">
        <ele>60.92</ele>
        <time>2021-08-08T12:30:57Z</time>
      </trkpt>
      <trkpt lat="48.97532" lon="-0.0071">
        <ele>60.72</ele>
        <time>2021-08-08T12:30:58Z</time>
      </trkpt>
      <trkpt lat="48.97532" lon="-0.00703">
        <ele>60.51</ele>
        <time>2021-08-08T12:30:59Z</time>
      </trkpt>
      <trkpt lat="48.97532" lon="-0.00696">
        <ele>60.3</ele>
        <time>2021-08-08T12:31:00Z</time>
      </trkpt>
      <trkpt lat="48.97533" lon="-0.00689">
        <ele>60.33</ele>
        <time>2021-08-08T12:31:01Z</time>
      </trkpt>
      <trkpt lat="48.97533" lon="-0.00681">
        <ele>60.5</ele>
        <time>2021-08-08T12:31:02Z</time>
      </trkpt>
      <trkpt lat="48.97534" lon="-0.00674">
        <ele>60.71</ele>
        <time>2021-08-08T12:31:03Z</time>
      </trkpt>
      <trkpt lat="48.97534" lon="-0.00667">
        <ele>60.91</ele>
        <time>2021-08-08T12:31:04Z</time>
      </trkpt>
      <trkpt lat="48.97534" lon="-0.00659">
        <ele>60.97</ele>
        <time>2021-08-08T12:31:05Z</time>
      </trkpt>
      <trkpt lat="48.97536" lon="-0.00651">
        <ele>60.99</ele>
        <time>2021-08-08T12:31:06Z</time>
      </trkpt>
      <trkpt lat="48.97538" lon="-0.00644">
        <ele>61</ele>
        <time>2021-08-08T12:31:07Z</time>
      </trkpt>
      <trkpt lat="48.97539" lon="-0.00637">
        <ele>61</ele>
        <time>2021-08-08T12:31:08Z</time>
      </trkpt>
      <trkpt lat="48.97538" lon="-0.00631">
        <ele>61</ele>
        <time>2021-08-08T12:31:09Z</time>
      </trkpt>
      <trkpt lat="48.97534" lon="-0.00627">
        <ele>61</ele>
        <time>2021-08-08T12:31:10Z</time>
      </trkpt>
      <trkpt lat="48.97528" lon="-0.00623">
        <ele>61</ele>
        <time>2021-08-08T12:31:11Z</time>
      </trkpt>
      <trkpt lat="48.97523" lon="-0.0062">
        <ele>61</ele>
        <time>2021-08-08T12:31:12Z</time>
      </trkpt>
      <trkpt lat="48.97518" lon="-0.00617">
        <ele>61</ele>
        <time>2021-08-08T12:31:13Z</time>
      </trkpt>
      <trkpt lat="48.97513" lon="-0.00614">
        <ele>61</ele>
        <time>2021-08-08T12:31:14Z</time>
      </trkpt>
      <trkpt lat="48.97508" lon="-0.00611">
        <ele>61</ele>
        <time>2021-08-08T12:31:15Z</time>
      </trkpt>
      <trkpt lat="48.97503" lon="-0.00609">
        <ele>61</ele>
        <time>2021-08-08T12:31:16Z</time>
      </trkpt>
      <trkpt lat="48.97497" lon="-0.00608">
        <ele>61</ele>
        <time>2021-08-08T12:31:17Z</time>
      </trkpt>
      <trkpt lat="48.97491" lon="-0.00606">
        <ele>61</ele>
        <time>2021-08-08T12:31:18Z</time>
      </trkpt>
      <trkpt lat="48.97485" lon="-0.00605">
        <ele>61</ele>
        <time>2021-08-08T12:31:19Z</time>
      </trkpt>
      <trkpt lat="48.97479" lon="-0.00604">
        <ele>61</ele>
        <time>2021-08-08T12:31:20Z</time>
      </trkpt>
      <trkpt lat="48.97474" lon="-0.00603">
        <ele>61</ele>
        <time>2021-08-08T12:31:21Z</time>
      </trkpt>
      <trkpt lat="48.97468" lon="-0.00602">
        <ele>61</ele>
        <time>2021-08-08T12:31:22Z</time>
      </trkpt>
      <trkpt lat="48.97463" lon="-0.00601">
        <ele>61</ele>
        <time>2021-08-08T12:31:23Z</time>
      </trkpt>
      <trkpt lat="48.97458" lon="-0.006">
        <ele>61</ele>
        <time>2021-08-08T12:31:24Z</time>
      </trkpt>
      <trkpt lat="48.97453" lon="-0.00597">
        <ele>61</ele>
        <time>2021-08-08T12:31:25Z</time>
      </trkpt>
      <trkpt lat="48.9745" lon="-0.0059">
        <ele>61</ele>
        <time>2021-08-08T12:31:26Z</time>
      </trkpt>
      <trkpt lat="48.97448" lon="-0.00583">
        <ele>61</ele>
        <time>2021-08-08T12:31:27Z</time>
      </trkpt>
      <trkpt lat="48.97447" lon="-0.00575">
        <ele>61</ele>
        <time>2021-08-08T12:31:28Z</time>
      </trkpt>
      <trkpt lat="48.97446" lon="-0.00566">
        <ele>61</ele>
        <time>2021-08-08T12:31:29Z</time>
      </trkpt>
      <trkpt lat="48.97446" lon="-0.00556">
        <ele>61</ele>
        <time>2021-08-08T12:31:30Z</time>
      </trkpt>
      <trkpt lat="48.97447" lon="-0.00546">
        <ele>61</ele>
        <time>2021-08-08T12:31:31Z</time>
      </trkpt>
      <trkpt lat="48.97449" lon="-0.00537">
        <ele>61</ele>
        <time>2021-08-08T12:31:32Z</time>
      </trkpt>
      <trkpt lat="48.9745" lon="-0.00528">
        <ele>61</ele>
        <time>2021-08-08T12:31:33Z</time>
      </trkpt>
      <trkpt lat="48.97452" lon="-0.00519">
        <ele>61</ele>
        <time>2021-08-08T12:31:34Z</time>
      </trkpt>
      <trkpt lat="48.97454" lon="-0.0051">
        <ele>61</ele>
        <time>2021-08-08T12:31:35Z</time>
      </trkpt>
      <trkpt lat="48.97456" lon="-0.00502">
        <ele>61</ele>
        <time>2021-08-08T12:31:36Z</time>
      </trkpt>
      <trkpt lat="48.97458" lon="-0.00493">
        <ele>60.91</ele>
        <time>2021-08-08T12:31:37Z</time>
      </trkpt>
      <trkpt lat="48.97461" lon="-0.00484">
        <ele>60.75</ele>
        <time>2021-08-08T12:31:38Z</time>
      </trkpt>
      <trkpt lat="48.97462" lon="-0.00475">
        <ele>60.53</ele>
        <time>2021-08-08T12:31:39Z</time>
      </trkpt>
      <trkpt lat="48.97463" lon="-0.00466">
        <ele>60.34</ele>
        <time>2021-08-08T12:31:40Z</time>
      </trkpt>
      <trkpt lat="48.97463" lon="-0.00456">
        <ele>60.2</ele>
        <time>2021-08-08T12:31:41Z</time>
      </trkpt>
      <trkpt lat="48.97464" lon="-0.00447">
        <ele>60.08</ele>
        <time>2021-08-08T12:31:42Z</time>
      </trkpt>
      <trkpt lat="48.97464" lon="-0.00437">
        <ele>60.02</ele>
        <time>2021-08-08T12:31:43Z</time>
      </trkpt>
      <trkpt lat="48.97465" lon="-0.00428">
        <ele>60.01</ele>
        <time>2021-08-08T12:31:44Z</time>
      </trkpt>
      <trkpt lat="48.97466" lon="-0.00418">
        <ele>60</ele>
        <time>2021-08-08T12:31:45Z</time>
      </trkpt>
      <trkpt lat="48.97468" lon="-0.00409">
        <ele>60</ele>
        <time>2021-08-08T12:31:46Z</time>
      </trkpt>
      <trkpt lat="48.97469" lon="-0.00399">
        <ele>60</ele>
        <time>2021-08-08T12:31:47Z</time>
      </trkpt>
      <trkpt lat="48.97471" lon="-0.0039">
        <ele>60</ele>
        <time>2021-08-08T12:31:48Z</time>
      </trkpt>
      <trkpt lat="48.97473" lon="-0.0038">
        <ele>60</ele>
        <time>2021-08-08T12:31:49Z</time>
      </trkpt>
      <trkpt lat="48.97475" lon="-0.00371">
        <ele>60</ele>
        <time>2021-08-08T12:31:50Z</time>
      </trkpt>
      <trkpt lat="48.97477" lon="-0.00362">
        <ele>60</ele>
        <time>2021-08-08T12:31:51Z</time>
      </trkpt>
      <trkpt lat="48.97479" lon="-0.00352">
        <ele>60</ele>
        <time>2021-08-08T12:31:52Z</time>
      </trkpt>
      <trkpt lat="48.97481" lon="-0.00342">
        <ele>60</ele>
        <time>2021-08-08T12:31:53Z</time>
      </trkpt>
      <trkpt lat="48.97483" lon="-0.00333">
        <ele>60</ele>
        <time>2021-08-08T12:31:54Z</time>
      </trkpt>
      <trkpt lat="48.97484" lon="-0.00323">
        <ele>60</ele>
        <time>2021-08-08T12:31:55Z</time>
      </trkpt>
      <trkpt lat="48.97484" lon="-0.00314">
        <ele>60</ele>
        <time>2021-08-08T12:31:56Z</time>
      </trkpt>
      <trkpt lat="48.97484" lon="-0.00304">
        <ele>60</ele>
        <time>2021-08-08T12:31:57Z</time>
      </trkpt>
      <trkpt lat="48.97485" lon="-0.00295">
        <ele>60</ele>
        <time>2021-08-08T12:31:58Z</time>
      </trkpt>
      <trkpt lat="48.97486" lon="-0.00285">
        <ele>60</ele>
        <time>2021-08-08T12:31:59Z</time>
      </trkpt>
      <trkpt lat="48.97487" lon="-0.00275">
        <ele>60</ele>
        <time>2021-08-08T12:32:00Z</time>
      </trkpt>
      <trkpt lat="48.97489" lon="-0.00265">
        <ele>60</ele>
        <time>2021-08-08T12:32:01Z</time>
      </trkpt>
      <trkpt lat="48.97492" lon="-0.00256">
        <ele>60</ele>
        <time>2021-08-08T12:32:02Z</time>
      </trkpt>
      <trkpt lat="48.97494" lon="-0.00246">
        <ele>60</ele>
        <time>2021-08-08T12:32:03Z</time>
      </trkpt>
      <trkpt lat="48.97497" lon="-0.00237">
        <ele>60</ele>
        <time>2021-08-08T12:32:04Z</time>
      </trkpt>
      <trkpt lat="48.97499" lon="-0.00227">
        <ele>60</ele>
        <time>2021-08-08T12:32:05Z</time>
      </trkpt>
      <trkpt lat="48.97501" lon="-0.00218">
        <ele>60</ele>
        <time>2021-08-08T12:32:06Z</time>
      </trkpt>
      <trkpt lat="48.97502" lon="-0.00209">
        <ele>60</ele>
        <time>2021-08-08T12:32:07Z</time>
      </trkpt>
      <trkpt lat="48.97504" lon="-0.00201">
        <ele>60</ele>
        <time>2021-08-08T12:32:08Z</time>
      </trkpt>
      <trkpt lat="48.97507" lon="-0.00192">
        <ele>60</ele>
        <time>2021-08-08T12:32:09Z</time>
      </trkpt>
      <trkpt lat="48.97509" lon="-0.00184">
        <ele>60</ele>
        <time>2021-08-08T12:32:10Z</time>
      </trkpt>
      <trkpt lat="48.97512" lon="-0.00176">
        <ele>60</ele>
        <time>2021-08-08T12:32:11Z</time>
      </trkpt>
      <trkpt lat="48.97516" lon="-0.00169">
        <ele>60</ele>
        <time>2021-08-08T12:32:12Z</time>
      </trkpt>
      <trkpt lat="48.97521" lon="-0.00162">
        <ele>60</ele>
        <time>2021-08-08T12:32:13Z</time>
      </trkpt>
      <trkpt lat="48.97526" lon="-0.00157">
        <ele>60</ele>
        <time>2021-08-08T12:32:14Z</time>
      </trkpt>
      <trkpt lat="48.97532" lon="-0.00151">
        <ele>60</ele>
        <time>2021-08-08T12:32:15Z</time>
      </trkpt>
      <trkpt lat="48.97537" lon="-0.00146">
        <ele>60</ele>
        <time>2021-08-08T12:32:16Z</time>
      </trkpt>
      <trkpt lat="48.97542" lon="-0.00142">
        <ele>60</ele>
        <time>2021-08-08T12:32:17Z</time>
      </trkpt>
      <trkpt lat="48.97547" lon="-0.00136">
        <ele>60</ele>
        <time>2021-08-08T12:32:18Z</time>
      </trkpt>
      <trkpt lat="48.97551" lon="-0.00131">
        <ele>60</ele>
        <time>2021-08-08T12:32:19Z</time>
      </trkpt>
      <trkpt lat="48.97555" lon="-0.00124">
        <ele>60</ele>
        <time>2021-08-08T12:32:20Z</time>
      </trkpt>
      <trkpt lat="48.97559" lon="-0.00117">
        <ele>60.08</ele>
        <time>2021-08-08T12:32:21Z</time>
      </trkpt>
      <trkpt lat="48.97562" lon="-0.0011">
        <ele>60.21</ele>
        <time>2021-08-08T12:32:22Z</time>
      </trkpt>
      <trkpt lat="48.97566" lon="-0.00103">
        <ele>60.44</ele>
        <time>2021-08-08T12:32:23Z</time>
      </trkpt>
      <trkpt lat="48.97569" lon="-0.00097">
        <ele>60.66</ele>
        <time>2021-08-08T12:32:24Z</time>
      </trkpt>
      <trkpt lat="48.97573" lon="-0.0009">
        <ele>60.83</ele>
        <time>2021-08-08T12:32:25Z</time>
      </trkpt>
      <trkpt lat="48.97577" lon="-0.00085">
        <ele>60.94</ele>
        <time>2021-08-08T12:32:26Z</time>
      </trkpt>
      <trkpt lat="48.97581" lon="-0.00081">
        <ele>61.04</ele>
        <time>2021-08-08T12:32:27Z</time>
      </trkpt>
      <trkpt lat="48.97586" lon="-0.00077">
        <ele>61.22</ele>
        <time>2021-08-08T12:32:28Z</time>
      </trkpt>
      <trkpt lat="48.9759" lon="-0.00073">
        <ele>61.44</ele>
        <time>2021-08-08T12:32:29Z</time>
      </trkpt>
      <trkpt lat="48.97594" lon="-0.00068">
        <ele>61.64</ele>
        <time>2021-08-08T12:32:30Z</time>
      </trkpt>
      <trkpt lat="48.97598" lon="-0.00063">
        <ele>61.8</ele>
        <time>2021-08-08T12:32:31Z</time>
      </trkpt>
      <trkpt lat="48.97602" lon="-0.00058">
        <ele>61.92</ele>
        <time>2021-08-08T12:32:32Z</time>
      </trkpt>
      <trkpt lat="48.97606" lon="-0.00054">
        <ele>62.01</ele>
        <time>2021-08-08T12:32:33Z</time>
      </trkpt>
      <trkpt lat="48.97611" lon="-0.00049">
        <ele>62.18</ele>
        <time>2021-08-08T12:32:34Z</time>
      </trkpt>
      <trkpt lat="48.97616" lon="-0.00044">
        <ele>62.55</ele>
        <time>2021-08-08T12:32:35Z</time>
      </trkpt>
      <trkpt lat="48.97622" lon="-0.0004">
        <ele>62.95</ele>
        <time>2021-08-08T12:32:36Z</time>
      </trkpt>
      <trkpt lat="48.97627" lon="-0.00037">
        <ele>63.29</ele>
        <time>2021-08-08T12:32:37Z</time>
      </trkpt>
      <trkpt lat="48.97633" lon="-0.00034">
        <ele>63.6</ele>
        <time>2021-08-08T12:32:38Z</time>
      </trkpt>
      <trkpt lat="48.97638" lon="-0.00031">
        <ele>63.85</ele>
        <time>2021-08-08T12:32:39Z</time>
      </trkpt>
      <trkpt lat="48.97642" lon="-0.00029">
        <ele>64.13</ele>
        <time>2021-08-08T12:32:40Z</time>
      </trkpt>
      <trkpt lat="48.97643" lon="-0.00025">
        <ele>64.5</ele>
        <time>2021-08-08T12:33:38Z</time>
      </trkpt>
      <trkpt lat="48.97642" lon="-0.0002">
        <ele>64.5</ele>
        <time>2021-08-08T12:33:39Z</time>
      </trkpt>
      <trkpt lat="48.97642" lon="-0.00015">
        <ele>64.59</ele>
        <time>2021-08-08T12:33:40Z</time>
      </trkpt>
      <trkpt lat="48.97642" lon="-0.0001">
        <ele>64.76</ele>
        <time>2021-08-08T12:33:41Z</time>
      </trkpt>
      <trkpt lat="48.97641" lon="-5.0E-5">
        <ele>64.94</ele>
        <time>2021-08-08T12:33:42Z</time>
      </trkpt>
      <trkpt lat="48.97642" lon="1.0E-5">
        <ele>65.15</ele>
        <time>2021-08-08T12:33:43Z</time>
      </trkpt>
      <trkpt lat="48.97642" lon="6.0E-5">
        <ele>65.35</ele>
        <time>2021-08-08T12:33:44Z</time>
      </trkpt>
      <trkpt lat="48.97641" lon="0.00012">
        <ele>65.52</ele>
        <time>2021-08-08T12:33:45Z</time>
      </trkpt>
      <trkpt lat="48.97641" lon="0.00017">
        <ele>65.69</ele>
        <time>2021-08-08T12:33:46Z</time>
      </trkpt>
      <trkpt lat="48.97641" lon="0.00021">
        <ele>65.84</ele>
        <time>2021-08-08T12:33:47Z</time>
      </trkpt>
      <trkpt lat="48.97641" lon="0.00025">
        <ele>65.97</ele>
        <time>2021-08-08T12:33:48Z</time>
      </trkpt>
      <trkpt lat="48.9764" lon="0.0003">
        <ele>66.03</ele>
        <time>2021-08-08T12:33:49Z</time>
      </trkpt>
      <trkpt lat="48.9764" lon="0.00034">
        <ele>66.05</ele>
        <time>2021-08-08T12:33:50Z</time>
      </trkpt>
      <trkpt lat="48.97639" lon="0.00039">
        <ele>66.05</ele>
        <time>2021-08-08T12:33:51Z</time>
      </trkpt>
      <trkpt lat="48.9764" lon="0.00045">
        <ele>66.06</ele>
        <time>2021-08-08T12:33:52Z</time>
      </trkpt>
      <trkpt lat="48.9764" lon="0.00051">
        <ele>66.06</ele>
        <time>2021-08-08T12:33:53Z</time>
      </trkpt>
      <trkpt lat="48.9764" lon="0.00057">
        <ele>66.11</ele>
        <time>2021-08-08T12:33:54Z</time>
      </trkpt>
      <trkpt lat="48.97639" lon="0.00063">
        <ele>66.26</ele>
        <time>2021-08-08T12:33:55Z</time>
      </trkpt>
      <trkpt lat="48.9764" lon="0.00069">
        <ele>66.48</ele>
        <time>2021-08-08T12:33:56Z</time>
      </trkpt>
      <trkpt lat="48.9764" lon="0.00075">
        <ele>66.68</ele>
        <time>2021-08-08T12:33:57Z</time>
      </trkpt>
      <trkpt lat="48.9764" lon="0.0008">
        <ele>66.87</ele>
        <time>2021-08-08T12:33:58Z</time>
      </trkpt>
      <trkpt lat="48.9764" lon="0.00086">
        <ele>67.02</ele>
        <time>2021-08-08T12:33:59Z</time>
      </trkpt>
      <trkpt lat="48.9764" lon="0.00091">
        <ele>67.06</ele>
        <time>2021-08-08T12:34:00Z</time>
      </trkpt>
      <trkpt lat="48.97641" lon="0.00098">
        <ele>67.11</ele>
        <time>2021-08-08T12:34:01Z</time>
      </trkpt>
      <trkpt lat="48.9764" lon="0.00105">
        <ele>67.11</ele>
        <time>2021-08-08T12:34:02Z</time>
      </trkpt>
      <trkpt lat="48.97641" lon="0.00112">
        <ele>67.14</ele>
        <time>2021-08-08T12:34:03Z</time>
      </trkpt>
      <trkpt lat="48.97641" lon="0.00119">
        <ele>67.13</ele>
        <time>2021-08-08T12:34:04Z</time>
      </trkpt>
      <trkpt lat="48.97641" lon="0.00127">
        <ele>67.14</ele>
        <time>2021-08-08T12:34:05Z</time>
      </trkpt>
      <trkpt lat="48.9764" lon="0.00135">
        <ele>67.11</ele>
        <time>2021-08-08T12:34:06Z</time>
      </trkpt>
      <trkpt lat="48.9764" lon="0.00143">
        <ele>67</ele>
        <time>2021-08-08T12:34:07Z</time>
      </trkpt>
      <trkpt lat="48.97641" lon="0.00152">
        <ele>66.74</ele>
        <time>2021-08-08T12:34:08Z</time>
      </trkpt>
      <trkpt lat="48.9764" lon="0.00162">
        <ele>66.4</ele>
        <time>2021-08-08T12:34:09Z</time>
      </trkpt>
      <trkpt lat="48.97639" lon="0.00171">
        <ele>66.11</ele>
        <time>2021-08-08T12:34:10Z</time>
      </trkpt>
      <trkpt lat="48.97636" lon="0.00179">
        <ele>65.95</ele>
        <time>2021-08-08T12:34:11Z</time>
      </trkpt>
      <trkpt lat="48.97634" lon="0.00189">
        <ele>65.78</ele>
        <time>2021-08-08T12:34:12Z</time>
      </trkpt>
      <trkpt lat="48.97632" lon="0.00198">
        <ele>65.52</ele>
        <time>2021-08-08T12:34:13Z</time>
      </trkpt>
      <trkpt lat="48.97631" lon="0.00208">
        <ele>65.22</ele>
        <time>2021-08-08T12:34:14Z</time>
      </trkpt>
      <trkpt lat="48.97629" lon="0.00217">
        <ele>64.91</ele>
        <time>2021-08-08T12:34:15Z</time>
      </trkpt>
      <trkpt lat="48.97629" lon="0.00227">
        <ele>64.71</ele>
        <time>2021-08-08T12:34:16Z</time>
      </trkpt>
      <trkpt lat="48.97627" lon="0.00236">
        <ele>64.62</ele>
        <time>2021-08-08T12:34:17Z</time>
      </trkpt>
      <trkpt lat="48.97626" lon="0.00245">
        <ele>64.56</ele>
        <time>2021-08-08T12:34:18Z</time>
      </trkpt>
      <trkpt lat="48.97624" lon="0.00254">
        <ele>64.39</ele>
        <time>2021-08-08T12:34:19Z</time>
      </trkpt>
      <trkpt lat="48.97622" lon="0.00264">
        <ele>64.04</ele>
        <time>2021-08-08T12:34:20Z</time>
      </trkpt>
      <trkpt lat="48.9762" lon="0.00274">
        <ele>63.65</ele>
        <time>2021-08-08T12:34:21Z</time>
      </trkpt>
      <trkpt lat="48.97619" lon="0.00284">
        <ele>63.4</ele>
        <time>2021-08-08T12:34:22Z</time>
      </trkpt>
      <trkpt lat="48.97618" lon="0.00293">
        <ele>63.29</ele>
        <time>2021-08-08T12:34:23Z</time>
      </trkpt>
      <trkpt lat="48.97616" lon="0.00301">
        <ele>63.21</ele>
        <time>2021-08-08T12:34:24Z</time>
      </trkpt>
      <trkpt lat="48.97614" lon="0.00311">
        <ele>63.11</ele>
        <time>2021-08-08T12:34:25Z</time>
      </trkpt>
      <trkpt lat="48.97612" lon="0.00321">
        <ele>63.04</ele>
        <time>2021-08-08T12:34:26Z</time>
      </trkpt>
      <trkpt lat="48.9761" lon="0.0033">
        <ele>62.98</ele>
        <time>2021-08-08T12:34:27Z</time>
      </trkpt>
      <trkpt lat="48.97608" lon="0.0034">
        <ele>62.92</ele>
        <time>2021-08-08T12:34:28Z</time>
      </trkpt>
      <trkpt lat="48.97606" lon="0.00349">
        <ele>62.84</ele>
        <time>2021-08-08T12:34:29Z</time>
      </trkpt>
      <trkpt lat="48.97604" lon="0.00358">
        <ele>62.77</ele>
        <time>2021-08-08T12:34:30Z</time>
      </trkpt>
      <trkpt lat="48.97601" lon="0.00366">
        <ele>62.68</ele>
        <time>2021-08-08T12:34:31Z</time>
      </trkpt>
      <trkpt lat="48.97599" lon="0.00373">
        <ele>62.6</ele>
        <time>2021-08-08T12:34:32Z</time>
      </trkpt>
      <trkpt lat="48.97597" lon="0.0038">
        <ele>62.54</ele>
        <time>2021-08-08T12:34:33Z</time>
      </trkpt>
      <trkpt lat="48.97595" lon="0.00387">
        <ele>62.46</ele>
        <time>2021-08-08T12:34:34Z</time>
      </trkpt>
      <trkpt lat="48.97593" lon="0.00396">
        <ele>62.4</ele>
        <time>2021-08-08T12:34:35Z</time>
      </trkpt>
      <trkpt lat="48.97592" lon="0.00405">
        <ele>62.34</ele>
        <time>2021-08-08T12:34:36Z</time>
      </trkpt>
      <trkpt lat="48.97592" lon="0.00413">
        <ele>62.32</ele>
        <time>2021-08-08T12:34:37Z</time>
      </trkpt>
      <trkpt lat="48.97592" lon="0.00421">
        <ele>62.4</ele>
        <time>2021-08-08T12:34:38Z</time>
      </trkpt>
      <trkpt lat="48.97593" lon="0.0043">
        <ele>62.59</ele>
        <time>2021-08-08T12:34:39Z</time>
      </trkpt>
      <trkpt lat="48.97593" lon="0.0044">
        <ele>62.8</ele>
        <time>2021-08-08T12:34:40Z</time>
      </trkpt>
      <trkpt lat="48.97594" lon="0.00448">
        <ele>62.94</ele>
        <time>2021-08-08T12:34:41Z</time>
      </trkpt>
      <trkpt lat="48.97594" lon="0.00457">
        <ele>62.98</ele>
        <time>2021-08-08T12:34:42Z</time>
      </trkpt>
      <trkpt lat="48.97594" lon="0.00467">
        <ele>62.99</ele>
        <time>2021-08-08T12:34:43Z</time>
      </trkpt>
      <trkpt lat="48.97594" lon="0.00475">
        <ele>63</ele>
        <time>2021-08-08T12:34:44Z</time>
      </trkpt>
      <trkpt lat="48.97594" lon="0.00485">
        <ele>63</ele>
        <time>2021-08-08T12:34:45Z</time>
      </trkpt>
      <trkpt lat="48.97595" lon="0.00493">
        <ele>63</ele>
        <time>2021-08-08T12:34:46Z</time>
      </trkpt>
      <trkpt lat="48.97595" lon="0.00502">
        <ele>63.06</ele>
        <time>2021-08-08T12:34:47Z</time>
      </trkpt>
      <trkpt lat="48.97595" lon="0.00511">
        <ele>63.29</ele>
        <time>2021-08-08T12:34:48Z</time>
      </trkpt>
      <trkpt lat="48.97595" lon="0.00519">
        <ele>63.56</ele>
        <time>2021-08-08T12:34:49Z</time>
      </trkpt>
      <trkpt lat="48.97596" lon="0.00527">
        <ele>63.83</ele>
        <time>2021-08-08T12:34:50Z</time>
      </trkpt>
      <trkpt lat="48.97595" lon="0.00534">
        <ele>63.95</ele>
        <time>2021-08-08T12:34:51Z</time>
      </trkpt>
      <trkpt lat="48.97595" lon="0.00542">
        <ele>63.99</ele>
        <time>2021-08-08T12:34:52Z</time>
      </trkpt>
      <trkpt lat="48.97596" lon="0.00548">
        <ele>64</ele>
        <time>2021-08-08T12:34:53Z</time>
      </trkpt>
      <trkpt lat="48.97595" lon="0.00555">
        <ele>64</ele>
        <time>2021-08-08T12:34:54Z</time>
      </trkpt>
      <trkpt lat="48.97596" lon="0.00562">
        <ele>64.16</ele>
        <time>2021-08-08T12:34:55Z</time>
      </trkpt>
      <trkpt lat="48.97595" lon="0.00568">
        <ele>64.37</ele>
        <time>2021-08-08T12:34:56Z</time>
      </trkpt>
      <trkpt lat="48.97595" lon="0.00575">
        <ele>64.6</ele>
        <time>2021-08-08T12:34:57Z</time>
      </trkpt>
      <trkpt lat="48.97594" lon="0.00582">
        <ele>64.85</ele>
        <time>2021-08-08T12:34:58Z</time>
      </trkpt>
      <trkpt lat="48.97594" lon="0.00589">
        <ele>64.95</ele>
        <time>2021-08-08T12:34:59Z</time>
      </trkpt>
      <trkpt lat="48.97594" lon="0.00596">
        <ele>64.99</ele>
        <time>2021-08-08T12:35:00Z</time>
      </trkpt>
      <trkpt lat="48.97594" lon="0.00604">
        <ele>65</ele>
        <time>2021-08-08T12:35:01Z</time>
      </trkpt>
      <trkpt lat="48.97594" lon="0.00612">
        <ele>65.03</ele>
        <time>2021-08-08T12:35:02Z</time>
      </trkpt>
      <trkpt lat="48.97594" lon="0.00621">
        <ele>65.26</ele>
        <time>2021-08-08T12:35:03Z</time>
      </trkpt>
      <trkpt lat="48.97595" lon="0.00629">
        <ele>65.54</ele>
        <time>2021-08-08T12:35:04Z</time>
      </trkpt>
      <trkpt lat="48.97595" lon="0.00638">
        <ele>65.83</ele>
        <time>2021-08-08T12:35:05Z</time>
      </trkpt>
      <trkpt lat="48.97596" lon="0.00646">
        <ele>66.03</ele>
        <time>2021-08-08T12:35:06Z</time>
      </trkpt>
      <trkpt lat="48.97597" lon="0.00654">
        <ele>66.19</ele>
        <time>2021-08-08T12:35:07Z</time>
      </trkpt>
      <trkpt lat="48.97598" lon="0.00662">
        <ele>66.37</ele>
        <time>2021-08-08T12:35:08Z</time>
      </trkpt>
      <trkpt lat="48.97599" lon="0.0067">
        <ele>66.55</ele>
        <time>2021-08-08T12:35:09Z</time>
      </trkpt>
      <trkpt lat="48.97601" lon="0.00677">
        <ele>66.71</ele>
        <time>2021-08-08T12:35:10Z</time>
      </trkpt>
      <trkpt lat="48.97602" lon="0.00685">
        <ele>66.83</ele>
        <time>2021-08-08T12:35:11Z</time>
      </trkpt>
      <trkpt lat="48.97603" lon="0.00692">
        <ele>66.93</ele>
        <time>2021-08-08T12:35:12Z</time>
      </trkpt>
      <trkpt lat="48.97605" lon="0.007">
        <ele>67.08</ele>
        <time>2021-08-08T12:35:13Z</time>
      </trkpt>
      <trkpt lat="48.97606" lon="0.00707">
        <ele>67.29</ele>
        <time>2021-08-08T12:35:14Z</time>
      </trkpt>
      <trkpt lat="48.97608" lon="0.00715">
        <ele>67.55</ele>
        <time>2021-08-08T12:35:15Z</time>
      </trkpt>
      <trkpt lat="48.97609" lon="0.00723">
        <ele>67.83</ele>
        <time>2021-08-08T12:35:16Z</time>
      </trkpt>
      <trkpt lat="48.97611" lon="0.00731">
        <ele>67.95</ele>
        <time>2021-08-08T12:35:17Z</time>
      </trkpt>
      <trkpt lat="48.97613" lon="0.00738">
        <ele>68</ele>
        <time>2021-08-08T12:35:18Z</time>
      </trkpt>
      <trkpt lat="48.97614" lon="0.00745">
        <ele>68.05</ele>
        <time>2021-08-08T12:35:19Z</time>
      </trkpt>
      <trkpt lat="48.97615" lon="0.00753">
        <ele>68.18</ele>
        <time>2021-08-08T12:35:20Z</time>
      </trkpt>
      <trkpt lat="48.97616" lon="0.0076">
        <ele>68.43</ele>
        <time>2021-08-08T12:35:21Z</time>
      </trkpt>
      <trkpt lat="48.97618" lon="0.00767">
        <ele>68.71</ele>
        <time>2021-08-08T12:35:22Z</time>
      </trkpt>
      <trkpt lat="48.97619" lon="0.00774">
        <ele>69.02</ele>
        <time>2021-08-08T12:35:23Z</time>
      </trkpt>
      <trkpt lat="48.9762" lon="0.00782">
        <ele>69.31</ele>
        <time>2021-08-08T12:35:24Z</time>
      </trkpt>
      <trkpt lat="48.97622" lon="0.00788">
        <ele>69.53</ele>
        <time>2021-08-08T12:35:25Z</time>
      </trkpt>
      <trkpt lat="48.97623" lon="0.00796">
        <ele>69.71</ele>
        <time>2021-08-08T12:35:26Z</time>
      </trkpt>
      <trkpt lat="48.97625" lon="0.00803">
        <ele>69.88</ele>
        <time>2021-08-08T12:35:27Z</time>
      </trkpt>
      <trkpt lat="48.97627" lon="0.00811">
        <ele>70.04</ele>
        <time>2021-08-08T12:35:28Z</time>
      </trkpt>
      <trkpt lat="48.97629" lon="0.00817">
        <ele>70.2</ele>
        <time>2021-08-08T12:35:29Z</time>
      </trkpt>
      <trkpt lat="48.97632" lon="0.00823">
        <ele>70.38</ele>
        <time>2021-08-08T12:35:30Z</time>
      </trkpt>
      <trkpt lat="48.97633" lon="0.00829">
        <ele>70.59</ele>
        <time>2021-08-08T12:35:31Z</time>
      </trkpt>
      <trkpt lat="48.97635" lon="0.00835">
        <ele>70.82</ele>
        <time>2021-08-08T12:35:32Z</time>
      </trkpt>
      <trkpt lat="48.97637" lon="0.00841">
        <ele>71.08</ele>
        <time>2021-08-08T12:35:33Z</time>
      </trkpt>
      <trkpt lat="48.97639" lon="0.00846">
        <ele>71.36</ele>
        <time>2021-08-08T12:35:34Z</time>
      </trkpt>
      <trkpt lat="48.97642" lon="0.00851">
        <ele>71.64</ele>
        <time>2021-08-08T12:35:35Z</time>
      </trkpt>
      <trkpt lat="48.97644" lon="0.00857">
        <ele>71.92</ele>
        <time>2021-08-08T12:35:36Z</time>
      </trkpt>
      <trkpt lat="48.97646" lon="0.00862">
        <ele>72.16</ele>
        <time>2021-08-08T12:35:37Z</time>
      </trkpt>
      <trkpt lat="48.97648" lon="0.00868">
        <ele>72.28</ele>
        <time>2021-08-08T12:35:38Z</time>
      </trkpt>
      <trkpt lat="48.9765" lon="0.00874">
        <ele>72.36</ele>
        <time>2021-08-08T12:35:39Z</time>
      </trkpt>
      <trkpt lat="48.97652" lon="0.00881">
        <ele>72.44</ele>
        <time>2021-08-08T12:35:40Z</time>
      </trkpt>
      <trkpt lat="48.97655" lon="0.00887">
        <ele>72.53</ele>
        <time>2021-08-08T12:35:41Z</time>
      </trkpt>
      <trkpt lat="48.97656" lon="0.00893">
        <ele>72.69</ele>
        <time>2021-08-08T12:35:42Z</time>
      </trkpt>
      <trkpt lat="48.97657" lon="0.00899">
        <ele>72.92</ele>
        <time>2021-08-08T12:35:43Z</time>
      </trkpt>
      <trkpt lat="48.97659" lon="0.00905">
        <ele>73.18</ele>
        <time>2021-08-08T12:35:44Z</time>
      </trkpt>
      <trkpt lat="48.97661" lon="0.00911">
        <ele>73.45</ele>
        <time>2021-08-08T12:35:45Z</time>
      </trkpt>
      <trkpt lat="48.97663" lon="0.00917">
        <ele>73.74</ele>
        <time>2021-08-08T12:35:46Z</time>
      </trkpt>
      <trkpt lat="48.97665" lon="0.00923">
        <ele>74.04</ele>
        <time>2021-08-08T12:35:47Z</time>
      </trkpt>
      <trkpt lat="48.97666" lon="0.0093">
        <ele>74.33</ele>
        <time>2021-08-08T12:35:48Z</time>
      </trkpt>
      <trkpt lat="48.97668" lon="0.00935">
        <ele>74.62</ele>
        <time>2021-08-08T12:35:49Z</time>
      </trkpt>
      <trkpt lat="48.97671" lon="0.00941">
        <ele>74.9</ele>
        <time>2021-08-08T12:35:50Z</time>
      </trkpt>
      <trkpt lat="48.97672" lon="0.00948">
        <ele>75.11</ele>
        <time>2021-08-08T12:35:51Z</time>
      </trkpt>
      <trkpt lat="48.97674" lon="0.00954">
        <ele>75.21</ele>
        <time>2021-08-08T12:35:52Z</time>
      </trkpt>
      <trkpt lat="48.97675" lon="0.00959">
        <ele>75.27</ele>
        <time>2021-08-08T12:35:53Z</time>
      </trkpt>
      <trkpt lat="48.97676" lon="0.00965">
        <ele>75.32</ele>
        <time>2021-08-08T12:35:54Z</time>
      </trkpt>
      <trkpt lat="48.97677" lon="0.00971">
        <ele>75.36</ele>
        <time>2021-08-08T12:35:55Z</time>
      </trkpt>
      <trkpt lat="48.97678" lon="0.00977">
        <ele>75.39</ele>
        <time>2021-08-08T12:35:56Z</time>
      </trkpt>
      <trkpt lat="48.97679" lon="0.00985">
        <ele>75.42</ele>
        <time>2021-08-08T12:35:57Z</time>
      </trkpt>
      <trkpt lat="48.97679" lon="0.00993">
        <ele>75.45</ele>
        <time>2021-08-08T12:35:58Z</time>
      </trkpt>
      <trkpt lat="48.97679" lon="0.01002">
        <ele>75.48</ele>
        <time>2021-08-08T12:35:59Z</time>
      </trkpt>
      <trkpt lat="48.97679" lon="0.0101">
        <ele>75.6</ele>
        <time>2021-08-08T12:36:00Z</time>
      </trkpt>
      <trkpt lat="48.97678" lon="0.01016">
        <ele>75.71</ele>
        <time>2021-08-08T12:36:01Z</time>
      </trkpt>
      <trkpt lat="48.97677" lon="0.01023">
        <ele>75.83</ele>
        <time>2021-08-08T12:36:02Z</time>
      </trkpt>
      <trkpt lat="48.97676" lon="0.01029">
        <ele>75.95</ele>
        <time>2021-08-08T12:36:03Z</time>
      </trkpt>
      <trkpt lat="48.97675" lon="0.01036">
        <ele>75.98</ele>
        <time>2021-08-08T12:36:04Z</time>
      </trkpt>
      <trkpt lat="48.97673" lon="0.01043">
        <ele>76</ele>
        <time>2021-08-08T12:36:05Z</time>
      </trkpt>
      <trkpt lat="48.97671" lon="0.01051">
        <ele>76</ele>
        <time>2021-08-08T12:36:06Z</time>
      </trkpt>
      <trkpt lat="48.97669" lon="0.01058">
        <ele>75.96</ele>
        <time>2021-08-08T12:36:07Z</time>
      </trkpt>
      <trkpt lat="48.97667" lon="0.01065">
        <ele>75.76</ele>
        <time>2021-08-08T12:36:08Z</time>
      </trkpt>
      <trkpt lat="48.97664" lon="0.01072">
        <ele>75.49</ele>
        <time>2021-08-08T12:36:09Z</time>
      </trkpt>
      <trkpt lat="48.97662" lon="0.0108">
        <ele>75.22</ele>
        <time>2021-08-08T12:36:10Z</time>
      </trkpt>
      <trkpt lat="48.97659" lon="0.01088">
        <ele>75.03</ele>
        <time>2021-08-08T12:36:11Z</time>
      </trkpt>
      <trkpt lat="48.97656" lon="0.01096">
        <ele>74.89</ele>
        <time>2021-08-08T12:36:12Z</time>
      </trkpt>
      <trkpt lat="48.97654" lon="0.01105">
        <ele>74.71</ele>
        <time>2021-08-08T12:36:13Z</time>
      </trkpt>
      <trkpt lat="48.97652" lon="0.01114">
        <ele>74.54</ele>
        <time>2021-08-08T12:36:14Z</time>
      </trkpt>
      <trkpt lat="48.97649" lon="0.01123">
        <ele>74.43</ele>
        <time>2021-08-08T12:36:15Z</time>
      </trkpt>
      <trkpt lat="48.97647" lon="0.01132">
        <ele>74.34</ele>
        <time>2021-08-08T12:36:16Z</time>
      </trkpt>
      <trkpt lat="48.97645" lon="0.01141">
        <ele>74.25</ele>
        <time>2021-08-08T12:36:17Z</time>
      </trkpt>
      <trkpt lat="48.97642" lon="0.0115">
        <ele>74.15</ele>
        <time>2021-08-08T12:36:18Z</time>
      </trkpt>
      <trkpt lat="48.97639" lon="0.01158">
        <ele>74.05</ele>
        <time>2021-08-08T12:36:19Z</time>
      </trkpt>
      <trkpt lat="48.97637" lon="0.01167">
        <ele>73.96</ele>
        <time>2021-08-08T12:36:20Z</time>
      </trkpt>
      <trkpt lat="48.97634" lon="0.01176">
        <ele>73.87</ele>
        <time>2021-08-08T12:36:21Z</time>
      </trkpt>
      <trkpt lat="48.97632" lon="0.01184">
        <ele>73.79</ele>
        <time>2021-08-08T12:36:22Z</time>
      </trkpt>
      <trkpt lat="48.97629" lon="0.01194">
        <ele>73.7</ele>
        <time>2021-08-08T12:36:23Z</time>
      </trkpt>
      <trkpt lat="48.97627" lon="0.01204">
        <ele>73.6</ele>
        <time>2021-08-08T12:36:24Z</time>
      </trkpt>
      <trkpt lat="48.97623" lon="0.01213">
        <ele>73.49</ele>
        <time>2021-08-08T12:36:25Z</time>
      </trkpt>
      <trkpt lat="48.9762" lon="0.01223">
        <ele>73.37</ele>
        <time>2021-08-08T12:36:26Z</time>
      </trkpt>
      <trkpt lat="48.97616" lon="0.01234">
        <ele>73.24</ele>
        <time>2021-08-08T12:36:27Z</time>
      </trkpt>
      <trkpt lat="48.97613" lon="0.01244">
        <ele>73.12</ele>
        <time>2021-08-08T12:36:28Z</time>
      </trkpt>
      <trkpt lat="48.9761" lon="0.01255">
        <ele>73.01</ele>
        <time>2021-08-08T12:36:29Z</time>
      </trkpt>
      <trkpt lat="48.97607" lon="0.01265">
        <ele>72.9</ele>
        <time>2021-08-08T12:36:30Z</time>
      </trkpt>
      <trkpt lat="48.97604" lon="0.01275">
        <ele>72.79</ele>
        <time>2021-08-08T12:36:31Z</time>
      </trkpt>
      <trkpt lat="48.976" lon="0.01285">
        <ele>72.67</ele>
        <time>2021-08-08T12:36:32Z</time>
      </trkpt>
      <trkpt lat="48.97597" lon="0.01295">
        <ele>72.54</ele>
        <time>2021-08-08T12:36:33Z</time>
      </trkpt>
      <trkpt lat="48.97593" lon="0.01304">
        <ele>72.41</ele>
        <time>2021-08-08T12:36:34Z</time>
      </trkpt>
      <trkpt lat="48.97589" lon="0.01312">
        <ele>72.27</ele>
        <time>2021-08-08T12:36:35Z</time>
      </trkpt>
      <trkpt lat="48.97585" lon="0.01321">
        <ele>72.13</ele>
        <time>2021-08-08T12:36:36Z</time>
      </trkpt>
      <trkpt lat="48.97582" lon="0.01331">
        <ele>72.04</ele>
        <time>2021-08-08T12:36:37Z</time>
      </trkpt>
      <trkpt lat="48.97579" lon="0.0134">
        <ele>72.01</ele>
        <time>2021-08-08T12:36:38Z</time>
      </trkpt>
      <trkpt lat="48.97576" lon="0.0135">
        <ele>72</ele>
        <time>2021-08-08T12:36:39Z</time>
      </trkpt>
      <trkpt lat="48.97573" lon="0.0136">
        <ele>72</ele>
        <time>2021-08-08T12:36:40Z</time>
      </trkpt>
      <trkpt lat="48.97569" lon="0.0137">
        <ele>72</ele>
        <time>2021-08-08T12:36:41Z</time>
      </trkpt>
      <trkpt lat="48.97566" lon="0.01379">
        <ele>72</ele>
        <time>2021-08-08T12:36:42Z</time>
      </trkpt>
      <trkpt lat="48.97561" lon="0.01389">
        <ele>72</ele>
        <time>2021-08-08T12:36:43Z</time>
      </trkpt>
      <trkpt lat="48.97557" lon="0.014">
        <ele>72</ele>
        <time>2021-08-08T12:36:44Z</time>
      </trkpt>
      <trkpt lat="48.97554" lon="0.01409">
        <ele>72</ele>
        <time>2021-08-08T12:36:45Z</time>
      </trkpt>
      <trkpt lat="48.97551" lon="0.0142">
        <ele>72</ele>
        <time>2021-08-08T12:36:46Z</time>
      </trkpt>
      <trkpt lat="48.97548" lon="0.01429">
        <ele>72</ele>
        <time>2021-08-08T12:36:47Z</time>
      </trkpt>
      <trkpt lat="48.97545" lon="0.01439">
        <ele>72</ele>
        <time>2021-08-08T12:36:48Z</time>
      </trkpt>
      <trkpt lat="48.97541" lon="0.01449">
        <ele>72</ele>
        <time>2021-08-08T12:36:49Z</time>
      </trkpt>
      <trkpt lat="48.97538" lon="0.01459">
        <ele>72</ele>
        <time>2021-08-08T12:36:50Z</time>
      </trkpt>
      <trkpt lat="48.97535" lon="0.01469">
        <ele>72</ele>
        <time>2021-08-08T12:36:51Z</time>
      </trkpt>
      <trkpt lat="48.97532" lon="0.01479">
        <ele>72</ele>
        <time>2021-08-08T12:36:52Z</time>
      </trkpt>
      <trkpt lat="48.97529" lon="0.01489">
        <ele>72</ele>
        <time>2021-08-08T12:36:53Z</time>
      </trkpt>
      <trkpt lat="48.97526" lon="0.01499">
        <ele>71.96</ele>
        <time>2021-08-08T12:36:54Z</time>
      </trkpt>
      <trkpt lat="48.97524" lon="0.01509">
        <ele>71.68</ele>
        <time>2021-08-08T12:36:55Z</time>
      </trkpt>
      <trkpt lat="48.97521" lon="0.01519">
        <ele>71.37</ele>
        <time>2021-08-08T12:36:56Z</time>
      </trkpt>
      <trkpt lat="48.97518" lon="0.01528">
        <ele>71.11</ele>
        <time>2021-08-08T12:36:57Z</time>
      </trkpt>
      <trkpt lat="48.97516" lon="0.01538">
        <ele>71.03</ele>
        <time>2021-08-08T12:36:58Z</time>
      </trkpt>
      <trkpt lat="48.97514" lon="0.01548">
        <ele>71.01</ele>
        <time>2021-08-08T12:36:59Z</time>
      </trkpt>
      <trkpt lat="48.97511" lon="0.01558">
        <ele>71</ele>
        <time>2021-08-08T12:37:00Z</time>
      </trkpt>
      <trkpt lat="48.9751" lon="0.01568">
        <ele>71</ele>
        <time>2021-08-08T12:37:01Z</time>
      </trkpt>
      <trkpt lat="48.97508" lon="0.01579">
        <ele>71</ele>
        <time>2021-08-08T12:37:02Z</time>
      </trkpt>
      <trkpt lat="48.97506" lon="0.0159">
        <ele>70.88</ele>
        <time>2021-08-08T12:37:03Z</time>
      </trkpt>
      <trkpt lat="48.97505" lon="0.016">
        <ele>70.61</ele>
        <time>2021-08-08T12:37:04Z</time>
      </trkpt>
      <trkpt lat="48.97503" lon="0.01611">
        <ele>70.26</ele>
        <time>2021-08-08T12:37:05Z</time>
      </trkpt>
      <trkpt lat="48.97501" lon="0.01621">
        <ele>70.11</ele>
        <time>2021-08-08T12:37:06Z</time>
      </trkpt>
      <trkpt lat="48.97499" lon="0.01631">
        <ele>70.03</ele>
        <time>2021-08-08T12:37:07Z</time>
      </trkpt>
      <trkpt lat="48.97497" lon="0.01642">
        <ele>70.01</ele>
        <time>2021-08-08T12:37:08Z</time>
      </trkpt>
      <trkpt lat="48.97495" lon="0.01652">
        <ele>70</ele>
        <time>2021-08-08T12:37:09Z</time>
      </trkpt>
      <trkpt lat="48.97493" lon="0.01663">
        <ele>70</ele>
        <time>2021-08-08T12:37:10Z</time>
      </trkpt>
      <trkpt lat="48.97491" lon="0.01673">
        <ele>70</ele>
        <time>2021-08-08T12:37:11Z</time>
      </trkpt>
      <trkpt lat="48.97489" lon="0.01684">
        <ele>70</ele>
        <time>2021-08-08T12:37:12Z</time>
      </trkpt>
      <trkpt lat="48.97487" lon="0.01694">
        <ele>70</ele>
        <time>2021-08-08T12:37:13Z</time>
      </trkpt>
      <trkpt lat="48.97485" lon="0.01704">
        <ele>70.11</ele>
        <time>2021-08-08T12:37:14Z</time>
      </trkpt>
      <trkpt lat="48.97482" lon="0.01725">
        <ele>70.27</ele>
        <time>2021-08-08T12:37:16Z</time>
      </trkpt>
      <trkpt lat="48.9748" lon="0.01736">
        <ele>70.29</ele>
        <time>2021-08-08T12:37:17Z</time>
      </trkpt>
      <trkpt lat="48.97479" lon="0.01746">
        <ele>70.25</ele>
        <time>2021-08-08T12:37:18Z</time>
      </trkpt>
      <trkpt lat="48.97477" lon="0.01756">
        <ele>70.31</ele>
        <time>2021-08-08T12:37:19Z</time>
      </trkpt>
      <trkpt lat="48.97475" lon="0.01766">
        <ele>70.51</ele>
        <time>2021-08-08T12:37:20Z</time>
      </trkpt>
      <trkpt lat="48.97472" lon="0.01775">
        <ele>70.79</ele>
        <time>2021-08-08T12:37:21Z</time>
      </trkpt>
      <trkpt lat="48.9747" lon="0.01785">
        <ele>70.9</ele>
        <time>2021-08-08T12:37:22Z</time>
      </trkpt>
      <trkpt lat="48.97468" lon="0.01795">
        <ele>70.93</ele>
        <time>2021-08-08T12:37:23Z</time>
      </trkpt>
      <trkpt lat="48.97467" lon="0.01805">
        <ele>70.98</ele>
        <time>2021-08-08T12:37:24Z</time>
      </trkpt>
      <trkpt lat="48.97465" lon="0.01815">
        <ele>70.99</ele>
        <time>2021-08-08T12:37:25Z</time>
      </trkpt>
      <trkpt lat="48.97463" lon="0.01824">
        <ele>71</ele>
        <time>2021-08-08T12:37:26Z</time>
      </trkpt>
      <trkpt lat="48.97461" lon="0.01834">
        <ele>71</ele>
        <time>2021-08-08T12:37:27Z</time>
      </trkpt>
      <trkpt lat="48.97459" lon="0.01843">
        <ele>71</ele>
        <time>2021-08-08T12:37:28Z</time>
      </trkpt>
      <trkpt lat="48.97457" lon="0.01852">
        <ele>71</ele>
        <time>2021-08-08T12:37:29Z</time>
      </trkpt>
      <trkpt lat="48.97456" lon="0.0186">
        <ele>71</ele>
        <time>2021-08-08T12:37:30Z</time>
      </trkpt>
      <trkpt lat="48.97455" lon="0.01869">
        <ele>71</ele>
        <time>2021-08-08T12:37:31Z</time>
      </trkpt>
      <trkpt lat="48.97454" lon="0.01877">
        <ele>71</ele>
        <time>2021-08-08T12:37:32Z</time>
      </trkpt>
      <trkpt lat="48.97452" lon="0.01886">
        <ele>71</ele>
        <time>2021-08-08T12:37:33Z</time>
      </trkpt>
      <trkpt lat="48.9745" lon="0.01896">
        <ele>71.04</ele>
        <time>2021-08-08T12:37:34Z</time>
      </trkpt>
      <trkpt lat="48.97448" lon="0.01906">
        <ele>71.07</ele>
        <time>2021-08-08T12:37:35Z</time>
      </trkpt>
      <trkpt lat="48.97447" lon="0.01916">
        <ele>71.08</ele>
        <time>2021-08-08T12:37:36Z</time>
      </trkpt>
      <trkpt lat="48.97445" lon="0.01925">
        <ele>71.25</ele>
        <time>2021-08-08T12:37:37Z</time>
      </trkpt>
      <trkpt lat="48.97443" lon="0.01934">
        <ele>71.49</ele>
        <time>2021-08-08T12:37:38Z</time>
      </trkpt>
      <trkpt lat="48.97442" lon="0.01944">
        <ele>71.76</ele>
        <time>2021-08-08T12:37:39Z</time>
      </trkpt>
      <trkpt lat="48.9744" lon="0.01954">
        <ele>71.85</ele>
        <time>2021-08-08T12:37:40Z</time>
      </trkpt>
      <trkpt lat="48.97438" lon="0.01965">
        <ele>71.91</ele>
        <time>2021-08-08T12:37:41Z</time>
      </trkpt>
      <trkpt lat="48.97436" lon="0.01974">
        <ele>71.97</ele>
        <time>2021-08-08T12:37:42Z</time>
      </trkpt>
      <trkpt lat="48.97435" lon="0.01984">
        <ele>71.99</ele>
        <time>2021-08-08T12:37:43Z</time>
      </trkpt>
      <trkpt lat="48.97433" lon="0.01995">
        <ele>72</ele>
        <time>2021-08-08T12:37:44Z</time>
      </trkpt>
      <trkpt lat="48.97431" lon="0.02005">
        <ele>72</ele>
        <time>2021-08-08T12:37:45Z</time>
      </trkpt>
      <trkpt lat="48.97429" lon="0.02015">
        <ele>72</ele>
        <time>2021-08-08T12:37:46Z</time>
      </trkpt>
      <trkpt lat="48.97427" lon="0.02025">
        <ele>72</ele>
        <time>2021-08-08T12:37:47Z</time>
      </trkpt>
      <trkpt lat="48.97425" lon="0.02035">
        <ele>72</ele>
        <time>2021-08-08T12:37:48Z</time>
      </trkpt>
      <trkpt lat="48.97424" lon="0.02045">
        <ele>72</ele>
        <time>2021-08-08T12:37:49Z</time>
      </trkpt>
      <trkpt lat="48.97422" lon="0.02054">
        <ele>72</ele>
        <time>2021-08-08T12:37:50Z</time>
      </trkpt>
      <trkpt lat="48.97421" lon="0.02063">
        <ele>72.03</ele>
        <time>2021-08-08T12:37:51Z</time>
      </trkpt>
      <trkpt lat="48.97419" lon="0.02072">
        <ele>72.05</ele>
        <time>2021-08-08T12:37:52Z</time>
      </trkpt>
      <trkpt lat="48.97418" lon="0.0208">
        <ele>72.05</ele>
        <time>2021-08-08T12:37:53Z</time>
      </trkpt>
      <trkpt lat="48.97417" lon="0.0209">
        <ele>72.02</ele>
        <time>2021-08-08T12:37:54Z</time>
      </trkpt>
      <trkpt lat="48.97415" lon="0.02099">
        <ele>72</ele>
        <time>2021-08-08T12:37:55Z</time>
      </trkpt>
      <trkpt lat="48.97412" lon="0.02108">
        <ele>72</ele>
        <time>2021-08-08T12:37:56Z</time>
      </trkpt>
      <trkpt lat="48.9741" lon="0.02117">
        <ele>72.11</ele>
        <time>2021-08-08T12:37:57Z</time>
      </trkpt>
      <trkpt lat="48.97409" lon="0.02126">
        <ele>72.3</ele>
        <time>2021-08-08T12:37:58Z</time>
      </trkpt>
      <trkpt lat="48.97408" lon="0.02135">
        <ele>72.5</ele>
        <time>2021-08-08T12:37:59Z</time>
      </trkpt>
      <trkpt lat="48.97406" lon="0.02144">
        <ele>72.64</ele>
        <time>2021-08-08T12:38:00Z</time>
      </trkpt>
      <trkpt lat="48.97405" lon="0.02154">
        <ele>72.76</ele>
        <time>2021-08-08T12:38:01Z</time>
      </trkpt>
      <trkpt lat="48.97403" lon="0.02164">
        <ele>72.89</ele>
        <time>2021-08-08T12:38:02Z</time>
      </trkpt>
      <trkpt lat="48.97402" lon="0.02173">
        <ele>72.97</ele>
        <time>2021-08-08T12:38:03Z</time>
      </trkpt>
      <trkpt lat="48.97399" lon="0.02182">
        <ele>72.99</ele>
        <time>2021-08-08T12:38:04Z</time>
      </trkpt>
      <trkpt lat="48.97397" lon="0.02191">
        <ele>73</ele>
        <time>2021-08-08T12:38:05Z</time>
      </trkpt>
      <trkpt lat="48.97395" lon="0.022">
        <ele>73</ele>
        <time>2021-08-08T12:38:06Z</time>
      </trkpt>
      <trkpt lat="48.97393" lon="0.02209">
        <ele>73</ele>
        <time>2021-08-08T12:38:07Z</time>
      </trkpt>
      <trkpt lat="48.97392" lon="0.02218">
        <ele>73</ele>
        <time>2021-08-08T12:38:08Z</time>
      </trkpt>
      <trkpt lat="48.9739" lon="0.02227">
        <ele>73.01</ele>
        <time>2021-08-08T12:38:09Z</time>
      </trkpt>
      <trkpt lat="48.97388" lon="0.02236">
        <ele>73</ele>
        <time>2021-08-08T12:38:10Z</time>
      </trkpt>
      <trkpt lat="48.97387" lon="0.02244">
        <ele>73</ele>
        <time>2021-08-08T12:38:11Z</time>
      </trkpt>
      <trkpt lat="48.97386" lon="0.02252">
        <ele>73.04</ele>
        <time>2021-08-08T12:38:12Z</time>
      </trkpt>
      <trkpt lat="48.97384" lon="0.02259">
        <ele>73.21</ele>
        <time>2021-08-08T12:38:13Z</time>
      </trkpt>
      <trkpt lat="48.97383" lon="0.02267">
        <ele>73.39</ele>
        <time>2021-08-08T12:38:14Z</time>
      </trkpt>
      <trkpt lat="48.97381" lon="0.02275">
        <ele>73.57</ele>
        <time>2021-08-08T12:38:15Z</time>
      </trkpt>
      <trkpt lat="48.97379" lon="0.02283">
        <ele>73.67</ele>
        <time>2021-08-08T12:38:16Z</time>
      </trkpt>
      <trkpt lat="48.97378" lon="0.02291">
        <ele>73.76</ele>
        <time>2021-08-08T12:38:17Z</time>
      </trkpt>
      <trkpt lat="48.97376" lon="0.023">
        <ele>73.86</ele>
        <time>2021-08-08T12:38:18Z</time>
      </trkpt>
      <trkpt lat="48.97374" lon="0.02309">
        <ele>73.96</ele>
        <time>2021-08-08T12:38:19Z</time>
      </trkpt>
      <trkpt lat="48.97372" lon="0.02318">
        <ele>73.99</ele>
        <time>2021-08-08T12:38:20Z</time>
      </trkpt>
      <trkpt lat="48.9737" lon="0.02328">
        <ele>74</ele>
        <time>2021-08-08T12:38:21Z</time>
      </trkpt>
      <trkpt lat="48.97369" lon="0.02337">
        <ele>74</ele>
        <time>2021-08-08T12:38:22Z</time>
      </trkpt>
      <trkpt lat="48.97367" lon="0.02346">
        <ele>74</ele>
        <time>2021-08-08T12:38:23Z</time>
      </trkpt>
      <trkpt lat="48.97366" lon="0.02356">
        <ele>74</ele>
        <time>2021-08-08T12:38:24Z</time>
      </trkpt>
      <trkpt lat="48.97364" lon="0.02366">
        <ele>74</ele>
        <time>2021-08-08T12:38:25Z</time>
      </trkpt>
      <trkpt lat="48.97363" lon="0.02376">
        <ele>74</ele>
        <time>2021-08-08T12:38:26Z</time>
      </trkpt>
      <trkpt lat="48.97361" lon="0.02387">
        <ele>74</ele>
        <time>2021-08-08T12:38:27Z</time>
      </trkpt>
      <trkpt lat="48.9736" lon="0.02397">
        <ele>74</ele>
        <time>2021-08-08T12:38:28Z</time>
      </trkpt>
      <trkpt lat="48.97359" lon="0.02408">
        <ele>74</ele>
        <time>2021-08-08T12:38:29Z</time>
      </trkpt>
      <trkpt lat="48.97358" lon="0.02419">
        <ele>73.99</ele>
        <time>2021-08-08T12:38:30Z</time>
      </trkpt>
      <trkpt lat="48.97358" lon="0.0243">
        <ele>73.96</ele>
        <time>2021-08-08T12:38:31Z</time>
      </trkpt>
      <trkpt lat="48.97358" lon="0.02442">
        <ele>73.92</ele>
        <time>2021-08-08T12:38:32Z</time>
      </trkpt>
      <trkpt lat="48.97358" lon="0.02453">
        <ele>73.91</ele>
        <time>2021-08-08T12:38:33Z</time>
      </trkpt>
      <trkpt lat="48.97358" lon="0.02464">
        <ele>73.89</ele>
        <time>2021-08-08T12:38:34Z</time>
      </trkpt>
      <trkpt lat="48.97359" lon="0.02475">
        <ele>73.91</ele>
        <time>2021-08-08T12:38:35Z</time>
      </trkpt>
      <trkpt lat="48.97359" lon="0.02486">
        <ele>73.92</ele>
        <time>2021-08-08T12:38:36Z</time>
      </trkpt>
      <trkpt lat="48.9736" lon="0.02496">
        <ele>73.94</ele>
        <time>2021-08-08T12:38:37Z</time>
      </trkpt>
      <trkpt lat="48.9736" lon="0.02506">
        <ele>73.8</ele>
        <time>2021-08-08T12:38:38Z</time>
      </trkpt>
      <trkpt lat="48.9736" lon="0.02517">
        <ele>73.51</ele>
        <time>2021-08-08T12:38:39Z</time>
      </trkpt>
      <trkpt lat="48.97361" lon="0.02527">
        <ele>73.18</ele>
        <time>2021-08-08T12:38:40Z</time>
      </trkpt>
      <trkpt lat="48.97361" lon="0.02537">
        <ele>73.06</ele>
        <time>2021-08-08T12:38:41Z</time>
      </trkpt>
      <trkpt lat="48.97362" lon="0.02547">
        <ele>73.04</ele>
        <time>2021-08-08T12:38:42Z</time>
      </trkpt>
      <trkpt lat="48.97363" lon="0.02558">
        <ele>73.07</ele>
        <time>2021-08-08T12:38:43Z</time>
      </trkpt>
      <trkpt lat="48.97365" lon="0.02568">
        <ele>73.12</ele>
        <time>2021-08-08T12:38:44Z</time>
      </trkpt>
      <trkpt lat="48.97367" lon="0.02578">
        <ele>73.18</ele>
        <time>2021-08-08T12:38:45Z</time>
      </trkpt>
      <trkpt lat="48.97368" lon="0.02588">
        <ele>73.24</ele>
        <time>2021-08-08T12:38:46Z</time>
      </trkpt>
      <trkpt lat="48.9737" lon="0.02598">
        <ele>73.29</ele>
        <time>2021-08-08T12:38:47Z</time>
      </trkpt>
      <trkpt lat="48.97372" lon="0.02609">
        <ele>73.35</ele>
        <time>2021-08-08T12:38:48Z</time>
      </trkpt>
      <trkpt lat="48.97374" lon="0.0262">
        <ele>73.33</ele>
        <time>2021-08-08T12:38:49Z</time>
      </trkpt>
      <trkpt lat="48.97376" lon="0.0263">
        <ele>73.22</ele>
        <time>2021-08-08T12:38:50Z</time>
      </trkpt>
      <trkpt lat="48.97378" lon="0.0264">
        <ele>73.07</ele>
        <time>2021-08-08T12:38:51Z</time>
      </trkpt>
      <trkpt lat="48.9738" lon="0.02649">
        <ele>73.02</ele>
        <time>2021-08-08T12:38:52Z</time>
      </trkpt>
      <trkpt lat="48.97382" lon="0.02658">
        <ele>73.01</ele>
        <time>2021-08-08T12:38:53Z</time>
      </trkpt>
      <trkpt lat="48.97384" lon="0.02668">
        <ele>73</ele>
        <time>2021-08-08T12:38:54Z</time>
      </trkpt>
      <trkpt lat="48.97386" lon="0.02678">
        <ele>73</ele>
        <time>2021-08-08T12:38:55Z</time>
      </trkpt>
      <trkpt lat="48.97389" lon="0.02688">
        <ele>73</ele>
        <time>2021-08-08T12:38:56Z</time>
      </trkpt>
      <trkpt lat="48.97391" lon="0.02698">
        <ele>73</ele>
        <time>2021-08-08T12:38:57Z</time>
      </trkpt>
      <trkpt lat="48.97394" lon="0.02708">
        <ele>73</ele>
        <time>2021-08-08T12:38:58Z</time>
      </trkpt>
      <trkpt lat="48.97398" lon="0.02718">
        <ele>73</ele>
        <time>2021-08-08T12:38:59Z</time>
      </trkpt>
      <trkpt lat="48.97401" lon="0.02728">
        <ele>73</ele>
        <time>2021-08-08T12:39:00Z</time>
      </trkpt>
      <trkpt lat="48.97404" lon="0.02738">
        <ele>73</ele>
        <time>2021-08-08T12:39:01Z</time>
      </trkpt>
      <trkpt lat="48.97408" lon="0.02748">
        <ele>73</ele>
        <time>2021-08-08T12:39:02Z</time>
      </trkpt>
      <trkpt lat="48.97411" lon="0.02759">
        <ele>72.78</ele>
        <time>2021-08-08T12:39:03Z</time>
      </trkpt>
      <trkpt lat="48.97414" lon="0.02769">
        <ele>72.44</ele>
        <time>2021-08-08T12:39:04Z</time>
      </trkpt>
      <trkpt lat="48.97417" lon="0.0278">
        <ele>72.13</ele>
        <time>2021-08-08T12:39:05Z</time>
      </trkpt>
      <trkpt lat="48.97419" lon="0.02791">
        <ele>72.04</ele>
        <time>2021-08-08T12:39:06Z</time>
      </trkpt>
      <trkpt lat="48.97421" lon="0.02802">
        <ele>72.01</ele>
        <time>2021-08-08T12:39:07Z</time>
      </trkpt>
      <trkpt lat="48.97423" lon="0.02813">
        <ele>72</ele>
        <time>2021-08-08T12:39:08Z</time>
      </trkpt>
      <trkpt lat="48.97424" lon="0.02825">
        <ele>72</ele>
        <time>2021-08-08T12:39:09Z</time>
      </trkpt>
      <trkpt lat="48.97425" lon="0.02837">
        <ele>71.92</ele>
        <time>2021-08-08T12:39:10Z</time>
      </trkpt>
      <trkpt lat="48.97426" lon="0.02848">
        <ele>71.59</ele>
        <time>2021-08-08T12:39:11Z</time>
      </trkpt>
      <trkpt lat="48.97428" lon="0.02859">
        <ele>71.24</ele>
        <time>2021-08-08T12:39:12Z</time>
      </trkpt>
      <trkpt lat="48.9743" lon="0.0287">
        <ele>71.07</ele>
        <time>2021-08-08T12:39:13Z</time>
      </trkpt>
      <trkpt lat="48.97432" lon="0.02881">
        <ele>71.02</ele>
        <time>2021-08-08T12:39:14Z</time>
      </trkpt>
      <trkpt lat="48.97434" lon="0.02892">
        <ele>71.01</ele>
        <time>2021-08-08T12:39:15Z</time>
      </trkpt>
      <trkpt lat="48.97435" lon="0.02904">
        <ele>71</ele>
        <time>2021-08-08T12:39:16Z</time>
      </trkpt>
      <trkpt lat="48.97438" lon="0.02916">
        <ele>71</ele>
        <time>2021-08-08T12:39:17Z</time>
      </trkpt>
      <trkpt lat="48.9744" lon="0.02927">
        <ele>70.73</ele>
        <time>2021-08-08T12:39:18Z</time>
      </trkpt>
      <trkpt lat="48.97442" lon="0.02939">
        <ele>70.35</ele>
        <time>2021-08-08T12:39:19Z</time>
      </trkpt>
      <trkpt lat="48.97444" lon="0.02951">
        <ele>70.11</ele>
        <time>2021-08-08T12:39:20Z</time>
      </trkpt>
      <trkpt lat="48.97445" lon="0.02963">
        <ele>70.02</ele>
        <time>2021-08-08T12:39:21Z</time>
      </trkpt>
      <trkpt lat="48.97447" lon="0.02976">
        <ele>69.86</ele>
        <time>2021-08-08T12:39:22Z</time>
      </trkpt>
      <trkpt lat="48.97449" lon="0.02988">
        <ele>69.5</ele>
        <time>2021-08-08T12:39:23Z</time>
      </trkpt>
      <trkpt lat="48.97452" lon="0.03">
        <ele>69.15</ele>
        <time>2021-08-08T12:39:24Z</time>
      </trkpt>
      <trkpt lat="48.97454" lon="0.03012">
        <ele>68.94</ele>
        <time>2021-08-08T12:39:25Z</time>
      </trkpt>
      <trkpt lat="48.97457" lon="0.03025">
        <ele>68.71</ele>
        <time>2021-08-08T12:39:26Z</time>
      </trkpt>
      <trkpt lat="48.97458" lon="0.03036">
        <ele>68.46</ele>
        <time>2021-08-08T12:39:27Z</time>
      </trkpt>
      <trkpt lat="48.97459" lon="0.03048">
        <ele>68.23</ele>
        <time>2021-08-08T12:39:28Z</time>
      </trkpt>
      <trkpt lat="48.97461" lon="0.0306">
        <ele>68</ele>
        <time>2021-08-08T12:39:29Z</time>
      </trkpt>
      <trkpt lat="48.97462" lon="0.03074">
        <ele>67.72</ele>
        <time>2021-08-08T12:39:30Z</time>
      </trkpt>
      <trkpt lat="48.97463" lon="0.03087">
        <ele>67.42</ele>
        <time>2021-08-08T12:39:31Z</time>
      </trkpt>
      <trkpt lat="48.97465" lon="0.031">
        <ele>67.2</ele>
        <time>2021-08-08T12:39:32Z</time>
      </trkpt>
      <trkpt lat="48.97465" lon="0.03113">
        <ele>67.06</ele>
        <time>2021-08-08T12:39:33Z</time>
      </trkpt>
      <trkpt lat="48.97465" lon="0.03127">
        <ele>67.02</ele>
        <time>2021-08-08T12:39:34Z</time>
      </trkpt>
      <trkpt lat="48.97463" lon="0.03142">
        <ele>66.96</ele>
        <time>2021-08-08T12:39:35Z</time>
      </trkpt>
      <trkpt lat="48.97459" lon="0.03159">
        <ele>66.72</ele>
        <time>2021-08-08T12:39:36Z</time>
      </trkpt>
      <trkpt lat="48.97455" lon="0.03172">
        <ele>66.57</ele>
        <time>2021-08-08T12:39:37Z</time>
      </trkpt>
      <trkpt lat="48.97451" lon="0.03186">
        <ele>66.34</ele>
        <time>2021-08-08T12:39:38Z</time>
      </trkpt>
      <trkpt lat="48.97445" lon="0.03198">
        <ele>66.1</ele>
        <time>2021-08-08T12:39:39Z</time>
      </trkpt>
      <trkpt lat="48.9744" lon="0.03209">
        <ele>66.03</ele>
        <time>2021-08-08T12:39:40Z</time>
      </trkpt>
      <trkpt lat="48.97436" lon="0.03219">
        <ele>66.01</ele>
        <time>2021-08-08T12:39:41Z</time>
      </trkpt>
      <trkpt lat="48.9743" lon="0.03227">
        <ele>66</ele>
        <time>2021-08-08T12:39:42Z</time>
      </trkpt>
      <trkpt lat="48.97423" lon="0.03233">
        <ele>66</ele>
        <time>2021-08-08T12:39:43Z</time>
      </trkpt>
      <trkpt lat="48.97417" lon="0.03236">
        <ele>66</ele>
        <time>2021-08-08T12:39:44Z</time>
      </trkpt>
      <trkpt lat="48.9741" lon="0.0324">
        <ele>66</ele>
        <time>2021-08-08T12:39:45Z</time>
      </trkpt>
      <trkpt lat="48.97403" lon="0.03244">
        <ele>66</ele>
        <time>2021-08-08T12:39:46Z</time>
      </trkpt>
      <trkpt lat="48.97397" lon="0.03249">
        <ele>66</ele>
        <time>2021-08-08T12:39:47Z</time>
      </trkpt>
      <trkpt lat="48.9739" lon="0.03253">
        <ele>66</ele>
        <time>2021-08-08T12:39:48Z</time>
      </trkpt>
      <trkpt lat="48.97384" lon="0.03257">
        <ele>66</ele>
        <time>2021-08-08T12:39:49Z</time>
      </trkpt>
      <trkpt lat="48.97378" lon="0.03261">
        <ele>66</ele>
        <time>2021-08-08T12:39:50Z</time>
      </trkpt>
      <trkpt lat="48.97372" lon="0.03267">
        <ele>66</ele>
        <time>2021-08-08T12:39:51Z</time>
      </trkpt>
      <trkpt lat="48.97366" lon="0.03274">
        <ele>66</ele>
        <time>2021-08-08T12:39:52Z</time>
      </trkpt>
      <trkpt lat="48.9736" lon="0.03283">
        <ele>65.87</ele>
        <time>2021-08-08T12:39:53Z</time>
      </trkpt>
      <trkpt lat="48.97355" lon="0.03292">
        <ele>65.68</ele>
        <time>2021-08-08T12:39:54Z</time>
      </trkpt>
      <trkpt lat="48.9735" lon="0.03301">
        <ele>65.55</ele>
        <time>2021-08-08T12:39:55Z</time>
      </trkpt>
      <trkpt lat="48.97346" lon="0.03309">
        <ele>65.6</ele>
        <time>2021-08-08T12:39:56Z</time>
      </trkpt>
      <trkpt lat="48.97342" lon="0.0332">
        <ele>65.77</ele>
        <time>2021-08-08T12:39:57Z</time>
      </trkpt>
      <trkpt lat="48.97339" lon="0.03331">
        <ele>65.92</ele>
        <time>2021-08-08T12:39:58Z</time>
      </trkpt>
      <trkpt lat="48.97336" lon="0.03341">
        <ele>65.98</ele>
        <time>2021-08-08T12:39:59Z</time>
      </trkpt>
      <trkpt lat="48.97334" lon="0.03351">
        <ele>65.99</ele>
        <time>2021-08-08T12:40:00Z</time>
      </trkpt>
      <trkpt lat="48.97333" lon="0.03362">
        <ele>66.02</ele>
        <time>2021-08-08T12:40:01Z</time>
      </trkpt>
      <trkpt lat="48.97333" lon="0.03372">
        <ele>66.28</ele>
        <time>2021-08-08T12:40:02Z</time>
      </trkpt>
      <trkpt lat="48.97334" lon="0.03382">
        <ele>66.59</ele>
        <time>2021-08-08T12:40:03Z</time>
      </trkpt>
      <trkpt lat="48.97336" lon="0.03392">
        <ele>66.81</ele>
        <time>2021-08-08T12:40:04Z</time>
      </trkpt>
      <trkpt lat="48.97337" lon="0.03402">
        <ele>66.86</ele>
        <time>2021-08-08T12:40:05Z</time>
      </trkpt>
      <trkpt lat="48.97338" lon="0.03412">
        <ele>66.85</ele>
        <time>2021-08-08T12:40:06Z</time>
      </trkpt>
      <trkpt lat="48.97339" lon="0.03422">
        <ele>66.83</ele>
        <time>2021-08-08T12:40:07Z</time>
      </trkpt>
      <trkpt lat="48.97341" lon="0.03432">
        <ele>66.86</ele>
        <time>2021-08-08T12:40:08Z</time>
      </trkpt>
      <trkpt lat="48.97343" lon="0.03443">
        <ele>66.95</ele>
        <time>2021-08-08T12:40:09Z</time>
      </trkpt>
      <trkpt lat="48.97346" lon="0.03454">
        <ele>66.98</ele>
        <time>2021-08-08T12:40:10Z</time>
      </trkpt>
      <trkpt lat="48.97348" lon="0.03465">
        <ele>67</ele>
        <time>2021-08-08T12:40:11Z</time>
      </trkpt>
      <trkpt lat="48.97351" lon="0.03475">
        <ele>67</ele>
        <time>2021-08-08T12:40:12Z</time>
      </trkpt>
      <trkpt lat="48.97354" lon="0.03485">
        <ele>67</ele>
        <time>2021-08-08T12:40:13Z</time>
      </trkpt>
      <trkpt lat="48.97358" lon="0.03494">
        <ele>67</ele>
        <time>2021-08-08T12:40:14Z</time>
      </trkpt>
      <trkpt lat="48.97363" lon="0.03503">
        <ele>66.96</ele>
        <time>2021-08-08T12:40:15Z</time>
      </trkpt>
      <trkpt lat="48.97369" lon="0.03511">
        <ele>66.87</ele>
        <time>2021-08-08T12:40:16Z</time>
      </trkpt>
      <trkpt lat="48.97375" lon="0.03518">
        <ele>66.84</ele>
        <time>2021-08-08T12:40:17Z</time>
      </trkpt>
      <trkpt lat="48.97381" lon="0.03527">
        <ele>66.93</ele>
        <time>2021-08-08T12:40:18Z</time>
      </trkpt>
      <trkpt lat="48.97385" lon="0.03536">
        <ele>67.01</ele>
        <time>2021-08-08T12:40:19Z</time>
      </trkpt>
      <trkpt lat="48.97389" lon="0.03545">
        <ele>67</ele>
        <time>2021-08-08T12:40:20Z</time>
      </trkpt>
      <trkpt lat="48.97393" lon="0.03555">
        <ele>67</ele>
        <time>2021-08-08T12:40:21Z</time>
      </trkpt>
      <trkpt lat="48.97395" lon="0.03564">
        <ele>67.18</ele>
        <time>2021-08-08T12:40:22Z</time>
      </trkpt>
      <trkpt lat="48.97396" lon="0.03574">
        <ele>67.4</ele>
        <time>2021-08-08T12:40:23Z</time>
      </trkpt>
      <trkpt lat="48.97399" lon="0.03584">
        <ele>67.57</ele>
        <time>2021-08-08T12:40:24Z</time>
      </trkpt>
      <trkpt lat="48.97401" lon="0.03593">
        <ele>67.68</ele>
        <time>2021-08-08T12:40:25Z</time>
      </trkpt>
      <trkpt lat="48.97404" lon="0.03602">
        <ele>67.78</ele>
        <time>2021-08-08T12:40:26Z</time>
      </trkpt>
      <trkpt lat="48.97408" lon="0.03612">
        <ele>67.93</ele>
        <time>2021-08-08T12:40:27Z</time>
      </trkpt>
      <trkpt lat="48.97411" lon="0.03621">
        <ele>67.79</ele>
        <time>2021-08-08T12:40:28Z</time>
      </trkpt>
      <trkpt lat="48.97414" lon="0.03629">
        <ele>67.52</ele>
        <time>2021-08-08T12:40:29Z</time>
      </trkpt>
      <trkpt lat="48.97418" lon="0.03638">
        <ele>67.15</ele>
        <time>2021-08-08T12:40:30Z</time>
      </trkpt>
      <trkpt lat="48.97421" lon="0.03648">
        <ele>66.94</ele>
        <time>2021-08-08T12:40:31Z</time>
      </trkpt>
      <trkpt lat="48.97424" lon="0.03657">
        <ele>66.79</ele>
        <time>2021-08-08T12:40:32Z</time>
      </trkpt>
      <trkpt lat="48.97428" lon="0.03666">
        <ele>66.65</ele>
        <time>2021-08-08T12:40:33Z</time>
      </trkpt>
      <trkpt lat="48.97432" lon="0.03675">
        <ele>66.39</ele>
        <time>2021-08-08T12:40:34Z</time>
      </trkpt>
      <trkpt lat="48.97436" lon="0.03685">
        <ele>66.02</ele>
        <time>2021-08-08T12:40:35Z</time>
      </trkpt>
      <trkpt lat="48.9744" lon="0.03694">
        <ele>65.56</ele>
        <time>2021-08-08T12:40:36Z</time>
      </trkpt>
      <trkpt lat="48.97444" lon="0.03704">
        <ele>65.21</ele>
        <time>2021-08-08T12:40:37Z</time>
      </trkpt>
      <trkpt lat="48.97447" lon="0.03714">
        <ele>64.99</ele>
        <time>2021-08-08T12:40:38Z</time>
      </trkpt>
      <trkpt lat="48.97451" lon="0.03724">
        <ele>64.82</ele>
        <time>2021-08-08T12:40:39Z</time>
      </trkpt>
      <trkpt lat="48.97455" lon="0.03734">
        <ele>64.56</ele>
        <time>2021-08-08T12:40:40Z</time>
      </trkpt>
      <trkpt lat="48.97459" lon="0.03744">
        <ele>64.21</ele>
        <time>2021-08-08T12:40:41Z</time>
      </trkpt>
      <trkpt lat="48.97463" lon="0.03755">
        <ele>63.82</ele>
        <time>2021-08-08T12:40:42Z</time>
      </trkpt>
      <trkpt lat="48.97468" lon="0.03765">
        <ele>63.48</ele>
        <time>2021-08-08T12:40:43Z</time>
      </trkpt>
      <trkpt lat="48.97472" lon="0.03776">
        <ele>63.15</ele>
        <time>2021-08-08T12:40:44Z</time>
      </trkpt>
      <trkpt lat="48.97477" lon="0.03786">
        <ele>62.89</ele>
        <time>2021-08-08T12:40:45Z</time>
      </trkpt>
      <trkpt lat="48.97481" lon="0.03797">
        <ele>62.58</ele>
        <time>2021-08-08T12:40:46Z</time>
      </trkpt>
      <trkpt lat="48.97486" lon="0.03806">
        <ele>62.19</ele>
        <time>2021-08-08T12:40:47Z</time>
      </trkpt>
      <trkpt lat="48.9749" lon="0.03814">
        <ele>61.88</ele>
        <time>2021-08-08T12:40:48Z</time>
      </trkpt>
      <trkpt lat="48.97493" lon="0.03819">
        <ele>61.62</ele>
        <time>2021-08-08T12:40:49Z</time>
      </trkpt>
      <trkpt lat="48.97495" lon="0.03822">
        <ele>61.45</ele>
        <time>2021-08-08T12:40:50Z</time>
      </trkpt>
      <trkpt lat="48.97496" lon="0.03824">
        <ele>61.33</ele>
        <time>2021-08-08T12:40:51Z</time>
      </trkpt>
      <trkpt lat="48.97496" lon="0.03824">
        <ele>61.28</ele>
        <time>2021-08-08T12:40:52Z</time>
      </trkpt>
      <trkpt lat="48.97496" lon="0.03825">
        <ele>61.29</ele>
        <time>2021-08-08T12:40:53Z</time>
      </trkpt>
      <trkpt lat="48.97496" lon="0.03825">
        <ele>61.28</ele>
        <time>2021-08-08T12:40:54Z</time>
      </trkpt>
      <trkpt lat="48.97496" lon="0.03825">
        <ele>61.28</ele>
        <time>2021-08-08T12:40:55Z</time>
      </trkpt>
      <trkpt lat="48.97496" lon="0.03825">
        <ele>61.28</ele>
        <time>2021-08-08T12:40:56Z</time>
      </trkpt>
      <trkpt lat="48.97496" lon="0.03825">
        <ele>61.28</ele>
        <time>2021-08-08T12:40:57Z</time>
      </trkpt>
      <trkpt lat="48.97498" lon="0.03826">
        <ele>61.19</ele>
        <time>2021-08-08T12:40:58Z</time>
      </trkpt>
      <trkpt lat="48.975" lon="0.03826">
        <ele>61.08</ele>
        <time>2021-08-08T12:40:59Z</time>
      </trkpt>
      <trkpt lat="48.97502" lon="0.03826">
        <ele>61.02</ele>
        <time>2021-08-08T12:41:00Z</time>
      </trkpt>
      <trkpt lat="48.97506" lon="0.03828">
        <ele>61.01</ele>
        <time>2021-08-08T12:41:01Z</time>
      </trkpt>
      <trkpt lat="48.9751" lon="0.03831">
        <ele>61</ele>
        <time>2021-08-08T12:41:02Z</time>
      </trkpt>
      <trkpt lat="48.97513" lon="0.03835">
        <ele>61.02</ele>
        <time>2021-08-08T12:41:03Z</time>
      </trkpt>
      <trkpt lat="48.97517" lon="0.03839">
        <ele>61.06</ele>
        <time>2021-08-08T12:41:04Z</time>
      </trkpt>
      <trkpt lat="48.97521" lon="0.03843">
        <ele>61.09</ele>
        <time>2021-08-08T12:41:05Z</time>
      </trkpt>
      <trkpt lat="48.97524" lon="0.03849">
        <ele>61.08</ele>
        <time>2021-08-08T12:41:06Z</time>
      </trkpt>
      <trkpt lat="48.97528" lon="0.03855">
        <ele>61.01</ele>
        <time>2021-08-08T12:41:07Z</time>
      </trkpt>
      <trkpt lat="48.97532" lon="0.03861">
        <ele>60.9</ele>
        <time>2021-08-08T12:41:08Z</time>
      </trkpt>
      <trkpt lat="48.97536" lon="0.03868">
        <ele>60.77</ele>
        <time>2021-08-08T12:41:09Z</time>
      </trkpt>
      <trkpt lat="48.9754" lon="0.03874">
        <ele>60.63</ele>
        <time>2021-08-08T12:41:10Z</time>
      </trkpt>
      <trkpt lat="48.97544" lon="0.03881">
        <ele>60.47</ele>
        <time>2021-08-08T12:41:11Z</time>
      </trkpt>
      <trkpt lat="48.9755" lon="0.03888">
        <ele>60.29</ele>
        <time>2021-08-08T12:41:12Z</time>
      </trkpt>
      <trkpt lat="48.97555" lon="0.03894">
        <ele>60.11</ele>
        <time>2021-08-08T12:41:13Z</time>
      </trkpt>
      <trkpt lat="48.9756" lon="0.039">
        <ele>60.03</ele>
        <time>2021-08-08T12:41:14Z</time>
      </trkpt>
      <trkpt lat="48.97566" lon="0.03906">
        <ele>60.01</ele>
        <time>2021-08-08T12:41:15Z</time>
      </trkpt>
      <trkpt lat="48.97571" lon="0.03912">
        <ele>60</ele>
        <time>2021-08-08T12:41:16Z</time>
      </trkpt>
      <trkpt lat="48.97576" lon="0.03918">
        <ele>60</ele>
        <time>2021-08-08T12:41:17Z</time>
      </trkpt>
      <trkpt lat="48.97581" lon="0.03923">
        <ele>60</ele>
        <time>2021-08-08T12:41:18Z</time>
      </trkpt>
      <trkpt lat="48.97586" lon="0.03928">
        <ele>60</ele>
        <time>2021-08-08T12:41:19Z</time>
      </trkpt>
      <trkpt lat="48.9759" lon="0.03933">
        <ele>60</ele>
        <time>2021-08-08T12:41:20Z</time>
      </trkpt>
      <trkpt lat="48.97596" lon="0.03938">
        <ele>60</ele>
        <time>2021-08-08T12:41:21Z</time>
      </trkpt>
      <trkpt lat="48.976" lon="0.03944">
        <ele>60</ele>
        <time>2021-08-08T12:41:22Z</time>
      </trkpt>
      <trkpt lat="48.97605" lon="0.0395">
        <ele>60</ele>
        <time>2021-08-08T12:41:23Z</time>
      </trkpt>
      <trkpt lat="48.97608" lon="0.03957">
        <ele>60</ele>
        <time>2021-08-08T12:41:24Z</time>
      </trkpt>
      <trkpt lat="48.97612" lon="0.03963">
        <ele>60</ele>
        <time>2021-08-08T12:41:25Z</time>
      </trkpt>
      <trkpt lat="48.97616" lon="0.0397">
        <ele>60</ele>
        <time>2021-08-08T12:41:26Z</time>
      </trkpt>
      <trkpt lat="48.9762" lon="0.03975">
        <ele>60</ele>
        <time>2021-08-08T12:41:27Z</time>
      </trkpt>
      <trkpt lat="48.97625" lon="0.0398">
        <ele>60</ele>
        <time>2021-08-08T12:41:28Z</time>
      </trkpt>
      <trkpt lat="48.97631" lon="0.03984">
        <ele>60</ele>
        <time>2021-08-08T12:41:29Z</time>
      </trkpt>
      <trkpt lat="48.97638" lon="0.03987">
        <ele>60</ele>
        <time>2021-08-08T12:41:30Z</time>
      </trkpt>
      <trkpt lat="48.97646" lon="0.03987">
        <ele>60.17</ele>
        <time>2021-08-08T12:41:31Z</time>
      </trkpt>
      <trkpt lat="48.97653" lon="0.03986">
        <ele>60.4</ele>
        <time>2021-08-08T12:41:32Z</time>
      </trkpt>
      <trkpt lat="48.97659" lon="0.03984">
        <ele>60.63</ele>
        <time>2021-08-08T12:41:33Z</time>
      </trkpt>
      <trkpt lat="48.97665" lon="0.03984">
        <ele>60.86</ele>
        <time>2021-08-08T12:41:34Z</time>
      </trkpt>
      <trkpt lat="48.97671" lon="0.03984">
        <ele>61.01</ele>
        <time>2021-08-08T12:41:35Z</time>
      </trkpt>
      <trkpt lat="48.97677" lon="0.03985">
        <ele>61.12</ele>
        <time>2021-08-08T12:41:36Z</time>
      </trkpt>
      <trkpt lat="48.97681" lon="0.03987">
        <ele>61.23</ele>
        <time>2021-08-08T12:41:37Z</time>
      </trkpt>
      <trkpt lat="48.97687" lon="0.03993">
        <ele>61.45</ele>
        <time>2021-08-08T12:41:38Z</time>
      </trkpt>
      <trkpt lat="48.97692" lon="0.03999">
        <ele>61.74</ele>
        <time>2021-08-08T12:41:39Z</time>
      </trkpt>
      <trkpt lat="48.97696" lon="0.04003">
        <ele>62.01</ele>
        <time>2021-08-08T12:41:40Z</time>
      </trkpt>
      <trkpt lat="48.97699" lon="0.0401">
        <ele>62.26</ele>
        <time>2021-08-08T12:41:41Z</time>
      </trkpt>
      <trkpt lat="48.97702" lon="0.04017">
        <ele>62.51</ele>
        <time>2021-08-08T12:41:42Z</time>
      </trkpt>
      <trkpt lat="48.97705" lon="0.04024">
        <ele>62.76</ele>
        <time>2021-08-08T12:41:43Z</time>
      </trkpt>
      <trkpt lat="48.97708" lon="0.04031">
        <ele>62.96</ele>
        <time>2021-08-08T12:41:44Z</time>
      </trkpt>
      <trkpt lat="48.97711" lon="0.04038">
        <ele>63.13</ele>
        <time>2021-08-08T12:41:45Z</time>
      </trkpt>
      <trkpt lat="48.97713" lon="0.04045">
        <ele>63.32</ele>
        <time>2021-08-08T12:41:46Z</time>
      </trkpt>
      <trkpt lat="48.97715" lon="0.04051">
        <ele>63.55</ele>
        <time>2021-08-08T12:41:47Z</time>
      </trkpt>
      <trkpt lat="48.97718" lon="0.04058">
        <ele>63.82</ele>
        <time>2021-08-08T12:41:48Z</time>
      </trkpt>
      <trkpt lat="48.97721" lon="0.04064">
        <ele>64.14</ele>
        <time>2021-08-08T12:41:49Z</time>
      </trkpt>
      <trkpt lat="48.97724" lon="0.04071">
        <ele>64.43</ele>
        <time>2021-08-08T12:41:50Z</time>
      </trkpt>
      <trkpt lat="48.97727" lon="0.04076">
        <ele>64.65</ele>
        <time>2021-08-08T12:41:51Z</time>
      </trkpt>
      <trkpt lat="48.97731" lon="0.04081">
        <ele>64.82</ele>
        <time>2021-08-08T12:41:52Z</time>
      </trkpt>
      <trkpt lat="48.97734" lon="0.04084">
        <ele>64.97</ele>
        <time>2021-08-08T12:41:53Z</time>
      </trkpt>
      <trkpt lat="48.97738" lon="0.04087">
        <ele>65.08</ele>
        <time>2021-08-08T12:41:54Z</time>
      </trkpt>
      <trkpt lat="48.97743" lon="0.04089">
        <ele>65.17</ele>
        <time>2021-08-08T12:41:55Z</time>
      </trkpt>
      <trkpt lat="48.97748" lon="0.04091">
        <ele>65.24</ele>
        <time>2021-08-08T12:41:56Z</time>
      </trkpt>
      <trkpt lat="48.97754" lon="0.04092">
        <ele>65.39</ele>
        <time>2021-08-08T12:41:57Z</time>
      </trkpt>
      <trkpt lat="48.97761" lon="0.04094">
        <ele>65.66</ele>
        <time>2021-08-08T12:41:58Z</time>
      </trkpt>
      <trkpt lat="48.97767" lon="0.04093">
        <ele>65.88</ele>
        <time>2021-08-08T12:41:59Z</time>
      </trkpt>
      <trkpt lat="48.97774" lon="0.04094">
        <ele>66.12</ele>
        <time>2021-08-08T12:42:00Z</time>
      </trkpt>
      <trkpt lat="48.97779" lon="0.04094">
        <ele>66.29</ele>
        <time>2021-08-08T12:42:01Z</time>
      </trkpt>
      <trkpt lat="48.97785" lon="0.04094">
        <ele>66.35</ele>
        <time>2021-08-08T12:42:02Z</time>
      </trkpt>
      <trkpt lat="48.97791" lon="0.04094">
        <ele>66.37</ele>
        <time>2021-08-08T12:42:03Z</time>
      </trkpt>
      <trkpt lat="48.97796" lon="0.04094">
        <ele>66.38</ele>
        <time>2021-08-08T12:42:04Z</time>
      </trkpt>
      <trkpt lat="48.97802" lon="0.04095">
        <ele>66.41</ele>
        <time>2021-08-08T12:42:05Z</time>
      </trkpt>
      <trkpt lat="48.97808" lon="0.04096">
        <ele>66.52</ele>
        <time>2021-08-08T12:42:06Z</time>
      </trkpt>
      <trkpt lat="48.97814" lon="0.04097">
        <ele>66.71</ele>
        <time>2021-08-08T12:42:07Z</time>
      </trkpt>
      <trkpt lat="48.97819" lon="0.04097">
        <ele>66.92</ele>
        <time>2021-08-08T12:42:08Z</time>
      </trkpt>
      <trkpt lat="48.97825" lon="0.04098">
        <ele>67.13</ele>
        <time>2021-08-08T12:42:09Z</time>
      </trkpt>
      <trkpt lat="48.9783" lon="0.04099">
        <ele>67.34</ele>
        <time>2021-08-08T12:42:10Z</time>
      </trkpt>
      <trkpt lat="48.97835" lon="0.04101">
        <ele>67.6</ele>
        <time>2021-08-08T12:42:11Z</time>
      </trkpt>
      <trkpt lat="48.9784" lon="0.04104">
        <ele>67.88</ele>
        <time>2021-08-08T12:42:12Z</time>
      </trkpt>
      <trkpt lat="48.97845" lon="0.04108">
        <ele>68.18</ele>
        <time>2021-08-08T12:42:13Z</time>
      </trkpt>
      <trkpt lat="48.97848" lon="0.04114">
        <ele>68.5</ele>
        <time>2021-08-08T12:42:14Z</time>
      </trkpt>
      <trkpt lat="48.97851" lon="0.04119">
        <ele>68.82</ele>
        <time>2021-08-08T12:42:15Z</time>
      </trkpt>
      <trkpt lat="48.97855" lon="0.04124">
        <ele>69.11</ele>
        <time>2021-08-08T12:42:16Z</time>
      </trkpt>
      <trkpt lat="48.97858" lon="0.04128">
        <ele>69.37</ele>
        <time>2021-08-08T12:42:17Z</time>
      </trkpt>
      <trkpt lat="48.97861" lon="0.0413">
        <ele>69.59</ele>
        <time>2021-08-08T12:42:18Z</time>
      </trkpt>
      <trkpt lat="48.97866" lon="0.04129">
        <ele>69.76</ele>
        <time>2021-08-08T12:42:19Z</time>
      </trkpt>
      <trkpt lat="48.97871" lon="0.04124">
        <ele>69.8</ele>
        <time>2021-08-08T12:42:20Z</time>
      </trkpt>
      <trkpt lat="48.97875" lon="0.04119">
        <ele>69.77</ele>
        <time>2021-08-08T12:42:21Z</time>
      </trkpt>
      <trkpt lat="48.97879" lon="0.04114">
        <ele>69.76</ele>
        <time>2021-08-08T12:42:22Z</time>
      </trkpt>
      <trkpt lat="48.97884" lon="0.0411">
        <ele>69.77</ele>
        <time>2021-08-08T12:42:23Z</time>
      </trkpt>
      <trkpt lat="48.97889" lon="0.04106">
        <ele>69.79</ele>
        <time>2021-08-08T12:42:24Z</time>
      </trkpt>
      <trkpt lat="48.97894" lon="0.04103">
        <ele>69.85</ele>
        <time>2021-08-08T12:42:25Z</time>
      </trkpt>
      <trkpt lat="48.97899" lon="0.041">
        <ele>69.93</ele>
        <time>2021-08-08T12:42:26Z</time>
      </trkpt>
      <trkpt lat="48.97904" lon="0.04097">
        <ele>70</ele>
        <time>2021-08-08T12:42:27Z</time>
      </trkpt>
      <trkpt lat="48.97909" lon="0.04094">
        <ele>70.08</ele>
        <time>2021-08-08T12:42:28Z</time>
      </trkpt>
      <trkpt lat="48.97914" lon="0.04091">
        <ele>70.16</ele>
        <time>2021-08-08T12:42:29Z</time>
      </trkpt>
      <trkpt lat="48.9792" lon="0.04087">
        <ele>70.14</ele>
        <time>2021-08-08T12:42:30Z</time>
      </trkpt>
      <trkpt lat="48.97925" lon="0.04083">
        <ele>70.03</ele>
        <time>2021-08-08T12:42:31Z</time>
      </trkpt>
      <trkpt lat="48.97931" lon="0.04079">
        <ele>69.86</ele>
        <time>2021-08-08T12:42:32Z</time>
      </trkpt>
      <trkpt lat="48.97936" lon="0.04075">
        <ele>69.61</ele>
        <time>2021-08-08T12:42:33Z</time>
      </trkpt>
      <trkpt lat="48.97941" lon="0.04072">
        <ele>69.34</ele>
        <time>2021-08-08T12:42:34Z</time>
      </trkpt>
      <trkpt lat="48.97946" lon="0.04068">
        <ele>69</ele>
        <time>2021-08-08T12:42:35Z</time>
      </trkpt>
      <trkpt lat="48.97951" lon="0.04064">
        <ele>68.68</ele>
        <time>2021-08-08T12:42:36Z</time>
      </trkpt>
      <trkpt lat="48.97956" lon="0.0406">
        <ele>68.39</ele>
        <time>2021-08-08T12:42:37Z</time>
      </trkpt>
      <trkpt lat="48.97961" lon="0.04057">
        <ele>68.16</ele>
        <time>2021-08-08T12:42:38Z</time>
      </trkpt>
      <trkpt lat="48.97967" lon="0.04052">
        <ele>67.97</ele>
        <time>2021-08-08T12:42:39Z</time>
      </trkpt>
      <trkpt lat="48.97973" lon="0.04048">
        <ele>67.8</ele>
        <time>2021-08-08T12:42:40Z</time>
      </trkpt>
      <trkpt lat="48.97979" lon="0.04043">
        <ele>67.63</ele>
        <time>2021-08-08T12:42:41Z</time>
      </trkpt>
      <trkpt lat="48.97986" lon="0.04037">
        <ele>67.43</ele>
        <time>2021-08-08T12:42:42Z</time>
      </trkpt>
      <trkpt lat="48.97992" lon="0.04031">
        <ele>67.21</ele>
        <time>2021-08-08T12:42:43Z</time>
      </trkpt>
      <trkpt lat="48.97999" lon="0.04024">
        <ele>66.98</ele>
        <time>2021-08-08T12:42:44Z</time>
      </trkpt>
      <trkpt lat="48.98006" lon="0.04018">
        <ele>66.74</ele>
        <time>2021-08-08T12:42:45Z</time>
      </trkpt>
      <trkpt lat="48.98012" lon="0.04011">
        <ele>66.49</ele>
        <time>2021-08-08T12:42:46Z</time>
      </trkpt>
      <trkpt lat="48.98018" lon="0.04006">
        <ele>66.29</ele>
        <time>2021-08-08T12:42:47Z</time>
      </trkpt>
      <trkpt lat="48.98024" lon="0.04002">
        <ele>66.13</ele>
        <time>2021-08-08T12:42:48Z</time>
      </trkpt>
      <trkpt lat="48.9803" lon="0.03998">
        <ele>65.96</ele>
        <time>2021-08-08T12:42:49Z</time>
      </trkpt>
      <trkpt lat="48.98037" lon="0.03994">
        <ele>65.69</ele>
        <time>2021-08-08T12:42:50Z</time>
      </trkpt>
      <trkpt lat="48.98043" lon="0.0399">
        <ele>65.38</ele>
        <time>2021-08-08T12:42:51Z</time>
      </trkpt>
      <trkpt lat="48.9805" lon="0.03985">
        <ele>65.06</ele>
        <time>2021-08-08T12:42:52Z</time>
      </trkpt>
      <trkpt lat="48.98056" lon="0.03981">
        <ele>64.77</ele>
        <time>2021-08-08T12:42:53Z</time>
      </trkpt>
      <trkpt lat="48.98062" lon="0.03975">
        <ele>64.72</ele>
        <time>2021-08-08T12:42:54Z</time>
      </trkpt>
      <trkpt lat="48.98069" lon="0.03969">
        <ele>64.78</ele>
        <time>2021-08-08T12:42:55Z</time>
      </trkpt>
      <trkpt lat="48.98076" lon="0.03963">
        <ele>64.84</ele>
        <time>2021-08-08T12:42:56Z</time>
      </trkpt>
      <trkpt lat="48.98082" lon="0.03956">
        <ele>64.79</ele>
        <time>2021-08-08T12:42:57Z</time>
      </trkpt>
      <trkpt lat="48.98088" lon="0.0395">
        <ele>64.67</ele>
        <time>2021-08-08T12:42:58Z</time>
      </trkpt>
      <trkpt lat="48.98096" lon="0.03944">
        <ele>64.5</ele>
        <time>2021-08-08T12:42:59Z</time>
      </trkpt>
      <trkpt lat="48.98102" lon="0.03939">
        <ele>64.24</ele>
        <time>2021-08-08T12:43:00Z</time>
      </trkpt>
      <trkpt lat="48.98109" lon="0.03933">
        <ele>63.88</ele>
        <time>2021-08-08T12:43:01Z</time>
      </trkpt>
      <trkpt lat="48.98116" lon="0.03927">
        <ele>63.5</ele>
        <time>2021-08-08T12:43:02Z</time>
      </trkpt>
      <trkpt lat="48.98123" lon="0.03922">
        <ele>63.14</ele>
        <time>2021-08-08T12:43:03Z</time>
      </trkpt>
      <trkpt lat="48.9813" lon="0.03917">
        <ele>62.84</ele>
        <time>2021-08-08T12:43:04Z</time>
      </trkpt>
      <trkpt lat="48.98137" lon="0.03911">
        <ele>62.62</ele>
        <time>2021-08-08T12:43:05Z</time>
      </trkpt>
      <trkpt lat="48.98143" lon="0.03905">
        <ele>62.43</ele>
        <time>2021-08-08T12:43:06Z</time>
      </trkpt>
      <trkpt lat="48.98151" lon="0.039">
        <ele>62.27</ele>
        <time>2021-08-08T12:43:07Z</time>
      </trkpt>
      <trkpt lat="48.98157" lon="0.03894">
        <ele>62.08</ele>
        <time>2021-08-08T12:43:08Z</time>
      </trkpt>
      <trkpt lat="48.98165" lon="0.03888">
        <ele>61.95</ele>
        <time>2021-08-08T12:43:09Z</time>
      </trkpt>
      <trkpt lat="48.98173" lon="0.03882">
        <ele>61.81</ele>
        <time>2021-08-08T12:43:10Z</time>
      </trkpt>
      <trkpt lat="48.9818" lon="0.03877">
        <ele>61.67</ele>
        <time>2021-08-08T12:43:11Z</time>
      </trkpt>
      <trkpt lat="48.98187" lon="0.03872">
        <ele>61.55</ele>
        <time>2021-08-08T12:43:12Z</time>
      </trkpt>
      <trkpt lat="48.98194" lon="0.03866">
        <ele>61.41</ele>
        <time>2021-08-08T12:43:13Z</time>
      </trkpt>
      <trkpt lat="48.982" lon="0.0386">
        <ele>61.1</ele>
        <time>2021-08-08T12:43:14Z</time>
      </trkpt>
      <trkpt lat="48.98207" lon="0.03856">
        <ele>60.91</ele>
        <time>2021-08-08T12:43:15Z</time>
      </trkpt>
      <trkpt lat="48.98213" lon="0.03849">
        <ele>60.68</ele>
        <time>2021-08-08T12:43:16Z</time>
      </trkpt>
      <trkpt lat="48.98219" lon="0.03843">
        <ele>60.44</ele>
        <time>2021-08-08T12:43:17Z</time>
      </trkpt>
      <trkpt lat="48.98224" lon="0.03836">
        <ele>60.25</ele>
        <time>2021-08-08T12:43:18Z</time>
      </trkpt>
      <trkpt lat="48.9823" lon="0.0383">
        <ele>60.17</ele>
        <time>2021-08-08T12:43:19Z</time>
      </trkpt>
      <trkpt lat="48.98236" lon="0.03825">
        <ele>60.07</ele>
        <time>2021-08-08T12:43:20Z</time>
      </trkpt>
      <trkpt lat="48.98241" lon="0.0382">
        <ele>59.92</ele>
        <time>2021-08-08T12:43:21Z</time>
      </trkpt>
      <trkpt lat="48.98247" lon="0.03813">
        <ele>59.66</ele>
        <time>2021-08-08T12:43:22Z</time>
      </trkpt>
      <trkpt lat="48.98253" lon="0.03808">
        <ele>59.38</ele>
        <time>2021-08-08T12:43:23Z</time>
      </trkpt>
      <trkpt lat="48.98257" lon="0.03802">
        <ele>59.22</ele>
        <time>2021-08-08T12:43:24Z</time>
      </trkpt>
      <trkpt lat="48.98262" lon="0.03797">
        <ele>59.14</ele>
        <time>2021-08-08T12:43:25Z</time>
      </trkpt>
      <trkpt lat="48.98266" lon="0.03792">
        <ele>59.11</ele>
        <time>2021-08-08T12:43:26Z</time>
      </trkpt>
      <trkpt lat="48.98271" lon="0.03787">
        <ele>59.1</ele>
        <time>2021-08-08T12:43:27Z</time>
      </trkpt>
      <trkpt lat="48.98275" lon="0.03783">
        <ele>59.08</ele>
        <time>2021-08-08T12:43:28Z</time>
      </trkpt>
      <trkpt lat="48.98278" lon="0.03777">
        <ele>59.01</ele>
        <time>2021-08-08T12:43:29Z</time>
      </trkpt>
      <trkpt lat="48.9828" lon="0.03772">
        <ele>58.92</ele>
        <time>2021-08-08T12:43:30Z</time>
      </trkpt>
      <trkpt lat="48.98279" lon="0.03768">
        <ele>58.76</ele>
        <time>2021-08-08T12:43:31Z</time>
      </trkpt>
      <trkpt lat="48.98277" lon="0.03763">
        <ele>58.53</ele>
        <time>2021-08-08T12:43:32Z</time>
      </trkpt>
      <trkpt lat="48.98275" lon="0.03757">
        <ele>58.27</ele>
        <time>2021-08-08T12:43:33Z</time>
      </trkpt>
      <trkpt lat="48.98272" lon="0.03751">
        <ele>57.97</ele>
        <time>2021-08-08T12:43:34Z</time>
      </trkpt>
      <trkpt lat="48.98269" lon="0.03744">
        <ele>57.69</ele>
        <time>2021-08-08T12:43:35Z</time>
      </trkpt>
      <trkpt lat="48.98267" lon="0.03737">
        <ele>57.43</ele>
        <time>2021-08-08T12:43:36Z</time>
      </trkpt>
      <trkpt lat="48.98264" lon="0.03729">
        <ele>57.22</ele>
        <time>2021-08-08T12:43:37Z</time>
      </trkpt>
      <trkpt lat="48.9826" lon="0.03721">
        <ele>57.05</ele>
        <time>2021-08-08T12:43:38Z</time>
      </trkpt>
      <trkpt lat="48.98258" lon="0.03712">
        <ele>56.84</ele>
        <time>2021-08-08T12:43:39Z</time>
      </trkpt>
      <trkpt lat="48.98256" lon="0.03703">
        <ele>56.58</ele>
        <time>2021-08-08T12:43:40Z</time>
      </trkpt>
      <trkpt lat="48.98256" lon="0.03695">
        <ele>56.36</ele>
        <time>2021-08-08T12:43:41Z</time>
      </trkpt>
      <trkpt lat="48.98258" lon="0.03688">
        <ele>56.27</ele>
        <time>2021-08-08T12:43:42Z</time>
      </trkpt>
      <trkpt lat="48.98261" lon="0.0368">
        <ele>56.21</ele>
        <time>2021-08-08T12:43:43Z</time>
      </trkpt>
      <trkpt lat="48.98264" lon="0.03675">
        <ele>56.16</ele>
        <time>2021-08-08T12:43:44Z</time>
      </trkpt>
      <trkpt lat="48.98267" lon="0.03669">
        <ele>56.09</ele>
        <time>2021-08-08T12:43:45Z</time>
      </trkpt>
      <trkpt lat="48.9827" lon="0.03665">
        <ele>56.03</ele>
        <time>2021-08-08T12:43:46Z</time>
      </trkpt>
      <trkpt lat="48.98272" lon="0.0366">
        <ele>56.01</ele>
        <time>2021-08-08T12:43:47Z</time>
      </trkpt>
      <trkpt lat="48.98275" lon="0.03656">
        <ele>56</ele>
        <time>2021-08-08T12:43:48Z</time>
      </trkpt>
      <trkpt lat="48.98279" lon="0.03651">
        <ele>56.01</ele>
        <time>2021-08-08T12:43:49Z</time>
      </trkpt>
      <trkpt lat="48.98282" lon="0.03645">
        <ele>56.03</ele>
        <time>2021-08-08T12:43:50Z</time>
      </trkpt>
      <trkpt lat="48.98285" lon="0.03639">
        <ele>56.01</ele>
        <time>2021-08-08T12:43:51Z</time>
      </trkpt>
      <trkpt lat="48.98289" lon="0.03633">
        <ele>56</ele>
        <time>2021-08-08T12:43:52Z</time>
      </trkpt>
      <trkpt lat="48.98293" lon="0.03628">
        <ele>56</ele>
        <time>2021-08-08T12:43:53Z</time>
      </trkpt>
      <trkpt lat="48.98297" lon="0.03622">
        <ele>56</ele>
        <time>2021-08-08T12:43:54Z</time>
      </trkpt>
      <trkpt lat="48.98301" lon="0.03616">
        <ele>56</ele>
        <time>2021-08-08T12:43:55Z</time>
      </trkpt>
      <trkpt lat="48.98305" lon="0.03609">
        <ele>56</ele>
        <time>2021-08-08T12:43:56Z</time>
      </trkpt>
      <trkpt lat="48.9831" lon="0.03604">
        <ele>56.08</ele>
        <time>2021-08-08T12:43:57Z</time>
      </trkpt>
      <trkpt lat="48.98314" lon="0.03598">
        <ele>56.13</ele>
        <time>2021-08-08T12:43:58Z</time>
      </trkpt>
      <trkpt lat="48.98318" lon="0.03592">
        <ele>56.14</ele>
        <time>2021-08-08T12:43:59Z</time>
      </trkpt>
      <trkpt lat="48.98321" lon="0.03588">
        <ele>56.1</ele>
        <time>2021-08-08T12:44:00Z</time>
      </trkpt>
      <trkpt lat="48.98325" lon="0.03582">
        <ele>56.03</ele>
        <time>2021-08-08T12:44:01Z</time>
      </trkpt>
      <trkpt lat="48.98329" lon="0.03577">
        <ele>56.01</ele>
        <time>2021-08-08T12:44:02Z</time>
      </trkpt>
      <trkpt lat="48.98333" lon="0.03572">
        <ele>56</ele>
        <time>2021-08-08T12:44:03Z</time>
      </trkpt>
      <trkpt lat="48.98337" lon="0.03566">
        <ele>56.03</ele>
        <time>2021-08-08T12:44:04Z</time>
      </trkpt>
      <trkpt lat="48.98341" lon="0.03561">
        <ele>56.05</ele>
        <time>2021-08-08T12:44:05Z</time>
      </trkpt>
      <trkpt lat="48.98345" lon="0.03556">
        <ele>56.01</ele>
        <time>2021-08-08T12:44:06Z</time>
      </trkpt>
      <trkpt lat="48.98351" lon="0.0355">
        <ele>56</ele>
        <time>2021-08-08T12:44:07Z</time>
      </trkpt>
      <trkpt lat="48.98355" lon="0.03546">
        <ele>56</ele>
        <time>2021-08-08T12:44:08Z</time>
      </trkpt>
      <trkpt lat="48.98358" lon="0.0354">
        <ele>56</ele>
        <time>2021-08-08T12:44:09Z</time>
      </trkpt>
      <trkpt lat="48.98362" lon="0.03536">
        <ele>56.02</ele>
        <time>2021-08-08T12:44:10Z</time>
      </trkpt>
      <trkpt lat="48.98366" lon="0.0353">
        <ele>56.12</ele>
        <time>2021-08-08T12:44:11Z</time>
      </trkpt>
      <trkpt lat="48.98371" lon="0.03525">
        <ele>56.26</ele>
        <time>2021-08-08T12:44:12Z</time>
      </trkpt>
      <trkpt lat="48.98375" lon="0.03522">
        <ele>56.35</ele>
        <time>2021-08-08T12:44:13Z</time>
      </trkpt>
      <trkpt lat="48.98379" lon="0.03517">
        <ele>56.38</ele>
        <time>2021-08-08T12:44:14Z</time>
      </trkpt>
      <trkpt lat="48.98383" lon="0.03512">
        <ele>56.36</ele>
        <time>2021-08-08T12:44:15Z</time>
      </trkpt>
      <trkpt lat="48.98387" lon="0.03509">
        <ele>56.31</ele>
        <time>2021-08-08T12:44:16Z</time>
      </trkpt>
      <trkpt lat="48.9839" lon="0.03504">
        <ele>56.24</ele>
        <time>2021-08-08T12:44:17Z</time>
      </trkpt>
      <trkpt lat="48.98394" lon="0.035">
        <ele>56.2</ele>
        <time>2021-08-08T12:44:18Z</time>
      </trkpt>
      <trkpt lat="48.98398" lon="0.03497">
        <ele>56.22</ele>
        <time>2021-08-08T12:44:19Z</time>
      </trkpt>
      <trkpt lat="48.98402" lon="0.03494">
        <ele>56.24</ele>
        <time>2021-08-08T12:44:20Z</time>
      </trkpt>
      <trkpt lat="48.98406" lon="0.03491">
        <ele>56.28</ele>
        <time>2021-08-08T12:44:21Z</time>
      </trkpt>
      <trkpt lat="48.9841" lon="0.03488">
        <ele>56.32</ele>
        <time>2021-08-08T12:44:22Z</time>
      </trkpt>
      <trkpt lat="48.98414" lon="0.03485">
        <ele>56.37</ele>
        <time>2021-08-08T12:44:23Z</time>
      </trkpt>
      <trkpt lat="48.98419" lon="0.03483">
        <ele>56.38</ele>
        <time>2021-08-08T12:44:24Z</time>
      </trkpt>
      <trkpt lat="48.98424" lon="0.03481">
        <ele>56.34</ele>
        <time>2021-08-08T12:44:25Z</time>
      </trkpt>
      <trkpt lat="48.98429" lon="0.03479">
        <ele>56.27</ele>
        <time>2021-08-08T12:44:26Z</time>
      </trkpt>
      <trkpt lat="48.98433" lon="0.03477">
        <ele>56.2</ele>
        <time>2021-08-08T12:44:27Z</time>
      </trkpt>
      <trkpt lat="48.98438" lon="0.03475">
        <ele>56.13</ele>
        <time>2021-08-08T12:44:28Z</time>
      </trkpt>
      <trkpt lat="48.98444" lon="0.03473">
        <ele>56.05</ele>
        <time>2021-08-08T12:44:29Z</time>
      </trkpt>
      <trkpt lat="48.98449" lon="0.0347">
        <ele>56.12</ele>
        <time>2021-08-08T12:44:30Z</time>
      </trkpt>
      <trkpt lat="48.98454" lon="0.03468">
        <ele>56.23</ele>
        <time>2021-08-08T12:44:31Z</time>
      </trkpt>
      <trkpt lat="48.98459" lon="0.03466">
        <ele>56.35</ele>
        <time>2021-08-08T12:44:32Z</time>
      </trkpt>
      <trkpt lat="48.98464" lon="0.03464">
        <ele>56.45</ele>
        <time>2021-08-08T12:44:33Z</time>
      </trkpt>
      <trkpt lat="48.98469" lon="0.03461">
        <ele>56.5</ele>
        <time>2021-08-08T12:44:34Z</time>
      </trkpt>
      <trkpt lat="48.98474" lon="0.03458">
        <ele>56.54</ele>
        <time>2021-08-08T12:44:35Z</time>
      </trkpt>
      <trkpt lat="48.98478" lon="0.03455">
        <ele>56.59</ele>
        <time>2021-08-08T12:44:36Z</time>
      </trkpt>
      <trkpt lat="48.98482" lon="0.03452">
        <ele>56.63</ele>
        <time>2021-08-08T12:44:37Z</time>
      </trkpt>
      <trkpt lat="48.98487" lon="0.0345">
        <ele>56.72</ele>
        <time>2021-08-08T12:44:38Z</time>
      </trkpt>
      <trkpt lat="48.98492" lon="0.03448">
        <ele>56.81</ele>
        <time>2021-08-08T12:44:39Z</time>
      </trkpt>
      <trkpt lat="48.98497" lon="0.03446">
        <ele>56.92</ele>
        <time>2021-08-08T12:44:40Z</time>
      </trkpt>
      <trkpt lat="48.98501" lon="0.03445">
        <ele>56.98</ele>
        <time>2021-08-08T12:44:41Z</time>
      </trkpt>
      <trkpt lat="48.98506" lon="0.03442">
        <ele>56.95</ele>
        <time>2021-08-08T12:44:42Z</time>
      </trkpt>
      <trkpt lat="48.98511" lon="0.03442">
        <ele>56.91</ele>
        <time>2021-08-08T12:44:43Z</time>
      </trkpt>
      <trkpt lat="48.98516" lon="0.03441">
        <ele>56.89</ele>
        <time>2021-08-08T12:44:44Z</time>
      </trkpt>
      <trkpt lat="48.98521" lon="0.0344">
        <ele>56.85</ele>
        <time>2021-08-08T12:44:45Z</time>
      </trkpt>
      <trkpt lat="48.98526" lon="0.03439">
        <ele>56.83</ele>
        <time>2021-08-08T12:44:46Z</time>
      </trkpt>
      <trkpt lat="48.98531" lon="0.03439">
        <ele>56.81</ele>
        <time>2021-08-08T12:44:47Z</time>
      </trkpt>
      <trkpt lat="48.98536" lon="0.03438">
        <ele>56.79</ele>
        <time>2021-08-08T12:44:48Z</time>
      </trkpt>
      <trkpt lat="48.98541" lon="0.03437">
        <ele>56.75</ele>
        <time>2021-08-08T12:44:49Z</time>
      </trkpt>
      <trkpt lat="48.98546" lon="0.03436">
        <ele>56.72</ele>
        <time>2021-08-08T12:44:50Z</time>
      </trkpt>
      <trkpt lat="48.98551" lon="0.03436">
        <ele>56.69</ele>
        <time>2021-08-08T12:44:51Z</time>
      </trkpt>
      <trkpt lat="48.98556" lon="0.03434">
        <ele>56.66</ele>
        <time>2021-08-08T12:44:52Z</time>
      </trkpt>
      <trkpt lat="48.98561" lon="0.03432">
        <ele>56.66</ele>
        <time>2021-08-08T12:44:53Z</time>
      </trkpt>
      <trkpt lat="48.98565" lon="0.03431">
        <ele>56.68</ele>
        <time>2021-08-08T12:44:54Z</time>
      </trkpt>
      <trkpt lat="48.9857" lon="0.03429">
        <ele>56.66</ele>
        <time>2021-08-08T12:44:55Z</time>
      </trkpt>
      <trkpt lat="48.98575" lon="0.03427">
        <ele>56.63</ele>
        <time>2021-08-08T12:44:56Z</time>
      </trkpt>
      <trkpt lat="48.9858" lon="0.03425">
        <ele>56.59</ele>
        <time>2021-08-08T12:44:57Z</time>
      </trkpt>
      <trkpt lat="48.98585" lon="0.03423">
        <ele>56.55</ele>
        <time>2021-08-08T12:44:58Z</time>
      </trkpt>
      <trkpt lat="48.9859" lon="0.03422">
        <ele>56.51</ele>
        <time>2021-08-08T12:44:59Z</time>
      </trkpt>
      <trkpt lat="48.98595" lon="0.0342">
        <ele>56.54</ele>
        <time>2021-08-08T12:45:00Z</time>
      </trkpt>
      <trkpt lat="48.986" lon="0.03418">
        <ele>56.6</ele>
        <time>2021-08-08T12:45:01Z</time>
      </trkpt>
      <trkpt lat="48.98604" lon="0.03416">
        <ele>56.69</ele>
        <time>2021-08-08T12:45:02Z</time>
      </trkpt>
      <trkpt lat="48.98609" lon="0.03414">
        <ele>56.79</ele>
        <time>2021-08-08T12:45:03Z</time>
      </trkpt>
      <trkpt lat="48.98614" lon="0.03412">
        <ele>56.83</ele>
        <time>2021-08-08T12:45:04Z</time>
      </trkpt>
      <trkpt lat="48.98619" lon="0.03411">
        <ele>56.81</ele>
        <time>2021-08-08T12:45:05Z</time>
      </trkpt>
      <trkpt lat="48.98623" lon="0.0341">
        <ele>56.78</ele>
        <time>2021-08-08T12:45:06Z</time>
      </trkpt>
      <trkpt lat="48.98629" lon="0.03409">
        <ele>56.74</ele>
        <time>2021-08-08T12:45:07Z</time>
      </trkpt>
      <trkpt lat="48.98634" lon="0.03409">
        <ele>56.72</ele>
        <time>2021-08-08T12:45:08Z</time>
      </trkpt>
      <trkpt lat="48.9864" lon="0.03407">
        <ele>56.68</ele>
        <time>2021-08-08T12:45:09Z</time>
      </trkpt>
      <trkpt lat="48.98645" lon="0.03406">
        <ele>56.65</ele>
        <time>2021-08-08T12:45:10Z</time>
      </trkpt>
      <trkpt lat="48.9865" lon="0.03406">
        <ele>56.63</ele>
        <time>2021-08-08T12:45:11Z</time>
      </trkpt>
      <trkpt lat="48.98655" lon="0.03405">
        <ele>56.59</ele>
        <time>2021-08-08T12:45:12Z</time>
      </trkpt>
      <trkpt lat="48.9866" lon="0.03403">
        <ele>56.53</ele>
        <time>2021-08-08T12:45:13Z</time>
      </trkpt>
      <trkpt lat="48.98664" lon="0.034">
        <ele>56.45</ele>
        <time>2021-08-08T12:45:14Z</time>
      </trkpt>
      <trkpt lat="48.98669" lon="0.03399">
        <ele>56.38</ele>
        <time>2021-08-08T12:45:15Z</time>
      </trkpt>
      <trkpt lat="48.98675" lon="0.03396">
        <ele>56.31</ele>
        <time>2021-08-08T12:45:16Z</time>
      </trkpt>
      <trkpt lat="48.98677" lon="0.03395">
        <ele>56.25</ele>
        <time>2021-08-08T12:45:17Z</time>
      </trkpt>
      <trkpt lat="48.9868" lon="0.03392">
        <ele>56.16</ele>
        <time>2021-08-08T12:45:18Z</time>
      </trkpt>
      <trkpt lat="48.98681" lon="0.03389">
        <ele>56.05</ele>
        <time>2021-08-08T12:45:19Z</time>
      </trkpt>
      <trkpt lat="48.9868" lon="0.03382">
        <ele>55.93</ele>
        <time>2021-08-08T12:45:20Z</time>
      </trkpt>
      <trkpt lat="48.98679" lon="0.03375">
        <ele>55.79</ele>
        <time>2021-08-08T12:45:21Z</time>
      </trkpt>
      <trkpt lat="48.98678" lon="0.03365">
        <ele>55.58</ele>
        <time>2021-08-08T12:45:22Z</time>
      </trkpt>
      <trkpt lat="48.98676" lon="0.03356">
        <ele>55.38</ele>
        <time>2021-08-08T12:45:23Z</time>
      </trkpt>
      <trkpt lat="48.98676" lon="0.03347">
        <ele>55.22</ele>
        <time>2021-08-08T12:45:24Z</time>
      </trkpt>
      <trkpt lat="48.98676" lon="0.03338">
        <ele>55.11</ele>
        <time>2021-08-08T12:45:25Z</time>
      </trkpt>
      <trkpt lat="48.98679" lon="0.0333">
        <ele>54.96</ele>
        <time>2021-08-08T12:45:26Z</time>
      </trkpt>
      <trkpt lat="48.98683" lon="0.03326">
        <ele>54.79</ele>
        <time>2021-08-08T12:45:27Z</time>
      </trkpt>
      <trkpt lat="48.98689" lon="0.03323">
        <ele>54.68</ele>
        <time>2021-08-08T12:45:28Z</time>
      </trkpt>
      <trkpt lat="48.98695" lon="0.03321">
        <ele>54.6</ele>
        <time>2021-08-08T12:45:29Z</time>
      </trkpt>
      <trkpt lat="48.98701" lon="0.03318">
        <ele>54.6</ele>
        <time>2021-08-08T12:45:30Z</time>
      </trkpt>
      <trkpt lat="48.98707" lon="0.03315">
        <ele>54.64</ele>
        <time>2021-08-08T12:45:31Z</time>
      </trkpt>
      <trkpt lat="48.98713" lon="0.03312">
        <ele>54.72</ele>
        <time>2021-08-08T12:45:32Z</time>
      </trkpt>
      <trkpt lat="48.9872" lon="0.03309">
        <ele>54.86</ele>
        <time>2021-08-08T12:45:33Z</time>
      </trkpt>
      <trkpt lat="48.98726" lon="0.03306">
        <ele>54.96</ele>
        <time>2021-08-08T12:45:34Z</time>
      </trkpt>
      <trkpt lat="48.98733" lon="0.03303">
        <ele>54.91</ele>
        <time>2021-08-08T12:45:35Z</time>
      </trkpt>
      <trkpt lat="48.98739" lon="0.03299">
        <ele>54.82</ele>
        <time>2021-08-08T12:45:36Z</time>
      </trkpt>
      <trkpt lat="48.98746" lon="0.03296">
        <ele>54.71</ele>
        <time>2021-08-08T12:45:37Z</time>
      </trkpt>
      <trkpt lat="48.98753" lon="0.03293">
        <ele>54.59</ele>
        <time>2021-08-08T12:45:38Z</time>
      </trkpt>
      <trkpt lat="48.98759" lon="0.03289">
        <ele>54.46</ele>
        <time>2021-08-08T12:45:39Z</time>
      </trkpt>
      <trkpt lat="48.98766" lon="0.03284">
        <ele>54.3</ele>
        <time>2021-08-08T12:45:40Z</time>
      </trkpt>
      <trkpt lat="48.98772" lon="0.03278">
        <ele>54.11</ele>
        <time>2021-08-08T12:45:41Z</time>
      </trkpt>
      <trkpt lat="48.98778" lon="0.03272">
        <ele>53.9</ele>
        <time>2021-08-08T12:45:42Z</time>
      </trkpt>
      <trkpt lat="48.98783" lon="0.03266">
        <ele>53.73</ele>
        <time>2021-08-08T12:45:43Z</time>
      </trkpt>
      <trkpt lat="48.98789" lon="0.03259">
        <ele>53.63</ele>
        <time>2021-08-08T12:45:44Z</time>
      </trkpt>
      <trkpt lat="48.98794" lon="0.03252">
        <ele>53.61</ele>
        <time>2021-08-08T12:45:45Z</time>
      </trkpt>
      <trkpt lat="48.98798" lon="0.03245">
        <ele>53.6</ele>
        <time>2021-08-08T12:45:46Z</time>
      </trkpt>
      <trkpt lat="48.98802" lon="0.03237">
        <ele>53.5</ele>
        <time>2021-08-08T12:45:47Z</time>
      </trkpt>
      <trkpt lat="48.98806" lon="0.03229">
        <ele>53.31</ele>
        <time>2021-08-08T12:45:48Z</time>
      </trkpt>
      <trkpt lat="48.98809" lon="0.0322">
        <ele>53.09</ele>
        <time>2021-08-08T12:45:49Z</time>
      </trkpt>
      <trkpt lat="48.98812" lon="0.03211">
        <ele>53.03</ele>
        <time>2021-08-08T12:45:50Z</time>
      </trkpt>
      <trkpt lat="48.98817" lon="0.03203">
        <ele>53.01</ele>
        <time>2021-08-08T12:45:51Z</time>
      </trkpt>
      <trkpt lat="48.98822" lon="0.03197">
        <ele>53</ele>
        <time>2021-08-08T12:45:52Z</time>
      </trkpt>
      <trkpt lat="48.98828" lon="0.03193">
        <ele>53</ele>
        <time>2021-08-08T12:45:53Z</time>
      </trkpt>
      <trkpt lat="48.98834" lon="0.0319">
        <ele>53</ele>
        <time>2021-08-08T12:45:54Z</time>
      </trkpt>
      <trkpt lat="48.9884" lon="0.03189">
        <ele>53</ele>
        <time>2021-08-08T12:45:55Z</time>
      </trkpt>
      <trkpt lat="48.98846" lon="0.03188">
        <ele>53</ele>
        <time>2021-08-08T12:45:56Z</time>
      </trkpt>
      <trkpt lat="48.98852" lon="0.03188">
        <ele>53</ele>
        <time>2021-08-08T12:45:57Z</time>
      </trkpt>
      <trkpt lat="48.98859" lon="0.03189">
        <ele>53</ele>
        <time>2021-08-08T12:45:58Z</time>
      </trkpt>
      <trkpt lat="48.98865" lon="0.03189">
        <ele>53</ele>
        <time>2021-08-08T12:45:59Z</time>
      </trkpt>
      <trkpt lat="48.9887" lon="0.03188">
        <ele>53</ele>
        <time>2021-08-08T12:46:00Z</time>
      </trkpt>
      <trkpt lat="48.98876" lon="0.03186">
        <ele>53</ele>
        <time>2021-08-08T12:46:01Z</time>
      </trkpt>
      <trkpt lat="48.98879" lon="0.03182">
        <ele>53</ele>
        <time>2021-08-08T12:46:02Z</time>
      </trkpt>
      <trkpt lat="48.98881" lon="0.03175">
        <ele>53</ele>
        <time>2021-08-08T12:46:03Z</time>
      </trkpt>
      <trkpt lat="48.98881" lon="0.03168">
        <ele>53</ele>
        <time>2021-08-08T12:46:04Z</time>
      </trkpt>
      <trkpt lat="48.9888" lon="0.03159">
        <ele>53</ele>
        <time>2021-08-08T12:46:05Z</time>
      </trkpt>
      <trkpt lat="48.98878" lon="0.0315">
        <ele>53</ele>
        <time>2021-08-08T12:46:06Z</time>
      </trkpt>
      <trkpt lat="48.98876" lon="0.03141">
        <ele>53</ele>
        <time>2021-08-08T12:46:07Z</time>
      </trkpt>
      <trkpt lat="48.98875" lon="0.03132">
        <ele>53</ele>
        <time>2021-08-08T12:46:08Z</time>
      </trkpt>
      <trkpt lat="48.98874" lon="0.03123">
        <ele>53</ele>
        <time>2021-08-08T12:46:09Z</time>
      </trkpt>
      <trkpt lat="48.98873" lon="0.03115">
        <ele>53</ele>
        <time>2021-08-08T12:46:10Z</time>
      </trkpt>
      <trkpt lat="48.98872" lon="0.03106">
        <ele>53</ele>
        <time>2021-08-08T12:46:11Z</time>
      </trkpt>
      <trkpt lat="48.98871" lon="0.03097">
        <ele>53</ele>
        <time>2021-08-08T12:46:12Z</time>
      </trkpt>
      <trkpt lat="48.9887" lon="0.03088">
        <ele>53</ele>
        <time>2021-08-08T12:46:13Z</time>
      </trkpt>
      <trkpt lat="48.98869" lon="0.03079">
        <ele>53</ele>
        <time>2021-08-08T12:46:14Z</time>
      </trkpt>
      <trkpt lat="48.98868" lon="0.0307">
        <ele>53</ele>
        <time>2021-08-08T12:46:15Z</time>
      </trkpt>
      <trkpt lat="48.98867" lon="0.0306">
        <ele>53</ele>
        <time>2021-08-08T12:46:16Z</time>
      </trkpt>
      <trkpt lat="48.98867" lon="0.0305">
        <ele>53</ele>
        <time>2021-08-08T12:46:17Z</time>
      </trkpt>
      <trkpt lat="48.98867" lon="0.0304">
        <ele>53</ele>
        <time>2021-08-08T12:46:18Z</time>
      </trkpt>
      <trkpt lat="48.98867" lon="0.0303">
        <ele>53</ele>
        <time>2021-08-08T12:46:19Z</time>
      </trkpt>
      <trkpt lat="48.98867" lon="0.0302">
        <ele>53</ele>
        <time>2021-08-08T12:46:20Z</time>
      </trkpt>
      <trkpt lat="48.98867" lon="0.03011">
        <ele>53</ele>
        <time>2021-08-08T12:46:21Z</time>
      </trkpt>
      <trkpt lat="48.98867" lon="0.03002">
        <ele>53</ele>
        <time>2021-08-08T12:46:22Z</time>
      </trkpt>
      <trkpt lat="48.98868" lon="0.02993">
        <ele>53.13</ele>
        <time>2021-08-08T12:46:23Z</time>
      </trkpt>
      <trkpt lat="48.98868" lon="0.02985">
        <ele>53.34</ele>
        <time>2021-08-08T12:46:24Z</time>
      </trkpt>
      <trkpt lat="48.98867" lon="0.02976">
        <ele>53.56</ele>
        <time>2021-08-08T12:46:25Z</time>
      </trkpt>
      <trkpt lat="48.98867" lon="0.02967">
        <ele>53.74</ele>
        <time>2021-08-08T12:46:26Z</time>
      </trkpt>
      <trkpt lat="48.98867" lon="0.02957">
        <ele>53.85</ele>
        <time>2021-08-08T12:46:27Z</time>
      </trkpt>
      <trkpt lat="48.98867" lon="0.02947">
        <ele>53.94</ele>
        <time>2021-08-08T12:46:28Z</time>
      </trkpt>
      <trkpt lat="48.98867" lon="0.02938">
        <ele>53.98</ele>
        <time>2021-08-08T12:46:29Z</time>
      </trkpt>
      <trkpt lat="48.98866" lon="0.0293">
        <ele>53.99</ele>
        <time>2021-08-08T12:46:30Z</time>
      </trkpt>
      <trkpt lat="48.98866" lon="0.02921">
        <ele>54</ele>
        <time>2021-08-08T12:46:31Z</time>
      </trkpt>
      <trkpt lat="48.98865" lon="0.02912">
        <ele>54.11</ele>
        <time>2021-08-08T12:46:32Z</time>
      </trkpt>
      <trkpt lat="48.98864" lon="0.02904">
        <ele>54.35</ele>
        <time>2021-08-08T12:46:33Z</time>
      </trkpt>
      <trkpt lat="48.98862" lon="0.02896">
        <ele>54.63</ele>
        <time>2021-08-08T12:46:34Z</time>
      </trkpt>
      <trkpt lat="48.98861" lon="0.02887">
        <ele>54.93</ele>
        <time>2021-08-08T12:46:35Z</time>
      </trkpt>
      <trkpt lat="48.9886" lon="0.02879">
        <ele>55.23</ele>
        <time>2021-08-08T12:46:36Z</time>
      </trkpt>
      <trkpt lat="48.98858" lon="0.02872">
        <ele>55.5</ele>
        <time>2021-08-08T12:46:37Z</time>
      </trkpt>
      <trkpt lat="48.98857" lon="0.02864">
        <ele>55.79</ele>
        <time>2021-08-08T12:46:38Z</time>
      </trkpt>
      <trkpt lat="48.98855" lon="0.02856">
        <ele>55.96</ele>
        <time>2021-08-08T12:46:39Z</time>
      </trkpt>
      <trkpt lat="48.98853" lon="0.02849">
        <ele>56.08</ele>
        <time>2021-08-08T12:46:40Z</time>
      </trkpt>
      <trkpt lat="48.98851" lon="0.02843">
        <ele>56.19</ele>
        <time>2021-08-08T12:46:41Z</time>
      </trkpt>
      <trkpt lat="48.9885" lon="0.02836">
        <ele>56.3</ele>
        <time>2021-08-08T12:46:42Z</time>
      </trkpt>
      <trkpt lat="48.98851" lon="0.02829">
        <ele>56.4</ele>
        <time>2021-08-08T12:46:43Z</time>
      </trkpt>
      <trkpt lat="48.98854" lon="0.02823">
        <ele>56.5</ele>
        <time>2021-08-08T12:46:44Z</time>
      </trkpt>
      <trkpt lat="48.98856" lon="0.02818">
        <ele>56.58</ele>
        <time>2021-08-08T12:46:45Z</time>
      </trkpt>
      <trkpt lat="48.9886" lon="0.02815">
        <ele>56.65</ele>
        <time>2021-08-08T12:46:46Z</time>
      </trkpt>
      <trkpt lat="48.98864" lon="0.02811">
        <ele>56.77</ele>
        <time>2021-08-08T12:46:47Z</time>
      </trkpt>
      <trkpt lat="48.98869" lon="0.02806">
        <ele>56.92</ele>
        <time>2021-08-08T12:46:48Z</time>
      </trkpt>
      <trkpt lat="48.98873" lon="0.02802">
        <ele>57.08</ele>
        <time>2021-08-08T12:46:49Z</time>
      </trkpt>
      <trkpt lat="48.98878" lon="0.02796">
        <ele>57.25</ele>
        <time>2021-08-08T12:46:50Z</time>
      </trkpt>
      <trkpt lat="48.98882" lon="0.02791">
        <ele>57.45</ele>
        <time>2021-08-08T12:46:51Z</time>
      </trkpt>
      <trkpt lat="48.98886" lon="0.02785">
        <ele>57.64</ele>
        <time>2021-08-08T12:46:52Z</time>
      </trkpt>
      <trkpt lat="48.98891" lon="0.02781">
        <ele>57.82</ele>
        <time>2021-08-08T12:46:53Z</time>
      </trkpt>
      <trkpt lat="48.98895" lon="0.02775">
        <ele>58.05</ele>
        <time>2021-08-08T12:46:54Z</time>
      </trkpt>
      <trkpt lat="48.98899" lon="0.02771">
        <ele>58.3</ele>
        <time>2021-08-08T12:46:55Z</time>
      </trkpt>
      <trkpt lat="48.98904" lon="0.02766">
        <ele>58.52</ele>
        <time>2021-08-08T12:46:56Z</time>
      </trkpt>
      <trkpt lat="48.98909" lon="0.02762">
        <ele>58.67</ele>
        <time>2021-08-08T12:46:57Z</time>
      </trkpt>
      <trkpt lat="48.98914" lon="0.02758">
        <ele>58.76</ele>
        <time>2021-08-08T12:46:58Z</time>
      </trkpt>
      <trkpt lat="48.98919" lon="0.02755">
        <ele>58.8</ele>
        <time>2021-08-08T12:46:59Z</time>
      </trkpt>
      <trkpt lat="48.98925" lon="0.02753">
        <ele>58.86</ele>
        <time>2021-08-08T12:47:00Z</time>
      </trkpt>
      <trkpt lat="48.98932" lon="0.02753">
        <ele>58.88</ele>
        <time>2021-08-08T12:47:01Z</time>
      </trkpt>
      <trkpt lat="48.98939" lon="0.02753">
        <ele>58.88</ele>
        <time>2021-08-08T12:47:02Z</time>
      </trkpt>
      <trkpt lat="48.98945" lon="0.02754">
        <ele>58.86</ele>
        <time>2021-08-08T12:47:03Z</time>
      </trkpt>
      <trkpt lat="48.98951" lon="0.02756">
        <ele>58.85</ele>
        <time>2021-08-08T12:47:04Z</time>
      </trkpt>
      <trkpt lat="48.98957" lon="0.02757">
        <ele>58.86</ele>
        <time>2021-08-08T12:47:05Z</time>
      </trkpt>
      <trkpt lat="48.98963" lon="0.02758">
        <ele>58.89</ele>
        <time>2021-08-08T12:47:06Z</time>
      </trkpt>
      <trkpt lat="48.9897" lon="0.02759">
        <ele>58.95</ele>
        <time>2021-08-08T12:47:07Z</time>
      </trkpt>
      <trkpt lat="48.98976" lon="0.02761">
        <ele>58.95</ele>
        <time>2021-08-08T12:47:08Z</time>
      </trkpt>
      <trkpt lat="48.98981" lon="0.02763">
        <ele>58.88</ele>
        <time>2021-08-08T12:47:09Z</time>
      </trkpt>
      <trkpt lat="48.98987" lon="0.02764">
        <ele>58.77</ele>
        <time>2021-08-08T12:47:10Z</time>
      </trkpt>
      <trkpt lat="48.98993" lon="0.02766">
        <ele>58.62</ele>
        <time>2021-08-08T12:47:11Z</time>
      </trkpt>
      <trkpt lat="48.99" lon="0.02768">
        <ele>58.45</ele>
        <time>2021-08-08T12:47:12Z</time>
      </trkpt>
      <trkpt lat="48.99006" lon="0.02769">
        <ele>58.35</ele>
        <time>2021-08-08T12:47:13Z</time>
      </trkpt>
      <trkpt lat="48.99013" lon="0.02771">
        <ele>58.28</ele>
        <time>2021-08-08T12:47:14Z</time>
      </trkpt>
      <trkpt lat="48.9902" lon="0.02773">
        <ele>58.21</ele>
        <time>2021-08-08T12:47:15Z</time>
      </trkpt>
      <trkpt lat="48.99027" lon="0.02774">
        <ele>58.15</ele>
        <time>2021-08-08T12:47:16Z</time>
      </trkpt>
      <trkpt lat="48.99034" lon="0.02776">
        <ele>58.1</ele>
        <time>2021-08-08T12:47:17Z</time>
      </trkpt>
      <trkpt lat="48.99041" lon="0.02777">
        <ele>58.04</ele>
        <time>2021-08-08T12:47:18Z</time>
      </trkpt>
      <trkpt lat="48.99048" lon="0.02779">
        <ele>58</ele>
        <time>2021-08-08T12:47:19Z</time>
      </trkpt>
      <trkpt lat="48.99056" lon="0.0278">
        <ele>57.93</ele>
        <time>2021-08-08T12:47:20Z</time>
      </trkpt>
      <trkpt lat="48.99063" lon="0.02782">
        <ele>57.71</ele>
        <time>2021-08-08T12:47:21Z</time>
      </trkpt>
      <trkpt lat="48.9907" lon="0.02784">
        <ele>57.47</ele>
        <time>2021-08-08T12:47:22Z</time>
      </trkpt>
      <trkpt lat="48.99077" lon="0.02786">
        <ele>57.25</ele>
        <time>2021-08-08T12:47:23Z</time>
      </trkpt>
      <trkpt lat="48.99084" lon="0.02788">
        <ele>57.06</ele>
        <time>2021-08-08T12:47:24Z</time>
      </trkpt>
      <trkpt lat="48.99092" lon="0.0279">
        <ele>56.93</ele>
        <time>2021-08-08T12:47:25Z</time>
      </trkpt>
      <trkpt lat="48.99099" lon="0.02792">
        <ele>56.78</ele>
        <time>2021-08-08T12:47:26Z</time>
      </trkpt>
      <trkpt lat="48.99106" lon="0.02794">
        <ele>56.6</ele>
        <time>2021-08-08T12:47:27Z</time>
      </trkpt>
      <trkpt lat="48.99114" lon="0.02796">
        <ele>56.39</ele>
        <time>2021-08-08T12:47:28Z</time>
      </trkpt>
      <trkpt lat="48.99121" lon="0.02799">
        <ele>56.23</ele>
        <time>2021-08-08T12:47:29Z</time>
      </trkpt>
      <trkpt lat="48.99129" lon="0.02802">
        <ele>56.11</ele>
        <time>2021-08-08T12:47:30Z</time>
      </trkpt>
      <trkpt lat="48.99136" lon="0.02804">
        <ele>56.03</ele>
        <time>2021-08-08T12:47:31Z</time>
      </trkpt>
      <trkpt lat="48.99144" lon="0.02807">
        <ele>55.85</ele>
        <time>2021-08-08T12:47:32Z</time>
      </trkpt>
      <trkpt lat="48.99152" lon="0.02809">
        <ele>55.53</ele>
        <time>2021-08-08T12:47:33Z</time>
      </trkpt>
      <trkpt lat="48.9916" lon="0.02812">
        <ele>55.17</ele>
        <time>2021-08-08T12:47:34Z</time>
      </trkpt>
      <trkpt lat="48.99168" lon="0.02814">
        <ele>54.83</ele>
        <time>2021-08-08T12:47:35Z</time>
      </trkpt>
      <trkpt lat="48.99177" lon="0.02817">
        <ele>54.66</ele>
        <time>2021-08-08T12:47:36Z</time>
      </trkpt>
      <trkpt lat="48.99185" lon="0.02819">
        <ele>54.56</ele>
        <time>2021-08-08T12:47:37Z</time>
      </trkpt>
      <trkpt lat="48.99194" lon="0.0282">
        <ele>54.51</ele>
        <time>2021-08-08T12:47:38Z</time>
      </trkpt>
      <trkpt lat="48.99202" lon="0.02821">
        <ele>54.28</ele>
        <time>2021-08-08T12:47:39Z</time>
      </trkpt>
      <trkpt lat="48.99211" lon="0.02822">
        <ele>53.96</ele>
        <time>2021-08-08T12:47:40Z</time>
      </trkpt>
      <trkpt lat="48.99219" lon="0.02823">
        <ele>53.62</ele>
        <time>2021-08-08T12:47:41Z</time>
      </trkpt>
      <trkpt lat="48.99228" lon="0.02824">
        <ele>53.37</ele>
        <time>2021-08-08T12:47:42Z</time>
      </trkpt>
      <trkpt lat="48.99237" lon="0.02824">
        <ele>53.22</ele>
        <time>2021-08-08T12:47:43Z</time>
      </trkpt>
      <trkpt lat="48.99245" lon="0.02823">
        <ele>53.11</ele>
        <time>2021-08-08T12:47:44Z</time>
      </trkpt>
      <trkpt lat="48.99253" lon="0.02821">
        <ele>52.99</ele>
        <time>2021-08-08T12:47:45Z</time>
      </trkpt>
      <trkpt lat="48.99262" lon="0.02818">
        <ele>52.86</ele>
        <time>2021-08-08T12:47:46Z</time>
      </trkpt>
      <trkpt lat="48.9927" lon="0.02816">
        <ele>52.77</ele>
        <time>2021-08-08T12:47:47Z</time>
      </trkpt>
      <trkpt lat="48.99277" lon="0.02814">
        <ele>52.73</ele>
        <time>2021-08-08T12:47:48Z</time>
      </trkpt>
      <trkpt lat="48.99284" lon="0.02811">
        <ele>52.66</ele>
        <time>2021-08-08T12:47:49Z</time>
      </trkpt>
      <trkpt lat="48.99292" lon="0.02808">
        <ele>52.52</ele>
        <time>2021-08-08T12:47:50Z</time>
      </trkpt>
      <trkpt lat="48.99299" lon="0.02805">
        <ele>52.33</ele>
        <time>2021-08-08T12:47:51Z</time>
      </trkpt>
      <trkpt lat="48.99306" lon="0.02802">
        <ele>52.19</ele>
        <time>2021-08-08T12:47:52Z</time>
      </trkpt>
      <trkpt lat="48.99314" lon="0.02799">
        <ele>52.17</ele>
        <time>2021-08-08T12:47:53Z</time>
      </trkpt>
      <trkpt lat="48.99321" lon="0.02796">
        <ele>52.16</ele>
        <time>2021-08-08T12:47:54Z</time>
      </trkpt>
      <trkpt lat="48.99329" lon="0.02794">
        <ele>52.1</ele>
        <time>2021-08-08T12:47:55Z</time>
      </trkpt>
      <trkpt lat="48.99336" lon="0.02791">
        <ele>52.03</ele>
        <time>2021-08-08T12:47:56Z</time>
      </trkpt>
      <trkpt lat="48.99343" lon="0.02789">
        <ele>52.01</ele>
        <time>2021-08-08T12:47:57Z</time>
      </trkpt>
      <trkpt lat="48.99349" lon="0.02785">
        <ele>52</ele>
        <time>2021-08-08T12:47:58Z</time>
      </trkpt>
      <trkpt lat="48.99354" lon="0.02782">
        <ele>52</ele>
        <time>2021-08-08T12:47:59Z</time>
      </trkpt>
      <trkpt lat="48.99358" lon="0.02779">
        <ele>52</ele>
        <time>2021-08-08T12:48:00Z</time>
      </trkpt>
      <trkpt lat="48.99359" lon="0.02782">
        <ele>52</ele>
        <time>2021-08-08T12:48:01Z</time>
      </trkpt>
      <trkpt lat="48.99359" lon="0.02785">
        <ele>52</ele>
        <time>2021-08-08T12:48:02Z</time>
      </trkpt>
      <trkpt lat="48.99359" lon="0.02788">
        <ele>52</ele>
        <time>2021-08-08T12:48:03Z</time>
      </trkpt>
      <trkpt lat="48.9936" lon="0.02792">
        <ele>52</ele>
        <time>2021-08-08T12:48:04Z</time>
      </trkpt>
      <trkpt lat="48.9936" lon="0.02797">
        <ele>52</ele>
        <time>2021-08-08T12:48:05Z</time>
      </trkpt>
      <trkpt lat="48.99361" lon="0.02802">
        <ele>52</ele>
        <time>2021-08-08T12:48:06Z</time>
      </trkpt>
      <trkpt lat="48.99361" lon="0.02808">
        <ele>51.93</ele>
        <time>2021-08-08T12:48:07Z</time>
      </trkpt>
      <trkpt lat="48.99361" lon="0.02815">
        <ele>51.73</ele>
        <time>2021-08-08T12:48:08Z</time>
      </trkpt>
      <trkpt lat="48.99362" lon="0.02822">
        <ele>51.49</ele>
        <time>2021-08-08T12:48:09Z</time>
      </trkpt>
      <trkpt lat="48.99362" lon="0.02829">
        <ele>51.24</ele>
        <time>2021-08-08T12:48:10Z</time>
      </trkpt>
      <trkpt lat="48.99363" lon="0.02837">
        <ele>51.07</ele>
        <time>2021-08-08T12:48:11Z</time>
      </trkpt>
      <trkpt lat="48.99365" lon="0.02844">
        <ele>51.02</ele>
        <time>2021-08-08T12:48:12Z</time>
      </trkpt>
      <trkpt lat="48.99365" lon="0.02852">
        <ele>51.01</ele>
        <time>2021-08-08T12:48:13Z</time>
      </trkpt>
      <trkpt lat="48.99366" lon="0.0286">
        <ele>51</ele>
        <time>2021-08-08T12:48:14Z</time>
      </trkpt>
      <trkpt lat="48.99367" lon="0.02868">
        <ele>50.82</ele>
        <time>2021-08-08T12:48:15Z</time>
      </trkpt>
      <trkpt lat="48.99368" lon="0.02877">
        <ele>50.56</ele>
        <time>2021-08-08T12:48:16Z</time>
      </trkpt>
      <trkpt lat="48.9937" lon="0.02884">
        <ele>50.29</ele>
        <time>2021-08-08T12:48:17Z</time>
      </trkpt>
      <trkpt lat="48.99372" lon="0.02892">
        <ele>50.09</ele>
        <time>2021-08-08T12:48:18Z</time>
      </trkpt>
      <trkpt lat="48.99374" lon="0.029">
        <ele>50.03</ele>
        <time>2021-08-08T12:48:19Z</time>
      </trkpt>
      <trkpt lat="48.99376" lon="0.02908">
        <ele>50.01</ele>
        <time>2021-08-08T12:48:20Z</time>
      </trkpt>
      <trkpt lat="48.99379" lon="0.02915">
        <ele>50</ele>
        <time>2021-08-08T12:48:21Z</time>
      </trkpt>
      <trkpt lat="48.99381" lon="0.02922">
        <ele>50</ele>
        <time>2021-08-08T12:48:22Z</time>
      </trkpt>
      <trkpt lat="48.99383" lon="0.02929">
        <ele>50</ele>
        <time>2021-08-08T12:48:23Z</time>
      </trkpt>
      <trkpt lat="48.99385" lon="0.02935">
        <ele>50</ele>
        <time>2021-08-08T12:48:24Z</time>
      </trkpt>
      <trkpt lat="48.99387" lon="0.02941">
        <ele>50</ele>
        <time>2021-08-08T12:48:25Z</time>
      </trkpt>
      <trkpt lat="48.99388" lon="0.02945">
        <ele>50</ele>
        <time>2021-08-08T12:48:26Z</time>
      </trkpt>
      <trkpt lat="48.99388" lon="0.02946">
        <ele>50</ele>
        <time>2021-08-08T12:48:27Z</time>
      </trkpt>
      <trkpt lat="48.99389" lon="0.0295">
        <ele>50</ele>
        <time>2021-08-08T12:48:28Z</time>
      </trkpt>
      <trkpt lat="48.99389" lon="0.02955">
        <ele>50</ele>
        <time>2021-08-08T12:48:29Z</time>
      </trkpt>
      <trkpt lat="48.99389" lon="0.02959">
        <ele>50</ele>
        <time>2021-08-08T12:48:30Z</time>
      </trkpt>
      <trkpt lat="48.99388" lon="0.02964">
        <ele>50</ele>
        <time>2021-08-08T12:48:31Z</time>
      </trkpt>
      <trkpt lat="48.99388" lon="0.0297">
        <ele>50</ele>
        <time>2021-08-08T12:48:32Z</time>
      </trkpt>
      <trkpt lat="48.99389" lon="0.02976">
        <ele>50</ele>
        <time>2021-08-08T12:48:33Z</time>
      </trkpt>
      <trkpt lat="48.9939" lon="0.02982">
        <ele>50</ele>
        <time>2021-08-08T12:48:34Z</time>
      </trkpt>
      <trkpt lat="48.99392" lon="0.0299">
        <ele>50</ele>
        <time>2021-08-08T12:48:35Z</time>
      </trkpt>
      <trkpt lat="48.99394" lon="0.02997">
        <ele>50</ele>
        <time>2021-08-08T12:48:36Z</time>
      </trkpt>
      <trkpt lat="48.99397" lon="0.03004">
        <ele>50.1</ele>
        <time>2021-08-08T12:48:37Z</time>
      </trkpt>
      <trkpt lat="48.99399" lon="0.03009">
        <ele>50.27</ele>
        <time>2021-08-08T12:48:38Z</time>
      </trkpt>
      <trkpt lat="48.99402" lon="0.03016">
        <ele>50.48</ele>
        <time>2021-08-08T12:48:39Z</time>
      </trkpt>
      <trkpt lat="48.99404" lon="0.03025">
        <ele>50.76</ele>
        <time>2021-08-08T12:48:40Z</time>
      </trkpt>
      <trkpt lat="48.99406" lon="0.03032">
        <ele>51.05</ele>
        <time>2021-08-08T12:48:41Z</time>
      </trkpt>
      <trkpt lat="48.99407" lon="0.03039">
        <ele>51.3</ele>
        <time>2021-08-08T12:48:42Z</time>
      </trkpt>
      <trkpt lat="48.99408" lon="0.03046">
        <ele>51.54</ele>
        <time>2021-08-08T12:48:43Z</time>
      </trkpt>
      <trkpt lat="48.99409" lon="0.03052">
        <ele>51.77</ele>
        <time>2021-08-08T12:48:44Z</time>
      </trkpt>
      <trkpt lat="48.9941" lon="0.03058">
        <ele>51.97</ele>
        <time>2021-08-08T12:48:45Z</time>
      </trkpt>
      <trkpt lat="48.99411" lon="0.03064">
        <ele>52.15</ele>
        <time>2021-08-08T12:48:46Z</time>
      </trkpt>
      <trkpt lat="48.99412" lon="0.03069">
        <ele>52.33</ele>
        <time>2021-08-08T12:48:47Z</time>
      </trkpt>
      <trkpt lat="48.99412" lon="0.03075">
        <ele>52.5</ele>
        <time>2021-08-08T12:48:48Z</time>
      </trkpt>
      <trkpt lat="48.99414" lon="0.0308">
        <ele>52.69</ele>
        <time>2021-08-08T12:48:49Z</time>
      </trkpt>
      <trkpt lat="48.99416" lon="0.03084">
        <ele>52.92</ele>
        <time>2021-08-08T12:48:50Z</time>
      </trkpt>
      <trkpt lat="48.99418" lon="0.0309">
        <ele>53.17</ele>
        <time>2021-08-08T12:48:51Z</time>
      </trkpt>
      <trkpt lat="48.9942" lon="0.03095">
        <ele>53.44</ele>
        <time>2021-08-08T12:48:52Z</time>
      </trkpt>
      <trkpt lat="48.99422" lon="0.031">
        <ele>53.69</ele>
        <time>2021-08-08T12:48:53Z</time>
      </trkpt>
      <trkpt lat="48.99425" lon="0.03104">
        <ele>53.95</ele>
        <time>2021-08-08T12:48:54Z</time>
      </trkpt>
      <trkpt lat="48.99427" lon="0.03109">
        <ele>54.19</ele>
        <time>2021-08-08T12:48:55Z</time>
      </trkpt>
      <trkpt lat="48.9943" lon="0.03114">
        <ele>54.45</ele>
        <time>2021-08-08T12:48:56Z</time>
      </trkpt>
      <trkpt lat="48.99431" lon="0.03118">
        <ele>54.67</ele>
        <time>2021-08-08T12:48:57Z</time>
      </trkpt>
      <trkpt lat="48.99433" lon="0.03121">
        <ele>54.88</ele>
        <time>2021-08-08T12:48:58Z</time>
      </trkpt>
      <trkpt lat="48.99436" lon="0.03127">
        <ele>55.15</ele>
        <time>2021-08-08T12:48:59Z</time>
      </trkpt>
      <trkpt lat="48.99439" lon="0.03132">
        <ele>55.42</ele>
        <time>2021-08-08T12:49:00Z</time>
      </trkpt>
      <trkpt lat="48.99441" lon="0.03136">
        <ele>55.68</ele>
        <time>2021-08-08T12:49:01Z</time>
      </trkpt>
      <trkpt lat="48.99444" lon="0.03141">
        <ele>55.89</ele>
        <time>2021-08-08T12:49:02Z</time>
      </trkpt>
      <trkpt lat="48.99446" lon="0.03146">
        <ele>55.93</ele>
        <time>2021-08-08T12:49:03Z</time>
      </trkpt>
      <trkpt lat="48.99449" lon="0.03151">
        <ele>55.92</ele>
        <time>2021-08-08T12:49:04Z</time>
      </trkpt>
      <trkpt lat="48.99451" lon="0.03157">
        <ele>55.92</ele>
        <time>2021-08-08T12:49:05Z</time>
      </trkpt>
      <trkpt lat="48.99453" lon="0.03163">
        <ele>55.94</ele>
        <time>2021-08-08T12:49:06Z</time>
      </trkpt>
      <trkpt lat="48.99455" lon="0.03169">
        <ele>56.03</ele>
        <time>2021-08-08T12:49:07Z</time>
      </trkpt>
      <trkpt lat="48.99457" lon="0.03176">
        <ele>56.13</ele>
        <time>2021-08-08T12:49:08Z</time>
      </trkpt>
      <trkpt lat="48.9946" lon="0.0318">
        <ele>56.2</ele>
        <time>2021-08-08T12:49:09Z</time>
      </trkpt>
      <trkpt lat="48.99462" lon="0.03186">
        <ele>56.25</ele>
        <time>2021-08-08T12:49:10Z</time>
      </trkpt>
      <trkpt lat="48.99464" lon="0.03193">
        <ele>56.28</ele>
        <time>2021-08-08T12:49:11Z</time>
      </trkpt>
      <trkpt lat="48.99465" lon="0.03199">
        <ele>56.38</ele>
        <time>2021-08-08T12:49:12Z</time>
      </trkpt>
      <trkpt lat="48.99467" lon="0.03205">
        <ele>56.52</ele>
        <time>2021-08-08T12:49:13Z</time>
      </trkpt>
      <trkpt lat="48.99468" lon="0.03211">
        <ele>56.68</ele>
        <time>2021-08-08T12:49:14Z</time>
      </trkpt>
      <trkpt lat="48.9947" lon="0.03216">
        <ele>56.82</ele>
        <time>2021-08-08T12:49:15Z</time>
      </trkpt>
      <trkpt lat="48.99471" lon="0.03221">
        <ele>56.96</ele>
        <time>2021-08-08T12:49:16Z</time>
      </trkpt>
      <trkpt lat="48.99472" lon="0.03225">
        <ele>57.07</ele>
        <time>2021-08-08T12:49:17Z</time>
      </trkpt>
      <trkpt lat="48.99473" lon="0.03229">
        <ele>57.19</ele>
        <time>2021-08-08T12:49:18Z</time>
      </trkpt>
      <trkpt lat="48.99474" lon="0.03231">
        <ele>57.29</ele>
        <time>2021-08-08T12:49:19Z</time>
      </trkpt>
      <trkpt lat="48.99474" lon="0.03232">
        <ele>57.33</ele>
        <time>2021-08-08T12:49:20Z</time>
      </trkpt>
      <trkpt lat="48.99474" lon="0.03232">
        <ele>57.35</ele>
        <time>2021-08-08T12:49:21Z</time>
      </trkpt>
      <trkpt lat="48.99474" lon="0.03232">
        <ele>57.36</ele>
        <time>2021-08-08T12:49:22Z</time>
      </trkpt>
      <trkpt lat="48.99474" lon="0.03232">
        <ele>57.36</ele>
        <time>2021-08-08T12:49:23Z</time>
      </trkpt>
      <trkpt lat="48.99474" lon="0.03232">
        <ele>57.36</ele>
        <time>2021-08-08T12:49:24Z</time>
      </trkpt>
      <trkpt lat="48.99474" lon="0.03232">
        <ele>57.36</ele>
        <time>2021-08-08T12:49:25Z</time>
      </trkpt>
      <trkpt lat="48.99474" lon="0.03232">
        <ele>57.36</ele>
        <time>2021-08-08T12:49:26Z</time>
      </trkpt>
      <trkpt lat="48.99474" lon="0.03232">
        <ele>57.36</ele>
        <time>2021-08-08T12:49:27Z</time>
      </trkpt>
      <trkpt lat="48.99474" lon="0.03232">
        <ele>57.36</ele>
        <time>2021-08-08T12:49:28Z</time>
      </trkpt>
      <trkpt lat="48.99474" lon="0.03232">
        <ele>57.36</ele>
        <time>2021-08-08T12:49:29Z</time>
      </trkpt>
      <trkpt lat="48.99477" lon="0.03238">
        <ele>57.51</ele>
        <time>2021-08-08T12:49:30Z</time>
      </trkpt>
      <trkpt lat="48.99477" lon="0.0324">
        <ele>57.6</ele>
        <time>2021-08-08T12:49:31Z</time>
      </trkpt>
      <trkpt lat="48.99477" lon="0.03242">
        <ele>57.68</ele>
        <time>2021-08-08T12:49:32Z</time>
      </trkpt>
      <trkpt lat="48.99479" lon="0.03247">
        <ele>57.82</ele>
        <time>2021-08-08T12:49:33Z</time>
      </trkpt>
      <trkpt lat="48.9948" lon="0.03251">
        <ele>57.98</ele>
        <time>2021-08-08T12:49:34Z</time>
      </trkpt>
      <trkpt lat="48.99481" lon="0.03257">
        <ele>58.17</ele>
        <time>2021-08-08T12:49:35Z</time>
      </trkpt>
      <trkpt lat="48.99482" lon="0.03263">
        <ele>58.37</ele>
        <time>2021-08-08T12:49:36Z</time>
      </trkpt>
      <trkpt lat="48.99483" lon="0.03268">
        <ele>58.55</ele>
        <time>2021-08-08T12:49:37Z</time>
      </trkpt>
      <trkpt lat="48.99483" lon="0.03273">
        <ele>58.75</ele>
        <time>2021-08-08T12:49:38Z</time>
      </trkpt>
      <trkpt lat="48.99484" lon="0.03279">
        <ele>58.96</ele>
        <time>2021-08-08T12:49:39Z</time>
      </trkpt>
      <trkpt lat="48.99485" lon="0.03285">
        <ele>59.18</ele>
        <time>2021-08-08T12:49:40Z</time>
      </trkpt>
      <trkpt lat="48.99486" lon="0.03291">
        <ele>59.4</ele>
        <time>2021-08-08T12:49:41Z</time>
      </trkpt>
      <trkpt lat="48.99486" lon="0.03297">
        <ele>59.6</ele>
        <time>2021-08-08T12:49:42Z</time>
      </trkpt>
      <trkpt lat="48.99486" lon="0.03304">
        <ele>59.84</ele>
        <time>2021-08-08T12:49:43Z</time>
      </trkpt>
      <trkpt lat="48.99486" lon="0.0331">
        <ele>60.1</ele>
        <time>2021-08-08T12:49:44Z</time>
      </trkpt>
      <trkpt lat="48.99486" lon="0.03315">
        <ele>60.39</ele>
        <time>2021-08-08T12:49:45Z</time>
      </trkpt>
      <trkpt lat="48.99486" lon="0.0332">
        <ele>60.68</ele>
        <time>2021-08-08T12:49:46Z</time>
      </trkpt>
      <trkpt lat="48.99486" lon="0.03327">
        <ele>61</ele>
        <time>2021-08-08T12:49:47Z</time>
      </trkpt>
      <trkpt lat="48.99486" lon="0.03333">
        <ele>61.34</ele>
        <time>2021-08-08T12:49:48Z</time>
      </trkpt>
      <trkpt lat="48.99486" lon="0.03339">
        <ele>61.6</ele>
        <time>2021-08-08T12:49:49Z</time>
      </trkpt>
      <trkpt lat="48.99486" lon="0.03345">
        <ele>61.82</ele>
        <time>2021-08-08T12:49:50Z</time>
      </trkpt>
      <trkpt lat="48.99487" lon="0.03351">
        <ele>62.04</ele>
        <time>2021-08-08T12:49:51Z</time>
      </trkpt>
      <trkpt lat="48.99487" lon="0.03357">
        <ele>62.25</ele>
        <time>2021-08-08T12:49:52Z</time>
      </trkpt>
      <trkpt lat="48.99487" lon="0.03362">
        <ele>62.43</ele>
        <time>2021-08-08T12:49:53Z</time>
      </trkpt>
      <trkpt lat="48.99488" lon="0.03367">
        <ele>62.67</ele>
        <time>2021-08-08T12:49:54Z</time>
      </trkpt>
      <trkpt lat="48.99489" lon="0.03372">
        <ele>62.93</ele>
        <time>2021-08-08T12:49:55Z</time>
      </trkpt>
      <trkpt lat="48.9949" lon="0.03377">
        <ele>63.19</ele>
        <time>2021-08-08T12:49:56Z</time>
      </trkpt>
      <trkpt lat="48.99491" lon="0.03382">
        <ele>63.48</ele>
        <time>2021-08-08T12:49:57Z</time>
      </trkpt>
      <trkpt lat="48.99491" lon="0.03386">
        <ele>63.74</ele>
        <time>2021-08-08T12:49:58Z</time>
      </trkpt>
      <trkpt lat="48.99492" lon="0.0339">
        <ele>63.95</ele>
        <time>2021-08-08T12:49:59Z</time>
      </trkpt>
      <trkpt lat="48.99493" lon="0.03392">
        <ele>64.1</ele>
        <time>2021-08-08T12:50:00Z</time>
      </trkpt>
      <trkpt lat="48.99493" lon="0.03396">
        <ele>64.27</ele>
        <time>2021-08-08T12:50:01Z</time>
      </trkpt>
      <trkpt lat="48.99493" lon="0.034">
        <ele>64.44</ele>
        <time>2021-08-08T12:50:02Z</time>
      </trkpt>
      <trkpt lat="48.99493" lon="0.03405">
        <ele>64.63</ele>
        <time>2021-08-08T12:50:03Z</time>
      </trkpt>
      <trkpt lat="48.99493" lon="0.03409">
        <ele>64.8</ele>
        <time>2021-08-08T12:50:04Z</time>
      </trkpt>
      <trkpt lat="48.99494" lon="0.03412">
        <ele>64.97</ele>
        <time>2021-08-08T12:50:05Z</time>
      </trkpt>
      <trkpt lat="48.99494" lon="0.03417">
        <ele>65.14</ele>
        <time>2021-08-08T12:50:06Z</time>
      </trkpt>
      <trkpt lat="48.99494" lon="0.03422">
        <ele>65.43</ele>
        <time>2021-08-08T12:50:07Z</time>
      </trkpt>
      <trkpt lat="48.99494" lon="0.03427">
        <ele>65.8</ele>
        <time>2021-08-08T12:50:08Z</time>
      </trkpt>
      <trkpt lat="48.99494" lon="0.03432">
        <ele>66.17</ele>
        <time>2021-08-08T12:50:09Z</time>
      </trkpt>
      <trkpt lat="48.99494" lon="0.03438">
        <ele>66.56</ele>
        <time>2021-08-08T12:50:10Z</time>
      </trkpt>
      <trkpt lat="48.99495" lon="0.03444">
        <ele>66.97</ele>
        <time>2021-08-08T12:50:11Z</time>
      </trkpt>
      <trkpt lat="48.99495" lon="0.03449">
        <ele>67.25</ele>
        <time>2021-08-08T12:50:12Z</time>
      </trkpt>
      <trkpt lat="48.99496" lon="0.03453">
        <ele>67.45</ele>
        <time>2021-08-08T12:50:13Z</time>
      </trkpt>
      <trkpt lat="48.99495" lon="0.03457">
        <ele>67.65</ele>
        <time>2021-08-08T12:50:14Z</time>
      </trkpt>
      <trkpt lat="48.99495" lon="0.03463">
        <ele>67.86</ele>
        <time>2021-08-08T12:50:15Z</time>
      </trkpt>
      <trkpt lat="48.99495" lon="0.03467">
        <ele>68.04</ele>
        <time>2021-08-08T12:50:16Z</time>
      </trkpt>
      <trkpt lat="48.99496" lon="0.03474">
        <ele>68.28</ele>
        <time>2021-08-08T12:50:17Z</time>
      </trkpt>
      <trkpt lat="48.99497" lon="0.03479">
        <ele>68.59</ele>
        <time>2021-08-08T12:50:18Z</time>
      </trkpt>
      <trkpt lat="48.99497" lon="0.03485">
        <ele>68.95</ele>
        <time>2021-08-08T12:50:19Z</time>
      </trkpt>
      <trkpt lat="48.99498" lon="0.0349">
        <ele>69.29</ele>
        <time>2021-08-08T12:50:20Z</time>
      </trkpt>
      <trkpt lat="48.99499" lon="0.03496">
        <ele>69.65</ele>
        <time>2021-08-08T12:50:21Z</time>
      </trkpt>
      <trkpt lat="48.99499" lon="0.03501">
        <ele>69.94</ele>
        <time>2021-08-08T12:50:22Z</time>
      </trkpt>
      <trkpt lat="48.995" lon="0.03506">
        <ele>70.15</ele>
        <time>2021-08-08T12:50:23Z</time>
      </trkpt>
      <trkpt lat="48.995" lon="0.03511">
        <ele>70.34</ele>
        <time>2021-08-08T12:50:24Z</time>
      </trkpt>
      <trkpt lat="48.995" lon="0.03518">
        <ele>70.53</ele>
        <time>2021-08-08T12:50:25Z</time>
      </trkpt>
      <trkpt lat="48.99501" lon="0.03525">
        <ele>70.75</ele>
        <time>2021-08-08T12:50:26Z</time>
      </trkpt>
      <trkpt lat="48.99502" lon="0.03531">
        <ele>70.99</ele>
        <time>2021-08-08T12:50:27Z</time>
      </trkpt>
      <trkpt lat="48.99503" lon="0.03536">
        <ele>71.28</ele>
        <time>2021-08-08T12:50:28Z</time>
      </trkpt>
      <trkpt lat="48.99503" lon="0.03542">
        <ele>71.63</ele>
        <time>2021-08-08T12:50:29Z</time>
      </trkpt>
      <trkpt lat="48.99502" lon="0.03548">
        <ele>72.08</ele>
        <time>2021-08-08T12:50:30Z</time>
      </trkpt>
      <trkpt lat="48.99502" lon="0.03553">
        <ele>72.49</ele>
        <time>2021-08-08T12:50:31Z</time>
      </trkpt>
      <trkpt lat="48.99503" lon="0.03559">
        <ele>72.77</ele>
        <time>2021-08-08T12:50:32Z</time>
      </trkpt>
      <trkpt lat="48.99503" lon="0.03563">
        <ele>72.96</ele>
        <time>2021-08-08T12:50:33Z</time>
      </trkpt>
      <trkpt lat="48.99503" lon="0.03567">
        <ele>73.12</ele>
        <time>2021-08-08T12:50:34Z</time>
      </trkpt>
      <trkpt lat="48.99502" lon="0.03569">
        <ele>73.27</ele>
        <time>2021-08-08T12:50:35Z</time>
      </trkpt>
      <trkpt lat="48.99501" lon="0.03571">
        <ele>73.39</ele>
        <time>2021-08-08T12:50:36Z</time>
      </trkpt>
      <trkpt lat="48.99501" lon="0.03572">
        <ele>73.5</ele>
        <time>2021-08-08T12:50:37Z</time>
      </trkpt>
      <trkpt lat="48.99499" lon="0.03572">
        <ele>73.63</ele>
        <time>2021-08-08T12:50:38Z</time>
      </trkpt>
      <trkpt lat="48.99497" lon="0.03573">
        <ele>73.81</ele>
        <time>2021-08-08T12:50:39Z</time>
      </trkpt>
      <trkpt lat="48.99495" lon="0.03575">
        <ele>74.06</ele>
        <time>2021-08-08T12:50:40Z</time>
      </trkpt>
      <trkpt lat="48.99493" lon="0.03577">
        <ele>74.39</ele>
        <time>2021-08-08T12:50:41Z</time>
      </trkpt>
      <trkpt lat="48.9949" lon="0.03577">
        <ele>74.69</ele>
        <time>2021-08-08T12:50:42Z</time>
      </trkpt>
      <trkpt lat="48.99487" lon="0.03578">
        <ele>74.98</ele>
        <time>2021-08-08T12:50:43Z</time>
      </trkpt>
      <trkpt lat="48.99485" lon="0.03578">
        <ele>75.24</ele>
        <time>2021-08-08T12:50:44Z</time>
      </trkpt>
      <trkpt lat="48.99482" lon="0.03579">
        <ele>75.53</ele>
        <time>2021-08-08T12:50:45Z</time>
      </trkpt>
      <trkpt lat="48.99479" lon="0.03578">
        <ele>75.8</ele>
        <time>2021-08-08T12:50:46Z</time>
      </trkpt>
      <trkpt lat="48.99477" lon="0.03579">
        <ele>76.1</ele>
        <time>2021-08-08T12:50:47Z</time>
      </trkpt>
      <trkpt lat="48.99474" lon="0.0358">
        <ele>76.44</ele>
        <time>2021-08-08T12:50:48Z</time>
      </trkpt>
      <trkpt lat="48.99471" lon="0.0358">
        <ele>76.7</ele>
        <time>2021-08-08T12:50:49Z</time>
      </trkpt>
      <trkpt lat="48.99469" lon="0.03581">
        <ele>76.88</ele>
        <time>2021-08-08T12:50:50Z</time>
      </trkpt>
      <trkpt lat="48.99466" lon="0.03582">
        <ele>77.04</ele>
        <time>2021-08-08T12:50:51Z</time>
      </trkpt>
      <trkpt lat="48.99464" lon="0.03583">
        <ele>77.19</ele>
        <time>2021-08-08T12:50:52Z</time>
      </trkpt>
      <trkpt lat="48.99461" lon="0.03583">
        <ele>77.34</ele>
        <time>2021-08-08T12:50:53Z</time>
      </trkpt>
      <trkpt lat="48.9946" lon="0.03585">
        <ele>77.49</ele>
        <time>2021-08-08T12:50:54Z</time>
      </trkpt>
      <trkpt lat="48.99457" lon="0.03586">
        <ele>77.64</ele>
        <time>2021-08-08T12:50:55Z</time>
      </trkpt>
      <trkpt lat="48.99455" lon="0.03586">
        <ele>77.79</ele>
        <time>2021-08-08T12:50:56Z</time>
      </trkpt>
      <trkpt lat="48.99453" lon="0.03587">
        <ele>77.93</ele>
        <time>2021-08-08T12:50:57Z</time>
      </trkpt>
      <trkpt lat="48.9945" lon="0.03589">
        <ele>78.1</ele>
        <time>2021-08-08T12:50:58Z</time>
      </trkpt>
      <trkpt lat="48.99448" lon="0.0359">
        <ele>78.28</ele>
        <time>2021-08-08T12:50:59Z</time>
      </trkpt>
      <trkpt lat="48.99445" lon="0.03591">
        <ele>78.43</ele>
        <time>2021-08-08T12:51:00Z</time>
      </trkpt>
      <trkpt lat="48.99443" lon="0.03592">
        <ele>78.58</ele>
        <time>2021-08-08T12:51:01Z</time>
      </trkpt>
      <trkpt lat="48.9944" lon="0.03592">
        <ele>78.7</ele>
        <time>2021-08-08T12:51:02Z</time>
      </trkpt>
      <trkpt lat="48.99438" lon="0.03593">
        <ele>78.8</ele>
        <time>2021-08-08T12:51:03Z</time>
      </trkpt>
      <trkpt lat="48.99435" lon="0.03594">
        <ele>78.93</ele>
        <time>2021-08-08T12:51:04Z</time>
      </trkpt>
      <trkpt lat="48.99433" lon="0.03596">
        <ele>79.08</ele>
        <time>2021-08-08T12:51:05Z</time>
      </trkpt>
      <trkpt lat="48.99431" lon="0.03598">
        <ele>79.23</ele>
        <time>2021-08-08T12:51:06Z</time>
      </trkpt>
      <trkpt lat="48.99429" lon="0.036">
        <ele>79.37</ele>
        <time>2021-08-08T12:51:07Z</time>
      </trkpt>
      <trkpt lat="48.99427" lon="0.03602">
        <ele>79.49</ele>
        <time>2021-08-08T12:51:08Z</time>
      </trkpt>
      <trkpt lat="48.99425" lon="0.03604">
        <ele>79.62</ele>
        <time>2021-08-08T12:51:09Z</time>
      </trkpt>
      <trkpt lat="48.99424" lon="0.03606">
        <ele>79.73</ele>
        <time>2021-08-08T12:51:10Z</time>
      </trkpt>
      <trkpt lat="48.99422" lon="0.03609">
        <ele>79.85</ele>
        <time>2021-08-08T12:51:11Z</time>
      </trkpt>
      <trkpt lat="48.99421" lon="0.03611">
        <ele>79.94</ele>
        <time>2021-08-08T12:51:12Z</time>
      </trkpt>
      <trkpt lat="48.99419" lon="0.03613">
        <ele>80.06</ele>
        <time>2021-08-08T12:51:13Z</time>
      </trkpt>
      <trkpt lat="48.99417" lon="0.03614">
        <ele>80.18</ele>
        <time>2021-08-08T12:51:14Z</time>
      </trkpt>
      <trkpt lat="48.99415" lon="0.03616">
        <ele>80.31</ele>
        <time>2021-08-08T12:51:15Z</time>
      </trkpt>
      <trkpt lat="48.99414" lon="0.03619">
        <ele>80.47</ele>
        <time>2021-08-08T12:51:16Z</time>
      </trkpt>
      <trkpt lat="48.99412" lon="0.03621">
        <ele>80.62</ele>
        <time>2021-08-08T12:51:17Z</time>
      </trkpt>
      <trkpt lat="48.99411" lon="0.03623">
        <ele>80.78</ele>
        <time>2021-08-08T12:51:18Z</time>
      </trkpt>
      <trkpt lat="48.9941" lon="0.03625">
        <ele>80.94</ele>
        <time>2021-08-08T12:51:19Z</time>
      </trkpt>
      <trkpt lat="48.99409" lon="0.03628">
        <ele>81.13</ele>
        <time>2021-08-08T12:51:20Z</time>
      </trkpt>
      <trkpt lat="48.99408" lon="0.03631">
        <ele>81.35</ele>
        <time>2021-08-08T12:51:21Z</time>
      </trkpt>
      <trkpt lat="48.99405" lon="0.03635">
        <ele>81.61</ele>
        <time>2021-08-08T12:51:22Z</time>
      </trkpt>
      <trkpt lat="48.99403" lon="0.03639">
        <ele>81.9</ele>
        <time>2021-08-08T12:51:23Z</time>
      </trkpt>
      <trkpt lat="48.99403" lon="0.03643">
        <ele>82.19</ele>
        <time>2021-08-08T12:51:24Z</time>
      </trkpt>
      <trkpt lat="48.99402" lon="0.03647">
        <ele>82.45</ele>
        <time>2021-08-08T12:51:25Z</time>
      </trkpt>
      <trkpt lat="48.99402" lon="0.0365">
        <ele>82.71</ele>
        <time>2021-08-08T12:51:26Z</time>
      </trkpt>
      <trkpt lat="48.99401" lon="0.03654">
        <ele>82.96</ele>
        <time>2021-08-08T12:51:27Z</time>
      </trkpt>
      <trkpt lat="48.99401" lon="0.03657">
        <ele>83.22</ele>
        <time>2021-08-08T12:51:28Z</time>
      </trkpt>
      <trkpt lat="48.99402" lon="0.0366">
        <ele>83.43</ele>
        <time>2021-08-08T12:51:29Z</time>
      </trkpt>
      <trkpt lat="48.99403" lon="0.03663">
        <ele>83.64</ele>
        <time>2021-08-08T12:51:30Z</time>
      </trkpt>
      <trkpt lat="48.99404" lon="0.03665">
        <ele>83.83</ele>
        <time>2021-08-08T12:51:31Z</time>
      </trkpt>
      <trkpt lat="48.99405" lon="0.03668">
        <ele>84.02</ele>
        <time>2021-08-08T12:51:32Z</time>
      </trkpt>
      <trkpt lat="48.99405" lon="0.03671">
        <ele>84.24</ele>
        <time>2021-08-08T12:51:33Z</time>
      </trkpt>
      <trkpt lat="48.99406" lon="0.03674">
        <ele>84.46</ele>
        <time>2021-08-08T12:51:34Z</time>
      </trkpt>
      <trkpt lat="48.99407" lon="0.03678">
        <ele>84.68</ele>
        <time>2021-08-08T12:51:35Z</time>
      </trkpt>
      <trkpt lat="48.99408" lon="0.0368">
        <ele>84.88</ele>
        <time>2021-08-08T12:51:36Z</time>
      </trkpt>
      <trkpt lat="48.99408" lon="0.03683">
        <ele>85.09</ele>
        <time>2021-08-08T12:51:37Z</time>
      </trkpt>
      <trkpt lat="48.99408" lon="0.03686">
        <ele>85.31</ele>
        <time>2021-08-08T12:51:38Z</time>
      </trkpt>
      <trkpt lat="48.9941" lon="0.03689">
        <ele>85.54</ele>
        <time>2021-08-08T12:51:39Z</time>
      </trkpt>
      <trkpt lat="48.99411" lon="0.03692">
        <ele>85.75</ele>
        <time>2021-08-08T12:51:40Z</time>
      </trkpt>
      <trkpt lat="48.99412" lon="0.03696">
        <ele>85.99</ele>
        <time>2021-08-08T12:51:41Z</time>
      </trkpt>
      <trkpt lat="48.99412" lon="0.03699">
        <ele>86.22</ele>
        <time>2021-08-08T12:51:42Z</time>
      </trkpt>
      <trkpt lat="48.99413" lon="0.03702">
        <ele>86.45</ele>
        <time>2021-08-08T12:51:43Z</time>
      </trkpt>
      <trkpt lat="48.99414" lon="0.03705">
        <ele>86.66</ele>
        <time>2021-08-08T12:51:44Z</time>
      </trkpt>
      <trkpt lat="48.99415" lon="0.03707">
        <ele>86.84</ele>
        <time>2021-08-08T12:51:45Z</time>
      </trkpt>
      <trkpt lat="48.99416" lon="0.0371">
        <ele>87.05</ele>
        <time>2021-08-08T12:51:46Z</time>
      </trkpt>
      <trkpt lat="48.99417" lon="0.03714">
        <ele>87.29</ele>
        <time>2021-08-08T12:51:47Z</time>
      </trkpt>
      <trkpt lat="48.99419" lon="0.03716">
        <ele>87.52</ele>
        <time>2021-08-08T12:51:48Z</time>
      </trkpt>
      <trkpt lat="48.9942" lon="0.03718">
        <ele>87.76</ele>
        <time>2021-08-08T12:51:49Z</time>
      </trkpt>
      <trkpt lat="48.99422" lon="0.03722">
        <ele>88.05</ele>
        <time>2021-08-08T12:51:50Z</time>
      </trkpt>
      <trkpt lat="48.99423" lon="0.03727">
        <ele>88.54</ele>
        <time>2021-08-08T12:51:51Z</time>
      </trkpt>
      <trkpt lat="48.99425" lon="0.03734">
        <ele>89.16</ele>
        <time>2021-08-08T12:51:52Z</time>
      </trkpt>
      <trkpt lat="48.99426" lon="0.03738">
        <ele>89.62</ele>
        <time>2021-08-08T12:51:53Z</time>
      </trkpt>
      <trkpt lat="48.99427" lon="0.03741">
        <ele>89.99</ele>
        <time>2021-08-08T12:51:54Z</time>
      </trkpt>
      <trkpt lat="48.99426" lon="0.03744">
        <ele>90.31</ele>
        <time>2021-08-08T12:51:55Z</time>
      </trkpt>
      <trkpt lat="48.99426" lon="0.03748">
        <ele>90.64</ele>
        <time>2021-08-08T12:51:56Z</time>
      </trkpt>
      <trkpt lat="48.99425" lon="0.03752">
        <ele>90.98</ele>
        <time>2021-08-08T12:51:57Z</time>
      </trkpt>
      <trkpt lat="48.99424" lon="0.03756">
        <ele>91.31</ele>
        <time>2021-08-08T12:51:58Z</time>
      </trkpt>
      <trkpt lat="48.99424" lon="0.03759">
        <ele>91.53</ele>
        <time>2021-08-08T12:51:59Z</time>
      </trkpt>
      <trkpt lat="48.99425" lon="0.03761">
        <ele>91.73</ele>
        <time>2021-08-08T12:52:00Z</time>
      </trkpt>
      <trkpt lat="48.99426" lon="0.03764">
        <ele>91.94</ele>
        <time>2021-08-08T12:52:01Z</time>
      </trkpt>
      <trkpt lat="48.99428" lon="0.03769">
        <ele>92.21</ele>
        <time>2021-08-08T12:52:02Z</time>
      </trkpt>
      <trkpt lat="48.99429" lon="0.03774">
        <ele>92.56</ele>
        <time>2021-08-08T12:52:03Z</time>
      </trkpt>
      <trkpt lat="48.9943" lon="0.03778">
        <ele>92.86</ele>
        <time>2021-08-08T12:52:04Z</time>
      </trkpt>
      <trkpt lat="48.99431" lon="0.03781">
        <ele>93.16</ele>
        <time>2021-08-08T12:52:05Z</time>
      </trkpt>
      <trkpt lat="48.99433" lon="0.03784">
        <ele>93.44</ele>
        <time>2021-08-08T12:52:06Z</time>
      </trkpt>
      <trkpt lat="48.99434" lon="0.03787">
        <ele>93.73</ele>
        <time>2021-08-08T12:52:07Z</time>
      </trkpt>
      <trkpt lat="48.99435" lon="0.03789">
        <ele>93.98</ele>
        <time>2021-08-08T12:52:08Z</time>
      </trkpt>
      <trkpt lat="48.99436" lon="0.03792">
        <ele>94.24</ele>
        <time>2021-08-08T12:52:09Z</time>
      </trkpt>
      <trkpt lat="48.99437" lon="0.03794">
        <ele>94.51</ele>
        <time>2021-08-08T12:52:10Z</time>
      </trkpt>
      <trkpt lat="48.99438" lon="0.03797">
        <ele>94.83</ele>
        <time>2021-08-08T12:52:11Z</time>
      </trkpt>
      <trkpt lat="48.9944" lon="0.038">
        <ele>95.1</ele>
        <time>2021-08-08T12:52:12Z</time>
      </trkpt>
      <trkpt lat="48.9944" lon="0.03802">
        <ele>95.39</ele>
        <time>2021-08-08T12:52:13Z</time>
      </trkpt>
      <trkpt lat="48.9944" lon="0.03804">
        <ele>95.59</ele>
        <time>2021-08-08T12:52:14Z</time>
      </trkpt>
      <trkpt lat="48.9944" lon="0.03806">
        <ele>95.78</ele>
        <time>2021-08-08T12:52:15Z</time>
      </trkpt>
      <trkpt lat="48.9944" lon="0.03808">
        <ele>95.97</ele>
        <time>2021-08-08T12:52:16Z</time>
      </trkpt>
      <trkpt lat="48.9944" lon="0.03812">
        <ele>96.22</ele>
        <time>2021-08-08T12:52:17Z</time>
      </trkpt>
      <trkpt lat="48.9944" lon="0.03815">
        <ele>96.45</ele>
        <time>2021-08-08T12:52:18Z</time>
      </trkpt>
      <trkpt lat="48.99441" lon="0.03817">
        <ele>96.66</ele>
        <time>2021-08-08T12:52:19Z</time>
      </trkpt>
      <trkpt lat="48.99441" lon="0.0382">
        <ele>96.87</ele>
        <time>2021-08-08T12:52:20Z</time>
      </trkpt>
      <trkpt lat="48.99443" lon="0.03823">
        <ele>97.11</ele>
        <time>2021-08-08T12:52:21Z</time>
      </trkpt>
      <trkpt lat="48.99444" lon="0.03826">
        <ele>97.36</ele>
        <time>2021-08-08T12:52:22Z</time>
      </trkpt>
      <trkpt lat="48.99444" lon="0.03831">
        <ele>97.68</ele>
        <time>2021-08-08T12:52:23Z</time>
      </trkpt>
      <trkpt lat="48.99445" lon="0.03834">
        <ele>97.94</ele>
        <time>2021-08-08T12:52:24Z</time>
      </trkpt>
      <trkpt lat="48.99445" lon="0.03838">
        <ele>98.19</ele>
        <time>2021-08-08T12:52:25Z</time>
      </trkpt>
      <trkpt lat="48.99445" lon="0.03841">
        <ele>98.42</ele>
        <time>2021-08-08T12:52:26Z</time>
      </trkpt>
      <trkpt lat="48.99445" lon="0.03843">
        <ele>98.63</ele>
        <time>2021-08-08T12:52:27Z</time>
      </trkpt>
      <trkpt lat="48.99446" lon="0.03846">
        <ele>98.79</ele>
        <time>2021-08-08T12:52:28Z</time>
      </trkpt>
      <trkpt lat="48.99447" lon="0.03849">
        <ele>98.98</ele>
        <time>2021-08-08T12:52:29Z</time>
      </trkpt>
      <trkpt lat="48.99448" lon="0.03852">
        <ele>99.18</ele>
        <time>2021-08-08T12:52:30Z</time>
      </trkpt>
      <trkpt lat="48.99449" lon="0.03854">
        <ele>99.35</ele>
        <time>2021-08-08T12:52:31Z</time>
      </trkpt>
      <trkpt lat="48.9945" lon="0.03856">
        <ele>99.55</ele>
        <time>2021-08-08T12:52:32Z</time>
      </trkpt>
      <trkpt lat="48.99451" lon="0.0386">
        <ele>99.78</ele>
        <time>2021-08-08T12:52:33Z</time>
      </trkpt>
      <trkpt lat="48.99452" lon="0.03862">
        <ele>100.03</ele>
        <time>2021-08-08T12:52:34Z</time>
      </trkpt>
      <trkpt lat="48.99453" lon="0.03866">
        <ele>100.37</ele>
        <time>2021-08-08T12:52:35Z</time>
      </trkpt>
      <trkpt lat="48.99453" lon="0.03869">
        <ele>100.68</ele>
        <time>2021-08-08T12:52:36Z</time>
      </trkpt>
      <trkpt lat="48.99453" lon="0.03873">
        <ele>100.99</ele>
        <time>2021-08-08T12:52:37Z</time>
      </trkpt>
      <trkpt lat="48.99453" lon="0.03875">
        <ele>101.26</ele>
        <time>2021-08-08T12:52:38Z</time>
      </trkpt>
      <trkpt lat="48.99453" lon="0.03878">
        <ele>101.5</ele>
        <time>2021-08-08T12:52:39Z</time>
      </trkpt>
      <trkpt lat="48.99454" lon="0.03881">
        <ele>101.78</ele>
        <time>2021-08-08T12:52:40Z</time>
      </trkpt>
      <trkpt lat="48.99454" lon="0.03884">
        <ele>102.03</ele>
        <time>2021-08-08T12:52:41Z</time>
      </trkpt>
      <trkpt lat="48.99455" lon="0.03887">
        <ele>102.29</ele>
        <time>2021-08-08T12:52:42Z</time>
      </trkpt>
      <trkpt lat="48.99455" lon="0.03889">
        <ele>102.55</ele>
        <time>2021-08-08T12:52:43Z</time>
      </trkpt>
      <trkpt lat="48.99456" lon="0.03894">
        <ele>102.86</ele>
        <time>2021-08-08T12:52:44Z</time>
      </trkpt>
      <trkpt lat="48.99456" lon="0.03898">
        <ele>103.19</ele>
        <time>2021-08-08T12:52:45Z</time>
      </trkpt>
      <trkpt lat="48.99457" lon="0.03901">
        <ele>103.48</ele>
        <time>2021-08-08T12:52:46Z</time>
      </trkpt>
      <trkpt lat="48.99458" lon="0.03904">
        <ele>103.72</ele>
        <time>2021-08-08T12:52:47Z</time>
      </trkpt>
      <trkpt lat="48.99459" lon="0.03906">
        <ele>103.96</ele>
        <time>2021-08-08T12:52:48Z</time>
      </trkpt>
      <trkpt lat="48.9946" lon="0.0391">
        <ele>104.25</ele>
        <time>2021-08-08T12:52:49Z</time>
      </trkpt>
      <trkpt lat="48.99461" lon="0.03912">
        <ele>104.49</ele>
        <time>2021-08-08T12:52:50Z</time>
      </trkpt>
      <trkpt lat="48.99462" lon="0.03916">
        <ele>104.83</ele>
        <time>2021-08-08T12:52:51Z</time>
      </trkpt>
      <trkpt lat="48.99463" lon="0.0392">
        <ele>105.1</ele>
        <time>2021-08-08T12:52:52Z</time>
      </trkpt>
      <trkpt lat="48.99464" lon="0.03922">
        <ele>105.32</ele>
        <time>2021-08-08T12:52:53Z</time>
      </trkpt>
      <trkpt lat="48.99465" lon="0.03925">
        <ele>105.52</ele>
        <time>2021-08-08T12:52:54Z</time>
      </trkpt>
      <trkpt lat="48.99466" lon="0.03927">
        <ele>105.69</ele>
        <time>2021-08-08T12:52:55Z</time>
      </trkpt>
      <trkpt lat="48.99466" lon="0.03929">
        <ele>105.85</ele>
        <time>2021-08-08T12:52:56Z</time>
      </trkpt>
      <trkpt lat="48.99466" lon="0.0393">
        <ele>105.93</ele>
        <time>2021-08-08T12:52:57Z</time>
      </trkpt>
      <trkpt lat="48.99466" lon="0.0393">
        <ele>105.95</ele>
        <time>2021-08-08T12:52:58Z</time>
      </trkpt>
      <trkpt lat="48.99466" lon="0.0393">
        <ele>105.96</ele>
        <time>2021-08-08T12:52:59Z</time>
      </trkpt>
      <trkpt lat="48.99466" lon="0.0393">
        <ele>105.96</ele>
        <time>2021-08-08T12:53:00Z</time>
      </trkpt>
      <trkpt lat="48.99466" lon="0.0393">
        <ele>105.96</ele>
        <time>2021-08-08T12:53:01Z</time>
      </trkpt>
      <trkpt lat="48.99466" lon="0.0393">
        <ele>105.96</ele>
        <time>2021-08-08T12:53:02Z</time>
      </trkpt>
      <trkpt lat="48.99466" lon="0.0393">
        <ele>105.96</ele>
        <time>2021-08-08T12:53:03Z</time>
      </trkpt>
      <trkpt lat="48.99466" lon="0.0393">
        <ele>105.96</ele>
        <time>2021-08-08T12:53:04Z</time>
      </trkpt>
      <trkpt lat="48.99466" lon="0.0393">
        <ele>105.96</ele>
        <time>2021-08-08T12:53:05Z</time>
      </trkpt>
      <trkpt lat="48.99466" lon="0.0393">
        <ele>105.96</ele>
        <time>2021-08-08T12:53:06Z</time>
      </trkpt>
      <trkpt lat="48.99466" lon="0.0393">
        <ele>105.96</ele>
        <time>2021-08-08T12:53:07Z</time>
      </trkpt>
      <trkpt lat="48.99466" lon="0.0393">
        <ele>105.96</ele>
        <time>2021-08-08T12:53:08Z</time>
      </trkpt>
      <trkpt lat="48.99466" lon="0.0393">
        <ele>105.96</ele>
        <time>2021-08-08T12:53:09Z</time>
      </trkpt>
      <trkpt lat="48.99467" lon="0.03944">
        <ele>106.69</ele>
        <time>2021-08-08T12:53:10Z</time>
      </trkpt>
      <trkpt lat="48.99468" lon="0.03946">
        <ele>106.96</ele>
        <time>2021-08-08T12:53:11Z</time>
      </trkpt>
      <trkpt lat="48.99468" lon="0.03947">
        <ele>107.12</ele>
        <time>2021-08-08T12:53:12Z</time>
      </trkpt>
      <trkpt lat="48.99468" lon="0.03949">
        <ele>107.26</ele>
        <time>2021-08-08T12:53:13Z</time>
      </trkpt>
      <trkpt lat="48.99468" lon="0.03949">
        <ele>107.3</ele>
        <time>2021-08-08T12:53:14Z</time>
      </trkpt>
      <trkpt lat="48.99468" lon="0.03955">
        <ele>107.58</ele>
        <time>2021-08-08T12:53:15Z</time>
      </trkpt>
      <trkpt lat="48.99469" lon="0.03958">
        <ele>107.81</ele>
        <time>2021-08-08T12:53:16Z</time>
      </trkpt>
      <trkpt lat="48.99469" lon="0.03961">
        <ele>108.04</ele>
        <time>2021-08-08T12:53:17Z</time>
      </trkpt>
      <trkpt lat="48.9947" lon="0.03965">
        <ele>108.3</ele>
        <time>2021-08-08T12:53:18Z</time>
      </trkpt>
      <trkpt lat="48.9947" lon="0.03968">
        <ele>108.54</ele>
        <time>2021-08-08T12:53:19Z</time>
      </trkpt>
      <trkpt lat="48.9947" lon="0.03972">
        <ele>108.79</ele>
        <time>2021-08-08T12:53:20Z</time>
      </trkpt>
      <trkpt lat="48.99471" lon="0.03975">
        <ele>109.04</ele>
        <time>2021-08-08T12:53:21Z</time>
      </trkpt>
      <trkpt lat="48.99471" lon="0.03979">
        <ele>109.34</ele>
        <time>2021-08-08T12:53:22Z</time>
      </trkpt>
      <trkpt lat="48.99472" lon="0.03983">
        <ele>109.61</ele>
        <time>2021-08-08T12:53:23Z</time>
      </trkpt>
      <trkpt lat="48.99473" lon="0.03986">
        <ele>109.79</ele>
        <time>2021-08-08T12:53:24Z</time>
      </trkpt>
      <trkpt lat="48.99474" lon="0.0399">
        <ele>109.99</ele>
        <time>2021-08-08T12:53:25Z</time>
      </trkpt>
      <trkpt lat="48.99474" lon="0.03993">
        <ele>110.13</ele>
        <time>2021-08-08T12:53:26Z</time>
      </trkpt>
      <trkpt lat="48.99475" lon="0.03996">
        <ele>110.26</ele>
        <time>2021-08-08T12:53:27Z</time>
      </trkpt>
      <trkpt lat="48.99476" lon="0.03998">
        <ele>110.34</ele>
        <time>2021-08-08T12:53:28Z</time>
      </trkpt>
      <trkpt lat="48.99476" lon="0.04001">
        <ele>110.47</ele>
        <time>2021-08-08T12:53:29Z</time>
      </trkpt>
      <trkpt lat="48.99476" lon="0.04005">
        <ele>110.73</ele>
        <time>2021-08-08T12:53:30Z</time>
      </trkpt>
      <trkpt lat="48.99476" lon="0.04008">
        <ele>110.95</ele>
        <time>2021-08-08T12:53:31Z</time>
      </trkpt>
      <trkpt lat="48.99476" lon="0.04011">
        <ele>111.14</ele>
        <time>2021-08-08T12:53:32Z</time>
      </trkpt>
      <trkpt lat="48.99475" lon="0.04014">
        <ele>111.41</ele>
        <time>2021-08-08T12:53:33Z</time>
      </trkpt>
      <trkpt lat="48.99475" lon="0.04018">
        <ele>111.71</ele>
        <time>2021-08-08T12:53:34Z</time>
      </trkpt>
      <trkpt lat="48.99474" lon="0.04021">
        <ele>112.04</ele>
        <time>2021-08-08T12:53:35Z</time>
      </trkpt>
      <trkpt lat="48.99474" lon="0.04024">
        <ele>112.34</ele>
        <time>2021-08-08T12:53:36Z</time>
      </trkpt>
      <trkpt lat="48.99473" lon="0.04027">
        <ele>112.66</ele>
        <time>2021-08-08T12:53:37Z</time>
      </trkpt>
      <trkpt lat="48.99473" lon="0.0403">
        <ele>112.97</ele>
        <time>2021-08-08T12:53:38Z</time>
      </trkpt>
      <trkpt lat="48.99471" lon="0.04033">
        <ele>113.24</ele>
        <time>2021-08-08T12:53:39Z</time>
      </trkpt>
      <trkpt lat="48.99471" lon="0.04035">
        <ele>113.4</ele>
        <time>2021-08-08T12:53:40Z</time>
      </trkpt>
      <trkpt lat="48.9947" lon="0.04038">
        <ele>113.59</ele>
        <time>2021-08-08T12:53:41Z</time>
      </trkpt>
      <trkpt lat="48.9947" lon="0.04041">
        <ele>113.8</ele>
        <time>2021-08-08T12:53:42Z</time>
      </trkpt>
      <trkpt lat="48.99469" lon="0.04044">
        <ele>114</ele>
        <time>2021-08-08T12:53:43Z</time>
      </trkpt>
      <trkpt lat="48.99469" lon="0.04048">
        <ele>114.24</ele>
        <time>2021-08-08T12:53:44Z</time>
      </trkpt>
      <trkpt lat="48.99469" lon="0.04052">
        <ele>114.52</ele>
        <time>2021-08-08T12:53:45Z</time>
      </trkpt>
      <trkpt lat="48.99468" lon="0.04055">
        <ele>114.73</ele>
        <time>2021-08-08T12:53:46Z</time>
      </trkpt>
      <trkpt lat="48.99468" lon="0.04058">
        <ele>114.9</ele>
        <time>2021-08-08T12:53:47Z</time>
      </trkpt>
      <trkpt lat="48.99468" lon="0.04061">
        <ele>115.04</ele>
        <time>2021-08-08T12:53:48Z</time>
      </trkpt>
      <trkpt lat="48.99468" lon="0.04064">
        <ele>115.18</ele>
        <time>2021-08-08T12:53:49Z</time>
      </trkpt>
      <trkpt lat="48.99468" lon="0.04067">
        <ele>115.32</ele>
        <time>2021-08-08T12:53:50Z</time>
      </trkpt>
      <trkpt lat="48.99467" lon="0.04072">
        <ele>115.52</ele>
        <time>2021-08-08T12:53:51Z</time>
      </trkpt>
      <trkpt lat="48.99467" lon="0.04076">
        <ele>115.73</ele>
        <time>2021-08-08T12:53:52Z</time>
      </trkpt>
      <trkpt lat="48.99466" lon="0.04079">
        <ele>115.94</ele>
        <time>2021-08-08T12:53:53Z</time>
      </trkpt>
      <trkpt lat="48.99465" lon="0.04083">
        <ele>116.16</ele>
        <time>2021-08-08T12:53:54Z</time>
      </trkpt>
      <trkpt lat="48.99464" lon="0.04086">
        <ele>116.37</ele>
        <time>2021-08-08T12:53:55Z</time>
      </trkpt>
      <trkpt lat="48.99464" lon="0.04088">
        <ele>116.55</ele>
        <time>2021-08-08T12:53:56Z</time>
      </trkpt>
      <trkpt lat="48.99463" lon="0.04091">
        <ele>116.78</ele>
        <time>2021-08-08T12:53:57Z</time>
      </trkpt>
      <trkpt lat="48.99462" lon="0.04094">
        <ele>117.03</ele>
        <time>2021-08-08T12:53:58Z</time>
      </trkpt>
      <trkpt lat="48.99461" lon="0.04097">
        <ele>117.29</ele>
        <time>2021-08-08T12:53:59Z</time>
      </trkpt>
      <trkpt lat="48.9946" lon="0.041">
        <ele>117.53</ele>
        <time>2021-08-08T12:54:00Z</time>
      </trkpt>
      <trkpt lat="48.99458" lon="0.04102">
        <ele>117.78</ele>
        <time>2021-08-08T12:54:01Z</time>
      </trkpt>
      <trkpt lat="48.99457" lon="0.04106">
        <ele>118.05</ele>
        <time>2021-08-08T12:54:02Z</time>
      </trkpt>
      <trkpt lat="48.99456" lon="0.04109">
        <ele>118.32</ele>
        <time>2021-08-08T12:54:03Z</time>
      </trkpt>
      <trkpt lat="48.99455" lon="0.04112">
        <ele>118.63</ele>
        <time>2021-08-08T12:54:04Z</time>
      </trkpt>
      <trkpt lat="48.99455" lon="0.04115">
        <ele>118.92</ele>
        <time>2021-08-08T12:54:05Z</time>
      </trkpt>
      <trkpt lat="48.99454" lon="0.04118">
        <ele>119.24</ele>
        <time>2021-08-08T12:54:06Z</time>
      </trkpt>
      <trkpt lat="48.99453" lon="0.04121">
        <ele>119.57</ele>
        <time>2021-08-08T12:54:07Z</time>
      </trkpt>
      <trkpt lat="48.99453" lon="0.04124">
        <ele>119.93</ele>
        <time>2021-08-08T12:54:08Z</time>
      </trkpt>
      <trkpt lat="48.99453" lon="0.04127">
        <ele>120.29</ele>
        <time>2021-08-08T12:54:09Z</time>
      </trkpt>
      <trkpt lat="48.99453" lon="0.0413">
        <ele>120.57</ele>
        <time>2021-08-08T12:54:10Z</time>
      </trkpt>
      <trkpt lat="48.99452" lon="0.04131">
        <ele>120.8</ele>
        <time>2021-08-08T12:54:11Z</time>
      </trkpt>
      <trkpt lat="48.99452" lon="0.04134">
        <ele>121.05</ele>
        <time>2021-08-08T12:54:12Z</time>
      </trkpt>
      <trkpt lat="48.99452" lon="0.04137">
        <ele>121.34</ele>
        <time>2021-08-08T12:54:13Z</time>
      </trkpt>
      <trkpt lat="48.99452" lon="0.04139">
        <ele>121.65</ele>
        <time>2021-08-08T12:54:14Z</time>
      </trkpt>
      <trkpt lat="48.99452" lon="0.04143">
        <ele>122</ele>
        <time>2021-08-08T12:54:15Z</time>
      </trkpt>
      <trkpt lat="48.99452" lon="0.04146">
        <ele>122.38</ele>
        <time>2021-08-08T12:54:16Z</time>
      </trkpt>
      <trkpt lat="48.99452" lon="0.0415">
        <ele>122.79</ele>
        <time>2021-08-08T12:54:17Z</time>
      </trkpt>
      <trkpt lat="48.99451" lon="0.04154">
        <ele>123.18</ele>
        <time>2021-08-08T12:54:18Z</time>
      </trkpt>
      <trkpt lat="48.99451" lon="0.04157">
        <ele>123.53</ele>
        <time>2021-08-08T12:54:19Z</time>
      </trkpt>
      <trkpt lat="48.99452" lon="0.04159">
        <ele>123.81</ele>
        <time>2021-08-08T12:54:20Z</time>
      </trkpt>
      <trkpt lat="48.99452" lon="0.04162">
        <ele>124.08</ele>
        <time>2021-08-08T12:54:21Z</time>
      </trkpt>
      <trkpt lat="48.99452" lon="0.04164">
        <ele>124.36</ele>
        <time>2021-08-08T12:54:22Z</time>
      </trkpt>
      <trkpt lat="48.99451" lon="0.04166">
        <ele>124.58</ele>
        <time>2021-08-08T12:54:23Z</time>
      </trkpt>
      <trkpt lat="48.99451" lon="0.04167">
        <ele>124.77</ele>
        <time>2021-08-08T12:54:24Z</time>
      </trkpt>
      <trkpt lat="48.99451" lon="0.0417">
        <ele>124.99</ele>
        <time>2021-08-08T12:54:25Z</time>
      </trkpt>
      <trkpt lat="48.99452" lon="0.04172">
        <ele>125.19</ele>
        <time>2021-08-08T12:54:26Z</time>
      </trkpt>
      <trkpt lat="48.99451" lon="0.04174">
        <ele>125.45</ele>
        <time>2021-08-08T12:54:27Z</time>
      </trkpt>
      <trkpt lat="48.99451" lon="0.04177">
        <ele>125.75</ele>
        <time>2021-08-08T12:54:28Z</time>
      </trkpt>
      <trkpt lat="48.9945" lon="0.04179">
        <ele>126</ele>
        <time>2021-08-08T12:54:29Z</time>
      </trkpt>
      <trkpt lat="48.99449" lon="0.04181">
        <ele>126.26</ele>
        <time>2021-08-08T12:54:30Z</time>
      </trkpt>
      <trkpt lat="48.99448" lon="0.04183">
        <ele>126.48</ele>
        <time>2021-08-08T12:54:31Z</time>
      </trkpt>
      <trkpt lat="48.99447" lon="0.04184">
        <ele>126.67</ele>
        <time>2021-08-08T12:54:32Z</time>
      </trkpt>
      <trkpt lat="48.99446" lon="0.04186">
        <ele>126.89</ele>
        <time>2021-08-08T12:54:33Z</time>
      </trkpt>
      <trkpt lat="48.99446" lon="0.04187">
        <ele>127.11</ele>
        <time>2021-08-08T12:54:34Z</time>
      </trkpt>
      <trkpt lat="48.99445" lon="0.0419">
        <ele>127.37</ele>
        <time>2021-08-08T12:54:35Z</time>
      </trkpt>
      <trkpt lat="48.99446" lon="0.04193">
        <ele>127.65</ele>
        <time>2021-08-08T12:54:36Z</time>
      </trkpt>
      <trkpt lat="48.99446" lon="0.04196">
        <ele>127.96</ele>
        <time>2021-08-08T12:54:37Z</time>
      </trkpt>
      <trkpt lat="48.99446" lon="0.04197">
        <ele>128.25</ele>
        <time>2021-08-08T12:54:38Z</time>
      </trkpt>
      <trkpt lat="48.99445" lon="0.04199">
        <ele>128.54</ele>
        <time>2021-08-08T12:54:39Z</time>
      </trkpt>
      <trkpt lat="48.99446" lon="0.042">
        <ele>128.67</ele>
        <time>2021-08-08T12:54:40Z</time>
      </trkpt>
      <trkpt lat="48.99446" lon="0.042">
        <ele>128.71</ele>
        <time>2021-08-08T12:54:41Z</time>
      </trkpt>
      <trkpt lat="48.99446" lon="0.042">
        <ele>128.72</ele>
        <time>2021-08-08T12:54:42Z</time>
      </trkpt>
      <trkpt lat="48.99446" lon="0.042">
        <ele>128.72</ele>
        <time>2021-08-08T12:54:43Z</time>
      </trkpt>
      <trkpt lat="48.99446" lon="0.042">
        <ele>128.72</ele>
        <time>2021-08-08T12:54:44Z</time>
      </trkpt>
      <trkpt lat="48.99446" lon="0.042">
        <ele>128.72</ele>
        <time>2021-08-08T12:54:45Z</time>
      </trkpt>
      <trkpt lat="48.99446" lon="0.042">
        <ele>128.72</ele>
        <time>2021-08-08T12:54:46Z</time>
      </trkpt>
      <trkpt lat="48.99446" lon="0.042">
        <ele>128.72</ele>
        <time>2021-08-08T12:54:47Z</time>
      </trkpt>
      <trkpt lat="48.99446" lon="0.042">
        <ele>128.72</ele>
        <time>2021-08-08T12:54:48Z</time>
      </trkpt>
      <trkpt lat="48.99441" lon="0.04212">
        <ele>130.1</ele>
        <time>2021-08-08T12:54:49Z</time>
      </trkpt>
      <trkpt lat="48.9944" lon="0.04214">
        <ele>130.77</ele>
        <time>2021-08-08T12:54:50Z</time>
      </trkpt>
      <trkpt lat="48.99439" lon="0.04217">
        <ele>131.23</ele>
        <time>2021-08-08T12:54:51Z</time>
      </trkpt>
      <trkpt lat="48.99438" lon="0.04219">
        <ele>131.62</ele>
        <time>2021-08-08T12:54:52Z</time>
      </trkpt>
      <trkpt lat="48.99437" lon="0.04221">
        <ele>131.98</ele>
        <time>2021-08-08T12:54:53Z</time>
      </trkpt>
      <trkpt lat="48.99436" lon="0.04224">
        <ele>132.36</ele>
        <time>2021-08-08T12:54:54Z</time>
      </trkpt>
      <trkpt lat="48.99436" lon="0.04227">
        <ele>132.65</ele>
        <time>2021-08-08T12:54:55Z</time>
      </trkpt>
      <trkpt lat="48.99434" lon="0.04229">
        <ele>132.98</ele>
        <time>2021-08-08T12:54:56Z</time>
      </trkpt>
      <trkpt lat="48.99434" lon="0.04231">
        <ele>133.3</ele>
        <time>2021-08-08T12:54:57Z</time>
      </trkpt>
      <trkpt lat="48.99432" lon="0.04233">
        <ele>133.58</ele>
        <time>2021-08-08T12:54:58Z</time>
      </trkpt>
      <trkpt lat="48.99431" lon="0.04234">
        <ele>133.87</ele>
        <time>2021-08-08T12:54:59Z</time>
      </trkpt>
      <trkpt lat="48.9943" lon="0.04235">
        <ele>134.12</ele>
        <time>2021-08-08T12:55:00Z</time>
      </trkpt>
      <trkpt lat="48.99428" lon="0.04237">
        <ele>134.43</ele>
        <time>2021-08-08T12:55:01Z</time>
      </trkpt>
      <trkpt lat="48.99427" lon="0.04238">
        <ele>134.75</ele>
        <time>2021-08-08T12:55:02Z</time>
      </trkpt>
      <trkpt lat="48.99426" lon="0.04239">
        <ele>135</ele>
        <time>2021-08-08T12:55:03Z</time>
      </trkpt>
      <trkpt lat="48.99425" lon="0.0424">
        <ele>135.2</ele>
        <time>2021-08-08T12:55:04Z</time>
      </trkpt>
      <trkpt lat="48.99425" lon="0.04242">
        <ele>135.5</ele>
        <time>2021-08-08T12:55:05Z</time>
      </trkpt>
      <trkpt lat="48.99425" lon="0.04246">
        <ele>136.05</ele>
        <time>2021-08-08T12:55:06Z</time>
      </trkpt>
      <trkpt lat="48.99424" lon="0.0425">
        <ele>136.61</ele>
        <time>2021-08-08T12:55:07Z</time>
      </trkpt>
      <trkpt lat="48.99425" lon="0.04254">
        <ele>137.13</ele>
        <time>2021-08-08T12:55:08Z</time>
      </trkpt>
      <trkpt lat="48.99425" lon="0.04257">
        <ele>137.58</ele>
        <time>2021-08-08T12:55:09Z</time>
      </trkpt>
      <trkpt lat="48.99425" lon="0.04259">
        <ele>137.86</ele>
        <time>2021-08-08T12:55:10Z</time>
      </trkpt>
      <trkpt lat="48.99424" lon="0.0426">
        <ele>138.14</ele>
        <time>2021-08-08T12:55:11Z</time>
      </trkpt>
      <trkpt lat="48.99423" lon="0.04261">
        <ele>138.4</ele>
        <time>2021-08-08T12:55:12Z</time>
      </trkpt>
      <trkpt lat="48.99423" lon="0.04261">
        <ele>138.48</ele>
        <time>2021-08-08T12:55:13Z</time>
      </trkpt>
      <trkpt lat="48.99423" lon="0.04261">
        <ele>138.5</ele>
        <time>2021-08-08T12:55:14Z</time>
      </trkpt>
      <trkpt lat="48.99423" lon="0.04261">
        <ele>138.51</ele>
        <time>2021-08-08T12:55:15Z</time>
      </trkpt>
      <trkpt lat="48.99423" lon="0.04261">
        <ele>138.51</ele>
        <time>2021-08-08T12:55:16Z</time>
      </trkpt>
      <trkpt lat="48.99423" lon="0.04261">
        <ele>138.51</ele>
        <time>2021-08-08T12:55:17Z</time>
      </trkpt>
      <trkpt lat="48.99423" lon="0.04261">
        <ele>138.51</ele>
        <time>2021-08-08T12:55:18Z</time>
      </trkpt>
      <trkpt lat="48.99423" lon="0.04261">
        <ele>138.51</ele>
        <time>2021-08-08T12:55:19Z</time>
      </trkpt>
      <trkpt lat="48.99423" lon="0.04261">
        <ele>138.51</ele>
        <time>2021-08-08T12:55:20Z</time>
      </trkpt>
      <trkpt lat="48.99423" lon="0.04261">
        <ele>138.51</ele>
        <time>2021-08-08T12:55:21Z</time>
      </trkpt>
      <trkpt lat="48.99423" lon="0.04261">
        <ele>138.51</ele>
        <time>2021-08-08T12:55:22Z</time>
      </trkpt>
      <trkpt lat="48.99423" lon="0.04261">
        <ele>138.51</ele>
        <time>2021-08-08T12:55:23Z</time>
      </trkpt>
      <trkpt lat="48.99423" lon="0.04261">
        <ele>138.51</ele>
        <time>2021-08-08T12:55:24Z</time>
      </trkpt>
      <trkpt lat="48.99423" lon="0.04261">
        <ele>138.51</ele>
        <time>2021-08-08T12:55:25Z</time>
      </trkpt>
      <trkpt lat="48.99423" lon="0.04261">
        <ele>138.51</ele>
        <time>2021-08-08T12:55:26Z</time>
      </trkpt>
      <trkpt lat="48.99423" lon="0.04261">
        <ele>138.51</ele>
        <time>2021-08-08T12:55:27Z</time>
      </trkpt>
      <trkpt lat="48.99423" lon="0.04261">
        <ele>138.51</ele>
        <time>2021-08-08T12:55:28Z</time>
      </trkpt>
      <trkpt lat="48.99423" lon="0.04261">
        <ele>138.51</ele>
        <time>2021-08-08T12:55:29Z</time>
      </trkpt>
      <trkpt lat="48.99423" lon="0.04261">
        <ele>138.51</ele>
        <time>2021-08-08T12:55:30Z</time>
      </trkpt>
      <trkpt lat="48.99423" lon="0.04261">
        <ele>138.51</ele>
        <time>2021-08-08T12:55:31Z</time>
      </trkpt>
      <trkpt lat="48.99423" lon="0.04261">
        <ele>138.51</ele>
        <time>2021-08-08T12:55:32Z</time>
      </trkpt>
      <trkpt lat="48.99423" lon="0.04261">
        <ele>138.51</ele>
        <time>2021-08-08T12:55:33Z</time>
      </trkpt>
      <trkpt lat="48.99425" lon="0.04274">
        <ele>139.55</ele>
        <time>2021-08-08T12:55:34Z</time>
      </trkpt>
      <trkpt lat="48.99426" lon="0.04275">
        <ele>139.81</ele>
        <time>2021-08-08T12:55:35Z</time>
      </trkpt>
      <trkpt lat="48.99427" lon="0.04274">
        <ele>139.71</ele>
        <time>2021-08-08T12:55:36Z</time>
      </trkpt>
      <trkpt lat="48.99422" lon="0.04269">
        <ele>139.77</ele>
        <time>2021-08-08T12:55:37Z</time>
      </trkpt>
      <trkpt lat="48.99423" lon="0.0427">
        <ele>139.78</ele>
        <time>2021-08-08T12:55:38Z</time>
      </trkpt>
      <trkpt lat="48.99423" lon="0.0427">
        <ele>139.79</ele>
        <time>2021-08-08T12:55:39Z</time>
      </trkpt>
      <trkpt lat="48.99423" lon="0.0427">
        <ele>139.79</ele>
        <time>2021-08-08T12:55:40Z</time>
      </trkpt>
      <trkpt lat="48.99423" lon="0.0427">
        <ele>139.79</ele>
        <time>2021-08-08T12:55:41Z</time>
      </trkpt>
      <trkpt lat="48.99423" lon="0.0427">
        <ele>139.79</ele>
        <time>2021-08-08T12:55:42Z</time>
      </trkpt>
      <trkpt lat="48.99423" lon="0.0427">
        <ele>139.79</ele>
        <time>2021-08-08T12:55:43Z</time>
      </trkpt>
      <trkpt lat="48.99423" lon="0.0427">
        <ele>139.79</ele>
        <time>2021-08-08T12:55:44Z</time>
      </trkpt>
      <trkpt lat="48.99423" lon="0.0427">
        <ele>139.79</ele>
        <time>2021-08-08T12:55:45Z</time>
      </trkpt>
      <trkpt lat="48.99426" lon="0.04281">
        <ele>140.41</ele>
        <time>2021-08-08T12:55:46Z</time>
      </trkpt>
      <trkpt lat="48.99428" lon="0.04285">
        <ele>140.77</ele>
        <time>2021-08-08T12:55:47Z</time>
      </trkpt>
      <trkpt lat="48.99428" lon="0.04288">
        <ele>141.04</ele>
        <time>2021-08-08T12:55:48Z</time>
      </trkpt>
      <trkpt lat="48.9943" lon="0.04291">
        <ele>141.26</ele>
        <time>2021-08-08T12:55:49Z</time>
      </trkpt>
      <trkpt lat="48.99431" lon="0.04294">
        <ele>141.45</ele>
        <time>2021-08-08T12:55:50Z</time>
      </trkpt>
      <trkpt lat="48.99431" lon="0.04296">
        <ele>141.6</ele>
        <time>2021-08-08T12:55:51Z</time>
      </trkpt>
      <trkpt lat="48.99432" lon="0.04299">
        <ele>141.73</ele>
        <time>2021-08-08T12:55:52Z</time>
      </trkpt>
      <trkpt lat="48.99432" lon="0.04301">
        <ele>141.91</ele>
        <time>2021-08-08T12:55:53Z</time>
      </trkpt>
      <trkpt lat="48.99433" lon="0.04302">
        <ele>141.98</ele>
        <time>2021-08-08T12:55:54Z</time>
      </trkpt>
      <trkpt lat="48.99435" lon="0.04306">
        <ele>142.1</ele>
        <time>2021-08-08T12:55:55Z</time>
      </trkpt>
      <trkpt lat="48.99435" lon="0.04308">
        <ele>142.26</ele>
        <time>2021-08-08T12:55:56Z</time>
      </trkpt>
      <trkpt lat="48.99435" lon="0.0431">
        <ele>142.45</ele>
        <time>2021-08-08T12:55:57Z</time>
      </trkpt>
      <trkpt lat="48.99435" lon="0.04311">
        <ele>142.62</ele>
        <time>2021-08-08T12:55:58Z</time>
      </trkpt>
      <trkpt lat="48.99436" lon="0.04313">
        <ele>142.67</ele>
        <time>2021-08-08T12:55:59Z</time>
      </trkpt>
      <trkpt lat="48.99437" lon="0.04316">
        <ele>142.75</ele>
        <time>2021-08-08T12:56:00Z</time>
      </trkpt>
      <trkpt lat="48.99438" lon="0.04318">
        <ele>142.78</ele>
        <time>2021-08-08T12:56:01Z</time>
      </trkpt>
      <trkpt lat="48.99438" lon="0.04319">
        <ele>142.81</ele>
        <time>2021-08-08T12:56:02Z</time>
      </trkpt>
      <trkpt lat="48.99439" lon="0.04319">
        <ele>142.82</ele>
        <time>2021-08-08T12:56:03Z</time>
      </trkpt>
      <trkpt lat="48.99439" lon="0.04321">
        <ele>142.91</ele>
        <time>2021-08-08T12:56:04Z</time>
      </trkpt>
      <trkpt lat="48.99439" lon="0.04322">
        <ele>142.98</ele>
        <time>2021-08-08T12:56:05Z</time>
      </trkpt>
      <trkpt lat="48.99439" lon="0.04322">
        <ele>143.06</ele>
        <time>2021-08-08T12:56:06Z</time>
      </trkpt>
      <trkpt lat="48.99438" lon="0.04323">
        <ele>143.33</ele>
        <time>2021-08-08T12:56:07Z</time>
      </trkpt>
      <trkpt lat="48.99437" lon="0.04326">
        <ele>143.74</ele>
        <time>2021-08-08T12:56:08Z</time>
      </trkpt>
      <trkpt lat="48.99437" lon="0.04329">
        <ele>144.09</ele>
        <time>2021-08-08T12:56:09Z</time>
      </trkpt>
      <trkpt lat="48.99438" lon="0.04331">
        <ele>144.33</ele>
        <time>2021-08-08T12:56:10Z</time>
      </trkpt>
      <trkpt lat="48.99438" lon="0.04333">
        <ele>144.54</ele>
        <time>2021-08-08T12:56:11Z</time>
      </trkpt>
      <trkpt lat="48.99439" lon="0.04335">
        <ele>144.48</ele>
        <time>2021-08-08T12:56:12Z</time>
      </trkpt>
      <trkpt lat="48.9944" lon="0.04337">
        <ele>144.36</ele>
        <time>2021-08-08T12:56:13Z</time>
      </trkpt>
      <trkpt lat="48.9944" lon="0.04338">
        <ele>144.28</ele>
        <time>2021-08-08T12:56:14Z</time>
      </trkpt>
      <trkpt lat="48.99441" lon="0.0434">
        <ele>144.16</ele>
        <time>2021-08-08T12:56:15Z</time>
      </trkpt>
      <trkpt lat="48.99442" lon="0.04342">
        <ele>144.09</ele>
        <time>2021-08-08T12:56:16Z</time>
      </trkpt>
      <trkpt lat="48.99442" lon="0.04344">
        <ele>144.03</ele>
        <time>2021-08-08T12:56:17Z</time>
      </trkpt>
      <trkpt lat="48.99442" lon="0.04347">
        <ele>144.15</ele>
        <time>2021-08-08T12:56:18Z</time>
      </trkpt>
      <trkpt lat="48.99441" lon="0.04349">
        <ele>144.31</ele>
        <time>2021-08-08T12:56:19Z</time>
      </trkpt>
      <trkpt lat="48.99441" lon="0.04351">
        <ele>144.47</ele>
        <time>2021-08-08T12:56:20Z</time>
      </trkpt>
      <trkpt lat="48.99441" lon="0.04353">
        <ele>144.61</ele>
        <time>2021-08-08T12:56:21Z</time>
      </trkpt>
      <trkpt lat="48.99441" lon="0.04355">
        <ele>144.7</ele>
        <time>2021-08-08T12:56:22Z</time>
      </trkpt>
      <trkpt lat="48.99441" lon="0.04357">
        <ele>144.78</ele>
        <time>2021-08-08T12:56:23Z</time>
      </trkpt>
      <trkpt lat="48.99441" lon="0.04359">
        <ele>144.86</ele>
        <time>2021-08-08T12:56:24Z</time>
      </trkpt>
      <trkpt lat="48.99441" lon="0.04362">
        <ele>145.08</ele>
        <time>2021-08-08T12:56:25Z</time>
      </trkpt>
      <trkpt lat="48.99441" lon="0.04364">
        <ele>145.24</ele>
        <time>2021-08-08T12:56:26Z</time>
      </trkpt>
      <trkpt lat="48.9944" lon="0.04367">
        <ele>145.47</ele>
        <time>2021-08-08T12:56:27Z</time>
      </trkpt>
      <trkpt lat="48.9944" lon="0.04368">
        <ele>145.6</ele>
        <time>2021-08-08T12:56:28Z</time>
      </trkpt>
      <trkpt lat="48.9944" lon="0.04369">
        <ele>145.77</ele>
        <time>2021-08-08T12:56:29Z</time>
      </trkpt>
      <trkpt lat="48.9944" lon="0.04371">
        <ele>146</ele>
        <time>2021-08-08T12:56:30Z</time>
      </trkpt>
      <trkpt lat="48.9944" lon="0.04371">
        <ele>146.07</ele>
        <time>2021-08-08T12:56:31Z</time>
      </trkpt>
      <trkpt lat="48.9944" lon="0.04371">
        <ele>146.09</ele>
        <time>2021-08-08T12:56:32Z</time>
      </trkpt>
      <trkpt lat="48.9944" lon="0.04371">
        <ele>146.1</ele>
        <time>2021-08-08T12:56:33Z</time>
      </trkpt>
      <trkpt lat="48.9944" lon="0.04371">
        <ele>146.1</ele>
        <time>2021-08-08T12:56:34Z</time>
      </trkpt>
      <trkpt lat="48.9944" lon="0.04371">
        <ele>146.1</ele>
        <time>2021-08-08T12:56:35Z</time>
      </trkpt>
      <trkpt lat="48.9944" lon="0.04371">
        <ele>146.1</ele>
        <time>2021-08-08T12:56:36Z</time>
      </trkpt>
      <trkpt lat="48.9944" lon="0.04371">
        <ele>146.1</ele>
        <time>2021-08-08T12:56:37Z</time>
      </trkpt>
      <trkpt lat="48.99439" lon="0.04383">
        <ele>146.85</ele>
        <time>2021-08-08T12:56:38Z</time>
      </trkpt>
      <trkpt lat="48.99438" lon="0.04385">
        <ele>147.37</ele>
        <time>2021-08-08T12:56:39Z</time>
      </trkpt>
      <trkpt lat="48.99438" lon="0.04388">
        <ele>147.77</ele>
        <time>2021-08-08T12:56:40Z</time>
      </trkpt>
      <trkpt lat="48.99437" lon="0.04392">
        <ele>148.24</ele>
        <time>2021-08-08T12:56:41Z</time>
      </trkpt>
      <trkpt lat="48.99435" lon="0.04396">
        <ele>148.89</ele>
        <time>2021-08-08T12:56:42Z</time>
      </trkpt>
      <trkpt lat="48.99433" lon="0.04399">
        <ele>149.6</ele>
        <time>2021-08-08T12:56:43Z</time>
      </trkpt>
      <trkpt lat="48.99431" lon="0.04403">
        <ele>150.36</ele>
        <time>2021-08-08T12:56:44Z</time>
      </trkpt>
      <trkpt lat="48.9943" lon="0.04405">
        <ele>151.06</ele>
        <time>2021-08-08T12:56:45Z</time>
      </trkpt>
      <trkpt lat="48.99429" lon="0.04408">
        <ele>151.67</ele>
        <time>2021-08-08T12:56:46Z</time>
      </trkpt>
      <trkpt lat="48.99428" lon="0.0441">
        <ele>152.14</ele>
        <time>2021-08-08T12:56:47Z</time>
      </trkpt>
      <trkpt lat="48.99427" lon="0.04412">
        <ele>152.59</ele>
        <time>2021-08-08T12:56:48Z</time>
      </trkpt>
      <trkpt lat="48.99427" lon="0.04414">
        <ele>152.84</ele>
        <time>2021-08-08T12:56:49Z</time>
      </trkpt>
      <trkpt lat="48.99427" lon="0.04416">
        <ele>153.02</ele>
        <time>2021-08-08T12:56:50Z</time>
      </trkpt>
      <trkpt lat="48.99428" lon="0.04417">
        <ele>153.05</ele>
        <time>2021-08-08T12:56:51Z</time>
      </trkpt>
      <trkpt lat="48.99427" lon="0.04419">
        <ele>153.27</ele>
        <time>2021-08-08T12:56:52Z</time>
      </trkpt>
      <trkpt lat="48.99427" lon="0.04421">
        <ele>153.34</ele>
        <time>2021-08-08T12:56:53Z</time>
      </trkpt>
      <trkpt lat="48.99427" lon="0.04422">
        <ele>153.44</ele>
        <time>2021-08-08T12:56:54Z</time>
      </trkpt>
      <trkpt lat="48.99427" lon="0.04424">
        <ele>153.51</ele>
        <time>2021-08-08T12:56:55Z</time>
      </trkpt>
      <trkpt lat="48.99427" lon="0.04426">
        <ele>153.7</ele>
        <time>2021-08-08T12:56:56Z</time>
      </trkpt>
      <trkpt lat="48.99426" lon="0.04427">
        <ele>154.01</ele>
        <time>2021-08-08T12:56:57Z</time>
      </trkpt>
      <trkpt lat="48.99425" lon="0.04431">
        <ele>154.44</ele>
        <time>2021-08-08T12:56:58Z</time>
      </trkpt>
      <trkpt lat="48.99424" lon="0.04434">
        <ele>154.86</ele>
        <time>2021-08-08T12:56:59Z</time>
      </trkpt>
      <trkpt lat="48.99423" lon="0.04436">
        <ele>155.2</ele>
        <time>2021-08-08T12:57:00Z</time>
      </trkpt>
      <trkpt lat="48.99423" lon="0.04439">
        <ele>155.41</ele>
        <time>2021-08-08T12:57:01Z</time>
      </trkpt>
      <trkpt lat="48.99423" lon="0.04441">
        <ele>155.63</ele>
        <time>2021-08-08T12:57:02Z</time>
      </trkpt>
      <trkpt lat="48.99422" lon="0.04443">
        <ele>155.87</ele>
        <time>2021-08-08T12:57:03Z</time>
      </trkpt>
      <trkpt lat="48.99422" lon="0.04444">
        <ele>156.1</ele>
        <time>2021-08-08T12:57:04Z</time>
      </trkpt>
      <trkpt lat="48.99422" lon="0.04448">
        <ele>156.18</ele>
        <time>2021-08-08T12:57:05Z</time>
      </trkpt>
      <trkpt lat="48.99421" lon="0.04451">
        <ele>156.48</ele>
        <time>2021-08-08T12:57:06Z</time>
      </trkpt>
      <trkpt lat="48.99421" lon="0.04455">
        <ele>156.71</ele>
        <time>2021-08-08T12:57:07Z</time>
      </trkpt>
      <trkpt lat="48.99421" lon="0.04458">
        <ele>156.96</ele>
        <time>2021-08-08T12:57:08Z</time>
      </trkpt>
      <trkpt lat="48.99421" lon="0.04463">
        <ele>157.18</ele>
        <time>2021-08-08T12:57:09Z</time>
      </trkpt>
      <trkpt lat="48.99421" lon="0.04467">
        <ele>157.35</ele>
        <time>2021-08-08T12:57:10Z</time>
      </trkpt>
      <trkpt lat="48.99421" lon="0.04471">
        <ele>157.38</ele>
        <time>2021-08-08T12:57:11Z</time>
      </trkpt>
      <trkpt lat="48.99421" lon="0.04474">
        <ele>157.57</ele>
        <time>2021-08-08T12:57:12Z</time>
      </trkpt>
      <trkpt lat="48.9942" lon="0.04477">
        <ele>158.02</ele>
        <time>2021-08-08T12:57:13Z</time>
      </trkpt>
      <trkpt lat="48.99419" lon="0.04481">
        <ele>158.51</ele>
        <time>2021-08-08T12:57:14Z</time>
      </trkpt>
      <trkpt lat="48.99419" lon="0.04485">
        <ele>158.94</ele>
        <time>2021-08-08T12:57:15Z</time>
      </trkpt>
      <trkpt lat="48.99418" lon="0.04489">
        <ele>159.35</ele>
        <time>2021-08-08T12:57:16Z</time>
      </trkpt>
      <trkpt lat="48.99419" lon="0.04495">
        <ele>159.51</ele>
        <time>2021-08-08T12:57:17Z</time>
      </trkpt>
      <trkpt lat="48.99418" lon="0.04498">
        <ele>159.99</ele>
        <time>2021-08-08T12:57:18Z</time>
      </trkpt>
      <trkpt lat="48.99417" lon="0.045">
        <ele>160.61</ele>
        <time>2021-08-08T12:57:19Z</time>
      </trkpt>
      <trkpt lat="48.99417" lon="0.04504">
        <ele>160.99</ele>
        <time>2021-08-08T12:57:20Z</time>
      </trkpt>
      <trkpt lat="48.99416" lon="0.04507">
        <ele>161.26</ele>
        <time>2021-08-08T12:57:21Z</time>
      </trkpt>
      <trkpt lat="48.99415" lon="0.0451">
        <ele>161.5</ele>
        <time>2021-08-08T12:57:22Z</time>
      </trkpt>
      <trkpt lat="48.99414" lon="0.04514">
        <ele>161.8</ele>
        <time>2021-08-08T12:57:23Z</time>
      </trkpt>
      <trkpt lat="48.99413" lon="0.04517">
        <ele>162.05</ele>
        <time>2021-08-08T12:57:24Z</time>
      </trkpt>
      <trkpt lat="48.99413" lon="0.0452">
        <ele>162.28</ele>
        <time>2021-08-08T12:57:25Z</time>
      </trkpt>
      <trkpt lat="48.99412" lon="0.04523">
        <ele>162.48</ele>
        <time>2021-08-08T12:57:26Z</time>
      </trkpt>
      <trkpt lat="48.99411" lon="0.04528">
        <ele>162.78</ele>
        <time>2021-08-08T12:57:27Z</time>
      </trkpt>
      <trkpt lat="48.9941" lon="0.04533">
        <ele>162.85</ele>
        <time>2021-08-08T12:57:28Z</time>
      </trkpt>
      <trkpt lat="48.99408" lon="0.04539">
        <ele>162.88</ele>
        <time>2021-08-08T12:57:29Z</time>
      </trkpt>
      <trkpt lat="48.99407" lon="0.04544">
        <ele>162.83</ele>
        <time>2021-08-08T12:57:30Z</time>
      </trkpt>
      <trkpt lat="48.99406" lon="0.04547">
        <ele>162.79</ele>
        <time>2021-08-08T12:57:31Z</time>
      </trkpt>
      <trkpt lat="48.99405" lon="0.04551">
        <ele>162.7</ele>
        <time>2021-08-08T12:57:32Z</time>
      </trkpt>
      <trkpt lat="48.99405" lon="0.04556">
        <ele>162.55</ele>
        <time>2021-08-08T12:57:33Z</time>
      </trkpt>
      <trkpt lat="48.99405" lon="0.0456">
        <ele>162.38</ele>
        <time>2021-08-08T12:57:34Z</time>
      </trkpt>
      <trkpt lat="48.99404" lon="0.04564">
        <ele>162.26</ele>
        <time>2021-08-08T12:57:35Z</time>
      </trkpt>
      <trkpt lat="48.99401" lon="0.04571">
        <ele>162.46</ele>
        <time>2021-08-08T12:57:36Z</time>
      </trkpt>
      <trkpt lat="48.99398" lon="0.04578">
        <ele>162.59</ele>
        <time>2021-08-08T12:57:37Z</time>
      </trkpt>
      <trkpt lat="48.99396" lon="0.04585">
        <ele>162.65</ele>
        <time>2021-08-08T12:57:38Z</time>
      </trkpt>
      <trkpt lat="48.99394" lon="0.04591">
        <ele>162.69</ele>
        <time>2021-08-08T12:57:39Z</time>
      </trkpt>
      <trkpt lat="48.99392" lon="0.04597">
        <ele>162.84</ele>
        <time>2021-08-08T12:57:40Z</time>
      </trkpt>
      <trkpt lat="48.99391" lon="0.04604">
        <ele>162.91</ele>
        <time>2021-08-08T12:57:41Z</time>
      </trkpt>
      <trkpt lat="48.99389" lon="0.0461">
        <ele>163.03</ele>
        <time>2021-08-08T12:57:42Z</time>
      </trkpt>
      <trkpt lat="48.99387" lon="0.04616">
        <ele>163.1</ele>
        <time>2021-08-08T12:57:43Z</time>
      </trkpt>
      <trkpt lat="48.99387" lon="0.0462">
        <ele>163.01</ele>
        <time>2021-08-08T12:57:44Z</time>
      </trkpt>
      <trkpt lat="48.99387" lon="0.04625">
        <ele>162.94</ele>
        <time>2021-08-08T12:57:45Z</time>
      </trkpt>
      <trkpt lat="48.99387" lon="0.04628">
        <ele>162.81</ele>
        <time>2021-08-08T12:57:46Z</time>
      </trkpt>
      <trkpt lat="48.99388" lon="0.04633">
        <ele>162.58</ele>
        <time>2021-08-08T12:57:47Z</time>
      </trkpt>
      <trkpt lat="48.99388" lon="0.04637">
        <ele>162.36</ele>
        <time>2021-08-08T12:57:48Z</time>
      </trkpt>
      <trkpt lat="48.99388" lon="0.04642">
        <ele>162.3</ele>
        <time>2021-08-08T12:57:49Z</time>
      </trkpt>
      <trkpt lat="48.9939" lon="0.04646">
        <ele>162.35</ele>
        <time>2021-08-08T12:57:50Z</time>
      </trkpt>
      <trkpt lat="48.99391" lon="0.04651">
        <ele>162.4</ele>
        <time>2021-08-08T12:57:51Z</time>
      </trkpt>
      <trkpt lat="48.99391" lon="0.04653">
        <ele>162.56</ele>
        <time>2021-08-08T12:57:52Z</time>
      </trkpt>
      <trkpt lat="48.9939" lon="0.04656">
        <ele>162.87</ele>
        <time>2021-08-08T12:57:53Z</time>
      </trkpt>
      <trkpt lat="48.9939" lon="0.04661">
        <ele>163.3</ele>
        <time>2021-08-08T12:57:54Z</time>
      </trkpt>
      <trkpt lat="48.99389" lon="0.04666">
        <ele>163.76</ele>
        <time>2021-08-08T12:57:55Z</time>
      </trkpt>
      <trkpt lat="48.99389" lon="0.04669">
        <ele>164.08</ele>
        <time>2021-08-08T12:57:56Z</time>
      </trkpt>
      <trkpt lat="48.99389" lon="0.04674">
        <ele>164.36</ele>
        <time>2021-08-08T12:57:57Z</time>
      </trkpt>
      <trkpt lat="48.99389" lon="0.04677">
        <ele>164.63</ele>
        <time>2021-08-08T12:57:58Z</time>
      </trkpt>
      <trkpt lat="48.99389" lon="0.04681">
        <ele>164.94</ele>
        <time>2021-08-08T12:57:59Z</time>
      </trkpt>
      <trkpt lat="48.99389" lon="0.04685">
        <ele>165.2</ele>
        <time>2021-08-08T12:58:00Z</time>
      </trkpt>
      <trkpt lat="48.99389" lon="0.04688">
        <ele>165.38</ele>
        <time>2021-08-08T12:58:01Z</time>
      </trkpt>
      <trkpt lat="48.99389" lon="0.0469">
        <ele>165.54</ele>
        <time>2021-08-08T12:58:02Z</time>
      </trkpt>
      <trkpt lat="48.9939" lon="0.04694">
        <ele>165.74</ele>
        <time>2021-08-08T12:58:03Z</time>
      </trkpt>
      <trkpt lat="48.9939" lon="0.04698">
        <ele>165.97</ele>
        <time>2021-08-08T12:58:04Z</time>
      </trkpt>
      <trkpt lat="48.9939" lon="0.04702">
        <ele>166.29</ele>
        <time>2021-08-08T12:58:05Z</time>
      </trkpt>
      <trkpt lat="48.99389" lon="0.04707">
        <ele>166.67</ele>
        <time>2021-08-08T12:58:06Z</time>
      </trkpt>
      <trkpt lat="48.99389" lon="0.04713">
        <ele>167.12</ele>
        <time>2021-08-08T12:58:07Z</time>
      </trkpt>
      <trkpt lat="48.99389" lon="0.04719">
        <ele>167.6</ele>
        <time>2021-08-08T12:58:08Z</time>
      </trkpt>
      <trkpt lat="48.99388" lon="0.04725">
        <ele>168.03</ele>
        <time>2021-08-08T12:58:09Z</time>
      </trkpt>
      <trkpt lat="48.99387" lon="0.04729">
        <ele>168.32</ele>
        <time>2021-08-08T12:58:10Z</time>
      </trkpt>
      <trkpt lat="48.99387" lon="0.04733">
        <ele>168.49</ele>
        <time>2021-08-08T12:58:11Z</time>
      </trkpt>
      <trkpt lat="48.99388" lon="0.04737">
        <ele>168.61</ele>
        <time>2021-08-08T12:58:12Z</time>
      </trkpt>
      <trkpt lat="48.99387" lon="0.04741">
        <ele>168.78</ele>
        <time>2021-08-08T12:58:13Z</time>
      </trkpt>
      <trkpt lat="48.99387" lon="0.04745">
        <ele>168.97</ele>
        <time>2021-08-08T12:58:14Z</time>
      </trkpt>
      <trkpt lat="48.99386" lon="0.0475">
        <ele>169.21</ele>
        <time>2021-08-08T12:58:15Z</time>
      </trkpt>
      <trkpt lat="48.99386" lon="0.04754">
        <ele>169.5</ele>
        <time>2021-08-08T12:58:16Z</time>
      </trkpt>
      <trkpt lat="48.99385" lon="0.04759">
        <ele>169.84</ele>
        <time>2021-08-08T12:58:17Z</time>
      </trkpt>
      <trkpt lat="48.99385" lon="0.04764">
        <ele>170.17</ele>
        <time>2021-08-08T12:58:18Z</time>
      </trkpt>
      <trkpt lat="48.99385" lon="0.04768">
        <ele>170.52</ele>
        <time>2021-08-08T12:58:19Z</time>
      </trkpt>
      <trkpt lat="48.99384" lon="0.04772">
        <ele>170.85</ele>
        <time>2021-08-08T12:58:20Z</time>
      </trkpt>
      <trkpt lat="48.99384" lon="0.04777">
        <ele>171.15</ele>
        <time>2021-08-08T12:58:21Z</time>
      </trkpt>
      <trkpt lat="48.99383" lon="0.04781">
        <ele>171.39</ele>
        <time>2021-08-08T12:58:22Z</time>
      </trkpt>
      <trkpt lat="48.99383" lon="0.04785">
        <ele>171.56</ele>
        <time>2021-08-08T12:58:23Z</time>
      </trkpt>
      <trkpt lat="48.99382" lon="0.0479">
        <ele>171.75</ele>
        <time>2021-08-08T12:58:24Z</time>
      </trkpt>
      <trkpt lat="48.99381" lon="0.04794">
        <ele>171.94</ele>
        <time>2021-08-08T12:58:25Z</time>
      </trkpt>
      <trkpt lat="48.9938" lon="0.04799">
        <ele>172.1</ele>
        <time>2021-08-08T12:58:26Z</time>
      </trkpt>
      <trkpt lat="48.99379" lon="0.04803">
        <ele>172.24</ele>
        <time>2021-08-08T12:58:27Z</time>
      </trkpt>
      <trkpt lat="48.99378" lon="0.04807">
        <ele>172.4</ele>
        <time>2021-08-08T12:58:28Z</time>
      </trkpt>
      <trkpt lat="48.99378" lon="0.0481">
        <ele>172.6</ele>
        <time>2021-08-08T12:58:29Z</time>
      </trkpt>
      <trkpt lat="48.99377" lon="0.04815">
        <ele>172.86</ele>
        <time>2021-08-08T12:58:30Z</time>
      </trkpt>
      <trkpt lat="48.99377" lon="0.0482">
        <ele>173.11</ele>
        <time>2021-08-08T12:58:31Z</time>
      </trkpt>
      <trkpt lat="48.99377" lon="0.04824">
        <ele>173.36</ele>
        <time>2021-08-08T12:58:32Z</time>
      </trkpt>
      <trkpt lat="48.99376" lon="0.04829">
        <ele>173.65</ele>
        <time>2021-08-08T12:58:33Z</time>
      </trkpt>
      <trkpt lat="48.99376" lon="0.04834">
        <ele>173.89</ele>
        <time>2021-08-08T12:58:34Z</time>
      </trkpt>
      <trkpt lat="48.99376" lon="0.04839">
        <ele>173.97</ele>
        <time>2021-08-08T12:58:35Z</time>
      </trkpt>
      <trkpt lat="48.99376" lon="0.04843">
        <ele>173.99</ele>
        <time>2021-08-08T12:58:36Z</time>
      </trkpt>
      <trkpt lat="48.99376" lon="0.04848">
        <ele>174</ele>
        <time>2021-08-08T12:58:37Z</time>
      </trkpt>
      <trkpt lat="48.99376" lon="0.04854">
        <ele>174</ele>
        <time>2021-08-08T12:58:38Z</time>
      </trkpt>
      <trkpt lat="48.99376" lon="0.04859">
        <ele>174</ele>
        <time>2021-08-08T12:58:39Z</time>
      </trkpt>
      <trkpt lat="48.99375" lon="0.04864">
        <ele>174.04</ele>
        <time>2021-08-08T12:58:40Z</time>
      </trkpt>
      <trkpt lat="48.99375" lon="0.0487">
        <ele>174.12</ele>
        <time>2021-08-08T12:58:41Z</time>
      </trkpt>
      <trkpt lat="48.99375" lon="0.04875">
        <ele>174.21</ele>
        <time>2021-08-08T12:58:42Z</time>
      </trkpt>
      <trkpt lat="48.99374" lon="0.0488">
        <ele>174.32</ele>
        <time>2021-08-08T12:58:43Z</time>
      </trkpt>
      <trkpt lat="48.99373" lon="0.04885">
        <ele>174.43</ele>
        <time>2021-08-08T12:58:44Z</time>
      </trkpt>
      <trkpt lat="48.99373" lon="0.0489">
        <ele>174.55</ele>
        <time>2021-08-08T12:58:45Z</time>
      </trkpt>
      <trkpt lat="48.99372" lon="0.04896">
        <ele>174.65</ele>
        <time>2021-08-08T12:58:46Z</time>
      </trkpt>
      <trkpt lat="48.99372" lon="0.04902">
        <ele>174.75</ele>
        <time>2021-08-08T12:58:47Z</time>
      </trkpt>
      <trkpt lat="48.99371" lon="0.04908">
        <ele>174.84</ele>
        <time>2021-08-08T12:58:48Z</time>
      </trkpt>
      <trkpt lat="48.99371" lon="0.04914">
        <ele>174.93</ele>
        <time>2021-08-08T12:58:49Z</time>
      </trkpt>
      <trkpt lat="48.99371" lon="0.04919">
        <ele>174.98</ele>
        <time>2021-08-08T12:58:50Z</time>
      </trkpt>
      <trkpt lat="48.99371" lon="0.04925">
        <ele>174.99</ele>
        <time>2021-08-08T12:58:51Z</time>
      </trkpt>
      <trkpt lat="48.9937" lon="0.0493">
        <ele>175</ele>
        <time>2021-08-08T12:58:52Z</time>
      </trkpt>
      <trkpt lat="48.9937" lon="0.04936">
        <ele>175</ele>
        <time>2021-08-08T12:58:53Z</time>
      </trkpt>
      <trkpt lat="48.99369" lon="0.04942">
        <ele>175</ele>
        <time>2021-08-08T12:58:54Z</time>
      </trkpt>
      <trkpt lat="48.99368" lon="0.04948">
        <ele>175</ele>
        <time>2021-08-08T12:58:55Z</time>
      </trkpt>
      <trkpt lat="48.99367" lon="0.04954">
        <ele>175</ele>
        <time>2021-08-08T12:58:56Z</time>
      </trkpt>
      <trkpt lat="48.99367" lon="0.0496">
        <ele>175</ele>
        <time>2021-08-08T12:58:57Z</time>
      </trkpt>
      <trkpt lat="48.99367" lon="0.04966">
        <ele>175</ele>
        <time>2021-08-08T12:58:58Z</time>
      </trkpt>
      <trkpt lat="48.99367" lon="0.04972">
        <ele>175</ele>
        <time>2021-08-08T12:58:59Z</time>
      </trkpt>
      <trkpt lat="48.99367" lon="0.04978">
        <ele>175</ele>
        <time>2021-08-08T12:59:00Z</time>
      </trkpt>
      <trkpt lat="48.99367" lon="0.04984">
        <ele>175</ele>
        <time>2021-08-08T12:59:01Z</time>
      </trkpt>
      <trkpt lat="48.99367" lon="0.0499">
        <ele>175</ele>
        <time>2021-08-08T12:59:02Z</time>
      </trkpt>
      <trkpt lat="48.99366" lon="0.04996">
        <ele>175</ele>
        <time>2021-08-08T12:59:03Z</time>
      </trkpt>
      <trkpt lat="48.99366" lon="0.05002">
        <ele>175</ele>
        <time>2021-08-08T12:59:04Z</time>
      </trkpt>
      <trkpt lat="48.99366" lon="0.05008">
        <ele>175</ele>
        <time>2021-08-08T12:59:05Z</time>
      </trkpt>
      <trkpt lat="48.99365" lon="0.05013">
        <ele>175</ele>
        <time>2021-08-08T12:59:06Z</time>
      </trkpt>
      <trkpt lat="48.99365" lon="0.05019">
        <ele>175</ele>
        <time>2021-08-08T12:59:07Z</time>
      </trkpt>
      <trkpt lat="48.99365" lon="0.05024">
        <ele>175</ele>
        <time>2021-08-08T12:59:08Z</time>
      </trkpt>
      <trkpt lat="48.99365" lon="0.05031">
        <ele>175</ele>
        <time>2021-08-08T12:59:09Z</time>
      </trkpt>
      <trkpt lat="48.99364" lon="0.05038">
        <ele>175</ele>
        <time>2021-08-08T12:59:10Z</time>
      </trkpt>
      <trkpt lat="48.99365" lon="0.05047">
        <ele>175</ele>
        <time>2021-08-08T12:59:11Z</time>
      </trkpt>
      <trkpt lat="48.99365" lon="0.05054">
        <ele>175</ele>
        <time>2021-08-08T12:59:12Z</time>
      </trkpt>
      <trkpt lat="48.99365" lon="0.0506">
        <ele>175</ele>
        <time>2021-08-08T12:59:13Z</time>
      </trkpt>
      <trkpt lat="48.99364" lon="0.05066">
        <ele>175</ele>
        <time>2021-08-08T12:59:14Z</time>
      </trkpt>
      <trkpt lat="48.99363" lon="0.05073">
        <ele>175</ele>
        <time>2021-08-08T12:59:15Z</time>
      </trkpt>
      <trkpt lat="48.99361" lon="0.05081">
        <ele>175</ele>
        <time>2021-08-08T12:59:16Z</time>
      </trkpt>
      <trkpt lat="48.99361" lon="0.05088">
        <ele>175.12</ele>
        <time>2021-08-08T12:59:17Z</time>
      </trkpt>
      <trkpt lat="48.99361" lon="0.05096">
        <ele>175.36</ele>
        <time>2021-08-08T12:59:18Z</time>
      </trkpt>
      <trkpt lat="48.99361" lon="0.05104">
        <ele>175.63</ele>
        <time>2021-08-08T12:59:19Z</time>
      </trkpt>
      <trkpt lat="48.9936" lon="0.05112">
        <ele>175.89</ele>
        <time>2021-08-08T12:59:20Z</time>
      </trkpt>
      <trkpt lat="48.99361" lon="0.05119">
        <ele>175.97</ele>
        <time>2021-08-08T12:59:21Z</time>
      </trkpt>
      <trkpt lat="48.9936" lon="0.05126">
        <ele>175.99</ele>
        <time>2021-08-08T12:59:22Z</time>
      </trkpt>
      <trkpt lat="48.9936" lon="0.05133">
        <ele>176</ele>
        <time>2021-08-08T12:59:23Z</time>
      </trkpt>
      <trkpt lat="48.99361" lon="0.05139">
        <ele>176</ele>
        <time>2021-08-08T12:59:24Z</time>
      </trkpt>
      <trkpt lat="48.99361" lon="0.05146">
        <ele>176</ele>
        <time>2021-08-08T12:59:25Z</time>
      </trkpt>
      <trkpt lat="48.99361" lon="0.05152">
        <ele>176</ele>
        <time>2021-08-08T12:59:26Z</time>
      </trkpt>
      <trkpt lat="48.99361" lon="0.05159">
        <ele>176</ele>
        <time>2021-08-08T12:59:27Z</time>
      </trkpt>
      <trkpt lat="48.9936" lon="0.05165">
        <ele>176</ele>
        <time>2021-08-08T12:59:28Z</time>
      </trkpt>
      <trkpt lat="48.99359" lon="0.05171">
        <ele>176</ele>
        <time>2021-08-08T12:59:29Z</time>
      </trkpt>
      <trkpt lat="48.99359" lon="0.05176">
        <ele>176</ele>
        <time>2021-08-08T12:59:30Z</time>
      </trkpt>
      <trkpt lat="48.99357" lon="0.05178">
        <ele>176</ele>
        <time>2021-08-08T12:59:31Z</time>
      </trkpt>
      <trkpt lat="48.99353" lon="0.05178">
        <ele>176</ele>
        <time>2021-08-08T12:59:32Z</time>
      </trkpt>
      <trkpt lat="48.99349" lon="0.05177">
        <ele>176</ele>
        <time>2021-08-08T12:59:33Z</time>
      </trkpt>
      <trkpt lat="48.99346" lon="0.05176">
        <ele>176</ele>
        <time>2021-08-08T12:59:34Z</time>
      </trkpt>
      <trkpt lat="48.99342" lon="0.05175">
        <ele>176</ele>
        <time>2021-08-08T12:59:35Z</time>
      </trkpt>
      <trkpt lat="48.99336" lon="0.05173">
        <ele>176</ele>
        <time>2021-08-08T12:59:36Z</time>
      </trkpt>
      <trkpt lat="48.99332" lon="0.05172">
        <ele>176</ele>
        <time>2021-08-08T12:59:37Z</time>
      </trkpt>
      <trkpt lat="48.99328" lon="0.05171">
        <ele>176</ele>
        <time>2021-08-08T12:59:38Z</time>
      </trkpt>
      <trkpt lat="48.99324" lon="0.0517">
        <ele>176</ele>
        <time>2021-08-08T12:59:39Z</time>
      </trkpt>
      <trkpt lat="48.9932" lon="0.05166">
        <ele>176</ele>
        <time>2021-08-08T12:59:40Z</time>
      </trkpt>
      <trkpt lat="48.99316" lon="0.05163">
        <ele>176</ele>
        <time>2021-08-08T12:59:41Z</time>
      </trkpt>
      <trkpt lat="48.99312" lon="0.0516">
        <ele>176</ele>
        <time>2021-08-08T12:59:42Z</time>
      </trkpt>
      <trkpt lat="48.99308" lon="0.05156">
        <ele>176</ele>
        <time>2021-08-08T12:59:43Z</time>
      </trkpt>
      <trkpt lat="48.99303" lon="0.05153">
        <ele>176</ele>
        <time>2021-08-08T12:59:44Z</time>
      </trkpt>
      <trkpt lat="48.993" lon="0.0515">
        <ele>176</ele>
        <time>2021-08-08T12:59:45Z</time>
      </trkpt>
      <trkpt lat="48.99295" lon="0.05147">
        <ele>176</ele>
        <time>2021-08-08T12:59:46Z</time>
      </trkpt>
      <trkpt lat="48.99291" lon="0.05145">
        <ele>176</ele>
        <time>2021-08-08T12:59:47Z</time>
      </trkpt>
      <trkpt lat="48.99286" lon="0.05142">
        <ele>176</ele>
        <time>2021-08-08T12:59:48Z</time>
      </trkpt>
      <trkpt lat="48.99279" lon="0.0514">
        <ele>176</ele>
        <time>2021-08-08T12:59:50Z</time>
      </trkpt>
      <trkpt lat="48.99275" lon="0.05138">
        <ele>176</ele>
        <time>2021-08-08T12:59:51Z</time>
      </trkpt>
      <trkpt lat="48.9927" lon="0.05135">
        <ele>176</ele>
        <time>2021-08-08T12:59:52Z</time>
      </trkpt>
      <trkpt lat="48.99266" lon="0.05133">
        <ele>176</ele>
        <time>2021-08-08T12:59:53Z</time>
      </trkpt>
      <trkpt lat="48.9926" lon="0.05132">
        <ele>176</ele>
        <time>2021-08-08T12:59:54Z</time>
      </trkpt>
      <trkpt lat="48.99255" lon="0.05131">
        <ele>176</ele>
        <time>2021-08-08T12:59:55Z</time>
      </trkpt>
      <trkpt lat="48.99251" lon="0.0513">
        <ele>176</ele>
        <time>2021-08-08T12:59:56Z</time>
      </trkpt>
      <trkpt lat="48.99245" lon="0.05128">
        <ele>176</ele>
        <time>2021-08-08T12:59:57Z</time>
      </trkpt>
      <trkpt lat="48.9924" lon="0.05124">
        <ele>176</ele>
        <time>2021-08-08T12:59:58Z</time>
      </trkpt>
      <trkpt lat="48.99236" lon="0.05121">
        <ele>176</ele>
        <time>2021-08-08T12:59:59Z</time>
      </trkpt>
      <trkpt lat="48.99231" lon="0.05118">
        <ele>176</ele>
        <time>2021-08-08T13:00:00Z</time>
      </trkpt>
      <trkpt lat="48.99226" lon="0.05116">
        <ele>176</ele>
        <time>2021-08-08T13:00:01Z</time>
      </trkpt>
      <trkpt lat="48.99221" lon="0.05113">
        <ele>176</ele>
        <time>2021-08-08T13:00:02Z</time>
      </trkpt>
      <trkpt lat="48.99215" lon="0.05109">
        <ele>176</ele>
        <time>2021-08-08T13:00:03Z</time>
      </trkpt>
      <trkpt lat="48.99211" lon="0.05106">
        <ele>176</ele>
        <time>2021-08-08T13:00:04Z</time>
      </trkpt>
      <trkpt lat="48.99206" lon="0.05103">
        <ele>176</ele>
        <time>2021-08-08T13:00:05Z</time>
      </trkpt>
      <trkpt lat="48.992" lon="0.051">
        <ele>176</ele>
        <time>2021-08-08T13:00:06Z</time>
      </trkpt>
      <trkpt lat="48.99194" lon="0.05098">
        <ele>176</ele>
        <time>2021-08-08T13:00:07Z</time>
      </trkpt>
      <trkpt lat="48.99189" lon="0.05096">
        <ele>176</ele>
        <time>2021-08-08T13:00:08Z</time>
      </trkpt>
      <trkpt lat="48.99184" lon="0.05094">
        <ele>176</ele>
        <time>2021-08-08T13:00:09Z</time>
      </trkpt>
      <trkpt lat="48.99179" lon="0.05092">
        <ele>176</ele>
        <time>2021-08-08T13:00:10Z</time>
      </trkpt>
      <trkpt lat="48.99174" lon="0.0509">
        <ele>176</ele>
        <time>2021-08-08T13:00:11Z</time>
      </trkpt>
      <trkpt lat="48.99169" lon="0.05088">
        <ele>176</ele>
        <time>2021-08-08T13:00:12Z</time>
      </trkpt>
      <trkpt lat="48.99164" lon="0.05085">
        <ele>176</ele>
        <time>2021-08-08T13:00:13Z</time>
      </trkpt>
      <trkpt lat="48.99159" lon="0.05083">
        <ele>176</ele>
        <time>2021-08-08T13:00:14Z</time>
      </trkpt>
      <trkpt lat="48.99155" lon="0.05081">
        <ele>176</ele>
        <time>2021-08-08T13:00:15Z</time>
      </trkpt>
      <trkpt lat="48.9915" lon="0.05077">
        <ele>176</ele>
        <time>2021-08-08T13:00:16Z</time>
      </trkpt>
      <trkpt lat="48.99145" lon="0.05074">
        <ele>176</ele>
        <time>2021-08-08T13:00:17Z</time>
      </trkpt>
      <trkpt lat="48.99141" lon="0.05072">
        <ele>176</ele>
        <time>2021-08-08T13:00:18Z</time>
      </trkpt>
      <trkpt lat="48.99136" lon="0.05068">
        <ele>176</ele>
        <time>2021-08-08T13:00:19Z</time>
      </trkpt>
      <trkpt lat="48.99131" lon="0.05066">
        <ele>176</ele>
        <time>2021-08-08T13:00:20Z</time>
      </trkpt>
      <trkpt lat="48.99126" lon="0.05063">
        <ele>176</ele>
        <time>2021-08-08T13:00:21Z</time>
      </trkpt>
      <trkpt lat="48.99122" lon="0.0506">
        <ele>176</ele>
        <time>2021-08-08T13:00:22Z</time>
      </trkpt>
      <trkpt lat="48.99117" lon="0.05057">
        <ele>176</ele>
        <time>2021-08-08T13:00:23Z</time>
      </trkpt>
      <trkpt lat="48.99112" lon="0.05054">
        <ele>176</ele>
        <time>2021-08-08T13:00:24Z</time>
      </trkpt>
      <trkpt lat="48.99107" lon="0.05051">
        <ele>176</ele>
        <time>2021-08-08T13:00:25Z</time>
      </trkpt>
      <trkpt lat="48.99103" lon="0.05048">
        <ele>176</ele>
        <time>2021-08-08T13:00:26Z</time>
      </trkpt>
      <trkpt lat="48.99099" lon="0.05045">
        <ele>176</ele>
        <time>2021-08-08T13:00:27Z</time>
      </trkpt>
      <trkpt lat="48.99095" lon="0.05041">
        <ele>176</ele>
        <time>2021-08-08T13:00:28Z</time>
      </trkpt>
      <trkpt lat="48.99091" lon="0.05038">
        <ele>176</ele>
        <time>2021-08-08T13:00:29Z</time>
      </trkpt>
      <trkpt lat="48.99087" lon="0.05036">
        <ele>176</ele>
        <time>2021-08-08T13:00:30Z</time>
      </trkpt>
      <trkpt lat="48.99083" lon="0.05034">
        <ele>176</ele>
        <time>2021-08-08T13:00:31Z</time>
      </trkpt>
      <trkpt lat="48.9908" lon="0.0503">
        <ele>176</ele>
        <time>2021-08-08T13:00:32Z</time>
      </trkpt>
      <trkpt lat="48.99076" lon="0.05027">
        <ele>176</ele>
        <time>2021-08-08T13:00:33Z</time>
      </trkpt>
      <trkpt lat="48.99073" lon="0.05021">
        <ele>176</ele>
        <time>2021-08-08T13:00:34Z</time>
      </trkpt>
      <trkpt lat="48.9907" lon="0.05015">
        <ele>176</ele>
        <time>2021-08-08T13:00:35Z</time>
      </trkpt>
      <trkpt lat="48.99068" lon="0.0501">
        <ele>176</ele>
        <time>2021-08-08T13:00:36Z</time>
      </trkpt>
      <trkpt lat="48.99066" lon="0.05006">
        <ele>176</ele>
        <time>2021-08-08T13:00:37Z</time>
      </trkpt>
      <trkpt lat="48.99064" lon="0.05002">
        <ele>176</ele>
        <time>2021-08-08T13:00:38Z</time>
      </trkpt>
      <trkpt lat="48.99062" lon="0.04999">
        <ele>176</ele>
        <time>2021-08-08T13:00:39Z</time>
      </trkpt>
      <trkpt lat="48.9906" lon="0.04997">
        <ele>176</ele>
        <time>2021-08-08T13:00:40Z</time>
      </trkpt>
      <trkpt lat="48.99058" lon="0.04994">
        <ele>176</ele>
        <time>2021-08-08T13:00:41Z</time>
      </trkpt>
      <trkpt lat="48.99056" lon="0.0499">
        <ele>176</ele>
        <time>2021-08-08T13:00:42Z</time>
      </trkpt>
      <trkpt lat="48.99054" lon="0.04987">
        <ele>176</ele>
        <time>2021-08-08T13:00:43Z</time>
      </trkpt>
      <trkpt lat="48.99052" lon="0.04984">
        <ele>176</ele>
        <time>2021-08-08T13:00:44Z</time>
      </trkpt>
      <trkpt lat="48.99049" lon="0.04979">
        <ele>176</ele>
        <time>2021-08-08T13:00:45Z</time>
      </trkpt>
      <trkpt lat="48.99047" lon="0.04977">
        <ele>176</ele>
        <time>2021-08-08T13:00:46Z</time>
      </trkpt>
      <trkpt lat="48.99044" lon="0.04974">
        <ele>176</ele>
        <time>2021-08-08T13:00:47Z</time>
      </trkpt>
      <trkpt lat="48.99041" lon="0.04969">
        <ele>176</ele>
        <time>2021-08-08T13:00:48Z</time>
      </trkpt>
      <trkpt lat="48.99037" lon="0.04964">
        <ele>176</ele>
        <time>2021-08-08T13:00:49Z</time>
      </trkpt>
      <trkpt lat="48.99034" lon="0.0496">
        <ele>176</ele>
        <time>2021-08-08T13:00:50Z</time>
      </trkpt>
      <trkpt lat="48.9903" lon="0.04955">
        <ele>176</ele>
        <time>2021-08-08T13:00:51Z</time>
      </trkpt>
      <trkpt lat="48.99026" lon="0.0495">
        <ele>176</ele>
        <time>2021-08-08T13:00:52Z</time>
      </trkpt>
      <trkpt lat="48.99023" lon="0.04946">
        <ele>176</ele>
        <time>2021-08-08T13:00:53Z</time>
      </trkpt>
      <trkpt lat="48.9902" lon="0.04941">
        <ele>175.91</ele>
        <time>2021-08-08T13:00:54Z</time>
      </trkpt>
      <trkpt lat="48.99016" lon="0.04937">
        <ele>175.78</ele>
        <time>2021-08-08T13:00:55Z</time>
      </trkpt>
      <trkpt lat="48.99013" lon="0.04932">
        <ele>175.63</ele>
        <time>2021-08-08T13:00:56Z</time>
      </trkpt>
      <trkpt lat="48.9901" lon="0.04929">
        <ele>175.5</ele>
        <time>2021-08-08T13:00:57Z</time>
      </trkpt>
      <trkpt lat="48.99007" lon="0.04925">
        <ele>175.35</ele>
        <time>2021-08-08T13:00:58Z</time>
      </trkpt>
      <trkpt lat="48.99004" lon="0.04918">
        <ele>175.14</ele>
        <time>2021-08-08T13:00:59Z</time>
      </trkpt>
      <trkpt lat="48.99001" lon="0.04912">
        <ele>175.04</ele>
        <time>2021-08-08T13:01:00Z</time>
      </trkpt>
      <trkpt lat="48.98997" lon="0.04907">
        <ele>175.01</ele>
        <time>2021-08-08T13:01:01Z</time>
      </trkpt>
      <trkpt lat="48.98994" lon="0.04902">
        <ele>175</ele>
        <time>2021-08-08T13:01:02Z</time>
      </trkpt>
      <trkpt lat="48.98991" lon="0.04898">
        <ele>175</ele>
        <time>2021-08-08T13:01:03Z</time>
      </trkpt>
      <trkpt lat="48.98988" lon="0.04895">
        <ele>175</ele>
        <time>2021-08-08T13:01:04Z</time>
      </trkpt>
      <trkpt lat="48.98986" lon="0.04893">
        <ele>175</ele>
        <time>2021-08-08T13:01:05Z</time>
      </trkpt>
      <trkpt lat="48.98981" lon="0.04892">
        <ele>175</ele>
        <time>2021-08-08T13:01:06Z</time>
      </trkpt>
      <trkpt lat="48.98978" lon="0.0489">
        <ele>175</ele>
        <time>2021-08-08T13:01:07Z</time>
      </trkpt>
      <trkpt lat="48.98973" lon="0.04891">
        <ele>175</ele>
        <time>2021-08-08T13:01:08Z</time>
      </trkpt>
      <trkpt lat="48.98968" lon="0.04891">
        <ele>175</ele>
        <time>2021-08-08T13:01:09Z</time>
      </trkpt>
      <trkpt lat="48.98963" lon="0.04892">
        <ele>175</ele>
        <time>2021-08-08T13:01:10Z</time>
      </trkpt>
      <trkpt lat="48.98958" lon="0.04891">
        <ele>175</ele>
        <time>2021-08-08T13:01:11Z</time>
      </trkpt>
      <trkpt lat="48.98952" lon="0.0489">
        <ele>175</ele>
        <time>2021-08-08T13:01:12Z</time>
      </trkpt>
      <trkpt lat="48.98946" lon="0.0489">
        <ele>175</ele>
        <time>2021-08-08T13:01:13Z</time>
      </trkpt>
      <trkpt lat="48.98942" lon="0.04888">
        <ele>175</ele>
        <time>2021-08-08T13:01:14Z</time>
      </trkpt>
      <trkpt lat="48.98937" lon="0.04886">
        <ele>174.98</ele>
        <time>2021-08-08T13:01:15Z</time>
      </trkpt>
      <trkpt lat="48.98933" lon="0.04883">
        <ele>174.94</ele>
        <time>2021-08-08T13:01:16Z</time>
      </trkpt>
      <trkpt lat="48.98929" lon="0.04881">
        <ele>174.87</ele>
        <time>2021-08-08T13:01:17Z</time>
      </trkpt>
      <trkpt lat="48.98925" lon="0.04879">
        <ele>174.79</ele>
        <time>2021-08-08T13:01:18Z</time>
      </trkpt>
      <trkpt lat="48.9892" lon="0.04878">
        <ele>174.7</ele>
        <time>2021-08-08T13:01:19Z</time>
      </trkpt>
      <trkpt lat="48.98916" lon="0.04878">
        <ele>174.65</ele>
        <time>2021-08-08T13:01:20Z</time>
      </trkpt>
      <trkpt lat="48.98913" lon="0.04878">
        <ele>174.61</ele>
        <time>2021-08-08T13:01:21Z</time>
      </trkpt>
      <trkpt lat="48.98909" lon="0.04875">
        <ele>174.54</ele>
        <time>2021-08-08T13:01:22Z</time>
      </trkpt>
      <trkpt lat="48.98904" lon="0.04873">
        <ele>174.47</ele>
        <time>2021-08-08T13:01:23Z</time>
      </trkpt>
      <trkpt lat="48.98898" lon="0.04874">
        <ele>174.46</ele>
        <time>2021-08-08T13:01:24Z</time>
      </trkpt>
      <trkpt lat="48.98893" lon="0.04873">
        <ele>174.43</ele>
        <time>2021-08-08T13:01:25Z</time>
      </trkpt>
      <trkpt lat="48.98886" lon="0.04871">
        <ele>174.32</ele>
        <time>2021-08-08T13:01:26Z</time>
      </trkpt>
      <trkpt lat="48.9888" lon="0.0487">
        <ele>174.1</ele>
        <time>2021-08-08T13:01:27Z</time>
      </trkpt>
      <trkpt lat="48.98874" lon="0.0487">
        <ele>173.87</ele>
        <time>2021-08-08T13:01:28Z</time>
      </trkpt>
      <trkpt lat="48.98867" lon="0.0487">
        <ele>173.66</ele>
        <time>2021-08-08T13:01:29Z</time>
      </trkpt>
      <trkpt lat="48.98861" lon="0.04872">
        <ele>173.47</ele>
        <time>2021-08-08T13:01:30Z</time>
      </trkpt>
      <trkpt lat="48.98855" lon="0.04875">
        <ele>173.48</ele>
        <time>2021-08-08T13:01:31Z</time>
      </trkpt>
      <trkpt lat="48.9885" lon="0.04878">
        <ele>173.57</ele>
        <time>2021-08-08T13:01:32Z</time>
      </trkpt>
      <trkpt lat="48.98845" lon="0.04882">
        <ele>173.69</ele>
        <time>2021-08-08T13:01:33Z</time>
      </trkpt>
      <trkpt lat="48.98839" lon="0.04886">
        <ele>173.83</ele>
        <time>2021-08-08T13:01:34Z</time>
      </trkpt>
      <trkpt lat="48.98835" lon="0.0489">
        <ele>173.97</ele>
        <time>2021-08-08T13:01:35Z</time>
      </trkpt>
      <trkpt lat="48.98831" lon="0.04894">
        <ele>174.12</ele>
        <time>2021-08-08T13:01:36Z</time>
      </trkpt>
      <trkpt lat="48.98828" lon="0.04899">
        <ele>174.24</ele>
        <time>2021-08-08T13:01:37Z</time>
      </trkpt>
      <trkpt lat="48.98825" lon="0.04905">
        <ele>174.35</ele>
        <time>2021-08-08T13:01:38Z</time>
      </trkpt>
      <trkpt lat="48.98822" lon="0.0491">
        <ele>174.43</ele>
        <time>2021-08-08T13:01:39Z</time>
      </trkpt>
      <trkpt lat="48.98821" lon="0.04916">
        <ele>174.5</ele>
        <time>2021-08-08T13:01:40Z</time>
      </trkpt>
      <trkpt lat="48.98819" lon="0.04922">
        <ele>174.55</ele>
        <time>2021-08-08T13:01:41Z</time>
      </trkpt>
      <trkpt lat="48.98816" lon="0.04928">
        <ele>174.6</ele>
        <time>2021-08-08T13:01:42Z</time>
      </trkpt>
      <trkpt lat="48.98812" lon="0.04931">
        <ele>174.61</ele>
        <time>2021-08-08T13:01:43Z</time>
      </trkpt>
      <trkpt lat="48.98808" lon="0.04934">
        <ele>174.65</ele>
        <time>2021-08-08T13:01:44Z</time>
      </trkpt>
      <trkpt lat="48.98807" lon="0.04939">
        <ele>174.78</ele>
        <time>2021-08-08T13:01:45Z</time>
      </trkpt>
      <trkpt lat="48.98805" lon="0.04945">
        <ele>174.94</ele>
        <time>2021-08-08T13:01:46Z</time>
      </trkpt>
      <trkpt lat="48.98803" lon="0.0495">
        <ele>175.13</ele>
        <time>2021-08-08T13:01:47Z</time>
      </trkpt>
      <trkpt lat="48.988" lon="0.04957">
        <ele>175.35</ele>
        <time>2021-08-08T13:01:48Z</time>
      </trkpt>
      <trkpt lat="48.98797" lon="0.04964">
        <ele>175.59</ele>
        <time>2021-08-08T13:01:49Z</time>
      </trkpt>
      <trkpt lat="48.98795" lon="0.04969">
        <ele>175.8</ele>
        <time>2021-08-08T13:01:50Z</time>
      </trkpt>
      <trkpt lat="48.98792" lon="0.04976">
        <ele>175.9</ele>
        <time>2021-08-08T13:01:51Z</time>
      </trkpt>
      <trkpt lat="48.98788" lon="0.04982">
        <ele>175.81</ele>
        <time>2021-08-08T13:01:52Z</time>
      </trkpt>
      <trkpt lat="48.98785" lon="0.04988">
        <ele>175.64</ele>
        <time>2021-08-08T13:01:53Z</time>
      </trkpt>
      <trkpt lat="48.98782" lon="0.04994">
        <ele>175.44</ele>
        <time>2021-08-08T13:01:54Z</time>
      </trkpt>
      <trkpt lat="48.98779" lon="0.05">
        <ele>175.17</ele>
        <time>2021-08-08T13:01:55Z</time>
      </trkpt>
      <trkpt lat="48.98776" lon="0.05007">
        <ele>175.05</ele>
        <time>2021-08-08T13:01:56Z</time>
      </trkpt>
      <trkpt lat="48.98774" lon="0.05012">
        <ele>175.01</ele>
        <time>2021-08-08T13:01:57Z</time>
      </trkpt>
      <trkpt lat="48.9877" lon="0.05017">
        <ele>175</ele>
        <time>2021-08-08T13:01:58Z</time>
      </trkpt>
      <trkpt lat="48.98767" lon="0.05021">
        <ele>175</ele>
        <time>2021-08-08T13:01:59Z</time>
      </trkpt>
      <trkpt lat="48.98764" lon="0.05026">
        <ele>175</ele>
        <time>2021-08-08T13:02:00Z</time>
      </trkpt>
      <trkpt lat="48.9876" lon="0.05031">
        <ele>175</ele>
        <time>2021-08-08T13:02:01Z</time>
      </trkpt>
      <trkpt lat="48.98756" lon="0.05036">
        <ele>175</ele>
        <time>2021-08-08T13:02:02Z</time>
      </trkpt>
      <trkpt lat="48.98752" lon="0.05039">
        <ele>175</ele>
        <time>2021-08-08T13:02:03Z</time>
      </trkpt>
      <trkpt lat="48.98749" lon="0.05041">
        <ele>175</ele>
        <time>2021-08-08T13:02:04Z</time>
      </trkpt>
      <trkpt lat="48.98746" lon="0.05043">
        <ele>175</ele>
        <time>2021-08-08T13:02:05Z</time>
      </trkpt>
      <trkpt lat="48.98742" lon="0.05044">
        <ele>175</ele>
        <time>2021-08-08T13:02:06Z</time>
      </trkpt>
      <trkpt lat="48.98739" lon="0.05046">
        <ele>175</ele>
        <time>2021-08-08T13:02:07Z</time>
      </trkpt>
      <trkpt lat="48.98736" lon="0.05047">
        <ele>175</ele>
        <time>2021-08-08T13:02:08Z</time>
      </trkpt>
      <trkpt lat="48.98733" lon="0.05048">
        <ele>175</ele>
        <time>2021-08-08T13:02:09Z</time>
      </trkpt>
      <trkpt lat="48.98729" lon="0.05049">
        <ele>175</ele>
        <time>2021-08-08T13:02:10Z</time>
      </trkpt>
      <trkpt lat="48.98726" lon="0.05051">
        <ele>175</ele>
        <time>2021-08-08T13:02:11Z</time>
      </trkpt>
      <trkpt lat="48.98722" lon="0.05053">
        <ele>175</ele>
        <time>2021-08-08T13:02:12Z</time>
      </trkpt>
      <trkpt lat="48.98718" lon="0.05055">
        <ele>174.89</ele>
        <time>2021-08-08T13:02:13Z</time>
      </trkpt>
      <trkpt lat="48.98713" lon="0.05057">
        <ele>174.71</ele>
        <time>2021-08-08T13:02:14Z</time>
      </trkpt>
      <trkpt lat="48.98708" lon="0.0506">
        <ele>174.51</ele>
        <time>2021-08-08T13:02:15Z</time>
      </trkpt>
      <trkpt lat="48.98703" lon="0.05062">
        <ele>174.32</ele>
        <time>2021-08-08T13:02:16Z</time>
      </trkpt>
      <trkpt lat="48.98697" lon="0.05065">
        <ele>174.14</ele>
        <time>2021-08-08T13:02:17Z</time>
      </trkpt>
      <trkpt lat="48.98692" lon="0.05068">
        <ele>174.07</ele>
        <time>2021-08-08T13:02:18Z</time>
      </trkpt>
      <trkpt lat="48.98687" lon="0.0507">
        <ele>174.11</ele>
        <time>2021-08-08T13:02:19Z</time>
      </trkpt>
      <trkpt lat="48.98683" lon="0.05072">
        <ele>174.15</ele>
        <time>2021-08-08T13:02:20Z</time>
      </trkpt>
      <trkpt lat="48.98678" lon="0.05073">
        <ele>174.2</ele>
        <time>2021-08-08T13:02:21Z</time>
      </trkpt>
      <trkpt lat="48.98673" lon="0.05074">
        <ele>174.23</ele>
        <time>2021-08-08T13:02:22Z</time>
      </trkpt>
      <trkpt lat="48.9867" lon="0.05076">
        <ele>174.25</ele>
        <time>2021-08-08T13:02:23Z</time>
      </trkpt>
      <trkpt lat="48.98666" lon="0.05076">
        <ele>174.28</ele>
        <time>2021-08-08T13:02:24Z</time>
      </trkpt>
      <trkpt lat="48.98661" lon="0.05077">
        <ele>174.35</ele>
        <time>2021-08-08T13:02:25Z</time>
      </trkpt>
      <trkpt lat="48.98656" lon="0.05077">
        <ele>174.47</ele>
        <time>2021-08-08T13:02:26Z</time>
      </trkpt>
      <trkpt lat="48.98652" lon="0.05078">
        <ele>174.58</ele>
        <time>2021-08-08T13:02:27Z</time>
      </trkpt>
      <trkpt lat="48.98647" lon="0.05078">
        <ele>174.71</ele>
        <time>2021-08-08T13:02:28Z</time>
      </trkpt>
      <trkpt lat="48.98642" lon="0.05078">
        <ele>174.84</ele>
        <time>2021-08-08T13:02:29Z</time>
      </trkpt>
      <trkpt lat="48.98637" lon="0.05077">
        <ele>174.95</ele>
        <time>2021-08-08T13:02:30Z</time>
      </trkpt>
      <trkpt lat="48.98632" lon="0.05075">
        <ele>174.99</ele>
        <time>2021-08-08T13:02:31Z</time>
      </trkpt>
      <trkpt lat="48.98627" lon="0.05073">
        <ele>175</ele>
        <time>2021-08-08T13:02:32Z</time>
      </trkpt>
      <trkpt lat="48.98622" lon="0.05072">
        <ele>175</ele>
        <time>2021-08-08T13:02:33Z</time>
      </trkpt>
      <trkpt lat="48.98616" lon="0.05071">
        <ele>175</ele>
        <time>2021-08-08T13:02:34Z</time>
      </trkpt>
      <trkpt lat="48.98611" lon="0.05069">
        <ele>175</ele>
        <time>2021-08-08T13:02:35Z</time>
      </trkpt>
      <trkpt lat="48.98605" lon="0.05067">
        <ele>175</ele>
        <time>2021-08-08T13:02:36Z</time>
      </trkpt>
      <trkpt lat="48.98599" lon="0.05066">
        <ele>175</ele>
        <time>2021-08-08T13:02:37Z</time>
      </trkpt>
      <trkpt lat="48.98594" lon="0.05065">
        <ele>175</ele>
        <time>2021-08-08T13:02:38Z</time>
      </trkpt>
      <trkpt lat="48.98587" lon="0.05065">
        <ele>175</ele>
        <time>2021-08-08T13:02:39Z</time>
      </trkpt>
      <trkpt lat="48.98582" lon="0.05064">
        <ele>175.03</ele>
        <time>2021-08-08T13:02:40Z</time>
      </trkpt>
      <trkpt lat="48.98576" lon="0.05064">
        <ele>175.2</ele>
        <time>2021-08-08T13:02:41Z</time>
      </trkpt>
      <trkpt lat="48.98569" lon="0.05065">
        <ele>175.41</ele>
        <time>2021-08-08T13:02:42Z</time>
      </trkpt>
      <trkpt lat="48.98564" lon="0.05066">
        <ele>175.61</ele>
        <time>2021-08-08T13:02:43Z</time>
      </trkpt>
      <trkpt lat="48.98558" lon="0.05064">
        <ele>175.81</ele>
        <time>2021-08-08T13:02:44Z</time>
      </trkpt>
      <trkpt lat="48.98554" lon="0.05063">
        <ele>175.94</ele>
        <time>2021-08-08T13:02:45Z</time>
      </trkpt>
      <trkpt lat="48.98549" lon="0.05064">
        <ele>175.98</ele>
        <time>2021-08-08T13:02:46Z</time>
      </trkpt>
      <trkpt lat="48.98544" lon="0.05064">
        <ele>175.99</ele>
        <time>2021-08-08T13:02:47Z</time>
      </trkpt>
      <trkpt lat="48.9854" lon="0.05065">
        <ele>176</ele>
        <time>2021-08-08T13:02:48Z</time>
      </trkpt>
      <trkpt lat="48.98535" lon="0.05065">
        <ele>176</ele>
        <time>2021-08-08T13:02:49Z</time>
      </trkpt>
      <trkpt lat="48.9853" lon="0.05065">
        <ele>176</ele>
        <time>2021-08-08T13:02:50Z</time>
      </trkpt>
      <trkpt lat="48.98525" lon="0.05064">
        <ele>175.93</ele>
        <time>2021-08-08T13:02:51Z</time>
      </trkpt>
      <trkpt lat="48.98519" lon="0.05063">
        <ele>175.76</ele>
        <time>2021-08-08T13:02:52Z</time>
      </trkpt>
      <trkpt lat="48.98514" lon="0.05063">
        <ele>175.58</ele>
        <time>2021-08-08T13:02:53Z</time>
      </trkpt>
      <trkpt lat="48.98509" lon="0.05061">
        <ele>175.41</ele>
        <time>2021-08-08T13:02:54Z</time>
      </trkpt>
      <trkpt lat="48.98504" lon="0.05059">
        <ele>175.21</ele>
        <time>2021-08-08T13:02:55Z</time>
      </trkpt>
      <trkpt lat="48.98499" lon="0.05057">
        <ele>175.06</ele>
        <time>2021-08-08T13:02:56Z</time>
      </trkpt>
      <trkpt lat="48.9849" lon="0.05055">
        <ele>175.03</ele>
        <time>2021-08-08T13:02:57Z</time>
      </trkpt>
      <trkpt lat="48.98483" lon="0.05055">
        <ele>175.02</ele>
        <time>2021-08-08T13:02:58Z</time>
      </trkpt>
      <trkpt lat="48.98478" lon="0.05054">
        <ele>175.01</ele>
        <time>2021-08-08T13:02:59Z</time>
      </trkpt>
      <trkpt lat="48.98472" lon="0.05053">
        <ele>175</ele>
        <time>2021-08-08T13:03:00Z</time>
      </trkpt>
      <trkpt lat="48.98466" lon="0.05053">
        <ele>175</ele>
        <time>2021-08-08T13:03:01Z</time>
      </trkpt>
      <trkpt lat="48.98459" lon="0.05054">
        <ele>175</ele>
        <time>2021-08-08T13:03:02Z</time>
      </trkpt>
      <trkpt lat="48.98451" lon="0.05053">
        <ele>175</ele>
        <time>2021-08-08T13:03:03Z</time>
      </trkpt>
      <trkpt lat="48.98445" lon="0.05055">
        <ele>175</ele>
        <time>2021-08-08T13:03:04Z</time>
      </trkpt>
      <trkpt lat="48.98439" lon="0.05054">
        <ele>175</ele>
        <time>2021-08-08T13:03:05Z</time>
      </trkpt>
      <trkpt lat="48.98431" lon="0.05052">
        <ele>175</ele>
        <time>2021-08-08T13:03:06Z</time>
      </trkpt>
      <trkpt lat="48.98425" lon="0.0505">
        <ele>175</ele>
        <time>2021-08-08T13:03:07Z</time>
      </trkpt>
      <trkpt lat="48.98419" lon="0.05048">
        <ele>175</ele>
        <time>2021-08-08T13:03:08Z</time>
      </trkpt>
      <trkpt lat="48.98413" lon="0.05047">
        <ele>174.9</ele>
        <time>2021-08-08T13:03:09Z</time>
      </trkpt>
      <trkpt lat="48.98407" lon="0.05046">
        <ele>174.71</ele>
        <time>2021-08-08T13:03:10Z</time>
      </trkpt>
      <trkpt lat="48.98399" lon="0.05045">
        <ele>174.48</ele>
        <time>2021-08-08T13:03:11Z</time>
      </trkpt>
      <trkpt lat="48.98392" lon="0.05044">
        <ele>174.23</ele>
        <time>2021-08-08T13:03:12Z</time>
      </trkpt>
      <trkpt lat="48.98387" lon="0.05045">
        <ele>174.07</ele>
        <time>2021-08-08T13:03:13Z</time>
      </trkpt>
      <trkpt lat="48.98381" lon="0.05045">
        <ele>174.02</ele>
        <time>2021-08-08T13:03:14Z</time>
      </trkpt>
      <trkpt lat="48.98376" lon="0.05049">
        <ele>174.01</ele>
        <time>2021-08-08T13:03:15Z</time>
      </trkpt>
      <trkpt lat="48.98368" lon="0.0505">
        <ele>174</ele>
        <time>2021-08-08T13:03:16Z</time>
      </trkpt>
      <trkpt lat="48.9836" lon="0.05049">
        <ele>173.96</ele>
        <time>2021-08-08T13:03:17Z</time>
      </trkpt>
      <trkpt lat="48.98353" lon="0.05047">
        <ele>173.79</ele>
        <time>2021-08-08T13:03:18Z</time>
      </trkpt>
      <trkpt lat="48.98348" lon="0.05045">
        <ele>173.59</ele>
        <time>2021-08-08T13:03:19Z</time>
      </trkpt>
      <trkpt lat="48.98341" lon="0.05045">
        <ele>173.36</ele>
        <time>2021-08-08T13:03:20Z</time>
      </trkpt>
      <trkpt lat="48.98334" lon="0.05045">
        <ele>173.12</ele>
        <time>2021-08-08T13:03:21Z</time>
      </trkpt>
      <trkpt lat="48.98328" lon="0.05044">
        <ele>173.04</ele>
        <time>2021-08-08T13:03:22Z</time>
      </trkpt>
      <trkpt lat="48.98322" lon="0.05042">
        <ele>173.01</ele>
        <time>2021-08-08T13:03:23Z</time>
      </trkpt>
      <trkpt lat="48.98315" lon="0.0504">
        <ele>173</ele>
        <time>2021-08-08T13:03:24Z</time>
      </trkpt>
      <trkpt lat="48.98308" lon="0.05038">
        <ele>173</ele>
        <time>2021-08-08T13:03:25Z</time>
      </trkpt>
      <trkpt lat="48.98302" lon="0.05037">
        <ele>172.9</ele>
        <time>2021-08-08T13:03:26Z</time>
      </trkpt>
      <trkpt lat="48.98295" lon="0.05036">
        <ele>172.7</ele>
        <time>2021-08-08T13:03:27Z</time>
      </trkpt>
      <trkpt lat="48.98288" lon="0.05035">
        <ele>172.47</ele>
        <time>2021-08-08T13:03:28Z</time>
      </trkpt>
      <trkpt lat="48.98282" lon="0.05035">
        <ele>172.23</ele>
        <time>2021-08-08T13:03:29Z</time>
      </trkpt>
      <trkpt lat="48.98276" lon="0.05038">
        <ele>172.02</ele>
        <time>2021-08-08T13:03:30Z</time>
      </trkpt>
      <trkpt lat="48.9827" lon="0.05042">
        <ele>171.8</ele>
        <time>2021-08-08T13:03:31Z</time>
      </trkpt>
      <trkpt lat="48.98248" lon="0.05045">
        <ele>170.98</ele>
        <time>2021-08-08T13:04:27Z</time>
      </trkpt>
      <trkpt lat="48.98249" lon="0.05042">
        <ele>170.98</ele>
        <time>2021-08-08T13:04:28Z</time>
      </trkpt>
      <trkpt lat="48.98249" lon="0.05039">
        <ele>170.99</ele>
        <time>2021-08-08T13:04:29Z</time>
      </trkpt>
      <trkpt lat="48.98249" lon="0.05037">
        <ele>170.98</ele>
        <time>2021-08-08T13:04:30Z</time>
      </trkpt>
      <trkpt lat="48.98248" lon="0.05034">
        <ele>170.96</ele>
        <time>2021-08-08T13:04:31Z</time>
      </trkpt>
      <trkpt lat="48.98248" lon="0.05028">
        <ele>170.93</ele>
        <time>2021-08-08T13:04:32Z</time>
      </trkpt>
      <trkpt lat="48.98248" lon="0.05022">
        <ele>170.79</ele>
        <time>2021-08-08T13:04:33Z</time>
      </trkpt>
      <trkpt lat="48.98248" lon="0.05016">
        <ele>170.58</ele>
        <time>2021-08-08T13:04:34Z</time>
      </trkpt>
      <trkpt lat="48.98248" lon="0.05008">
        <ele>170.34</ele>
        <time>2021-08-08T13:04:35Z</time>
      </trkpt>
      <trkpt lat="48.98247" lon="0.05">
        <ele>170.04</ele>
        <time>2021-08-08T13:04:36Z</time>
      </trkpt>
      <trkpt lat="48.98245" lon="0.04993">
        <ele>169.29</ele>
        <time>2021-08-08T13:04:37Z</time>
      </trkpt>
      <trkpt lat="48.98244" lon="0.04987">
        <ele>168.47</ele>
        <time>2021-08-08T13:04:38Z</time>
      </trkpt>
      <trkpt lat="48.9824" lon="0.04981">
        <ele>167.53</ele>
        <time>2021-08-08T13:04:39Z</time>
      </trkpt>
      <trkpt lat="48.98236" lon="0.04975">
        <ele>166.37</ele>
        <time>2021-08-08T13:04:40Z</time>
      </trkpt>
      <trkpt lat="48.9823" lon="0.04971">
        <ele>165.23</ele>
        <time>2021-08-08T13:04:41Z</time>
      </trkpt>
      <trkpt lat="48.98224" lon="0.04968">
        <ele>164.14</ele>
        <time>2021-08-08T13:04:42Z</time>
      </trkpt>
      <trkpt lat="48.98217" lon="0.04966">
        <ele>163.14</ele>
        <time>2021-08-08T13:04:43Z</time>
      </trkpt>
      <trkpt lat="48.98208" lon="0.04964">
        <ele>162.05</ele>
        <time>2021-08-08T13:04:44Z</time>
      </trkpt>
      <trkpt lat="48.98199" lon="0.04961">
        <ele>160.82</ele>
        <time>2021-08-08T13:04:45Z</time>
      </trkpt>
      <trkpt lat="48.98189" lon="0.04957">
        <ele>159.54</ele>
        <time>2021-08-08T13:04:46Z</time>
      </trkpt>
      <trkpt lat="48.98179" lon="0.04955">
        <ele>158.52</ele>
        <time>2021-08-08T13:04:47Z</time>
      </trkpt>
      <trkpt lat="48.98168" lon="0.04954">
        <ele>157.5</ele>
        <time>2021-08-08T13:04:48Z</time>
      </trkpt>
      <trkpt lat="48.98157" lon="0.0495">
        <ele>156.14</ele>
        <time>2021-08-08T13:04:49Z</time>
      </trkpt>
      <trkpt lat="48.98147" lon="0.04947">
        <ele>154.69</ele>
        <time>2021-08-08T13:04:50Z</time>
      </trkpt>
      <trkpt lat="48.98137" lon="0.04944">
        <ele>153.37</ele>
        <time>2021-08-08T13:04:51Z</time>
      </trkpt>
      <trkpt lat="48.98129" lon="0.04942">
        <ele>152.55</ele>
        <time>2021-08-08T13:04:52Z</time>
      </trkpt>
      <trkpt lat="48.98121" lon="0.04939">
        <ele>151.68</ele>
        <time>2021-08-08T13:04:53Z</time>
      </trkpt>
      <trkpt lat="48.98113" lon="0.04936">
        <ele>150.73</ele>
        <time>2021-08-08T13:04:54Z</time>
      </trkpt>
      <trkpt lat="48.98104" lon="0.04929">
        <ele>148.96</ele>
        <time>2021-08-08T13:04:55Z</time>
      </trkpt>
      <trkpt lat="48.98096" lon="0.04926">
        <ele>147.51</ele>
        <time>2021-08-08T13:04:56Z</time>
      </trkpt>
      <trkpt lat="48.98088" lon="0.04922">
        <ele>146.14</ele>
        <time>2021-08-08T13:04:57Z</time>
      </trkpt>
      <trkpt lat="48.98081" lon="0.04919">
        <ele>145.01</ele>
        <time>2021-08-08T13:04:58Z</time>
      </trkpt>
      <trkpt lat="48.98073" lon="0.04916">
        <ele>143.89</ele>
        <time>2021-08-08T13:04:59Z</time>
      </trkpt>
      <trkpt lat="48.98066" lon="0.04912">
        <ele>142.83</ele>
        <time>2021-08-08T13:05:00Z</time>
      </trkpt>
      <trkpt lat="48.98059" lon="0.04908">
        <ele>141.95</ele>
        <time>2021-08-08T13:05:01Z</time>
      </trkpt>
      <trkpt lat="48.98054" lon="0.04904">
        <ele>141.09</ele>
        <time>2021-08-08T13:05:02Z</time>
      </trkpt>
      <trkpt lat="48.98046" lon="0.04899">
        <ele>140.47</ele>
        <time>2021-08-08T13:05:03Z</time>
      </trkpt>
      <trkpt lat="48.98042" lon="0.04895">
        <ele>139.79</ele>
        <time>2021-08-08T13:05:04Z</time>
      </trkpt>
      <trkpt lat="48.98035" lon="0.04891">
        <ele>139.32</ele>
        <time>2021-08-08T13:05:05Z</time>
      </trkpt>
      <trkpt lat="48.9803" lon="0.04887">
        <ele>138.82</ele>
        <time>2021-08-08T13:05:06Z</time>
      </trkpt>
      <trkpt lat="48.98024" lon="0.04883">
        <ele>138.2</ele>
        <time>2021-08-08T13:05:07Z</time>
      </trkpt>
      <trkpt lat="48.98016" lon="0.04879">
        <ele>137.51</ele>
        <time>2021-08-08T13:05:08Z</time>
      </trkpt>
      <trkpt lat="48.98008" lon="0.04873">
        <ele>136.68</ele>
        <time>2021-08-08T13:05:09Z</time>
      </trkpt>
      <trkpt lat="48.97999" lon="0.04866">
        <ele>135.5</ele>
        <time>2021-08-08T13:05:10Z</time>
      </trkpt>
      <trkpt lat="48.9799" lon="0.0486">
        <ele>134.58</ele>
        <time>2021-08-08T13:05:11Z</time>
      </trkpt>
      <trkpt lat="48.97981" lon="0.04857">
        <ele>134.14</ele>
        <time>2021-08-08T13:05:12Z</time>
      </trkpt>
      <trkpt lat="48.9797" lon="0.0485">
        <ele>133.45</ele>
        <time>2021-08-08T13:05:13Z</time>
      </trkpt>
      <trkpt lat="48.9796" lon="0.04844">
        <ele>132.92</ele>
        <time>2021-08-08T13:05:14Z</time>
      </trkpt>
      <trkpt lat="48.97953" lon="0.04836">
        <ele>132.15</ele>
        <time>2021-08-08T13:05:15Z</time>
      </trkpt>
      <trkpt lat="48.97946" lon="0.0483">
        <ele>131.63</ele>
        <time>2021-08-08T13:05:16Z</time>
      </trkpt>
      <trkpt lat="48.9794" lon="0.04825">
        <ele>130.94</ele>
        <time>2021-08-08T13:05:17Z</time>
      </trkpt>
      <trkpt lat="48.97934" lon="0.04818">
        <ele>130.01</ele>
        <time>2021-08-08T13:05:18Z</time>
      </trkpt>
      <trkpt lat="48.97929" lon="0.04813">
        <ele>129.21</ele>
        <time>2021-08-08T13:05:19Z</time>
      </trkpt>
      <trkpt lat="48.97925" lon="0.04807">
        <ele>128.48</ele>
        <time>2021-08-08T13:05:20Z</time>
      </trkpt>
      <trkpt lat="48.97921" lon="0.04802">
        <ele>127.85</ele>
        <time>2021-08-08T13:05:21Z</time>
      </trkpt>
      <trkpt lat="48.97919" lon="0.04797">
        <ele>127.27</ele>
        <time>2021-08-08T13:05:22Z</time>
      </trkpt>
      <trkpt lat="48.97918" lon="0.04794">
        <ele>126.95</ele>
        <time>2021-08-08T13:05:23Z</time>
      </trkpt>
      <trkpt lat="48.97916" lon="0.04791">
        <ele>126.55</ele>
        <time>2021-08-08T13:05:24Z</time>
      </trkpt>
      <trkpt lat="48.97913" lon="0.04786">
        <ele>125.96</ele>
        <time>2021-08-08T13:05:25Z</time>
      </trkpt>
      <trkpt lat="48.9791" lon="0.04778">
        <ele>125.14</ele>
        <time>2021-08-08T13:05:26Z</time>
      </trkpt>
      <trkpt lat="48.97907" lon="0.04772">
        <ele>124.5</ele>
        <time>2021-08-08T13:05:27Z</time>
      </trkpt>
      <trkpt lat="48.97902" lon="0.04764">
        <ele>123.8</ele>
        <time>2021-08-08T13:05:28Z</time>
      </trkpt>
      <trkpt lat="48.97898" lon="0.04756">
        <ele>123.09</ele>
        <time>2021-08-08T13:05:29Z</time>
      </trkpt>
      <trkpt lat="48.97894" lon="0.04749">
        <ele>122.41</ele>
        <time>2021-08-08T13:05:30Z</time>
      </trkpt>
      <trkpt lat="48.97889" lon="0.04742">
        <ele>121.56</ele>
        <time>2021-08-08T13:05:31Z</time>
      </trkpt>
      <trkpt lat="48.97886" lon="0.04735">
        <ele>120.61</ele>
        <time>2021-08-08T13:05:32Z</time>
      </trkpt>
      <trkpt lat="48.97881" lon="0.04732">
        <ele>119.81</ele>
        <time>2021-08-08T13:05:33Z</time>
      </trkpt>
      <trkpt lat="48.97877" lon="0.04728">
        <ele>119.11</ele>
        <time>2021-08-08T13:05:34Z</time>
      </trkpt>
      <trkpt lat="48.97875" lon="0.04727">
        <ele>118.72</ele>
        <time>2021-08-08T13:05:35Z</time>
      </trkpt>
      <trkpt lat="48.97875" lon="0.04727">
        <ele>118.56</ele>
        <time>2021-08-08T13:05:36Z</time>
      </trkpt>
      <trkpt lat="48.97874" lon="0.04726">
        <ele>118.44</ele>
        <time>2021-08-08T13:05:37Z</time>
      </trkpt>
      <trkpt lat="48.97873" lon="0.04726">
        <ele>118.35</ele>
        <time>2021-08-08T13:05:38Z</time>
      </trkpt>
      <trkpt lat="48.97873" lon="0.04726">
        <ele>118.32</ele>
        <time>2021-08-08T13:05:39Z</time>
      </trkpt>
      <trkpt lat="48.97873" lon="0.04726">
        <ele>118.32</ele>
        <time>2021-08-08T13:05:40Z</time>
      </trkpt>
      <trkpt lat="48.97873" lon="0.04726">
        <ele>118.31</ele>
        <time>2021-08-08T13:05:41Z</time>
      </trkpt>
      <trkpt lat="48.97873" lon="0.04726">
        <ele>118.31</ele>
        <time>2021-08-08T13:05:42Z</time>
      </trkpt>
      <trkpt lat="48.97873" lon="0.04726">
        <ele>118.31</ele>
        <time>2021-08-08T13:05:43Z</time>
      </trkpt>
      <trkpt lat="48.97867" lon="0.04718">
        <ele>117.41</ele>
        <time>2021-08-08T13:05:44Z</time>
      </trkpt>
      <trkpt lat="48.97864" lon="0.04712">
        <ele>116.71</ele>
        <time>2021-08-08T13:05:45Z</time>
      </trkpt>
      <trkpt lat="48.97859" lon="0.04708">
        <ele>115.99</ele>
        <time>2021-08-08T13:05:46Z</time>
      </trkpt>
      <trkpt lat="48.97854" lon="0.04705">
        <ele>115.22</ele>
        <time>2021-08-08T13:05:47Z</time>
      </trkpt>
      <trkpt lat="48.97849" lon="0.04705">
        <ele>114.57</ele>
        <time>2021-08-08T13:05:48Z</time>
      </trkpt>
      <trkpt lat="48.97843" lon="0.04707">
        <ele>113.97</ele>
        <time>2021-08-08T13:05:49Z</time>
      </trkpt>
      <trkpt lat="48.97838" lon="0.04708">
        <ele>113.3</ele>
        <time>2021-08-08T13:05:50Z</time>
      </trkpt>
      <trkpt lat="48.97832" lon="0.04709">
        <ele>112.58</ele>
        <time>2021-08-08T13:05:51Z</time>
      </trkpt>
      <trkpt lat="48.97826" lon="0.04711">
        <ele>111.99</ele>
        <time>2021-08-08T13:05:52Z</time>
      </trkpt>
      <trkpt lat="48.97819" lon="0.04713">
        <ele>111.32</ele>
        <time>2021-08-08T13:05:53Z</time>
      </trkpt>
      <trkpt lat="48.97814" lon="0.0472">
        <ele>110.97</ele>
        <time>2021-08-08T13:05:54Z</time>
      </trkpt>
      <trkpt lat="48.97807" lon="0.04723">
        <ele>110.45</ele>
        <time>2021-08-08T13:05:55Z</time>
      </trkpt>
      <trkpt lat="48.978" lon="0.04726">
        <ele>109.66</ele>
        <time>2021-08-08T13:05:56Z</time>
      </trkpt>
      <trkpt lat="48.97791" lon="0.0473">
        <ele>108.62</ele>
        <time>2021-08-08T13:05:57Z</time>
      </trkpt>
      <trkpt lat="48.97786" lon="0.04735">
        <ele>107.89</ele>
        <time>2021-08-08T13:05:58Z</time>
      </trkpt>
      <trkpt lat="48.97777" lon="0.04737">
        <ele>106.89</ele>
        <time>2021-08-08T13:05:59Z</time>
      </trkpt>
      <trkpt lat="48.97767" lon="0.04738">
        <ele>105.97</ele>
        <time>2021-08-08T13:06:00Z</time>
      </trkpt>
      <trkpt lat="48.97757" lon="0.04739">
        <ele>105.04</ele>
        <time>2021-08-08T13:06:01Z</time>
      </trkpt>
      <trkpt lat="48.97746" lon="0.0474">
        <ele>104</ele>
        <time>2021-08-08T13:06:02Z</time>
      </trkpt>
      <trkpt lat="48.97735" lon="0.04742">
        <ele>102.88</ele>
        <time>2021-08-08T13:06:03Z</time>
      </trkpt>
      <trkpt lat="48.97726" lon="0.04744">
        <ele>101.84</ele>
        <time>2021-08-08T13:06:04Z</time>
      </trkpt>
      <trkpt lat="48.97715" lon="0.04748">
        <ele>100.7</ele>
        <time>2021-08-08T13:06:05Z</time>
      </trkpt>
      <trkpt lat="48.97703" lon="0.04753">
        <ele>99.44</ele>
        <time>2021-08-08T13:06:06Z</time>
      </trkpt>
      <trkpt lat="48.97691" lon="0.04758">
        <ele>98.21</ele>
        <time>2021-08-08T13:06:07Z</time>
      </trkpt>
      <trkpt lat="48.97678" lon="0.04758">
        <ele>97.13</ele>
        <time>2021-08-08T13:06:08Z</time>
      </trkpt>
      <trkpt lat="48.97666" lon="0.0476">
        <ele>96.06</ele>
        <time>2021-08-08T13:06:09Z</time>
      </trkpt>
      <trkpt lat="48.97656" lon="0.04764">
        <ele>95.11</ele>
        <time>2021-08-08T13:06:10Z</time>
      </trkpt>
      <trkpt lat="48.97644" lon="0.04767">
        <ele>94.16</ele>
        <time>2021-08-08T13:06:11Z</time>
      </trkpt>
      <trkpt lat="48.97633" lon="0.04769">
        <ele>93.41</ele>
        <time>2021-08-08T13:06:12Z</time>
      </trkpt>
      <trkpt lat="48.97623" lon="0.04771">
        <ele>92.89</ele>
        <time>2021-08-08T13:06:13Z</time>
      </trkpt>
      <trkpt lat="48.97615" lon="0.04774">
        <ele>92.44</ele>
        <time>2021-08-08T13:06:14Z</time>
      </trkpt>
      <trkpt lat="48.97604" lon="0.04774">
        <ele>92.04</ele>
        <time>2021-08-08T13:06:15Z</time>
      </trkpt>
      <trkpt lat="48.97598" lon="0.04773">
        <ele>91.81</ele>
        <time>2021-08-08T13:06:16Z</time>
      </trkpt>
      <trkpt lat="48.97591" lon="0.04769">
        <ele>91.66</ele>
        <time>2021-08-08T13:06:17Z</time>
      </trkpt>
      <trkpt lat="48.97586" lon="0.04765">
        <ele>91.57</ele>
        <time>2021-08-08T13:06:18Z</time>
      </trkpt>
      <trkpt lat="48.97581" lon="0.04761">
        <ele>91.55</ele>
        <time>2021-08-08T13:06:19Z</time>
      </trkpt>
      <trkpt lat="48.97576" lon="0.0476">
        <ele>91.53</ele>
        <time>2021-08-08T13:06:20Z</time>
      </trkpt>
      <trkpt lat="48.97571" lon="0.04761">
        <ele>91.47</ele>
        <time>2021-08-08T13:06:21Z</time>
      </trkpt>
      <trkpt lat="48.97567" lon="0.04763">
        <ele>91.34</ele>
        <time>2021-08-08T13:06:22Z</time>
      </trkpt>
      <trkpt lat="48.97563" lon="0.04765">
        <ele>91.13</ele>
        <time>2021-08-08T13:06:23Z</time>
      </trkpt>
      <trkpt lat="48.97557" lon="0.0477">
        <ele>90.78</ele>
        <time>2021-08-08T13:06:24Z</time>
      </trkpt>
      <trkpt lat="48.97552" lon="0.04775">
        <ele>90.39</ele>
        <time>2021-08-08T13:06:25Z</time>
      </trkpt>
      <trkpt lat="48.97547" lon="0.0478">
        <ele>90.07</ele>
        <time>2021-08-08T13:06:26Z</time>
      </trkpt>
      <trkpt lat="48.97542" lon="0.04784">
        <ele>89.87</ele>
        <time>2021-08-08T13:06:27Z</time>
      </trkpt>
      <trkpt lat="48.97536" lon="0.04788">
        <ele>89.7</ele>
        <time>2021-08-08T13:06:28Z</time>
      </trkpt>
      <trkpt lat="48.9753" lon="0.04792">
        <ele>89.55</ele>
        <time>2021-08-08T13:06:29Z</time>
      </trkpt>
      <trkpt lat="48.97525" lon="0.04798">
        <ele>89.23</ele>
        <time>2021-08-08T13:06:30Z</time>
      </trkpt>
      <trkpt lat="48.97519" lon="0.04804">
        <ele>88.71</ele>
        <time>2021-08-08T13:06:31Z</time>
      </trkpt>
      <trkpt lat="48.97513" lon="0.0481">
        <ele>88.04</ele>
        <time>2021-08-08T13:06:32Z</time>
      </trkpt>
      <trkpt lat="48.97507" lon="0.04816">
        <ele>87.34</ele>
        <time>2021-08-08T13:06:33Z</time>
      </trkpt>
      <trkpt lat="48.97501" lon="0.04823">
        <ele>86.7</ele>
        <time>2021-08-08T13:06:34Z</time>
      </trkpt>
      <trkpt lat="48.97494" lon="0.04828">
        <ele>86.2</ele>
        <time>2021-08-08T13:06:35Z</time>
      </trkpt>
      <trkpt lat="48.97488" lon="0.04833">
        <ele>85.76</ele>
        <time>2021-08-08T13:06:36Z</time>
      </trkpt>
      <trkpt lat="48.97482" lon="0.04838">
        <ele>85.37</ele>
        <time>2021-08-08T13:06:37Z</time>
      </trkpt>
      <trkpt lat="48.97476" lon="0.04841">
        <ele>85.03</ele>
        <time>2021-08-08T13:06:38Z</time>
      </trkpt>
      <trkpt lat="48.9747" lon="0.04843">
        <ele>84.75</ele>
        <time>2021-08-08T13:06:39Z</time>
      </trkpt>
      <trkpt lat="48.97464" lon="0.04845">
        <ele>84.64</ele>
        <time>2021-08-08T13:06:40Z</time>
      </trkpt>
      <trkpt lat="48.97459" lon="0.04845">
        <ele>84.59</ele>
        <time>2021-08-08T13:06:41Z</time>
      </trkpt>
      <trkpt lat="48.97457" lon="0.04847">
        <ele>84.54</ele>
        <time>2021-08-08T13:06:42Z</time>
      </trkpt>
      <trkpt lat="48.97456" lon="0.04847">
        <ele>84.5</ele>
        <time>2021-08-08T13:06:43Z</time>
      </trkpt>
      <trkpt lat="48.97456" lon="0.04849">
        <ele>84.45</ele>
        <time>2021-08-08T13:06:44Z</time>
      </trkpt>
      <trkpt lat="48.97456" lon="0.04849">
        <ele>84.44</ele>
        <time>2021-08-08T13:06:45Z</time>
      </trkpt>
      <trkpt lat="48.97456" lon="0.04849">
        <ele>84.45</ele>
        <time>2021-08-08T13:06:46Z</time>
      </trkpt>
      <trkpt lat="48.97456" lon="0.04849">
        <ele>84.45</ele>
        <time>2021-08-08T13:06:47Z</time>
      </trkpt>
      <trkpt lat="48.97456" lon="0.04849">
        <ele>84.45</ele>
        <time>2021-08-08T13:06:48Z</time>
      </trkpt>
      <trkpt lat="48.97456" lon="0.04849">
        <ele>84.45</ele>
        <time>2021-08-08T13:06:49Z</time>
      </trkpt>
      <trkpt lat="48.97456" lon="0.04849">
        <ele>84.45</ele>
        <time>2021-08-08T13:06:50Z</time>
      </trkpt>
      <trkpt lat="48.97456" lon="0.04849">
        <ele>84.45</ele>
        <time>2021-08-08T13:06:51Z</time>
      </trkpt>
      <trkpt lat="48.97456" lon="0.04849">
        <ele>84.45</ele>
        <time>2021-08-08T13:06:52Z</time>
      </trkpt>
      <trkpt lat="48.97456" lon="0.04849">
        <ele>84.45</ele>
        <time>2021-08-08T13:06:53Z</time>
      </trkpt>
      <trkpt lat="48.97456" lon="0.04849">
        <ele>84.45</ele>
        <time>2021-08-08T13:06:54Z</time>
      </trkpt>
      <trkpt lat="48.97456" lon="0.04849">
        <ele>84.45</ele>
        <time>2021-08-08T13:06:55Z</time>
      </trkpt>
      <trkpt lat="48.97456" lon="0.04849">
        <ele>84.45</ele>
        <time>2021-08-08T13:06:56Z</time>
      </trkpt>
      <trkpt lat="48.97456" lon="0.04849">
        <ele>84.45</ele>
        <time>2021-08-08T13:06:57Z</time>
      </trkpt>
      <trkpt lat="48.97456" lon="0.04849">
        <ele>84.45</ele>
        <time>2021-08-08T13:06:58Z</time>
      </trkpt>
      <trkpt lat="48.97456" lon="0.04849">
        <ele>84.45</ele>
        <time>2021-08-08T13:06:59Z</time>
      </trkpt>
      <trkpt lat="48.97456" lon="0.04849">
        <ele>84.45</ele>
        <time>2021-08-08T13:07:00Z</time>
      </trkpt>
      <trkpt lat="48.97456" lon="0.04849">
        <ele>84.45</ele>
        <time>2021-08-08T13:07:01Z</time>
      </trkpt>
      <trkpt lat="48.97456" lon="0.04849">
        <ele>84.45</ele>
        <time>2021-08-08T13:07:02Z</time>
      </trkpt>
      <trkpt lat="48.97456" lon="0.04849">
        <ele>84.45</ele>
        <time>2021-08-08T13:07:03Z</time>
      </trkpt>
      <trkpt lat="48.97456" lon="0.04849">
        <ele>84.45</ele>
        <time>2021-08-08T13:07:04Z</time>
      </trkpt>
      <trkpt lat="48.97456" lon="0.04849">
        <ele>84.45</ele>
        <time>2021-08-08T13:07:05Z</time>
      </trkpt>
      <trkpt lat="48.97456" lon="0.04849">
        <ele>84.45</ele>
        <time>2021-08-08T13:07:06Z</time>
      </trkpt>
      <trkpt lat="48.97456" lon="0.04849">
        <ele>84.45</ele>
        <time>2021-08-08T13:07:07Z</time>
      </trkpt>
      <trkpt lat="48.97456" lon="0.04849">
        <ele>84.45</ele>
        <time>2021-08-08T13:07:08Z</time>
      </trkpt>
      <trkpt lat="48.97456" lon="0.04849">
        <ele>84.45</ele>
        <time>2021-08-08T13:07:09Z</time>
      </trkpt>
      <trkpt lat="48.97456" lon="0.04849">
        <ele>84.45</ele>
        <time>2021-08-08T13:07:10Z</time>
      </trkpt>
      <trkpt lat="48.97456" lon="0.04849">
        <ele>84.45</ele>
        <time>2021-08-08T13:07:11Z</time>
      </trkpt>
      <trkpt lat="48.97456" lon="0.04849">
        <ele>84.45</ele>
        <time>2021-08-08T13:07:12Z</time>
      </trkpt>
      <trkpt lat="48.97456" lon="0.04849">
        <ele>84.45</ele>
        <time>2021-08-08T13:07:13Z</time>
      </trkpt>
      <trkpt lat="48.97456" lon="0.04849">
        <ele>84.45</ele>
        <time>2021-08-08T13:07:14Z</time>
      </trkpt>
      <trkpt lat="48.97456" lon="0.04849">
        <ele>84.45</ele>
        <time>2021-08-08T13:07:15Z</time>
      </trkpt>
      <trkpt lat="48.97456" lon="0.04849">
        <ele>84.45</ele>
        <time>2021-08-08T13:07:16Z</time>
      </trkpt>
      <trkpt lat="48.97456" lon="0.04849">
        <ele>84.45</ele>
        <time>2021-08-08T13:07:17Z</time>
      </trkpt>
      <trkpt lat="48.97456" lon="0.04849">
        <ele>84.45</ele>
        <time>2021-08-08T13:07:18Z</time>
      </trkpt>
      <trkpt lat="48.97456" lon="0.04849">
        <ele>84.45</ele>
        <time>2021-08-08T13:07:19Z</time>
      </trkpt>
      <trkpt lat="48.97456" lon="0.04849">
        <ele>84.45</ele>
        <time>2021-08-08T13:07:20Z</time>
      </trkpt>
      <trkpt lat="48.97456" lon="0.04849">
        <ele>84.45</ele>
        <time>2021-08-08T13:07:21Z</time>
      </trkpt>
      <trkpt lat="48.97456" lon="0.04849">
        <ele>84.45</ele>
        <time>2021-08-08T13:07:22Z</time>
      </trkpt>
      <trkpt lat="48.97456" lon="0.04849">
        <ele>84.45</ele>
        <time>2021-08-08T13:07:23Z</time>
      </trkpt>
      <trkpt lat="48.97456" lon="0.04849">
        <ele>84.45</ele>
        <time>2021-08-08T13:07:24Z</time>
      </trkpt>
      <trkpt lat="48.97456" lon="0.04849">
        <ele>84.45</ele>
        <time>2021-08-08T13:07:25Z</time>
      </trkpt>
      <trkpt lat="48.97456" lon="0.04849">
        <ele>84.45</ele>
        <time>2021-08-08T13:07:26Z</time>
      </trkpt>
      <trkpt lat="48.97456" lon="0.04849">
        <ele>84.45</ele>
        <time>2021-08-08T13:07:27Z</time>
      </trkpt>
      <trkpt lat="48.97456" lon="0.04849">
        <ele>84.45</ele>
        <time>2021-08-08T13:07:28Z</time>
      </trkpt>
      <trkpt lat="48.97456" lon="0.04849">
        <ele>84.45</ele>
        <time>2021-08-08T13:07:29Z</time>
      </trkpt>
      <trkpt lat="48.97456" lon="0.04849">
        <ele>84.45</ele>
        <time>2021-08-08T13:07:30Z</time>
      </trkpt>
      <trkpt lat="48.97456" lon="0.04849">
        <ele>84.45</ele>
        <time>2021-08-08T13:07:31Z</time>
      </trkpt>
      <trkpt lat="48.97456" lon="0.04849">
        <ele>84.45</ele>
        <time>2021-08-08T13:07:32Z</time>
      </trkpt>
      <trkpt lat="48.97456" lon="0.04849">
        <ele>84.45</ele>
        <time>2021-08-08T13:07:33Z</time>
      </trkpt>
      <trkpt lat="48.97456" lon="0.04849">
        <ele>84.45</ele>
        <time>2021-08-08T13:07:34Z</time>
      </trkpt>
      <trkpt lat="48.97456" lon="0.04849">
        <ele>84.45</ele>
        <time>2021-08-08T13:07:35Z</time>
      </trkpt>
      <trkpt lat="48.97456" lon="0.04849">
        <ele>84.45</ele>
        <time>2021-08-08T13:07:36Z</time>
      </trkpt>
      <trkpt lat="48.97456" lon="0.04849">
        <ele>84.45</ele>
        <time>2021-08-08T13:07:37Z</time>
      </trkpt>
      <trkpt lat="48.97456" lon="0.04849">
        <ele>84.45</ele>
        <time>2021-08-08T13:07:38Z</time>
      </trkpt>
      <trkpt lat="48.97456" lon="0.04849">
        <ele>84.45</ele>
        <time>2021-08-08T13:07:39Z</time>
      </trkpt>
      <trkpt lat="48.97456" lon="0.04849">
        <ele>84.45</ele>
        <time>2021-08-08T13:07:40Z</time>
      </trkpt>
      <trkpt lat="48.97456" lon="0.04849">
        <ele>84.45</ele>
        <time>2021-08-08T13:07:41Z</time>
      </trkpt>
      <trkpt lat="48.97456" lon="0.04849">
        <ele>84.45</ele>
        <time>2021-08-08T13:07:42Z</time>
      </trkpt>
      <trkpt lat="48.97456" lon="0.04849">
        <ele>84.45</ele>
        <time>2021-08-08T13:07:43Z</time>
      </trkpt>
      <trkpt lat="48.97456" lon="0.04849">
        <ele>84.45</ele>
        <time>2021-08-08T13:07:44Z</time>
      </trkpt>
      <trkpt lat="48.97456" lon="0.04849">
        <ele>84.45</ele>
        <time>2021-08-08T13:07:45Z</time>
      </trkpt>
      <trkpt lat="48.97456" lon="0.04849">
        <ele>84.45</ele>
        <time>2021-08-08T13:07:46Z</time>
      </trkpt>
      <trkpt lat="48.97456" lon="0.04849">
        <ele>84.45</ele>
        <time>2021-08-08T13:07:47Z</time>
      </trkpt>
      <trkpt lat="48.97456" lon="0.04849">
        <ele>84.45</ele>
        <time>2021-08-08T13:07:48Z</time>
      </trkpt>
      <trkpt lat="48.97456" lon="0.04849">
        <ele>84.45</ele>
        <time>2021-08-08T13:07:49Z</time>
      </trkpt>
      <trkpt lat="48.97456" lon="0.04849">
        <ele>84.45</ele>
        <time>2021-08-08T13:07:50Z</time>
      </trkpt>
      <trkpt lat="48.97456" lon="0.04849">
        <ele>84.45</ele>
        <time>2021-08-08T13:07:51Z</time>
      </trkpt>
      <trkpt lat="48.97456" lon="0.04849">
        <ele>84.45</ele>
        <time>2021-08-08T13:07:52Z</time>
      </trkpt>
      <trkpt lat="48.97456" lon="0.04849">
        <ele>84.45</ele>
        <time>2021-08-08T13:07:53Z</time>
      </trkpt>
      <trkpt lat="48.97456" lon="0.04849">
        <ele>84.45</ele>
        <time>2021-08-08T13:07:54Z</time>
      </trkpt>
      <trkpt lat="48.97456" lon="0.04849">
        <ele>84.45</ele>
        <time>2021-08-08T13:07:55Z</time>
      </trkpt>
      <trkpt lat="48.97456" lon="0.04849">
        <ele>84.45</ele>
        <time>2021-08-08T13:07:56Z</time>
      </trkpt>
      <trkpt lat="48.97456" lon="0.04849">
        <ele>84.45</ele>
        <time>2021-08-08T13:07:57Z</time>
      </trkpt>
      <trkpt lat="48.97456" lon="0.04849">
        <ele>84.45</ele>
        <time>2021-08-08T13:07:58Z</time>
      </trkpt>
      <trkpt lat="48.97456" lon="0.04849">
        <ele>84.45</ele>
        <time>2021-08-08T13:07:59Z</time>
      </trkpt>
      <trkpt lat="48.97456" lon="0.04849">
        <ele>84.45</ele>
        <time>2021-08-08T13:08:00Z</time>
      </trkpt>
      <trkpt lat="48.97456" lon="0.04849">
        <ele>84.45</ele>
        <time>2021-08-08T13:08:01Z</time>
      </trkpt>
      <trkpt lat="48.97456" lon="0.04849">
        <ele>84.45</ele>
        <time>2021-08-08T13:08:02Z</time>
      </trkpt>
      <trkpt lat="48.97456" lon="0.04849">
        <ele>84.45</ele>
        <time>2021-08-08T13:08:03Z</time>
      </trkpt>
      <trkpt lat="48.97456" lon="0.04849">
        <ele>84.45</ele>
        <time>2021-08-08T13:08:04Z</time>
      </trkpt>
      <trkpt lat="48.97456" lon="0.04849">
        <ele>84.45</ele>
        <time>2021-08-08T13:08:05Z</time>
      </trkpt>
      <trkpt lat="48.97456" lon="0.04849">
        <ele>84.45</ele>
        <time>2021-08-08T13:08:06Z</time>
      </trkpt>
      <trkpt lat="48.97456" lon="0.04849">
        <ele>84.45</ele>
        <time>2021-08-08T13:08:07Z</time>
      </trkpt>
      <trkpt lat="48.97456" lon="0.04849">
        <ele>84.45</ele>
        <time>2021-08-08T13:08:08Z</time>
      </trkpt>
      <trkpt lat="48.97456" lon="0.04849">
        <ele>84.45</ele>
        <time>2021-08-08T13:08:09Z</time>
      </trkpt>
      <trkpt lat="48.97456" lon="0.04849">
        <ele>84.45</ele>
        <time>2021-08-08T13:08:10Z</time>
      </trkpt>
      <trkpt lat="48.97456" lon="0.04849">
        <ele>84.45</ele>
        <time>2021-08-08T13:08:11Z</time>
      </trkpt>
      <trkpt lat="48.97456" lon="0.04849">
        <ele>84.45</ele>
        <time>2021-08-08T13:08:12Z</time>
      </trkpt>
      <trkpt lat="48.97456" lon="0.04849">
        <ele>84.45</ele>
        <time>2021-08-08T13:08:13Z</time>
      </trkpt>
      <trkpt lat="48.97456" lon="0.04849">
        <ele>84.45</ele>
        <time>2021-08-08T13:08:14Z</time>
      </trkpt>
      <trkpt lat="48.97456" lon="0.04849">
        <ele>84.45</ele>
        <time>2021-08-08T13:08:15Z</time>
      </trkpt>
      <trkpt lat="48.97456" lon="0.04849">
        <ele>84.45</ele>
        <time>2021-08-08T13:08:16Z</time>
      </trkpt>
      <trkpt lat="48.97456" lon="0.04849">
        <ele>84.45</ele>
        <time>2021-08-08T13:08:17Z</time>
      </trkpt>
      <trkpt lat="48.97456" lon="0.04849">
        <ele>84.45</ele>
        <time>2021-08-08T13:08:18Z</time>
      </trkpt>
      <trkpt lat="48.97456" lon="0.04849">
        <ele>84.45</ele>
        <time>2021-08-08T13:08:19Z</time>
      </trkpt>
      <trkpt lat="48.97456" lon="0.04849">
        <ele>84.45</ele>
        <time>2021-08-08T13:08:20Z</time>
      </trkpt>
      <trkpt lat="48.97456" lon="0.04849">
        <ele>84.45</ele>
        <time>2021-08-08T13:08:21Z</time>
      </trkpt>
      <trkpt lat="48.97456" lon="0.04849">
        <ele>84.45</ele>
        <time>2021-08-08T13:08:22Z</time>
      </trkpt>
      <trkpt lat="48.97456" lon="0.04849">
        <ele>84.45</ele>
        <time>2021-08-08T13:08:23Z</time>
      </trkpt>
      <trkpt lat="48.97456" lon="0.04849">
        <ele>84.45</ele>
        <time>2021-08-08T13:08:24Z</time>
      </trkpt>
      <trkpt lat="48.97456" lon="0.04849">
        <ele>84.45</ele>
        <time>2021-08-08T13:08:25Z</time>
      </trkpt>
      <trkpt lat="48.97454" lon="0.04853">
        <ele>84.34</ele>
        <time>2021-08-08T13:08:26Z</time>
      </trkpt>
      <trkpt lat="48.97452" lon="0.04858">
        <ele>84.19</ele>
        <time>2021-08-08T13:08:27Z</time>
      </trkpt>
      <trkpt lat="48.97451" lon="0.04864">
        <ele>84.01</ele>
        <time>2021-08-08T13:08:28Z</time>
      </trkpt>
      <trkpt lat="48.9745" lon="0.04871">
        <ele>83.8</ele>
        <time>2021-08-08T13:08:29Z</time>
      </trkpt>
      <trkpt lat="48.97449" lon="0.04877">
        <ele>83.6</ele>
        <time>2021-08-08T13:08:30Z</time>
      </trkpt>
      <trkpt lat="48.97448" lon="0.04882">
        <ele>83.41</ele>
        <time>2021-08-08T13:08:31Z</time>
      </trkpt>
      <trkpt lat="48.97446" lon="0.04888">
        <ele>83.19</ele>
        <time>2021-08-08T13:08:32Z</time>
      </trkpt>
      <trkpt lat="48.97445" lon="0.04895">
        <ele>83.08</ele>
        <time>2021-08-08T13:08:33Z</time>
      </trkpt>
      <trkpt lat="48.97444" lon="0.04902">
        <ele>83.02</ele>
        <time>2021-08-08T13:08:34Z</time>
      </trkpt>
      <trkpt lat="48.97443" lon="0.04908">
        <ele>82.97</ele>
        <time>2021-08-08T13:08:35Z</time>
      </trkpt>
      <trkpt lat="48.97442" lon="0.04914">
        <ele>82.93</ele>
        <time>2021-08-08T13:08:36Z</time>
      </trkpt>
      <trkpt lat="48.9744" lon="0.04921">
        <ele>82.79</ele>
        <time>2021-08-08T13:08:37Z</time>
      </trkpt>
      <trkpt lat="48.97439" lon="0.04928">
        <ele>82.57</ele>
        <time>2021-08-08T13:08:38Z</time>
      </trkpt>
      <trkpt lat="48.97437" lon="0.04935">
        <ele>82.34</ele>
        <time>2021-08-08T13:08:39Z</time>
      </trkpt>
      <trkpt lat="48.97435" lon="0.04942">
        <ele>82.13</ele>
        <time>2021-08-08T13:08:40Z</time>
      </trkpt>
      <trkpt lat="48.97433" lon="0.0495">
        <ele>81.89</ele>
        <time>2021-08-08T13:08:41Z</time>
      </trkpt>
      <trkpt lat="48.97432" lon="0.04958">
        <ele>81.61</ele>
        <time>2021-08-08T13:08:42Z</time>
      </trkpt>
      <trkpt lat="48.97432" lon="0.04967">
        <ele>81.32</ele>
        <time>2021-08-08T13:08:43Z</time>
      </trkpt>
      <trkpt lat="48.97431" lon="0.04975">
        <ele>81.06</ele>
        <time>2021-08-08T13:08:44Z</time>
      </trkpt>
      <trkpt lat="48.9743" lon="0.04984">
        <ele>80.85</ele>
        <time>2021-08-08T13:08:45Z</time>
      </trkpt>
      <trkpt lat="48.97429" lon="0.04994">
        <ele>80.65</ele>
        <time>2021-08-08T13:08:46Z</time>
      </trkpt>
      <trkpt lat="48.97428" lon="0.05003">
        <ele>80.41</ele>
        <time>2021-08-08T13:08:47Z</time>
      </trkpt>
      <trkpt lat="48.97428" lon="0.05013">
        <ele>80.06</ele>
        <time>2021-08-08T13:08:48Z</time>
      </trkpt>
      <trkpt lat="48.97428" lon="0.05023">
        <ele>79.7</ele>
        <time>2021-08-08T13:08:49Z</time>
      </trkpt>
      <trkpt lat="48.97428" lon="0.05033">
        <ele>79.35</ele>
        <time>2021-08-08T13:08:50Z</time>
      </trkpt>
      <trkpt lat="48.97428" lon="0.05043">
        <ele>79.01</ele>
        <time>2021-08-08T13:08:51Z</time>
      </trkpt>
      <trkpt lat="48.97428" lon="0.05052">
        <ele>78.66</ele>
        <time>2021-08-08T13:08:52Z</time>
      </trkpt>
      <trkpt lat="48.97426" lon="0.05061">
        <ele>78.58</ele>
        <time>2021-08-08T13:08:53Z</time>
      </trkpt>
      <trkpt lat="48.97424" lon="0.0507">
        <ele>78.71</ele>
        <time>2021-08-08T13:08:54Z</time>
      </trkpt>
      <trkpt lat="48.97422" lon="0.05076">
        <ele>78.87</ele>
        <time>2021-08-08T13:08:55Z</time>
      </trkpt>
      <trkpt lat="48.97418" lon="0.05082">
        <ele>78.97</ele>
        <time>2021-08-08T13:08:56Z</time>
      </trkpt>
      <trkpt lat="48.97413" lon="0.05087">
        <ele>79.08</ele>
        <time>2021-08-08T13:08:57Z</time>
      </trkpt>
      <trkpt lat="48.97409" lon="0.05091">
        <ele>79.21</ele>
        <time>2021-08-08T13:08:58Z</time>
      </trkpt>
      <trkpt lat="48.97406" lon="0.05095">
        <ele>79.37</ele>
        <time>2021-08-08T13:08:59Z</time>
      </trkpt>
      <trkpt lat="48.97402" lon="0.051">
        <ele>79.52</ele>
        <time>2021-08-08T13:09:00Z</time>
      </trkpt>
      <trkpt lat="48.97398" lon="0.05105">
        <ele>79.69</ele>
        <time>2021-08-08T13:09:01Z</time>
      </trkpt>
      <trkpt lat="48.97394" lon="0.0511">
        <ele>79.88</ele>
        <time>2021-08-08T13:09:02Z</time>
      </trkpt>
      <trkpt lat="48.97391" lon="0.05116">
        <ele>80.07</ele>
        <time>2021-08-08T13:09:03Z</time>
      </trkpt>
      <trkpt lat="48.97389" lon="0.05121">
        <ele>80.28</ele>
        <time>2021-08-08T13:09:04Z</time>
      </trkpt>
      <trkpt lat="48.97386" lon="0.05126">
        <ele>80.46</ele>
        <time>2021-08-08T13:09:05Z</time>
      </trkpt>
      <trkpt lat="48.97383" lon="0.05131">
        <ele>80.64</ele>
        <time>2021-08-08T13:09:06Z</time>
      </trkpt>
      <trkpt lat="48.9738" lon="0.05135">
        <ele>80.8</ele>
        <time>2021-08-08T13:09:07Z</time>
      </trkpt>
      <trkpt lat="48.97377" lon="0.0514">
        <ele>80.98</ele>
        <time>2021-08-08T13:09:08Z</time>
      </trkpt>
      <trkpt lat="48.97373" lon="0.05145">
        <ele>81.24</ele>
        <time>2021-08-08T13:09:09Z</time>
      </trkpt>
      <trkpt lat="48.9737" lon="0.0515">
        <ele>81.55</ele>
        <time>2021-08-08T13:09:10Z</time>
      </trkpt>
      <trkpt lat="48.97367" lon="0.05156">
        <ele>81.92</ele>
        <time>2021-08-08T13:09:11Z</time>
      </trkpt>
      <trkpt lat="48.97364" lon="0.05161">
        <ele>82.34</ele>
        <time>2021-08-08T13:09:12Z</time>
      </trkpt>
      <trkpt lat="48.97362" lon="0.05166">
        <ele>82.73</ele>
        <time>2021-08-08T13:09:13Z</time>
      </trkpt>
      <trkpt lat="48.97359" lon="0.05169">
        <ele>82.98</ele>
        <time>2021-08-08T13:09:14Z</time>
      </trkpt>
      <trkpt lat="48.97357" lon="0.05173">
        <ele>83.17</ele>
        <time>2021-08-08T13:09:15Z</time>
      </trkpt>
      <trkpt lat="48.97355" lon="0.05177">
        <ele>83.35</ele>
        <time>2021-08-08T13:09:16Z</time>
      </trkpt>
      <trkpt lat="48.97353" lon="0.0518">
        <ele>83.52</ele>
        <time>2021-08-08T13:09:17Z</time>
      </trkpt>
      <trkpt lat="48.97352" lon="0.05184">
        <ele>83.73</ele>
        <time>2021-08-08T13:09:18Z</time>
      </trkpt>
      <trkpt lat="48.97351" lon="0.05188">
        <ele>83.97</ele>
        <time>2021-08-08T13:09:19Z</time>
      </trkpt>
      <trkpt lat="48.9735" lon="0.05192">
        <ele>84.21</ele>
        <time>2021-08-08T13:09:20Z</time>
      </trkpt>
      <trkpt lat="48.97349" lon="0.05197">
        <ele>84.44</ele>
        <time>2021-08-08T13:09:21Z</time>
      </trkpt>
      <trkpt lat="48.97347" lon="0.05201">
        <ele>84.66</ele>
        <time>2021-08-08T13:09:22Z</time>
      </trkpt>
      <trkpt lat="48.97345" lon="0.05206">
        <ele>84.89</ele>
        <time>2021-08-08T13:09:23Z</time>
      </trkpt>
      <trkpt lat="48.97345" lon="0.05211">
        <ele>85.1</ele>
        <time>2021-08-08T13:09:24Z</time>
      </trkpt>
      <trkpt lat="48.97344" lon="0.05216">
        <ele>85.3</ele>
        <time>2021-08-08T13:09:25Z</time>
      </trkpt>
      <trkpt lat="48.97343" lon="0.05221">
        <ele>85.52</ele>
        <time>2021-08-08T13:09:26Z</time>
      </trkpt>
      <trkpt lat="48.97342" lon="0.05225">
        <ele>85.72</ele>
        <time>2021-08-08T13:09:27Z</time>
      </trkpt>
      <trkpt lat="48.9734" lon="0.0523">
        <ele>85.94</ele>
        <time>2021-08-08T13:09:28Z</time>
      </trkpt>
      <trkpt lat="48.97338" lon="0.05234">
        <ele>86.14</ele>
        <time>2021-08-08T13:09:29Z</time>
      </trkpt>
      <trkpt lat="48.97337" lon="0.05238">
        <ele>86.33</ele>
        <time>2021-08-08T13:09:30Z</time>
      </trkpt>
      <trkpt lat="48.97337" lon="0.05241">
        <ele>86.49</ele>
        <time>2021-08-08T13:09:31Z</time>
      </trkpt>
      <trkpt lat="48.97336" lon="0.05245">
        <ele>86.66</ele>
        <time>2021-08-08T13:09:32Z</time>
      </trkpt>
      <trkpt lat="48.97335" lon="0.05249">
        <ele>86.84</ele>
        <time>2021-08-08T13:09:33Z</time>
      </trkpt>
      <trkpt lat="48.97333" lon="0.05253">
        <ele>87.02</ele>
        <time>2021-08-08T13:09:34Z</time>
      </trkpt>
      <trkpt lat="48.97331" lon="0.05255">
        <ele>87.12</ele>
        <time>2021-08-08T13:09:35Z</time>
      </trkpt>
      <trkpt lat="48.97329" lon="0.05257">
        <ele>87.22</ele>
        <time>2021-08-08T13:09:36Z</time>
      </trkpt>
      <trkpt lat="48.97328" lon="0.05261">
        <ele>87.35</ele>
        <time>2021-08-08T13:09:37Z</time>
      </trkpt>
      <trkpt lat="48.97327" lon="0.05266">
        <ele>87.5</ele>
        <time>2021-08-08T13:09:38Z</time>
      </trkpt>
      <trkpt lat="48.97326" lon="0.05269">
        <ele>87.64</ele>
        <time>2021-08-08T13:09:39Z</time>
      </trkpt>
      <trkpt lat="48.97326" lon="0.05274">
        <ele>87.79</ele>
        <time>2021-08-08T13:09:40Z</time>
      </trkpt>
      <trkpt lat="48.97325" lon="0.05277">
        <ele>87.93</ele>
        <time>2021-08-08T13:09:41Z</time>
      </trkpt>
      <trkpt lat="48.97326" lon="0.05282">
        <ele>88.08</ele>
        <time>2021-08-08T13:09:42Z</time>
      </trkpt>
      <trkpt lat="48.97326" lon="0.05287">
        <ele>88.25</ele>
        <time>2021-08-08T13:09:43Z</time>
      </trkpt>
      <trkpt lat="48.97327" lon="0.05291">
        <ele>88.4</ele>
        <time>2021-08-08T13:09:44Z</time>
      </trkpt>
      <trkpt lat="48.97328" lon="0.05295">
        <ele>88.55</ele>
        <time>2021-08-08T13:09:45Z</time>
      </trkpt>
      <trkpt lat="48.97329" lon="0.05301">
        <ele>88.75</ele>
        <time>2021-08-08T13:09:46Z</time>
      </trkpt>
      <trkpt lat="48.9733" lon="0.05305">
        <ele>88.92</ele>
        <time>2021-08-08T13:09:47Z</time>
      </trkpt>
      <trkpt lat="48.97331" lon="0.0531">
        <ele>89.08</ele>
        <time>2021-08-08T13:09:48Z</time>
      </trkpt>
      <trkpt lat="48.97332" lon="0.05314">
        <ele>89.25</ele>
        <time>2021-08-08T13:09:49Z</time>
      </trkpt>
      <trkpt lat="48.97333" lon="0.05319">
        <ele>89.4</ele>
        <time>2021-08-08T13:09:50Z</time>
      </trkpt>
      <trkpt lat="48.97333" lon="0.05323">
        <ele>89.57</ele>
        <time>2021-08-08T13:09:51Z</time>
      </trkpt>
      <trkpt lat="48.97334" lon="0.05327">
        <ele>89.71</ele>
        <time>2021-08-08T13:09:52Z</time>
      </trkpt>
      <trkpt lat="48.97334" lon="0.05332">
        <ele>89.85</ele>
        <time>2021-08-08T13:09:53Z</time>
      </trkpt>
      <trkpt lat="48.97335" lon="0.05337">
        <ele>90.01</ele>
        <time>2021-08-08T13:09:54Z</time>
      </trkpt>
      <trkpt lat="48.97336" lon="0.05343">
        <ele>90.19</ele>
        <time>2021-08-08T13:09:55Z</time>
      </trkpt>
      <trkpt lat="48.97336" lon="0.05348">
        <ele>90.38</ele>
        <time>2021-08-08T13:09:56Z</time>
      </trkpt>
      <trkpt lat="48.97336" lon="0.05353">
        <ele>90.57</ele>
        <time>2021-08-08T13:09:57Z</time>
      </trkpt>
      <trkpt lat="48.97336" lon="0.05359">
        <ele>90.75</ele>
        <time>2021-08-08T13:09:58Z</time>
      </trkpt>
      <trkpt lat="48.97337" lon="0.05364">
        <ele>90.91</ele>
        <time>2021-08-08T13:09:59Z</time>
      </trkpt>
      <trkpt lat="48.97337" lon="0.05368">
        <ele>91.07</ele>
        <time>2021-08-08T13:10:00Z</time>
      </trkpt>
      <trkpt lat="48.97337" lon="0.05374">
        <ele>91.24</ele>
        <time>2021-08-08T13:10:01Z</time>
      </trkpt>
      <trkpt lat="48.97338" lon="0.05379">
        <ele>91.41</ele>
        <time>2021-08-08T13:10:02Z</time>
      </trkpt>
      <trkpt lat="48.97339" lon="0.05384">
        <ele>91.57</ele>
        <time>2021-08-08T13:10:03Z</time>
      </trkpt>
      <trkpt lat="48.97339" lon="0.05388">
        <ele>91.71</ele>
        <time>2021-08-08T13:10:04Z</time>
      </trkpt>
      <trkpt lat="48.9734" lon="0.05393">
        <ele>91.86</ele>
        <time>2021-08-08T13:10:05Z</time>
      </trkpt>
      <trkpt lat="48.97341" lon="0.05398">
        <ele>92.01</ele>
        <time>2021-08-08T13:10:06Z</time>
      </trkpt>
      <trkpt lat="48.97341" lon="0.05403">
        <ele>92.17</ele>
        <time>2021-08-08T13:10:07Z</time>
      </trkpt>
      <trkpt lat="48.97341" lon="0.05408">
        <ele>92.32</ele>
        <time>2021-08-08T13:10:08Z</time>
      </trkpt>
      <trkpt lat="48.97342" lon="0.05413">
        <ele>92.48</ele>
        <time>2021-08-08T13:10:09Z</time>
      </trkpt>
      <trkpt lat="48.97343" lon="0.05418">
        <ele>92.62</ele>
        <time>2021-08-08T13:10:10Z</time>
      </trkpt>
      <trkpt lat="48.97344" lon="0.05424">
        <ele>92.69</ele>
        <time>2021-08-08T13:10:11Z</time>
      </trkpt>
      <trkpt lat="48.97345" lon="0.0543">
        <ele>92.75</ele>
        <time>2021-08-08T13:10:12Z</time>
      </trkpt>
      <trkpt lat="48.97346" lon="0.05435">
        <ele>92.82</ele>
        <time>2021-08-08T13:10:13Z</time>
      </trkpt>
      <trkpt lat="48.97346" lon="0.0544">
        <ele>92.9</ele>
        <time>2021-08-08T13:10:14Z</time>
      </trkpt>
      <trkpt lat="48.97347" lon="0.05446">
        <ele>92.99</ele>
        <time>2021-08-08T13:10:15Z</time>
      </trkpt>
      <trkpt lat="48.97347" lon="0.05451">
        <ele>93.08</ele>
        <time>2021-08-08T13:10:16Z</time>
      </trkpt>
      <trkpt lat="48.97347" lon="0.05456">
        <ele>93.17</ele>
        <time>2021-08-08T13:10:17Z</time>
      </trkpt>
      <trkpt lat="48.97348" lon="0.05462">
        <ele>93.27</ele>
        <time>2021-08-08T13:10:18Z</time>
      </trkpt>
      <trkpt lat="48.97348" lon="0.05468">
        <ele>93.36</ele>
        <time>2021-08-08T13:10:19Z</time>
      </trkpt>
      <trkpt lat="48.97348" lon="0.05473">
        <ele>93.46</ele>
        <time>2021-08-08T13:10:20Z</time>
      </trkpt>
      <trkpt lat="48.97348" lon="0.05478">
        <ele>93.61</ele>
        <time>2021-08-08T13:10:21Z</time>
      </trkpt>
      <trkpt lat="48.97348" lon="0.05482">
        <ele>93.76</ele>
        <time>2021-08-08T13:10:22Z</time>
      </trkpt>
      <trkpt lat="48.97348" lon="0.05488">
        <ele>93.97</ele>
        <time>2021-08-08T13:10:23Z</time>
      </trkpt>
      <trkpt lat="48.97347" lon="0.05493">
        <ele>94.17</ele>
        <time>2021-08-08T13:10:24Z</time>
      </trkpt>
      <trkpt lat="48.97347" lon="0.05499">
        <ele>94.38</ele>
        <time>2021-08-08T13:10:25Z</time>
      </trkpt>
      <trkpt lat="48.97347" lon="0.05504">
        <ele>94.52</ele>
        <time>2021-08-08T13:10:26Z</time>
      </trkpt>
      <trkpt lat="48.97347" lon="0.0551">
        <ele>94.63</ele>
        <time>2021-08-08T13:10:27Z</time>
      </trkpt>
      <trkpt lat="48.97347" lon="0.05515">
        <ele>94.73</ele>
        <time>2021-08-08T13:10:28Z</time>
      </trkpt>
      <trkpt lat="48.97347" lon="0.05521">
        <ele>94.84</ele>
        <time>2021-08-08T13:10:29Z</time>
      </trkpt>
      <trkpt lat="48.97347" lon="0.05527">
        <ele>94.95</ele>
        <time>2021-08-08T13:10:30Z</time>
      </trkpt>
      <trkpt lat="48.97347" lon="0.05533">
        <ele>95.06</ele>
        <time>2021-08-08T13:10:31Z</time>
      </trkpt>
      <trkpt lat="48.97347" lon="0.05539">
        <ele>95.16</ele>
        <time>2021-08-08T13:10:32Z</time>
      </trkpt>
      <trkpt lat="48.97347" lon="0.05545">
        <ele>95.27</ele>
        <time>2021-08-08T13:10:33Z</time>
      </trkpt>
      <trkpt lat="48.97347" lon="0.0555">
        <ele>95.37</ele>
        <time>2021-08-08T13:10:34Z</time>
      </trkpt>
      <trkpt lat="48.97347" lon="0.05556">
        <ele>95.47</ele>
        <time>2021-08-08T13:10:35Z</time>
      </trkpt>
      <trkpt lat="48.97347" lon="0.05561">
        <ele>95.56</ele>
        <time>2021-08-08T13:10:36Z</time>
      </trkpt>
      <trkpt lat="48.97349" lon="0.05568">
        <ele>95.65</ele>
        <time>2021-08-08T13:10:37Z</time>
      </trkpt>
      <trkpt lat="48.9735" lon="0.05573">
        <ele>95.75</ele>
        <time>2021-08-08T13:10:38Z</time>
      </trkpt>
      <trkpt lat="48.9735" lon="0.05579">
        <ele>95.86</ele>
        <time>2021-08-08T13:10:39Z</time>
      </trkpt>
      <trkpt lat="48.97351" lon="0.05585">
        <ele>95.96</ele>
        <time>2021-08-08T13:10:40Z</time>
      </trkpt>
      <trkpt lat="48.97352" lon="0.0559">
        <ele>95.99</ele>
        <time>2021-08-08T13:10:41Z</time>
      </trkpt>
      <trkpt lat="48.97352" lon="0.05595">
        <ele>96</ele>
        <time>2021-08-08T13:10:42Z</time>
      </trkpt>
      <trkpt lat="48.97353" lon="0.05601">
        <ele>96</ele>
        <time>2021-08-08T13:10:43Z</time>
      </trkpt>
      <trkpt lat="48.97354" lon="0.05605">
        <ele>96</ele>
        <time>2021-08-08T13:10:44Z</time>
      </trkpt>
      <trkpt lat="48.97355" lon="0.05611">
        <ele>96</ele>
        <time>2021-08-08T13:10:45Z</time>
      </trkpt>
      <trkpt lat="48.97356" lon="0.05617">
        <ele>96.03</ele>
        <time>2021-08-08T13:10:46Z</time>
      </trkpt>
      <trkpt lat="48.97357" lon="0.05623">
        <ele>96.05</ele>
        <time>2021-08-08T13:10:47Z</time>
      </trkpt>
      <trkpt lat="48.97359" lon="0.05628">
        <ele>96.06</ele>
        <time>2021-08-08T13:10:48Z</time>
      </trkpt>
      <trkpt lat="48.9736" lon="0.05634">
        <ele>96.05</ele>
        <time>2021-08-08T13:10:49Z</time>
      </trkpt>
      <trkpt lat="48.97361" lon="0.0564">
        <ele>96.04</ele>
        <time>2021-08-08T13:10:50Z</time>
      </trkpt>
      <trkpt lat="48.97362" lon="0.05645">
        <ele>96.15</ele>
        <time>2021-08-08T13:10:51Z</time>
      </trkpt>
      <trkpt lat="48.97363" lon="0.05651">
        <ele>96.32</ele>
        <time>2021-08-08T13:10:52Z</time>
      </trkpt>
      <trkpt lat="48.97363" lon="0.05657">
        <ele>96.5</ele>
        <time>2021-08-08T13:10:53Z</time>
      </trkpt>
      <trkpt lat="48.97364" lon="0.05663">
        <ele>96.68</ele>
        <time>2021-08-08T13:10:54Z</time>
      </trkpt>
      <trkpt lat="48.97365" lon="0.0567">
        <ele>96.83</ele>
        <time>2021-08-08T13:10:55Z</time>
      </trkpt>
      <trkpt lat="48.97365" lon="0.05676">
        <ele>96.88</ele>
        <time>2021-08-08T13:10:56Z</time>
      </trkpt>
      <trkpt lat="48.97365" lon="0.05683">
        <ele>96.92</ele>
        <time>2021-08-08T13:10:57Z</time>
      </trkpt>
      <trkpt lat="48.97366" lon="0.05689">
        <ele>96.95</ele>
        <time>2021-08-08T13:10:58Z</time>
      </trkpt>
      <trkpt lat="48.97366" lon="0.05696">
        <ele>97.01</ele>
        <time>2021-08-08T13:10:59Z</time>
      </trkpt>
      <trkpt lat="48.97366" lon="0.05703">
        <ele>97.17</ele>
        <time>2021-08-08T13:11:00Z</time>
      </trkpt>
      <trkpt lat="48.97366" lon="0.05709">
        <ele>97.36</ele>
        <time>2021-08-08T13:11:01Z</time>
      </trkpt>
      <trkpt lat="48.97367" lon="0.05716">
        <ele>97.54</ele>
        <time>2021-08-08T13:11:02Z</time>
      </trkpt>
      <trkpt lat="48.97367" lon="0.05723">
        <ele>97.72</ele>
        <time>2021-08-08T13:11:03Z</time>
      </trkpt>
      <trkpt lat="48.97367" lon="0.05729">
        <ele>97.8</ele>
        <time>2021-08-08T13:11:04Z</time>
      </trkpt>
      <trkpt lat="48.97367" lon="0.05735">
        <ele>97.86</ele>
        <time>2021-08-08T13:11:05Z</time>
      </trkpt>
      <trkpt lat="48.97368" lon="0.05742">
        <ele>97.9</ele>
        <time>2021-08-08T13:11:06Z</time>
      </trkpt>
      <trkpt lat="48.97369" lon="0.05747">
        <ele>97.95</ele>
        <time>2021-08-08T13:11:07Z</time>
      </trkpt>
      <trkpt lat="48.97369" lon="0.05754">
        <ele>97.99</ele>
        <time>2021-08-08T13:11:08Z</time>
      </trkpt>
      <trkpt lat="48.97369" lon="0.0576">
        <ele>98</ele>
        <time>2021-08-08T13:11:09Z</time>
      </trkpt>
      <trkpt lat="48.97369" lon="0.05767">
        <ele>98</ele>
        <time>2021-08-08T13:11:10Z</time>
      </trkpt>
      <trkpt lat="48.9737" lon="0.05773">
        <ele>98</ele>
        <time>2021-08-08T13:11:11Z</time>
      </trkpt>
      <trkpt lat="48.9737" lon="0.0578">
        <ele>98.11</ele>
        <time>2021-08-08T13:11:12Z</time>
      </trkpt>
      <trkpt lat="48.97371" lon="0.05786">
        <ele>98.45</ele>
        <time>2021-08-08T13:11:13Z</time>
      </trkpt>
      <trkpt lat="48.97372" lon="0.05791">
        <ele>98.8</ele>
        <time>2021-08-08T13:11:14Z</time>
      </trkpt>
      <trkpt lat="48.97372" lon="0.05796">
        <ele>99.15</ele>
        <time>2021-08-08T13:11:15Z</time>
      </trkpt>
      <trkpt lat="48.97373" lon="0.05801">
        <ele>99.52</ele>
        <time>2021-08-08T13:11:16Z</time>
      </trkpt>
      <trkpt lat="48.97374" lon="0.05807">
        <ele>99.89</ele>
        <time>2021-08-08T13:11:17Z</time>
      </trkpt>
      <trkpt lat="48.97375" lon="0.05812">
        <ele>100.14</ele>
        <time>2021-08-08T13:11:18Z</time>
      </trkpt>
      <trkpt lat="48.97376" lon="0.05818">
        <ele>100.35</ele>
        <time>2021-08-08T13:11:19Z</time>
      </trkpt>
      <trkpt lat="48.97377" lon="0.05823">
        <ele>100.54</ele>
        <time>2021-08-08T13:11:20Z</time>
      </trkpt>
      <trkpt lat="48.97378" lon="0.05828">
        <ele>100.73</ele>
        <time>2021-08-08T13:11:21Z</time>
      </trkpt>
      <trkpt lat="48.97378" lon="0.05833">
        <ele>100.91</ele>
        <time>2021-08-08T13:11:22Z</time>
      </trkpt>
      <trkpt lat="48.97377" lon="0.05838">
        <ele>101.09</ele>
        <time>2021-08-08T13:11:23Z</time>
      </trkpt>
      <trkpt lat="48.97377" lon="0.05843">
        <ele>101.27</ele>
        <time>2021-08-08T13:11:24Z</time>
      </trkpt>
      <trkpt lat="48.97376" lon="0.05847">
        <ele>101.43</ele>
        <time>2021-08-08T13:11:25Z</time>
      </trkpt>
      <trkpt lat="48.97376" lon="0.05852">
        <ele>101.59</ele>
        <time>2021-08-08T13:11:26Z</time>
      </trkpt>
      <trkpt lat="48.97375" lon="0.05856">
        <ele>101.76</ele>
        <time>2021-08-08T13:11:27Z</time>
      </trkpt>
      <trkpt lat="48.97375" lon="0.05861">
        <ele>101.92</ele>
        <time>2021-08-08T13:11:28Z</time>
      </trkpt>
      <trkpt lat="48.97375" lon="0.05865">
        <ele>102.12</ele>
        <time>2021-08-08T13:11:29Z</time>
      </trkpt>
      <trkpt lat="48.97374" lon="0.05869">
        <ele>102.33</ele>
        <time>2021-08-08T13:11:30Z</time>
      </trkpt>
      <trkpt lat="48.97372" lon="0.05873">
        <ele>102.58</ele>
        <time>2021-08-08T13:11:31Z</time>
      </trkpt>
      <trkpt lat="48.97371" lon="0.05877">
        <ele>102.84</ele>
        <time>2021-08-08T13:11:32Z</time>
      </trkpt>
      <trkpt lat="48.9737" lon="0.05883">
        <ele>103.17</ele>
        <time>2021-08-08T13:11:33Z</time>
      </trkpt>
      <trkpt lat="48.9737" lon="0.05888">
        <ele>103.52</ele>
        <time>2021-08-08T13:11:34Z</time>
      </trkpt>
      <trkpt lat="48.97369" lon="0.05894">
        <ele>103.9</ele>
        <time>2021-08-08T13:11:35Z</time>
      </trkpt>
      <trkpt lat="48.97367" lon="0.05898">
        <ele>104.27</ele>
        <time>2021-08-08T13:11:36Z</time>
      </trkpt>
      <trkpt lat="48.97366" lon="0.05903">
        <ele>104.65</ele>
        <time>2021-08-08T13:11:37Z</time>
      </trkpt>
      <trkpt lat="48.97365" lon="0.05907">
        <ele>104.98</ele>
        <time>2021-08-08T13:11:38Z</time>
      </trkpt>
      <trkpt lat="48.97365" lon="0.0591">
        <ele>105.27</ele>
        <time>2021-08-08T13:11:39Z</time>
      </trkpt>
      <trkpt lat="48.97364" lon="0.05914">
        <ele>105.61</ele>
        <time>2021-08-08T13:11:40Z</time>
      </trkpt>
      <trkpt lat="48.97363" lon="0.05919">
        <ele>105.9</ele>
        <time>2021-08-08T13:11:41Z</time>
      </trkpt>
      <trkpt lat="48.97361" lon="0.05923">
        <ele>106.12</ele>
        <time>2021-08-08T13:11:42Z</time>
      </trkpt>
      <trkpt lat="48.97359" lon="0.05927">
        <ele>106.25</ele>
        <time>2021-08-08T13:11:43Z</time>
      </trkpt>
      <trkpt lat="48.97358" lon="0.05932">
        <ele>106.41</ele>
        <time>2021-08-08T13:11:44Z</time>
      </trkpt>
      <trkpt lat="48.97356" lon="0.05935">
        <ele>106.55</ele>
        <time>2021-08-08T13:11:45Z</time>
      </trkpt>
      <trkpt lat="48.97354" lon="0.05938">
        <ele>106.67</ele>
        <time>2021-08-08T13:11:46Z</time>
      </trkpt>
      <trkpt lat="48.97352" lon="0.05941">
        <ele>106.79</ele>
        <time>2021-08-08T13:11:47Z</time>
      </trkpt>
      <trkpt lat="48.9735" lon="0.05945">
        <ele>106.95</ele>
        <time>2021-08-08T13:11:48Z</time>
      </trkpt>
      <trkpt lat="48.97348" lon="0.05949">
        <ele>107.21</ele>
        <time>2021-08-08T13:11:49Z</time>
      </trkpt>
      <trkpt lat="48.97346" lon="0.05953">
        <ele>107.49</ele>
        <time>2021-08-08T13:11:50Z</time>
      </trkpt>
      <trkpt lat="48.97344" lon="0.05956">
        <ele>107.75</ele>
        <time>2021-08-08T13:11:51Z</time>
      </trkpt>
      <trkpt lat="48.97342" lon="0.0596">
        <ele>108.03</ele>
        <time>2021-08-08T13:11:52Z</time>
      </trkpt>
      <trkpt lat="48.9734" lon="0.05963">
        <ele>108.24</ele>
        <time>2021-08-08T13:11:53Z</time>
      </trkpt>
      <trkpt lat="48.97337" lon="0.05966">
        <ele>108.45</ele>
        <time>2021-08-08T13:11:54Z</time>
      </trkpt>
      <trkpt lat="48.97334" lon="0.05968">
        <ele>108.64</ele>
        <time>2021-08-08T13:11:55Z</time>
      </trkpt>
      <trkpt lat="48.97332" lon="0.05971">
        <ele>108.83</ele>
        <time>2021-08-08T13:11:56Z</time>
      </trkpt>
      <trkpt lat="48.97328" lon="0.05974">
        <ele>109.02</ele>
        <time>2021-08-08T13:11:57Z</time>
      </trkpt>
      <trkpt lat="48.97326" lon="0.05976">
        <ele>109.21</ele>
        <time>2021-08-08T13:11:58Z</time>
      </trkpt>
      <trkpt lat="48.97324" lon="0.05978">
        <ele>109.36</ele>
        <time>2021-08-08T13:11:59Z</time>
      </trkpt>
      <trkpt lat="48.97322" lon="0.05979">
        <ele>109.46</ele>
        <time>2021-08-08T13:12:00Z</time>
      </trkpt>
      <trkpt lat="48.97321" lon="0.0598">
        <ele>109.55</ele>
        <time>2021-08-08T13:12:01Z</time>
      </trkpt>
      <trkpt lat="48.9732" lon="0.05982">
        <ele>109.66</ele>
        <time>2021-08-08T13:12:02Z</time>
      </trkpt>
      <trkpt lat="48.97318" lon="0.05983">
        <ele>109.75</ele>
        <time>2021-08-08T13:12:03Z</time>
      </trkpt>
      <trkpt lat="48.97316" lon="0.05985">
        <ele>109.89</ele>
        <time>2021-08-08T13:12:04Z</time>
      </trkpt>
      <trkpt lat="48.97314" lon="0.05988">
        <ele>110.06</ele>
        <time>2021-08-08T13:12:05Z</time>
      </trkpt>
      <trkpt lat="48.97312" lon="0.0599">
        <ele>110.24</ele>
        <time>2021-08-08T13:12:06Z</time>
      </trkpt>
      <trkpt lat="48.97311" lon="0.05994">
        <ele>110.46</ele>
        <time>2021-08-08T13:12:07Z</time>
      </trkpt>
      <trkpt lat="48.97309" lon="0.05996">
        <ele>110.65</ele>
        <time>2021-08-08T13:12:08Z</time>
      </trkpt>
      <trkpt lat="48.97308" lon="0.06">
        <ele>110.89</ele>
        <time>2021-08-08T13:12:09Z</time>
      </trkpt>
      <trkpt lat="48.97306" lon="0.06004">
        <ele>111.17</ele>
        <time>2021-08-08T13:12:10Z</time>
      </trkpt>
      <trkpt lat="48.97304" lon="0.06007">
        <ele>111.42</ele>
        <time>2021-08-08T13:12:11Z</time>
      </trkpt>
      <trkpt lat="48.97302" lon="0.06009">
        <ele>111.64</ele>
        <time>2021-08-08T13:12:12Z</time>
      </trkpt>
      <trkpt lat="48.97301" lon="0.06012">
        <ele>111.86</ele>
        <time>2021-08-08T13:12:13Z</time>
      </trkpt>
      <trkpt lat="48.97299" lon="0.06015">
        <ele>112.1</ele>
        <time>2021-08-08T13:12:14Z</time>
      </trkpt>
      <trkpt lat="48.97297" lon="0.06018">
        <ele>112.35</ele>
        <time>2021-08-08T13:12:15Z</time>
      </trkpt>
      <trkpt lat="48.97295" lon="0.0602">
        <ele>112.58</ele>
        <time>2021-08-08T13:12:16Z</time>
      </trkpt>
      <trkpt lat="48.97294" lon="0.06022">
        <ele>112.83</ele>
        <time>2021-08-08T13:12:17Z</time>
      </trkpt>
      <trkpt lat="48.97292" lon="0.06025">
        <ele>113.11</ele>
        <time>2021-08-08T13:12:18Z</time>
      </trkpt>
      <trkpt lat="48.9729" lon="0.06027">
        <ele>113.4</ele>
        <time>2021-08-08T13:12:19Z</time>
      </trkpt>
      <trkpt lat="48.97288" lon="0.0603">
        <ele>113.67</ele>
        <time>2021-08-08T13:12:20Z</time>
      </trkpt>
      <trkpt lat="48.97285" lon="0.06032">
        <ele>113.93</ele>
        <time>2021-08-08T13:12:21Z</time>
      </trkpt>
      <trkpt lat="48.97284" lon="0.06035">
        <ele>114.18</ele>
        <time>2021-08-08T13:12:22Z</time>
      </trkpt>
      <trkpt lat="48.97282" lon="0.06037">
        <ele>114.42</ele>
        <time>2021-08-08T13:12:23Z</time>
      </trkpt>
      <trkpt lat="48.9728" lon="0.0604">
        <ele>114.67</ele>
        <time>2021-08-08T13:12:24Z</time>
      </trkpt>
      <trkpt lat="48.97278" lon="0.06043">
        <ele>114.95</ele>
        <time>2021-08-08T13:12:25Z</time>
      </trkpt>
      <trkpt lat="48.97277" lon="0.06046">
        <ele>115.21</ele>
        <time>2021-08-08T13:12:26Z</time>
      </trkpt>
      <trkpt lat="48.97276" lon="0.0605">
        <ele>115.5</ele>
        <time>2021-08-08T13:12:27Z</time>
      </trkpt>
      <trkpt lat="48.97275" lon="0.06054">
        <ele>115.81</ele>
        <time>2021-08-08T13:12:28Z</time>
      </trkpt>
      <trkpt lat="48.97273" lon="0.06056">
        <ele>116.12</ele>
        <time>2021-08-08T13:12:29Z</time>
      </trkpt>
      <trkpt lat="48.97272" lon="0.06058">
        <ele>116.4</ele>
        <time>2021-08-08T13:12:30Z</time>
      </trkpt>
      <trkpt lat="48.9727" lon="0.06061">
        <ele>116.71</ele>
        <time>2021-08-08T13:12:31Z</time>
      </trkpt>
      <trkpt lat="48.97269" lon="0.06064">
        <ele>117.03</ele>
        <time>2021-08-08T13:12:32Z</time>
      </trkpt>
      <trkpt lat="48.97268" lon="0.06067">
        <ele>117.39</ele>
        <time>2021-08-08T13:12:33Z</time>
      </trkpt>
      <trkpt lat="48.97268" lon="0.0607">
        <ele>117.76</ele>
        <time>2021-08-08T13:12:34Z</time>
      </trkpt>
      <trkpt lat="48.97266" lon="0.06073">
        <ele>118.12</ele>
        <time>2021-08-08T13:12:35Z</time>
      </trkpt>
      <trkpt lat="48.97265" lon="0.06075">
        <ele>118.46</ele>
        <time>2021-08-08T13:12:36Z</time>
      </trkpt>
      <trkpt lat="48.97264" lon="0.06078">
        <ele>118.82</ele>
        <time>2021-08-08T13:12:37Z</time>
      </trkpt>
      <trkpt lat="48.97262" lon="0.06082">
        <ele>119.26</ele>
        <time>2021-08-08T13:12:38Z</time>
      </trkpt>
      <trkpt lat="48.97262" lon="0.06085">
        <ele>119.51</ele>
        <time>2021-08-08T13:12:39Z</time>
      </trkpt>
      <trkpt lat="48.97261" lon="0.06089">
        <ele>119.66</ele>
        <time>2021-08-08T13:12:40Z</time>
      </trkpt>
      <trkpt lat="48.97259" lon="0.06092">
        <ele>119.8</ele>
        <time>2021-08-08T13:12:41Z</time>
      </trkpt>
      <trkpt lat="48.97258" lon="0.06095">
        <ele>119.95</ele>
        <time>2021-08-08T13:12:42Z</time>
      </trkpt>
      <trkpt lat="48.97256" lon="0.06098">
        <ele>120.12</ele>
        <time>2021-08-08T13:12:43Z</time>
      </trkpt>
      <trkpt lat="48.97255" lon="0.06102">
        <ele>120.3</ele>
        <time>2021-08-08T13:12:44Z</time>
      </trkpt>
      <trkpt lat="48.97252" lon="0.06105">
        <ele>120.53</ele>
        <time>2021-08-08T13:12:45Z</time>
      </trkpt>
      <trkpt lat="48.97251" lon="0.06109">
        <ele>120.76</ele>
        <time>2021-08-08T13:12:46Z</time>
      </trkpt>
      <trkpt lat="48.9725" lon="0.06113">
        <ele>120.97</ele>
        <time>2021-08-08T13:12:47Z</time>
      </trkpt>
      <trkpt lat="48.97249" lon="0.06116">
        <ele>121.16</ele>
        <time>2021-08-08T13:12:48Z</time>
      </trkpt>
      <trkpt lat="48.97248" lon="0.06118">
        <ele>121.32</ele>
        <time>2021-08-08T13:12:49Z</time>
      </trkpt>
      <trkpt lat="48.97248" lon="0.06121">
        <ele>121.47</ele>
        <time>2021-08-08T13:12:50Z</time>
      </trkpt>
      <trkpt lat="48.97248" lon="0.06124">
        <ele>121.6</ele>
        <time>2021-08-08T13:12:51Z</time>
      </trkpt>
      <trkpt lat="48.97246" lon="0.06127">
        <ele>121.77</ele>
        <time>2021-08-08T13:12:52Z</time>
      </trkpt>
      <trkpt lat="48.97246" lon="0.0613">
        <ele>121.94</ele>
        <time>2021-08-08T13:12:53Z</time>
      </trkpt>
      <trkpt lat="48.97245" lon="0.06134">
        <ele>122.12</ele>
        <time>2021-08-08T13:12:54Z</time>
      </trkpt>
      <trkpt lat="48.97244" lon="0.0614">
        <ele>122.36</ele>
        <time>2021-08-08T13:12:55Z</time>
      </trkpt>
      <trkpt lat="48.97243" lon="0.06143">
        <ele>122.57</ele>
        <time>2021-08-08T13:12:56Z</time>
      </trkpt>
      <trkpt lat="48.97242" lon="0.06147">
        <ele>122.8</ele>
        <time>2021-08-08T13:12:57Z</time>
      </trkpt>
      <trkpt lat="48.97241" lon="0.06153">
        <ele>123.04</ele>
        <time>2021-08-08T13:12:58Z</time>
      </trkpt>
      <trkpt lat="48.97239" lon="0.06156">
        <ele>123.28</ele>
        <time>2021-08-08T13:12:59Z</time>
      </trkpt>
      <trkpt lat="48.97238" lon="0.06159">
        <ele>123.49</ele>
        <time>2021-08-08T13:13:00Z</time>
      </trkpt>
      <trkpt lat="48.97237" lon="0.06163">
        <ele>123.7</ele>
        <time>2021-08-08T13:13:01Z</time>
      </trkpt>
      <trkpt lat="48.97236" lon="0.06166">
        <ele>123.9</ele>
        <time>2021-08-08T13:13:02Z</time>
      </trkpt>
      <trkpt lat="48.97234" lon="0.0617">
        <ele>124.16</ele>
        <time>2021-08-08T13:13:03Z</time>
      </trkpt>
      <trkpt lat="48.97232" lon="0.06173">
        <ele>124.4</ele>
        <time>2021-08-08T13:13:04Z</time>
      </trkpt>
      <trkpt lat="48.97231" lon="0.06177">
        <ele>124.64</ele>
        <time>2021-08-08T13:13:05Z</time>
      </trkpt>
      <trkpt lat="48.9723" lon="0.06182">
        <ele>124.89</ele>
        <time>2021-08-08T13:13:06Z</time>
      </trkpt>
      <trkpt lat="48.97228" lon="0.06185">
        <ele>125.13</ele>
        <time>2021-08-08T13:13:07Z</time>
      </trkpt>
      <trkpt lat="48.97226" lon="0.0619">
        <ele>125.4</ele>
        <time>2021-08-08T13:13:08Z</time>
      </trkpt>
      <trkpt lat="48.97225" lon="0.06193">
        <ele>125.68</ele>
        <time>2021-08-08T13:13:09Z</time>
      </trkpt>
      <trkpt lat="48.97222" lon="0.06197">
        <ele>125.85</ele>
        <time>2021-08-08T13:13:10Z</time>
      </trkpt>
      <trkpt lat="48.9722" lon="0.062">
        <ele>125.89</ele>
        <time>2021-08-08T13:13:11Z</time>
      </trkpt>
      <trkpt lat="48.97219" lon="0.06203">
        <ele>125.89</ele>
        <time>2021-08-08T13:13:12Z</time>
      </trkpt>
      <trkpt lat="48.97218" lon="0.06205">
        <ele>125.86</ele>
        <time>2021-08-08T13:13:13Z</time>
      </trkpt>
      <trkpt lat="48.97218" lon="0.06208">
        <ele>125.79</ele>
        <time>2021-08-08T13:13:14Z</time>
      </trkpt>
      <trkpt lat="48.97216" lon="0.06212">
        <ele>125.69</ele>
        <time>2021-08-08T13:13:15Z</time>
      </trkpt>
      <trkpt lat="48.97215" lon="0.06215">
        <ele>125.62</ele>
        <time>2021-08-08T13:13:16Z</time>
      </trkpt>
      <trkpt lat="48.97214" lon="0.06218">
        <ele>125.55</ele>
        <time>2021-08-08T13:13:17Z</time>
      </trkpt>
      <trkpt lat="48.97213" lon="0.06221">
        <ele>125.46</ele>
        <time>2021-08-08T13:13:18Z</time>
      </trkpt>
      <trkpt lat="48.9721" lon="0.06224">
        <ele>125.39</ele>
        <time>2021-08-08T13:13:19Z</time>
      </trkpt>
      <trkpt lat="48.97208" lon="0.06229">
        <ele>125.3</ele>
        <time>2021-08-08T13:13:20Z</time>
      </trkpt>
      <trkpt lat="48.97206" lon="0.06234">
        <ele>125.19</ele>
        <time>2021-08-08T13:13:21Z</time>
      </trkpt>
      <trkpt lat="48.97205" lon="0.06239">
        <ele>125.08</ele>
        <time>2021-08-08T13:13:22Z</time>
      </trkpt>
      <trkpt lat="48.97203" lon="0.06244">
        <ele>124.97</ele>
        <time>2021-08-08T13:13:23Z</time>
      </trkpt>
      <trkpt lat="48.972" lon="0.06249">
        <ele>124.86</ele>
        <time>2021-08-08T13:13:24Z</time>
      </trkpt>
      <trkpt lat="48.97199" lon="0.06254">
        <ele>124.66</ele>
        <time>2021-08-08T13:13:25Z</time>
      </trkpt>
      <trkpt lat="48.97197" lon="0.06259">
        <ele>124.4</ele>
        <time>2021-08-08T13:13:26Z</time>
      </trkpt>
      <trkpt lat="48.97195" lon="0.06264">
        <ele>124.11</ele>
        <time>2021-08-08T13:13:27Z</time>
      </trkpt>
      <trkpt lat="48.97194" lon="0.06271">
        <ele>123.69</ele>
        <time>2021-08-08T13:13:28Z</time>
      </trkpt>
      <trkpt lat="48.97192" lon="0.06277">
        <ele>123.32</ele>
        <time>2021-08-08T13:13:29Z</time>
      </trkpt>
      <trkpt lat="48.9719" lon="0.06284">
        <ele>123.04</ele>
        <time>2021-08-08T13:13:30Z</time>
      </trkpt>
      <trkpt lat="48.97188" lon="0.06292">
        <ele>122.72</ele>
        <time>2021-08-08T13:13:31Z</time>
      </trkpt>
      <trkpt lat="48.97187" lon="0.06302">
        <ele>122.34</ele>
        <time>2021-08-08T13:13:32Z</time>
      </trkpt>
      <trkpt lat="48.97185" lon="0.06311">
        <ele>122.1</ele>
        <time>2021-08-08T13:13:33Z</time>
      </trkpt>
      <trkpt lat="48.97183" lon="0.0632">
        <ele>122.03</ele>
        <time>2021-08-08T13:13:34Z</time>
      </trkpt>
      <trkpt lat="48.97181" lon="0.0633">
        <ele>122.01</ele>
        <time>2021-08-08T13:13:35Z</time>
      </trkpt>
      <trkpt lat="48.97179" lon="0.06337">
        <ele>121.96</ele>
        <time>2021-08-08T13:13:36Z</time>
      </trkpt>
      <trkpt lat="48.97176" lon="0.06341">
        <ele>121.86</ele>
        <time>2021-08-08T13:13:37Z</time>
      </trkpt>
      <trkpt lat="48.97175" lon="0.06343">
        <ele>121.78</ele>
        <time>2021-08-08T13:13:38Z</time>
      </trkpt>
      <trkpt lat="48.97174" lon="0.06346">
        <ele>121.7</ele>
        <time>2021-08-08T13:13:39Z</time>
      </trkpt>
      <trkpt lat="48.97173" lon="0.06348">
        <ele>121.62</ele>
        <time>2021-08-08T13:13:40Z</time>
      </trkpt>
      <trkpt lat="48.97172" lon="0.06351">
        <ele>121.53</ele>
        <time>2021-08-08T13:13:41Z</time>
      </trkpt>
      <trkpt lat="48.97172" lon="0.06353">
        <ele>121.44</ele>
        <time>2021-08-08T13:13:42Z</time>
      </trkpt>
      <trkpt lat="48.97171" lon="0.06357">
        <ele>121.33</ele>
        <time>2021-08-08T13:13:43Z</time>
      </trkpt>
      <trkpt lat="48.9717" lon="0.06359">
        <ele>121.23</ele>
        <time>2021-08-08T13:13:44Z</time>
      </trkpt>
      <trkpt lat="48.97169" lon="0.06361">
        <ele>121.14</ele>
        <time>2021-08-08T13:13:45Z</time>
      </trkpt>
      <trkpt lat="48.97169" lon="0.06362">
        <ele>121.09</ele>
        <time>2021-08-08T13:13:46Z</time>
      </trkpt>
      <trkpt lat="48.97169" lon="0.06364">
        <ele>121.07</ele>
        <time>2021-08-08T13:13:47Z</time>
      </trkpt>
      <trkpt lat="48.97168" lon="0.06367">
        <ele>121.05</ele>
        <time>2021-08-08T13:13:48Z</time>
      </trkpt>
      <trkpt lat="48.97167" lon="0.0637">
        <ele>121.02</ele>
        <time>2021-08-08T13:13:49Z</time>
      </trkpt>
      <trkpt lat="48.97166" lon="0.06373">
        <ele>120.99</ele>
        <time>2021-08-08T13:13:50Z</time>
      </trkpt>
      <trkpt lat="48.97166" lon="0.06376">
        <ele>120.94</ele>
        <time>2021-08-08T13:13:51Z</time>
      </trkpt>
      <trkpt lat="48.97165" lon="0.06377">
        <ele>120.85</ele>
        <time>2021-08-08T13:13:52Z</time>
      </trkpt>
      <trkpt lat="48.97164" lon="0.06378">
        <ele>120.78</ele>
        <time>2021-08-08T13:13:53Z</time>
      </trkpt>
      <trkpt lat="48.97163" lon="0.06379">
        <ele>120.71</ele>
        <time>2021-08-08T13:13:54Z</time>
      </trkpt>
      <trkpt lat="48.97163" lon="0.06379">
        <ele>120.69</ele>
        <time>2021-08-08T13:13:55Z</time>
      </trkpt>
      <trkpt lat="48.97162" lon="0.06383">
        <ele>120.57</ele>
        <time>2021-08-08T13:13:56Z</time>
      </trkpt>
      <trkpt lat="48.97161" lon="0.06386">
        <ele>120.44</ele>
        <time>2021-08-08T13:13:57Z</time>
      </trkpt>
      <trkpt lat="48.9716" lon="0.0639">
        <ele>120.31</ele>
        <time>2021-08-08T13:13:58Z</time>
      </trkpt>
      <trkpt lat="48.97159" lon="0.06395">
        <ele>120.22</ele>
        <time>2021-08-08T13:13:59Z</time>
      </trkpt>
      <trkpt lat="48.97158" lon="0.06399">
        <ele>120.17</ele>
        <time>2021-08-08T13:14:00Z</time>
      </trkpt>
      <trkpt lat="48.97156" lon="0.06404">
        <ele>120.12</ele>
        <time>2021-08-08T13:14:01Z</time>
      </trkpt>
      <trkpt lat="48.97156" lon="0.06408">
        <ele>120.09</ele>
        <time>2021-08-08T13:14:02Z</time>
      </trkpt>
      <trkpt lat="48.97154" lon="0.06412">
        <ele>120.04</ele>
        <time>2021-08-08T13:14:03Z</time>
      </trkpt>
      <trkpt lat="48.97153" lon="0.06416">
        <ele>120</ele>
        <time>2021-08-08T13:14:04Z</time>
      </trkpt>
      <trkpt lat="48.97151" lon="0.0642">
        <ele>120.07</ele>
        <time>2021-08-08T13:14:05Z</time>
      </trkpt>
      <trkpt lat="48.97149" lon="0.06425">
        <ele>120.18</ele>
        <time>2021-08-08T13:14:06Z</time>
      </trkpt>
      <trkpt lat="48.97147" lon="0.06429">
        <ele>120.32</ele>
        <time>2021-08-08T13:14:07Z</time>
      </trkpt>
      <trkpt lat="48.97145" lon="0.06434">
        <ele>120.48</ele>
        <time>2021-08-08T13:14:08Z</time>
      </trkpt>
      <trkpt lat="48.97143" lon="0.06439">
        <ele>120.68</ele>
        <time>2021-08-08T13:14:09Z</time>
      </trkpt>
      <trkpt lat="48.97141" lon="0.06443">
        <ele>120.89</ele>
        <time>2021-08-08T13:14:10Z</time>
      </trkpt>
      <trkpt lat="48.97139" lon="0.06447">
        <ele>121.16</ele>
        <time>2021-08-08T13:14:11Z</time>
      </trkpt>
      <trkpt lat="48.97137" lon="0.06451">
        <ele>121.47</ele>
        <time>2021-08-08T13:14:12Z</time>
      </trkpt>
      <trkpt lat="48.97136" lon="0.06454">
        <ele>121.81</ele>
        <time>2021-08-08T13:14:13Z</time>
      </trkpt>
      <trkpt lat="48.97134" lon="0.06458">
        <ele>122.18</ele>
        <time>2021-08-08T13:14:14Z</time>
      </trkpt>
      <trkpt lat="48.97133" lon="0.06462">
        <ele>122.56</ele>
        <time>2021-08-08T13:14:15Z</time>
      </trkpt>
      <trkpt lat="48.97132" lon="0.06467">
        <ele>122.97</ele>
        <time>2021-08-08T13:14:16Z</time>
      </trkpt>
      <trkpt lat="48.97131" lon="0.06471">
        <ele>123.37</ele>
        <time>2021-08-08T13:14:17Z</time>
      </trkpt>
      <trkpt lat="48.9713" lon="0.06474">
        <ele>123.69</ele>
        <time>2021-08-08T13:14:18Z</time>
      </trkpt>
      <trkpt lat="48.97129" lon="0.06477">
        <ele>123.97</ele>
        <time>2021-08-08T13:14:19Z</time>
      </trkpt>
      <trkpt lat="48.97129" lon="0.06481">
        <ele>124.22</ele>
        <time>2021-08-08T13:14:20Z</time>
      </trkpt>
      <trkpt lat="48.97128" lon="0.06484">
        <ele>124.47</ele>
        <time>2021-08-08T13:14:21Z</time>
      </trkpt>
      <trkpt lat="48.97127" lon="0.06486">
        <ele>124.7</ele>
        <time>2021-08-08T13:14:22Z</time>
      </trkpt>
      <trkpt lat="48.97126" lon="0.06489">
        <ele>124.94</ele>
        <time>2021-08-08T13:14:23Z</time>
      </trkpt>
      <trkpt lat="48.97126" lon="0.06491">
        <ele>125.15</ele>
        <time>2021-08-08T13:14:24Z</time>
      </trkpt>
      <trkpt lat="48.97125" lon="0.06494">
        <ele>125.38</ele>
        <time>2021-08-08T13:14:25Z</time>
      </trkpt>
      <trkpt lat="48.97125" lon="0.06497">
        <ele>125.63</ele>
        <time>2021-08-08T13:14:26Z</time>
      </trkpt>
      <trkpt lat="48.97124" lon="0.065">
        <ele>125.86</ele>
        <time>2021-08-08T13:14:27Z</time>
      </trkpt>
      <trkpt lat="48.97124" lon="0.06502">
        <ele>126.05</ele>
        <time>2021-08-08T13:14:28Z</time>
      </trkpt>
      <trkpt lat="48.97123" lon="0.06505">
        <ele>126.23</ele>
        <time>2021-08-08T13:14:29Z</time>
      </trkpt>
      <trkpt lat="48.97122" lon="0.06509">
        <ele>126.43</ele>
        <time>2021-08-08T13:14:30Z</time>
      </trkpt>
      <trkpt lat="48.97121" lon="0.06514">
        <ele>126.72</ele>
        <time>2021-08-08T13:14:32Z</time>
      </trkpt>
      <trkpt lat="48.9712" lon="0.06517">
        <ele>126.94</ele>
        <time>2021-08-08T13:14:33Z</time>
      </trkpt>
      <trkpt lat="48.97119" lon="0.06519">
        <ele>127.12</ele>
        <time>2021-08-08T13:14:34Z</time>
      </trkpt>
      <trkpt lat="48.97119" lon="0.06522">
        <ele>127.3</ele>
        <time>2021-08-08T13:14:35Z</time>
      </trkpt>
      <trkpt lat="48.97119" lon="0.06525">
        <ele>127.48</ele>
        <time>2021-08-08T13:14:36Z</time>
      </trkpt>
      <trkpt lat="48.97119" lon="0.06526">
        <ele>127.59</ele>
        <time>2021-08-08T13:14:37Z</time>
      </trkpt>
      <trkpt lat="48.97119" lon="0.06527">
        <ele>127.67</ele>
        <time>2021-08-08T13:14:38Z</time>
      </trkpt>
      <trkpt lat="48.97119" lon="0.06529">
        <ele>127.73</ele>
        <time>2021-08-08T13:14:39Z</time>
      </trkpt>
      <trkpt lat="48.97119" lon="0.06529">
        <ele>127.75</ele>
        <time>2021-08-08T13:14:40Z</time>
      </trkpt>
      <trkpt lat="48.97119" lon="0.06529">
        <ele>127.76</ele>
        <time>2021-08-08T13:14:41Z</time>
      </trkpt>
      <trkpt lat="48.97115" lon="0.06532">
        <ele>127.94</ele>
        <time>2021-08-08T13:14:42Z</time>
      </trkpt>
      <trkpt lat="48.97114" lon="0.06534">
        <ele>128.08</ele>
        <time>2021-08-08T13:14:43Z</time>
      </trkpt>
      <trkpt lat="48.97113" lon="0.06536">
        <ele>128.18</ele>
        <time>2021-08-08T13:14:44Z</time>
      </trkpt>
      <trkpt lat="48.97112" lon="0.06536">
        <ele>128.24</ele>
        <time>2021-08-08T13:14:45Z</time>
      </trkpt>
      <trkpt lat="48.97111" lon="0.06536">
        <ele>128.27</ele>
        <time>2021-08-08T13:14:46Z</time>
      </trkpt>
      <trkpt lat="48.97111" lon="0.06536">
        <ele>128.28</ele>
        <time>2021-08-08T13:14:47Z</time>
      </trkpt>
      <trkpt lat="48.97107" lon="0.06537">
        <ele>128.45</ele>
        <time>2021-08-08T13:14:48Z</time>
      </trkpt>
      <trkpt lat="48.97105" lon="0.06538">
        <ele>128.6</ele>
        <time>2021-08-08T13:14:49Z</time>
      </trkpt>
      <trkpt lat="48.97103" lon="0.0654">
        <ele>128.77</ele>
        <time>2021-08-08T13:14:50Z</time>
      </trkpt>
      <trkpt lat="48.97102" lon="0.06541">
        <ele>128.92</ele>
        <time>2021-08-08T13:14:51Z</time>
      </trkpt>
      <trkpt lat="48.971" lon="0.06544">
        <ele>129.11</ele>
        <time>2021-08-08T13:14:52Z</time>
      </trkpt>
      <trkpt lat="48.97099" lon="0.06546">
        <ele>129.28</ele>
        <time>2021-08-08T13:14:53Z</time>
      </trkpt>
      <trkpt lat="48.97098" lon="0.06547">
        <ele>129.41</ele>
        <time>2021-08-08T13:14:54Z</time>
      </trkpt>
      <trkpt lat="48.97097" lon="0.06548">
        <ele>129.56</ele>
        <time>2021-08-08T13:14:55Z</time>
      </trkpt>
      <trkpt lat="48.97095" lon="0.06549">
        <ele>129.73</ele>
        <time>2021-08-08T13:14:56Z</time>
      </trkpt>
      <trkpt lat="48.97094" lon="0.06551">
        <ele>129.9</ele>
        <time>2021-08-08T13:14:57Z</time>
      </trkpt>
      <trkpt lat="48.97092" lon="0.06552">
        <ele>130.1</ele>
        <time>2021-08-08T13:14:58Z</time>
      </trkpt>
      <trkpt lat="48.97091" lon="0.06553">
        <ele>130.24</ele>
        <time>2021-08-08T13:14:59Z</time>
      </trkpt>
      <trkpt lat="48.97091" lon="0.06554">
        <ele>130.34</ele>
        <time>2021-08-08T13:15:00Z</time>
      </trkpt>
      <trkpt lat="48.9709" lon="0.06556">
        <ele>130.49</ele>
        <time>2021-08-08T13:15:01Z</time>
      </trkpt>
      <trkpt lat="48.9709" lon="0.06556">
        <ele>130.53</ele>
        <time>2021-08-08T13:15:02Z</time>
      </trkpt>
      <trkpt lat="48.97088" lon="0.06558">
        <ele>130.77</ele>
        <time>2021-08-08T13:15:03Z</time>
      </trkpt>
      <trkpt lat="48.97087" lon="0.0656">
        <ele>130.96</ele>
        <time>2021-08-08T13:15:04Z</time>
      </trkpt>
      <trkpt lat="48.97086" lon="0.06561">
        <ele>131.13</ele>
        <time>2021-08-08T13:15:05Z</time>
      </trkpt>
      <trkpt lat="48.97085" lon="0.06563">
        <ele>131.28</ele>
        <time>2021-08-08T13:15:06Z</time>
      </trkpt>
      <trkpt lat="48.97085" lon="0.06566">
        <ele>131.52</ele>
        <time>2021-08-08T13:15:07Z</time>
      </trkpt>
      <trkpt lat="48.97084" lon="0.06568">
        <ele>131.76</ele>
        <time>2021-08-08T13:15:08Z</time>
      </trkpt>
      <trkpt lat="48.97083" lon="0.06571">
        <ele>132.11</ele>
        <time>2021-08-08T13:15:09Z</time>
      </trkpt>
      <trkpt lat="48.97081" lon="0.06573">
        <ele>132.59</ele>
        <time>2021-08-08T13:15:10Z</time>
      </trkpt>
      <trkpt lat="48.9708" lon="0.06575">
        <ele>132.95</ele>
        <time>2021-08-08T13:15:11Z</time>
      </trkpt>
      <trkpt lat="48.9708" lon="0.06577">
        <ele>133.18</ele>
        <time>2021-08-08T13:15:12Z</time>
      </trkpt>
      <trkpt lat="48.9708" lon="0.06578">
        <ele>133.3</ele>
        <time>2021-08-08T13:15:13Z</time>
      </trkpt>
      <trkpt lat="48.97081" lon="0.06579">
        <ele>133.28</ele>
        <time>2021-08-08T13:15:14Z</time>
      </trkpt>
      <trkpt lat="48.97081" lon="0.06579">
        <ele>133.27</ele>
        <time>2021-08-08T13:15:15Z</time>
      </trkpt>
      <trkpt lat="48.97081" lon="0.06579">
        <ele>133.27</ele>
        <time>2021-08-08T13:15:16Z</time>
      </trkpt>
      <trkpt lat="48.9708" lon="0.06584">
        <ele>133.69</ele>
        <time>2021-08-08T13:15:17Z</time>
      </trkpt>
      <trkpt lat="48.97079" lon="0.06585">
        <ele>133.97</ele>
        <time>2021-08-08T13:15:18Z</time>
      </trkpt>
      <trkpt lat="48.97079" lon="0.06587">
        <ele>134.24</ele>
        <time>2021-08-08T13:15:19Z</time>
      </trkpt>
      <trkpt lat="48.97077" lon="0.0659">
        <ele>134.86</ele>
        <time>2021-08-08T13:15:20Z</time>
      </trkpt>
      <trkpt lat="48.97076" lon="0.06592">
        <ele>135.39</ele>
        <time>2021-08-08T13:15:21Z</time>
      </trkpt>
      <trkpt lat="48.97075" lon="0.06593">
        <ele>135.83</ele>
        <time>2021-08-08T13:15:22Z</time>
      </trkpt>
      <trkpt lat="48.97074" lon="0.06594">
        <ele>136.21</ele>
        <time>2021-08-08T13:15:23Z</time>
      </trkpt>
      <trkpt lat="48.97074" lon="0.06594">
        <ele>136.33</ele>
        <time>2021-08-08T13:15:24Z</time>
      </trkpt>
      <trkpt lat="48.97074" lon="0.06594">
        <ele>136.36</ele>
        <time>2021-08-08T13:15:25Z</time>
      </trkpt>
      <trkpt lat="48.97068" lon="0.066">
        <ele>137.85</ele>
        <time>2021-08-08T13:15:26Z</time>
      </trkpt>
      <trkpt lat="48.97066" lon="0.06602">
        <ele>138.73</ele>
        <time>2021-08-08T13:15:27Z</time>
      </trkpt>
      <trkpt lat="48.97065" lon="0.06604">
        <ele>139.43</ele>
        <time>2021-08-08T13:15:28Z</time>
      </trkpt>
      <trkpt lat="48.97064" lon="0.06606">
        <ele>140.02</ele>
        <time>2021-08-08T13:15:29Z</time>
      </trkpt>
      <trkpt lat="48.97063" lon="0.06607">
        <ele>140.44</ele>
        <time>2021-08-08T13:15:30Z</time>
      </trkpt>
      <trkpt lat="48.97063" lon="0.06607">
        <ele>140.52</ele>
        <time>2021-08-08T13:15:31Z</time>
      </trkpt>
      <trkpt lat="48.97063" lon="0.06609">
        <ele>140.72</ele>
        <time>2021-08-08T13:15:32Z</time>
      </trkpt>
      <trkpt lat="48.97063" lon="0.06612">
        <ele>141.02</ele>
        <time>2021-08-08T13:15:33Z</time>
      </trkpt>
      <trkpt lat="48.97062" lon="0.06613">
        <ele>141.24</ele>
        <time>2021-08-08T13:15:34Z</time>
      </trkpt>
      <trkpt lat="48.97062" lon="0.06615">
        <ele>141.45</ele>
        <time>2021-08-08T13:15:35Z</time>
      </trkpt>
      <trkpt lat="48.97062" lon="0.06615">
        <ele>141.56</ele>
        <time>2021-08-08T13:15:36Z</time>
      </trkpt>
      <trkpt lat="48.97062" lon="0.06615">
        <ele>141.6</ele>
        <time>2021-08-08T13:15:37Z</time>
      </trkpt>
      <trkpt lat="48.97062" lon="0.06615">
        <ele>141.61</ele>
        <time>2021-08-08T13:15:38Z</time>
      </trkpt>
      <trkpt lat="48.97058" lon="0.06621">
        <ele>142.4</ele>
        <time>2021-08-08T13:15:39Z</time>
      </trkpt>
      <trkpt lat="48.97056" lon="0.06623">
        <ele>143.11</ele>
        <time>2021-08-08T13:15:40Z</time>
      </trkpt>
      <trkpt lat="48.97055" lon="0.06625">
        <ele>143.51</ele>
        <time>2021-08-08T13:15:41Z</time>
      </trkpt>
      <trkpt lat="48.97054" lon="0.06628">
        <ele>143.87</ele>
        <time>2021-08-08T13:15:42Z</time>
      </trkpt>
      <trkpt lat="48.97053" lon="0.06631">
        <ele>144.09</ele>
        <time>2021-08-08T13:15:43Z</time>
      </trkpt>
      <trkpt lat="48.97052" lon="0.06632">
        <ele>144.34</ele>
        <time>2021-08-08T13:15:44Z</time>
      </trkpt>
      <trkpt lat="48.97052" lon="0.06634">
        <ele>144.57</ele>
        <time>2021-08-08T13:15:45Z</time>
      </trkpt>
      <trkpt lat="48.97051" lon="0.06636">
        <ele>144.87</ele>
        <time>2021-08-08T13:15:46Z</time>
      </trkpt>
      <trkpt lat="48.97049" lon="0.06638">
        <ele>145.2</ele>
        <time>2021-08-08T13:15:47Z</time>
      </trkpt>
      <trkpt lat="48.97049" lon="0.06639">
        <ele>145.37</ele>
        <time>2021-08-08T13:15:48Z</time>
      </trkpt>
      <trkpt lat="48.97049" lon="0.0664">
        <ele>145.41</ele>
        <time>2021-08-08T13:15:49Z</time>
      </trkpt>
      <trkpt lat="48.97049" lon="0.06641">
        <ele>145.53</ele>
        <time>2021-08-08T13:15:50Z</time>
      </trkpt>
      <trkpt lat="48.97048" lon="0.06642">
        <ele>145.72</ele>
        <time>2021-08-08T13:15:51Z</time>
      </trkpt>
      <trkpt lat="48.97047" lon="0.06643">
        <ele>145.91</ele>
        <time>2021-08-08T13:15:52Z</time>
      </trkpt>
      <trkpt lat="48.97046" lon="0.06644">
        <ele>146.25</ele>
        <time>2021-08-08T13:15:53Z</time>
      </trkpt>
      <trkpt lat="48.97045" lon="0.06645">
        <ele>146.41</ele>
        <time>2021-08-08T13:15:54Z</time>
      </trkpt>
      <trkpt lat="48.97045" lon="0.06647">
        <ele>146.65</ele>
        <time>2021-08-08T13:15:55Z</time>
      </trkpt>
      <trkpt lat="48.97044" lon="0.06649">
        <ele>146.9</ele>
        <time>2021-08-08T13:15:56Z</time>
      </trkpt>
      <trkpt lat="48.97043" lon="0.06652">
        <ele>147.19</ele>
        <time>2021-08-08T13:15:57Z</time>
      </trkpt>
      <trkpt lat="48.97042" lon="0.06653">
        <ele>147.49</ele>
        <time>2021-08-08T13:15:58Z</time>
      </trkpt>
      <trkpt lat="48.97041" lon="0.06655">
        <ele>147.78</ele>
        <time>2021-08-08T13:15:59Z</time>
      </trkpt>
      <trkpt lat="48.97041" lon="0.06657">
        <ele>148.06</ele>
        <time>2021-08-08T13:16:00Z</time>
      </trkpt>
      <trkpt lat="48.97041" lon="0.06659">
        <ele>148.2</ele>
        <time>2021-08-08T13:16:01Z</time>
      </trkpt>
      <trkpt lat="48.97041" lon="0.0666">
        <ele>148.28</ele>
        <time>2021-08-08T13:16:02Z</time>
      </trkpt>
      <trkpt lat="48.97041" lon="0.06662">
        <ele>148.37</ele>
        <time>2021-08-08T13:16:03Z</time>
      </trkpt>
      <trkpt lat="48.97041" lon="0.06664">
        <ele>148.48</ele>
        <time>2021-08-08T13:16:04Z</time>
      </trkpt>
      <trkpt lat="48.97041" lon="0.06666">
        <ele>148.53</ele>
        <time>2021-08-08T13:16:05Z</time>
      </trkpt>
      <trkpt lat="48.97042" lon="0.06668">
        <ele>148.57</ele>
        <time>2021-08-08T13:16:06Z</time>
      </trkpt>
      <trkpt lat="48.97042" lon="0.0667">
        <ele>148.66</ele>
        <time>2021-08-08T13:16:07Z</time>
      </trkpt>
      <trkpt lat="48.97041" lon="0.06672">
        <ele>148.85</ele>
        <time>2021-08-08T13:16:08Z</time>
      </trkpt>
      <trkpt lat="48.97041" lon="0.06675">
        <ele>149.04</ele>
        <time>2021-08-08T13:16:09Z</time>
      </trkpt>
      <trkpt lat="48.97041" lon="0.06676">
        <ele>149.22</ele>
        <time>2021-08-08T13:16:10Z</time>
      </trkpt>
      <trkpt lat="48.97041" lon="0.06678">
        <ele>149.36</ele>
        <time>2021-08-08T13:16:11Z</time>
      </trkpt>
      <trkpt lat="48.9704" lon="0.0668">
        <ele>149.51</ele>
        <time>2021-08-08T13:16:12Z</time>
      </trkpt>
      <trkpt lat="48.9704" lon="0.06681">
        <ele>149.6</ele>
        <time>2021-08-08T13:16:13Z</time>
      </trkpt>
      <trkpt lat="48.9704" lon="0.06684">
        <ele>149.76</ele>
        <time>2021-08-08T13:16:14Z</time>
      </trkpt>
      <trkpt lat="48.9704" lon="0.06687">
        <ele>149.84</ele>
        <time>2021-08-08T13:16:15Z</time>
      </trkpt>
      <trkpt lat="48.9704" lon="0.0669">
        <ele>150</ele>
        <time>2021-08-08T13:16:16Z</time>
      </trkpt>
      <trkpt lat="48.9704" lon="0.06694">
        <ele>150.21</ele>
        <time>2021-08-08T13:16:17Z</time>
      </trkpt>
      <trkpt lat="48.9704" lon="0.06696">
        <ele>150.41</ele>
        <time>2021-08-08T13:16:18Z</time>
      </trkpt>
      <trkpt lat="48.97038" lon="0.06699">
        <ele>150.79</ele>
        <time>2021-08-08T13:16:19Z</time>
      </trkpt>
      <trkpt lat="48.97038" lon="0.06701">
        <ele>151.11</ele>
        <time>2021-08-08T13:16:20Z</time>
      </trkpt>
      <trkpt lat="48.97037" lon="0.06704">
        <ele>151.5</ele>
        <time>2021-08-08T13:16:21Z</time>
      </trkpt>
      <trkpt lat="48.97036" lon="0.06706">
        <ele>151.82</ele>
        <time>2021-08-08T13:16:22Z</time>
      </trkpt>
      <trkpt lat="48.97034" lon="0.06707">
        <ele>152.22</ele>
        <time>2021-08-08T13:16:23Z</time>
      </trkpt>
      <trkpt lat="48.97034" lon="0.06709">
        <ele>152.55</ele>
        <time>2021-08-08T13:16:24Z</time>
      </trkpt>
      <trkpt lat="48.97033" lon="0.0671">
        <ele>152.79</ele>
        <time>2021-08-08T13:16:25Z</time>
      </trkpt>
      <trkpt lat="48.97033" lon="0.06711">
        <ele>152.96</ele>
        <time>2021-08-08T13:16:26Z</time>
      </trkpt>
      <trkpt lat="48.97033" lon="0.06711">
        <ele>153.03</ele>
        <time>2021-08-08T13:16:27Z</time>
      </trkpt>
      <trkpt lat="48.97032" lon="0.06712">
        <ele>153.15</ele>
        <time>2021-08-08T13:16:28Z</time>
      </trkpt>
      <trkpt lat="48.97032" lon="0.06712">
        <ele>153.19</ele>
        <time>2021-08-08T13:16:29Z</time>
      </trkpt>
      <trkpt lat="48.97032" lon="0.06712">
        <ele>153.2</ele>
        <time>2021-08-08T13:16:30Z</time>
      </trkpt>
      <trkpt lat="48.97032" lon="0.06712">
        <ele>153.21</ele>
        <time>2021-08-08T13:16:31Z</time>
      </trkpt>
      <trkpt lat="48.97033" lon="0.06718">
        <ele>153.36</ele>
        <time>2021-08-08T13:16:32Z</time>
      </trkpt>
      <trkpt lat="48.97033" lon="0.0672">
        <ele>153.54</ele>
        <time>2021-08-08T13:16:33Z</time>
      </trkpt>
      <trkpt lat="48.97033" lon="0.06722">
        <ele>153.65</ele>
        <time>2021-08-08T13:16:34Z</time>
      </trkpt>
      <trkpt lat="48.97034" lon="0.06724">
        <ele>153.65</ele>
        <time>2021-08-08T13:16:35Z</time>
      </trkpt>
      <trkpt lat="48.97034" lon="0.06725">
        <ele>153.71</ele>
        <time>2021-08-08T13:16:36Z</time>
      </trkpt>
      <trkpt lat="48.97034" lon="0.06727">
        <ele>153.87</ele>
        <time>2021-08-08T13:16:37Z</time>
      </trkpt>
      <trkpt lat="48.97034" lon="0.06732">
        <ele>154.32</ele>
        <time>2021-08-08T13:16:38Z</time>
      </trkpt>
      <trkpt lat="48.97034" lon="0.06734">
        <ele>154.65</ele>
        <time>2021-08-08T13:16:39Z</time>
      </trkpt>
      <trkpt lat="48.97034" lon="0.06736">
        <ele>154.94</ele>
        <time>2021-08-08T13:16:40Z</time>
      </trkpt>
      <trkpt lat="48.97033" lon="0.0674">
        <ele>155.32</ele>
        <time>2021-08-08T13:16:41Z</time>
      </trkpt>
      <trkpt lat="48.97032" lon="0.06743">
        <ele>155.88</ele>
        <time>2021-08-08T13:16:42Z</time>
      </trkpt>
      <trkpt lat="48.97032" lon="0.06746">
        <ele>156.33</ele>
        <time>2021-08-08T13:16:43Z</time>
      </trkpt>
      <trkpt lat="48.97031" lon="0.06748">
        <ele>156.73</ele>
        <time>2021-08-08T13:16:44Z</time>
      </trkpt>
      <trkpt lat="48.9703" lon="0.0675">
        <ele>157.19</ele>
        <time>2021-08-08T13:16:45Z</time>
      </trkpt>
      <trkpt lat="48.97029" lon="0.0675">
        <ele>157.58</ele>
        <time>2021-08-08T13:16:46Z</time>
      </trkpt>
      <trkpt lat="48.97029" lon="0.06752">
        <ele>157.81</ele>
        <time>2021-08-08T13:16:47Z</time>
      </trkpt>
      <trkpt lat="48.97028" lon="0.06754">
        <ele>158.25</ele>
        <time>2021-08-08T13:16:48Z</time>
      </trkpt>
      <trkpt lat="48.97026" lon="0.06756">
        <ele>158.56</ele>
        <time>2021-08-08T13:16:49Z</time>
      </trkpt>
      <trkpt lat="48.97026" lon="0.06757">
        <ele>158.77</ele>
        <time>2021-08-08T13:16:50Z</time>
      </trkpt>
      <trkpt lat="48.97025" lon="0.06758">
        <ele>158.94</ele>
        <time>2021-08-08T13:16:51Z</time>
      </trkpt>
      <trkpt lat="48.97025" lon="0.06758">
        <ele>158.99</ele>
        <time>2021-08-08T13:16:52Z</time>
      </trkpt>
      <trkpt lat="48.97025" lon="0.06758">
        <ele>159.01</ele>
        <time>2021-08-08T13:16:53Z</time>
      </trkpt>
      <trkpt lat="48.97025" lon="0.06758">
        <ele>159.01</ele>
        <time>2021-08-08T13:16:54Z</time>
      </trkpt>
      <trkpt lat="48.97025" lon="0.06758">
        <ele>159.02</ele>
        <time>2021-08-08T13:16:55Z</time>
      </trkpt>
      <trkpt lat="48.97025" lon="0.06758">
        <ele>159.02</ele>
        <time>2021-08-08T13:16:56Z</time>
      </trkpt>
      <trkpt lat="48.97025" lon="0.06758">
        <ele>159.02</ele>
        <time>2021-08-08T13:16:57Z</time>
      </trkpt>
      <trkpt lat="48.97025" lon="0.06758">
        <ele>159.02</ele>
        <time>2021-08-08T13:16:58Z</time>
      </trkpt>
      <trkpt lat="48.97025" lon="0.06758">
        <ele>159.02</ele>
        <time>2021-08-08T13:16:59Z</time>
      </trkpt>
      <trkpt lat="48.97025" lon="0.06758">
        <ele>159.02</ele>
        <time>2021-08-08T13:17:00Z</time>
      </trkpt>
      <trkpt lat="48.97025" lon="0.06758">
        <ele>159.02</ele>
        <time>2021-08-08T13:17:01Z</time>
      </trkpt>
      <trkpt lat="48.97025" lon="0.06758">
        <ele>159.02</ele>
        <time>2021-08-08T13:17:02Z</time>
      </trkpt>
      <trkpt lat="48.97025" lon="0.06758">
        <ele>159.02</ele>
        <time>2021-08-08T13:17:03Z</time>
      </trkpt>
      <trkpt lat="48.97025" lon="0.06758">
        <ele>159.02</ele>
        <time>2021-08-08T13:17:04Z</time>
      </trkpt>
      <trkpt lat="48.97025" lon="0.06758">
        <ele>159.02</ele>
        <time>2021-08-08T13:17:05Z</time>
      </trkpt>
      <trkpt lat="48.97025" lon="0.06758">
        <ele>159.02</ele>
        <time>2021-08-08T13:17:06Z</time>
      </trkpt>
      <trkpt lat="48.97025" lon="0.06758">
        <ele>159.02</ele>
        <time>2021-08-08T13:17:07Z</time>
      </trkpt>
      <trkpt lat="48.97025" lon="0.06758">
        <ele>159.02</ele>
        <time>2021-08-08T13:17:08Z</time>
      </trkpt>
      <trkpt lat="48.97025" lon="0.06758">
        <ele>159.02</ele>
        <time>2021-08-08T13:17:09Z</time>
      </trkpt>
      <trkpt lat="48.97025" lon="0.06758">
        <ele>159.02</ele>
        <time>2021-08-08T13:17:10Z</time>
      </trkpt>
      <trkpt lat="48.97025" lon="0.06758">
        <ele>159.02</ele>
        <time>2021-08-08T13:17:11Z</time>
      </trkpt>
      <trkpt lat="48.97025" lon="0.06758">
        <ele>159.02</ele>
        <time>2021-08-08T13:17:12Z</time>
      </trkpt>
      <trkpt lat="48.97025" lon="0.06758">
        <ele>159.02</ele>
        <time>2021-08-08T13:17:13Z</time>
      </trkpt>
      <trkpt lat="48.97025" lon="0.06758">
        <ele>159.02</ele>
        <time>2021-08-08T13:17:14Z</time>
      </trkpt>
      <trkpt lat="48.97025" lon="0.06758">
        <ele>159.02</ele>
        <time>2021-08-08T13:17:15Z</time>
      </trkpt>
      <trkpt lat="48.97025" lon="0.06758">
        <ele>159.02</ele>
        <time>2021-08-08T13:17:16Z</time>
      </trkpt>
      <trkpt lat="48.97025" lon="0.06758">
        <ele>159.02</ele>
        <time>2021-08-08T13:17:17Z</time>
      </trkpt>
      <trkpt lat="48.97025" lon="0.06758">
        <ele>159.02</ele>
        <time>2021-08-08T13:17:18Z</time>
      </trkpt>
      <trkpt lat="48.97025" lon="0.06758">
        <ele>159.02</ele>
        <time>2021-08-08T13:17:19Z</time>
      </trkpt>
      <trkpt lat="48.97025" lon="0.06758">
        <ele>159.02</ele>
        <time>2021-08-08T13:17:20Z</time>
      </trkpt>
      <trkpt lat="48.97025" lon="0.06758">
        <ele>159.02</ele>
        <time>2021-08-08T13:17:21Z</time>
      </trkpt>
      <trkpt lat="48.97021" lon="0.06758">
        <ele>159.23</ele>
        <time>2021-08-08T13:17:22Z</time>
      </trkpt>
      <trkpt lat="48.97019" lon="0.06757">
        <ele>159.32</ele>
        <time>2021-08-08T13:17:23Z</time>
      </trkpt>
      <trkpt lat="48.97018" lon="0.06756">
        <ele>159.33</ele>
        <time>2021-08-08T13:17:24Z</time>
      </trkpt>
      <trkpt lat="48.97015" lon="0.06754">
        <ele>159.35</ele>
        <time>2021-08-08T13:17:25Z</time>
      </trkpt>
      <trkpt lat="48.97013" lon="0.06753">
        <ele>159.36</ele>
        <time>2021-08-08T13:17:26Z</time>
      </trkpt>
      <trkpt lat="48.9701" lon="0.06751">
        <ele>159.37</ele>
        <time>2021-08-08T13:17:27Z</time>
      </trkpt>
      <trkpt lat="48.97008" lon="0.0675">
        <ele>159.38</ele>
        <time>2021-08-08T13:17:28Z</time>
      </trkpt>
      <trkpt lat="48.97005" lon="0.06748">
        <ele>159.39</ele>
        <time>2021-08-08T13:17:29Z</time>
      </trkpt>
      <trkpt lat="48.97003" lon="0.06748">
        <ele>159.52</ele>
        <time>2021-08-08T13:17:30Z</time>
      </trkpt>
      <trkpt lat="48.97" lon="0.06749">
        <ele>159.75</ele>
        <time>2021-08-08T13:17:31Z</time>
      </trkpt>
      <trkpt lat="48.96997" lon="0.06749">
        <ele>159.92</ele>
        <time>2021-08-08T13:17:32Z</time>
      </trkpt>
      <trkpt lat="48.96994" lon="0.06749">
        <ele>160.01</ele>
        <time>2021-08-08T13:17:33Z</time>
      </trkpt>
      <trkpt lat="48.96992" lon="0.06749">
        <ele>160.12</ele>
        <time>2021-08-08T13:17:34Z</time>
      </trkpt>
      <trkpt lat="48.9699" lon="0.0675">
        <ele>160.3</ele>
        <time>2021-08-08T13:17:35Z</time>
      </trkpt>
      <trkpt lat="48.96989" lon="0.06752">
        <ele>160.53</ele>
        <time>2021-08-08T13:17:36Z</time>
      </trkpt>
      <trkpt lat="48.96989" lon="0.06755">
        <ele>160.84</ele>
        <time>2021-08-08T13:17:37Z</time>
      </trkpt>
      <trkpt lat="48.9699" lon="0.06758">
        <ele>161.2</ele>
        <time>2021-08-08T13:17:38Z</time>
      </trkpt>
      <trkpt lat="48.96991" lon="0.0676">
        <ele>161.47</ele>
        <time>2021-08-08T13:17:39Z</time>
      </trkpt>
      <trkpt lat="48.96992" lon="0.06762">
        <ele>161.64</ele>
        <time>2021-08-08T13:17:40Z</time>
      </trkpt>
      <trkpt lat="48.96993" lon="0.06764">
        <ele>161.78</ele>
        <time>2021-08-08T13:17:41Z</time>
      </trkpt>
      <trkpt lat="48.96996" lon="0.06765">
        <ele>161.8</ele>
        <time>2021-08-08T13:17:42Z</time>
      </trkpt>
      <trkpt lat="48.96998" lon="0.06766">
        <ele>161.85</ele>
        <time>2021-08-08T13:17:43Z</time>
      </trkpt>
      <trkpt lat="48.97001" lon="0.06768">
        <ele>161.89</ele>
        <time>2021-08-08T13:17:44Z</time>
      </trkpt>
      <trkpt lat="48.97003" lon="0.0677">
        <ele>161.93</ele>
        <time>2021-08-08T13:17:45Z</time>
      </trkpt>
      <trkpt lat="48.97006" lon="0.06772">
        <ele>161.97</ele>
        <time>2021-08-08T13:17:46Z</time>
      </trkpt>
      <trkpt lat="48.97009" lon="0.06775">
        <ele>162.02</ele>
        <time>2021-08-08T13:17:47Z</time>
      </trkpt>
      <trkpt lat="48.97012" lon="0.06777">
        <ele>162.09</ele>
        <time>2021-08-08T13:17:48Z</time>
      </trkpt>
      <trkpt lat="48.97014" lon="0.0678">
        <ele>162.15</ele>
        <time>2021-08-08T13:17:49Z</time>
      </trkpt>
      <trkpt lat="48.97016" lon="0.06782">
        <ele>162.27</ele>
        <time>2021-08-08T13:17:50Z</time>
      </trkpt>
      <trkpt lat="48.97019" lon="0.06786">
        <ele>162.42</ele>
        <time>2021-08-08T13:17:51Z</time>
      </trkpt>
      <trkpt lat="48.97021" lon="0.06789">
        <ele>162.59</ele>
        <time>2021-08-08T13:17:52Z</time>
      </trkpt>
      <trkpt lat="48.97022" lon="0.06792">
        <ele>162.78</ele>
        <time>2021-08-08T13:17:53Z</time>
      </trkpt>
      <trkpt lat="48.97024" lon="0.06795">
        <ele>163.02</ele>
        <time>2021-08-08T13:17:54Z</time>
      </trkpt>
      <trkpt lat="48.97025" lon="0.06799">
        <ele>163.32</ele>
        <time>2021-08-08T13:17:55Z</time>
      </trkpt>
      <trkpt lat="48.97027" lon="0.06803">
        <ele>163.65</ele>
        <time>2021-08-08T13:17:56Z</time>
      </trkpt>
      <trkpt lat="48.97028" lon="0.06807">
        <ele>163.81</ele>
        <time>2021-08-08T13:17:57Z</time>
      </trkpt>
      <trkpt lat="48.97031" lon="0.06811">
        <ele>163.67</ele>
        <time>2021-08-08T13:17:58Z</time>
      </trkpt>
      <trkpt lat="48.97033" lon="0.06815">
        <ele>163.43</ele>
        <time>2021-08-08T13:17:59Z</time>
      </trkpt>
      <trkpt lat="48.97035" lon="0.06819">
        <ele>163.15</ele>
        <time>2021-08-08T13:18:00Z</time>
      </trkpt>
      <trkpt lat="48.97037" lon="0.06822">
        <ele>162.96</ele>
        <time>2021-08-08T13:18:01Z</time>
      </trkpt>
      <trkpt lat="48.97038" lon="0.06826">
        <ele>162.73</ele>
        <time>2021-08-08T13:18:02Z</time>
      </trkpt>
      <trkpt lat="48.9704" lon="0.06829">
        <ele>162.62</ele>
        <time>2021-08-08T13:18:03Z</time>
      </trkpt>
      <trkpt lat="48.97041" lon="0.06833">
        <ele>162.71</ele>
        <time>2021-08-08T13:18:04Z</time>
      </trkpt>
      <trkpt lat="48.9704" lon="0.06837">
        <ele>163.06</ele>
        <time>2021-08-08T13:18:05Z</time>
      </trkpt>
      <trkpt lat="48.9704" lon="0.06842">
        <ele>163.43</ele>
        <time>2021-08-08T13:18:06Z</time>
      </trkpt>
      <trkpt lat="48.97041" lon="0.06847">
        <ele>163.79</ele>
        <time>2021-08-08T13:18:07Z</time>
      </trkpt>
      <trkpt lat="48.97042" lon="0.06852">
        <ele>164.06</ele>
        <time>2021-08-08T13:18:08Z</time>
      </trkpt>
      <trkpt lat="48.97042" lon="0.06858">
        <ele>164.36</ele>
        <time>2021-08-08T13:18:09Z</time>
      </trkpt>
      <trkpt lat="48.97042" lon="0.06863">
        <ele>164.77</ele>
        <time>2021-08-08T13:18:10Z</time>
      </trkpt>
      <trkpt lat="48.97042" lon="0.06868">
        <ele>165.25</ele>
        <time>2021-08-08T13:18:11Z</time>
      </trkpt>
      <trkpt lat="48.97042" lon="0.06872">
        <ele>165.75</ele>
        <time>2021-08-08T13:18:12Z</time>
      </trkpt>
      <trkpt lat="48.97043" lon="0.06877">
        <ele>166.22</ele>
        <time>2021-08-08T13:18:13Z</time>
      </trkpt>
      <trkpt lat="48.97043" lon="0.06883">
        <ele>166.78</ele>
        <time>2021-08-08T13:18:14Z</time>
      </trkpt>
      <trkpt lat="48.97042" lon="0.06888">
        <ele>167.41</ele>
        <time>2021-08-08T13:18:15Z</time>
      </trkpt>
      <trkpt lat="48.97042" lon="0.06894">
        <ele>168.15</ele>
        <time>2021-08-08T13:18:16Z</time>
      </trkpt>
      <trkpt lat="48.97041" lon="0.06899">
        <ele>168.69</ele>
        <time>2021-08-08T13:18:17Z</time>
      </trkpt>
      <trkpt lat="48.97041" lon="0.06902">
        <ele>169.22</ele>
        <time>2021-08-08T13:18:18Z</time>
      </trkpt>
      <trkpt lat="48.97041" lon="0.06907">
        <ele>169.71</ele>
        <time>2021-08-08T13:18:19Z</time>
      </trkpt>
      <trkpt lat="48.9704" lon="0.06911">
        <ele>170.19</ele>
        <time>2021-08-08T13:18:20Z</time>
      </trkpt>
      <trkpt lat="48.97039" lon="0.06915">
        <ele>170.69</ele>
        <time>2021-08-08T13:18:21Z</time>
      </trkpt>
      <trkpt lat="48.97039" lon="0.06919">
        <ele>171.03</ele>
        <time>2021-08-08T13:18:22Z</time>
      </trkpt>
      <trkpt lat="48.97038" lon="0.06924">
        <ele>171.18</ele>
        <time>2021-08-08T13:18:23Z</time>
      </trkpt>
      <trkpt lat="48.97038" lon="0.06929">
        <ele>171.23</ele>
        <time>2021-08-08T13:18:24Z</time>
      </trkpt>
      <trkpt lat="48.97037" lon="0.06934">
        <ele>171.34</ele>
        <time>2021-08-08T13:18:25Z</time>
      </trkpt>
      <trkpt lat="48.97037" lon="0.06938">
        <ele>171.43</ele>
        <time>2021-08-08T13:18:26Z</time>
      </trkpt>
      <trkpt lat="48.97036" lon="0.06944">
        <ele>171.54</ele>
        <time>2021-08-08T13:18:27Z</time>
      </trkpt>
      <trkpt lat="48.97036" lon="0.06949">
        <ele>171.47</ele>
        <time>2021-08-08T13:18:28Z</time>
      </trkpt>
      <trkpt lat="48.97035" lon="0.06954">
        <ele>171.39</ele>
        <time>2021-08-08T13:18:29Z</time>
      </trkpt>
      <trkpt lat="48.97034" lon="0.06959">
        <ele>171.43</ele>
        <time>2021-08-08T13:18:30Z</time>
      </trkpt>
      <trkpt lat="48.97033" lon="0.06965">
        <ele>171.38</ele>
        <time>2021-08-08T13:18:31Z</time>
      </trkpt>
      <trkpt lat="48.97032" lon="0.06971">
        <ele>171.23</ele>
        <time>2021-08-08T13:18:32Z</time>
      </trkpt>
      <trkpt lat="48.97031" lon="0.06976">
        <ele>171.21</ele>
        <time>2021-08-08T13:18:33Z</time>
      </trkpt>
      <trkpt lat="48.97029" lon="0.06981">
        <ele>171.33</ele>
        <time>2021-08-08T13:18:34Z</time>
      </trkpt>
      <trkpt lat="48.97028" lon="0.06987">
        <ele>171.43</ele>
        <time>2021-08-08T13:18:35Z</time>
      </trkpt>
      <trkpt lat="48.97026" lon="0.06991">
        <ele>171.58</ele>
        <time>2021-08-08T13:18:36Z</time>
      </trkpt>
      <trkpt lat="48.97025" lon="0.06996">
        <ele>171.75</ele>
        <time>2021-08-08T13:18:37Z</time>
      </trkpt>
      <trkpt lat="48.97023" lon="0.07001">
        <ele>171.94</ele>
        <time>2021-08-08T13:18:38Z</time>
      </trkpt>
      <trkpt lat="48.97021" lon="0.07006">
        <ele>172.17</ele>
        <time>2021-08-08T13:18:39Z</time>
      </trkpt>
      <trkpt lat="48.97019" lon="0.0701">
        <ele>172.42</ele>
        <time>2021-08-08T13:18:40Z</time>
      </trkpt>
      <trkpt lat="48.97018" lon="0.07015">
        <ele>172.66</ele>
        <time>2021-08-08T13:18:41Z</time>
      </trkpt>
      <trkpt lat="48.97016" lon="0.0702">
        <ele>172.91</ele>
        <time>2021-08-08T13:18:42Z</time>
      </trkpt>
      <trkpt lat="48.97015" lon="0.07024">
        <ele>173.23</ele>
        <time>2021-08-08T13:18:43Z</time>
      </trkpt>
      <trkpt lat="48.97014" lon="0.07029">
        <ele>173.49</ele>
        <time>2021-08-08T13:18:44Z</time>
      </trkpt>
      <trkpt lat="48.97013" lon="0.07034">
        <ele>173.71</ele>
        <time>2021-08-08T13:18:45Z</time>
      </trkpt>
      <trkpt lat="48.97012" lon="0.07039">
        <ele>173.84</ele>
        <time>2021-08-08T13:18:46Z</time>
      </trkpt>
      <trkpt lat="48.97012" lon="0.07044">
        <ele>173.99</ele>
        <time>2021-08-08T13:18:47Z</time>
      </trkpt>
      <trkpt lat="48.97011" lon="0.07049">
        <ele>174.22</ele>
        <time>2021-08-08T13:18:48Z</time>
      </trkpt>
      <trkpt lat="48.97009" lon="0.07053">
        <ele>174.52</ele>
        <time>2021-08-08T13:18:49Z</time>
      </trkpt>
      <trkpt lat="48.97008" lon="0.07058">
        <ele>174.86</ele>
        <time>2021-08-08T13:18:50Z</time>
      </trkpt>
      <trkpt lat="48.97007" lon="0.07062">
        <ele>175.11</ele>
        <time>2021-08-08T13:18:51Z</time>
      </trkpt>
      <trkpt lat="48.97006" lon="0.07068">
        <ele>175.37</ele>
        <time>2021-08-08T13:18:52Z</time>
      </trkpt>
      <trkpt lat="48.97004" lon="0.07072">
        <ele>175.68</ele>
        <time>2021-08-08T13:18:53Z</time>
      </trkpt>
      <trkpt lat="48.97004" lon="0.07079">
        <ele>175.88</ele>
        <time>2021-08-08T13:18:54Z</time>
      </trkpt>
      <trkpt lat="48.97003" lon="0.07083">
        <ele>176.06</ele>
        <time>2021-08-08T13:18:55Z</time>
      </trkpt>
      <trkpt lat="48.97003" lon="0.07089">
        <ele>176.17</ele>
        <time>2021-08-08T13:18:56Z</time>
      </trkpt>
      <trkpt lat="48.97002" lon="0.07094">
        <ele>176.43</ele>
        <time>2021-08-08T13:18:57Z</time>
      </trkpt>
      <trkpt lat="48.97" lon="0.07099">
        <ele>176.76</ele>
        <time>2021-08-08T13:18:58Z</time>
      </trkpt>
      <trkpt lat="48.96999" lon="0.07104">
        <ele>177.04</ele>
        <time>2021-08-08T13:18:59Z</time>
      </trkpt>
      <trkpt lat="48.96999" lon="0.07109">
        <ele>177.22</ele>
        <time>2021-08-08T13:19:00Z</time>
      </trkpt>
      <trkpt lat="48.96998" lon="0.07114">
        <ele>177.48</ele>
        <time>2021-08-08T13:19:01Z</time>
      </trkpt>
      <trkpt lat="48.96997" lon="0.07119">
        <ele>177.73</ele>
        <time>2021-08-08T13:19:02Z</time>
      </trkpt>
      <trkpt lat="48.96995" lon="0.07124">
        <ele>178.01</ele>
        <time>2021-08-08T13:19:03Z</time>
      </trkpt>
      <trkpt lat="48.96994" lon="0.07129">
        <ele>178.33</ele>
        <time>2021-08-08T13:19:04Z</time>
      </trkpt>
      <trkpt lat="48.96993" lon="0.07134">
        <ele>178.63</ele>
        <time>2021-08-08T13:19:05Z</time>
      </trkpt>
      <trkpt lat="48.96992" lon="0.07138">
        <ele>178.93</ele>
        <time>2021-08-08T13:19:06Z</time>
      </trkpt>
      <trkpt lat="48.96991" lon="0.07143">
        <ele>179.42</ele>
        <time>2021-08-08T13:19:07Z</time>
      </trkpt>
      <trkpt lat="48.96989" lon="0.07148">
        <ele>179.97</ele>
        <time>2021-08-08T13:19:08Z</time>
      </trkpt>
      <trkpt lat="48.96988" lon="0.07152">
        <ele>180.54</ele>
        <time>2021-08-08T13:19:09Z</time>
      </trkpt>
      <trkpt lat="48.96987" lon="0.07157">
        <ele>181.1</ele>
        <time>2021-08-08T13:19:10Z</time>
      </trkpt>
      <trkpt lat="48.96986" lon="0.07162">
        <ele>181.56</ele>
        <time>2021-08-08T13:19:11Z</time>
      </trkpt>
      <trkpt lat="48.96984" lon="0.07167">
        <ele>182.14</ele>
        <time>2021-08-08T13:19:12Z</time>
      </trkpt>
      <trkpt lat="48.96983" lon="0.07172">
        <ele>182.56</ele>
        <time>2021-08-08T13:19:13Z</time>
      </trkpt>
      <trkpt lat="48.96982" lon="0.07177">
        <ele>182.91</ele>
        <time>2021-08-08T13:19:14Z</time>
      </trkpt>
      <trkpt lat="48.9698" lon="0.07182">
        <ele>183.23</ele>
        <time>2021-08-08T13:19:15Z</time>
      </trkpt>
      <trkpt lat="48.96979" lon="0.07187">
        <ele>183.55</ele>
        <time>2021-08-08T13:19:16Z</time>
      </trkpt>
      <trkpt lat="48.96977" lon="0.07192">
        <ele>183.91</ele>
        <time>2021-08-08T13:19:17Z</time>
      </trkpt>
      <trkpt lat="48.96976" lon="0.07197">
        <ele>184.27</ele>
        <time>2021-08-08T13:19:18Z</time>
      </trkpt>
      <trkpt lat="48.96974" lon="0.07202">
        <ele>184.6</ele>
        <time>2021-08-08T13:19:19Z</time>
      </trkpt>
      <trkpt lat="48.96972" lon="0.07207">
        <ele>184.87</ele>
        <time>2021-08-08T13:19:20Z</time>
      </trkpt>
      <trkpt lat="48.96971" lon="0.07212">
        <ele>185.03</ele>
        <time>2021-08-08T13:19:21Z</time>
      </trkpt>
      <trkpt lat="48.96969" lon="0.07219">
        <ele>185.37</ele>
        <time>2021-08-08T13:20:47Z</time>
      </trkpt>
      <trkpt lat="48.96963" lon="0.07217">
        <ele>185.74</ele>
        <time>2021-08-08T13:20:48Z</time>
      </trkpt>
      <trkpt lat="48.96959" lon="0.07217">
        <ele>186.18</ele>
        <time>2021-08-08T13:20:49Z</time>
      </trkpt>
      <trkpt lat="48.96955" lon="0.07217">
        <ele>186.57</ele>
        <time>2021-08-08T13:20:50Z</time>
      </trkpt>
      <trkpt lat="48.96952" lon="0.07217">
        <ele>186.92</ele>
        <time>2021-08-08T13:20:51Z</time>
      </trkpt>
      <trkpt lat="48.96949" lon="0.07217">
        <ele>187.25</ele>
        <time>2021-08-08T13:20:52Z</time>
      </trkpt>
      <trkpt lat="48.96945" lon="0.07217">
        <ele>187.59</ele>
        <time>2021-08-08T13:20:53Z</time>
      </trkpt>
      <trkpt lat="48.96942" lon="0.07217">
        <ele>187.96</ele>
        <time>2021-08-08T13:20:54Z</time>
      </trkpt>
      <trkpt lat="48.96939" lon="0.07217">
        <ele>188.3</ele>
        <time>2021-08-08T13:20:55Z</time>
      </trkpt>
      <trkpt lat="48.96935" lon="0.07217">
        <ele>188.65</ele>
        <time>2021-08-08T13:20:56Z</time>
      </trkpt>
      <trkpt lat="48.96932" lon="0.07217">
        <ele>189</ele>
        <time>2021-08-08T13:20:57Z</time>
      </trkpt>
      <trkpt lat="48.96929" lon="0.07217">
        <ele>189.34</ele>
        <time>2021-08-08T13:20:58Z</time>
      </trkpt>
      <trkpt lat="48.96926" lon="0.07216">
        <ele>189.66</ele>
        <time>2021-08-08T13:20:59Z</time>
      </trkpt>
      <trkpt lat="48.96923" lon="0.07216">
        <ele>189.97</ele>
        <time>2021-08-08T13:21:00Z</time>
      </trkpt>
      <trkpt lat="48.9692" lon="0.07214">
        <ele>190.23</ele>
        <time>2021-08-08T13:21:01Z</time>
      </trkpt>
      <trkpt lat="48.96917" lon="0.07214">
        <ele>190.53</ele>
        <time>2021-08-08T13:21:02Z</time>
      </trkpt>
      <trkpt lat="48.96914" lon="0.07214">
        <ele>190.65</ele>
        <time>2021-08-08T13:21:03Z</time>
      </trkpt>
      <trkpt lat="48.96912" lon="0.07213">
        <ele>190.66</ele>
        <time>2021-08-08T13:21:04Z</time>
      </trkpt>
      <trkpt lat="48.9691" lon="0.07211">
        <ele>190.62</ele>
        <time>2021-08-08T13:21:05Z</time>
      </trkpt>
      <trkpt lat="48.96907" lon="0.07211">
        <ele>190.6</ele>
        <time>2021-08-08T13:21:06Z</time>
      </trkpt>
      <trkpt lat="48.96905" lon="0.07208">
        <ele>190.53</ele>
        <time>2021-08-08T13:21:07Z</time>
      </trkpt>
      <trkpt lat="48.96902" lon="0.07206">
        <ele>190.44</ele>
        <time>2021-08-08T13:21:08Z</time>
      </trkpt>
      <trkpt lat="48.96899" lon="0.07205">
        <ele>190.39</ele>
        <time>2021-08-08T13:21:09Z</time>
      </trkpt>
      <trkpt lat="48.96897" lon="0.07204">
        <ele>190.36</ele>
        <time>2021-08-08T13:21:10Z</time>
      </trkpt>
      <trkpt lat="48.96895" lon="0.07204">
        <ele>190.34</ele>
        <time>2021-08-08T13:21:11Z</time>
      </trkpt>
      <trkpt lat="48.96893" lon="0.07203">
        <ele>190.33</ele>
        <time>2021-08-08T13:21:12Z</time>
      </trkpt>
      <trkpt lat="48.96893" lon="0.07201">
        <ele>190.27</ele>
        <time>2021-08-08T13:21:13Z</time>
      </trkpt>
      <trkpt lat="48.96894" lon="0.07198">
        <ele>190.17</ele>
        <time>2021-08-08T13:21:14Z</time>
      </trkpt>
      <trkpt lat="48.96897" lon="0.07196">
        <ele>190.09</ele>
        <time>2021-08-08T13:21:15Z</time>
      </trkpt>
      <trkpt lat="48.969" lon="0.07194">
        <ele>190.01</ele>
        <time>2021-08-08T13:21:16Z</time>
      </trkpt>
      <trkpt lat="48.96903" lon="0.07193">
        <ele>189.97</ele>
        <time>2021-08-08T13:21:17Z</time>
      </trkpt>
      <trkpt lat="48.96907" lon="0.07193">
        <ele>189.94</ele>
        <time>2021-08-08T13:21:18Z</time>
      </trkpt>
      <trkpt lat="48.9691" lon="0.07192">
        <ele>189.93</ele>
        <time>2021-08-08T13:21:19Z</time>
      </trkpt>
      <trkpt lat="48.96913" lon="0.07193">
        <ele>189.93</ele>
        <time>2021-08-08T13:21:20Z</time>
      </trkpt>
      <trkpt lat="48.96916" lon="0.07193">
        <ele>189.94</ele>
        <time>2021-08-08T13:21:21Z</time>
      </trkpt>
      <trkpt lat="48.96919" lon="0.07194">
        <ele>189.79</ele>
        <time>2021-08-08T13:21:22Z</time>
      </trkpt>
      <trkpt lat="48.96922" lon="0.07194">
        <ele>189.5</ele>
        <time>2021-08-08T13:21:23Z</time>
      </trkpt>
      <trkpt lat="48.96925" lon="0.07193">
        <ele>189.16</ele>
        <time>2021-08-08T13:21:24Z</time>
      </trkpt>
      <trkpt lat="48.96928" lon="0.0719">
        <ele>188.82</ele>
        <time>2021-08-08T13:21:25Z</time>
      </trkpt>
      <trkpt lat="48.9693" lon="0.07186">
        <ele>188.54</ele>
        <time>2021-08-08T13:21:26Z</time>
      </trkpt>
      <trkpt lat="48.9693" lon="0.0718">
        <ele>188.37</ele>
        <time>2021-08-08T13:21:27Z</time>
      </trkpt>
      <trkpt lat="48.9693" lon="0.07174">
        <ele>188.22</ele>
        <time>2021-08-08T13:21:28Z</time>
      </trkpt>
      <trkpt lat="48.9693" lon="0.07167">
        <ele>188.08</ele>
        <time>2021-08-08T13:21:29Z</time>
      </trkpt>
      <trkpt lat="48.96931" lon="0.07161">
        <ele>187.9</ele>
        <time>2021-08-08T13:21:30Z</time>
      </trkpt>
      <trkpt lat="48.96932" lon="0.07154">
        <ele>187.73</ele>
        <time>2021-08-08T13:21:31Z</time>
      </trkpt>
      <trkpt lat="48.96933" lon="0.07148">
        <ele>187.54</ele>
        <time>2021-08-08T13:21:32Z</time>
      </trkpt>
      <trkpt lat="48.96934" lon="0.07142">
        <ele>187.3</ele>
        <time>2021-08-08T13:21:33Z</time>
      </trkpt>
      <trkpt lat="48.96936" lon="0.07135">
        <ele>187.04</ele>
        <time>2021-08-08T13:21:34Z</time>
      </trkpt>
      <trkpt lat="48.96937" lon="0.07129">
        <ele>186.82</ele>
        <time>2021-08-08T13:21:35Z</time>
      </trkpt>
      <trkpt lat="48.96938" lon="0.07122">
        <ele>186.63</ele>
        <time>2021-08-08T13:21:36Z</time>
      </trkpt>
      <trkpt lat="48.9694" lon="0.07116">
        <ele>186.46</ele>
        <time>2021-08-08T13:21:37Z</time>
      </trkpt>
      <trkpt lat="48.96941" lon="0.07109">
        <ele>186.26</ele>
        <time>2021-08-08T13:21:38Z</time>
      </trkpt>
      <trkpt lat="48.96943" lon="0.07104">
        <ele>185.97</ele>
        <time>2021-08-08T13:21:39Z</time>
      </trkpt>
      <trkpt lat="48.96944" lon="0.07097">
        <ele>185.67</ele>
        <time>2021-08-08T13:21:40Z</time>
      </trkpt>
      <trkpt lat="48.96946" lon="0.07091">
        <ele>185.36</ele>
        <time>2021-08-08T13:21:41Z</time>
      </trkpt>
      <trkpt lat="48.96947" lon="0.07085">
        <ele>185.07</ele>
        <time>2021-08-08T13:21:42Z</time>
      </trkpt>
      <trkpt lat="48.96948" lon="0.07078">
        <ele>184.93</ele>
        <time>2021-08-08T13:21:43Z</time>
      </trkpt>
      <trkpt lat="48.9695" lon="0.07071">
        <ele>184.85</ele>
        <time>2021-08-08T13:21:44Z</time>
      </trkpt>
      <trkpt lat="48.96952" lon="0.07064">
        <ele>184.77</ele>
        <time>2021-08-08T13:21:45Z</time>
      </trkpt>
      <trkpt lat="48.96954" lon="0.07057">
        <ele>184.7</ele>
        <time>2021-08-08T13:21:46Z</time>
      </trkpt>
      <trkpt lat="48.96956" lon="0.07049">
        <ele>184.52</ele>
        <time>2021-08-08T13:21:47Z</time>
      </trkpt>
      <trkpt lat="48.96958" lon="0.07042">
        <ele>184.33</ele>
        <time>2021-08-08T13:21:48Z</time>
      </trkpt>
      <trkpt lat="48.96961" lon="0.07035">
        <ele>184.17</ele>
        <time>2021-08-08T13:21:49Z</time>
      </trkpt>
      <trkpt lat="48.96963" lon="0.07027">
        <ele>184.03</ele>
        <time>2021-08-08T13:21:50Z</time>
      </trkpt>
      <trkpt lat="48.96966" lon="0.07019">
        <ele>183.79</ele>
        <time>2021-08-08T13:21:51Z</time>
      </trkpt>
      <trkpt lat="48.96969" lon="0.07012">
        <ele>183.55</ele>
        <time>2021-08-08T13:21:52Z</time>
      </trkpt>
      <trkpt lat="48.96973" lon="0.07005">
        <ele>183.22</ele>
        <time>2021-08-08T13:21:53Z</time>
      </trkpt>
      <trkpt lat="48.96975" lon="0.06996">
        <ele>182.51</ele>
        <time>2021-08-08T13:21:54Z</time>
      </trkpt>
      <trkpt lat="48.96978" lon="0.06989">
        <ele>181.71</ele>
        <time>2021-08-08T13:21:55Z</time>
      </trkpt>
      <trkpt lat="48.96981" lon="0.06981">
        <ele>180.91</ele>
        <time>2021-08-08T13:21:56Z</time>
      </trkpt>
      <trkpt lat="48.96984" lon="0.06972">
        <ele>180.23</ele>
        <time>2021-08-08T13:21:57Z</time>
      </trkpt>
      <trkpt lat="48.96986" lon="0.06963">
        <ele>179.69</ele>
        <time>2021-08-08T13:21:58Z</time>
      </trkpt>
      <trkpt lat="48.96988" lon="0.06955">
        <ele>179.35</ele>
        <time>2021-08-08T13:21:59Z</time>
      </trkpt>
      <trkpt lat="48.96991" lon="0.06946">
        <ele>179.11</ele>
        <time>2021-08-08T13:22:00Z</time>
      </trkpt>
      <trkpt lat="48.96992" lon="0.06936">
        <ele>178.73</ele>
        <time>2021-08-08T13:22:01Z</time>
      </trkpt>
      <trkpt lat="48.96993" lon="0.06927">
        <ele>178.3</ele>
        <time>2021-08-08T13:22:02Z</time>
      </trkpt>
      <trkpt lat="48.96995" lon="0.06919">
        <ele>177.86</ele>
        <time>2021-08-08T13:22:03Z</time>
      </trkpt>
      <trkpt lat="48.96996" lon="0.06911">
        <ele>177.11</ele>
        <time>2021-08-08T13:22:04Z</time>
      </trkpt>
      <trkpt lat="48.96997" lon="0.06902">
        <ele>176.15</ele>
        <time>2021-08-08T13:22:05Z</time>
      </trkpt>
      <trkpt lat="48.96999" lon="0.06893">
        <ele>175.04</ele>
        <time>2021-08-08T13:22:06Z</time>
      </trkpt>
      <trkpt lat="48.97" lon="0.06883">
        <ele>174.01</ele>
        <time>2021-08-08T13:22:07Z</time>
      </trkpt>
      <trkpt lat="48.97001" lon="0.06872">
        <ele>173.07</ele>
        <time>2021-08-08T13:22:08Z</time>
      </trkpt>
      <trkpt lat="48.97003" lon="0.06861">
        <ele>172.08</ele>
        <time>2021-08-08T13:22:09Z</time>
      </trkpt>
      <trkpt lat="48.97004" lon="0.06851">
        <ele>170.95</ele>
        <time>2021-08-08T13:22:10Z</time>
      </trkpt>
      <trkpt lat="48.97005" lon="0.06844">
        <ele>170.04</ele>
        <time>2021-08-08T13:22:11Z</time>
      </trkpt>
      <trkpt lat="48.97005" lon="0.06837">
        <ele>169.24</ele>
        <time>2021-08-08T13:22:12Z</time>
      </trkpt>
      <trkpt lat="48.97004" lon="0.0683">
        <ele>168.5</ele>
        <time>2021-08-08T13:22:13Z</time>
      </trkpt>
      <trkpt lat="48.97002" lon="0.06823">
        <ele>167.88</ele>
        <time>2021-08-08T13:22:14Z</time>
      </trkpt>
      <trkpt lat="48.97" lon="0.06818">
        <ele>167.46</ele>
        <time>2021-08-08T13:22:15Z</time>
      </trkpt>
      <trkpt lat="48.97" lon="0.06815">
        <ele>167.16</ele>
        <time>2021-08-08T13:22:16Z</time>
      </trkpt>
      <trkpt lat="48.97" lon="0.06815">
        <ele>167.05</ele>
        <time>2021-08-08T13:22:17Z</time>
      </trkpt>
      <trkpt lat="48.97" lon="0.06815">
        <ele>167.02</ele>
        <time>2021-08-08T13:22:18Z</time>
      </trkpt>
      <trkpt lat="48.97001" lon="0.06816">
        <ele>167.04</ele>
        <time>2021-08-08T13:22:19Z</time>
      </trkpt>
      <trkpt lat="48.97001" lon="0.06816">
        <ele>167.05</ele>
        <time>2021-08-08T13:22:20Z</time>
      </trkpt>
      <trkpt lat="48.97001" lon="0.06816">
        <ele>167.05</ele>
        <time>2021-08-08T13:22:21Z</time>
      </trkpt>
      <trkpt lat="48.97001" lon="0.06816">
        <ele>167.05</ele>
        <time>2021-08-08T13:22:22Z</time>
      </trkpt>
      <trkpt lat="48.97001" lon="0.06816">
        <ele>167.05</ele>
        <time>2021-08-08T13:22:23Z</time>
      </trkpt>
      <trkpt lat="48.97001" lon="0.06816">
        <ele>167.05</ele>
        <time>2021-08-08T13:22:24Z</time>
      </trkpt>
      <trkpt lat="48.97001" lon="0.06816">
        <ele>167.05</ele>
        <time>2021-08-08T13:22:25Z</time>
      </trkpt>
      <trkpt lat="48.97001" lon="0.06816">
        <ele>167.05</ele>
        <time>2021-08-08T13:22:26Z</time>
      </trkpt>
      <trkpt lat="48.97001" lon="0.06816">
        <ele>167.05</ele>
        <time>2021-08-08T13:22:27Z</time>
      </trkpt>
      <trkpt lat="48.97001" lon="0.06816">
        <ele>167.05</ele>
        <time>2021-08-08T13:22:28Z</time>
      </trkpt>
      <trkpt lat="48.97001" lon="0.06816">
        <ele>167.05</ele>
        <time>2021-08-08T13:22:29Z</time>
      </trkpt>
      <trkpt lat="48.97001" lon="0.06816">
        <ele>167.05</ele>
        <time>2021-08-08T13:22:30Z</time>
      </trkpt>
      <trkpt lat="48.97001" lon="0.06816">
        <ele>167.05</ele>
        <time>2021-08-08T13:22:31Z</time>
      </trkpt>
      <trkpt lat="48.97001" lon="0.06816">
        <ele>167.05</ele>
        <time>2021-08-08T13:22:32Z</time>
      </trkpt>
      <trkpt lat="48.97001" lon="0.06816">
        <ele>167.05</ele>
        <time>2021-08-08T13:22:33Z</time>
      </trkpt>
      <trkpt lat="48.96995" lon="0.06812">
        <ele>167.15</ele>
        <time>2021-08-08T13:22:34Z</time>
      </trkpt>
      <trkpt lat="48.96991" lon="0.0681">
        <ele>167.34</ele>
        <time>2021-08-08T13:22:35Z</time>
      </trkpt>
      <trkpt lat="48.96986" lon="0.06806">
        <ele>167.53</ele>
        <time>2021-08-08T13:22:36Z</time>
      </trkpt>
      <trkpt lat="48.96982" lon="0.06805">
        <ele>167.81</ele>
        <time>2021-08-08T13:22:37Z</time>
      </trkpt>
      <trkpt lat="48.96978" lon="0.06804">
        <ele>168.08</ele>
        <time>2021-08-08T13:22:38Z</time>
      </trkpt>
      <trkpt lat="48.96974" lon="0.06802">
        <ele>168.27</ele>
        <time>2021-08-08T13:22:39Z</time>
      </trkpt>
      <trkpt lat="48.9697" lon="0.06801">
        <ele>168.07</ele>
        <time>2021-08-08T13:22:40Z</time>
      </trkpt>
      <trkpt lat="48.96965" lon="0.06798">
        <ele>167.3</ele>
        <time>2021-08-08T13:22:41Z</time>
      </trkpt>
      <trkpt lat="48.9696" lon="0.06796">
        <ele>166.43</ele>
        <time>2021-08-08T13:22:42Z</time>
      </trkpt>
      <trkpt lat="48.96954" lon="0.06795">
        <ele>165.55</ele>
        <time>2021-08-08T13:22:43Z</time>
      </trkpt>
      <trkpt lat="48.96949" lon="0.06795">
        <ele>164.74</ele>
        <time>2021-08-08T13:22:44Z</time>
      </trkpt>
      <trkpt lat="48.96941" lon="0.06796">
        <ele>163.83</ele>
        <time>2021-08-08T13:22:45Z</time>
      </trkpt>
      <trkpt lat="48.96933" lon="0.06799">
        <ele>163.04</ele>
        <time>2021-08-08T13:22:46Z</time>
      </trkpt>
      <trkpt lat="48.96926" lon="0.06802">
        <ele>162.27</ele>
        <time>2021-08-08T13:22:47Z</time>
      </trkpt>
      <trkpt lat="48.96919" lon="0.06805">
        <ele>161.54</ele>
        <time>2021-08-08T13:22:48Z</time>
      </trkpt>
      <trkpt lat="48.96911" lon="0.06809">
        <ele>160.96</ele>
        <time>2021-08-08T13:22:49Z</time>
      </trkpt>
      <trkpt lat="48.96905" lon="0.06812">
        <ele>160.36</ele>
        <time>2021-08-08T13:22:50Z</time>
      </trkpt>
      <trkpt lat="48.96897" lon="0.06813">
        <ele>159.52</ele>
        <time>2021-08-08T13:22:51Z</time>
      </trkpt>
      <trkpt lat="48.96892" lon="0.06815">
        <ele>158.79</ele>
        <time>2021-08-08T13:22:52Z</time>
      </trkpt>
      <trkpt lat="48.96887" lon="0.06817">
        <ele>158.2</ele>
        <time>2021-08-08T13:22:53Z</time>
      </trkpt>
      <trkpt lat="48.96883" lon="0.06819">
        <ele>157.79</ele>
        <time>2021-08-08T13:22:54Z</time>
      </trkpt>
      <trkpt lat="48.96878" lon="0.06822">
        <ele>157.44</ele>
        <time>2021-08-08T13:22:55Z</time>
      </trkpt>
      <trkpt lat="48.96874" lon="0.06825">
        <ele>157.09</ele>
        <time>2021-08-08T13:22:56Z</time>
      </trkpt>
      <trkpt lat="48.9687" lon="0.06827">
        <ele>156.74</ele>
        <time>2021-08-08T13:22:57Z</time>
      </trkpt>
      <trkpt lat="48.96867" lon="0.0683">
        <ele>156.58</ele>
        <time>2021-08-08T13:22:58Z</time>
      </trkpt>
      <trkpt lat="48.96864" lon="0.06832">
        <ele>156.4</ele>
        <time>2021-08-08T13:22:59Z</time>
      </trkpt>
      <trkpt lat="48.96861" lon="0.06836">
        <ele>156.3</ele>
        <time>2021-08-08T13:23:00Z</time>
      </trkpt>
      <trkpt lat="48.96859" lon="0.06839">
        <ele>156.25</ele>
        <time>2021-08-08T13:23:01Z</time>
      </trkpt>
      <trkpt lat="48.96857" lon="0.06841">
        <ele>156.2</ele>
        <time>2021-08-08T13:23:02Z</time>
      </trkpt>
      <trkpt lat="48.96855" lon="0.06845">
        <ele>156.31</ele>
        <time>2021-08-08T13:23:03Z</time>
      </trkpt>
      <trkpt lat="48.96854" lon="0.06849">
        <ele>156.56</ele>
        <time>2021-08-08T13:23:04Z</time>
      </trkpt>
      <trkpt lat="48.96852" lon="0.06852">
        <ele>156.73</ele>
        <time>2021-08-08T13:23:05Z</time>
      </trkpt>
      <trkpt lat="48.96851" lon="0.06856">
        <ele>156.87</ele>
        <time>2021-08-08T13:23:06Z</time>
      </trkpt>
      <trkpt lat="48.96849" lon="0.06859">
        <ele>157.03</ele>
        <time>2021-08-08T13:23:07Z</time>
      </trkpt>
      <trkpt lat="48.96848" lon="0.06862">
        <ele>157.13</ele>
        <time>2021-08-08T13:23:08Z</time>
      </trkpt>
      <trkpt lat="48.96847" lon="0.06864">
        <ele>157.19</ele>
        <time>2021-08-08T13:23:09Z</time>
      </trkpt>
      <trkpt lat="48.96845" lon="0.06867">
        <ele>157.2</ele>
        <time>2021-08-08T13:23:10Z</time>
      </trkpt>
      <trkpt lat="48.96843" lon="0.0687">
        <ele>157.11</ele>
        <time>2021-08-08T13:23:11Z</time>
      </trkpt>
      <trkpt lat="48.96841" lon="0.06873">
        <ele>157.12</ele>
        <time>2021-08-08T13:23:12Z</time>
      </trkpt>
      <trkpt lat="48.96839" lon="0.06876">
        <ele>157.09</ele>
        <time>2021-08-08T13:23:13Z</time>
      </trkpt>
      <trkpt lat="48.96838" lon="0.06879">
        <ele>157.13</ele>
        <time>2021-08-08T13:23:14Z</time>
      </trkpt>
      <trkpt lat="48.96838" lon="0.06885">
        <ele>157.37</ele>
        <time>2021-08-08T13:23:15Z</time>
      </trkpt>
      <trkpt lat="48.96835" lon="0.06888">
        <ele>157.29</ele>
        <time>2021-08-08T13:23:16Z</time>
      </trkpt>
      <trkpt lat="48.96833" lon="0.06891">
        <ele>157.17</ele>
        <time>2021-08-08T13:23:17Z</time>
      </trkpt>
      <trkpt lat="48.96831" lon="0.06892">
        <ele>157.02</ele>
        <time>2021-08-08T13:23:18Z</time>
      </trkpt>
      <trkpt lat="48.96829" lon="0.06894">
        <ele>156.86</ele>
        <time>2021-08-08T13:23:19Z</time>
      </trkpt>
      <trkpt lat="48.96828" lon="0.06897">
        <ele>156.93</ele>
        <time>2021-08-08T13:23:20Z</time>
      </trkpt>
      <trkpt lat="48.96828" lon="0.069">
        <ele>157.07</ele>
        <time>2021-08-08T13:23:21Z</time>
      </trkpt>
      <trkpt lat="48.96828" lon="0.06901">
        <ele>157.11</ele>
        <time>2021-08-08T13:23:22Z</time>
      </trkpt>
      <trkpt lat="48.96828" lon="0.06902">
        <ele>157.24</ele>
        <time>2021-08-08T13:23:23Z</time>
      </trkpt>
      <trkpt lat="48.96828" lon="0.06903">
        <ele>157.37</ele>
        <time>2021-08-08T13:23:24Z</time>
      </trkpt>
      <trkpt lat="48.96828" lon="0.06903">
        <ele>157.4</ele>
        <time>2021-08-08T13:23:25Z</time>
      </trkpt>
      <trkpt lat="48.96828" lon="0.06903">
        <ele>157.41</ele>
        <time>2021-08-08T13:23:26Z</time>
      </trkpt>
      <trkpt lat="48.96828" lon="0.06903">
        <ele>157.42</ele>
        <time>2021-08-08T13:23:27Z</time>
      </trkpt>
      <trkpt lat="48.96828" lon="0.06903">
        <ele>157.42</ele>
        <time>2021-08-08T13:23:28Z</time>
      </trkpt>
      <trkpt lat="48.96828" lon="0.06903">
        <ele>157.42</ele>
        <time>2021-08-08T13:23:29Z</time>
      </trkpt>
      <trkpt lat="48.96828" lon="0.06903">
        <ele>157.42</ele>
        <time>2021-08-08T13:23:30Z</time>
      </trkpt>
      <trkpt lat="48.96828" lon="0.06903">
        <ele>157.42</ele>
        <time>2021-08-08T13:23:31Z</time>
      </trkpt>
      <trkpt lat="48.96828" lon="0.06903">
        <ele>157.42</ele>
        <time>2021-08-08T13:23:32Z</time>
      </trkpt>
      <trkpt lat="48.96828" lon="0.06903">
        <ele>157.42</ele>
        <time>2021-08-08T13:23:33Z</time>
      </trkpt>
      <trkpt lat="48.96828" lon="0.06903">
        <ele>157.42</ele>
        <time>2021-08-08T13:23:34Z</time>
      </trkpt>
      <trkpt lat="48.96828" lon="0.06903">
        <ele>157.42</ele>
        <time>2021-08-08T13:23:35Z</time>
      </trkpt>
      <trkpt lat="48.96828" lon="0.06903">
        <ele>157.42</ele>
        <time>2021-08-08T13:23:36Z</time>
      </trkpt>
      <trkpt lat="48.96828" lon="0.06903">
        <ele>157.42</ele>
        <time>2021-08-08T13:23:37Z</time>
      </trkpt>
      <trkpt lat="48.96828" lon="0.06903">
        <ele>157.42</ele>
        <time>2021-08-08T13:23:38Z</time>
      </trkpt>
      <trkpt lat="48.96828" lon="0.06903">
        <ele>157.42</ele>
        <time>2021-08-08T13:23:39Z</time>
      </trkpt>
      <trkpt lat="48.96828" lon="0.06903">
        <ele>157.42</ele>
        <time>2021-08-08T13:23:40Z</time>
      </trkpt>
      <trkpt lat="48.96828" lon="0.06903">
        <ele>157.42</ele>
        <time>2021-08-08T13:23:41Z</time>
      </trkpt>
      <trkpt lat="48.96828" lon="0.06903">
        <ele>157.42</ele>
        <time>2021-08-08T13:23:42Z</time>
      </trkpt>
      <trkpt lat="48.96828" lon="0.06903">
        <ele>157.42</ele>
        <time>2021-08-08T13:23:43Z</time>
      </trkpt>
      <trkpt lat="48.96828" lon="0.06903">
        <ele>157.42</ele>
        <time>2021-08-08T13:23:44Z</time>
      </trkpt>
      <trkpt lat="48.96828" lon="0.06903">
        <ele>157.42</ele>
        <time>2021-08-08T13:23:45Z</time>
      </trkpt>
      <trkpt lat="48.96828" lon="0.06903">
        <ele>157.42</ele>
        <time>2021-08-08T13:23:46Z</time>
      </trkpt>
      <trkpt lat="48.96819" lon="0.0691">
        <ele>156.66</ele>
        <time>2021-08-08T13:23:47Z</time>
      </trkpt>
      <trkpt lat="48.96818" lon="0.0691">
        <ele>156.32</ele>
        <time>2021-08-08T13:23:48Z</time>
      </trkpt>
      <trkpt lat="48.96818" lon="0.0691">
        <ele>156.12</ele>
        <time>2021-08-08T13:23:49Z</time>
      </trkpt>
      <trkpt lat="48.96817" lon="0.0691">
        <ele>156.01</ele>
        <time>2021-08-08T13:23:50Z</time>
      </trkpt>
      <trkpt lat="48.96817" lon="0.0691">
        <ele>155.97</ele>
        <time>2021-08-08T13:23:51Z</time>
      </trkpt>
      <trkpt lat="48.96817" lon="0.0691">
        <ele>155.96</ele>
        <time>2021-08-08T13:23:52Z</time>
      </trkpt>
      <trkpt lat="48.96817" lon="0.0691">
        <ele>155.96</ele>
        <time>2021-08-08T13:23:53Z</time>
      </trkpt>
      <trkpt lat="48.96817" lon="0.0691">
        <ele>155.96</ele>
        <time>2021-08-08T13:23:54Z</time>
      </trkpt>
      <trkpt lat="48.96817" lon="0.0691">
        <ele>155.96</ele>
        <time>2021-08-08T13:23:55Z</time>
      </trkpt>
      <trkpt lat="48.96817" lon="0.0691">
        <ele>155.96</ele>
        <time>2021-08-08T13:23:56Z</time>
      </trkpt>
      <trkpt lat="48.96817" lon="0.0691">
        <ele>155.96</ele>
        <time>2021-08-08T13:23:57Z</time>
      </trkpt>
      <trkpt lat="48.96817" lon="0.0691">
        <ele>155.96</ele>
        <time>2021-08-08T13:23:58Z</time>
      </trkpt>
      <trkpt lat="48.96817" lon="0.0691">
        <ele>155.96</ele>
        <time>2021-08-08T13:23:59Z</time>
      </trkpt>
      <trkpt lat="48.96817" lon="0.0691">
        <ele>155.96</ele>
        <time>2021-08-08T13:24:00Z</time>
      </trkpt>
      <trkpt lat="48.96817" lon="0.0691">
        <ele>155.96</ele>
        <time>2021-08-08T13:24:01Z</time>
      </trkpt>
      <trkpt lat="48.96817" lon="0.0691">
        <ele>155.96</ele>
        <time>2021-08-08T13:24:02Z</time>
      </trkpt>
      <trkpt lat="48.96817" lon="0.0691">
        <ele>155.96</ele>
        <time>2021-08-08T13:24:03Z</time>
      </trkpt>
      <trkpt lat="48.96817" lon="0.0691">
        <ele>155.96</ele>
        <time>2021-08-08T13:24:04Z</time>
      </trkpt>
      <trkpt lat="48.96817" lon="0.0691">
        <ele>155.96</ele>
        <time>2021-08-08T13:24:05Z</time>
      </trkpt>
      <trkpt lat="48.96817" lon="0.0691">
        <ele>155.96</ele>
        <time>2021-08-08T13:24:06Z</time>
      </trkpt>
      <trkpt lat="48.96817" lon="0.0691">
        <ele>155.96</ele>
        <time>2021-08-08T13:24:07Z</time>
      </trkpt>
      <trkpt lat="48.96817" lon="0.0691">
        <ele>155.96</ele>
        <time>2021-08-08T13:24:08Z</time>
      </trkpt>
      <trkpt lat="48.96817" lon="0.0691">
        <ele>155.96</ele>
        <time>2021-08-08T13:24:09Z</time>
      </trkpt>
      <trkpt lat="48.96817" lon="0.0691">
        <ele>155.96</ele>
        <time>2021-08-08T13:24:10Z</time>
      </trkpt>
      <trkpt lat="48.96817" lon="0.0691">
        <ele>155.96</ele>
        <time>2021-08-08T13:24:11Z</time>
      </trkpt>
      <trkpt lat="48.96817" lon="0.0691">
        <ele>155.96</ele>
        <time>2021-08-08T13:24:12Z</time>
      </trkpt>
      <trkpt lat="48.96809" lon="0.06918">
        <ele>155.23</ele>
        <time>2021-08-08T13:24:13Z</time>
      </trkpt>
      <trkpt lat="48.96809" lon="0.06918">
        <ele>155.01</ele>
        <time>2021-08-08T13:24:14Z</time>
      </trkpt>
      <trkpt lat="48.9681" lon="0.06918">
        <ele>155.04</ele>
        <time>2021-08-08T13:24:15Z</time>
      </trkpt>
      <trkpt lat="48.9681" lon="0.0692">
        <ele>155.07</ele>
        <time>2021-08-08T13:24:16Z</time>
      </trkpt>
      <trkpt lat="48.9681" lon="0.0692">
        <ele>155.09</ele>
        <time>2021-08-08T13:24:17Z</time>
      </trkpt>
      <trkpt lat="48.9681" lon="0.0692">
        <ele>155.09</ele>
        <time>2021-08-08T13:24:18Z</time>
      </trkpt>
      <trkpt lat="48.9681" lon="0.0692">
        <ele>155.09</ele>
        <time>2021-08-08T13:24:19Z</time>
      </trkpt>
      <trkpt lat="48.9681" lon="0.0692">
        <ele>155.09</ele>
        <time>2021-08-08T13:24:20Z</time>
      </trkpt>
      <trkpt lat="48.9681" lon="0.0692">
        <ele>155.09</ele>
        <time>2021-08-08T13:24:21Z</time>
      </trkpt>
      <trkpt lat="48.9681" lon="0.0692">
        <ele>155.09</ele>
        <time>2021-08-08T13:24:22Z</time>
      </trkpt>
      <trkpt lat="48.9681" lon="0.0692">
        <ele>155.09</ele>
        <time>2021-08-08T13:24:23Z</time>
      </trkpt>
      <trkpt lat="48.9681" lon="0.0692">
        <ele>155.09</ele>
        <time>2021-08-08T13:24:24Z</time>
      </trkpt>
      <trkpt lat="48.9681" lon="0.0692">
        <ele>155.09</ele>
        <time>2021-08-08T13:24:25Z</time>
      </trkpt>
      <trkpt lat="48.9681" lon="0.0692">
        <ele>155.09</ele>
        <time>2021-08-08T13:24:26Z</time>
      </trkpt>
      <trkpt lat="48.9681" lon="0.0692">
        <ele>155.09</ele>
        <time>2021-08-08T13:24:27Z</time>
      </trkpt>
      <trkpt lat="48.9681" lon="0.0692">
        <ele>155.09</ele>
        <time>2021-08-08T13:24:28Z</time>
      </trkpt>
      <trkpt lat="48.9681" lon="0.0692">
        <ele>155.09</ele>
        <time>2021-08-08T13:24:29Z</time>
      </trkpt>
      <trkpt lat="48.9681" lon="0.0692">
        <ele>155.09</ele>
        <time>2021-08-08T13:24:30Z</time>
      </trkpt>
      <trkpt lat="48.9681" lon="0.0692">
        <ele>155.09</ele>
        <time>2021-08-08T13:24:31Z</time>
      </trkpt>
      <trkpt lat="48.9681" lon="0.0692">
        <ele>155.09</ele>
        <time>2021-08-08T13:24:32Z</time>
      </trkpt>
      <trkpt lat="48.9681" lon="0.0692">
        <ele>155.09</ele>
        <time>2021-08-08T13:24:33Z</time>
      </trkpt>
      <trkpt lat="48.9681" lon="0.0692">
        <ele>155.09</ele>
        <time>2021-08-08T13:24:34Z</time>
      </trkpt>
      <trkpt lat="48.9681" lon="0.0692">
        <ele>155.09</ele>
        <time>2021-08-08T13:24:35Z</time>
      </trkpt>
      <trkpt lat="48.9681" lon="0.0692">
        <ele>155.09</ele>
        <time>2021-08-08T13:24:36Z</time>
      </trkpt>
      <trkpt lat="48.9681" lon="0.0692">
        <ele>155.09</ele>
        <time>2021-08-08T13:24:37Z</time>
      </trkpt>
      <trkpt lat="48.9681" lon="0.0692">
        <ele>155.09</ele>
        <time>2021-08-08T13:24:38Z</time>
      </trkpt>
      <trkpt lat="48.9681" lon="0.0692">
        <ele>155.09</ele>
        <time>2021-08-08T13:24:39Z</time>
      </trkpt>
      <trkpt lat="48.9681" lon="0.0692">
        <ele>155.09</ele>
        <time>2021-08-08T13:24:40Z</time>
      </trkpt>
      <trkpt lat="48.9681" lon="0.0692">
        <ele>155.09</ele>
        <time>2021-08-08T13:24:41Z</time>
      </trkpt>
      <trkpt lat="48.9681" lon="0.0692">
        <ele>155.09</ele>
        <time>2021-08-08T13:24:42Z</time>
      </trkpt>
      <trkpt lat="48.9681" lon="0.0692">
        <ele>155.09</ele>
        <time>2021-08-08T13:24:43Z</time>
      </trkpt>
      <trkpt lat="48.9681" lon="0.0692">
        <ele>155.09</ele>
        <time>2021-08-08T13:24:44Z</time>
      </trkpt>
      <trkpt lat="48.9681" lon="0.0692">
        <ele>155.09</ele>
        <time>2021-08-08T13:24:45Z</time>
      </trkpt>
      <trkpt lat="48.9681" lon="0.0692">
        <ele>155.09</ele>
        <time>2021-08-08T13:24:46Z</time>
      </trkpt>
      <trkpt lat="48.9681" lon="0.0692">
        <ele>155.09</ele>
        <time>2021-08-08T13:24:47Z</time>
      </trkpt>
      <trkpt lat="48.9681" lon="0.0692">
        <ele>155.09</ele>
        <time>2021-08-08T13:24:48Z</time>
      </trkpt>
      <trkpt lat="48.9681" lon="0.0692">
        <ele>155.09</ele>
        <time>2021-08-08T13:24:49Z</time>
      </trkpt>
      <trkpt lat="48.9681" lon="0.0692">
        <ele>155.09</ele>
        <time>2021-08-08T13:24:50Z</time>
      </trkpt>
      <trkpt lat="48.9681" lon="0.0692">
        <ele>155.09</ele>
        <time>2021-08-08T13:24:51Z</time>
      </trkpt>
      <trkpt lat="48.9681" lon="0.0692">
        <ele>155.09</ele>
        <time>2021-08-08T13:24:52Z</time>
      </trkpt>
      <trkpt lat="48.9681" lon="0.0692">
        <ele>155.09</ele>
        <time>2021-08-08T13:24:53Z</time>
      </trkpt>
      <trkpt lat="48.9681" lon="0.0692">
        <ele>155.09</ele>
        <time>2021-08-08T13:24:54Z</time>
      </trkpt>
      <trkpt lat="48.9681" lon="0.0692">
        <ele>155.09</ele>
        <time>2021-08-08T13:24:55Z</time>
      </trkpt>
      <trkpt lat="48.9681" lon="0.0692">
        <ele>155.09</ele>
        <time>2021-08-08T13:24:56Z</time>
      </trkpt>
      <trkpt lat="48.9681" lon="0.0692">
        <ele>155.09</ele>
        <time>2021-08-08T13:24:57Z</time>
      </trkpt>
      <trkpt lat="48.9681" lon="0.0692">
        <ele>155.09</ele>
        <time>2021-08-08T13:24:58Z</time>
      </trkpt>
      <trkpt lat="48.9681" lon="0.0692">
        <ele>155.09</ele>
        <time>2021-08-08T13:24:59Z</time>
      </trkpt>
      <trkpt lat="48.9681" lon="0.0692">
        <ele>155.09</ele>
        <time>2021-08-08T13:25:00Z</time>
      </trkpt>
      <trkpt lat="48.9681" lon="0.0692">
        <ele>155.09</ele>
        <time>2021-08-08T13:25:01Z</time>
      </trkpt>
      <trkpt lat="48.9681" lon="0.0692">
        <ele>155.09</ele>
        <time>2021-08-08T13:25:02Z</time>
      </trkpt>
      <trkpt lat="48.96809" lon="0.06915">
        <ele>154.78</ele>
        <time>2021-08-08T13:25:03Z</time>
      </trkpt>
      <trkpt lat="48.96809" lon="0.06912">
        <ele>154.55</ele>
        <time>2021-08-08T13:25:04Z</time>
      </trkpt>
      <trkpt lat="48.96808" lon="0.0691">
        <ele>154.24</ele>
        <time>2021-08-08T13:25:05Z</time>
      </trkpt>
      <trkpt lat="48.9681" lon="0.06906">
        <ele>153.97</ele>
        <time>2021-08-08T13:25:10Z</time>
      </trkpt>
      <trkpt lat="48.9681" lon="0.06906">
        <ele>154.02</ele>
        <time>2021-08-08T13:25:11Z</time>
      </trkpt>
      <trkpt lat="48.9681" lon="0.06906">
        <ele>154.03</ele>
        <time>2021-08-08T13:25:12Z</time>
      </trkpt>
      <trkpt lat="48.9681" lon="0.06906">
        <ele>154.04</ele>
        <time>2021-08-08T13:25:13Z</time>
      </trkpt>
      <trkpt lat="48.9681" lon="0.06906">
        <ele>154.04</ele>
        <time>2021-08-08T13:25:14Z</time>
      </trkpt>
      <trkpt lat="48.9681" lon="0.06906">
        <ele>154.04</ele>
        <time>2021-08-08T13:25:15Z</time>
      </trkpt>
      <trkpt lat="48.9681" lon="0.06906">
        <ele>154.04</ele>
        <time>2021-08-08T13:25:16Z</time>
      </trkpt>
      <trkpt lat="48.9681" lon="0.06906">
        <ele>154.04</ele>
        <time>2021-08-08T13:25:17Z</time>
      </trkpt>
      <trkpt lat="48.9681" lon="0.06906">
        <ele>154.04</ele>
        <time>2021-08-08T13:25:18Z</time>
      </trkpt>
      <trkpt lat="48.9681" lon="0.06906">
        <ele>154.04</ele>
        <time>2021-08-08T13:25:19Z</time>
      </trkpt>
      <trkpt lat="48.96808" lon="0.06891">
        <ele>153.1</ele>
        <time>2021-08-08T13:25:20Z</time>
      </trkpt>
      <trkpt lat="48.96807" lon="0.0689">
        <ele>152.6</ele>
        <time>2021-08-08T13:25:21Z</time>
      </trkpt>
      <trkpt lat="48.96807" lon="0.06887">
        <ele>152.28</ele>
        <time>2021-08-08T13:25:22Z</time>
      </trkpt>
      <trkpt lat="48.96806" lon="0.06883">
        <ele>151.9</ele>
        <time>2021-08-08T13:25:23Z</time>
      </trkpt>
      <trkpt lat="48.96808" lon="0.06881">
        <ele>151.8</ele>
        <time>2021-08-08T13:25:24Z</time>
      </trkpt>
      <trkpt lat="48.96809" lon="0.06879">
        <ele>151.96</ele>
        <time>2021-08-08T13:25:25Z</time>
      </trkpt>
      <trkpt lat="48.96812" lon="0.06878">
        <ele>152.21</ele>
        <time>2021-08-08T13:25:26Z</time>
      </trkpt>
      <trkpt lat="48.96815" lon="0.06876">
        <ele>152.56</ele>
        <time>2021-08-08T13:25:27Z</time>
      </trkpt>
      <trkpt lat="48.96817" lon="0.06875">
        <ele>152.9</ele>
        <time>2021-08-08T13:25:28Z</time>
      </trkpt>
      <trkpt lat="48.96819" lon="0.06873">
        <ele>153.21</ele>
        <time>2021-08-08T13:25:29Z</time>
      </trkpt>
      <trkpt lat="48.96821" lon="0.06871">
        <ele>153.49</ele>
        <time>2021-08-08T13:25:30Z</time>
      </trkpt>
      <trkpt lat="48.96824" lon="0.0687">
        <ele>153.83</ele>
        <time>2021-08-08T13:25:31Z</time>
      </trkpt>
      <trkpt lat="48.96827" lon="0.06869">
        <ele>154.2</ele>
        <time>2021-08-08T13:25:32Z</time>
      </trkpt>
      <trkpt lat="48.96829" lon="0.06867">
        <ele>154.58</ele>
        <time>2021-08-08T13:25:33Z</time>
      </trkpt>
      <trkpt lat="48.96832" lon="0.06865">
        <ele>154.88</ele>
        <time>2021-08-08T13:25:34Z</time>
      </trkpt>
      <trkpt lat="48.96835" lon="0.06863">
        <ele>155.16</ele>
        <time>2021-08-08T13:25:35Z</time>
      </trkpt>
      <trkpt lat="48.96838" lon="0.06861">
        <ele>155.49</ele>
        <time>2021-08-08T13:25:36Z</time>
      </trkpt>
      <trkpt lat="48.9684" lon="0.06859">
        <ele>155.65</ele>
        <time>2021-08-08T13:25:37Z</time>
      </trkpt>
      <trkpt lat="48.96841" lon="0.06857">
        <ele>155.69</ele>
        <time>2021-08-08T13:25:38Z</time>
      </trkpt>
      <trkpt lat="48.96843" lon="0.06853">
        <ele>155.57</ele>
        <time>2021-08-08T13:25:39Z</time>
      </trkpt>
      <trkpt lat="48.96845" lon="0.06849">
        <ele>155.4</ele>
        <time>2021-08-08T13:25:40Z</time>
      </trkpt>
      <trkpt lat="48.96846" lon="0.06845">
        <ele>155.22</ele>
        <time>2021-08-08T13:25:41Z</time>
      </trkpt>
      <trkpt lat="48.96848" lon="0.06842">
        <ele>155.03</ele>
        <time>2021-08-08T13:25:42Z</time>
      </trkpt>
      <trkpt lat="48.96849" lon="0.06838">
        <ele>154.87</ele>
        <time>2021-08-08T13:25:43Z</time>
      </trkpt>
      <trkpt lat="48.9685" lon="0.06836">
        <ele>154.76</ele>
        <time>2021-08-08T13:25:44Z</time>
      </trkpt>
      <trkpt lat="48.96851" lon="0.06833">
        <ele>154.62</ele>
        <time>2021-08-08T13:25:45Z</time>
      </trkpt>
      <trkpt lat="48.96853" lon="0.06831">
        <ele>154.59</ele>
        <time>2021-08-08T13:25:46Z</time>
      </trkpt>
      <trkpt lat="48.96854" lon="0.0683">
        <ele>154.59</ele>
        <time>2021-08-08T13:25:47Z</time>
      </trkpt>
      <trkpt lat="48.96853" lon="0.06829">
        <ele>154.49</ele>
        <time>2021-08-08T13:25:48Z</time>
      </trkpt>
      <trkpt lat="48.96853" lon="0.06829">
        <ele>154.45</ele>
        <time>2021-08-08T13:25:49Z</time>
      </trkpt>
      <trkpt lat="48.96853" lon="0.06829">
        <ele>154.44</ele>
        <time>2021-08-08T13:25:50Z</time>
      </trkpt>
      <trkpt lat="48.96853" lon="0.06829">
        <ele>154.43</ele>
        <time>2021-08-08T13:25:51Z</time>
      </trkpt>
      <trkpt lat="48.96853" lon="0.06829">
        <ele>154.43</ele>
        <time>2021-08-08T13:25:52Z</time>
      </trkpt>
      <trkpt lat="48.96853" lon="0.06829">
        <ele>154.43</ele>
        <time>2021-08-08T13:25:53Z</time>
      </trkpt>
      <trkpt lat="48.96853" lon="0.06829">
        <ele>154.43</ele>
        <time>2021-08-08T13:25:54Z</time>
      </trkpt>
      <trkpt lat="48.96851" lon="0.06832">
        <ele>154.43</ele>
        <time>2021-08-08T13:25:55Z</time>
      </trkpt>
      <trkpt lat="48.9685" lon="0.06833">
        <ele>154.46</ele>
        <time>2021-08-08T13:25:56Z</time>
      </trkpt>
      <trkpt lat="48.96848" lon="0.06835">
        <ele>154.3</ele>
        <time>2021-08-08T13:25:57Z</time>
      </trkpt>
      <trkpt lat="48.96845" lon="0.06837">
        <ele>154.14</ele>
        <time>2021-08-08T13:25:58Z</time>
      </trkpt>
      <trkpt lat="48.96842" lon="0.06838">
        <ele>153.9</ele>
        <time>2021-08-08T13:25:59Z</time>
      </trkpt>
      <trkpt lat="48.9684" lon="0.06839">
        <ele>153.73</ele>
        <time>2021-08-08T13:26:00Z</time>
      </trkpt>
      <trkpt lat="48.96837" lon="0.06841">
        <ele>153.51</ele>
        <time>2021-08-08T13:26:01Z</time>
      </trkpt>
      <trkpt lat="48.96834" lon="0.06843">
        <ele>153.28</ele>
        <time>2021-08-08T13:26:02Z</time>
      </trkpt>
      <trkpt lat="48.96831" lon="0.06846">
        <ele>152.99</ele>
        <time>2021-08-08T13:26:03Z</time>
      </trkpt>
      <trkpt lat="48.96827" lon="0.06848">
        <ele>152.61</ele>
        <time>2021-08-08T13:26:04Z</time>
      </trkpt>
      <trkpt lat="48.96823" lon="0.06849">
        <ele>152.07</ele>
        <time>2021-08-08T13:26:05Z</time>
      </trkpt>
      <trkpt lat="48.96818" lon="0.06852">
        <ele>151.58</ele>
        <time>2021-08-08T13:26:06Z</time>
      </trkpt>
      <trkpt lat="48.96815" lon="0.06855">
        <ele>151.11</ele>
        <time>2021-08-08T13:26:07Z</time>
      </trkpt>
      <trkpt lat="48.96811" lon="0.06856">
        <ele>150.62</ele>
        <time>2021-08-08T13:26:08Z</time>
      </trkpt>
      <trkpt lat="48.96808" lon="0.06857">
        <ele>150.26</ele>
        <time>2021-08-08T13:26:09Z</time>
      </trkpt>
      <trkpt lat="48.96807" lon="0.06858">
        <ele>150.02</ele>
        <time>2021-08-08T13:26:10Z</time>
      </trkpt>
      <trkpt lat="48.96804" lon="0.06859">
        <ele>149.65</ele>
        <time>2021-08-08T13:26:11Z</time>
      </trkpt>
      <trkpt lat="48.96801" lon="0.0686">
        <ele>149.25</ele>
        <time>2021-08-08T13:26:12Z</time>
      </trkpt>
      <trkpt lat="48.96798" lon="0.06861">
        <ele>148.78</ele>
        <time>2021-08-08T13:26:13Z</time>
      </trkpt>
      <trkpt lat="48.96794" lon="0.06864">
        <ele>148.33</ele>
        <time>2021-08-08T13:26:14Z</time>
      </trkpt>
      <trkpt lat="48.96781" lon="0.06768">
        <ele>138.5234375</ele>
      </trkpt>
      <trkpt lat="48.96777" lon="0.0676">
        <ele>137.6875</ele>
      </trkpt>
      <trkpt lat="48.96741" lon="0.06688">
        <ele>130.6796875</ele>
      </trkpt>
      <trkpt lat="48.96739" lon="0.06676">
        <ele>130.26171875</ele>
      </trkpt>
      <trkpt lat="48.96726" lon="0.06599">
        <ele>126.26953125</ele>
      </trkpt>
      <trkpt lat="48.96685" lon="0.06467">
        <ele>116.9375</ele>
      </trkpt>
      <trkpt lat="48.96681" lon="0.06458">
        <ele>116.1171875</ele>
      </trkpt>
      <trkpt lat="48.9665" lon="0.06353">
        <ele>108.3046875</ele>
      </trkpt>
      <trkpt lat="48.96609" lon="0.0623">
        <ele>101.86328125</ele>
      </trkpt>
      <trkpt lat="48.96604" lon="0.06218">
        <ele>101.55078125</ele>
      </trkpt>
      <trkpt lat="48.96601" lon="0.06206">
        <ele>101.171875</ele>
      </trkpt>
      <trkpt lat="48.96577" lon="0.061">
        <ele>97.71875</ele>
      </trkpt>
      <trkpt lat="48.96574" lon="0.06089">
        <ele>97.32421875</ele>
      </trkpt>
      <trkpt lat="48.96573" lon="0.0608">
        <ele>96.99609375</ele>
      </trkpt>
      <trkpt lat="48.96557" lon="0.06019">
        <ele>96</ele>
      </trkpt>
      <trkpt lat="48.96553" lon="0.0601">
        <ele>96</ele>
      </trkpt>
      <trkpt lat="48.9654" lon="0.05969">
        <ele>95.00390625</ele>
      </trkpt>
      <trkpt lat="48.9653" lon="0.0595">
        <ele>94.31640625</ele>
      </trkpt>
      <trkpt lat="48.96525" lon="0.05957">
        <ele>94.578125</ele>
      </trkpt>
      <trkpt lat="48.96516" lon="0.06023">
        <ele>95.9921875</ele>
      </trkpt>
      <trkpt lat="48.96514" lon="0.06033">
        <ele>95.97265625</ele>
      </trkpt>
      <trkpt lat="48.96513" lon="0.06043">
        <ele>95.98046875</ele>
      </trkpt>
      <trkpt lat="48.96497" lon="0.06134">
        <ele>97.3125</ele>
      </trkpt>
      <trkpt lat="48.96465" lon="0.06307">
        <ele>100.6953125</ele>
      </trkpt>
      <trkpt lat="48.96442" lon="0.06436">
        <ele>102.57421875</ele>
      </trkpt>
      <trkpt lat="48.96424" lon="0.06532">
        <ele>105.6875</ele>
      </trkpt>
      <trkpt lat="48.9641" lon="0.06601">
        <ele>108.84375</ele>
      </trkpt>
      <trkpt lat="48.96408" lon="0.06616">
        <ele>109.52734375</ele>
      </trkpt>
      <trkpt lat="48.96403" lon="0.06671">
        <ele>112.31640625</ele>
      </trkpt>
      <trkpt lat="48.96401" lon="0.06686">
        <ele>113.015625</ele>
      </trkpt>
      <trkpt lat="48.964" lon="0.06728">
        <ele>115.19921875</ele>
      </trkpt>
      <trkpt lat="48.96418" lon="0.06771">
        <ele>118.27734375</ele>
      </trkpt>
      <trkpt lat="48.96423" lon="0.06784">
        <ele>119.48046875</ele>
      </trkpt>
      <trkpt lat="48.96438" lon="0.06812">
        <ele>122.80078125</ele>
      </trkpt>
      <trkpt lat="48.96466" lon="0.06833">
        <ele>126.7109375</ele>
      </trkpt>
      <trkpt lat="48.96515" lon="0.06835">
        <ele>129.69921875</ele>
      </trkpt>
      <trkpt lat="48.96524" lon="0.06833">
        <ele>130.23828125</ele>
      </trkpt>
      <trkpt lat="48.96558" lon="0.06822">
        <ele>132.609375</ele>
      </trkpt>
      <trkpt lat="48.96568" lon="0.06818">
        <ele>133.18359375</ele>
      </trkpt>
      <trkpt lat="48.96606" lon="0.06803">
        <ele>136.01953125</ele>
      </trkpt>
      <trkpt lat="48.96653" lon="0.06803">
        <ele>139.14453125</ele>
      </trkpt>
      <trkpt lat="48.9668" lon="0.06819">
        <ele>142.35546875</ele>
      </trkpt>
      <trkpt lat="48.96706" lon="0.06857">
        <ele>145.546875</ele>
      </trkpt>
      <trkpt lat="48.96721" lon="0.06878">
        <ele>146.62890625</ele>
      </trkpt>
      <trkpt lat="48.96764" lon="0.06887">
        <ele>147.046875</ele>
      </trkpt>
      <trkpt lat="48.96773" lon="0.0688">
        <ele>146.8671875</ele>
      </trkpt>
      <trkpt lat="48.96777" lon="0.06889">
        <ele>147.68359375</ele>
      </trkpt>
      <trkpt lat="48.96794" lon="0.06882">
        <ele>148.93</ele>
        <time>2021-08-08T13:26:38Z</time>
      </trkpt>
      <trkpt lat="48.96796" lon="0.06881">
        <ele>149.27</ele>
        <time>2021-08-08T13:26:39Z</time>
      </trkpt>
      <trkpt lat="48.96798" lon="0.06881">
        <ele>149.66</ele>
        <time>2021-08-08T13:26:40Z</time>
      </trkpt>
      <trkpt lat="48.96799" lon="0.06882">
        <ele>149.98</ele>
        <time>2021-08-08T13:26:41Z</time>
      </trkpt>
      <trkpt lat="48.968" lon="0.06883">
        <ele>150.3</ele>
        <time>2021-08-08T13:26:42Z</time>
      </trkpt>
      <trkpt lat="48.96801" lon="0.06883">
        <ele>150.58</ele>
        <time>2021-08-08T13:26:43Z</time>
      </trkpt>
      <trkpt lat="48.96803" lon="0.06885">
        <ele>150.99</ele>
        <time>2021-08-08T13:26:44Z</time>
      </trkpt>
      <trkpt lat="48.96804" lon="0.06888">
        <ele>151.43</ele>
        <time>2021-08-08T13:26:45Z</time>
      </trkpt>
      <trkpt lat="48.96805" lon="0.06889">
        <ele>151.83</ele>
        <time>2021-08-08T13:26:46Z</time>
      </trkpt>
      <trkpt lat="48.96806" lon="0.06892">
        <ele>152.18</ele>
        <time>2021-08-08T13:26:47Z</time>
      </trkpt>
      <trkpt lat="48.96807" lon="0.06895">
        <ele>152.6</ele>
        <time>2021-08-08T13:26:48Z</time>
      </trkpt>
      <trkpt lat="48.96808" lon="0.069">
        <ele>153.1</ele>
        <time>2021-08-08T13:26:49Z</time>
      </trkpt>
      <trkpt lat="48.96809" lon="0.06904">
        <ele>153.63</ele>
        <time>2021-08-08T13:26:50Z</time>
      </trkpt>
      <trkpt lat="48.9681" lon="0.06908">
        <ele>154.03</ele>
        <time>2021-08-08T13:26:51Z</time>
      </trkpt>
      <trkpt lat="48.9681" lon="0.06911">
        <ele>154.43</ele>
        <time>2021-08-08T13:26:52Z</time>
      </trkpt>
      <trkpt lat="48.9681" lon="0.06914">
        <ele>154.67</ele>
        <time>2021-08-08T13:26:53Z</time>
      </trkpt>
      <trkpt lat="48.9681" lon="0.06916">
        <ele>154.86</ele>
        <time>2021-08-08T13:26:54Z</time>
      </trkpt>
      <trkpt lat="48.96811" lon="0.06918">
        <ele>155.05</ele>
        <time>2021-08-08T13:26:55Z</time>
      </trkpt>
      <trkpt lat="48.96811" lon="0.06918">
        <ele>155.22</ele>
        <time>2021-08-08T13:26:56Z</time>
      </trkpt>
      <trkpt lat="48.96811" lon="0.06918">
        <ele>155.3</ele>
        <time>2021-08-08T13:26:57Z</time>
      </trkpt>
      <trkpt lat="48.96811" lon="0.06918">
        <ele>155.32</ele>
        <time>2021-08-08T13:26:58Z</time>
      </trkpt>
      <trkpt lat="48.96811" lon="0.06918">
        <ele>155.33</ele>
        <time>2021-08-08T13:26:59Z</time>
      </trkpt>
      <trkpt lat="48.96811" lon="0.06918">
        <ele>155.33</ele>
        <time>2021-08-08T13:27:00Z</time>
      </trkpt>
      <trkpt lat="48.96811" lon="0.06918">
        <ele>155.33</ele>
        <time>2021-08-08T13:27:01Z</time>
      </trkpt>
      <trkpt lat="48.96811" lon="0.06918">
        <ele>155.33</ele>
        <time>2021-08-08T13:27:02Z</time>
      </trkpt>
      <trkpt lat="48.96811" lon="0.06918">
        <ele>155.33</ele>
        <time>2021-08-08T13:27:03Z</time>
      </trkpt>
      <trkpt lat="48.96811" lon="0.06918">
        <ele>155.33</ele>
        <time>2021-08-08T13:27:04Z</time>
      </trkpt>
      <trkpt lat="48.96811" lon="0.06918">
        <ele>155.33</ele>
        <time>2021-08-08T13:27:05Z</time>
      </trkpt>
      <trkpt lat="48.96811" lon="0.06918">
        <ele>155.33</ele>
        <time>2021-08-08T13:27:06Z</time>
      </trkpt>
      <trkpt lat="48.96811" lon="0.06918">
        <ele>155.33</ele>
        <time>2021-08-08T13:27:07Z</time>
      </trkpt>
      <trkpt lat="48.96811" lon="0.06918">
        <ele>155.33</ele>
        <time>2021-08-08T13:27:08Z</time>
      </trkpt>
      <trkpt lat="48.96811" lon="0.06918">
        <ele>155.33</ele>
        <time>2021-08-08T13:27:09Z</time>
      </trkpt>
      <trkpt lat="48.96811" lon="0.06918">
        <ele>155.33</ele>
        <time>2021-08-08T13:27:10Z</time>
      </trkpt>
      <trkpt lat="48.96811" lon="0.06918">
        <ele>155.33</ele>
        <time>2021-08-08T13:27:11Z</time>
      </trkpt>
      <trkpt lat="48.96811" lon="0.06918">
        <ele>155.33</ele>
        <time>2021-08-08T13:27:12Z</time>
      </trkpt>
      <trkpt lat="48.96811" lon="0.06918">
        <ele>155.33</ele>
        <time>2021-08-08T13:27:13Z</time>
      </trkpt>
      <trkpt lat="48.96811" lon="0.06918">
        <ele>155.33</ele>
        <time>2021-08-08T13:27:14Z</time>
      </trkpt>
      <trkpt lat="48.96811" lon="0.06918">
        <ele>155.33</ele>
        <time>2021-08-08T13:27:15Z</time>
      </trkpt>
      <trkpt lat="48.96811" lon="0.06918">
        <ele>155.33</ele>
        <time>2021-08-08T13:27:16Z</time>
      </trkpt>
      <trkpt lat="48.96811" lon="0.06918">
        <ele>155.33</ele>
        <time>2021-08-08T13:27:17Z</time>
      </trkpt>
      <trkpt lat="48.96811" lon="0.06918">
        <ele>155.33</ele>
        <time>2021-08-08T13:27:18Z</time>
      </trkpt>
      <trkpt lat="48.96811" lon="0.06918">
        <ele>155.33</ele>
        <time>2021-08-08T13:27:19Z</time>
      </trkpt>
      <trkpt lat="48.96811" lon="0.06918">
        <ele>155.33</ele>
        <time>2021-08-08T13:27:20Z</time>
      </trkpt>
      <trkpt lat="48.96811" lon="0.06918">
        <ele>155.33</ele>
        <time>2021-08-08T13:27:21Z</time>
      </trkpt>
      <trkpt lat="48.96811" lon="0.06918">
        <ele>155.33</ele>
        <time>2021-08-08T13:27:22Z</time>
      </trkpt>
      <trkpt lat="48.96811" lon="0.06918">
        <ele>155.33</ele>
        <time>2021-08-08T13:27:23Z</time>
      </trkpt>
      <trkpt lat="48.96811" lon="0.06918">
        <ele>155.33</ele>
        <time>2021-08-08T13:27:24Z</time>
      </trkpt>
      <trkpt lat="48.96811" lon="0.06918">
        <ele>155.33</ele>
        <time>2021-08-08T13:27:25Z</time>
      </trkpt>
      <trkpt lat="48.96811" lon="0.06918">
        <ele>155.33</ele>
        <time>2021-08-08T13:27:26Z</time>
      </trkpt>
      <trkpt lat="48.96806" lon="0.06931">
        <ele>155.26</ele>
        <time>2021-08-08T13:27:27Z</time>
      </trkpt>
      <trkpt lat="48.96807" lon="0.06934">
        <ele>155.45</ele>
        <time>2021-08-08T13:27:28Z</time>
      </trkpt>
      <trkpt lat="48.96806" lon="0.06936">
        <ele>155.53</ele>
        <time>2021-08-08T13:27:29Z</time>
      </trkpt>
      <trkpt lat="48.96807" lon="0.06938">
        <ele>155.71</ele>
        <time>2021-08-08T13:27:30Z</time>
      </trkpt>
      <trkpt lat="48.96807" lon="0.06939">
        <ele>155.83</ele>
        <time>2021-08-08T13:27:31Z</time>
      </trkpt>
      <trkpt lat="48.96807" lon="0.0694">
        <ele>155.94</ele>
        <time>2021-08-08T13:27:32Z</time>
      </trkpt>
      <trkpt lat="48.96806" lon="0.06941">
        <ele>155.86</ele>
        <time>2021-08-08T13:27:33Z</time>
      </trkpt>
      <trkpt lat="48.96806" lon="0.06941">
        <ele>155.83</ele>
        <time>2021-08-08T13:27:34Z</time>
      </trkpt>
      <trkpt lat="48.96806" lon="0.06941">
        <ele>155.83</ele>
        <time>2021-08-08T13:27:35Z</time>
      </trkpt>
      <trkpt lat="48.96806" lon="0.06941">
        <ele>155.82</ele>
        <time>2021-08-08T13:27:36Z</time>
      </trkpt>
      <trkpt lat="48.96806" lon="0.06941">
        <ele>155.82</ele>
        <time>2021-08-08T13:27:37Z</time>
      </trkpt>
      <trkpt lat="48.96806" lon="0.06941">
        <ele>155.82</ele>
        <time>2021-08-08T13:27:38Z</time>
      </trkpt>
      <trkpt lat="48.96807" lon="0.06941">
        <ele>156.05</ele>
        <time>2021-08-08T13:27:39Z</time>
      </trkpt>
      <trkpt lat="48.96804" lon="0.06941">
        <ele>155.62</ele>
        <time>2021-08-08T13:27:40Z</time>
      </trkpt>
      <trkpt lat="48.96803" lon="0.06947">
        <ele>155.62</ele>
        <time>2021-08-08T13:27:41Z</time>
      </trkpt>
      <trkpt lat="48.96801" lon="0.06953">
        <ele>155.52</ele>
        <time>2021-08-08T13:27:42Z</time>
      </trkpt>
      <trkpt lat="48.96799" lon="0.06956">
        <ele>155.43</ele>
        <time>2021-08-08T13:27:43Z</time>
      </trkpt>
      <trkpt lat="48.968" lon="0.06958">
        <ele>155.57</ele>
        <time>2021-08-08T13:27:44Z</time>
      </trkpt>
      <trkpt lat="48.968" lon="0.06959">
        <ele>155.66</ele>
        <time>2021-08-08T13:27:45Z</time>
      </trkpt>
      <trkpt lat="48.968" lon="0.06959">
        <ele>155.77</ele>
        <time>2021-08-08T13:27:46Z</time>
      </trkpt>
      <trkpt lat="48.968" lon="0.06959">
        <ele>155.75</ele>
        <time>2021-08-08T13:27:47Z</time>
      </trkpt>
      <trkpt lat="48.968" lon="0.06959">
        <ele>155.74</ele>
        <time>2021-08-08T13:27:48Z</time>
      </trkpt>
      <trkpt lat="48.968" lon="0.06959">
        <ele>155.74</ele>
        <time>2021-08-08T13:27:49Z</time>
      </trkpt>
      <trkpt lat="48.968" lon="0.06959">
        <ele>155.74</ele>
        <time>2021-08-08T13:27:50Z</time>
      </trkpt>
      <trkpt lat="48.968" lon="0.06959">
        <ele>155.74</ele>
        <time>2021-08-08T13:27:51Z</time>
      </trkpt>
      <trkpt lat="48.968" lon="0.06959">
        <ele>155.74</ele>
        <time>2021-08-08T13:27:52Z</time>
      </trkpt>
      <trkpt lat="48.968" lon="0.06959">
        <ele>155.74</ele>
        <time>2021-08-08T13:27:53Z</time>
      </trkpt>
      <trkpt lat="48.968" lon="0.06959">
        <ele>155.74</ele>
        <time>2021-08-08T13:27:54Z</time>
      </trkpt>
      <trkpt lat="48.968" lon="0.06959">
        <ele>155.74</ele>
        <time>2021-08-08T13:27:55Z</time>
      </trkpt>
      <trkpt lat="48.968" lon="0.06959">
        <ele>155.74</ele>
        <time>2021-08-08T13:27:56Z</time>
      </trkpt>
      <trkpt lat="48.968" lon="0.06959">
        <ele>155.74</ele>
        <time>2021-08-08T13:27:57Z</time>
      </trkpt>
      <trkpt lat="48.968" lon="0.06959">
        <ele>155.74</ele>
        <time>2021-08-08T13:27:58Z</time>
      </trkpt>
      <trkpt lat="48.968" lon="0.06959">
        <ele>155.74</ele>
        <time>2021-08-08T13:27:59Z</time>
      </trkpt>
      <trkpt lat="48.968" lon="0.06959">
        <ele>155.74</ele>
        <time>2021-08-08T13:28:00Z</time>
      </trkpt>
      <trkpt lat="48.968" lon="0.06959">
        <ele>155.74</ele>
        <time>2021-08-08T13:28:01Z</time>
      </trkpt>
      <trkpt lat="48.968" lon="0.06959">
        <ele>155.74</ele>
        <time>2021-08-08T13:28:02Z</time>
      </trkpt>
      <trkpt lat="48.96801" lon="0.06973">
        <ele>156.69</ele>
        <time>2021-08-08T13:28:03Z</time>
      </trkpt>
      <trkpt lat="48.96801" lon="0.06975">
        <ele>157.08</ele>
        <time>2021-08-08T13:28:04Z</time>
      </trkpt>
      <trkpt lat="48.96802" lon="0.06977">
        <ele>157.58</ele>
        <time>2021-08-08T13:28:05Z</time>
      </trkpt>
      <trkpt lat="48.96802" lon="0.06979">
        <ele>157.84</ele>
        <time>2021-08-08T13:28:06Z</time>
      </trkpt>
      <trkpt lat="48.96803" lon="0.06981">
        <ele>158.23</ele>
        <time>2021-08-08T13:28:07Z</time>
      </trkpt>
      <trkpt lat="48.96803" lon="0.06983">
        <ele>158.51</ele>
        <time>2021-08-08T13:28:08Z</time>
      </trkpt>
      <trkpt lat="48.96804" lon="0.06985">
        <ele>158.95</ele>
        <time>2021-08-08T13:28:09Z</time>
      </trkpt>
      <trkpt lat="48.96805" lon="0.06987">
        <ele>159.36</ele>
        <time>2021-08-08T13:28:10Z</time>
      </trkpt>
      <trkpt lat="48.96806" lon="0.06989">
        <ele>159.8</ele>
        <time>2021-08-08T13:28:11Z</time>
      </trkpt>
      <trkpt lat="48.96806" lon="0.06991">
        <ele>160.12</ele>
        <time>2021-08-08T13:28:12Z</time>
      </trkpt>
      <trkpt lat="48.96808" lon="0.06993">
        <ele>160.54</ele>
        <time>2021-08-08T13:28:13Z</time>
      </trkpt>
      <trkpt lat="48.96808" lon="0.06993">
        <ele>160.67</ele>
        <time>2021-08-08T13:28:14Z</time>
      </trkpt>
      <trkpt lat="48.96808" lon="0.06993">
        <ele>160.71</ele>
        <time>2021-08-08T13:28:15Z</time>
      </trkpt>
      <trkpt lat="48.96811" lon="0.06999">
        <ele>161.88</ele>
        <time>2021-08-08T13:28:16Z</time>
      </trkpt>
      <trkpt lat="48.96813" lon="0.07001">
        <ele>162.57</ele>
        <time>2021-08-08T13:28:17Z</time>
      </trkpt>
      <trkpt lat="48.96815" lon="0.07004">
        <ele>163.33</ele>
        <time>2021-08-08T13:28:18Z</time>
      </trkpt>
      <trkpt lat="48.96815" lon="0.07006">
        <ele>163.72</ele>
        <time>2021-08-08T13:28:19Z</time>
      </trkpt>
      <trkpt lat="48.96816" lon="0.07007">
        <ele>164.06</ele>
        <time>2021-08-08T13:28:20Z</time>
      </trkpt>
      <trkpt lat="48.96816" lon="0.07008">
        <ele>164.23</ele>
        <time>2021-08-08T13:28:21Z</time>
      </trkpt>
      <trkpt lat="48.96816" lon="0.0701">
        <ele>164.36</ele>
        <time>2021-08-08T13:28:22Z</time>
      </trkpt>
      <trkpt lat="48.96815" lon="0.0701">
        <ele>164.26</ele>
        <time>2021-08-08T13:28:23Z</time>
      </trkpt>
      <trkpt lat="48.96815" lon="0.0701">
        <ele>164.24</ele>
        <time>2021-08-08T13:28:24Z</time>
      </trkpt>
      <trkpt lat="48.96813" lon="0.07013">
        <ele>164.12</ele>
        <time>2021-08-08T13:28:25Z</time>
      </trkpt>
      <trkpt lat="48.96813" lon="0.07015">
        <ele>164.18</ele>
        <time>2021-08-08T13:28:26Z</time>
      </trkpt>
      <trkpt lat="48.96813" lon="0.07017">
        <ele>164.22</ele>
        <time>2021-08-08T13:28:27Z</time>
      </trkpt>
      <trkpt lat="48.96813" lon="0.07018">
        <ele>164.23</ele>
        <time>2021-08-08T13:28:28Z</time>
      </trkpt>
      <trkpt lat="48.96812" lon="0.07019">
        <ele>164.16</ele>
        <time>2021-08-08T13:28:29Z</time>
      </trkpt>
      <trkpt lat="48.96812" lon="0.07019">
        <ele>164.14</ele>
        <time>2021-08-08T13:28:30Z</time>
      </trkpt>
      <trkpt lat="48.96812" lon="0.07019">
        <ele>164.13</ele>
        <time>2021-08-08T13:28:31Z</time>
      </trkpt>
      <trkpt lat="48.96812" lon="0.07019">
        <ele>164.13</ele>
        <time>2021-08-08T13:28:32Z</time>
      </trkpt>
      <trkpt lat="48.96812" lon="0.07019">
        <ele>164.13</ele>
        <time>2021-08-08T13:28:33Z</time>
      </trkpt>
      <trkpt lat="48.96812" lon="0.07019">
        <ele>164.13</ele>
        <time>2021-08-08T13:28:34Z</time>
      </trkpt>
      <trkpt lat="48.96812" lon="0.07019">
        <ele>164.13</ele>
        <time>2021-08-08T13:28:35Z</time>
      </trkpt>
      <trkpt lat="48.96812" lon="0.07019">
        <ele>164.13</ele>
        <time>2021-08-08T13:28:36Z</time>
      </trkpt>
      <trkpt lat="48.96812" lon="0.07019">
        <ele>164.13</ele>
        <time>2021-08-08T13:28:37Z</time>
      </trkpt>
      <trkpt lat="48.96812" lon="0.07019">
        <ele>164.13</ele>
        <time>2021-08-08T13:28:38Z</time>
      </trkpt>
      <trkpt lat="48.96812" lon="0.07019">
        <ele>164.13</ele>
        <time>2021-08-08T13:28:39Z</time>
      </trkpt>
      <trkpt lat="48.96812" lon="0.07019">
        <ele>164.13</ele>
        <time>2021-08-08T13:28:40Z</time>
      </trkpt>
      <trkpt lat="48.96812" lon="0.07019">
        <ele>164.13</ele>
        <time>2021-08-08T13:28:41Z</time>
      </trkpt>
      <trkpt lat="48.96812" lon="0.07019">
        <ele>164.13</ele>
        <time>2021-08-08T13:28:42Z</time>
      </trkpt>
      <trkpt lat="48.96812" lon="0.07019">
        <ele>164.13</ele>
        <time>2021-08-08T13:28:43Z</time>
      </trkpt>
      <trkpt lat="48.96812" lon="0.07019">
        <ele>164.13</ele>
        <time>2021-08-08T13:28:44Z</time>
      </trkpt>
      <trkpt lat="48.96812" lon="0.07019">
        <ele>164.13</ele>
        <time>2021-08-08T13:28:45Z</time>
      </trkpt>
      <trkpt lat="48.96812" lon="0.07019">
        <ele>164.13</ele>
        <time>2021-08-08T13:28:46Z</time>
      </trkpt>
      <trkpt lat="48.96805" lon="0.07031">
        <ele>163.5</ele>
        <time>2021-08-08T13:28:47Z</time>
      </trkpt>
      <trkpt lat="48.96804" lon="0.07033">
        <ele>163.2</ele>
        <time>2021-08-08T13:28:48Z</time>
      </trkpt>
      <trkpt lat="48.96803" lon="0.07034">
        <ele>163.05</ele>
        <time>2021-08-08T13:28:49Z</time>
      </trkpt>
      <trkpt lat="48.96802" lon="0.07036">
        <ele>162.97</ele>
        <time>2021-08-08T13:28:50Z</time>
      </trkpt>
      <trkpt lat="48.96802" lon="0.07036">
        <ele>162.95</ele>
        <time>2021-08-08T13:28:51Z</time>
      </trkpt>
      <trkpt lat="48.96801" lon="0.07039">
        <ele>162.99</ele>
        <time>2021-08-08T13:28:52Z</time>
      </trkpt>
      <trkpt lat="48.96801" lon="0.0704">
        <ele>163.11</ele>
        <time>2021-08-08T13:28:53Z</time>
      </trkpt>
      <trkpt lat="48.96801" lon="0.07042">
        <ele>163.36</ele>
        <time>2021-08-08T13:28:54Z</time>
      </trkpt>
      <trkpt lat="48.96801" lon="0.07044">
        <ele>163.47</ele>
        <time>2021-08-08T13:28:55Z</time>
      </trkpt>
      <trkpt lat="48.968" lon="0.07046">
        <ele>163.57</ele>
        <time>2021-08-08T13:28:56Z</time>
      </trkpt>
      <trkpt lat="48.968" lon="0.07048">
        <ele>163.74</ele>
        <time>2021-08-08T13:28:57Z</time>
      </trkpt>
      <trkpt lat="48.96801" lon="0.07049">
        <ele>163.97</ele>
        <time>2021-08-08T13:28:58Z</time>
      </trkpt>
      <trkpt lat="48.968" lon="0.07051">
        <ele>164.03</ele>
        <time>2021-08-08T13:28:59Z</time>
      </trkpt>
      <trkpt lat="48.968" lon="0.07053">
        <ele>164.25</ele>
        <time>2021-08-08T13:29:00Z</time>
      </trkpt>
      <trkpt lat="48.968" lon="0.07055">
        <ele>164.47</ele>
        <time>2021-08-08T13:29:01Z</time>
      </trkpt>
      <trkpt lat="48.968" lon="0.07056">
        <ele>164.62</ele>
        <time>2021-08-08T13:29:02Z</time>
      </trkpt>
      <trkpt lat="48.96799" lon="0.07058">
        <ele>164.78</ele>
        <time>2021-08-08T13:29:03Z</time>
      </trkpt>
      <trkpt lat="48.96799" lon="0.07059">
        <ele>164.86</ele>
        <time>2021-08-08T13:29:04Z</time>
      </trkpt>
      <trkpt lat="48.96799" lon="0.0706">
        <ele>164.94</ele>
        <time>2021-08-08T13:29:05Z</time>
      </trkpt>
      <trkpt lat="48.96799" lon="0.07061">
        <ele>165.07</ele>
        <time>2021-08-08T13:29:06Z</time>
      </trkpt>
      <trkpt lat="48.96799" lon="0.07062">
        <ele>165.11</ele>
        <time>2021-08-08T13:29:07Z</time>
      </trkpt>
      <trkpt lat="48.96798" lon="0.07063">
        <ele>165.17</ele>
        <time>2021-08-08T13:29:08Z</time>
      </trkpt>
      <trkpt lat="48.96798" lon="0.07063">
        <ele>165.2</ele>
        <time>2021-08-08T13:29:09Z</time>
      </trkpt>
      <trkpt lat="48.96798" lon="0.07063">
        <ele>165.2</ele>
        <time>2021-08-08T13:29:10Z</time>
      </trkpt>
      <trkpt lat="48.96798" lon="0.07063">
        <ele>165.2</ele>
        <time>2021-08-08T13:29:11Z</time>
      </trkpt>
      <trkpt lat="48.96798" lon="0.07063">
        <ele>165.2</ele>
        <time>2021-08-08T13:29:12Z</time>
      </trkpt>
      <trkpt lat="48.96798" lon="0.07063">
        <ele>165.2</ele>
        <time>2021-08-08T13:29:13Z</time>
      </trkpt>
      <trkpt lat="48.96798" lon="0.07063">
        <ele>165.2</ele>
        <time>2021-08-08T13:29:14Z</time>
      </trkpt>
      <trkpt lat="48.96798" lon="0.07063">
        <ele>165.2</ele>
        <time>2021-08-08T13:29:15Z</time>
      </trkpt>
      <trkpt lat="48.96798" lon="0.07063">
        <ele>165.2</ele>
        <time>2021-08-08T13:29:16Z</time>
      </trkpt>
      <trkpt lat="48.96798" lon="0.07063">
        <ele>165.2</ele>
        <time>2021-08-08T13:29:17Z</time>
      </trkpt>
      <trkpt lat="48.96798" lon="0.07063">
        <ele>165.2</ele>
        <time>2021-08-08T13:29:18Z</time>
      </trkpt>
      <trkpt lat="48.96802" lon="0.07076">
        <ele>167.15</ele>
        <time>2021-08-08T13:29:19Z</time>
      </trkpt>
      <trkpt lat="48.96802" lon="0.07076">
        <ele>167.72</ele>
        <time>2021-08-08T13:29:20Z</time>
      </trkpt>
      <trkpt lat="48.96801" lon="0.07077">
        <ele>167.95</ele>
        <time>2021-08-08T13:29:21Z</time>
      </trkpt>
      <trkpt lat="48.96801" lon="0.07078">
        <ele>168.11</ele>
        <time>2021-08-08T13:29:22Z</time>
      </trkpt>
      <trkpt lat="48.96801" lon="0.07078">
        <ele>168.15</ele>
        <time>2021-08-08T13:29:23Z</time>
      </trkpt>
      <trkpt lat="48.96801" lon="0.07078">
        <ele>168.17</ele>
        <time>2021-08-08T13:29:24Z</time>
      </trkpt>
      <trkpt lat="48.96801" lon="0.07078">
        <ele>168.17</ele>
        <time>2021-08-08T13:29:25Z</time>
      </trkpt>
      <trkpt lat="48.96801" lon="0.07078">
        <ele>168.17</ele>
        <time>2021-08-08T13:29:26Z</time>
      </trkpt>
      <trkpt lat="48.96801" lon="0.07078">
        <ele>168.17</ele>
        <time>2021-08-08T13:29:27Z</time>
      </trkpt>
      <trkpt lat="48.96801" lon="0.07078">
        <ele>168.17</ele>
        <time>2021-08-08T13:29:28Z</time>
      </trkpt>
      <trkpt lat="48.96801" lon="0.07078">
        <ele>168.17</ele>
        <time>2021-08-08T13:29:29Z</time>
      </trkpt>
      <trkpt lat="48.96801" lon="0.07078">
        <ele>168.17</ele>
        <time>2021-08-08T13:29:30Z</time>
      </trkpt>
      <trkpt lat="48.96801" lon="0.07078">
        <ele>168.17</ele>
        <time>2021-08-08T13:29:31Z</time>
      </trkpt>
      <trkpt lat="48.96801" lon="0.07078">
        <ele>168.17</ele>
        <time>2021-08-08T13:29:32Z</time>
      </trkpt>
      <trkpt lat="48.96801" lon="0.07078">
        <ele>168.17</ele>
        <time>2021-08-08T13:29:33Z</time>
      </trkpt>
      <trkpt lat="48.96801" lon="0.07078">
        <ele>168.17</ele>
        <time>2021-08-08T13:29:34Z</time>
      </trkpt>
      <trkpt lat="48.968" lon="0.07091">
        <ele>169.05</ele>
        <time>2021-08-08T13:29:35Z</time>
      </trkpt>
      <trkpt lat="48.968" lon="0.07093">
        <ele>169.46</ele>
        <time>2021-08-08T13:29:36Z</time>
      </trkpt>
      <trkpt lat="48.96799" lon="0.07094">
        <ele>169.48</ele>
        <time>2021-08-08T13:29:37Z</time>
      </trkpt>
      <trkpt lat="48.96798" lon="0.07096">
        <ele>169.51</ele>
        <time>2021-08-08T13:29:38Z</time>
      </trkpt>
      <trkpt lat="48.96797" lon="0.07098">
        <ele>169.55</ele>
        <time>2021-08-08T13:29:39Z</time>
      </trkpt>
      <trkpt lat="48.96796" lon="0.071">
        <ele>169.52</ele>
        <time>2021-08-08T13:29:40Z</time>
      </trkpt>
      <trkpt lat="48.96795" lon="0.07102">
        <ele>169.49</ele>
        <time>2021-08-08T13:29:41Z</time>
      </trkpt>
      <trkpt lat="48.96795" lon="0.07104">
        <ele>169.56</ele>
        <time>2021-08-08T13:29:42Z</time>
      </trkpt>
      <trkpt lat="48.96795" lon="0.07106">
        <ele>169.69</ele>
        <time>2021-08-08T13:29:43Z</time>
      </trkpt>
      <trkpt lat="48.96795" lon="0.07109">
        <ele>169.95</ele>
        <time>2021-08-08T13:29:44Z</time>
      </trkpt>
      <trkpt lat="48.96795" lon="0.07112">
        <ele>170.18</ele>
        <time>2021-08-08T13:29:45Z</time>
      </trkpt>
      <trkpt lat="48.96794" lon="0.07115">
        <ele>170.57</ele>
        <time>2021-08-08T13:29:46Z</time>
      </trkpt>
      <trkpt lat="48.96794" lon="0.07118">
        <ele>171.01</ele>
        <time>2021-08-08T13:29:47Z</time>
      </trkpt>
      <trkpt lat="48.96794" lon="0.07122">
        <ele>171.44</ele>
        <time>2021-08-08T13:29:48Z</time>
      </trkpt>
      <trkpt lat="48.96794" lon="0.07125">
        <ele>171.84</ele>
        <time>2021-08-08T13:29:49Z</time>
      </trkpt>
      <trkpt lat="48.96794" lon="0.07127">
        <ele>172.12</ele>
        <time>2021-08-08T13:29:50Z</time>
      </trkpt>
      <trkpt lat="48.96794" lon="0.07129">
        <ele>172.41</ele>
        <time>2021-08-08T13:29:51Z</time>
      </trkpt>
      <trkpt lat="48.96794" lon="0.0713">
        <ele>172.66</ele>
        <time>2021-08-08T13:29:52Z</time>
      </trkpt>
      <trkpt lat="48.96793" lon="0.07132">
        <ele>172.89</ele>
        <time>2021-08-08T13:29:53Z</time>
      </trkpt>
      <trkpt lat="48.96793" lon="0.07134">
        <ele>173</ele>
        <time>2021-08-08T13:29:54Z</time>
      </trkpt>
      <trkpt lat="48.96793" lon="0.07135">
        <ele>173.19</ele>
        <time>2021-08-08T13:29:55Z</time>
      </trkpt>
      <trkpt lat="48.96793" lon="0.07136">
        <ele>173.39</ele>
        <time>2021-08-08T13:29:56Z</time>
      </trkpt>
      <trkpt lat="48.96793" lon="0.07138">
        <ele>173.55</ele>
        <time>2021-08-08T13:29:57Z</time>
      </trkpt>
      <trkpt lat="48.96792" lon="0.0714">
        <ele>173.73</ele>
        <time>2021-08-08T13:29:58Z</time>
      </trkpt>
      <trkpt lat="48.96792" lon="0.07142">
        <ele>173.96</ele>
        <time>2021-08-08T13:29:59Z</time>
      </trkpt>
      <trkpt lat="48.96792" lon="0.07143">
        <ele>174.21</ele>
        <time>2021-08-08T13:30:00Z</time>
      </trkpt>
      <trkpt lat="48.96792" lon="0.07145">
        <ele>174.43</ele>
        <time>2021-08-08T13:30:01Z</time>
      </trkpt>
      <trkpt lat="48.96791" lon="0.07147">
        <ele>174.58</ele>
        <time>2021-08-08T13:30:02Z</time>
      </trkpt>
      <trkpt lat="48.9679" lon="0.07149">
        <ele>174.6</ele>
        <time>2021-08-08T13:30:03Z</time>
      </trkpt>
      <trkpt lat="48.96789" lon="0.0715">
        <ele>174.61</ele>
        <time>2021-08-08T13:30:04Z</time>
      </trkpt>
      <trkpt lat="48.96789" lon="0.07151">
        <ele>174.58</ele>
        <time>2021-08-08T13:30:05Z</time>
      </trkpt>
      <trkpt lat="48.96788" lon="0.07151">
        <ele>174.4</ele>
        <time>2021-08-08T13:30:06Z</time>
      </trkpt>
      <trkpt lat="48.96783" lon="0.07155">
        <ele>174.23</ele>
        <time>2021-08-08T13:30:08Z</time>
      </trkpt>
      <trkpt lat="48.96783" lon="0.07158">
        <ele>174.37</ele>
        <time>2021-08-08T13:30:09Z</time>
      </trkpt>
      <trkpt lat="48.96782" lon="0.07161">
        <ele>174.72</ele>
        <time>2021-08-08T13:30:10Z</time>
      </trkpt>
      <trkpt lat="48.96782" lon="0.07162">
        <ele>174.94</ele>
        <time>2021-08-08T13:30:11Z</time>
      </trkpt>
      <trkpt lat="48.96782" lon="0.07163">
        <ele>175.12</ele>
        <time>2021-08-08T13:30:12Z</time>
      </trkpt>
      <trkpt lat="48.96782" lon="0.07165">
        <ele>175.31</ele>
        <time>2021-08-08T13:30:13Z</time>
      </trkpt>
      <trkpt lat="48.96782" lon="0.07165">
        <ele>175.37</ele>
        <time>2021-08-08T13:30:14Z</time>
      </trkpt>
      <trkpt lat="48.96782" lon="0.07165">
        <ele>175.38</ele>
        <time>2021-08-08T13:30:15Z</time>
      </trkpt>
      <trkpt lat="48.96781" lon="0.0717">
        <ele>175.86</ele>
        <time>2021-08-08T13:30:16Z</time>
      </trkpt>
      <trkpt lat="48.96781" lon="0.07173">
        <ele>176.19</ele>
        <time>2021-08-08T13:30:17Z</time>
      </trkpt>
      <trkpt lat="48.96781" lon="0.07175">
        <ele>176.56</ele>
        <time>2021-08-08T13:30:18Z</time>
      </trkpt>
      <trkpt lat="48.96782" lon="0.07177">
        <ele>176.99</ele>
        <time>2021-08-08T13:30:19Z</time>
      </trkpt>
      <trkpt lat="48.96782" lon="0.07178">
        <ele>177.25</ele>
        <time>2021-08-08T13:30:20Z</time>
      </trkpt>
      <trkpt lat="48.96782" lon="0.0718">
        <ele>177.51</ele>
        <time>2021-08-08T13:30:21Z</time>
      </trkpt>
      <trkpt lat="48.96782" lon="0.07182">
        <ele>177.83</ele>
        <time>2021-08-08T13:30:22Z</time>
      </trkpt>
      <trkpt lat="48.96783" lon="0.07185">
        <ele>178.25</ele>
        <time>2021-08-08T13:30:23Z</time>
      </trkpt>
      <trkpt lat="48.96782" lon="0.07187">
        <ele>178.5</ele>
        <time>2021-08-08T13:30:24Z</time>
      </trkpt>
      <trkpt lat="48.96782" lon="0.07189">
        <ele>178.73</ele>
        <time>2021-08-08T13:30:25Z</time>
      </trkpt>
      <trkpt lat="48.96781" lon="0.07191">
        <ele>178.87</ele>
        <time>2021-08-08T13:30:26Z</time>
      </trkpt>
      <trkpt lat="48.96781" lon="0.07192">
        <ele>179.06</ele>
        <time>2021-08-08T13:30:27Z</time>
      </trkpt>
      <trkpt lat="48.96781" lon="0.07193">
        <ele>179.22</ele>
        <time>2021-08-08T13:30:28Z</time>
      </trkpt>
      <trkpt lat="48.96781" lon="0.07195">
        <ele>179.43</ele>
        <time>2021-08-08T13:30:29Z</time>
      </trkpt>
      <trkpt lat="48.96781" lon="0.07196">
        <ele>179.59</ele>
        <time>2021-08-08T13:30:30Z</time>
      </trkpt>
      <trkpt lat="48.96781" lon="0.07196">
        <ele>179.64</ele>
        <time>2021-08-08T13:30:31Z</time>
      </trkpt>
      <trkpt lat="48.96781" lon="0.07196">
        <ele>179.65</ele>
        <time>2021-08-08T13:30:32Z</time>
      </trkpt>
      <trkpt lat="48.96781" lon="0.07196">
        <ele>179.65</ele>
        <time>2021-08-08T13:30:33Z</time>
      </trkpt>
      <trkpt lat="48.96781" lon="0.07196">
        <ele>179.65</ele>
        <time>2021-08-08T13:30:34Z</time>
      </trkpt>
      <trkpt lat="48.96781" lon="0.07196">
        <ele>179.65</ele>
        <time>2021-08-08T13:30:35Z</time>
      </trkpt>
      <trkpt lat="48.96781" lon="0.07196">
        <ele>179.66</ele>
        <time>2021-08-08T13:30:36Z</time>
      </trkpt>
      <trkpt lat="48.96781" lon="0.07196">
        <ele>179.66</ele>
        <time>2021-08-08T13:30:37Z</time>
      </trkpt>
      <trkpt lat="48.96781" lon="0.07196">
        <ele>179.66</ele>
        <time>2021-08-08T13:30:38Z</time>
      </trkpt>
      <trkpt lat="48.96779" lon="0.07207">
        <ele>180.89</ele>
        <time>2021-08-08T13:30:39Z</time>
      </trkpt>
      <trkpt lat="48.96779" lon="0.07207">
        <ele>181.37</ele>
        <time>2021-08-08T13:30:40Z</time>
      </trkpt>
      <trkpt lat="48.96779" lon="0.07209">
        <ele>181.63</ele>
        <time>2021-08-08T13:30:41Z</time>
      </trkpt>
      <trkpt lat="48.96779" lon="0.07209">
        <ele>181.78</ele>
        <time>2021-08-08T13:30:42Z</time>
      </trkpt>
      <trkpt lat="48.96779" lon="0.0721">
        <ele>181.99</ele>
        <time>2021-08-08T13:30:43Z</time>
      </trkpt>
      <trkpt lat="48.96779" lon="0.0721">
        <ele>182.05</ele>
        <time>2021-08-08T13:30:44Z</time>
      </trkpt>
      <trkpt lat="48.96779" lon="0.0721">
        <ele>182.07</ele>
        <time>2021-08-08T13:30:45Z</time>
      </trkpt>
      <trkpt lat="48.96779" lon="0.0721">
        <ele>182.08</ele>
        <time>2021-08-08T13:30:46Z</time>
      </trkpt>
      <trkpt lat="48.96779" lon="0.0721">
        <ele>182.08</ele>
        <time>2021-08-08T13:30:47Z</time>
      </trkpt>
      <trkpt lat="48.96779" lon="0.0721">
        <ele>182.08</ele>
        <time>2021-08-08T13:30:48Z</time>
      </trkpt>
      <trkpt lat="48.96779" lon="0.0721">
        <ele>182.08</ele>
        <time>2021-08-08T13:30:49Z</time>
      </trkpt>
      <trkpt lat="48.96779" lon="0.0721">
        <ele>182.08</ele>
        <time>2021-08-08T13:30:50Z</time>
      </trkpt>
      <trkpt lat="48.96777" lon="0.07224">
        <ele>183.68</ele>
        <time>2021-08-08T13:30:51Z</time>
      </trkpt>
      <trkpt lat="48.96777" lon="0.07226">
        <ele>184.27</ele>
        <time>2021-08-08T13:30:52Z</time>
      </trkpt>
      <trkpt lat="48.96776" lon="0.07228">
        <ele>184.66</ele>
        <time>2021-08-08T13:30:53Z</time>
      </trkpt>
      <trkpt lat="48.96776" lon="0.0723">
        <ele>185.04</ele>
        <time>2021-08-08T13:30:54Z</time>
      </trkpt>
      <trkpt lat="48.96776" lon="0.07232">
        <ele>185.35</ele>
        <time>2021-08-08T13:30:55Z</time>
      </trkpt>
      <trkpt lat="48.96777" lon="0.07234">
        <ele>185.63</ele>
        <time>2021-08-08T13:30:56Z</time>
      </trkpt>
      <trkpt lat="48.96778" lon="0.07238">
        <ele>186.08</ele>
        <time>2021-08-08T13:30:57Z</time>
      </trkpt>
      <trkpt lat="48.96777" lon="0.07239">
        <ele>186.29</ele>
        <time>2021-08-08T13:30:58Z</time>
      </trkpt>
      <trkpt lat="48.96777" lon="0.07241">
        <ele>186.56</ele>
        <time>2021-08-08T13:30:59Z</time>
      </trkpt>
      <trkpt lat="48.96776" lon="0.07243">
        <ele>186.91</ele>
        <time>2021-08-08T13:31:00Z</time>
      </trkpt>
      <trkpt lat="48.96776" lon="0.07245">
        <ele>187.16</ele>
        <time>2021-08-08T13:31:01Z</time>
      </trkpt>
      <trkpt lat="48.96775" lon="0.07246">
        <ele>187.39</ele>
        <time>2021-08-08T13:31:02Z</time>
      </trkpt>
      <trkpt lat="48.96775" lon="0.07249">
        <ele>187.73</ele>
        <time>2021-08-08T13:31:03Z</time>
      </trkpt>
      <trkpt lat="48.96775" lon="0.07252">
        <ele>188.03</ele>
        <time>2021-08-08T13:31:04Z</time>
      </trkpt>
      <trkpt lat="48.96774" lon="0.07254">
        <ele>188.21</ele>
        <time>2021-08-08T13:31:05Z</time>
      </trkpt>
      <trkpt lat="48.96773" lon="0.07255">
        <ele>188.35</ele>
        <time>2021-08-08T13:31:06Z</time>
      </trkpt>
      <trkpt lat="48.96772" lon="0.07259">
        <ele>188.58</ele>
        <time>2021-08-08T13:31:07Z</time>
      </trkpt>
      <trkpt lat="48.96772" lon="0.07261">
        <ele>188.79</ele>
        <time>2021-08-08T13:31:08Z</time>
      </trkpt>
      <trkpt lat="48.96771" lon="0.07263">
        <ele>188.99</ele>
        <time>2021-08-08T13:31:09Z</time>
      </trkpt>
      <trkpt lat="48.96771" lon="0.07266">
        <ele>189.18</ele>
        <time>2021-08-08T13:31:10Z</time>
      </trkpt>
      <trkpt lat="48.96771" lon="0.07266">
        <ele>189.28</ele>
        <time>2021-08-08T13:31:11Z</time>
      </trkpt>
      <trkpt lat="48.9677" lon="0.07268">
        <ele>189.39</ele>
        <time>2021-08-08T13:31:12Z</time>
      </trkpt>
      <trkpt lat="48.9677" lon="0.07268">
        <ele>189.42</ele>
        <time>2021-08-08T13:31:13Z</time>
      </trkpt>
      <trkpt lat="48.9677" lon="0.07268">
        <ele>189.43</ele>
        <time>2021-08-08T13:31:14Z</time>
      </trkpt>
      <trkpt lat="48.9677" lon="0.07268">
        <ele>189.44</ele>
        <time>2021-08-08T13:31:15Z</time>
      </trkpt>
      <trkpt lat="48.9677" lon="0.07268">
        <ele>189.44</ele>
        <time>2021-08-08T13:31:16Z</time>
      </trkpt>
      <trkpt lat="48.9677" lon="0.07268">
        <ele>189.44</ele>
        <time>2021-08-08T13:31:17Z</time>
      </trkpt>
      <trkpt lat="48.9677" lon="0.07268">
        <ele>189.44</ele>
        <time>2021-08-08T13:31:18Z</time>
      </trkpt>
      <trkpt lat="48.9677" lon="0.07268">
        <ele>189.44</ele>
        <time>2021-08-08T13:31:19Z</time>
      </trkpt>
      <trkpt lat="48.9677" lon="0.07268">
        <ele>189.44</ele>
        <time>2021-08-08T13:31:20Z</time>
      </trkpt>
      <trkpt lat="48.9677" lon="0.07268">
        <ele>189.44</ele>
        <time>2021-08-08T13:31:21Z</time>
      </trkpt>
      <trkpt lat="48.9677" lon="0.07268">
        <ele>189.44</ele>
        <time>2021-08-08T13:31:22Z</time>
      </trkpt>
      <trkpt lat="48.9677" lon="0.07268">
        <ele>189.44</ele>
        <time>2021-08-08T13:31:23Z</time>
      </trkpt>
      <trkpt lat="48.9677" lon="0.07268">
        <ele>189.44</ele>
        <time>2021-08-08T13:31:24Z</time>
      </trkpt>
      <trkpt lat="48.9677" lon="0.07268">
        <ele>189.44</ele>
        <time>2021-08-08T13:31:25Z</time>
      </trkpt>
      <trkpt lat="48.96774" lon="0.0728">
        <ele>190.05</ele>
        <time>2021-08-08T13:31:26Z</time>
      </trkpt>
      <trkpt lat="48.96774" lon="0.07281">
        <ele>190.27</ele>
        <time>2021-08-08T13:31:27Z</time>
      </trkpt>
      <trkpt lat="48.96774" lon="0.07281">
        <ele>190.33</ele>
        <time>2021-08-08T13:31:28Z</time>
      </trkpt>
      <trkpt lat="48.96774" lon="0.07281">
        <ele>190.33</ele>
        <time>2021-08-08T13:31:29Z</time>
      </trkpt>
      <trkpt lat="48.96774" lon="0.07281">
        <ele>190.33</ele>
        <time>2021-08-08T13:31:30Z</time>
      </trkpt>
      <trkpt lat="48.96774" lon="0.07281">
        <ele>190.33</ele>
        <time>2021-08-08T13:31:31Z</time>
      </trkpt>
      <trkpt lat="48.96774" lon="0.07281">
        <ele>190.33</ele>
        <time>2021-08-08T13:31:32Z</time>
      </trkpt>
      <trkpt lat="48.96774" lon="0.07281">
        <ele>190.33</ele>
        <time>2021-08-08T13:31:33Z</time>
      </trkpt>
      <trkpt lat="48.96774" lon="0.07281">
        <ele>190.33</ele>
        <time>2021-08-08T13:31:34Z</time>
      </trkpt>
      <trkpt lat="48.96774" lon="0.07281">
        <ele>190.33</ele>
        <time>2021-08-08T13:31:35Z</time>
      </trkpt>
      <trkpt lat="48.96774" lon="0.07281">
        <ele>190.33</ele>
        <time>2021-08-08T13:31:36Z</time>
      </trkpt>
      <trkpt lat="48.96774" lon="0.07281">
        <ele>190.33</ele>
        <time>2021-08-08T13:31:37Z</time>
      </trkpt>
      <trkpt lat="48.96774" lon="0.07281">
        <ele>190.33</ele>
        <time>2021-08-08T13:31:38Z</time>
      </trkpt>
      <trkpt lat="48.96774" lon="0.07281">
        <ele>190.33</ele>
        <time>2021-08-08T13:31:39Z</time>
      </trkpt>
      <trkpt lat="48.96774" lon="0.07281">
        <ele>190.33</ele>
        <time>2021-08-08T13:31:40Z</time>
      </trkpt>
      <trkpt lat="48.96774" lon="0.07281">
        <ele>190.33</ele>
        <time>2021-08-08T13:31:41Z</time>
      </trkpt>
      <trkpt lat="48.96778" lon="0.07285">
        <ele>190.45</ele>
        <time>2021-08-08T13:31:42Z</time>
      </trkpt>
      <trkpt lat="48.96778" lon="0.07285">
        <ele>190.49</ele>
        <time>2021-08-08T13:31:43Z</time>
      </trkpt>
      <trkpt lat="48.96779" lon="0.07285">
        <ele>190.53</ele>
        <time>2021-08-08T13:31:44Z</time>
      </trkpt>
      <trkpt lat="48.96778" lon="0.07285">
        <ele>190.56</ele>
        <time>2021-08-08T13:31:45Z</time>
      </trkpt>
      <trkpt lat="48.96778" lon="0.07285">
        <ele>190.57</ele>
        <time>2021-08-08T13:31:46Z</time>
      </trkpt>
      <trkpt lat="48.9678" lon="0.07285">
        <ele>190.61</ele>
        <time>2021-08-08T13:31:47Z</time>
      </trkpt>
      <trkpt lat="48.96782" lon="0.07284">
        <ele>190.61</ele>
        <time>2021-08-08T13:31:48Z</time>
      </trkpt>
      <trkpt lat="48.96782" lon="0.07283">
        <ele>190.58</ele>
        <time>2021-08-08T13:31:49Z</time>
      </trkpt>
      <trkpt lat="48.96783" lon="0.07286">
        <ele>190.73</ele>
        <time>2021-08-08T13:31:50Z</time>
      </trkpt>
      <trkpt lat="48.96786" lon="0.07287">
        <ele>190.89</ele>
        <time>2021-08-08T13:31:51Z</time>
      </trkpt>
      <trkpt lat="48.96788" lon="0.07287">
        <ele>191</ele>
        <time>2021-08-08T13:31:52Z</time>
      </trkpt>
      <trkpt lat="48.96792" lon="0.07289">
        <ele>191.25</ele>
        <time>2021-08-08T13:31:53Z</time>
      </trkpt>
      <trkpt lat="48.96794" lon="0.0729">
        <ele>191.4</ele>
        <time>2021-08-08T13:31:54Z</time>
      </trkpt>
      <trkpt lat="48.96795" lon="0.07293">
        <ele>191.61</ele>
        <time>2021-08-08T13:31:55Z</time>
      </trkpt>
      <trkpt lat="48.96794" lon="0.07296">
        <ele>191.8</ele>
        <time>2021-08-08T13:31:56Z</time>
      </trkpt>
      <trkpt lat="48.96793" lon="0.07298">
        <ele>191.93</ele>
        <time>2021-08-08T13:31:57Z</time>
      </trkpt>
      <trkpt lat="48.9679" lon="0.07299">
        <ele>191.93</ele>
        <time>2021-08-08T13:31:58Z</time>
      </trkpt>
      <trkpt lat="48.96788" lon="0.07302">
        <ele>192.03</ele>
        <time>2021-08-08T13:31:59Z</time>
      </trkpt>
      <trkpt lat="48.96785" lon="0.07305">
        <ele>192.15</ele>
        <time>2021-08-08T13:32:00Z</time>
      </trkpt>
      <trkpt lat="48.96783" lon="0.07308">
        <ele>192.36</ele>
        <time>2021-08-08T13:32:01Z</time>
      </trkpt>
      <trkpt lat="48.96781" lon="0.07312">
        <ele>192.63</ele>
        <time>2021-08-08T13:32:02Z</time>
      </trkpt>
      <trkpt lat="48.96779" lon="0.07316">
        <ele>192.98</ele>
        <time>2021-08-08T13:32:03Z</time>
      </trkpt>
      <trkpt lat="48.96778" lon="0.0732">
        <ele>193.4</ele>
        <time>2021-08-08T13:32:04Z</time>
      </trkpt>
      <trkpt lat="48.96778" lon="0.07323">
        <ele>193.74</ele>
        <time>2021-08-08T13:32:05Z</time>
      </trkpt>
      <trkpt lat="48.96778" lon="0.07327">
        <ele>194.17</ele>
        <time>2021-08-08T13:32:06Z</time>
      </trkpt>
      <trkpt lat="48.96779" lon="0.07332">
        <ele>194.66</ele>
        <time>2021-08-08T13:32:07Z</time>
      </trkpt>
      <trkpt lat="48.96779" lon="0.07337">
        <ele>194.99</ele>
        <time>2021-08-08T13:32:08Z</time>
      </trkpt>
      <trkpt lat="48.96779" lon="0.07341">
        <ele>195.2</ele>
        <time>2021-08-08T13:32:09Z</time>
      </trkpt>
      <trkpt lat="48.9678" lon="0.07346">
        <ele>195.37</ele>
        <time>2021-08-08T13:32:10Z</time>
      </trkpt>
      <trkpt lat="48.96781" lon="0.0735">
        <ele>195.52</ele>
        <time>2021-08-08T13:32:11Z</time>
      </trkpt>
      <trkpt lat="48.96782" lon="0.07354">
        <ele>195.67</ele>
        <time>2021-08-08T13:32:12Z</time>
      </trkpt>
      <trkpt lat="48.96783" lon="0.07359">
        <ele>195.84</ele>
        <time>2021-08-08T13:32:13Z</time>
      </trkpt>
      <trkpt lat="48.96783" lon="0.07364">
        <ele>195.95</ele>
        <time>2021-08-08T13:32:14Z</time>
      </trkpt>
      <trkpt lat="48.96783" lon="0.0737">
        <ele>195.99</ele>
        <time>2021-08-08T13:32:15Z</time>
      </trkpt>
      <trkpt lat="48.96783" lon="0.07375">
        <ele>196</ele>
        <time>2021-08-08T13:32:16Z</time>
      </trkpt>
      <trkpt lat="48.96783" lon="0.0738">
        <ele>196</ele>
        <time>2021-08-08T13:32:17Z</time>
      </trkpt>
      <trkpt lat="48.96782" lon="0.07386">
        <ele>196</ele>
        <time>2021-08-08T13:32:18Z</time>
      </trkpt>
      <trkpt lat="48.96782" lon="0.07392">
        <ele>196.09</ele>
        <time>2021-08-08T13:32:19Z</time>
      </trkpt>
      <trkpt lat="48.96782" lon="0.07398">
        <ele>196.26</ele>
        <time>2021-08-08T13:32:20Z</time>
      </trkpt>
      <trkpt lat="48.96782" lon="0.07404">
        <ele>196.44</ele>
        <time>2021-08-08T13:32:21Z</time>
      </trkpt>
      <trkpt lat="48.96781" lon="0.07409">
        <ele>196.64</ele>
        <time>2021-08-08T13:32:22Z</time>
      </trkpt>
      <trkpt lat="48.9678" lon="0.07414">
        <ele>196.82</ele>
        <time>2021-08-08T13:32:23Z</time>
      </trkpt>
      <trkpt lat="48.96778" lon="0.07419">
        <ele>197.01</ele>
        <time>2021-08-08T13:32:24Z</time>
      </trkpt>
      <trkpt lat="48.96777" lon="0.07425">
        <ele>197.21</ele>
        <time>2021-08-08T13:32:25Z</time>
      </trkpt>
      <trkpt lat="48.96775" lon="0.0743">
        <ele>197.41</ele>
        <time>2021-08-08T13:32:26Z</time>
      </trkpt>
      <trkpt lat="48.96774" lon="0.07436">
        <ele>197.62</ele>
        <time>2021-08-08T13:32:27Z</time>
      </trkpt>
      <trkpt lat="48.96773" lon="0.07442">
        <ele>197.83</ele>
        <time>2021-08-08T13:32:28Z</time>
      </trkpt>
      <trkpt lat="48.96772" lon="0.07449">
        <ele>197.95</ele>
        <time>2021-08-08T13:32:29Z</time>
      </trkpt>
      <trkpt lat="48.9677" lon="0.07454">
        <ele>197.99</ele>
        <time>2021-08-08T13:32:30Z</time>
      </trkpt>
      <trkpt lat="48.96769" lon="0.07459">
        <ele>198</ele>
        <time>2021-08-08T13:32:31Z</time>
      </trkpt>
      <trkpt lat="48.96766" lon="0.07465">
        <ele>198</ele>
        <time>2021-08-08T13:32:32Z</time>
      </trkpt>
      <trkpt lat="48.96765" lon="0.0747">
        <ele>198</ele>
        <time>2021-08-08T13:32:33Z</time>
      </trkpt>
      <trkpt lat="48.96761" lon="0.07475">
        <ele>198</ele>
        <time>2021-08-08T13:32:34Z</time>
      </trkpt>
      <trkpt lat="48.96758" lon="0.07479">
        <ele>198</ele>
        <time>2021-08-08T13:32:35Z</time>
      </trkpt>
      <trkpt lat="48.96756" lon="0.07482">
        <ele>198</ele>
        <time>2021-08-08T13:32:36Z</time>
      </trkpt>
      <trkpt lat="48.96753" lon="0.07485">
        <ele>198</ele>
        <time>2021-08-08T13:32:37Z</time>
      </trkpt>
      <trkpt lat="48.9675" lon="0.07488">
        <ele>198</ele>
        <time>2021-08-08T13:32:38Z</time>
      </trkpt>
      <trkpt lat="48.96747" lon="0.07491">
        <ele>198.06</ele>
        <time>2021-08-08T13:32:39Z</time>
      </trkpt>
      <trkpt lat="48.96742" lon="0.07492">
        <ele>198.16</ele>
        <time>2021-08-08T13:32:40Z</time>
      </trkpt>
      <trkpt lat="48.96737" lon="0.07494">
        <ele>198.3</ele>
        <time>2021-08-08T13:32:41Z</time>
      </trkpt>
      <trkpt lat="48.96733" lon="0.07496">
        <ele>198.47</ele>
        <time>2021-08-08T13:32:42Z</time>
      </trkpt>
      <trkpt lat="48.96729" lon="0.07501">
        <ele>198.68</ele>
        <time>2021-08-08T13:32:43Z</time>
      </trkpt>
      <trkpt lat="48.96725" lon="0.07504">
        <ele>198.85</ele>
        <time>2021-08-08T13:32:44Z</time>
      </trkpt>
      <trkpt lat="48.96721" lon="0.07506">
        <ele>198.95</ele>
        <time>2021-08-08T13:32:45Z</time>
      </trkpt>
      <trkpt lat="48.96717" lon="0.07508">
        <ele>198.99</ele>
        <time>2021-08-08T13:32:46Z</time>
      </trkpt>
      <trkpt lat="48.96713" lon="0.0751">
        <ele>199</ele>
        <time>2021-08-08T13:32:47Z</time>
      </trkpt>
      <trkpt lat="48.96709" lon="0.07513">
        <ele>199</ele>
        <time>2021-08-08T13:32:48Z</time>
      </trkpt>
      <trkpt lat="48.96706" lon="0.07516">
        <ele>199</ele>
        <time>2021-08-08T13:32:49Z</time>
      </trkpt>
      <trkpt lat="48.96702" lon="0.07519">
        <ele>199</ele>
        <time>2021-08-08T13:32:50Z</time>
      </trkpt>
      <trkpt lat="48.96698" lon="0.07523">
        <ele>199</ele>
        <time>2021-08-08T13:32:51Z</time>
      </trkpt>
      <trkpt lat="48.96694" lon="0.07528">
        <ele>199</ele>
        <time>2021-08-08T13:32:52Z</time>
      </trkpt>
      <trkpt lat="48.9669" lon="0.07534">
        <ele>199</ele>
        <time>2021-08-08T13:32:53Z</time>
      </trkpt>
      <trkpt lat="48.96687" lon="0.07539">
        <ele>199</ele>
        <time>2021-08-08T13:32:54Z</time>
      </trkpt>
      <trkpt lat="48.96685" lon="0.07546">
        <ele>199</ele>
        <time>2021-08-08T13:32:55Z</time>
      </trkpt>
      <trkpt lat="48.96684" lon="0.07554">
        <ele>199</ele>
        <time>2021-08-08T13:32:56Z</time>
      </trkpt>
      <trkpt lat="48.96683" lon="0.07561">
        <ele>199</ele>
        <time>2021-08-08T13:32:57Z</time>
      </trkpt>
      <trkpt lat="48.96683" lon="0.07568">
        <ele>199</ele>
        <time>2021-08-08T13:32:58Z</time>
      </trkpt>
      <trkpt lat="48.96683" lon="0.07576">
        <ele>199</ele>
        <time>2021-08-08T13:32:59Z</time>
      </trkpt>
      <trkpt lat="48.96682" lon="0.07582">
        <ele>199</ele>
        <time>2021-08-08T13:33:00Z</time>
      </trkpt>
      <trkpt lat="48.96682" lon="0.07589">
        <ele>199</ele>
        <time>2021-08-08T13:33:01Z</time>
      </trkpt>
      <trkpt lat="48.96682" lon="0.07597">
        <ele>199</ele>
        <time>2021-08-08T13:33:02Z</time>
      </trkpt>
      <trkpt lat="48.96682" lon="0.07604">
        <ele>199</ele>
        <time>2021-08-08T13:33:03Z</time>
      </trkpt>
      <trkpt lat="48.96681" lon="0.07612">
        <ele>199</ele>
        <time>2021-08-08T13:33:04Z</time>
      </trkpt>
      <trkpt lat="48.96681" lon="0.0762">
        <ele>199</ele>
        <time>2021-08-08T13:33:05Z</time>
      </trkpt>
      <trkpt lat="48.9668" lon="0.0763">
        <ele>199</ele>
        <time>2021-08-08T13:33:06Z</time>
      </trkpt>
      <trkpt lat="48.9668" lon="0.07638">
        <ele>199</ele>
        <time>2021-08-08T13:33:07Z</time>
      </trkpt>
      <trkpt lat="48.9668" lon="0.07646">
        <ele>199</ele>
        <time>2021-08-08T13:33:08Z</time>
      </trkpt>
      <trkpt lat="48.96679" lon="0.07653">
        <ele>199</ele>
        <time>2021-08-08T13:33:09Z</time>
      </trkpt>
      <trkpt lat="48.96678" lon="0.07662">
        <ele>199</ele>
        <time>2021-08-08T13:33:10Z</time>
      </trkpt>
      <trkpt lat="48.96678" lon="0.0767">
        <ele>199.09</ele>
        <time>2021-08-08T13:33:11Z</time>
      </trkpt>
      <trkpt lat="48.96677" lon="0.07679">
        <ele>199.35</ele>
        <time>2021-08-08T13:33:12Z</time>
      </trkpt>
      <trkpt lat="48.96677" lon="0.07689">
        <ele>199.66</ele>
        <time>2021-08-08T13:33:13Z</time>
      </trkpt>
      <trkpt lat="48.96677" lon="0.07697">
        <ele>199.9</ele>
        <time>2021-08-08T13:33:14Z</time>
      </trkpt>
      <trkpt lat="48.96676" lon="0.07706">
        <ele>199.97</ele>
        <time>2021-08-08T13:33:15Z</time>
      </trkpt>
      <trkpt lat="48.96676" lon="0.07715">
        <ele>199.99</ele>
        <time>2021-08-08T13:33:16Z</time>
      </trkpt>
      <trkpt lat="48.96675" lon="0.07724">
        <ele>200</ele>
        <time>2021-08-08T13:33:17Z</time>
      </trkpt>
      <trkpt lat="48.96674" lon="0.07732">
        <ele>200</ele>
        <time>2021-08-08T13:33:18Z</time>
      </trkpt>
      <trkpt lat="48.96674" lon="0.07741">
        <ele>200</ele>
        <time>2021-08-08T13:33:19Z</time>
      </trkpt>
      <trkpt lat="48.96674" lon="0.07751">
        <ele>200</ele>
        <time>2021-08-08T13:33:20Z</time>
      </trkpt>
      <trkpt lat="48.96673" lon="0.0776">
        <ele>200</ele>
        <time>2021-08-08T13:33:21Z</time>
      </trkpt>
      <trkpt lat="48.96673" lon="0.07769">
        <ele>200</ele>
        <time>2021-08-08T13:33:22Z</time>
      </trkpt>
      <trkpt lat="48.96673" lon="0.0778">
        <ele>200</ele>
        <time>2021-08-08T13:33:23Z</time>
      </trkpt>
      <trkpt lat="48.96673" lon="0.07789">
        <ele>200</ele>
        <time>2021-08-08T13:33:24Z</time>
      </trkpt>
      <trkpt lat="48.96672" lon="0.07798">
        <ele>200</ele>
        <time>2021-08-08T13:33:25Z</time>
      </trkpt>
      <trkpt lat="48.96672" lon="0.07806">
        <ele>200</ele>
        <time>2021-08-08T13:33:26Z</time>
      </trkpt>
      <trkpt lat="48.96671" lon="0.07815">
        <ele>200</ele>
        <time>2021-08-08T13:33:27Z</time>
      </trkpt>
      <trkpt lat="48.9667" lon="0.07823">
        <ele>200</ele>
        <time>2021-08-08T13:33:28Z</time>
      </trkpt>
      <trkpt lat="48.9667" lon="0.07833">
        <ele>200</ele>
        <time>2021-08-08T13:33:29Z</time>
      </trkpt>
      <trkpt lat="48.9667" lon="0.07841">
        <ele>200</ele>
        <time>2021-08-08T13:33:30Z</time>
      </trkpt>
      <trkpt lat="48.9667" lon="0.07851">
        <ele>200</ele>
        <time>2021-08-08T13:33:31Z</time>
      </trkpt>
      <trkpt lat="48.9667" lon="0.0786">
        <ele>200</ele>
        <time>2021-08-08T13:33:32Z</time>
      </trkpt>
      <trkpt lat="48.96669" lon="0.07867">
        <ele>200</ele>
        <time>2021-08-08T13:33:33Z</time>
      </trkpt>
      <trkpt lat="48.96669" lon="0.07877">
        <ele>200</ele>
        <time>2021-08-08T13:33:34Z</time>
      </trkpt>
      <trkpt lat="48.96668" lon="0.07886">
        <ele>200</ele>
        <time>2021-08-08T13:33:35Z</time>
      </trkpt>
      <trkpt lat="48.96668" lon="0.07896">
        <ele>200</ele>
        <time>2021-08-08T13:33:36Z</time>
      </trkpt>
      <trkpt lat="48.96667" lon="0.07906">
        <ele>200</ele>
        <time>2021-08-08T13:33:37Z</time>
      </trkpt>
      <trkpt lat="48.96667" lon="0.07916">
        <ele>200</ele>
        <time>2021-08-08T13:33:38Z</time>
      </trkpt>
      <trkpt lat="48.96667" lon="0.07927">
        <ele>200</ele>
        <time>2021-08-08T13:33:39Z</time>
      </trkpt>
      <trkpt lat="48.96668" lon="0.07936">
        <ele>200</ele>
        <time>2021-08-08T13:33:40Z</time>
      </trkpt>
      <trkpt lat="48.96668" lon="0.07945">
        <ele>200</ele>
        <time>2021-08-08T13:33:41Z</time>
      </trkpt>
      <trkpt lat="48.96668" lon="0.07956">
        <ele>199.99</ele>
        <time>2021-08-08T13:33:42Z</time>
      </trkpt>
      <trkpt lat="48.96668" lon="0.07966">
        <ele>199.97</ele>
        <time>2021-08-08T13:33:43Z</time>
      </trkpt>
      <trkpt lat="48.96667" lon="0.07977">
        <ele>199.88</ele>
        <time>2021-08-08T13:33:44Z</time>
      </trkpt>
      <trkpt lat="48.96667" lon="0.07987">
        <ele>199.58</ele>
        <time>2021-08-08T13:33:45Z</time>
      </trkpt>
      <trkpt lat="48.96666" lon="0.07998">
        <ele>199.25</ele>
        <time>2021-08-08T13:33:46Z</time>
      </trkpt>
      <trkpt lat="48.96666" lon="0.08008">
        <ele>199.09</ele>
        <time>2021-08-08T13:33:47Z</time>
      </trkpt>
      <trkpt lat="48.96666" lon="0.08019">
        <ele>199.04</ele>
        <time>2021-08-08T13:33:48Z</time>
      </trkpt>
      <trkpt lat="48.96666" lon="0.0803">
        <ele>199.02</ele>
        <time>2021-08-08T13:33:49Z</time>
      </trkpt>
      <trkpt lat="48.96667" lon="0.08038">
        <ele>199.01</ele>
        <time>2021-08-08T13:33:50Z</time>
      </trkpt>
      <trkpt lat="48.96668" lon="0.08047">
        <ele>199</ele>
        <time>2021-08-08T13:33:51Z</time>
      </trkpt>
      <trkpt lat="48.9667" lon="0.08052">
        <ele>199</ele>
        <time>2021-08-08T13:33:52Z</time>
      </trkpt>
      <trkpt lat="48.96673" lon="0.08055">
        <ele>199</ele>
        <time>2021-08-08T13:33:53Z</time>
      </trkpt>
      <trkpt lat="48.96674" lon="0.08057">
        <ele>199</ele>
        <time>2021-08-08T13:33:54Z</time>
      </trkpt>
      <trkpt lat="48.96676" lon="0.08058">
        <ele>199</ele>
        <time>2021-08-08T13:33:55Z</time>
      </trkpt>
      <trkpt lat="48.96676" lon="0.08059">
        <ele>199</ele>
        <time>2021-08-08T13:33:56Z</time>
      </trkpt>
      <trkpt lat="48.96677" lon="0.0806">
        <ele>199</ele>
        <time>2021-08-08T13:33:57Z</time>
      </trkpt>
      <trkpt lat="48.96677" lon="0.0806">
        <ele>199</ele>
        <time>2021-08-08T13:33:58Z</time>
      </trkpt>
      <trkpt lat="48.96677" lon="0.0806">
        <ele>199</ele>
        <time>2021-08-08T13:33:59Z</time>
      </trkpt>
      <trkpt lat="48.96677" lon="0.0806">
        <ele>199</ele>
        <time>2021-08-08T13:34:00Z</time>
      </trkpt>
      <trkpt lat="48.96677" lon="0.0806">
        <ele>199</ele>
        <time>2021-08-08T13:34:01Z</time>
      </trkpt>
      <trkpt lat="48.96679" lon="0.08064">
        <ele>199</ele>
        <time>2021-08-08T13:34:02Z</time>
      </trkpt>
      <trkpt lat="48.9668" lon="0.08067">
        <ele>199</ele>
        <time>2021-08-08T13:34:03Z</time>
      </trkpt>
      <trkpt lat="48.96682" lon="0.08069">
        <ele>199</ele>
        <time>2021-08-08T13:34:04Z</time>
      </trkpt>
      <trkpt lat="48.96684" lon="0.08071">
        <ele>199</ele>
        <time>2021-08-08T13:34:05Z</time>
      </trkpt>
      <trkpt lat="48.96685" lon="0.08074">
        <ele>199</ele>
        <time>2021-08-08T13:34:06Z</time>
      </trkpt>
      <trkpt lat="48.96686" lon="0.08076">
        <ele>199</ele>
        <time>2021-08-08T13:34:07Z</time>
      </trkpt>
      <trkpt lat="48.96688" lon="0.08079">
        <ele>199</ele>
        <time>2021-08-08T13:34:08Z</time>
      </trkpt>
      <trkpt lat="48.9669" lon="0.08082">
        <ele>199</ele>
        <time>2021-08-08T13:34:09Z</time>
      </trkpt>
      <trkpt lat="48.96693" lon="0.08085">
        <ele>199</ele>
        <time>2021-08-08T13:34:10Z</time>
      </trkpt>
      <trkpt lat="48.96697" lon="0.08088">
        <ele>199</ele>
        <time>2021-08-08T13:34:11Z</time>
      </trkpt>
      <trkpt lat="48.96698" lon="0.0809">
        <ele>199</ele>
        <time>2021-08-08T13:34:12Z</time>
      </trkpt>
      <trkpt lat="48.967" lon="0.08092">
        <ele>199</ele>
        <time>2021-08-08T13:34:13Z</time>
      </trkpt>
      <trkpt lat="48.96703" lon="0.08094">
        <ele>199</ele>
        <time>2021-08-08T13:34:14Z</time>
      </trkpt>
      <trkpt lat="48.96705" lon="0.08097">
        <ele>199</ele>
        <time>2021-08-08T13:34:15Z</time>
      </trkpt>
      <trkpt lat="48.96706" lon="0.081">
        <ele>199</ele>
        <time>2021-08-08T13:34:16Z</time>
      </trkpt>
      <trkpt lat="48.96706" lon="0.08102">
        <ele>199</ele>
        <time>2021-08-08T13:34:17Z</time>
      </trkpt>
      <trkpt lat="48.96707" lon="0.08104">
        <ele>199</ele>
        <time>2021-08-08T13:34:18Z</time>
      </trkpt>
      <trkpt lat="48.96709" lon="0.08106">
        <ele>199</ele>
        <time>2021-08-08T13:34:19Z</time>
      </trkpt>
      <trkpt lat="48.96709" lon="0.08107">
        <ele>199</ele>
        <time>2021-08-08T13:34:20Z</time>
      </trkpt>
      <trkpt lat="48.9671" lon="0.08109">
        <ele>199</ele>
        <time>2021-08-08T13:34:21Z</time>
      </trkpt>
      <trkpt lat="48.96711" lon="0.0811">
        <ele>199</ele>
        <time>2021-08-08T13:34:22Z</time>
      </trkpt>
      <trkpt lat="48.96712" lon="0.08112">
        <ele>199</ele>
        <time>2021-08-08T13:34:23Z</time>
      </trkpt>
      <trkpt lat="48.96712" lon="0.08113">
        <ele>199</ele>
        <time>2021-08-08T13:34:24Z</time>
      </trkpt>
      <trkpt lat="48.96713" lon="0.08115">
        <ele>199</ele>
        <time>2021-08-08T13:34:25Z</time>
      </trkpt>
      <trkpt lat="48.96714" lon="0.08117">
        <ele>199</ele>
        <time>2021-08-08T13:34:26Z</time>
      </trkpt>
      <trkpt lat="48.96715" lon="0.0812">
        <ele>199</ele>
        <time>2021-08-08T13:34:27Z</time>
      </trkpt>
      <trkpt lat="48.96716" lon="0.08123">
        <ele>199</ele>
        <time>2021-08-08T13:34:28Z</time>
      </trkpt>
      <trkpt lat="48.96716" lon="0.08125">
        <ele>199</ele>
        <time>2021-08-08T13:34:29Z</time>
      </trkpt>
      <trkpt lat="48.96718" lon="0.08127">
        <ele>199</ele>
        <time>2021-08-08T13:34:30Z</time>
      </trkpt>
      <trkpt lat="48.9672" lon="0.08131">
        <ele>199</ele>
        <time>2021-08-08T13:34:31Z</time>
      </trkpt>
      <trkpt lat="48.96722" lon="0.08134">
        <ele>199</ele>
        <time>2021-08-08T13:34:32Z</time>
      </trkpt>
      <trkpt lat="48.96723" lon="0.08137">
        <ele>199</ele>
        <time>2021-08-08T13:34:33Z</time>
      </trkpt>
      <trkpt lat="48.96725" lon="0.0814">
        <ele>198.98</ele>
        <time>2021-08-08T13:34:34Z</time>
      </trkpt>
      <trkpt lat="48.96727" lon="0.08142">
        <ele>198.92</ele>
        <time>2021-08-08T13:34:35Z</time>
      </trkpt>
      <trkpt lat="48.96729" lon="0.08145">
        <ele>198.87</ele>
        <time>2021-08-08T13:34:36Z</time>
      </trkpt>
      <trkpt lat="48.96731" lon="0.08146">
        <ele>198.83</ele>
        <time>2021-08-08T13:34:37Z</time>
      </trkpt>
      <trkpt lat="48.96733" lon="0.08148">
        <ele>198.8</ele>
        <time>2021-08-08T13:34:38Z</time>
      </trkpt>
      <trkpt lat="48.96734" lon="0.0815">
        <ele>198.79</ele>
        <time>2021-08-08T13:34:39Z</time>
      </trkpt>
      <trkpt lat="48.96736" lon="0.08151">
        <ele>198.78</ele>
        <time>2021-08-08T13:34:40Z</time>
      </trkpt>
      <trkpt lat="48.96738" lon="0.08152">
        <ele>198.79</ele>
        <time>2021-08-08T13:34:41Z</time>
      </trkpt>
      <trkpt lat="48.96739" lon="0.08154">
        <ele>198.79</ele>
        <time>2021-08-08T13:34:42Z</time>
      </trkpt>
      <trkpt lat="48.96742" lon="0.08155">
        <ele>198.82</ele>
        <time>2021-08-08T13:34:43Z</time>
      </trkpt>
      <trkpt lat="48.96744" lon="0.08158">
        <ele>198.84</ele>
        <time>2021-08-08T13:34:44Z</time>
      </trkpt>
      <trkpt lat="48.96745" lon="0.08159">
        <ele>198.87</ele>
        <time>2021-08-08T13:34:45Z</time>
      </trkpt>
      <trkpt lat="48.96746" lon="0.08159">
        <ele>198.89</ele>
        <time>2021-08-08T13:34:46Z</time>
      </trkpt>
      <trkpt lat="48.96746" lon="0.08159">
        <ele>198.9</ele>
        <time>2021-08-08T13:34:47Z</time>
      </trkpt>
      <trkpt lat="48.96747" lon="0.08159">
        <ele>198.91</ele>
        <time>2021-08-08T13:34:48Z</time>
      </trkpt>
      <trkpt lat="48.96747" lon="0.08159">
        <ele>198.92</ele>
        <time>2021-08-08T13:34:49Z</time>
      </trkpt>
      <trkpt lat="48.96747" lon="0.08159">
        <ele>198.92</ele>
        <time>2021-08-08T13:34:50Z</time>
      </trkpt>
      <trkpt lat="48.96747" lon="0.08159">
        <ele>198.92</ele>
        <time>2021-08-08T13:34:51Z</time>
      </trkpt>
      <trkpt lat="48.9675" lon="0.08162">
        <ele>198.98</ele>
        <time>2021-08-08T13:34:52Z</time>
      </trkpt>
      <trkpt lat="48.96751" lon="0.08161">
        <ele>198.99</ele>
        <time>2021-08-08T13:34:53Z</time>
      </trkpt>
      <trkpt lat="48.96752" lon="0.08161">
        <ele>199</ele>
        <time>2021-08-08T13:34:54Z</time>
      </trkpt>
      <trkpt lat="48.96752" lon="0.08162">
        <ele>199</ele>
        <time>2021-08-08T13:34:55Z</time>
      </trkpt>
      <trkpt lat="48.96753" lon="0.08164">
        <ele>199</ele>
        <time>2021-08-08T13:34:56Z</time>
      </trkpt>
      <trkpt lat="48.96754" lon="0.08165">
        <ele>199</ele>
        <time>2021-08-08T13:34:57Z</time>
      </trkpt>
      <trkpt lat="48.96756" lon="0.08166">
        <ele>199</ele>
        <time>2021-08-08T13:34:58Z</time>
      </trkpt>
      <trkpt lat="48.96757" lon="0.08168">
        <ele>198.97</ele>
        <time>2021-08-08T13:34:59Z</time>
      </trkpt>
      <trkpt lat="48.96758" lon="0.08169">
        <ele>198.93</ele>
        <time>2021-08-08T13:35:00Z</time>
      </trkpt>
      <trkpt lat="48.96759" lon="0.08172">
        <ele>198.85</ele>
        <time>2021-08-08T13:35:01Z</time>
      </trkpt>
      <trkpt lat="48.9676" lon="0.08175">
        <ele>198.76</ele>
        <time>2021-08-08T13:35:02Z</time>
      </trkpt>
      <trkpt lat="48.96761" lon="0.08176">
        <ele>198.68</ele>
        <time>2021-08-08T13:35:03Z</time>
      </trkpt>
      <trkpt lat="48.96762" lon="0.08178">
        <ele>198.63</ele>
        <time>2021-08-08T13:35:04Z</time>
      </trkpt>
      <trkpt lat="48.96762" lon="0.08179">
        <ele>198.57</ele>
        <time>2021-08-08T13:35:05Z</time>
      </trkpt>
      <trkpt lat="48.96763" lon="0.08181">
        <ele>198.51</ele>
        <time>2021-08-08T13:35:06Z</time>
      </trkpt>
      <trkpt lat="48.96764" lon="0.08184">
        <ele>198.42</ele>
        <time>2021-08-08T13:35:07Z</time>
      </trkpt>
      <trkpt lat="48.96766" lon="0.08187">
        <ele>198.31</ele>
        <time>2021-08-08T13:35:08Z</time>
      </trkpt>
      <trkpt lat="48.96768" lon="0.08191">
        <ele>198.18</ele>
        <time>2021-08-08T13:35:09Z</time>
      </trkpt>
      <trkpt lat="48.96769" lon="0.08191">
        <ele>198.14</ele>
        <time>2021-08-08T13:35:10Z</time>
      </trkpt>
      <trkpt lat="48.9677" lon="0.08193">
        <ele>198.08</ele>
        <time>2021-08-08T13:35:11Z</time>
      </trkpt>
      <trkpt lat="48.96771" lon="0.08196">
        <ele>198.02</ele>
        <time>2021-08-08T13:35:12Z</time>
      </trkpt>
      <trkpt lat="48.96772" lon="0.08199">
        <ele>198.01</ele>
        <time>2021-08-08T13:35:13Z</time>
      </trkpt>
      <trkpt lat="48.96774" lon="0.08202">
        <ele>198</ele>
        <time>2021-08-08T13:35:14Z</time>
      </trkpt>
      <trkpt lat="48.96775" lon="0.08205">
        <ele>198</ele>
        <time>2021-08-08T13:35:15Z</time>
      </trkpt>
      <trkpt lat="48.96776" lon="0.08208">
        <ele>198</ele>
        <time>2021-08-08T13:35:16Z</time>
      </trkpt>
      <trkpt lat="48.96777" lon="0.0821">
        <ele>198</ele>
        <time>2021-08-08T13:35:17Z</time>
      </trkpt>
      <trkpt lat="48.96777" lon="0.08211">
        <ele>198</ele>
        <time>2021-08-08T13:35:18Z</time>
      </trkpt>
      <trkpt lat="48.96778" lon="0.08214">
        <ele>198</ele>
        <time>2021-08-08T13:35:19Z</time>
      </trkpt>
      <trkpt lat="48.96779" lon="0.08215">
        <ele>198</ele>
        <time>2021-08-08T13:35:20Z</time>
      </trkpt>
      <trkpt lat="48.9678" lon="0.08218">
        <ele>198</ele>
        <time>2021-08-08T13:35:21Z</time>
      </trkpt>
      <trkpt lat="48.96783" lon="0.08221">
        <ele>198</ele>
        <time>2021-08-08T13:35:22Z</time>
      </trkpt>
      <trkpt lat="48.96785" lon="0.08225">
        <ele>198</ele>
        <time>2021-08-08T13:35:23Z</time>
      </trkpt>
      <trkpt lat="48.96789" lon="0.0823">
        <ele>198</ele>
        <time>2021-08-08T13:35:24Z</time>
      </trkpt>
      <trkpt lat="48.9679" lon="0.08234">
        <ele>198</ele>
        <time>2021-08-08T13:35:25Z</time>
      </trkpt>
      <trkpt lat="48.96791" lon="0.08239">
        <ele>198</ele>
        <time>2021-08-08T13:35:26Z</time>
      </trkpt>
      <trkpt lat="48.96794" lon="0.08243">
        <ele>198</ele>
        <time>2021-08-08T13:35:27Z</time>
      </trkpt>
      <trkpt lat="48.96798" lon="0.08248">
        <ele>198</ele>
        <time>2021-08-08T13:35:28Z</time>
      </trkpt>
      <trkpt lat="48.96801" lon="0.08251">
        <ele>197.96</ele>
        <time>2021-08-08T13:35:29Z</time>
      </trkpt>
      <trkpt lat="48.96803" lon="0.08255">
        <ele>197.85</ele>
        <time>2021-08-08T13:35:30Z</time>
      </trkpt>
      <trkpt lat="48.96807" lon="0.08261">
        <ele>197.67</ele>
        <time>2021-08-08T13:35:31Z</time>
      </trkpt>
      <trkpt lat="48.96809" lon="0.08266">
        <ele>197.49</ele>
        <time>2021-08-08T13:35:32Z</time>
      </trkpt>
      <trkpt lat="48.96812" lon="0.08273">
        <ele>197.27</ele>
        <time>2021-08-08T13:35:33Z</time>
      </trkpt>
      <trkpt lat="48.96814" lon="0.08279">
        <ele>197.05</ele>
        <time>2021-08-08T13:35:34Z</time>
      </trkpt>
      <trkpt lat="48.96817" lon="0.08285">
        <ele>196.82</ele>
        <time>2021-08-08T13:35:35Z</time>
      </trkpt>
      <trkpt lat="48.96819" lon="0.08291">
        <ele>196.61</ele>
        <time>2021-08-08T13:35:36Z</time>
      </trkpt>
      <trkpt lat="48.96823" lon="0.08296">
        <ele>196.42</ele>
        <time>2021-08-08T13:35:37Z</time>
      </trkpt>
      <trkpt lat="48.96825" lon="0.08302">
        <ele>196.21</ele>
        <time>2021-08-08T13:35:38Z</time>
      </trkpt>
      <trkpt lat="48.96826" lon="0.08306">
        <ele>196.06</ele>
        <time>2021-08-08T13:35:39Z</time>
      </trkpt>
      <trkpt lat="48.96828" lon="0.08312">
        <ele>196.02</ele>
        <time>2021-08-08T13:35:40Z</time>
      </trkpt>
      <trkpt lat="48.9683" lon="0.08318">
        <ele>196.01</ele>
        <time>2021-08-08T13:35:41Z</time>
      </trkpt>
      <trkpt lat="48.96832" lon="0.08324">
        <ele>196</ele>
        <time>2021-08-08T13:35:42Z</time>
      </trkpt>
      <trkpt lat="48.96835" lon="0.08328">
        <ele>196.01</ele>
        <time>2021-08-08T13:35:43Z</time>
      </trkpt>
      <trkpt lat="48.96838" lon="0.08334">
        <ele>195.99</ele>
        <time>2021-08-08T13:35:44Z</time>
      </trkpt>
      <trkpt lat="48.9684" lon="0.08339">
        <ele>195.85</ele>
        <time>2021-08-08T13:35:45Z</time>
      </trkpt>
      <trkpt lat="48.96843" lon="0.08346">
        <ele>195.63</ele>
        <time>2021-08-08T13:35:46Z</time>
      </trkpt>
      <trkpt lat="48.96845" lon="0.08354">
        <ele>195.38</ele>
        <time>2021-08-08T13:35:47Z</time>
      </trkpt>
      <trkpt lat="48.96847" lon="0.08358">
        <ele>195.19</ele>
        <time>2021-08-08T13:35:48Z</time>
      </trkpt>
      <trkpt lat="48.96848" lon="0.08363">
        <ele>195.03</ele>
        <time>2021-08-08T13:35:49Z</time>
      </trkpt>
      <trkpt lat="48.9685" lon="0.08368">
        <ele>194.94</ele>
        <time>2021-08-08T13:35:50Z</time>
      </trkpt>
      <trkpt lat="48.96852" lon="0.08373">
        <ele>194.88</ele>
        <time>2021-08-08T13:35:51Z</time>
      </trkpt>
      <trkpt lat="48.96853" lon="0.08378">
        <ele>194.84</ele>
        <time>2021-08-08T13:35:52Z</time>
      </trkpt>
      <trkpt lat="48.96854" lon="0.08382">
        <ele>194.81</ele>
        <time>2021-08-08T13:35:53Z</time>
      </trkpt>
      <trkpt lat="48.96854" lon="0.08385">
        <ele>194.78</ele>
        <time>2021-08-08T13:35:54Z</time>
      </trkpt>
      <trkpt lat="48.96854" lon="0.08388">
        <ele>194.76</ele>
        <time>2021-08-08T13:35:55Z</time>
      </trkpt>
      <trkpt lat="48.96855" lon="0.08389">
        <ele>194.78</ele>
        <time>2021-08-08T13:35:56Z</time>
      </trkpt>
      <trkpt lat="48.96855" lon="0.0839">
        <ele>194.75</ele>
        <time>2021-08-08T13:35:57Z</time>
      </trkpt>
      <trkpt lat="48.96855" lon="0.08392">
        <ele>194.71</ele>
        <time>2021-08-08T13:35:58Z</time>
      </trkpt>
      <trkpt lat="48.96856" lon="0.08394">
        <ele>194.66</ele>
        <time>2021-08-08T13:35:59Z</time>
      </trkpt>
      <trkpt lat="48.96857" lon="0.08398">
        <ele>194.57</ele>
        <time>2021-08-08T13:36:00Z</time>
      </trkpt>
      <trkpt lat="48.96859" lon="0.08402">
        <ele>194.5</ele>
        <time>2021-08-08T13:36:01Z</time>
      </trkpt>
      <trkpt lat="48.96861" lon="0.08405">
        <ele>194.43</ele>
        <time>2021-08-08T13:36:02Z</time>
      </trkpt>
      <trkpt lat="48.96862" lon="0.08408">
        <ele>194.36</ele>
        <time>2021-08-08T13:36:03Z</time>
      </trkpt>
      <trkpt lat="48.96864" lon="0.0841">
        <ele>194.27</ele>
        <time>2021-08-08T13:36:04Z</time>
      </trkpt>
      <trkpt lat="48.96865" lon="0.08414">
        <ele>194.15</ele>
        <time>2021-08-08T13:36:05Z</time>
      </trkpt>
      <trkpt lat="48.96867" lon="0.08417">
        <ele>194.04</ele>
        <time>2021-08-08T13:36:06Z</time>
      </trkpt>
      <trkpt lat="48.96868" lon="0.08421">
        <ele>193.91</ele>
        <time>2021-08-08T13:36:07Z</time>
      </trkpt>
      <trkpt lat="48.96869" lon="0.08424">
        <ele>193.79</ele>
        <time>2021-08-08T13:36:08Z</time>
      </trkpt>
      <trkpt lat="48.9687" lon="0.08427">
        <ele>193.67</ele>
        <time>2021-08-08T13:36:09Z</time>
      </trkpt>
      <trkpt lat="48.96871" lon="0.0843">
        <ele>193.57</ele>
        <time>2021-08-08T13:36:10Z</time>
      </trkpt>
      <trkpt lat="48.96871" lon="0.08432">
        <ele>193.47</ele>
        <time>2021-08-08T13:36:11Z</time>
      </trkpt>
      <trkpt lat="48.96873" lon="0.08435">
        <ele>193.39</ele>
        <time>2021-08-08T13:36:12Z</time>
      </trkpt>
      <trkpt lat="48.96873" lon="0.08437">
        <ele>193.3</ele>
        <time>2021-08-08T13:36:13Z</time>
      </trkpt>
      <trkpt lat="48.96874" lon="0.0844">
        <ele>193.19</ele>
        <time>2021-08-08T13:36:14Z</time>
      </trkpt>
      <trkpt lat="48.96875" lon="0.08445">
        <ele>193.05</ele>
        <time>2021-08-08T13:36:15Z</time>
      </trkpt>
      <trkpt lat="48.96877" lon="0.0845">
        <ele>192.96</ele>
        <time>2021-08-08T13:36:16Z</time>
      </trkpt>
      <trkpt lat="48.96879" lon="0.08455">
        <ele>192.89</ele>
        <time>2021-08-08T13:36:17Z</time>
      </trkpt>
      <trkpt lat="48.9688" lon="0.08459">
        <ele>192.86</ele>
        <time>2021-08-08T13:36:18Z</time>
      </trkpt>
      <trkpt lat="48.96882" lon="0.08462">
        <ele>192.85</ele>
        <time>2021-08-08T13:36:19Z</time>
      </trkpt>
      <trkpt lat="48.96885" lon="0.08463">
        <ele>192.89</ele>
        <time>2021-08-08T13:36:20Z</time>
      </trkpt>
      <trkpt lat="48.96887" lon="0.08464">
        <ele>192.94</ele>
        <time>2021-08-08T13:36:21Z</time>
      </trkpt>
      <trkpt lat="48.9689" lon="0.08466">
        <ele>192.99</ele>
        <time>2021-08-08T13:36:22Z</time>
      </trkpt>
      <trkpt lat="48.96892" lon="0.08468">
        <ele>193.01</ele>
        <time>2021-08-08T13:36:23Z</time>
      </trkpt>
      <trkpt lat="48.96893" lon="0.08469">
        <ele>193.02</ele>
        <time>2021-08-08T13:36:24Z</time>
      </trkpt>
      <trkpt lat="48.96894" lon="0.0847">
        <ele>193.02</ele>
        <time>2021-08-08T13:36:25Z</time>
      </trkpt>
      <trkpt lat="48.96895" lon="0.0847">
        <ele>193.02</ele>
        <time>2021-08-08T13:36:26Z</time>
      </trkpt>
      <trkpt lat="48.96896" lon="0.08471">
        <ele>193.01</ele>
        <time>2021-08-08T13:36:27Z</time>
      </trkpt>
      <trkpt lat="48.96897" lon="0.08473">
        <ele>192.96</ele>
        <time>2021-08-08T13:36:28Z</time>
      </trkpt>
      <trkpt lat="48.96897" lon="0.08476">
        <ele>192.83</ele>
        <time>2021-08-08T13:36:29Z</time>
      </trkpt>
      <trkpt lat="48.96897" lon="0.08476">
        <ele>192.79</ele>
        <time>2021-08-08T13:36:30Z</time>
      </trkpt>
      <trkpt lat="48.96897" lon="0.08476">
        <ele>192.78</ele>
        <time>2021-08-08T13:36:31Z</time>
      </trkpt>
      <trkpt lat="48.96899" lon="0.08481">
        <ele>192.59</ele>
        <time>2021-08-08T13:36:32Z</time>
      </trkpt>
      <trkpt lat="48.96901" lon="0.08484">
        <ele>192.43</ele>
        <time>2021-08-08T13:36:33Z</time>
      </trkpt>
      <trkpt lat="48.96902" lon="0.08485">
        <ele>192.33</ele>
        <time>2021-08-08T13:36:34Z</time>
      </trkpt>
      <trkpt lat="48.96903" lon="0.08487">
        <ele>192.24</ele>
        <time>2021-08-08T13:36:35Z</time>
      </trkpt>
      <trkpt lat="48.96905" lon="0.0849">
        <ele>192.12</ele>
        <time>2021-08-08T13:36:36Z</time>
      </trkpt>
      <trkpt lat="48.96906" lon="0.08493">
        <ele>192.01</ele>
        <time>2021-08-08T13:36:37Z</time>
      </trkpt>
      <trkpt lat="48.96908" lon="0.08496">
        <ele>191.93</ele>
        <time>2021-08-08T13:36:38Z</time>
      </trkpt>
      <trkpt lat="48.9691" lon="0.08498">
        <ele>191.88</ele>
        <time>2021-08-08T13:36:39Z</time>
      </trkpt>
      <trkpt lat="48.96911" lon="0.085">
        <ele>191.82</ele>
        <time>2021-08-08T13:36:40Z</time>
      </trkpt>
      <trkpt lat="48.96913" lon="0.08503">
        <ele>191.77</ele>
        <time>2021-08-08T13:36:41Z</time>
      </trkpt>
      <trkpt lat="48.96914" lon="0.08505">
        <ele>191.75</ele>
        <time>2021-08-08T13:36:42Z</time>
      </trkpt>
      <trkpt lat="48.96915" lon="0.08506">
        <ele>191.73</ele>
        <time>2021-08-08T13:36:43Z</time>
      </trkpt>
      <trkpt lat="48.96915" lon="0.08506">
        <ele>191.72</ele>
        <time>2021-08-08T13:36:44Z</time>
      </trkpt>
      <trkpt lat="48.96916" lon="0.08505">
        <ele>191.76</ele>
        <time>2021-08-08T13:36:45Z</time>
      </trkpt>
      <trkpt lat="48.96916" lon="0.08505">
        <ele>191.77</ele>
        <time>2021-08-08T13:36:46Z</time>
      </trkpt>
      <trkpt lat="48.96916" lon="0.08505">
        <ele>191.78</ele>
        <time>2021-08-08T13:36:47Z</time>
      </trkpt>
      <trkpt lat="48.96916" lon="0.08505">
        <ele>191.78</ele>
        <time>2021-08-08T13:36:48Z</time>
      </trkpt>
      <trkpt lat="48.96916" lon="0.08505">
        <ele>191.78</ele>
        <time>2021-08-08T13:36:49Z</time>
      </trkpt>
      <trkpt lat="48.96916" lon="0.08505">
        <ele>191.78</ele>
        <time>2021-08-08T13:36:50Z</time>
      </trkpt>
      <trkpt lat="48.96916" lon="0.08505">
        <ele>191.78</ele>
        <time>2021-08-08T13:36:51Z</time>
      </trkpt>
      <trkpt lat="48.96923" lon="0.08516">
        <ele>191.69</ele>
        <time>2021-08-08T13:36:52Z</time>
      </trkpt>
      <trkpt lat="48.96924" lon="0.08516">
        <ele>191.69</ele>
        <time>2021-08-08T13:36:53Z</time>
      </trkpt>
      <trkpt lat="48.96925" lon="0.08517">
        <ele>191.7</ele>
        <time>2021-08-08T13:36:54Z</time>
      </trkpt>
      <trkpt lat="48.96926" lon="0.08517">
        <ele>191.73</ele>
        <time>2021-08-08T13:36:55Z</time>
      </trkpt>
      <trkpt lat="48.96926" lon="0.08517">
        <ele>191.74</ele>
        <time>2021-08-08T13:36:56Z</time>
      </trkpt>
      <trkpt lat="48.96931" lon="0.08522">
        <ele>191.73</ele>
        <time>2021-08-08T13:36:57Z</time>
      </trkpt>
      <trkpt lat="48.96932" lon="0.08525">
        <ele>191.68</ele>
        <time>2021-08-08T13:36:58Z</time>
      </trkpt>
      <trkpt lat="48.96934" lon="0.08526">
        <ele>191.7</ele>
        <time>2021-08-08T13:36:59Z</time>
      </trkpt>
      <trkpt lat="48.96936" lon="0.08526">
        <ele>191.73</ele>
        <time>2021-08-08T13:37:00Z</time>
      </trkpt>
      <trkpt lat="48.96938" lon="0.08528">
        <ele>191.75</ele>
        <time>2021-08-08T13:37:01Z</time>
      </trkpt>
      <trkpt lat="48.9694" lon="0.08531">
        <ele>191.73</ele>
        <time>2021-08-08T13:37:02Z</time>
      </trkpt>
      <trkpt lat="48.96943" lon="0.08534">
        <ele>191.73</ele>
        <time>2021-08-08T13:37:03Z</time>
      </trkpt>
      <trkpt lat="48.96945" lon="0.08535">
        <ele>191.74</ele>
        <time>2021-08-08T13:37:04Z</time>
      </trkpt>
      <trkpt lat="48.96946" lon="0.08537">
        <ele>191.71</ele>
        <time>2021-08-08T13:37:05Z</time>
      </trkpt>
      <trkpt lat="48.96948" lon="0.08539">
        <ele>191.67</ele>
        <time>2021-08-08T13:37:06Z</time>
      </trkpt>
      <trkpt lat="48.96949" lon="0.0854">
        <ele>191.64</ele>
        <time>2021-08-08T13:37:07Z</time>
      </trkpt>
      <trkpt lat="48.96949" lon="0.08541">
        <ele>191.61</ele>
        <time>2021-08-08T13:37:08Z</time>
      </trkpt>
      <trkpt lat="48.9695" lon="0.08543">
        <ele>191.59</ele>
        <time>2021-08-08T13:37:09Z</time>
      </trkpt>
      <trkpt lat="48.96952" lon="0.08544">
        <ele>191.58</ele>
        <time>2021-08-08T13:37:10Z</time>
      </trkpt>
      <trkpt lat="48.96954" lon="0.08546">
        <ele>191.57</ele>
        <time>2021-08-08T13:37:11Z</time>
      </trkpt>
      <trkpt lat="48.96956" lon="0.08547">
        <ele>191.58</ele>
        <time>2021-08-08T13:37:12Z</time>
      </trkpt>
      <trkpt lat="48.96959" lon="0.08551">
        <ele>191.59</ele>
        <time>2021-08-08T13:37:13Z</time>
      </trkpt>
      <trkpt lat="48.96961" lon="0.08554">
        <ele>191.61</ele>
        <time>2021-08-08T13:37:14Z</time>
      </trkpt>
      <trkpt lat="48.96963" lon="0.08556">
        <ele>191.6</ele>
        <time>2021-08-08T13:37:15Z</time>
      </trkpt>
      <trkpt lat="48.96965" lon="0.08558">
        <ele>191.58</ele>
        <time>2021-08-08T13:37:16Z</time>
      </trkpt>
      <trkpt lat="48.96968" lon="0.08561">
        <ele>191.5</ele>
        <time>2021-08-08T13:37:17Z</time>
      </trkpt>
      <trkpt lat="48.96971" lon="0.08562">
        <ele>191.49</ele>
        <time>2021-08-08T13:37:18Z</time>
      </trkpt>
      <trkpt lat="48.96973" lon="0.08563">
        <ele>191.48</ele>
        <time>2021-08-08T13:37:19Z</time>
      </trkpt>
      <trkpt lat="48.96974" lon="0.08565">
        <ele>191.43</ele>
        <time>2021-08-08T13:37:20Z</time>
      </trkpt>
      <trkpt lat="48.96977" lon="0.08568">
        <ele>191.34</ele>
        <time>2021-08-08T13:37:21Z</time>
      </trkpt>
      <trkpt lat="48.9698" lon="0.0857">
        <ele>191.25</ele>
        <time>2021-08-08T13:37:22Z</time>
      </trkpt>
      <trkpt lat="48.96982" lon="0.08572">
        <ele>191.17</ele>
        <time>2021-08-08T13:37:23Z</time>
      </trkpt>
      <trkpt lat="48.96983" lon="0.08575">
        <ele>191.04</ele>
        <time>2021-08-08T13:37:24Z</time>
      </trkpt>
      <trkpt lat="48.96984" lon="0.08578">
        <ele>190.9</ele>
        <time>2021-08-08T13:37:25Z</time>
      </trkpt>
      <trkpt lat="48.96985" lon="0.0858">
        <ele>190.75</ele>
        <time>2021-08-08T13:37:26Z</time>
      </trkpt>
      <trkpt lat="48.96987" lon="0.08583">
        <ele>190.61</ele>
        <time>2021-08-08T13:37:27Z</time>
      </trkpt>
      <trkpt lat="48.96989" lon="0.08585">
        <ele>190.55</ele>
        <time>2021-08-08T13:37:28Z</time>
      </trkpt>
      <trkpt lat="48.9699" lon="0.08586">
        <ele>190.53</ele>
        <time>2021-08-08T13:37:29Z</time>
      </trkpt>
      <trkpt lat="48.96992" lon="0.08588">
        <ele>190.52</ele>
        <time>2021-08-08T13:37:30Z</time>
      </trkpt>
      <trkpt lat="48.96993" lon="0.08591">
        <ele>190.5</ele>
        <time>2021-08-08T13:37:31Z</time>
      </trkpt>
      <trkpt lat="48.96995" lon="0.08593">
        <ele>190.48</ele>
        <time>2021-08-08T13:37:32Z</time>
      </trkpt>
      <trkpt lat="48.96998" lon="0.08596">
        <ele>190.47</ele>
        <time>2021-08-08T13:37:33Z</time>
      </trkpt>
      <trkpt lat="48.97" lon="0.08598">
        <ele>190.48</ele>
        <time>2021-08-08T13:37:34Z</time>
      </trkpt>
      <trkpt lat="48.97003" lon="0.086">
        <ele>190.5</ele>
        <time>2021-08-08T13:37:35Z</time>
      </trkpt>
      <trkpt lat="48.97005" lon="0.08602">
        <ele>190.53</ele>
        <time>2021-08-08T13:37:36Z</time>
      </trkpt>
      <trkpt lat="48.97008" lon="0.08604">
        <ele>190.56</ele>
        <time>2021-08-08T13:37:37Z</time>
      </trkpt>
      <trkpt lat="48.9701" lon="0.08605">
        <ele>190.59</ele>
        <time>2021-08-08T13:37:38Z</time>
      </trkpt>
      <trkpt lat="48.97012" lon="0.08606">
        <ele>190.62</ele>
        <time>2021-08-08T13:37:39Z</time>
      </trkpt>
      <trkpt lat="48.97014" lon="0.08607">
        <ele>190.66</ele>
        <time>2021-08-08T13:37:40Z</time>
      </trkpt>
      <trkpt lat="48.97016" lon="0.08607">
        <ele>190.69</ele>
        <time>2021-08-08T13:37:41Z</time>
      </trkpt>
      <trkpt lat="48.97018" lon="0.08608">
        <ele>190.74</ele>
        <time>2021-08-08T13:37:42Z</time>
      </trkpt>
      <trkpt lat="48.9702" lon="0.08609">
        <ele>190.79</ele>
        <time>2021-08-08T13:37:43Z</time>
      </trkpt>
      <trkpt lat="48.97022" lon="0.0861">
        <ele>190.81</ele>
        <time>2021-08-08T13:37:44Z</time>
      </trkpt>
      <trkpt lat="48.97024" lon="0.08611">
        <ele>190.85</ele>
        <time>2021-08-08T13:37:45Z</time>
      </trkpt>
      <trkpt lat="48.97026" lon="0.08612">
        <ele>190.88</ele>
        <time>2021-08-08T13:37:46Z</time>
      </trkpt>
      <trkpt lat="48.97029" lon="0.08613">
        <ele>190.88</ele>
        <time>2021-08-08T13:37:47Z</time>
      </trkpt>
      <trkpt lat="48.97032" lon="0.08614">
        <ele>190.91</ele>
        <time>2021-08-08T13:37:48Z</time>
      </trkpt>
      <trkpt lat="48.97034" lon="0.08615">
        <ele>190.98</ele>
        <time>2021-08-08T13:37:49Z</time>
      </trkpt>
      <trkpt lat="48.97035" lon="0.08614">
        <ele>191.05</ele>
        <time>2021-08-08T13:37:50Z</time>
      </trkpt>
      <trkpt lat="48.97037" lon="0.08615">
        <ele>191.09</ele>
        <time>2021-08-08T13:37:51Z</time>
      </trkpt>
      <trkpt lat="48.97039" lon="0.08617">
        <ele>191.08</ele>
        <time>2021-08-08T13:37:52Z</time>
      </trkpt>
      <trkpt lat="48.9704" lon="0.08618">
        <ele>191.05</ele>
        <time>2021-08-08T13:37:53Z</time>
      </trkpt>
      <trkpt lat="48.97041" lon="0.08619">
        <ele>191.07</ele>
        <time>2021-08-08T13:37:54Z</time>
      </trkpt>
      <trkpt lat="48.97045" lon="0.08623">
        <ele>191.04</ele>
        <time>2021-08-08T13:37:55Z</time>
      </trkpt>
      <trkpt lat="48.97047" lon="0.08624">
        <ele>191.08</ele>
        <time>2021-08-08T13:37:56Z</time>
      </trkpt>
      <trkpt lat="48.9705" lon="0.08626">
        <ele>191.14</ele>
        <time>2021-08-08T13:37:57Z</time>
      </trkpt>
      <trkpt lat="48.97052" lon="0.08629">
        <ele>191.15</ele>
        <time>2021-08-08T13:37:58Z</time>
      </trkpt>
      <trkpt lat="48.97054" lon="0.08631">
        <ele>191.17</ele>
        <time>2021-08-08T13:37:59Z</time>
      </trkpt>
      <trkpt lat="48.97057" lon="0.08635">
        <ele>191.19</ele>
        <time>2021-08-08T13:38:00Z</time>
      </trkpt>
      <trkpt lat="48.9706" lon="0.08637">
        <ele>191.2</ele>
        <time>2021-08-08T13:38:01Z</time>
      </trkpt>
      <trkpt lat="48.97063" lon="0.08642">
        <ele>191.1</ele>
        <time>2021-08-08T13:38:02Z</time>
      </trkpt>
      <trkpt lat="48.97066" lon="0.08645">
        <ele>191.01</ele>
        <time>2021-08-08T13:38:03Z</time>
      </trkpt>
      <trkpt lat="48.97068" lon="0.08646">
        <ele>190.95</ele>
        <time>2021-08-08T13:38:04Z</time>
      </trkpt>
      <trkpt lat="48.97072" lon="0.08649">
        <ele>190.87</ele>
        <time>2021-08-08T13:38:05Z</time>
      </trkpt>
      <trkpt lat="48.97074" lon="0.0865">
        <ele>190.86</ele>
        <time>2021-08-08T13:38:06Z</time>
      </trkpt>
      <trkpt lat="48.97076" lon="0.08652">
        <ele>190.8</ele>
        <time>2021-08-08T13:38:07Z</time>
      </trkpt>
      <trkpt lat="48.97078" lon="0.08654">
        <ele>190.75</ele>
        <time>2021-08-08T13:38:08Z</time>
      </trkpt>
      <trkpt lat="48.9708" lon="0.08656">
        <ele>190.7</ele>
        <time>2021-08-08T13:38:09Z</time>
      </trkpt>
      <trkpt lat="48.97083" lon="0.08659">
        <ele>190.6</ele>
        <time>2021-08-08T13:38:10Z</time>
      </trkpt>
      <trkpt lat="48.97085" lon="0.08662">
        <ele>190.47</ele>
        <time>2021-08-08T13:38:11Z</time>
      </trkpt>
      <trkpt lat="48.97087" lon="0.08664">
        <ele>190.36</ele>
        <time>2021-08-08T13:38:12Z</time>
      </trkpt>
      <trkpt lat="48.97088" lon="0.08667">
        <ele>190.23</ele>
        <time>2021-08-08T13:38:13Z</time>
      </trkpt>
      <trkpt lat="48.97091" lon="0.0867">
        <ele>190.11</ele>
        <time>2021-08-08T13:38:14Z</time>
      </trkpt>
      <trkpt lat="48.97094" lon="0.08673">
        <ele>190.01</ele>
        <time>2021-08-08T13:38:15Z</time>
      </trkpt>
      <trkpt lat="48.97097" lon="0.08675">
        <ele>189.93</ele>
        <time>2021-08-08T13:38:16Z</time>
      </trkpt>
      <trkpt lat="48.97099" lon="0.08677">
        <ele>189.83</ele>
        <time>2021-08-08T13:38:17Z</time>
      </trkpt>
      <trkpt lat="48.97101" lon="0.08681">
        <ele>189.7</ele>
        <time>2021-08-08T13:38:18Z</time>
      </trkpt>
      <trkpt lat="48.97105" lon="0.08684">
        <ele>189.57</ele>
        <time>2021-08-08T13:38:19Z</time>
      </trkpt>
      <trkpt lat="48.97108" lon="0.08686">
        <ele>189.5</ele>
        <time>2021-08-08T13:38:20Z</time>
      </trkpt>
      <trkpt lat="48.97112" lon="0.08688">
        <ele>189.45</ele>
        <time>2021-08-08T13:38:21Z</time>
      </trkpt>
      <trkpt lat="48.97116" lon="0.0869">
        <ele>189.38</ele>
        <time>2021-08-08T13:38:22Z</time>
      </trkpt>
      <trkpt lat="48.9712" lon="0.0869">
        <ele>189.31</ele>
        <time>2021-08-08T13:38:23Z</time>
      </trkpt>
      <trkpt lat="48.97124" lon="0.08692">
        <ele>189.2</ele>
        <time>2021-08-08T13:38:24Z</time>
      </trkpt>
      <trkpt lat="48.97129" lon="0.08695">
        <ele>189.05</ele>
        <time>2021-08-08T13:38:25Z</time>
      </trkpt>
      <trkpt lat="48.97133" lon="0.08697">
        <ele>188.94</ele>
        <time>2021-08-08T13:38:26Z</time>
      </trkpt>
      <trkpt lat="48.97137" lon="0.08699">
        <ele>188.85</ele>
        <time>2021-08-08T13:38:27Z</time>
      </trkpt>
      <trkpt lat="48.9714" lon="0.08701">
        <ele>188.81</ele>
        <time>2021-08-08T13:38:28Z</time>
      </trkpt>
      <trkpt lat="48.97143" lon="0.08702">
        <ele>188.82</ele>
        <time>2021-08-08T13:38:29Z</time>
      </trkpt>
      <trkpt lat="48.97146" lon="0.08705">
        <ele>188.79</ele>
        <time>2021-08-08T13:38:30Z</time>
      </trkpt>
      <trkpt lat="48.97149" lon="0.08707">
        <ele>188.74</ele>
        <time>2021-08-08T13:38:31Z</time>
      </trkpt>
      <trkpt lat="48.97151" lon="0.08711">
        <ele>188.62</ele>
        <time>2021-08-08T13:38:32Z</time>
      </trkpt>
      <trkpt lat="48.97154" lon="0.08713">
        <ele>188.53</ele>
        <time>2021-08-08T13:38:33Z</time>
      </trkpt>
      <trkpt lat="48.97156" lon="0.08715">
        <ele>188.47</ele>
        <time>2021-08-08T13:38:34Z</time>
      </trkpt>
      <trkpt lat="48.97159" lon="0.08718">
        <ele>188.33</ele>
        <time>2021-08-08T13:38:35Z</time>
      </trkpt>
      <trkpt lat="48.97162" lon="0.0872">
        <ele>188.2</ele>
        <time>2021-08-08T13:38:36Z</time>
      </trkpt>
      <trkpt lat="48.97164" lon="0.08722">
        <ele>188.07</ele>
        <time>2021-08-08T13:38:37Z</time>
      </trkpt>
      <trkpt lat="48.97167" lon="0.08724">
        <ele>187.98</ele>
        <time>2021-08-08T13:38:38Z</time>
      </trkpt>
      <trkpt lat="48.9717" lon="0.08726">
        <ele>187.98</ele>
        <time>2021-08-08T13:38:39Z</time>
      </trkpt>
      <trkpt lat="48.97173" lon="0.08728">
        <ele>188.02</ele>
        <time>2021-08-08T13:38:40Z</time>
      </trkpt>
      <trkpt lat="48.97174" lon="0.08729">
        <ele>188.02</ele>
        <time>2021-08-08T13:38:41Z</time>
      </trkpt>
      <trkpt lat="48.97177" lon="0.08732">
        <ele>188.02</ele>
        <time>2021-08-08T13:38:42Z</time>
      </trkpt>
      <trkpt lat="48.9718" lon="0.08735">
        <ele>188.03</ele>
        <time>2021-08-08T13:38:43Z</time>
      </trkpt>
      <trkpt lat="48.97184" lon="0.08738">
        <ele>188.05</ele>
        <time>2021-08-08T13:38:44Z</time>
      </trkpt>
      <trkpt lat="48.97188" lon="0.08741">
        <ele>188.07</ele>
        <time>2021-08-08T13:38:45Z</time>
      </trkpt>
      <trkpt lat="48.97191" lon="0.08743">
        <ele>188.11</ele>
        <time>2021-08-08T13:38:46Z</time>
      </trkpt>
      <trkpt lat="48.97195" lon="0.08745">
        <ele>188.16</ele>
        <time>2021-08-08T13:38:47Z</time>
      </trkpt>
      <trkpt lat="48.97199" lon="0.08747">
        <ele>188.12</ele>
        <time>2021-08-08T13:38:48Z</time>
      </trkpt>
      <trkpt lat="48.97202" lon="0.08749">
        <ele>188.05</ele>
        <time>2021-08-08T13:38:49Z</time>
      </trkpt>
      <trkpt lat="48.97205" lon="0.08752">
        <ele>187.94</ele>
        <time>2021-08-08T13:38:50Z</time>
      </trkpt>
      <trkpt lat="48.97209" lon="0.08754">
        <ele>187.8</ele>
        <time>2021-08-08T13:38:51Z</time>
      </trkpt>
      <trkpt lat="48.97212" lon="0.08756">
        <ele>187.66</ele>
        <time>2021-08-08T13:38:52Z</time>
      </trkpt>
      <trkpt lat="48.97214" lon="0.08757">
        <ele>187.53</ele>
        <time>2021-08-08T13:38:53Z</time>
      </trkpt>
      <trkpt lat="48.97216" lon="0.08759">
        <ele>187.41</ele>
        <time>2021-08-08T13:38:54Z</time>
      </trkpt>
      <trkpt lat="48.97219" lon="0.0876">
        <ele>187.33</ele>
        <time>2021-08-08T13:38:55Z</time>
      </trkpt>
      <trkpt lat="48.97221" lon="0.08761">
        <ele>187.24</ele>
        <time>2021-08-08T13:38:56Z</time>
      </trkpt>
      <trkpt lat="48.97223" lon="0.08763">
        <ele>187.15</ele>
        <time>2021-08-08T13:38:57Z</time>
      </trkpt>
      <trkpt lat="48.97226" lon="0.08765">
        <ele>187.07</ele>
        <time>2021-08-08T13:38:58Z</time>
      </trkpt>
      <trkpt lat="48.97228" lon="0.08767">
        <ele>187.01</ele>
        <time>2021-08-08T13:38:59Z</time>
      </trkpt>
      <trkpt lat="48.97231" lon="0.08769">
        <ele>186.94</ele>
        <time>2021-08-08T13:39:00Z</time>
      </trkpt>
      <trkpt lat="48.97232" lon="0.08771">
        <ele>186.87</ele>
        <time>2021-08-08T13:39:01Z</time>
      </trkpt>
      <trkpt lat="48.97233" lon="0.08772">
        <ele>186.82</ele>
        <time>2021-08-08T13:39:02Z</time>
      </trkpt>
      <trkpt lat="48.97233" lon="0.08772">
        <ele>186.81</ele>
        <time>2021-08-08T13:39:03Z</time>
      </trkpt>
      <trkpt lat="48.97234" lon="0.08772">
        <ele>186.8</ele>
        <time>2021-08-08T13:39:04Z</time>
      </trkpt>
      <trkpt lat="48.97234" lon="0.08772">
        <ele>186.79</ele>
        <time>2021-08-08T13:39:05Z</time>
      </trkpt>
      <trkpt lat="48.97234" lon="0.08772">
        <ele>186.79</ele>
        <time>2021-08-08T13:39:06Z</time>
      </trkpt>
      <trkpt lat="48.97234" lon="0.08772">
        <ele>186.79</ele>
        <time>2021-08-08T13:39:07Z</time>
      </trkpt>
      <trkpt lat="48.97234" lon="0.08772">
        <ele>186.79</ele>
        <time>2021-08-08T13:39:08Z</time>
      </trkpt>
      <trkpt lat="48.9724" lon="0.08776">
        <ele>186.79</ele>
        <time>2021-08-08T13:39:09Z</time>
      </trkpt>
      <trkpt lat="48.97242" lon="0.08777">
        <ele>186.75</ele>
        <time>2021-08-08T13:39:10Z</time>
      </trkpt>
      <trkpt lat="48.97244" lon="0.08779">
        <ele>186.72</ele>
        <time>2021-08-08T13:39:11Z</time>
      </trkpt>
      <trkpt lat="48.97246" lon="0.08781">
        <ele>186.66</ele>
        <time>2021-08-08T13:39:12Z</time>
      </trkpt>
      <trkpt lat="48.97248" lon="0.08782">
        <ele>186.61</ele>
        <time>2021-08-08T13:39:13Z</time>
      </trkpt>
      <trkpt lat="48.97251" lon="0.08785">
        <ele>186.55</ele>
        <time>2021-08-08T13:39:14Z</time>
      </trkpt>
      <trkpt lat="48.97254" lon="0.08787">
        <ele>186.54</ele>
        <time>2021-08-08T13:39:15Z</time>
      </trkpt>
      <trkpt lat="48.97257" lon="0.08789">
        <ele>186.56</ele>
        <time>2021-08-08T13:39:16Z</time>
      </trkpt>
      <trkpt lat="48.9726" lon="0.08791">
        <ele>186.59</ele>
        <time>2021-08-08T13:39:17Z</time>
      </trkpt>
      <trkpt lat="48.97264" lon="0.08792">
        <ele>186.68</ele>
        <time>2021-08-08T13:39:18Z</time>
      </trkpt>
      <trkpt lat="48.97267" lon="0.08794">
        <ele>186.76</ele>
        <time>2021-08-08T13:39:19Z</time>
      </trkpt>
      <trkpt lat="48.9727" lon="0.08796">
        <ele>186.86</ele>
        <time>2021-08-08T13:39:20Z</time>
      </trkpt>
      <trkpt lat="48.97274" lon="0.08797">
        <ele>186.99</ele>
        <time>2021-08-08T13:39:21Z</time>
      </trkpt>
      <trkpt lat="48.97277" lon="0.08797">
        <ele>187.18</ele>
        <time>2021-08-08T13:39:22Z</time>
      </trkpt>
      <trkpt lat="48.9728" lon="0.08799">
        <ele>187.24</ele>
        <time>2021-08-08T13:39:23Z</time>
      </trkpt>
      <trkpt lat="48.97283" lon="0.088">
        <ele>187.25</ele>
        <time>2021-08-08T13:39:24Z</time>
      </trkpt>
      <trkpt lat="48.97285" lon="0.08801">
        <ele>187.21</ele>
        <time>2021-08-08T13:39:25Z</time>
      </trkpt>
      <trkpt lat="48.97287" lon="0.08803">
        <ele>187.13</ele>
        <time>2021-08-08T13:39:26Z</time>
      </trkpt>
      <trkpt lat="48.9729" lon="0.08806">
        <ele>187.02</ele>
        <time>2021-08-08T13:39:27Z</time>
      </trkpt>
      <trkpt lat="48.97292" lon="0.08808">
        <ele>186.92</ele>
        <time>2021-08-08T13:39:28Z</time>
      </trkpt>
      <trkpt lat="48.97295" lon="0.0881">
        <ele>186.81</ele>
        <time>2021-08-08T13:39:29Z</time>
      </trkpt>
      <trkpt lat="48.97299" lon="0.08813">
        <ele>186.71</ele>
        <time>2021-08-08T13:39:30Z</time>
      </trkpt>
      <trkpt lat="48.97301" lon="0.08817">
        <ele>186.59</ele>
        <time>2021-08-08T13:39:31Z</time>
      </trkpt>
      <trkpt lat="48.97305" lon="0.08819">
        <ele>186.51</ele>
        <time>2021-08-08T13:39:32Z</time>
      </trkpt>
      <trkpt lat="48.97307" lon="0.08822">
        <ele>186.5</ele>
        <time>2021-08-08T13:39:33Z</time>
      </trkpt>
      <trkpt lat="48.9731" lon="0.08822">
        <ele>186.55</ele>
        <time>2021-08-08T13:39:34Z</time>
      </trkpt>
      <trkpt lat="48.97315" lon="0.08824">
        <ele>186.65</ele>
        <time>2021-08-08T13:39:35Z</time>
      </trkpt>
      <trkpt lat="48.97319" lon="0.08824">
        <ele>186.76</ele>
        <time>2021-08-08T13:39:36Z</time>
      </trkpt>
      <trkpt lat="48.97322" lon="0.08827">
        <ele>186.82</ele>
        <time>2021-08-08T13:39:37Z</time>
      </trkpt>
      <trkpt lat="48.97325" lon="0.08829">
        <ele>186.84</ele>
        <time>2021-08-08T13:39:38Z</time>
      </trkpt>
      <trkpt lat="48.97327" lon="0.08831">
        <ele>186.87</ele>
        <time>2021-08-08T13:39:39Z</time>
      </trkpt>
      <trkpt lat="48.97329" lon="0.08832">
        <ele>186.87</ele>
        <time>2021-08-08T13:39:40Z</time>
      </trkpt>
      <trkpt lat="48.97332" lon="0.08835">
        <ele>186.83</ele>
        <time>2021-08-08T13:39:41Z</time>
      </trkpt>
      <trkpt lat="48.97336" lon="0.08839">
        <ele>186.68</ele>
        <time>2021-08-08T13:39:42Z</time>
      </trkpt>
      <trkpt lat="48.97339" lon="0.08841">
        <ele>186.53</ele>
        <time>2021-08-08T13:39:43Z</time>
      </trkpt>
      <trkpt lat="48.97343" lon="0.08843">
        <ele>186.44</ele>
        <time>2021-08-08T13:39:44Z</time>
      </trkpt>
      <trkpt lat="48.97347" lon="0.08845">
        <ele>186.36</ele>
        <time>2021-08-08T13:39:45Z</time>
      </trkpt>
      <trkpt lat="48.9735" lon="0.08847">
        <ele>186.31</ele>
        <time>2021-08-08T13:39:46Z</time>
      </trkpt>
      <trkpt lat="48.97353" lon="0.08849">
        <ele>186.26</ele>
        <time>2021-08-08T13:39:47Z</time>
      </trkpt>
      <trkpt lat="48.97355" lon="0.08851">
        <ele>186.25</ele>
        <time>2021-08-08T13:39:48Z</time>
      </trkpt>
      <trkpt lat="48.97359" lon="0.08851">
        <ele>186.28</ele>
        <time>2021-08-08T13:39:49Z</time>
      </trkpt>
      <trkpt lat="48.97361" lon="0.08853">
        <ele>186.29</ele>
        <time>2021-08-08T13:39:50Z</time>
      </trkpt>
      <trkpt lat="48.97363" lon="0.08856">
        <ele>186.27</ele>
        <time>2021-08-08T13:39:51Z</time>
      </trkpt>
      <trkpt lat="48.97363" lon="0.08859">
        <ele>186.19</ele>
        <time>2021-08-08T13:39:52Z</time>
      </trkpt>
      <trkpt lat="48.97363" lon="0.08864">
        <ele>186.03</ele>
        <time>2021-08-08T13:39:53Z</time>
      </trkpt>
      <trkpt lat="48.97362" lon="0.08868">
        <ele>185.86</ele>
        <time>2021-08-08T13:39:54Z</time>
      </trkpt>
      <trkpt lat="48.97361" lon="0.08872">
        <ele>185.67</ele>
        <time>2021-08-08T13:39:55Z</time>
      </trkpt>
      <trkpt lat="48.9736" lon="0.08877">
        <ele>185.46</ele>
        <time>2021-08-08T13:39:56Z</time>
      </trkpt>
      <trkpt lat="48.9736" lon="0.08883">
        <ele>185.23</ele>
        <time>2021-08-08T13:39:57Z</time>
      </trkpt>
      <trkpt lat="48.9736" lon="0.0889">
        <ele>184.96</ele>
        <time>2021-08-08T13:39:58Z</time>
      </trkpt>
      <trkpt lat="48.97359" lon="0.08895">
        <ele>184.55</ele>
        <time>2021-08-08T13:39:59Z</time>
      </trkpt>
      <trkpt lat="48.97358" lon="0.08902">
        <ele>184.08</ele>
        <time>2021-08-08T13:40:00Z</time>
      </trkpt>
      <trkpt lat="48.97357" lon="0.08909">
        <ele>183.53</ele>
        <time>2021-08-08T13:40:01Z</time>
      </trkpt>
      <trkpt lat="48.97356" lon="0.08917">
        <ele>182.92</ele>
        <time>2021-08-08T13:40:02Z</time>
      </trkpt>
      <trkpt lat="48.97357" lon="0.08926">
        <ele>182.31</ele>
        <time>2021-08-08T13:40:03Z</time>
      </trkpt>
      <trkpt lat="48.97358" lon="0.08934">
        <ele>181.72</ele>
        <time>2021-08-08T13:40:04Z</time>
      </trkpt>
      <trkpt lat="48.9736" lon="0.08945">
        <ele>181.12</ele>
        <time>2021-08-08T13:40:05Z</time>
      </trkpt>
      <trkpt lat="48.97362" lon="0.08954">
        <ele>180.61</ele>
        <time>2021-08-08T13:40:06Z</time>
      </trkpt>
      <trkpt lat="48.97365" lon="0.08962">
        <ele>180.24</ele>
        <time>2021-08-08T13:40:07Z</time>
      </trkpt>
      <trkpt lat="48.9737" lon="0.08967">
        <ele>180.05</ele>
        <time>2021-08-08T13:40:08Z</time>
      </trkpt>
      <trkpt lat="48.97372" lon="0.08973">
        <ele>179.83</ele>
        <time>2021-08-08T13:40:09Z</time>
      </trkpt>
      <trkpt lat="48.97375" lon="0.08979">
        <ele>179.41</ele>
        <time>2021-08-08T13:40:10Z</time>
      </trkpt>
      <trkpt lat="48.97378" lon="0.08986">
        <ele>178.88</ele>
        <time>2021-08-08T13:40:11Z</time>
      </trkpt>
      <trkpt lat="48.97379" lon="0.08994">
        <ele>178.21</ele>
        <time>2021-08-08T13:40:12Z</time>
      </trkpt>
      <trkpt lat="48.97381" lon="0.09003">
        <ele>177.51</ele>
        <time>2021-08-08T13:40:13Z</time>
      </trkpt>
      <trkpt lat="48.97382" lon="0.09011">
        <ele>176.93</ele>
        <time>2021-08-08T13:40:14Z</time>
      </trkpt>
      <trkpt lat="48.97383" lon="0.0902">
        <ele>176.37</ele>
        <time>2021-08-08T13:40:15Z</time>
      </trkpt>
      <trkpt lat="48.97383" lon="0.09028">
        <ele>175.81</ele>
        <time>2021-08-08T13:40:16Z</time>
      </trkpt>
      <trkpt lat="48.97384" lon="0.09038">
        <ele>175.13</ele>
        <time>2021-08-08T13:40:17Z</time>
      </trkpt>
      <trkpt lat="48.97385" lon="0.09048">
        <ele>174.45</ele>
        <time>2021-08-08T13:40:18Z</time>
      </trkpt>
      <trkpt lat="48.97386" lon="0.09059">
        <ele>173.84</ele>
        <time>2021-08-08T13:40:19Z</time>
      </trkpt>
      <trkpt lat="48.97387" lon="0.09069">
        <ele>173.5</ele>
        <time>2021-08-08T13:40:20Z</time>
      </trkpt>
      <trkpt lat="48.97389" lon="0.09078">
        <ele>173.28</ele>
        <time>2021-08-08T13:40:21Z</time>
      </trkpt>
      <trkpt lat="48.9739" lon="0.09084">
        <ele>173.09</ele>
        <time>2021-08-08T13:40:22Z</time>
      </trkpt>
      <trkpt lat="48.97391" lon="0.09092">
        <ele>172.85</ele>
        <time>2021-08-08T13:40:23Z</time>
      </trkpt>
      <trkpt lat="48.97393" lon="0.091">
        <ele>172.58</ele>
        <time>2021-08-08T13:40:24Z</time>
      </trkpt>
      <trkpt lat="48.97393" lon="0.09108">
        <ele>172.27</ele>
        <time>2021-08-08T13:40:25Z</time>
      </trkpt>
      <trkpt lat="48.97395" lon="0.09113">
        <ele>172.02</ele>
        <time>2021-08-08T13:40:26Z</time>
      </trkpt>
      <trkpt lat="48.97397" lon="0.09119">
        <ele>171.75</ele>
        <time>2021-08-08T13:40:27Z</time>
      </trkpt>
      <trkpt lat="48.97398" lon="0.09125">
        <ele>171.46</ele>
        <time>2021-08-08T13:40:28Z</time>
      </trkpt>
      <trkpt lat="48.97399" lon="0.0913">
        <ele>171.19</ele>
        <time>2021-08-08T13:40:29Z</time>
      </trkpt>
      <trkpt lat="48.97401" lon="0.09135">
        <ele>170.9</ele>
        <time>2021-08-08T13:40:30Z</time>
      </trkpt>
      <trkpt lat="48.97401" lon="0.09142">
        <ele>170.66</ele>
        <time>2021-08-08T13:40:31Z</time>
      </trkpt>
      <trkpt lat="48.97403" lon="0.09148">
        <ele>170.55</ele>
        <time>2021-08-08T13:40:32Z</time>
      </trkpt>
      <trkpt lat="48.97403" lon="0.09153">
        <ele>170.5</ele>
        <time>2021-08-08T13:40:33Z</time>
      </trkpt>
      <trkpt lat="48.97404" lon="0.0916">
        <ele>170.46</ele>
        <time>2021-08-08T13:40:34Z</time>
      </trkpt>
      <trkpt lat="48.97405" lon="0.09166">
        <ele>170.44</ele>
        <time>2021-08-08T13:40:35Z</time>
      </trkpt>
      <trkpt lat="48.97406" lon="0.09172">
        <ele>170.64</ele>
        <time>2021-08-08T13:40:36Z</time>
      </trkpt>
      <trkpt lat="48.97409" lon="0.09176">
        <ele>170.89</ele>
        <time>2021-08-08T13:40:37Z</time>
      </trkpt>
      <trkpt lat="48.97411" lon="0.0918">
        <ele>171.1</ele>
        <time>2021-08-08T13:40:38Z</time>
      </trkpt>
      <trkpt lat="48.97413" lon="0.09185">
        <ele>171.33</ele>
        <time>2021-08-08T13:40:39Z</time>
      </trkpt>
      <trkpt lat="48.97415" lon="0.09189">
        <ele>171.56</ele>
        <time>2021-08-08T13:40:40Z</time>
      </trkpt>
      <trkpt lat="48.97417" lon="0.09193">
        <ele>171.8</ele>
        <time>2021-08-08T13:40:41Z</time>
      </trkpt>
      <trkpt lat="48.97419" lon="0.09198">
        <ele>172.05</ele>
        <time>2021-08-08T13:40:42Z</time>
      </trkpt>
      <trkpt lat="48.97421" lon="0.09203">
        <ele>172.35</ele>
        <time>2021-08-08T13:40:43Z</time>
      </trkpt>
      <trkpt lat="48.97422" lon="0.09208">
        <ele>172.66</ele>
        <time>2021-08-08T13:40:44Z</time>
      </trkpt>
      <trkpt lat="48.97423" lon="0.09212">
        <ele>172.95</ele>
        <time>2021-08-08T13:40:45Z</time>
      </trkpt>
      <trkpt lat="48.97424" lon="0.09216">
        <ele>173.21</ele>
        <time>2021-08-08T13:40:46Z</time>
      </trkpt>
      <trkpt lat="48.97425" lon="0.09221">
        <ele>173.48</ele>
        <time>2021-08-08T13:40:47Z</time>
      </trkpt>
      <trkpt lat="48.97426" lon="0.09225">
        <ele>173.72</ele>
        <time>2021-08-08T13:40:48Z</time>
      </trkpt>
      <trkpt lat="48.97427" lon="0.0923">
        <ele>173.96</ele>
        <time>2021-08-08T13:40:49Z</time>
      </trkpt>
      <trkpt lat="48.97429" lon="0.09236">
        <ele>174.21</ele>
        <time>2021-08-08T13:40:50Z</time>
      </trkpt>
      <trkpt lat="48.9743" lon="0.0924">
        <ele>174.41</ele>
        <time>2021-08-08T13:40:51Z</time>
      </trkpt>
      <trkpt lat="48.97432" lon="0.09245">
        <ele>174.59</ele>
        <time>2021-08-08T13:40:52Z</time>
      </trkpt>
      <trkpt lat="48.97433" lon="0.09252">
        <ele>174.88</ele>
        <time>2021-08-08T13:40:53Z</time>
      </trkpt>
      <trkpt lat="48.97434" lon="0.09256">
        <ele>175.19</ele>
        <time>2021-08-08T13:40:54Z</time>
      </trkpt>
      <trkpt lat="48.97435" lon="0.09259">
        <ele>175.48</ele>
        <time>2021-08-08T13:40:55Z</time>
      </trkpt>
      <trkpt lat="48.97437" lon="0.09263">
        <ele>175.7</ele>
        <time>2021-08-08T13:40:56Z</time>
      </trkpt>
      <trkpt lat="48.9744" lon="0.09266">
        <ele>175.89</ele>
        <time>2021-08-08T13:40:57Z</time>
      </trkpt>
      <trkpt lat="48.97442" lon="0.09269">
        <ele>176.1</ele>
        <time>2021-08-08T13:40:58Z</time>
      </trkpt>
      <trkpt lat="48.97445" lon="0.09273">
        <ele>176.34</ele>
        <time>2021-08-08T13:40:59Z</time>
      </trkpt>
      <trkpt lat="48.97448" lon="0.09276">
        <ele>176.5</ele>
        <time>2021-08-08T13:41:00Z</time>
      </trkpt>
      <trkpt lat="48.9745" lon="0.09278">
        <ele>176.59</ele>
        <time>2021-08-08T13:41:01Z</time>
      </trkpt>
      <trkpt lat="48.97454" lon="0.09281">
        <ele>176.58</ele>
        <time>2021-08-08T13:41:02Z</time>
      </trkpt>
      <trkpt lat="48.97457" lon="0.09283">
        <ele>176.49</ele>
        <time>2021-08-08T13:41:03Z</time>
      </trkpt>
      <trkpt lat="48.97461" lon="0.09285">
        <ele>176.37</ele>
        <time>2021-08-08T13:41:04Z</time>
      </trkpt>
      <trkpt lat="48.97465" lon="0.09288">
        <ele>176.26</ele>
        <time>2021-08-08T13:41:05Z</time>
      </trkpt>
      <trkpt lat="48.97467" lon="0.09289">
        <ele>176.19</ele>
        <time>2021-08-08T13:41:06Z</time>
      </trkpt>
      <trkpt lat="48.97471" lon="0.09291">
        <ele>176.07</ele>
        <time>2021-08-08T13:41:07Z</time>
      </trkpt>
      <trkpt lat="48.97475" lon="0.09293">
        <ele>176</ele>
        <time>2021-08-08T13:41:08Z</time>
      </trkpt>
      <trkpt lat="48.97479" lon="0.09295">
        <ele>175.96</ele>
        <time>2021-08-08T13:41:09Z</time>
      </trkpt>
      <trkpt lat="48.97483" lon="0.09297">
        <ele>175.93</ele>
        <time>2021-08-08T13:41:10Z</time>
      </trkpt>
      <trkpt lat="48.97486" lon="0.09299">
        <ele>175.9</ele>
        <time>2021-08-08T13:41:11Z</time>
      </trkpt>
      <trkpt lat="48.9749" lon="0.093">
        <ele>175.88</ele>
        <time>2021-08-08T13:41:12Z</time>
      </trkpt>
      <trkpt lat="48.97494" lon="0.09302">
        <ele>175.9</ele>
        <time>2021-08-08T13:41:13Z</time>
      </trkpt>
      <trkpt lat="48.97497" lon="0.09305">
        <ele>176.04</ele>
        <time>2021-08-08T13:41:14Z</time>
      </trkpt>
      <trkpt lat="48.97501" lon="0.09308">
        <ele>176.13</ele>
        <time>2021-08-08T13:41:15Z</time>
      </trkpt>
      <trkpt lat="48.97505" lon="0.0931">
        <ele>176.13</ele>
        <time>2021-08-08T13:41:16Z</time>
      </trkpt>
      <trkpt lat="48.97509" lon="0.09312">
        <ele>176.06</ele>
        <time>2021-08-08T13:41:17Z</time>
      </trkpt>
      <trkpt lat="48.97513" lon="0.09313">
        <ele>175.96</ele>
        <time>2021-08-08T13:41:18Z</time>
      </trkpt>
      <trkpt lat="48.97517" lon="0.09315">
        <ele>175.88</ele>
        <time>2021-08-08T13:41:19Z</time>
      </trkpt>
      <trkpt lat="48.97521" lon="0.09317">
        <ele>175.81</ele>
        <time>2021-08-08T13:41:20Z</time>
      </trkpt>
      <trkpt lat="48.97524" lon="0.09319">
        <ele>175.74</ele>
        <time>2021-08-08T13:41:21Z</time>
      </trkpt>
      <trkpt lat="48.97528" lon="0.09321">
        <ele>175.67</ele>
        <time>2021-08-08T13:41:22Z</time>
      </trkpt>
      <trkpt lat="48.97532" lon="0.09324">
        <ele>175.71</ele>
        <time>2021-08-08T13:41:23Z</time>
      </trkpt>
      <trkpt lat="48.97535" lon="0.09325">
        <ele>175.75</ele>
        <time>2021-08-08T13:41:24Z</time>
      </trkpt>
      <trkpt lat="48.97539" lon="0.09327">
        <ele>175.81</ele>
        <time>2021-08-08T13:41:25Z</time>
      </trkpt>
      <trkpt lat="48.97543" lon="0.0933">
        <ele>175.92</ele>
        <time>2021-08-08T13:41:26Z</time>
      </trkpt>
      <trkpt lat="48.97548" lon="0.09333">
        <ele>176.1</ele>
        <time>2021-08-08T13:41:27Z</time>
      </trkpt>
      <trkpt lat="48.97554" lon="0.09336">
        <ele>176.23</ele>
        <time>2021-08-08T13:41:28Z</time>
      </trkpt>
      <trkpt lat="48.9756" lon="0.09339">
        <ele>176.19</ele>
        <time>2021-08-08T13:41:29Z</time>
      </trkpt>
      <trkpt lat="48.97564" lon="0.09343">
        <ele>176.17</ele>
        <time>2021-08-08T13:41:30Z</time>
      </trkpt>
      <trkpt lat="48.97569" lon="0.09344">
        <ele>176.06</ele>
        <time>2021-08-08T13:41:31Z</time>
      </trkpt>
      <trkpt lat="48.97574" lon="0.09345">
        <ele>175.87</ele>
        <time>2021-08-08T13:41:32Z</time>
      </trkpt>
      <trkpt lat="48.97579" lon="0.09345">
        <ele>175.61</ele>
        <time>2021-08-08T13:41:33Z</time>
      </trkpt>
      <trkpt lat="48.97584" lon="0.09346">
        <ele>175.41</ele>
        <time>2021-08-08T13:41:34Z</time>
      </trkpt>
      <trkpt lat="48.97589" lon="0.09347">
        <ele>175.22</ele>
        <time>2021-08-08T13:41:35Z</time>
      </trkpt>
      <trkpt lat="48.97592" lon="0.09346">
        <ele>175.01</ele>
        <time>2021-08-08T13:41:36Z</time>
      </trkpt>
      <trkpt lat="48.97594" lon="0.09346">
        <ele>174.86</ele>
        <time>2021-08-08T13:41:37Z</time>
      </trkpt>
      <trkpt lat="48.97597" lon="0.09345">
        <ele>174.67</ele>
        <time>2021-08-08T13:41:38Z</time>
      </trkpt>
      <trkpt lat="48.97599" lon="0.09345">
        <ele>174.49</ele>
        <time>2021-08-08T13:41:39Z</time>
      </trkpt>
      <trkpt lat="48.97603" lon="0.09344">
        <ele>174.29</ele>
        <time>2021-08-08T13:41:40Z</time>
      </trkpt>
      <trkpt lat="48.97606" lon="0.09343">
        <ele>174.06</ele>
        <time>2021-08-08T13:41:41Z</time>
      </trkpt>
      <trkpt lat="48.97609" lon="0.09342">
        <ele>173.83</ele>
        <time>2021-08-08T13:41:42Z</time>
      </trkpt>
      <trkpt lat="48.97612" lon="0.0934">
        <ele>173.6</ele>
        <time>2021-08-08T13:41:43Z</time>
      </trkpt>
      <trkpt lat="48.97614" lon="0.09339">
        <ele>173.38</ele>
        <time>2021-08-08T13:41:44Z</time>
      </trkpt>
      <trkpt lat="48.97617" lon="0.09338">
        <ele>173.19</ele>
        <time>2021-08-08T13:41:45Z</time>
      </trkpt>
      <trkpt lat="48.97621" lon="0.09337">
        <ele>173</ele>
        <time>2021-08-08T13:41:46Z</time>
      </trkpt>
      <trkpt lat="48.97624" lon="0.09336">
        <ele>172.81</ele>
        <time>2021-08-08T13:41:47Z</time>
      </trkpt>
      <trkpt lat="48.97629" lon="0.09336">
        <ele>172.63</ele>
        <time>2021-08-08T13:41:48Z</time>
      </trkpt>
      <trkpt lat="48.97634" lon="0.09337">
        <ele>172.5</ele>
        <time>2021-08-08T13:41:49Z</time>
      </trkpt>
      <trkpt lat="48.9764" lon="0.09338">
        <ele>172.33</ele>
        <time>2021-08-08T13:41:50Z</time>
      </trkpt>
      <trkpt lat="48.97646" lon="0.0934">
        <ele>172.05</ele>
        <time>2021-08-08T13:41:51Z</time>
      </trkpt>
      <trkpt lat="48.97652" lon="0.0934">
        <ele>171.72</ele>
        <time>2021-08-08T13:41:52Z</time>
      </trkpt>
      <trkpt lat="48.97658" lon="0.0934">
        <ele>171.32</ele>
        <time>2021-08-08T13:41:53Z</time>
      </trkpt>
      <trkpt lat="48.97663" lon="0.0934">
        <ele>170.89</ele>
        <time>2021-08-08T13:41:54Z</time>
      </trkpt>
      <trkpt lat="48.97669" lon="0.09339">
        <ele>170.44</ele>
        <time>2021-08-08T13:41:55Z</time>
      </trkpt>
      <trkpt lat="48.97675" lon="0.09339">
        <ele>170.04</ele>
        <time>2021-08-08T13:41:56Z</time>
      </trkpt>
      <trkpt lat="48.9768" lon="0.0934">
        <ele>169.7</ele>
        <time>2021-08-08T13:41:57Z</time>
      </trkpt>
      <trkpt lat="48.97685" lon="0.09342">
        <ele>169.41</ele>
        <time>2021-08-08T13:41:58Z</time>
      </trkpt>
      <trkpt lat="48.9769" lon="0.09343">
        <ele>169.17</ele>
        <time>2021-08-08T13:41:59Z</time>
      </trkpt>
      <trkpt lat="48.97695" lon="0.09345">
        <ele>168.95</ele>
        <time>2021-08-08T13:42:00Z</time>
      </trkpt>
      <trkpt lat="48.977" lon="0.09347">
        <ele>168.85</ele>
        <time>2021-08-08T13:42:01Z</time>
      </trkpt>
      <trkpt lat="48.97705" lon="0.09349">
        <ele>168.77</ele>
        <time>2021-08-08T13:42:02Z</time>
      </trkpt>
      <trkpt lat="48.9771" lon="0.0935">
        <ele>168.68</ele>
        <time>2021-08-08T13:42:03Z</time>
      </trkpt>
      <trkpt lat="48.97714" lon="0.09351">
        <ele>168.58</ele>
        <time>2021-08-08T13:42:04Z</time>
      </trkpt>
      <trkpt lat="48.97718" lon="0.09352">
        <ele>168.51</ele>
        <time>2021-08-08T13:42:05Z</time>
      </trkpt>
      <trkpt lat="48.97721" lon="0.09354">
        <ele>168.5</ele>
        <time>2021-08-08T13:42:06Z</time>
      </trkpt>
      <trkpt lat="48.97724" lon="0.09355">
        <ele>168.44</ele>
        <time>2021-08-08T13:42:07Z</time>
      </trkpt>
      <trkpt lat="48.97727" lon="0.09356">
        <ele>168.33</ele>
        <time>2021-08-08T13:42:08Z</time>
      </trkpt>
      <trkpt lat="48.97731" lon="0.09358">
        <ele>168.18</ele>
        <time>2021-08-08T13:42:09Z</time>
      </trkpt>
      <trkpt lat="48.97734" lon="0.09359">
        <ele>168.05</ele>
        <time>2021-08-08T13:42:10Z</time>
      </trkpt>
      <trkpt lat="48.97736" lon="0.09359">
        <ele>167.92</ele>
        <time>2021-08-08T13:42:11Z</time>
      </trkpt>
      <trkpt lat="48.97738" lon="0.0936">
        <ele>167.82</ele>
        <time>2021-08-08T13:42:12Z</time>
      </trkpt>
      <trkpt lat="48.97741" lon="0.09361">
        <ele>167.7</ele>
        <time>2021-08-08T13:42:13Z</time>
      </trkpt>
      <trkpt lat="48.97743" lon="0.09361">
        <ele>167.57</ele>
        <time>2021-08-08T13:42:14Z</time>
      </trkpt>
      <trkpt lat="48.97745" lon="0.09362">
        <ele>167.48</ele>
        <time>2021-08-08T13:42:15Z</time>
      </trkpt>
      <trkpt lat="48.97748" lon="0.09362">
        <ele>167.33</ele>
        <time>2021-08-08T13:42:16Z</time>
      </trkpt>
      <trkpt lat="48.97751" lon="0.09363">
        <ele>167.18</ele>
        <time>2021-08-08T13:42:17Z</time>
      </trkpt>
      <trkpt lat="48.97754" lon="0.09363">
        <ele>167.12</ele>
        <time>2021-08-08T13:42:18Z</time>
      </trkpt>
      <trkpt lat="48.97756" lon="0.09364">
        <ele>167.13</ele>
        <time>2021-08-08T13:42:19Z</time>
      </trkpt>
      <trkpt lat="48.97758" lon="0.09366">
        <ele>167.17</ele>
        <time>2021-08-08T13:42:20Z</time>
      </trkpt>
      <trkpt lat="48.9776" lon="0.09367">
        <ele>167.21</ele>
        <time>2021-08-08T13:42:21Z</time>
      </trkpt>
      <trkpt lat="48.97762" lon="0.09368">
        <ele>167.3</ele>
        <time>2021-08-08T13:42:22Z</time>
      </trkpt>
      <trkpt lat="48.97768" lon="0.09369">
        <ele>167.25</ele>
        <time>2021-08-08T13:42:23Z</time>
      </trkpt>
      <trkpt lat="48.97771" lon="0.0937">
        <ele>167.17</ele>
        <time>2021-08-08T13:42:24Z</time>
      </trkpt>
      <trkpt lat="48.97774" lon="0.0937">
        <ele>167.15</ele>
        <time>2021-08-08T13:42:25Z</time>
      </trkpt>
      <trkpt lat="48.97777" lon="0.09372">
        <ele>167.22</ele>
        <time>2021-08-08T13:42:26Z</time>
      </trkpt>
      <trkpt lat="48.9778" lon="0.09374">
        <ele>167.32</ele>
        <time>2021-08-08T13:42:27Z</time>
      </trkpt>
      <trkpt lat="48.97782" lon="0.09377">
        <ele>167.54</ele>
        <time>2021-08-08T13:42:28Z</time>
      </trkpt>
      <trkpt lat="48.97786" lon="0.09381">
        <ele>167.76</ele>
        <time>2021-08-08T13:42:30Z</time>
      </trkpt>
      <trkpt lat="48.97789" lon="0.09383">
        <ele>167.94</ele>
        <time>2021-08-08T13:42:31Z</time>
      </trkpt>
      <trkpt lat="48.97793" lon="0.09386">
        <ele>168.07</ele>
        <time>2021-08-08T13:42:32Z</time>
      </trkpt>
      <trkpt lat="48.97795" lon="0.09388">
        <ele>168.24</ele>
        <time>2021-08-08T13:42:33Z</time>
      </trkpt>
      <trkpt lat="48.97799" lon="0.09391">
        <ele>168.4</ele>
        <time>2021-08-08T13:42:34Z</time>
      </trkpt>
      <trkpt lat="48.97802" lon="0.09392">
        <ele>168.44</ele>
        <time>2021-08-08T13:42:35Z</time>
      </trkpt>
      <trkpt lat="48.97806" lon="0.09393">
        <ele>168.42</ele>
        <time>2021-08-08T13:42:36Z</time>
      </trkpt>
      <trkpt lat="48.9781" lon="0.09395">
        <ele>168.34</ele>
        <time>2021-08-08T13:42:37Z</time>
      </trkpt>
      <trkpt lat="48.97815" lon="0.09399">
        <ele>168.4</ele>
        <time>2021-08-08T13:42:38Z</time>
      </trkpt>
      <trkpt lat="48.97818" lon="0.09402">
        <ele>168.46</ele>
        <time>2021-08-08T13:42:39Z</time>
      </trkpt>
      <trkpt lat="48.97821" lon="0.09403">
        <ele>168.4</ele>
        <time>2021-08-08T13:42:40Z</time>
      </trkpt>
      <trkpt lat="48.97824" lon="0.09404">
        <ele>168.38</ele>
        <time>2021-08-08T13:42:41Z</time>
      </trkpt>
      <trkpt lat="48.97827" lon="0.09407">
        <ele>168.41</ele>
        <time>2021-08-08T13:42:42Z</time>
      </trkpt>
      <trkpt lat="48.97831" lon="0.0941">
        <ele>168.44</ele>
        <time>2021-08-08T13:42:43Z</time>
      </trkpt>
      <trkpt lat="48.97834" lon="0.09412">
        <ele>168.47</ele>
        <time>2021-08-08T13:42:44Z</time>
      </trkpt>
      <trkpt lat="48.97838" lon="0.09414">
        <ele>168.54</ele>
        <time>2021-08-08T13:42:45Z</time>
      </trkpt>
      <trkpt lat="48.97842" lon="0.09417">
        <ele>168.66</ele>
        <time>2021-08-08T13:42:46Z</time>
      </trkpt>
      <trkpt lat="48.97847" lon="0.09421">
        <ele>168.82</ele>
        <time>2021-08-08T13:42:47Z</time>
      </trkpt>
      <trkpt lat="48.97852" lon="0.09425">
        <ele>168.96</ele>
        <time>2021-08-08T13:42:48Z</time>
      </trkpt>
      <trkpt lat="48.97856" lon="0.09427">
        <ele>168.99</ele>
        <time>2021-08-08T13:42:49Z</time>
      </trkpt>
      <trkpt lat="48.97861" lon="0.0943">
        <ele>169.01</ele>
        <time>2021-08-08T13:42:50Z</time>
      </trkpt>
      <trkpt lat="48.97865" lon="0.09433">
        <ele>168.96</ele>
        <time>2021-08-08T13:42:51Z</time>
      </trkpt>
      <trkpt lat="48.97869" lon="0.09436">
        <ele>168.84</ele>
        <time>2021-08-08T13:42:52Z</time>
      </trkpt>
      <trkpt lat="48.97875" lon="0.09439">
        <ele>168.71</ele>
        <time>2021-08-08T13:42:53Z</time>
      </trkpt>
      <trkpt lat="48.9788" lon="0.09442">
        <ele>168.5</ele>
        <time>2021-08-08T13:42:54Z</time>
      </trkpt>
      <trkpt lat="48.97888" lon="0.09445">
        <ele>168.23</ele>
        <time>2021-08-08T13:42:55Z</time>
      </trkpt>
      <trkpt lat="48.97895" lon="0.0945">
        <ele>168.08</ele>
        <time>2021-08-08T13:42:56Z</time>
      </trkpt>
      <trkpt lat="48.979" lon="0.09455">
        <ele>168</ele>
        <time>2021-08-08T13:42:57Z</time>
      </trkpt>
      <trkpt lat="48.97904" lon="0.0946">
        <ele>167.99</ele>
        <time>2021-08-08T13:42:58Z</time>
      </trkpt>
      <trkpt lat="48.97908" lon="0.09462">
        <ele>167.96</ele>
        <time>2021-08-08T13:42:59Z</time>
      </trkpt>
      <trkpt lat="48.97914" lon="0.09468">
        <ele>167.93</ele>
        <time>2021-08-08T13:43:00Z</time>
      </trkpt>
      <trkpt lat="48.9792" lon="0.09472">
        <ele>167.87</ele>
        <time>2021-08-08T13:43:01Z</time>
      </trkpt>
      <trkpt lat="48.97926" lon="0.09474">
        <ele>167.86</ele>
        <time>2021-08-08T13:43:02Z</time>
      </trkpt>
      <trkpt lat="48.97932" lon="0.09475">
        <ele>167.75</ele>
        <time>2021-08-08T13:43:03Z</time>
      </trkpt>
      <trkpt lat="48.97938" lon="0.09477">
        <ele>167.66</ele>
        <time>2021-08-08T13:43:04Z</time>
      </trkpt>
      <trkpt lat="48.97943" lon="0.09477">
        <ele>167.48</ele>
        <time>2021-08-08T13:43:05Z</time>
      </trkpt>
      <trkpt lat="48.97948" lon="0.09477">
        <ele>167.18</ele>
        <time>2021-08-08T13:43:06Z</time>
      </trkpt>
      <trkpt lat="48.97954" lon="0.09477">
        <ele>166.88</ele>
        <time>2021-08-08T13:43:07Z</time>
      </trkpt>
      <trkpt lat="48.97959" lon="0.09478">
        <ele>166.6</ele>
        <time>2021-08-08T13:43:08Z</time>
      </trkpt>
      <trkpt lat="48.97964" lon="0.09478">
        <ele>166.29</ele>
        <time>2021-08-08T13:43:09Z</time>
      </trkpt>
      <trkpt lat="48.97971" lon="0.09479">
        <ele>165.93</ele>
        <time>2021-08-08T13:43:10Z</time>
      </trkpt>
      <trkpt lat="48.97977" lon="0.09479">
        <ele>165.7</ele>
        <time>2021-08-08T13:43:11Z</time>
      </trkpt>
      <trkpt lat="48.97983" lon="0.0948">
        <ele>165.52</ele>
        <time>2021-08-08T13:43:12Z</time>
      </trkpt>
      <trkpt lat="48.97989" lon="0.0948">
        <ele>165.34</ele>
        <time>2021-08-08T13:43:13Z</time>
      </trkpt>
      <trkpt lat="48.97994" lon="0.0948">
        <ele>165.14</ele>
        <time>2021-08-08T13:43:14Z</time>
      </trkpt>
      <trkpt lat="48.98" lon="0.09481">
        <ele>165.01</ele>
        <time>2021-08-08T13:43:15Z</time>
      </trkpt>
      <trkpt lat="48.98004" lon="0.09483">
        <ele>164.99</ele>
        <time>2021-08-08T13:43:16Z</time>
      </trkpt>
      <trkpt lat="48.98009" lon="0.09485">
        <ele>165.02</ele>
        <time>2021-08-08T13:43:17Z</time>
      </trkpt>
      <trkpt lat="48.98014" lon="0.09487">
        <ele>165.06</ele>
        <time>2021-08-08T13:43:18Z</time>
      </trkpt>
      <trkpt lat="48.98017" lon="0.09488">
        <ele>165.12</ele>
        <time>2021-08-08T13:43:19Z</time>
      </trkpt>
      <trkpt lat="48.98021" lon="0.0949">
        <ele>165.15</ele>
        <time>2021-08-08T13:43:20Z</time>
      </trkpt>
      <trkpt lat="48.98025" lon="0.09489">
        <ele>164.95</ele>
        <time>2021-08-08T13:43:21Z</time>
      </trkpt>
      <trkpt lat="48.98031" lon="0.09487">
        <ele>164.64</ele>
        <time>2021-08-08T13:43:22Z</time>
      </trkpt>
      <trkpt lat="48.98037" lon="0.09485">
        <ele>164.26</ele>
        <time>2021-08-08T13:43:23Z</time>
      </trkpt>
      <trkpt lat="48.98043" lon="0.09484">
        <ele>163.87</ele>
        <time>2021-08-08T13:43:24Z</time>
      </trkpt>
      <trkpt lat="48.98049" lon="0.09484">
        <ele>163.58</ele>
        <time>2021-08-08T13:43:25Z</time>
      </trkpt>
      <trkpt lat="48.98054" lon="0.09484">
        <ele>163.38</ele>
        <time>2021-08-08T13:43:26Z</time>
      </trkpt>
      <trkpt lat="48.98059" lon="0.09485">
        <ele>163.26</ele>
        <time>2021-08-08T13:43:27Z</time>
      </trkpt>
      <trkpt lat="48.98063" lon="0.09486">
        <ele>163.2</ele>
        <time>2021-08-08T13:43:28Z</time>
      </trkpt>
      <trkpt lat="48.98067" lon="0.09486">
        <ele>163.13</ele>
        <time>2021-08-08T13:43:29Z</time>
      </trkpt>
      <trkpt lat="48.98072" lon="0.09488">
        <ele>163.11</ele>
        <time>2021-08-08T13:43:30Z</time>
      </trkpt>
      <trkpt lat="48.98075" lon="0.09488">
        <ele>163.06</ele>
        <time>2021-08-08T13:43:31Z</time>
      </trkpt>
      <trkpt lat="48.98079" lon="0.0949">
        <ele>163.06</ele>
        <time>2021-08-08T13:43:32Z</time>
      </trkpt>
      <trkpt lat="48.98084" lon="0.09492">
        <ele>163.06</ele>
        <time>2021-08-08T13:43:33Z</time>
      </trkpt>
      <trkpt lat="48.98089" lon="0.09493">
        <ele>162.96</ele>
        <time>2021-08-08T13:43:34Z</time>
      </trkpt>
      <trkpt lat="48.98094" lon="0.09496">
        <ele>162.92</ele>
        <time>2021-08-08T13:43:35Z</time>
      </trkpt>
      <trkpt lat="48.98098" lon="0.09499">
        <ele>162.87</ele>
        <time>2021-08-08T13:43:36Z</time>
      </trkpt>
      <trkpt lat="48.98102" lon="0.09501">
        <ele>162.79</ele>
        <time>2021-08-08T13:43:37Z</time>
      </trkpt>
      <trkpt lat="48.98106" lon="0.09504">
        <ele>162.7</ele>
        <time>2021-08-08T13:43:38Z</time>
      </trkpt>
      <trkpt lat="48.98111" lon="0.09507">
        <ele>162.6</ele>
        <time>2021-08-08T13:43:39Z</time>
      </trkpt>
      <trkpt lat="48.98114" lon="0.09509">
        <ele>162.55</ele>
        <time>2021-08-08T13:43:40Z</time>
      </trkpt>
      <trkpt lat="48.98117" lon="0.0951">
        <ele>162.5</ele>
        <time>2021-08-08T13:43:41Z</time>
      </trkpt>
      <trkpt lat="48.98122" lon="0.09514">
        <ele>162.6</ele>
        <time>2021-08-08T13:43:42Z</time>
      </trkpt>
      <trkpt lat="48.98127" lon="0.09519">
        <ele>162.75</ele>
        <time>2021-08-08T13:43:43Z</time>
      </trkpt>
      <trkpt lat="48.98131" lon="0.09524">
        <ele>162.91</ele>
        <time>2021-08-08T13:43:44Z</time>
      </trkpt>
      <trkpt lat="48.98136" lon="0.09527">
        <ele>163.03</ele>
        <time>2021-08-08T13:43:45Z</time>
      </trkpt>
      <trkpt lat="48.98141" lon="0.09531">
        <ele>163.19</ele>
        <time>2021-08-08T13:43:46Z</time>
      </trkpt>
      <trkpt lat="48.98147" lon="0.09535">
        <ele>163.4</ele>
        <time>2021-08-08T13:43:47Z</time>
      </trkpt>
      <trkpt lat="48.98151" lon="0.09537">
        <ele>163.54</ele>
        <time>2021-08-08T13:43:48Z</time>
      </trkpt>
      <trkpt lat="48.98155" lon="0.0954">
        <ele>163.65</ele>
        <time>2021-08-08T13:43:49Z</time>
      </trkpt>
      <trkpt lat="48.98159" lon="0.09541">
        <ele>163.68</ele>
        <time>2021-08-08T13:43:50Z</time>
      </trkpt>
      <trkpt lat="48.98164" lon="0.09544">
        <ele>163.78</ele>
        <time>2021-08-08T13:43:51Z</time>
      </trkpt>
      <trkpt lat="48.98169" lon="0.09546">
        <ele>163.8</ele>
        <time>2021-08-08T13:43:52Z</time>
      </trkpt>
      <trkpt lat="48.98174" lon="0.09548">
        <ele>163.74</ele>
        <time>2021-08-08T13:43:53Z</time>
      </trkpt>
      <trkpt lat="48.9818" lon="0.09549">
        <ele>163.54</ele>
        <time>2021-08-08T13:43:54Z</time>
      </trkpt>
      <trkpt lat="48.98185" lon="0.09551">
        <ele>163.35</ele>
        <time>2021-08-08T13:43:55Z</time>
      </trkpt>
      <trkpt lat="48.9819" lon="0.09554">
        <ele>163.2</ele>
        <time>2021-08-08T13:43:56Z</time>
      </trkpt>
      <trkpt lat="48.98196" lon="0.09556">
        <ele>163</ele>
        <time>2021-08-08T13:43:57Z</time>
      </trkpt>
      <trkpt lat="48.98202" lon="0.09559">
        <ele>162.81</ele>
        <time>2021-08-08T13:43:58Z</time>
      </trkpt>
      <trkpt lat="48.98207" lon="0.09562">
        <ele>162.69</ele>
        <time>2021-08-08T13:43:59Z</time>
      </trkpt>
      <trkpt lat="48.98212" lon="0.09564">
        <ele>162.6</ele>
        <time>2021-08-08T13:44:00Z</time>
      </trkpt>
      <trkpt lat="48.98216" lon="0.09567">
        <ele>162.55</ele>
        <time>2021-08-08T13:44:01Z</time>
      </trkpt>
      <trkpt lat="48.98221" lon="0.09569">
        <ele>162.52</ele>
        <time>2021-08-08T13:44:02Z</time>
      </trkpt>
      <trkpt lat="48.98225" lon="0.09572">
        <ele>162.53</ele>
        <time>2021-08-08T13:44:03Z</time>
      </trkpt>
      <trkpt lat="48.98229" lon="0.09574">
        <ele>162.53</ele>
        <time>2021-08-08T13:44:04Z</time>
      </trkpt>
      <trkpt lat="48.98235" lon="0.09578">
        <ele>162.53</ele>
        <time>2021-08-08T13:44:05Z</time>
      </trkpt>
      <trkpt lat="48.98239" lon="0.0958">
        <ele>162.52</ele>
        <time>2021-08-08T13:44:06Z</time>
      </trkpt>
      <trkpt lat="48.98243" lon="0.09583">
        <ele>162.49</ele>
        <time>2021-08-08T13:44:07Z</time>
      </trkpt>
      <trkpt lat="48.98247" lon="0.09587">
        <ele>162.5</ele>
        <time>2021-08-08T13:44:08Z</time>
      </trkpt>
      <trkpt lat="48.98252" lon="0.0959">
        <ele>162.55</ele>
        <time>2021-08-08T13:44:09Z</time>
      </trkpt>
      <trkpt lat="48.98256" lon="0.09592">
        <ele>162.51</ele>
        <time>2021-08-08T13:44:10Z</time>
      </trkpt>
      <trkpt lat="48.98262" lon="0.09597">
        <ele>162.57</ele>
        <time>2021-08-08T13:44:11Z</time>
      </trkpt>
      <trkpt lat="48.98267" lon="0.09601">
        <ele>162.62</ele>
        <time>2021-08-08T13:44:12Z</time>
      </trkpt>
      <trkpt lat="48.98273" lon="0.09605">
        <ele>162.68</ele>
        <time>2021-08-08T13:44:13Z</time>
      </trkpt>
      <trkpt lat="48.98279" lon="0.0961">
        <ele>162.77</ele>
        <time>2021-08-08T13:44:14Z</time>
      </trkpt>
      <trkpt lat="48.98283" lon="0.09613">
        <ele>162.76</ele>
        <time>2021-08-08T13:44:15Z</time>
      </trkpt>
      <trkpt lat="48.98289" lon="0.09617">
        <ele>162.64</ele>
        <time>2021-08-08T13:44:16Z</time>
      </trkpt>
      <trkpt lat="48.98296" lon="0.09621">
        <ele>162.45</ele>
        <time>2021-08-08T13:44:17Z</time>
      </trkpt>
      <trkpt lat="48.98302" lon="0.09624">
        <ele>162.23</ele>
        <time>2021-08-08T13:44:18Z</time>
      </trkpt>
      <trkpt lat="48.98308" lon="0.09627">
        <ele>162.01</ele>
        <time>2021-08-08T13:44:19Z</time>
      </trkpt>
      <trkpt lat="48.98313" lon="0.09629">
        <ele>161.81</ele>
        <time>2021-08-08T13:44:20Z</time>
      </trkpt>
      <trkpt lat="48.98317" lon="0.0963">
        <ele>161.65</ele>
        <time>2021-08-08T13:44:21Z</time>
      </trkpt>
      <trkpt lat="48.98322" lon="0.09634">
        <ele>161.51</ele>
        <time>2021-08-08T13:44:22Z</time>
      </trkpt>
      <trkpt lat="48.98328" lon="0.09637">
        <ele>161.36</ele>
        <time>2021-08-08T13:44:23Z</time>
      </trkpt>
      <trkpt lat="48.98333" lon="0.0964">
        <ele>161.18</ele>
        <time>2021-08-08T13:44:24Z</time>
      </trkpt>
      <trkpt lat="48.98339" lon="0.09644">
        <ele>161.03</ele>
        <time>2021-08-08T13:44:25Z</time>
      </trkpt>
      <trkpt lat="48.98344" lon="0.09648">
        <ele>160.93</ele>
        <time>2021-08-08T13:44:26Z</time>
      </trkpt>
      <trkpt lat="48.98349" lon="0.09652">
        <ele>160.84</ele>
        <time>2021-08-08T13:44:27Z</time>
      </trkpt>
      <trkpt lat="48.98355" lon="0.09656">
        <ele>160.72</ele>
        <time>2021-08-08T13:44:28Z</time>
      </trkpt>
      <trkpt lat="48.98361" lon="0.09659">
        <ele>160.58</ele>
        <time>2021-08-08T13:44:29Z</time>
      </trkpt>
      <trkpt lat="48.98365" lon="0.09662">
        <ele>160.42</ele>
        <time>2021-08-08T13:44:30Z</time>
      </trkpt>
      <trkpt lat="48.98368" lon="0.09663">
        <ele>160.26</ele>
        <time>2021-08-08T13:44:31Z</time>
      </trkpt>
      <trkpt lat="48.98373" lon="0.09664">
        <ele>160.05</ele>
        <time>2021-08-08T13:44:32Z</time>
      </trkpt>
      <trkpt lat="48.98377" lon="0.09665">
        <ele>159.8</ele>
        <time>2021-08-08T13:44:33Z</time>
      </trkpt>
      <trkpt lat="48.98381" lon="0.09665">
        <ele>159.52</ele>
        <time>2021-08-08T13:44:34Z</time>
      </trkpt>
      <trkpt lat="48.98385" lon="0.09665">
        <ele>159.26</ele>
        <time>2021-08-08T13:44:35Z</time>
      </trkpt>
      <trkpt lat="48.98388" lon="0.09665">
        <ele>158.99</ele>
        <time>2021-08-08T13:44:36Z</time>
      </trkpt>
      <trkpt lat="48.98392" lon="0.09666">
        <ele>158.78</ele>
        <time>2021-08-08T13:44:37Z</time>
      </trkpt>
      <trkpt lat="48.98397" lon="0.09668">
        <ele>158.57</ele>
        <time>2021-08-08T13:44:38Z</time>
      </trkpt>
      <trkpt lat="48.98403" lon="0.09667">
        <ele>158.21</ele>
        <time>2021-08-08T13:44:39Z</time>
      </trkpt>
      <trkpt lat="48.98409" lon="0.09666">
        <ele>157.71</ele>
        <time>2021-08-08T13:44:40Z</time>
      </trkpt>
      <trkpt lat="48.98415" lon="0.09662">
        <ele>156.97</ele>
        <time>2021-08-08T13:44:41Z</time>
      </trkpt>
      <trkpt lat="48.98421" lon="0.0966">
        <ele>156.19</ele>
        <time>2021-08-08T13:44:42Z</time>
      </trkpt>
      <trkpt lat="48.98428" lon="0.0966">
        <ele>155.44</ele>
        <time>2021-08-08T13:44:43Z</time>
      </trkpt>
      <trkpt lat="48.98435" lon="0.0966">
        <ele>154.77</ele>
        <time>2021-08-08T13:44:44Z</time>
      </trkpt>
      <trkpt lat="48.98442" lon="0.09662">
        <ele>154.16</ele>
        <time>2021-08-08T13:44:45Z</time>
      </trkpt>
      <trkpt lat="48.98447" lon="0.09662">
        <ele>153.75</ele>
        <time>2021-08-08T13:44:46Z</time>
      </trkpt>
      <trkpt lat="48.98453" lon="0.09664">
        <ele>153.55</ele>
        <time>2021-08-08T13:44:47Z</time>
      </trkpt>
      <trkpt lat="48.98459" lon="0.09664">
        <ele>153.37</ele>
        <time>2021-08-08T13:44:48Z</time>
      </trkpt>
      <trkpt lat="48.98465" lon="0.09666">
        <ele>153.28</ele>
        <time>2021-08-08T13:44:49Z</time>
      </trkpt>
      <trkpt lat="48.98472" lon="0.09669">
        <ele>153.15</ele>
        <time>2021-08-08T13:44:50Z</time>
      </trkpt>
      <trkpt lat="48.98478" lon="0.09671">
        <ele>152.84</ele>
        <time>2021-08-08T13:44:51Z</time>
      </trkpt>
      <trkpt lat="48.98485" lon="0.09675">
        <ele>152.42</ele>
        <time>2021-08-08T13:44:52Z</time>
      </trkpt>
      <trkpt lat="48.9849" lon="0.09679">
        <ele>152.04</ele>
        <time>2021-08-08T13:44:53Z</time>
      </trkpt>
      <trkpt lat="48.98495" lon="0.09684">
        <ele>151.64</ele>
        <time>2021-08-08T13:44:54Z</time>
      </trkpt>
      <trkpt lat="48.985" lon="0.09688">
        <ele>151.18</ele>
        <time>2021-08-08T13:44:55Z</time>
      </trkpt>
      <trkpt lat="48.98505" lon="0.09693">
        <ele>150.81</ele>
        <time>2021-08-08T13:44:56Z</time>
      </trkpt>
      <trkpt lat="48.98509" lon="0.09697">
        <ele>150.53</ele>
        <time>2021-08-08T13:44:57Z</time>
      </trkpt>
      <trkpt lat="48.98514" lon="0.097">
        <ele>150.21</ele>
        <time>2021-08-08T13:44:58Z</time>
      </trkpt>
      <trkpt lat="48.98518" lon="0.09703">
        <ele>149.93</ele>
        <time>2021-08-08T13:44:59Z</time>
      </trkpt>
      <trkpt lat="48.98522" lon="0.09705">
        <ele>149.65</ele>
        <time>2021-08-08T13:45:00Z</time>
      </trkpt>
      <trkpt lat="48.98524" lon="0.09707">
        <ele>149.42</ele>
        <time>2021-08-08T13:45:01Z</time>
      </trkpt>
      <trkpt lat="48.98527" lon="0.09706">
        <ele>149.19</ele>
        <time>2021-08-08T13:45:02Z</time>
      </trkpt>
      <trkpt lat="48.98529" lon="0.09705">
        <ele>149.03</ele>
        <time>2021-08-08T13:45:03Z</time>
      </trkpt>
      <trkpt lat="48.98532" lon="0.09704">
        <ele>148.92</ele>
        <time>2021-08-08T13:45:04Z</time>
      </trkpt>
      <trkpt lat="48.98535" lon="0.09705">
        <ele>148.79</ele>
        <time>2021-08-08T13:45:05Z</time>
      </trkpt>
      <trkpt lat="48.98539" lon="0.09707">
        <ele>148.66</ele>
        <time>2021-08-08T13:45:06Z</time>
      </trkpt>
      <trkpt lat="48.98542" lon="0.09707">
        <ele>148.54</ele>
        <time>2021-08-08T13:45:07Z</time>
      </trkpt>
      <trkpt lat="48.98544" lon="0.09708">
        <ele>148.44</ele>
        <time>2021-08-08T13:45:08Z</time>
      </trkpt>
      <trkpt lat="48.98547" lon="0.09711">
        <ele>148.34</ele>
        <time>2021-08-08T13:45:09Z</time>
      </trkpt>
      <trkpt lat="48.98551" lon="0.09715">
        <ele>148.22</ele>
        <time>2021-08-08T13:45:10Z</time>
      </trkpt>
      <trkpt lat="48.98553" lon="0.09718">
        <ele>148.13</ele>
        <time>2021-08-08T13:45:11Z</time>
      </trkpt>
      <trkpt lat="48.98555" lon="0.0972">
        <ele>148.05</ele>
        <time>2021-08-08T13:45:12Z</time>
      </trkpt>
      <trkpt lat="48.98556" lon="0.09722">
        <ele>148.02</ele>
        <time>2021-08-08T13:45:13Z</time>
      </trkpt>
      <trkpt lat="48.98559" lon="0.09725">
        <ele>148.13</ele>
        <time>2021-08-08T13:45:14Z</time>
      </trkpt>
      <trkpt lat="48.98562" lon="0.09726">
        <ele>148.22</ele>
        <time>2021-08-08T13:45:15Z</time>
      </trkpt>
      <trkpt lat="48.98565" lon="0.09728">
        <ele>148.32</ele>
        <time>2021-08-08T13:45:16Z</time>
      </trkpt>
      <trkpt lat="48.98568" lon="0.0973">
        <ele>148.41</ele>
        <time>2021-08-08T13:45:17Z</time>
      </trkpt>
      <trkpt lat="48.98572" lon="0.09732">
        <ele>148.47</ele>
        <time>2021-08-08T13:45:18Z</time>
      </trkpt>
      <trkpt lat="48.98577" lon="0.09734">
        <ele>148.52</ele>
        <time>2021-08-08T13:45:19Z</time>
      </trkpt>
      <trkpt lat="48.98579" lon="0.09736">
        <ele>148.56</ele>
        <time>2021-08-08T13:45:20Z</time>
      </trkpt>
      <trkpt lat="48.98583" lon="0.09739">
        <ele>148.6</ele>
        <time>2021-08-08T13:45:21Z</time>
      </trkpt>
      <trkpt lat="48.98587" lon="0.09743">
        <ele>148.71</ele>
        <time>2021-08-08T13:45:22Z</time>
      </trkpt>
      <trkpt lat="48.98592" lon="0.09747">
        <ele>148.85</ele>
        <time>2021-08-08T13:45:23Z</time>
      </trkpt>
      <trkpt lat="48.98594" lon="0.0975">
        <ele>148.95</ele>
        <time>2021-08-08T13:45:24Z</time>
      </trkpt>
      <trkpt lat="48.98597" lon="0.09752">
        <ele>149.08</ele>
        <time>2021-08-08T13:45:25Z</time>
      </trkpt>
      <trkpt lat="48.98602" lon="0.09756">
        <ele>149.33</ele>
        <time>2021-08-08T13:45:26Z</time>
      </trkpt>
      <trkpt lat="48.98606" lon="0.09758">
        <ele>149.53</ele>
        <time>2021-08-08T13:45:27Z</time>
      </trkpt>
      <trkpt lat="48.98609" lon="0.09759">
        <ele>149.62</ele>
        <time>2021-08-08T13:45:28Z</time>
      </trkpt>
      <trkpt lat="48.98613" lon="0.0976">
        <ele>149.68</ele>
        <time>2021-08-08T13:45:29Z</time>
      </trkpt>
      <trkpt lat="48.98616" lon="0.0976">
        <ele>149.72</ele>
        <time>2021-08-08T13:45:30Z</time>
      </trkpt>
      <trkpt lat="48.9862" lon="0.0976">
        <ele>149.8</ele>
        <time>2021-08-08T13:45:31Z</time>
      </trkpt>
      <trkpt lat="48.98624" lon="0.09761">
        <ele>149.86</ele>
        <time>2021-08-08T13:45:32Z</time>
      </trkpt>
      <trkpt lat="48.98627" lon="0.09762">
        <ele>149.91</ele>
        <time>2021-08-08T13:45:33Z</time>
      </trkpt>
      <trkpt lat="48.98631" lon="0.09763">
        <ele>149.96</ele>
        <time>2021-08-08T13:45:34Z</time>
      </trkpt>
      <trkpt lat="48.98636" lon="0.09766">
        <ele>150</ele>
        <time>2021-08-08T13:45:35Z</time>
      </trkpt>
      <trkpt lat="48.9864" lon="0.09768">
        <ele>150</ele>
        <time>2021-08-08T13:45:36Z</time>
      </trkpt>
      <trkpt lat="48.98643" lon="0.0977">
        <ele>150</ele>
        <time>2021-08-08T13:45:37Z</time>
      </trkpt>
      <trkpt lat="48.98648" lon="0.09773">
        <ele>150</ele>
        <time>2021-08-08T13:45:38Z</time>
      </trkpt>
      <trkpt lat="48.98653" lon="0.09776">
        <ele>150</ele>
        <time>2021-08-08T13:45:39Z</time>
      </trkpt>
      <trkpt lat="48.98659" lon="0.0978">
        <ele>150.01</ele>
        <time>2021-08-08T13:45:40Z</time>
      </trkpt>
      <trkpt lat="48.98664" lon="0.09783">
        <ele>150.01</ele>
        <time>2021-08-08T13:45:41Z</time>
      </trkpt>
      <trkpt lat="48.98669" lon="0.09784">
        <ele>150</ele>
        <time>2021-08-08T13:45:42Z</time>
      </trkpt>
      <trkpt lat="48.98673" lon="0.09785">
        <ele>150</ele>
        <time>2021-08-08T13:45:43Z</time>
      </trkpt>
      <trkpt lat="48.98677" lon="0.09787">
        <ele>150</ele>
        <time>2021-08-08T13:45:44Z</time>
      </trkpt>
      <trkpt lat="48.98682" lon="0.09789">
        <ele>150</ele>
        <time>2021-08-08T13:45:45Z</time>
      </trkpt>
      <trkpt lat="48.98687" lon="0.09791">
        <ele>150</ele>
        <time>2021-08-08T13:45:46Z</time>
      </trkpt>
      <trkpt lat="48.98691" lon="0.09792">
        <ele>150</ele>
        <time>2021-08-08T13:45:47Z</time>
      </trkpt>
      <trkpt lat="48.98694" lon="0.09793">
        <ele>150</ele>
        <time>2021-08-08T13:45:48Z</time>
      </trkpt>
      <trkpt lat="48.98696" lon="0.09791">
        <ele>149.98</ele>
        <time>2021-08-08T13:45:49Z</time>
      </trkpt>
      <trkpt lat="48.987" lon="0.0979">
        <ele>149.92</ele>
        <time>2021-08-08T13:45:50Z</time>
      </trkpt>
      <trkpt lat="48.98702" lon="0.09788">
        <ele>149.86</ele>
        <time>2021-08-08T13:45:51Z</time>
      </trkpt>
      <trkpt lat="48.98706" lon="0.09788">
        <ele>149.77</ele>
        <time>2021-08-08T13:45:52Z</time>
      </trkpt>
      <trkpt lat="48.98709" lon="0.09786">
        <ele>149.68</ele>
        <time>2021-08-08T13:45:53Z</time>
      </trkpt>
      <trkpt lat="48.98712" lon="0.09785">
        <ele>149.57</ele>
        <time>2021-08-08T13:45:54Z</time>
      </trkpt>
      <trkpt lat="48.98715" lon="0.09782">
        <ele>149.43</ele>
        <time>2021-08-08T13:45:55Z</time>
      </trkpt>
      <trkpt lat="48.98718" lon="0.09779">
        <ele>149.26</ele>
        <time>2021-08-08T13:45:56Z</time>
      </trkpt>
      <trkpt lat="48.9872" lon="0.09776">
        <ele>149.17</ele>
        <time>2021-08-08T13:45:57Z</time>
      </trkpt>
      <trkpt lat="48.98723" lon="0.09772">
        <ele>149.21</ele>
        <time>2021-08-08T13:45:58Z</time>
      </trkpt>
      <trkpt lat="48.98726" lon="0.0977">
        <ele>149.33</ele>
        <time>2021-08-08T13:45:59Z</time>
      </trkpt>
      <trkpt lat="48.98731" lon="0.09767">
        <ele>149.5</ele>
        <time>2021-08-08T13:46:00Z</time>
      </trkpt>
      <trkpt lat="48.98733" lon="0.09765">
        <ele>149.62</ele>
        <time>2021-08-08T13:46:01Z</time>
      </trkpt>
      <trkpt lat="48.98737" lon="0.09763">
        <ele>149.73</ele>
        <time>2021-08-08T13:46:02Z</time>
      </trkpt>
      <trkpt lat="48.98741" lon="0.09761">
        <ele>149.83</ele>
        <time>2021-08-08T13:46:03Z</time>
      </trkpt>
      <trkpt lat="48.98745" lon="0.09759">
        <ele>149.9</ele>
        <time>2021-08-08T13:46:04Z</time>
      </trkpt>
      <trkpt lat="48.98748" lon="0.09757">
        <ele>149.96</ele>
        <time>2021-08-08T13:46:05Z</time>
      </trkpt>
      <trkpt lat="48.98751" lon="0.09756">
        <ele>149.99</ele>
        <time>2021-08-08T13:46:06Z</time>
      </trkpt>
      <trkpt lat="48.98754" lon="0.09754">
        <ele>150.01</ele>
        <time>2021-08-08T13:46:07Z</time>
      </trkpt>
      <trkpt lat="48.98757" lon="0.09754">
        <ele>150.03</ele>
        <time>2021-08-08T13:46:08Z</time>
      </trkpt>
      <trkpt lat="48.98761" lon="0.09753">
        <ele>150.04</ele>
        <time>2021-08-08T13:46:09Z</time>
      </trkpt>
      <trkpt lat="48.98764" lon="0.09752">
        <ele>150.04</ele>
        <time>2021-08-08T13:46:10Z</time>
      </trkpt>
      <trkpt lat="48.98767" lon="0.09751">
        <ele>150.03</ele>
        <time>2021-08-08T13:46:11Z</time>
      </trkpt>
      <trkpt lat="48.9877" lon="0.0975">
        <ele>150.01</ele>
        <time>2021-08-08T13:46:12Z</time>
      </trkpt>
      <trkpt lat="48.98773" lon="0.09749">
        <ele>149.99</ele>
        <time>2021-08-08T13:46:13Z</time>
      </trkpt>
      <trkpt lat="48.98777" lon="0.0975">
        <ele>149.98</ele>
        <time>2021-08-08T13:46:14Z</time>
      </trkpt>
      <trkpt lat="48.98781" lon="0.0975">
        <ele>149.99</ele>
        <time>2021-08-08T13:46:15Z</time>
      </trkpt>
      <trkpt lat="48.98783" lon="0.09749">
        <ele>149.96</ele>
        <time>2021-08-08T13:46:16Z</time>
      </trkpt>
      <trkpt lat="48.98786" lon="0.09748">
        <ele>149.92</ele>
        <time>2021-08-08T13:46:17Z</time>
      </trkpt>
      <trkpt lat="48.98788" lon="0.09748">
        <ele>149.9</ele>
        <time>2021-08-08T13:46:18Z</time>
      </trkpt>
      <trkpt lat="48.98791" lon="0.09746">
        <ele>149.83</ele>
        <time>2021-08-08T13:46:19Z</time>
      </trkpt>
      <trkpt lat="48.98793" lon="0.09743">
        <ele>149.68</ele>
        <time>2021-08-08T13:46:20Z</time>
      </trkpt>
      <trkpt lat="48.98797" lon="0.09741">
        <ele>149.53</ele>
        <time>2021-08-08T13:46:21Z</time>
      </trkpt>
      <trkpt lat="48.988" lon="0.09737">
        <ele>149.28</ele>
        <time>2021-08-08T13:46:22Z</time>
      </trkpt>
      <trkpt lat="48.98804" lon="0.09734">
        <ele>148.99</ele>
        <time>2021-08-08T13:46:23Z</time>
      </trkpt>
      <trkpt lat="48.98807" lon="0.09731">
        <ele>148.77</ele>
        <time>2021-08-08T13:46:24Z</time>
      </trkpt>
      <trkpt lat="48.98811" lon="0.09729">
        <ele>148.55</ele>
        <time>2021-08-08T13:46:25Z</time>
      </trkpt>
      <trkpt lat="48.98813" lon="0.09726">
        <ele>148.34</ele>
        <time>2021-08-08T13:46:26Z</time>
      </trkpt>
      <trkpt lat="48.98817" lon="0.09723">
        <ele>148.14</ele>
        <time>2021-08-08T13:46:27Z</time>
      </trkpt>
      <trkpt lat="48.98823" lon="0.09721">
        <ele>148</ele>
        <time>2021-08-08T13:46:28Z</time>
      </trkpt>
      <trkpt lat="48.98826" lon="0.09718">
        <ele>147.84</ele>
        <time>2021-08-08T13:46:29Z</time>
      </trkpt>
      <trkpt lat="48.98828" lon="0.09717">
        <ele>147.69</ele>
        <time>2021-08-08T13:46:30Z</time>
      </trkpt>
      <trkpt lat="48.9883" lon="0.09714">
        <ele>147.52</ele>
        <time>2021-08-08T13:46:31Z</time>
      </trkpt>
      <trkpt lat="48.98834" lon="0.09713">
        <ele>147.38</ele>
        <time>2021-08-08T13:46:32Z</time>
      </trkpt>
      <trkpt lat="48.98836" lon="0.09709">
        <ele>147.15</ele>
        <time>2021-08-08T13:46:33Z</time>
      </trkpt>
      <trkpt lat="48.98839" lon="0.09708">
        <ele>147</ele>
        <time>2021-08-08T13:46:34Z</time>
      </trkpt>
      <trkpt lat="48.98841" lon="0.09706">
        <ele>146.87</ele>
        <time>2021-08-08T13:46:35Z</time>
      </trkpt>
      <trkpt lat="48.98846" lon="0.09705">
        <ele>146.81</ele>
        <time>2021-08-08T13:46:36Z</time>
      </trkpt>
      <trkpt lat="48.98851" lon="0.09705">
        <ele>146.78</ele>
        <time>2021-08-08T13:46:37Z</time>
      </trkpt>
      <trkpt lat="48.98855" lon="0.09704">
        <ele>146.72</ele>
        <time>2021-08-08T13:46:38Z</time>
      </trkpt>
      <trkpt lat="48.9886" lon="0.09705">
        <ele>146.74</ele>
        <time>2021-08-08T13:46:39Z</time>
      </trkpt>
      <trkpt lat="48.98863" lon="0.09705">
        <ele>146.75</ele>
        <time>2021-08-08T13:46:40Z</time>
      </trkpt>
      <trkpt lat="48.98867" lon="0.09705">
        <ele>146.84</ele>
        <time>2021-08-08T13:46:41Z</time>
      </trkpt>
      <trkpt lat="48.9887" lon="0.09705">
        <ele>146.9</ele>
        <time>2021-08-08T13:46:42Z</time>
      </trkpt>
      <trkpt lat="48.98872" lon="0.09704">
        <ele>146.86</ele>
        <time>2021-08-08T13:46:43Z</time>
      </trkpt>
      <trkpt lat="48.98876" lon="0.09701">
        <ele>146.71</ele>
        <time>2021-08-08T13:46:44Z</time>
      </trkpt>
      <trkpt lat="48.98878" lon="0.097">
        <ele>146.59</ele>
        <time>2021-08-08T13:46:45Z</time>
      </trkpt>
      <trkpt lat="48.9888" lon="0.09698">
        <ele>146.42</ele>
        <time>2021-08-08T13:46:46Z</time>
      </trkpt>
      <trkpt lat="48.98882" lon="0.09695">
        <ele>146.19</ele>
        <time>2021-08-08T13:46:47Z</time>
      </trkpt>
      <trkpt lat="48.98883" lon="0.09693">
        <ele>146.02</ele>
        <time>2021-08-08T13:46:48Z</time>
      </trkpt>
      <trkpt lat="48.98885" lon="0.09689">
        <ele>145.87</ele>
        <time>2021-08-08T13:46:49Z</time>
      </trkpt>
      <trkpt lat="48.98886" lon="0.09686">
        <ele>145.75</ele>
        <time>2021-08-08T13:46:50Z</time>
      </trkpt>
      <trkpt lat="48.98885" lon="0.09681">
        <ele>145.59</ele>
        <time>2021-08-08T13:46:51Z</time>
      </trkpt>
      <trkpt lat="48.98883" lon="0.09674">
        <ele>145.37</ele>
        <time>2021-08-08T13:46:52Z</time>
      </trkpt>
      <trkpt lat="48.98883" lon="0.09669">
        <ele>145.16</ele>
        <time>2021-08-08T13:46:53Z</time>
      </trkpt>
      <trkpt lat="48.98882" lon="0.09666">
        <ele>145.05</ele>
        <time>2021-08-08T13:46:54Z</time>
      </trkpt>
      <trkpt lat="48.98881" lon="0.09659">
        <ele>145.07</ele>
        <time>2021-08-08T13:46:55Z</time>
      </trkpt>
      <trkpt lat="48.9888" lon="0.09653">
        <ele>145.13</ele>
        <time>2021-08-08T13:46:56Z</time>
      </trkpt>
      <trkpt lat="48.98878" lon="0.09643">
        <ele>145.28</ele>
        <time>2021-08-08T13:46:57Z</time>
      </trkpt>
      <trkpt lat="48.98877" lon="0.09638">
        <ele>145.38</ele>
        <time>2021-08-08T13:46:58Z</time>
      </trkpt>
      <trkpt lat="48.98876" lon="0.09631">
        <ele>145.35</ele>
        <time>2021-08-08T13:46:59Z</time>
      </trkpt>
      <trkpt lat="48.98877" lon="0.09629">
        <ele>145.27</ele>
        <time>2021-08-08T13:47:00Z</time>
      </trkpt>
      <trkpt lat="48.98877" lon="0.09627">
        <ele>145.22</ele>
        <time>2021-08-08T13:47:01Z</time>
      </trkpt>
      <trkpt lat="48.98876" lon="0.09624">
        <ele>145.19</ele>
        <time>2021-08-08T13:47:02Z</time>
      </trkpt>
      <trkpt lat="48.98875" lon="0.0962">
        <ele>145.16</ele>
        <time>2021-08-08T13:47:03Z</time>
      </trkpt>
      <trkpt lat="48.98875" lon="0.09616">
        <ele>145.11</ele>
        <time>2021-08-08T13:47:04Z</time>
      </trkpt>
      <trkpt lat="48.98875" lon="0.09614">
        <ele>145.05</ele>
        <time>2021-08-08T13:47:05Z</time>
      </trkpt>
      <trkpt lat="48.98875" lon="0.09611">
        <ele>145.01</ele>
        <time>2021-08-08T13:47:06Z</time>
      </trkpt>
      <trkpt lat="48.98875" lon="0.09607">
        <ele>145.02</ele>
        <time>2021-08-08T13:47:07Z</time>
      </trkpt>
      <trkpt lat="48.98874" lon="0.09604">
        <ele>145.06</ele>
        <time>2021-08-08T13:47:08Z</time>
      </trkpt>
      <trkpt lat="48.98874" lon="0.096">
        <ele>145.08</ele>
        <time>2021-08-08T13:47:09Z</time>
      </trkpt>
      <trkpt lat="48.98873" lon="0.09597">
        <ele>145.14</ele>
        <time>2021-08-08T13:47:10Z</time>
      </trkpt>
      <trkpt lat="48.98872" lon="0.09594">
        <ele>145.22</ele>
        <time>2021-08-08T13:47:11Z</time>
      </trkpt>
      <trkpt lat="48.98872" lon="0.09591">
        <ele>145.23</ele>
        <time>2021-08-08T13:47:12Z</time>
      </trkpt>
      <trkpt lat="48.98872" lon="0.09589">
        <ele>145.25</ele>
        <time>2021-08-08T13:47:13Z</time>
      </trkpt>
      <trkpt lat="48.98872" lon="0.09587">
        <ele>145.23</ele>
        <time>2021-08-08T13:47:14Z</time>
      </trkpt>
      <trkpt lat="48.98872" lon="0.09583">
        <ele>145.26</ele>
        <time>2021-08-08T13:47:15Z</time>
      </trkpt>
      <trkpt lat="48.98872" lon="0.0958">
        <ele>145.37</ele>
        <time>2021-08-08T13:47:16Z</time>
      </trkpt>
      <trkpt lat="48.98871" lon="0.09575">
        <ele>145.66</ele>
        <time>2021-08-08T13:47:17Z</time>
      </trkpt>
      <trkpt lat="48.98869" lon="0.09572">
        <ele>145.97</ele>
        <time>2021-08-08T13:47:18Z</time>
      </trkpt>
      <trkpt lat="48.98868" lon="0.0957">
        <ele>146.22</ele>
        <time>2021-08-08T13:47:19Z</time>
      </trkpt>
      <trkpt lat="48.98867" lon="0.09567">
        <ele>146.47</ele>
        <time>2021-08-08T13:47:20Z</time>
      </trkpt>
      <trkpt lat="48.98866" lon="0.09564">
        <ele>146.76</ele>
        <time>2021-08-08T13:47:21Z</time>
      </trkpt>
      <trkpt lat="48.98866" lon="0.09561">
        <ele>147.03</ele>
        <time>2021-08-08T13:47:22Z</time>
      </trkpt>
      <trkpt lat="48.98864" lon="0.09557">
        <ele>147.45</ele>
        <time>2021-08-08T13:47:23Z</time>
      </trkpt>
      <trkpt lat="48.98863" lon="0.09554">
        <ele>147.77</ele>
        <time>2021-08-08T13:47:24Z</time>
      </trkpt>
      <trkpt lat="48.98862" lon="0.0955">
        <ele>148.02</ele>
        <time>2021-08-08T13:47:25Z</time>
      </trkpt>
      <trkpt lat="48.98861" lon="0.09547">
        <ele>148.22</ele>
        <time>2021-08-08T13:47:26Z</time>
      </trkpt>
      <trkpt lat="48.9886" lon="0.09544">
        <ele>148.4</ele>
        <time>2021-08-08T13:47:27Z</time>
      </trkpt>
      <trkpt lat="48.9886" lon="0.09541">
        <ele>148.55</ele>
        <time>2021-08-08T13:47:28Z</time>
      </trkpt>
      <trkpt lat="48.9886" lon="0.09539">
        <ele>148.66</ele>
        <time>2021-08-08T13:47:29Z</time>
      </trkpt>
      <trkpt lat="48.9886" lon="0.09537">
        <ele>148.78</ele>
        <time>2021-08-08T13:47:30Z</time>
      </trkpt>
      <trkpt lat="48.98859" lon="0.09534">
        <ele>148.95</ele>
        <time>2021-08-08T13:47:31Z</time>
      </trkpt>
      <trkpt lat="48.98858" lon="0.09532">
        <ele>149.12</ele>
        <time>2021-08-08T13:47:32Z</time>
      </trkpt>
      <trkpt lat="48.98857" lon="0.09531">
        <ele>149.29</ele>
        <time>2021-08-08T13:47:33Z</time>
      </trkpt>
      <trkpt lat="48.98855" lon="0.0953">
        <ele>149.49</ele>
        <time>2021-08-08T13:47:34Z</time>
      </trkpt>
      <trkpt lat="48.98853" lon="0.09528">
        <ele>149.74</ele>
        <time>2021-08-08T13:47:35Z</time>
      </trkpt>
      <trkpt lat="48.9885" lon="0.09526">
        <ele>150.14</ele>
        <time>2021-08-08T13:47:36Z</time>
      </trkpt>
      <trkpt lat="48.98849" lon="0.09524">
        <ele>150.44</ele>
        <time>2021-08-08T13:47:37Z</time>
      </trkpt>
      <trkpt lat="48.98846" lon="0.09521">
        <ele>150.86</ele>
        <time>2021-08-08T13:47:38Z</time>
      </trkpt>
      <trkpt lat="48.98843" lon="0.0952">
        <ele>151.16</ele>
        <time>2021-08-08T13:47:39Z</time>
      </trkpt>
      <trkpt lat="48.98841" lon="0.09518">
        <ele>151.5</ele>
        <time>2021-08-08T13:47:40Z</time>
      </trkpt>
      <trkpt lat="48.9884" lon="0.09515">
        <ele>151.73</ele>
        <time>2021-08-08T13:47:41Z</time>
      </trkpt>
      <trkpt lat="48.98839" lon="0.09513">
        <ele>151.92</ele>
        <time>2021-08-08T13:47:42Z</time>
      </trkpt>
      <trkpt lat="48.98839" lon="0.09511">
        <ele>152.06</ele>
        <time>2021-08-08T13:47:43Z</time>
      </trkpt>
      <trkpt lat="48.98838" lon="0.0951">
        <ele>152.2</ele>
        <time>2021-08-08T13:47:44Z</time>
      </trkpt>
      <trkpt lat="48.98837" lon="0.09508">
        <ele>152.34</ele>
        <time>2021-08-08T13:47:45Z</time>
      </trkpt>
      <trkpt lat="48.98837" lon="0.09507">
        <ele>152.42</ele>
        <time>2021-08-08T13:47:46Z</time>
      </trkpt>
      <trkpt lat="48.98837" lon="0.09506">
        <ele>152.46</ele>
        <time>2021-08-08T13:47:47Z</time>
      </trkpt>
      <trkpt lat="48.98837" lon="0.09505">
        <ele>152.51</ele>
        <time>2021-08-08T13:47:48Z</time>
      </trkpt>
      <trkpt lat="48.98837" lon="0.09504">
        <ele>152.58</ele>
        <time>2021-08-08T13:47:49Z</time>
      </trkpt>
      <trkpt lat="48.98837" lon="0.09504">
        <ele>152.61</ele>
        <time>2021-08-08T13:47:50Z</time>
      </trkpt>
      <trkpt lat="48.98837" lon="0.09504">
        <ele>152.62</ele>
        <time>2021-08-08T13:47:51Z</time>
      </trkpt>
      <trkpt lat="48.98837" lon="0.09504">
        <ele>152.62</ele>
        <time>2021-08-08T13:47:52Z</time>
      </trkpt>
      <trkpt lat="48.98837" lon="0.09504">
        <ele>152.62</ele>
        <time>2021-08-08T13:47:53Z</time>
      </trkpt>
      <trkpt lat="48.98837" lon="0.09504">
        <ele>152.62</ele>
        <time>2021-08-08T13:47:54Z</time>
      </trkpt>
      <trkpt lat="48.98837" lon="0.09504">
        <ele>152.62</ele>
        <time>2021-08-08T13:47:55Z</time>
      </trkpt>
      <trkpt lat="48.98835" lon="0.09492">
        <ele>153.23</ele>
        <time>2021-08-08T13:47:56Z</time>
      </trkpt>
      <trkpt lat="48.98835" lon="0.09489">
        <ele>153.53</ele>
        <time>2021-08-08T13:47:57Z</time>
      </trkpt>
      <trkpt lat="48.98834" lon="0.09488">
        <ele>153.71</ele>
        <time>2021-08-08T13:47:58Z</time>
      </trkpt>
      <trkpt lat="48.98834" lon="0.09487">
        <ele>153.87</ele>
        <time>2021-08-08T13:47:59Z</time>
      </trkpt>
      <trkpt lat="48.98833" lon="0.09486">
        <ele>154.01</ele>
        <time>2021-08-08T13:48:00Z</time>
      </trkpt>
      <trkpt lat="48.98832" lon="0.09485">
        <ele>154.15</ele>
        <time>2021-08-08T13:48:01Z</time>
      </trkpt>
      <trkpt lat="48.98832" lon="0.09484">
        <ele>154.22</ele>
        <time>2021-08-08T13:48:02Z</time>
      </trkpt>
      <trkpt lat="48.98832" lon="0.09484">
        <ele>154.24</ele>
        <time>2021-08-08T13:48:03Z</time>
      </trkpt>
      <trkpt lat="48.98832" lon="0.09484">
        <ele>154.25</ele>
        <time>2021-08-08T13:48:04Z</time>
      </trkpt>
      <trkpt lat="48.98832" lon="0.09484">
        <ele>154.25</ele>
        <time>2021-08-08T13:48:05Z</time>
      </trkpt>
      <trkpt lat="48.98832" lon="0.09484">
        <ele>154.25</ele>
        <time>2021-08-08T13:48:06Z</time>
      </trkpt>
      <trkpt lat="48.98832" lon="0.09484">
        <ele>154.25</ele>
        <time>2021-08-08T13:48:07Z</time>
      </trkpt>
      <trkpt lat="48.98832" lon="0.09484">
        <ele>154.25</ele>
        <time>2021-08-08T13:48:08Z</time>
      </trkpt>
      <trkpt lat="48.98832" lon="0.09484">
        <ele>154.25</ele>
        <time>2021-08-08T13:48:09Z</time>
      </trkpt>
      <trkpt lat="48.98832" lon="0.09484">
        <ele>154.25</ele>
        <time>2021-08-08T13:48:10Z</time>
      </trkpt>
      <trkpt lat="48.98826" lon="0.09473">
        <ele>155.33</ele>
        <time>2021-08-08T13:48:11Z</time>
      </trkpt>
      <trkpt lat="48.98825" lon="0.09472">
        <ele>155.72</ele>
        <time>2021-08-08T13:48:12Z</time>
      </trkpt>
      <trkpt lat="48.98824" lon="0.09468">
        <ele>156.11</ele>
        <time>2021-08-08T13:48:13Z</time>
      </trkpt>
      <trkpt lat="48.9882" lon="0.09468">
        <ele>156.5</ele>
        <time>2021-08-08T13:48:14Z</time>
      </trkpt>
      <trkpt lat="48.98819" lon="0.09468">
        <ele>156.76</ele>
        <time>2021-08-08T13:48:15Z</time>
      </trkpt>
      <trkpt lat="48.98818" lon="0.09466">
        <ele>156.96</ele>
        <time>2021-08-08T13:48:16Z</time>
      </trkpt>
      <trkpt lat="48.98817" lon="0.09464">
        <ele>157.2</ele>
        <time>2021-08-08T13:48:17Z</time>
      </trkpt>
      <trkpt lat="48.98817" lon="0.09462">
        <ele>157.36</ele>
        <time>2021-08-08T13:48:18Z</time>
      </trkpt>
      <trkpt lat="48.98817" lon="0.09461">
        <ele>157.48</ele>
        <time>2021-08-08T13:48:19Z</time>
      </trkpt>
      <trkpt lat="48.98816" lon="0.0946">
        <ele>157.67</ele>
        <time>2021-08-08T13:48:20Z</time>
      </trkpt>
      <trkpt lat="48.98815" lon="0.09458">
        <ele>157.91</ele>
        <time>2021-08-08T13:48:21Z</time>
      </trkpt>
      <trkpt lat="48.98815" lon="0.09456">
        <ele>158.11</ele>
        <time>2021-08-08T13:48:22Z</time>
      </trkpt>
      <trkpt lat="48.98814" lon="0.09455">
        <ele>158.27</ele>
        <time>2021-08-08T13:48:23Z</time>
      </trkpt>
      <trkpt lat="48.98814" lon="0.09453">
        <ele>158.38</ele>
        <time>2021-08-08T13:48:24Z</time>
      </trkpt>
      <trkpt lat="48.98814" lon="0.09453">
        <ele>158.41</ele>
        <time>2021-08-08T13:48:25Z</time>
      </trkpt>
      <trkpt lat="48.98814" lon="0.09453">
        <ele>158.42</ele>
        <time>2021-08-08T13:48:26Z</time>
      </trkpt>
      <trkpt lat="48.98814" lon="0.09453">
        <ele>158.42</ele>
        <time>2021-08-08T13:48:27Z</time>
      </trkpt>
      <trkpt lat="48.98814" lon="0.09453">
        <ele>158.42</ele>
        <time>2021-08-08T13:48:28Z</time>
      </trkpt>
      <trkpt lat="48.98814" lon="0.09453">
        <ele>158.42</ele>
        <time>2021-08-08T13:48:29Z</time>
      </trkpt>
      <trkpt lat="48.98817" lon="0.09442">
        <ele>158.77</ele>
        <time>2021-08-08T13:48:30Z</time>
      </trkpt>
      <trkpt lat="48.98817" lon="0.09438">
        <ele>159.1</ele>
        <time>2021-08-08T13:48:31Z</time>
      </trkpt>
      <trkpt lat="48.98815" lon="0.09433">
        <ele>159.57</ele>
        <time>2021-08-08T13:48:32Z</time>
      </trkpt>
      <trkpt lat="48.98812" lon="0.09427">
        <ele>160.29</ele>
        <time>2021-08-08T13:48:33Z</time>
      </trkpt>
      <trkpt lat="48.98809" lon="0.09422">
        <ele>160.99</ele>
        <time>2021-08-08T13:48:34Z</time>
      </trkpt>
      <trkpt lat="48.98806" lon="0.09417">
        <ele>161.64</ele>
        <time>2021-08-08T13:48:35Z</time>
      </trkpt>
      <trkpt lat="48.98804" lon="0.09413">
        <ele>162.16</ele>
        <time>2021-08-08T13:48:36Z</time>
      </trkpt>
      <trkpt lat="48.98803" lon="0.0941">
        <ele>162.49</ele>
        <time>2021-08-08T13:48:37Z</time>
      </trkpt>
      <trkpt lat="48.98804" lon="0.09409">
        <ele>162.66</ele>
        <time>2021-08-08T13:48:38Z</time>
      </trkpt>
      <trkpt lat="48.98804" lon="0.09407">
        <ele>162.76</ele>
        <time>2021-08-08T13:48:39Z</time>
      </trkpt>
      <trkpt lat="48.98804" lon="0.09405">
        <ele>162.92</ele>
        <time>2021-08-08T13:48:40Z</time>
      </trkpt>
      <trkpt lat="48.98803" lon="0.09403">
        <ele>163.07</ele>
        <time>2021-08-08T13:48:41Z</time>
      </trkpt>
      <trkpt lat="48.98803" lon="0.094">
        <ele>163.29</ele>
        <time>2021-08-08T13:48:42Z</time>
      </trkpt>
      <trkpt lat="48.98802" lon="0.09396">
        <ele>163.57</ele>
        <time>2021-08-08T13:48:43Z</time>
      </trkpt>
      <trkpt lat="48.98801" lon="0.09393">
        <ele>163.88</ele>
        <time>2021-08-08T13:48:44Z</time>
      </trkpt>
      <trkpt lat="48.98801" lon="0.0939">
        <ele>164.14</ele>
        <time>2021-08-08T13:48:45Z</time>
      </trkpt>
      <trkpt lat="48.988" lon="0.09387">
        <ele>164.36</ele>
        <time>2021-08-08T13:48:46Z</time>
      </trkpt>
      <trkpt lat="48.98799" lon="0.09385">
        <ele>164.53</ele>
        <time>2021-08-08T13:48:47Z</time>
      </trkpt>
      <trkpt lat="48.98798" lon="0.09383">
        <ele>164.66</ele>
        <time>2021-08-08T13:48:48Z</time>
      </trkpt>
      <trkpt lat="48.98797" lon="0.09379">
        <ele>164.87</ele>
        <time>2021-08-08T13:48:49Z</time>
      </trkpt>
      <trkpt lat="48.98797" lon="0.09377">
        <ele>164.99</ele>
        <time>2021-08-08T13:48:50Z</time>
      </trkpt>
      <trkpt lat="48.98796" lon="0.09374">
        <ele>165.14</ele>
        <time>2021-08-08T13:48:51Z</time>
      </trkpt>
      <trkpt lat="48.98795" lon="0.09371">
        <ele>165.32</ele>
        <time>2021-08-08T13:48:52Z</time>
      </trkpt>
      <trkpt lat="48.98795" lon="0.09367">
        <ele>165.49</ele>
        <time>2021-08-08T13:48:53Z</time>
      </trkpt>
      <trkpt lat="48.98794" lon="0.09363">
        <ele>165.67</ele>
        <time>2021-08-08T13:48:54Z</time>
      </trkpt>
      <trkpt lat="48.98794" lon="0.09358">
        <ele>165.88</ele>
        <time>2021-08-08T13:48:55Z</time>
      </trkpt>
      <trkpt lat="48.98793" lon="0.09353">
        <ele>166.09</ele>
        <time>2021-08-08T13:48:56Z</time>
      </trkpt>
      <trkpt lat="48.98793" lon="0.09349">
        <ele>166.26</ele>
        <time>2021-08-08T13:48:57Z</time>
      </trkpt>
      <trkpt lat="48.98792" lon="0.09347">
        <ele>166.4</ele>
        <time>2021-08-08T13:48:58Z</time>
      </trkpt>
      <trkpt lat="48.98792" lon="0.09344">
        <ele>166.54</ele>
        <time>2021-08-08T13:48:59Z</time>
      </trkpt>
      <trkpt lat="48.98791" lon="0.0934">
        <ele>166.74</ele>
        <time>2021-08-08T13:49:00Z</time>
      </trkpt>
      <trkpt lat="48.9879" lon="0.09337">
        <ele>166.95</ele>
        <time>2021-08-08T13:49:01Z</time>
      </trkpt>
      <trkpt lat="48.98789" lon="0.09334">
        <ele>167.11</ele>
        <time>2021-08-08T13:49:02Z</time>
      </trkpt>
      <trkpt lat="48.98788" lon="0.09329">
        <ele>167.35</ele>
        <time>2021-08-08T13:49:03Z</time>
      </trkpt>
      <trkpt lat="48.98785" lon="0.09325">
        <ele>167.63</ele>
        <time>2021-08-08T13:49:04Z</time>
      </trkpt>
      <trkpt lat="48.98784" lon="0.09322">
        <ele>167.85</ele>
        <time>2021-08-08T13:49:05Z</time>
      </trkpt>
      <trkpt lat="48.98783" lon="0.09318">
        <ele>168.09</ele>
        <time>2021-08-08T13:49:06Z</time>
      </trkpt>
      <trkpt lat="48.98781" lon="0.09313">
        <ele>168.35</ele>
        <time>2021-08-08T13:49:07Z</time>
      </trkpt>
      <trkpt lat="48.9878" lon="0.0931">
        <ele>168.59</ele>
        <time>2021-08-08T13:49:08Z</time>
      </trkpt>
      <trkpt lat="48.98778" lon="0.09307">
        <ele>168.83</ele>
        <time>2021-08-08T13:49:09Z</time>
      </trkpt>
      <trkpt lat="48.98777" lon="0.09302">
        <ele>168.98</ele>
        <time>2021-08-08T13:49:10Z</time>
      </trkpt>
      <trkpt lat="48.98775" lon="0.09298">
        <ele>169.09</ele>
        <time>2021-08-08T13:49:11Z</time>
      </trkpt>
      <trkpt lat="48.98772" lon="0.09294">
        <ele>169.22</ele>
        <time>2021-08-08T13:49:12Z</time>
      </trkpt>
      <trkpt lat="48.98771" lon="0.09291">
        <ele>169.35</ele>
        <time>2021-08-08T13:49:13Z</time>
      </trkpt>
      <trkpt lat="48.98769" lon="0.09286">
        <ele>169.49</ele>
        <time>2021-08-08T13:49:14Z</time>
      </trkpt>
      <trkpt lat="48.98767" lon="0.09283">
        <ele>169.63</ele>
        <time>2021-08-08T13:49:15Z</time>
      </trkpt>
      <trkpt lat="48.98765" lon="0.09279">
        <ele>169.79</ele>
        <time>2021-08-08T13:49:16Z</time>
      </trkpt>
      <trkpt lat="48.98763" lon="0.09275">
        <ele>170.03</ele>
        <time>2021-08-08T13:49:17Z</time>
      </trkpt>
      <trkpt lat="48.98761" lon="0.09271">
        <ele>170.21</ele>
        <time>2021-08-08T13:49:18Z</time>
      </trkpt>
      <trkpt lat="48.98761" lon="0.09268">
        <ele>170.31</ele>
        <time>2021-08-08T13:49:19Z</time>
      </trkpt>
      <trkpt lat="48.98761" lon="0.09265">
        <ele>170.37</ele>
        <time>2021-08-08T13:49:20Z</time>
      </trkpt>
      <trkpt lat="48.9876" lon="0.09262">
        <ele>170.45</ele>
        <time>2021-08-08T13:49:21Z</time>
      </trkpt>
      <trkpt lat="48.98758" lon="0.09258">
        <ele>170.56</ele>
        <time>2021-08-08T13:49:22Z</time>
      </trkpt>
      <trkpt lat="48.98757" lon="0.09255">
        <ele>170.65</ele>
        <time>2021-08-08T13:49:23Z</time>
      </trkpt>
      <trkpt lat="48.98756" lon="0.09252">
        <ele>170.75</ele>
        <time>2021-08-08T13:49:24Z</time>
      </trkpt>
      <trkpt lat="48.98755" lon="0.09249">
        <ele>170.81</ele>
        <time>2021-08-08T13:49:25Z</time>
      </trkpt>
      <trkpt lat="48.98754" lon="0.09246">
        <ele>170.85</ele>
        <time>2021-08-08T13:49:26Z</time>
      </trkpt>
      <trkpt lat="48.98752" lon="0.09242">
        <ele>170.89</ele>
        <time>2021-08-08T13:49:27Z</time>
      </trkpt>
      <trkpt lat="48.98751" lon="0.09239">
        <ele>170.94</ele>
        <time>2021-08-08T13:49:28Z</time>
      </trkpt>
      <trkpt lat="48.98749" lon="0.09234">
        <ele>171</ele>
        <time>2021-08-08T13:49:29Z</time>
      </trkpt>
      <trkpt lat="48.98748" lon="0.09231">
        <ele>171.06</ele>
        <time>2021-08-08T13:49:30Z</time>
      </trkpt>
      <trkpt lat="48.98748" lon="0.09229">
        <ele>171.11</ele>
        <time>2021-08-08T13:49:31Z</time>
      </trkpt>
      <trkpt lat="48.98747" lon="0.09226">
        <ele>171.18</ele>
        <time>2021-08-08T13:49:32Z</time>
      </trkpt>
      <trkpt lat="48.98745" lon="0.09222">
        <ele>171.32</ele>
        <time>2021-08-08T13:49:33Z</time>
      </trkpt>
      <trkpt lat="48.98744" lon="0.09218">
        <ele>171.51</ele>
        <time>2021-08-08T13:49:34Z</time>
      </trkpt>
      <trkpt lat="48.98743" lon="0.09213">
        <ele>171.69</ele>
        <time>2021-08-08T13:49:35Z</time>
      </trkpt>
      <trkpt lat="48.98741" lon="0.0921">
        <ele>171.87</ele>
        <time>2021-08-08T13:49:36Z</time>
      </trkpt>
      <trkpt lat="48.98739" lon="0.09206">
        <ele>172.07</ele>
        <time>2021-08-08T13:49:37Z</time>
      </trkpt>
      <trkpt lat="48.98737" lon="0.09203">
        <ele>172.24</ele>
        <time>2021-08-08T13:49:38Z</time>
      </trkpt>
      <trkpt lat="48.98735" lon="0.09199">
        <ele>172.4</ele>
        <time>2021-08-08T13:49:39Z</time>
      </trkpt>
      <trkpt lat="48.98733" lon="0.09196">
        <ele>172.53</ele>
        <time>2021-08-08T13:49:40Z</time>
      </trkpt>
      <trkpt lat="48.98731" lon="0.09192">
        <ele>172.64</ele>
        <time>2021-08-08T13:49:41Z</time>
      </trkpt>
      <trkpt lat="48.98728" lon="0.09186">
        <ele>172.74</ele>
        <time>2021-08-08T13:49:42Z</time>
      </trkpt>
      <trkpt lat="48.98725" lon="0.09182">
        <ele>172.84</ele>
        <time>2021-08-08T13:49:43Z</time>
      </trkpt>
      <trkpt lat="48.98722" lon="0.09174">
        <ele>172.95</ele>
        <time>2021-08-08T13:49:44Z</time>
      </trkpt>
      <trkpt lat="48.9872" lon="0.09168">
        <ele>173.04</ele>
        <time>2021-08-08T13:49:45Z</time>
      </trkpt>
      <trkpt lat="48.98719" lon="0.09166">
        <ele>173.11</ele>
        <time>2021-08-08T13:49:46Z</time>
      </trkpt>
      <trkpt lat="48.98718" lon="0.09164">
        <ele>173.15</ele>
        <time>2021-08-08T13:49:47Z</time>
      </trkpt>
      <trkpt lat="48.98717" lon="0.09161">
        <ele>173.18</ele>
        <time>2021-08-08T13:49:48Z</time>
      </trkpt>
      <trkpt lat="48.98716" lon="0.09157">
        <ele>173.22</ele>
        <time>2021-08-08T13:49:49Z</time>
      </trkpt>
      <trkpt lat="48.98716" lon="0.09155">
        <ele>173.23</ele>
        <time>2021-08-08T13:49:50Z</time>
      </trkpt>
      <trkpt lat="48.98716" lon="0.0915">
        <ele>173.23</ele>
        <time>2021-08-08T13:49:51Z</time>
      </trkpt>
      <trkpt lat="48.98715" lon="0.09145">
        <ele>173.24</ele>
        <time>2021-08-08T13:49:52Z</time>
      </trkpt>
      <trkpt lat="48.98715" lon="0.09139">
        <ele>173.24</ele>
        <time>2021-08-08T13:49:53Z</time>
      </trkpt>
      <trkpt lat="48.98716" lon="0.09131">
        <ele>173.42</ele>
        <time>2021-08-08T13:49:54Z</time>
      </trkpt>
      <trkpt lat="48.98716" lon="0.09126">
        <ele>173.6</ele>
        <time>2021-08-08T13:49:55Z</time>
      </trkpt>
      <trkpt lat="48.98716" lon="0.09121">
        <ele>173.78</ele>
        <time>2021-08-08T13:49:56Z</time>
      </trkpt>
      <trkpt lat="48.98717" lon="0.09115">
        <ele>173.97</ele>
        <time>2021-08-08T13:49:57Z</time>
      </trkpt>
      <trkpt lat="48.98718" lon="0.09109">
        <ele>174.1</ele>
        <time>2021-08-08T13:49:58Z</time>
      </trkpt>
      <trkpt lat="48.98718" lon="0.09103">
        <ele>174.13</ele>
        <time>2021-08-08T13:49:59Z</time>
      </trkpt>
      <trkpt lat="48.98719" lon="0.09096">
        <ele>174.12</ele>
        <time>2021-08-08T13:50:00Z</time>
      </trkpt>
      <trkpt lat="48.98719" lon="0.09088">
        <ele>174.1</ele>
        <time>2021-08-08T13:50:01Z</time>
      </trkpt>
      <trkpt lat="48.9872" lon="0.09081">
        <ele>174.09</ele>
        <time>2021-08-08T13:50:02Z</time>
      </trkpt>
      <trkpt lat="48.98721" lon="0.09074">
        <ele>174.06</ele>
        <time>2021-08-08T13:50:03Z</time>
      </trkpt>
      <trkpt lat="48.98722" lon="0.09067">
        <ele>174.02</ele>
        <time>2021-08-08T13:50:04Z</time>
      </trkpt>
      <trkpt lat="48.98723" lon="0.09061">
        <ele>173.96</ele>
        <time>2021-08-08T13:50:05Z</time>
      </trkpt>
      <trkpt lat="48.98724" lon="0.09054">
        <ele>173.87</ele>
        <time>2021-08-08T13:50:06Z</time>
      </trkpt>
      <trkpt lat="48.98725" lon="0.09047">
        <ele>173.63</ele>
        <time>2021-08-08T13:50:07Z</time>
      </trkpt>
      <trkpt lat="48.98726" lon="0.0904">
        <ele>173.38</ele>
        <time>2021-08-08T13:50:08Z</time>
      </trkpt>
      <trkpt lat="48.98727" lon="0.09034">
        <ele>173.12</ele>
        <time>2021-08-08T13:50:09Z</time>
      </trkpt>
      <trkpt lat="48.98728" lon="0.09028">
        <ele>172.88</ele>
        <time>2021-08-08T13:50:10Z</time>
      </trkpt>
      <trkpt lat="48.98729" lon="0.09021">
        <ele>172.79</ele>
        <time>2021-08-08T13:50:11Z</time>
      </trkpt>
      <trkpt lat="48.98731" lon="0.09015">
        <ele>172.73</ele>
        <time>2021-08-08T13:50:12Z</time>
      </trkpt>
      <trkpt lat="48.98731" lon="0.09008">
        <ele>172.69</ele>
        <time>2021-08-08T13:50:13Z</time>
      </trkpt>
      <trkpt lat="48.98732" lon="0.09">
        <ele>172.65</ele>
        <time>2021-08-08T13:50:14Z</time>
      </trkpt>
      <trkpt lat="48.98734" lon="0.08992">
        <ele>172.52</ele>
        <time>2021-08-08T13:50:15Z</time>
      </trkpt>
      <trkpt lat="48.98735" lon="0.08984">
        <ele>172.37</ele>
        <time>2021-08-08T13:50:16Z</time>
      </trkpt>
      <trkpt lat="48.98735" lon="0.08976">
        <ele>172.19</ele>
        <time>2021-08-08T13:50:17Z</time>
      </trkpt>
      <trkpt lat="48.98736" lon="0.08969">
        <ele>171.93</ele>
        <time>2021-08-08T13:50:18Z</time>
      </trkpt>
      <trkpt lat="48.98737" lon="0.08961">
        <ele>171.52</ele>
        <time>2021-08-08T13:50:19Z</time>
      </trkpt>
      <trkpt lat="48.98738" lon="0.08953">
        <ele>171.06</ele>
        <time>2021-08-08T13:50:20Z</time>
      </trkpt>
      <trkpt lat="48.9874" lon="0.08946">
        <ele>170.63</ele>
        <time>2021-08-08T13:50:21Z</time>
      </trkpt>
      <trkpt lat="48.98741" lon="0.08939">
        <ele>170.27</ele>
        <time>2021-08-08T13:50:22Z</time>
      </trkpt>
      <trkpt lat="48.98743" lon="0.08932">
        <ele>169.95</ele>
        <time>2021-08-08T13:50:23Z</time>
      </trkpt>
      <trkpt lat="48.98745" lon="0.08925">
        <ele>169.63</ele>
        <time>2021-08-08T13:50:24Z</time>
      </trkpt>
      <trkpt lat="48.98746" lon="0.08916">
        <ele>169.29</ele>
        <time>2021-08-08T13:50:25Z</time>
      </trkpt>
      <trkpt lat="48.98749" lon="0.08908">
        <ele>168.9</ele>
        <time>2021-08-08T13:50:26Z</time>
      </trkpt>
      <trkpt lat="48.98752" lon="0.08898">
        <ele>168.46</ele>
        <time>2021-08-08T13:50:27Z</time>
      </trkpt>
      <trkpt lat="48.98756" lon="0.08888">
        <ele>167.99</ele>
        <time>2021-08-08T13:50:28Z</time>
      </trkpt>
      <trkpt lat="48.98759" lon="0.08877">
        <ele>167.66</ele>
        <time>2021-08-08T13:50:29Z</time>
      </trkpt>
      <trkpt lat="48.98763" lon="0.08867">
        <ele>167.32</ele>
        <time>2021-08-08T13:50:30Z</time>
      </trkpt>
      <trkpt lat="48.98766" lon="0.08858">
        <ele>166.97</ele>
        <time>2021-08-08T13:50:31Z</time>
      </trkpt>
      <trkpt lat="48.98768" lon="0.08849">
        <ele>166.77</ele>
        <time>2021-08-08T13:50:32Z</time>
      </trkpt>
      <trkpt lat="48.98771" lon="0.08842">
        <ele>166.56</ele>
        <time>2021-08-08T13:50:33Z</time>
      </trkpt>
      <trkpt lat="48.98775" lon="0.08834">
        <ele>166.31</ele>
        <time>2021-08-08T13:50:34Z</time>
      </trkpt>
      <trkpt lat="48.98778" lon="0.08828">
        <ele>166.21</ele>
        <time>2021-08-08T13:50:35Z</time>
      </trkpt>
      <trkpt lat="48.9878" lon="0.08819">
        <ele>166.37</ele>
        <time>2021-08-08T13:50:36Z</time>
      </trkpt>
      <trkpt lat="48.98781" lon="0.08812">
        <ele>166.58</ele>
        <time>2021-08-08T13:50:37Z</time>
      </trkpt>
      <trkpt lat="48.98782" lon="0.08806">
        <ele>166.74</ele>
        <time>2021-08-08T13:50:38Z</time>
      </trkpt>
      <trkpt lat="48.98783" lon="0.08802">
        <ele>166.79</ele>
        <time>2021-08-08T13:50:39Z</time>
      </trkpt>
      <trkpt lat="48.98784" lon="0.08798">
        <ele>166.78</ele>
        <time>2021-08-08T13:50:40Z</time>
      </trkpt>
      <trkpt lat="48.98785" lon="0.08794">
        <ele>166.76</ele>
        <time>2021-08-08T13:50:41Z</time>
      </trkpt>
      <trkpt lat="48.98786" lon="0.08791">
        <ele>166.72</ele>
        <time>2021-08-08T13:50:42Z</time>
      </trkpt>
      <trkpt lat="48.98788" lon="0.08788">
        <ele>166.66</ele>
        <time>2021-08-08T13:50:43Z</time>
      </trkpt>
      <trkpt lat="48.9879" lon="0.08784">
        <ele>166.59</ele>
        <time>2021-08-08T13:50:44Z</time>
      </trkpt>
      <trkpt lat="48.98792" lon="0.08781">
        <ele>166.52</ele>
        <time>2021-08-08T13:50:45Z</time>
      </trkpt>
      <trkpt lat="48.98793" lon="0.08778">
        <ele>166.47</ele>
        <time>2021-08-08T13:50:46Z</time>
      </trkpt>
      <trkpt lat="48.98795" lon="0.08774">
        <ele>166.55</ele>
        <time>2021-08-08T13:50:47Z</time>
      </trkpt>
      <trkpt lat="48.98796" lon="0.0877">
        <ele>166.73</ele>
        <time>2021-08-08T13:50:48Z</time>
      </trkpt>
      <trkpt lat="48.98797" lon="0.08766">
        <ele>166.91</ele>
        <time>2021-08-08T13:50:49Z</time>
      </trkpt>
      <trkpt lat="48.98798" lon="0.08763">
        <ele>167.12</ele>
        <time>2021-08-08T13:50:50Z</time>
      </trkpt>
      <trkpt lat="48.98799" lon="0.08759">
        <ele>167.35</ele>
        <time>2021-08-08T13:50:51Z</time>
      </trkpt>
      <trkpt lat="48.988" lon="0.08755">
        <ele>167.56</ele>
        <time>2021-08-08T13:50:52Z</time>
      </trkpt>
      <trkpt lat="48.98801" lon="0.08753">
        <ele>167.75</ele>
        <time>2021-08-08T13:50:53Z</time>
      </trkpt>
      <trkpt lat="48.98801" lon="0.08749">
        <ele>167.96</ele>
        <time>2021-08-08T13:50:54Z</time>
      </trkpt>
      <trkpt lat="48.98801" lon="0.08745">
        <ele>168.13</ele>
        <time>2021-08-08T13:50:55Z</time>
      </trkpt>
      <trkpt lat="48.98801" lon="0.08741">
        <ele>168.31</ele>
        <time>2021-08-08T13:50:56Z</time>
      </trkpt>
      <trkpt lat="48.98802" lon="0.08737">
        <ele>168.45</ele>
        <time>2021-08-08T13:50:57Z</time>
      </trkpt>
      <trkpt lat="48.98802" lon="0.08733">
        <ele>168.6</ele>
        <time>2021-08-08T13:50:58Z</time>
      </trkpt>
      <trkpt lat="48.98804" lon="0.08729">
        <ele>168.73</ele>
        <time>2021-08-08T13:50:59Z</time>
      </trkpt>
      <trkpt lat="48.98807" lon="0.08724">
        <ele>168.87</ele>
        <time>2021-08-08T13:51:00Z</time>
      </trkpt>
      <trkpt lat="48.9881" lon="0.08718">
        <ele>169.17</ele>
        <time>2021-08-08T13:51:01Z</time>
      </trkpt>
      <trkpt lat="48.98812" lon="0.08714">
        <ele>169.43</ele>
        <time>2021-08-08T13:51:02Z</time>
      </trkpt>
      <trkpt lat="48.98814" lon="0.0871">
        <ele>169.63</ele>
        <time>2021-08-08T13:51:03Z</time>
      </trkpt>
      <trkpt lat="48.98817" lon="0.08707">
        <ele>169.81</ele>
        <time>2021-08-08T13:51:04Z</time>
      </trkpt>
      <trkpt lat="48.9882" lon="0.08704">
        <ele>169.94</ele>
        <time>2021-08-08T13:51:05Z</time>
      </trkpt>
      <trkpt lat="48.98821" lon="0.08701">
        <ele>170.06</ele>
        <time>2021-08-08T13:51:06Z</time>
      </trkpt>
      <trkpt lat="48.98823" lon="0.08697">
        <ele>170.2</ele>
        <time>2021-08-08T13:51:07Z</time>
      </trkpt>
      <trkpt lat="48.98825" lon="0.0869">
        <ele>170.45</ele>
        <time>2021-08-08T13:51:08Z</time>
      </trkpt>
      <trkpt lat="48.98826" lon="0.08684">
        <ele>170.75</ele>
        <time>2021-08-08T13:51:09Z</time>
      </trkpt>
      <trkpt lat="48.98828" lon="0.0868">
        <ele>171.03</ele>
        <time>2021-08-08T13:51:10Z</time>
      </trkpt>
      <trkpt lat="48.9883" lon="0.08676">
        <ele>171.25</ele>
        <time>2021-08-08T13:51:11Z</time>
      </trkpt>
      <trkpt lat="48.98831" lon="0.08673">
        <ele>171.46</ele>
        <time>2021-08-08T13:51:12Z</time>
      </trkpt>
      <trkpt lat="48.9883" lon="0.08667">
        <ele>171.8</ele>
        <time>2021-08-08T13:51:13Z</time>
      </trkpt>
      <trkpt lat="48.98832" lon="0.08662">
        <ele>172.05</ele>
        <time>2021-08-08T13:51:14Z</time>
      </trkpt>
      <trkpt lat="48.98834" lon="0.08657">
        <ele>172.25</ele>
        <time>2021-08-08T13:51:15Z</time>
      </trkpt>
      <trkpt lat="48.98836" lon="0.08652">
        <ele>172.45</ele>
        <time>2021-08-08T13:51:16Z</time>
      </trkpt>
      <trkpt lat="48.98838" lon="0.08648">
        <ele>172.61</ele>
        <time>2021-08-08T13:51:17Z</time>
      </trkpt>
      <trkpt lat="48.98841" lon="0.08644">
        <ele>172.76</ele>
        <time>2021-08-08T13:51:18Z</time>
      </trkpt>
      <trkpt lat="48.98843" lon="0.0864">
        <ele>172.89</ele>
        <time>2021-08-08T13:51:19Z</time>
      </trkpt>
      <trkpt lat="48.98846" lon="0.08637">
        <ele>172.97</ele>
        <time>2021-08-08T13:51:20Z</time>
      </trkpt>
      <trkpt lat="48.98848" lon="0.08634">
        <ele>172.99</ele>
        <time>2021-08-08T13:51:21Z</time>
      </trkpt>
      <trkpt lat="48.9885" lon="0.08629">
        <ele>173</ele>
        <time>2021-08-08T13:51:22Z</time>
      </trkpt>
      <trkpt lat="48.98854" lon="0.08624">
        <ele>173</ele>
        <time>2021-08-08T13:51:23Z</time>
      </trkpt>
      <trkpt lat="48.98858" lon="0.08618">
        <ele>173</ele>
        <time>2021-08-08T13:51:24Z</time>
      </trkpt>
      <trkpt lat="48.98861" lon="0.08612">
        <ele>173</ele>
        <time>2021-08-08T13:51:25Z</time>
      </trkpt>
      <trkpt lat="48.98865" lon="0.08608">
        <ele>173.08</ele>
        <time>2021-08-08T13:51:26Z</time>
      </trkpt>
      <trkpt lat="48.98869" lon="0.08604">
        <ele>173.2</ele>
        <time>2021-08-08T13:51:27Z</time>
      </trkpt>
      <trkpt lat="48.98871" lon="0.08601">
        <ele>173.32</ele>
        <time>2021-08-08T13:51:28Z</time>
      </trkpt>
      <trkpt lat="48.98874" lon="0.08597">
        <ele>173.46</ele>
        <time>2021-08-08T13:51:29Z</time>
      </trkpt>
      <trkpt lat="48.98877" lon="0.08593">
        <ele>173.59</ele>
        <time>2021-08-08T13:51:30Z</time>
      </trkpt>
      <trkpt lat="48.98881" lon="0.0859">
        <ele>173.72</ele>
        <time>2021-08-08T13:51:31Z</time>
      </trkpt>
      <trkpt lat="48.98886" lon="0.08585">
        <ele>173.86</ele>
        <time>2021-08-08T13:51:32Z</time>
      </trkpt>
      <trkpt lat="48.98889" lon="0.08582">
        <ele>173.96</ele>
        <time>2021-08-08T13:51:33Z</time>
      </trkpt>
      <trkpt lat="48.98892" lon="0.08579">
        <ele>173.92</ele>
        <time>2021-08-08T13:51:34Z</time>
      </trkpt>
      <trkpt lat="48.98897" lon="0.08576">
        <ele>173.82</ele>
        <time>2021-08-08T13:51:35Z</time>
      </trkpt>
      <trkpt lat="48.989" lon="0.08573">
        <ele>173.77</ele>
        <time>2021-08-08T13:51:36Z</time>
      </trkpt>
      <trkpt lat="48.98903" lon="0.0857">
        <ele>173.75</ele>
        <time>2021-08-08T13:51:37Z</time>
      </trkpt>
      <trkpt lat="48.98907" lon="0.08566">
        <ele>173.75</ele>
        <time>2021-08-08T13:51:38Z</time>
      </trkpt>
      <trkpt lat="48.98911" lon="0.08562">
        <ele>173.8</ele>
        <time>2021-08-08T13:51:39Z</time>
      </trkpt>
      <trkpt lat="48.98914" lon="0.08558">
        <ele>173.88</ele>
        <time>2021-08-08T13:51:40Z</time>
      </trkpt>
      <trkpt lat="48.98919" lon="0.08553">
        <ele>173.96</ele>
        <time>2021-08-08T13:51:41Z</time>
      </trkpt>
      <trkpt lat="48.98924" lon="0.08549">
        <ele>173.99</ele>
        <time>2021-08-08T13:51:42Z</time>
      </trkpt>
      <trkpt lat="48.98928" lon="0.08544">
        <ele>174</ele>
        <time>2021-08-08T13:51:43Z</time>
      </trkpt>
      <trkpt lat="48.98932" lon="0.0854">
        <ele>174</ele>
        <time>2021-08-08T13:51:44Z</time>
      </trkpt>
      <trkpt lat="48.98936" lon="0.08537">
        <ele>174</ele>
        <time>2021-08-08T13:51:45Z</time>
      </trkpt>
      <trkpt lat="48.9894" lon="0.08534">
        <ele>174</ele>
        <time>2021-08-08T13:51:46Z</time>
      </trkpt>
      <trkpt lat="48.98945" lon="0.08532">
        <ele>174</ele>
        <time>2021-08-08T13:51:47Z</time>
      </trkpt>
      <trkpt lat="48.98948" lon="0.08529">
        <ele>174</ele>
        <time>2021-08-08T13:51:48Z</time>
      </trkpt>
      <trkpt lat="48.98951" lon="0.08527">
        <ele>174</ele>
        <time>2021-08-08T13:51:49Z</time>
      </trkpt>
      <trkpt lat="48.98954" lon="0.08524">
        <ele>174</ele>
        <time>2021-08-08T13:51:50Z</time>
      </trkpt>
      <trkpt lat="48.98957" lon="0.08523">
        <ele>174</ele>
        <time>2021-08-08T13:51:51Z</time>
      </trkpt>
      <trkpt lat="48.98959" lon="0.08521">
        <ele>174</ele>
        <time>2021-08-08T13:51:52Z</time>
      </trkpt>
      <trkpt lat="48.98962" lon="0.08519">
        <ele>174</ele>
        <time>2021-08-08T13:51:53Z</time>
      </trkpt>
      <trkpt lat="48.98965" lon="0.08515">
        <ele>174</ele>
        <time>2021-08-08T13:51:54Z</time>
      </trkpt>
      <trkpt lat="48.98968" lon="0.08513">
        <ele>174</ele>
        <time>2021-08-08T13:51:55Z</time>
      </trkpt>
      <trkpt lat="48.98972" lon="0.0851">
        <ele>174</ele>
        <time>2021-08-08T13:51:56Z</time>
      </trkpt>
      <trkpt lat="48.98977" lon="0.08506">
        <ele>174</ele>
        <time>2021-08-08T13:51:57Z</time>
      </trkpt>
      <trkpt lat="48.9898" lon="0.08503">
        <ele>174</ele>
        <time>2021-08-08T13:51:58Z</time>
      </trkpt>
      <trkpt lat="48.98984" lon="0.085">
        <ele>174</ele>
        <time>2021-08-08T13:51:59Z</time>
      </trkpt>
      <trkpt lat="48.9899" lon="0.08498">
        <ele>174</ele>
        <time>2021-08-08T13:52:00Z</time>
      </trkpt>
      <trkpt lat="48.98994" lon="0.08496">
        <ele>174</ele>
        <time>2021-08-08T13:52:01Z</time>
      </trkpt>
      <trkpt lat="48.99" lon="0.08494">
        <ele>174</ele>
        <time>2021-08-08T13:52:02Z</time>
      </trkpt>
      <trkpt lat="48.99004" lon="0.08492">
        <ele>174</ele>
        <time>2021-08-08T13:52:03Z</time>
      </trkpt>
      <trkpt lat="48.99008" lon="0.08489">
        <ele>174</ele>
        <time>2021-08-08T13:52:04Z</time>
      </trkpt>
      <trkpt lat="48.99014" lon="0.08485">
        <ele>174</ele>
        <time>2021-08-08T13:52:05Z</time>
      </trkpt>
      <trkpt lat="48.9902" lon="0.0848">
        <ele>174</ele>
        <time>2021-08-08T13:52:06Z</time>
      </trkpt>
      <trkpt lat="48.99026" lon="0.08477">
        <ele>174</ele>
        <time>2021-08-08T13:52:07Z</time>
      </trkpt>
      <trkpt lat="48.9903" lon="0.08473">
        <ele>174</ele>
        <time>2021-08-08T13:52:08Z</time>
      </trkpt>
      <trkpt lat="48.99036" lon="0.0847">
        <ele>174</ele>
        <time>2021-08-08T13:52:09Z</time>
      </trkpt>
      <trkpt lat="48.9904" lon="0.08466">
        <ele>174</ele>
        <time>2021-08-08T13:52:10Z</time>
      </trkpt>
      <trkpt lat="48.99044" lon="0.08462">
        <ele>174</ele>
        <time>2021-08-08T13:52:11Z</time>
      </trkpt>
      <trkpt lat="48.99046" lon="0.0846">
        <ele>174</ele>
        <time>2021-08-08T13:52:12Z</time>
      </trkpt>
      <trkpt lat="48.99048" lon="0.08457">
        <ele>174</ele>
        <time>2021-08-08T13:52:13Z</time>
      </trkpt>
      <trkpt lat="48.9905" lon="0.08455">
        <ele>174</ele>
        <time>2021-08-08T13:52:14Z</time>
      </trkpt>
      <trkpt lat="48.99052" lon="0.08455">
        <ele>174</ele>
        <time>2021-08-08T13:52:15Z</time>
      </trkpt>
      <trkpt lat="48.99051" lon="0.08454">
        <ele>174</ele>
        <time>2021-08-08T13:52:16Z</time>
      </trkpt>
      <trkpt lat="48.99051" lon="0.08455">
        <ele>174</ele>
        <time>2021-08-08T13:52:17Z</time>
      </trkpt>
      <trkpt lat="48.99051" lon="0.08456">
        <ele>174</ele>
        <time>2021-08-08T13:52:18Z</time>
      </trkpt>
      <trkpt lat="48.9905" lon="0.08458">
        <ele>174</ele>
        <time>2021-08-08T13:52:19Z</time>
      </trkpt>
      <trkpt lat="48.9905" lon="0.0846">
        <ele>174</ele>
        <time>2021-08-08T13:52:20Z</time>
      </trkpt>
      <trkpt lat="48.99048" lon="0.08462">
        <ele>174</ele>
        <time>2021-08-08T13:52:21Z</time>
      </trkpt>
      <trkpt lat="48.99047" lon="0.08464">
        <ele>174</ele>
        <time>2021-08-08T13:52:22Z</time>
      </trkpt>
      <trkpt lat="48.99044" lon="0.08466">
        <ele>174</ele>
        <time>2021-08-08T13:52:23Z</time>
      </trkpt>
      <trkpt lat="48.99041" lon="0.08468">
        <ele>174</ele>
        <time>2021-08-08T13:52:24Z</time>
      </trkpt>
      <trkpt lat="48.99037" lon="0.08471">
        <ele>174</ele>
        <time>2021-08-08T13:52:25Z</time>
      </trkpt>
      <trkpt lat="48.99034" lon="0.08474">
        <ele>173.99</ele>
        <time>2021-08-08T13:52:26Z</time>
      </trkpt>
      <trkpt lat="48.99031" lon="0.08477">
        <ele>173.99</ele>
        <time>2021-08-08T13:52:27Z</time>
      </trkpt>
      <trkpt lat="48.99027" lon="0.08479">
        <ele>174</ele>
        <time>2021-08-08T13:52:28Z</time>
      </trkpt>
      <trkpt lat="48.99023" lon="0.08482">
        <ele>174</ele>
        <time>2021-08-08T13:52:29Z</time>
      </trkpt>
      <trkpt lat="48.99019" lon="0.08484">
        <ele>174</ele>
        <time>2021-08-08T13:52:30Z</time>
      </trkpt>
      <trkpt lat="48.99015" lon="0.08486">
        <ele>174</ele>
        <time>2021-08-08T13:52:31Z</time>
      </trkpt>
      <trkpt lat="48.9901" lon="0.08486">
        <ele>174</ele>
        <time>2021-08-08T13:52:32Z</time>
      </trkpt>
      <trkpt lat="48.99005" lon="0.08484">
        <ele>174</ele>
        <time>2021-08-08T13:52:33Z</time>
      </trkpt>
      <trkpt lat="48.99001" lon="0.08482">
        <ele>174</ele>
        <time>2021-08-08T13:52:34Z</time>
      </trkpt>
      <trkpt lat="48.98996" lon="0.08479">
        <ele>174</ele>
        <time>2021-08-08T13:52:35Z</time>
      </trkpt>
      <trkpt lat="48.98992" lon="0.08476">
        <ele>174</ele>
        <time>2021-08-08T13:52:36Z</time>
      </trkpt>
      <trkpt lat="48.98987" lon="0.08474">
        <ele>174</ele>
        <time>2021-08-08T13:52:37Z</time>
      </trkpt>
      <trkpt lat="48.98982" lon="0.08472">
        <ele>174</ele>
        <time>2021-08-08T13:52:38Z</time>
      </trkpt>
      <trkpt lat="48.98977" lon="0.08469">
        <ele>174</ele>
        <time>2021-08-08T13:52:39Z</time>
      </trkpt>
      <trkpt lat="48.98973" lon="0.08467">
        <ele>174</ele>
        <time>2021-08-08T13:52:40Z</time>
      </trkpt>
      <trkpt lat="48.98968" lon="0.08465">
        <ele>174</ele>
        <time>2021-08-08T13:52:41Z</time>
      </trkpt>
      <trkpt lat="48.98963" lon="0.08463">
        <ele>174</ele>
        <time>2021-08-08T13:52:42Z</time>
      </trkpt>
      <trkpt lat="48.98958" lon="0.08462">
        <ele>174</ele>
        <time>2021-08-08T13:52:43Z</time>
      </trkpt>
      <trkpt lat="48.98954" lon="0.08462">
        <ele>174</ele>
        <time>2021-08-08T13:52:44Z</time>
      </trkpt>
      <trkpt lat="48.98948" lon="0.08462">
        <ele>174</ele>
        <time>2021-08-08T13:52:45Z</time>
      </trkpt>
      <trkpt lat="48.98943" lon="0.08462">
        <ele>174</ele>
        <time>2021-08-08T13:52:46Z</time>
      </trkpt>
      <trkpt lat="48.98938" lon="0.08462">
        <ele>174</ele>
        <time>2021-08-08T13:52:47Z</time>
      </trkpt>
      <trkpt lat="48.98932" lon="0.08462">
        <ele>174</ele>
        <time>2021-08-08T13:52:48Z</time>
      </trkpt>
      <trkpt lat="48.98926" lon="0.08461">
        <ele>174</ele>
        <time>2021-08-08T13:52:49Z</time>
      </trkpt>
      <trkpt lat="48.9892" lon="0.0846">
        <ele>174</ele>
        <time>2021-08-08T13:52:50Z</time>
      </trkpt>
      <trkpt lat="48.98914" lon="0.0846">
        <ele>174</ele>
        <time>2021-08-08T13:52:51Z</time>
      </trkpt>
      <trkpt lat="48.98908" lon="0.08459">
        <ele>174</ele>
        <time>2021-08-08T13:52:52Z</time>
      </trkpt>
      <trkpt lat="48.98903" lon="0.08459">
        <ele>174</ele>
        <time>2021-08-08T13:52:53Z</time>
      </trkpt>
      <trkpt lat="48.98897" lon="0.08458">
        <ele>174</ele>
        <time>2021-08-08T13:52:54Z</time>
      </trkpt>
      <trkpt lat="48.98889" lon="0.08459">
        <ele>174</ele>
        <time>2021-08-08T13:52:55Z</time>
      </trkpt>
      <trkpt lat="48.98883" lon="0.0846">
        <ele>174.16</ele>
        <time>2021-08-08T13:52:56Z</time>
      </trkpt>
      <trkpt lat="48.98877" lon="0.0846">
        <ele>174.35</ele>
        <time>2021-08-08T13:52:57Z</time>
      </trkpt>
      <trkpt lat="48.98871" lon="0.08462">
        <ele>174.56</ele>
        <time>2021-08-08T13:52:58Z</time>
      </trkpt>
      <trkpt lat="48.98864" lon="0.08463">
        <ele>174.79</ele>
        <time>2021-08-08T13:52:59Z</time>
      </trkpt>
      <trkpt lat="48.98858" lon="0.08464">
        <ele>174.94</ele>
        <time>2021-08-08T13:53:00Z</time>
      </trkpt>
      <trkpt lat="48.98851" lon="0.08466">
        <ele>174.98</ele>
        <time>2021-08-08T13:53:01Z</time>
      </trkpt>
      <trkpt lat="48.98844" lon="0.08467">
        <ele>174.99</ele>
        <time>2021-08-08T13:53:02Z</time>
      </trkpt>
      <trkpt lat="48.98837" lon="0.08467">
        <ele>175</ele>
        <time>2021-08-08T13:53:03Z</time>
      </trkpt>
      <trkpt lat="48.9883" lon="0.08468">
        <ele>175.09</ele>
        <time>2021-08-08T13:53:04Z</time>
      </trkpt>
      <trkpt lat="48.98824" lon="0.08468">
        <ele>175.27</ele>
        <time>2021-08-08T13:53:05Z</time>
      </trkpt>
      <trkpt lat="48.98818" lon="0.08468">
        <ele>175.48</ele>
        <time>2021-08-08T13:53:06Z</time>
      </trkpt>
      <trkpt lat="48.98811" lon="0.08467">
        <ele>175.69</ele>
        <time>2021-08-08T13:53:07Z</time>
      </trkpt>
      <trkpt lat="48.98805" lon="0.08466">
        <ele>175.91</ele>
        <time>2021-08-08T13:53:08Z</time>
      </trkpt>
      <trkpt lat="48.98799" lon="0.08467">
        <ele>175.97</ele>
        <time>2021-08-08T13:53:09Z</time>
      </trkpt>
      <trkpt lat="48.98792" lon="0.08467">
        <ele>175.99</ele>
        <time>2021-08-08T13:53:10Z</time>
      </trkpt>
      <trkpt lat="48.98787" lon="0.08466">
        <ele>176</ele>
        <time>2021-08-08T13:53:11Z</time>
      </trkpt>
      <trkpt lat="48.9878" lon="0.08466">
        <ele>176</ele>
        <time>2021-08-08T13:53:12Z</time>
      </trkpt>
      <trkpt lat="48.98774" lon="0.08466">
        <ele>176.11</ele>
        <time>2021-08-08T13:53:13Z</time>
      </trkpt>
      <trkpt lat="48.98767" lon="0.08467">
        <ele>176.31</ele>
        <time>2021-08-08T13:53:14Z</time>
      </trkpt>
      <trkpt lat="48.9876" lon="0.08469">
        <ele>176.54</ele>
        <time>2021-08-08T13:53:15Z</time>
      </trkpt>
      <trkpt lat="48.98753" lon="0.08471">
        <ele>176.78</ele>
        <time>2021-08-08T13:53:16Z</time>
      </trkpt>
      <trkpt lat="48.98747" lon="0.08474">
        <ele>176.91</ele>
        <time>2021-08-08T13:53:17Z</time>
      </trkpt>
      <trkpt lat="48.98741" lon="0.08476">
        <ele>176.9</ele>
        <time>2021-08-08T13:53:18Z</time>
      </trkpt>
      <trkpt lat="48.98734" lon="0.0848">
        <ele>176.89</ele>
        <time>2021-08-08T13:53:19Z</time>
      </trkpt>
      <trkpt lat="48.98728" lon="0.08484">
        <ele>176.9</ele>
        <time>2021-08-08T13:53:20Z</time>
      </trkpt>
      <trkpt lat="48.98723" lon="0.08488">
        <ele>176.96</ele>
        <time>2021-08-08T13:53:21Z</time>
      </trkpt>
      <trkpt lat="48.98718" lon="0.08492">
        <ele>176.99</ele>
        <time>2021-08-08T13:53:22Z</time>
      </trkpt>
      <trkpt lat="48.98713" lon="0.08495">
        <ele>177</ele>
        <time>2021-08-08T13:53:23Z</time>
      </trkpt>
      <trkpt lat="48.98707" lon="0.085">
        <ele>177</ele>
        <time>2021-08-08T13:53:24Z</time>
      </trkpt>
      <trkpt lat="48.98703" lon="0.08504">
        <ele>177</ele>
        <time>2021-08-08T13:53:25Z</time>
      </trkpt>
      <trkpt lat="48.98699" lon="0.08509">
        <ele>177</ele>
        <time>2021-08-08T13:53:26Z</time>
      </trkpt>
      <trkpt lat="48.98695" lon="0.08513">
        <ele>177</ele>
        <time>2021-08-08T13:53:27Z</time>
      </trkpt>
      <trkpt lat="48.9869" lon="0.08517">
        <ele>177.12</ele>
        <time>2021-08-08T13:53:28Z</time>
      </trkpt>
      <trkpt lat="48.98685" lon="0.0852">
        <ele>177.28</ele>
        <time>2021-08-08T13:53:29Z</time>
      </trkpt>
      <trkpt lat="48.9868" lon="0.08524">
        <ele>177.44</ele>
        <time>2021-08-08T13:53:30Z</time>
      </trkpt>
      <trkpt lat="48.98675" lon="0.08527">
        <ele>177.62</ele>
        <time>2021-08-08T13:53:31Z</time>
      </trkpt>
      <trkpt lat="48.9867" lon="0.0853">
        <ele>177.8</ele>
        <time>2021-08-08T13:53:32Z</time>
      </trkpt>
      <trkpt lat="48.98665" lon="0.08534">
        <ele>177.94</ele>
        <time>2021-08-08T13:53:33Z</time>
      </trkpt>
      <trkpt lat="48.98659" lon="0.08537">
        <ele>177.98</ele>
        <time>2021-08-08T13:53:34Z</time>
      </trkpt>
      <trkpt lat="48.98653" lon="0.08541">
        <ele>177.99</ele>
        <time>2021-08-08T13:53:35Z</time>
      </trkpt>
      <trkpt lat="48.98648" lon="0.08545">
        <ele>178</ele>
        <time>2021-08-08T13:53:36Z</time>
      </trkpt>
      <trkpt lat="48.98643" lon="0.08549">
        <ele>178</ele>
        <time>2021-08-08T13:53:37Z</time>
      </trkpt>
      <trkpt lat="48.98638" lon="0.08553">
        <ele>178.03</ele>
        <time>2021-08-08T13:53:38Z</time>
      </trkpt>
      <trkpt lat="48.98633" lon="0.08557">
        <ele>178.16</ele>
        <time>2021-08-08T13:53:39Z</time>
      </trkpt>
      <trkpt lat="48.98627" lon="0.08562">
        <ele>178.34</ele>
        <time>2021-08-08T13:53:40Z</time>
      </trkpt>
      <trkpt lat="48.98623" lon="0.08566">
        <ele>178.51</ele>
        <time>2021-08-08T13:53:41Z</time>
      </trkpt>
      <trkpt lat="48.98618" lon="0.08571">
        <ele>178.67</ele>
        <time>2021-08-08T13:53:42Z</time>
      </trkpt>
      <trkpt lat="48.98614" lon="0.08575">
        <ele>178.84</ele>
        <time>2021-08-08T13:53:43Z</time>
      </trkpt>
      <trkpt lat="48.9861" lon="0.0858">
        <ele>178.95</ele>
        <time>2021-08-08T13:53:44Z</time>
      </trkpt>
      <trkpt lat="48.98607" lon="0.08583">
        <ele>178.99</ele>
        <time>2021-08-08T13:53:45Z</time>
      </trkpt>
      <trkpt lat="48.98605" lon="0.08583">
        <ele>179</ele>
        <time>2021-08-08T13:53:46Z</time>
      </trkpt>
      <trkpt lat="48.98603" lon="0.08582">
        <ele>179</ele>
        <time>2021-08-08T13:53:47Z</time>
      </trkpt>
      <trkpt lat="48.98603" lon="0.08579">
        <ele>179</ele>
        <time>2021-08-08T13:53:48Z</time>
      </trkpt>
      <trkpt lat="48.98603" lon="0.08573">
        <ele>179</ele>
        <time>2021-08-08T13:53:49Z</time>
      </trkpt>
      <trkpt lat="48.98603" lon="0.08567">
        <ele>179</ele>
        <time>2021-08-08T13:53:50Z</time>
      </trkpt>
      <trkpt lat="48.98603" lon="0.08561">
        <ele>179</ele>
        <time>2021-08-08T13:53:51Z</time>
      </trkpt>
      <trkpt lat="48.98604" lon="0.08553">
        <ele>179</ele>
        <time>2021-08-08T13:53:52Z</time>
      </trkpt>
      <trkpt lat="48.98604" lon="0.08547">
        <ele>179</ele>
        <time>2021-08-08T13:53:53Z</time>
      </trkpt>
      <trkpt lat="48.98605" lon="0.08541">
        <ele>179</ele>
        <time>2021-08-08T13:53:54Z</time>
      </trkpt>
      <trkpt lat="48.98605" lon="0.08535">
        <ele>179</ele>
        <time>2021-08-08T13:53:55Z</time>
      </trkpt>
      <trkpt lat="48.98605" lon="0.08529">
        <ele>179</ele>
        <time>2021-08-08T13:53:56Z</time>
      </trkpt>
      <trkpt lat="48.98605" lon="0.08523">
        <ele>179</ele>
        <time>2021-08-08T13:53:57Z</time>
      </trkpt>
      <trkpt lat="48.98604" lon="0.08516">
        <ele>179</ele>
        <time>2021-08-08T13:53:58Z</time>
      </trkpt>
      <trkpt lat="48.98603" lon="0.08509">
        <ele>179</ele>
        <time>2021-08-08T13:53:59Z</time>
      </trkpt>
      <trkpt lat="48.98603" lon="0.08502">
        <ele>179</ele>
        <time>2021-08-08T13:54:00Z</time>
      </trkpt>
      <trkpt lat="48.98602" lon="0.08495">
        <ele>179</ele>
        <time>2021-08-08T13:54:01Z</time>
      </trkpt>
      <trkpt lat="48.98602" lon="0.08488">
        <ele>179</ele>
        <time>2021-08-08T13:54:02Z</time>
      </trkpt>
      <trkpt lat="48.98601" lon="0.08481">
        <ele>179</ele>
        <time>2021-08-08T13:54:03Z</time>
      </trkpt>
      <trkpt lat="48.98601" lon="0.08474">
        <ele>179</ele>
        <time>2021-08-08T13:54:04Z</time>
      </trkpt>
      <trkpt lat="48.986" lon="0.08466">
        <ele>179</ele>
        <time>2021-08-08T13:54:05Z</time>
      </trkpt>
      <trkpt lat="48.986" lon="0.08457">
        <ele>179</ele>
        <time>2021-08-08T13:54:06Z</time>
      </trkpt>
      <trkpt lat="48.986" lon="0.08447">
        <ele>179</ele>
        <time>2021-08-08T13:54:07Z</time>
      </trkpt>
      <trkpt lat="48.98601" lon="0.08438">
        <ele>178.9</ele>
        <time>2021-08-08T13:54:08Z</time>
      </trkpt>
      <trkpt lat="48.98602" lon="0.0843">
        <ele>178.73</ele>
        <time>2021-08-08T13:54:09Z</time>
      </trkpt>
      <trkpt lat="48.98602" lon="0.08423">
        <ele>178.55</ele>
        <time>2021-08-08T13:54:10Z</time>
      </trkpt>
      <trkpt lat="48.98603" lon="0.08416">
        <ele>178.36</ele>
        <time>2021-08-08T13:54:11Z</time>
      </trkpt>
      <trkpt lat="48.98604" lon="0.08407">
        <ele>178.28</ele>
        <time>2021-08-08T13:54:12Z</time>
      </trkpt>
      <trkpt lat="48.98606" lon="0.08396">
        <ele>178.22</ele>
        <time>2021-08-08T13:54:13Z</time>
      </trkpt>
      <trkpt lat="48.98607" lon="0.08387">
        <ele>178.15</ele>
        <time>2021-08-08T13:54:14Z</time>
      </trkpt>
      <trkpt lat="48.98609" lon="0.08378">
        <ele>178.07</ele>
        <time>2021-08-08T13:54:15Z</time>
      </trkpt>
      <trkpt lat="48.9861" lon="0.08369">
        <ele>178.03</ele>
        <time>2021-08-08T13:54:16Z</time>
      </trkpt>
      <trkpt lat="48.98612" lon="0.08361">
        <ele>178.01</ele>
        <time>2021-08-08T13:54:17Z</time>
      </trkpt>
      <trkpt lat="48.98613" lon="0.08354">
        <ele>177.99</ele>
        <time>2021-08-08T13:54:18Z</time>
      </trkpt>
      <trkpt lat="48.98614" lon="0.08346">
        <ele>177.95</ele>
        <time>2021-08-08T13:54:19Z</time>
      </trkpt>
      <trkpt lat="48.98615" lon="0.08338">
        <ele>177.9</ele>
        <time>2021-08-08T13:54:20Z</time>
      </trkpt>
      <trkpt lat="48.98616" lon="0.08329">
        <ele>177.76</ele>
        <time>2021-08-08T13:54:21Z</time>
      </trkpt>
      <trkpt lat="48.98616" lon="0.08322">
        <ele>177.55</ele>
        <time>2021-08-08T13:54:22Z</time>
      </trkpt>
      <trkpt lat="48.98617" lon="0.08313">
        <ele>177.32</ele>
        <time>2021-08-08T13:54:23Z</time>
      </trkpt>
      <trkpt lat="48.98618" lon="0.08306">
        <ele>177.1</ele>
        <time>2021-08-08T13:54:24Z</time>
      </trkpt>
      <trkpt lat="48.9862" lon="0.08299">
        <ele>176.97</ele>
        <time>2021-08-08T13:54:25Z</time>
      </trkpt>
      <trkpt lat="48.98622" lon="0.0829">
        <ele>176.84</ele>
        <time>2021-08-08T13:54:26Z</time>
      </trkpt>
      <trkpt lat="48.98624" lon="0.08283">
        <ele>176.7</ele>
        <time>2021-08-08T13:54:27Z</time>
      </trkpt>
      <trkpt lat="48.98625" lon="0.08276">
        <ele>176.54</ele>
        <time>2021-08-08T13:54:28Z</time>
      </trkpt>
      <trkpt lat="48.98626" lon="0.08267">
        <ele>176.37</ele>
        <time>2021-08-08T13:54:29Z</time>
      </trkpt>
      <trkpt lat="48.98627" lon="0.08256">
        <ele>176.17</ele>
        <time>2021-08-08T13:54:30Z</time>
      </trkpt>
      <trkpt lat="48.98628" lon="0.08248">
        <ele>176.02</ele>
        <time>2021-08-08T13:54:31Z</time>
      </trkpt>
      <trkpt lat="48.98629" lon="0.0824">
        <ele>175.84</ele>
        <time>2021-08-08T13:54:32Z</time>
      </trkpt>
      <trkpt lat="48.98629" lon="0.08232">
        <ele>175.65</ele>
        <time>2021-08-08T13:54:33Z</time>
      </trkpt>
      <trkpt lat="48.9863" lon="0.08222">
        <ele>175.41</ele>
        <time>2021-08-08T13:54:34Z</time>
      </trkpt>
      <trkpt lat="48.98632" lon="0.08214">
        <ele>175.09</ele>
        <time>2021-08-08T13:54:35Z</time>
      </trkpt>
      <trkpt lat="48.98634" lon="0.08207">
        <ele>174.77</ele>
        <time>2021-08-08T13:54:36Z</time>
      </trkpt>
      <trkpt lat="48.98634" lon="0.08198">
        <ele>174.46</ele>
        <time>2021-08-08T13:54:37Z</time>
      </trkpt>
      <trkpt lat="48.98634" lon="0.08191">
        <ele>174.25</ele>
        <time>2021-08-08T13:54:38Z</time>
      </trkpt>
      <trkpt lat="48.98632" lon="0.08182">
        <ele>174.17</ele>
        <time>2021-08-08T13:54:39Z</time>
      </trkpt>
      <trkpt lat="48.98631" lon="0.08174">
        <ele>174.1</ele>
        <time>2021-08-08T13:54:40Z</time>
      </trkpt>
      <trkpt lat="48.98631" lon="0.08167">
        <ele>174.03</ele>
        <time>2021-08-08T13:54:41Z</time>
      </trkpt>
      <trkpt lat="48.9863" lon="0.08157">
        <ele>173.62</ele>
        <time>2021-08-08T13:54:42Z</time>
      </trkpt>
      <trkpt lat="48.98629" lon="0.08151">
        <ele>173.22</ele>
        <time>2021-08-08T13:54:43Z</time>
      </trkpt>
      <trkpt lat="48.98629" lon="0.08137">
        <ele>172.59</ele>
        <time>2021-08-08T13:54:44Z</time>
      </trkpt>
      <trkpt lat="48.9863" lon="0.08128">
        <ele>172.13</ele>
        <time>2021-08-08T13:54:45Z</time>
      </trkpt>
      <trkpt lat="48.98633" lon="0.0812">
        <ele>171.72</ele>
        <time>2021-08-08T13:54:46Z</time>
      </trkpt>
      <trkpt lat="48.98634" lon="0.08113">
        <ele>171.38</ele>
        <time>2021-08-08T13:54:47Z</time>
      </trkpt>
      <trkpt lat="48.98637" lon="0.08107">
        <ele>171.06</ele>
        <time>2021-08-08T13:54:48Z</time>
      </trkpt>
      <trkpt lat="48.98641" lon="0.08102">
        <ele>170.8</ele>
        <time>2021-08-08T13:54:49Z</time>
      </trkpt>
      <trkpt lat="48.98646" lon="0.08097">
        <ele>170.6</ele>
        <time>2021-08-08T13:54:50Z</time>
      </trkpt>
      <trkpt lat="48.9865" lon="0.08093">
        <ele>170.43</ele>
        <time>2021-08-08T13:54:51Z</time>
      </trkpt>
      <trkpt lat="48.98655" lon="0.08089">
        <ele>170.27</ele>
        <time>2021-08-08T13:54:52Z</time>
      </trkpt>
      <trkpt lat="48.9866" lon="0.08084">
        <ele>170.1</ele>
        <time>2021-08-08T13:54:53Z</time>
      </trkpt>
      <trkpt lat="48.98665" lon="0.0808">
        <ele>169.84</ele>
        <time>2021-08-08T13:54:54Z</time>
      </trkpt>
      <trkpt lat="48.9867" lon="0.08075">
        <ele>169.47</ele>
        <time>2021-08-08T13:54:55Z</time>
      </trkpt>
      <trkpt lat="48.98676" lon="0.0807">
        <ele>169.05</ele>
        <time>2021-08-08T13:54:56Z</time>
      </trkpt>
      <trkpt lat="48.98681" lon="0.08066">
        <ele>168.69</ele>
        <time>2021-08-08T13:54:57Z</time>
      </trkpt>
      <trkpt lat="48.98686" lon="0.08062">
        <ele>168.42</ele>
        <time>2021-08-08T13:54:58Z</time>
      </trkpt>
      <trkpt lat="48.98691" lon="0.08058">
        <ele>168.2</ele>
        <time>2021-08-08T13:54:59Z</time>
      </trkpt>
      <trkpt lat="48.98696" lon="0.08055">
        <ele>168</ele>
        <time>2021-08-08T13:55:00Z</time>
      </trkpt>
      <trkpt lat="48.98702" lon="0.08052">
        <ele>167.64</ele>
        <time>2021-08-08T13:55:01Z</time>
      </trkpt>
      <trkpt lat="48.98708" lon="0.08049">
        <ele>167.22</ele>
        <time>2021-08-08T13:55:02Z</time>
      </trkpt>
      <trkpt lat="48.98713" lon="0.08045">
        <ele>166.77</ele>
        <time>2021-08-08T13:55:03Z</time>
      </trkpt>
      <trkpt lat="48.98718" lon="0.08041">
        <ele>166.29</ele>
        <time>2021-08-08T13:55:04Z</time>
      </trkpt>
      <trkpt lat="48.98723" lon="0.08036">
        <ele>165.81</ele>
        <time>2021-08-08T13:55:05Z</time>
      </trkpt>
      <trkpt lat="48.98729" lon="0.08031">
        <ele>165.41</ele>
        <time>2021-08-08T13:55:06Z</time>
      </trkpt>
      <trkpt lat="48.98735" lon="0.08026">
        <ele>165.07</ele>
        <time>2021-08-08T13:55:07Z</time>
      </trkpt>
      <trkpt lat="48.98742" lon="0.0802">
        <ele>164.82</ele>
        <time>2021-08-08T13:55:08Z</time>
      </trkpt>
      <trkpt lat="48.98748" lon="0.08014">
        <ele>164.59</ele>
        <time>2021-08-08T13:55:09Z</time>
      </trkpt>
      <trkpt lat="48.98755" lon="0.08008">
        <ele>164.12</ele>
        <time>2021-08-08T13:55:10Z</time>
      </trkpt>
      <trkpt lat="48.98761" lon="0.08004">
        <ele>163.55</ele>
        <time>2021-08-08T13:55:11Z</time>
      </trkpt>
      <trkpt lat="48.98766" lon="0.07996">
        <ele>162.9</ele>
        <time>2021-08-08T13:55:12Z</time>
      </trkpt>
      <trkpt lat="48.98771" lon="0.07988">
        <ele>162.25</ele>
        <time>2021-08-08T13:55:13Z</time>
      </trkpt>
      <trkpt lat="48.98777" lon="0.0798">
        <ele>161.6</ele>
        <time>2021-08-08T13:55:14Z</time>
      </trkpt>
      <trkpt lat="48.98782" lon="0.07972">
        <ele>160.95</ele>
        <time>2021-08-08T13:55:15Z</time>
      </trkpt>
      <trkpt lat="48.98787" lon="0.07963">
        <ele>160.36</ele>
        <time>2021-08-08T13:55:16Z</time>
      </trkpt>
      <trkpt lat="48.98792" lon="0.07955">
        <ele>159.86</ele>
        <time>2021-08-08T13:55:17Z</time>
      </trkpt>
      <trkpt lat="48.98797" lon="0.07944">
        <ele>159.47</ele>
        <time>2021-08-08T13:55:18Z</time>
      </trkpt>
      <trkpt lat="48.98804" lon="0.07937">
        <ele>158.81</ele>
        <time>2021-08-08T13:55:19Z</time>
      </trkpt>
      <trkpt lat="48.98809" lon="0.07929">
        <ele>157.94</ele>
        <time>2021-08-08T13:55:20Z</time>
      </trkpt>
      <trkpt lat="48.98814" lon="0.0792">
        <ele>156.99</ele>
        <time>2021-08-08T13:55:21Z</time>
      </trkpt>
      <trkpt lat="48.9882" lon="0.07912">
        <ele>156.12</ele>
        <time>2021-08-08T13:55:22Z</time>
      </trkpt>
      <trkpt lat="48.98827" lon="0.07904">
        <ele>155.27</ele>
        <time>2021-08-08T13:55:23Z</time>
      </trkpt>
      <trkpt lat="48.98834" lon="0.07896">
        <ele>154.47</ele>
        <time>2021-08-08T13:55:24Z</time>
      </trkpt>
      <trkpt lat="48.98842" lon="0.07888">
        <ele>153.49</ele>
        <time>2021-08-08T13:55:25Z</time>
      </trkpt>
      <trkpt lat="48.98849" lon="0.0788">
        <ele>152.6</ele>
        <time>2021-08-08T13:55:26Z</time>
      </trkpt>
      <trkpt lat="48.98857" lon="0.07873">
        <ele>151.74</ele>
        <time>2021-08-08T13:55:27Z</time>
      </trkpt>
      <trkpt lat="48.98864" lon="0.07867">
        <ele>151.13</ele>
        <time>2021-08-08T13:55:28Z</time>
      </trkpt>
      <trkpt lat="48.98871" lon="0.07864">
        <ele>150.76</ele>
        <time>2021-08-08T13:55:29Z</time>
      </trkpt>
      <trkpt lat="48.98878" lon="0.0786">
        <ele>150.5</ele>
        <time>2021-08-08T13:55:30Z</time>
      </trkpt>
      <trkpt lat="48.98883" lon="0.07856">
        <ele>150.26</ele>
        <time>2021-08-08T13:55:31Z</time>
      </trkpt>
      <trkpt lat="48.9889" lon="0.07851">
        <ele>150.04</ele>
        <time>2021-08-08T13:55:32Z</time>
      </trkpt>
      <trkpt lat="48.98895" lon="0.07846">
        <ele>149.7</ele>
        <time>2021-08-08T13:55:33Z</time>
      </trkpt>
      <trkpt lat="48.989" lon="0.07841">
        <ele>149.33</ele>
        <time>2021-08-08T13:55:34Z</time>
      </trkpt>
      <trkpt lat="48.98907" lon="0.07836">
        <ele>148.9</ele>
        <time>2021-08-08T13:55:35Z</time>
      </trkpt>
      <trkpt lat="48.98913" lon="0.07831">
        <ele>148.39</ele>
        <time>2021-08-08T13:55:36Z</time>
      </trkpt>
      <trkpt lat="48.98921" lon="0.07828">
        <ele>147.87</ele>
        <time>2021-08-08T13:55:37Z</time>
      </trkpt>
      <trkpt lat="48.98929" lon="0.07823">
        <ele>147.39</ele>
        <time>2021-08-08T13:55:38Z</time>
      </trkpt>
      <trkpt lat="48.98938" lon="0.07819">
        <ele>146.94</ele>
        <time>2021-08-08T13:55:39Z</time>
      </trkpt>
      <trkpt lat="48.98946" lon="0.07815">
        <ele>146.42</ele>
        <time>2021-08-08T13:55:40Z</time>
      </trkpt>
      <trkpt lat="48.98952" lon="0.0781">
        <ele>145.65</ele>
        <time>2021-08-08T13:55:41Z</time>
      </trkpt>
      <trkpt lat="48.98958" lon="0.07804">
        <ele>144.82</ele>
        <time>2021-08-08T13:55:42Z</time>
      </trkpt>
      <trkpt lat="48.98962" lon="0.07795">
        <ele>143.95</ele>
        <time>2021-08-08T13:55:43Z</time>
      </trkpt>
      <trkpt lat="48.98966" lon="0.07788">
        <ele>143.22</ele>
        <time>2021-08-08T13:55:44Z</time>
      </trkpt>
      <trkpt lat="48.98969" lon="0.07784">
        <ele>142.68</ele>
        <time>2021-08-08T13:55:45Z</time>
      </trkpt>
      <trkpt lat="48.98971" lon="0.07781">
        <ele>142.38</ele>
        <time>2021-08-08T13:55:46Z</time>
      </trkpt>
      <trkpt lat="48.98971" lon="0.07781">
        <ele>142.26</ele>
        <time>2021-08-08T13:55:47Z</time>
      </trkpt>
      <trkpt lat="48.98971" lon="0.07781">
        <ele>142.22</ele>
        <time>2021-08-08T13:55:48Z</time>
      </trkpt>
      <trkpt lat="48.98971" lon="0.0778">
        <ele>142.21</ele>
        <time>2021-08-08T13:55:49Z</time>
      </trkpt>
      <trkpt lat="48.98971" lon="0.0778">
        <ele>142.21</ele>
        <time>2021-08-08T13:55:50Z</time>
      </trkpt>
      <trkpt lat="48.98971" lon="0.0778">
        <ele>142.21</ele>
        <time>2021-08-08T13:55:51Z</time>
      </trkpt>
      <trkpt lat="48.98971" lon="0.0778">
        <ele>142.21</ele>
        <time>2021-08-08T13:55:52Z</time>
      </trkpt>
      <trkpt lat="48.98973" lon="0.07774">
        <ele>141.94</ele>
        <time>2021-08-08T13:55:53Z</time>
      </trkpt>
      <trkpt lat="48.98974" lon="0.0777">
        <ele>141.72</ele>
        <time>2021-08-08T13:55:54Z</time>
      </trkpt>
      <trkpt lat="48.98974" lon="0.07765">
        <ele>141.5</ele>
        <time>2021-08-08T13:55:55Z</time>
      </trkpt>
      <trkpt lat="48.98975" lon="0.0776">
        <ele>141.25</ele>
        <time>2021-08-08T13:55:56Z</time>
      </trkpt>
      <trkpt lat="48.98977" lon="0.07756">
        <ele>140.96</ele>
        <time>2021-08-08T13:55:57Z</time>
      </trkpt>
      <trkpt lat="48.9898" lon="0.07752">
        <ele>140.63</ele>
        <time>2021-08-08T13:55:58Z</time>
      </trkpt>
      <trkpt lat="48.98984" lon="0.07748">
        <ele>140.26</ele>
        <time>2021-08-08T13:55:59Z</time>
      </trkpt>
      <trkpt lat="48.98988" lon="0.07744">
        <ele>139.79</ele>
        <time>2021-08-08T13:56:00Z</time>
      </trkpt>
      <trkpt lat="48.98992" lon="0.07741">
        <ele>139.33</ele>
        <time>2021-08-08T13:56:01Z</time>
      </trkpt>
      <trkpt lat="48.98997" lon="0.07736">
        <ele>138.88</ele>
        <time>2021-08-08T13:56:02Z</time>
      </trkpt>
      <trkpt lat="48.99" lon="0.07733">
        <ele>138.52</ele>
        <time>2021-08-08T13:56:03Z</time>
      </trkpt>
      <trkpt lat="48.99004" lon="0.0773">
        <ele>138.17</ele>
        <time>2021-08-08T13:56:04Z</time>
      </trkpt>
      <trkpt lat="48.99007" lon="0.07729">
        <ele>137.87</ele>
        <time>2021-08-08T13:56:05Z</time>
      </trkpt>
      <trkpt lat="48.99011" lon="0.07727">
        <ele>137.54</ele>
        <time>2021-08-08T13:56:06Z</time>
      </trkpt>
      <trkpt lat="48.99014" lon="0.07725">
        <ele>137.2</ele>
        <time>2021-08-08T13:56:07Z</time>
      </trkpt>
      <trkpt lat="48.99019" lon="0.07723">
        <ele>136.82</ele>
        <time>2021-08-08T13:56:08Z</time>
      </trkpt>
      <trkpt lat="48.99023" lon="0.07721">
        <ele>136.44</ele>
        <time>2021-08-08T13:56:09Z</time>
      </trkpt>
      <trkpt lat="48.99028" lon="0.07716">
        <ele>135.98</ele>
        <time>2021-08-08T13:56:10Z</time>
      </trkpt>
      <trkpt lat="48.99034" lon="0.07711">
        <ele>135.51</ele>
        <time>2021-08-08T13:56:11Z</time>
      </trkpt>
      <trkpt lat="48.9904" lon="0.07706">
        <ele>134.96</ele>
        <time>2021-08-08T13:56:12Z</time>
      </trkpt>
      <trkpt lat="48.99046" lon="0.07699">
        <ele>134.3</ele>
        <time>2021-08-08T13:56:13Z</time>
      </trkpt>
      <trkpt lat="48.99052" lon="0.07692">
        <ele>133.48</ele>
        <time>2021-08-08T13:56:14Z</time>
      </trkpt>
      <trkpt lat="48.99058" lon="0.07682">
        <ele>132.75</ele>
        <time>2021-08-08T13:56:15Z</time>
      </trkpt>
      <trkpt lat="48.99066" lon="0.07672">
        <ele>132.1</ele>
        <time>2021-08-08T13:56:16Z</time>
      </trkpt>
      <trkpt lat="48.99073" lon="0.07664">
        <ele>131.52</ele>
        <time>2021-08-08T13:56:17Z</time>
      </trkpt>
      <trkpt lat="48.99081" lon="0.07655">
        <ele>130.9</ele>
        <time>2021-08-08T13:56:18Z</time>
      </trkpt>
      <trkpt lat="48.9909" lon="0.07643">
        <ele>130.71</ele>
        <time>2021-08-08T13:56:19Z</time>
      </trkpt>
      <trkpt lat="48.99098" lon="0.07635">
        <ele>130.79</ele>
        <time>2021-08-08T13:56:20Z</time>
      </trkpt>
      <trkpt lat="48.99107" lon="0.07628">
        <ele>131.1</ele>
        <time>2021-08-08T13:56:21Z</time>
      </trkpt>
      <trkpt lat="48.99113" lon="0.07622">
        <ele>131.38</ele>
        <time>2021-08-08T13:56:22Z</time>
      </trkpt>
      <trkpt lat="48.9912" lon="0.07615">
        <ele>131.64</ele>
        <time>2021-08-08T13:56:23Z</time>
      </trkpt>
      <trkpt lat="48.99127" lon="0.07611">
        <ele>131.96</ele>
        <time>2021-08-08T13:56:24Z</time>
      </trkpt>
      <trkpt lat="48.99132" lon="0.07608">
        <ele>132.21</ele>
        <time>2021-08-08T13:56:25Z</time>
      </trkpt>
      <trkpt lat="48.99138" lon="0.07606">
        <ele>132.45</ele>
        <time>2021-08-08T13:56:26Z</time>
      </trkpt>
      <trkpt lat="48.99142" lon="0.07604">
        <ele>132.67</ele>
        <time>2021-08-08T13:56:27Z</time>
      </trkpt>
      <trkpt lat="48.99146" lon="0.07603">
        <ele>132.85</ele>
        <time>2021-08-08T13:56:28Z</time>
      </trkpt>
      <trkpt lat="48.9915" lon="0.07602">
        <ele>133.03</ele>
        <time>2021-08-08T13:56:29Z</time>
      </trkpt>
      <trkpt lat="48.99153" lon="0.07601">
        <ele>133.21</ele>
        <time>2021-08-08T13:56:30Z</time>
      </trkpt>
      <trkpt lat="48.99156" lon="0.076">
        <ele>133.36</ele>
        <time>2021-08-08T13:56:31Z</time>
      </trkpt>
      <trkpt lat="48.99159" lon="0.07599">
        <ele>133.49</ele>
        <time>2021-08-08T13:56:32Z</time>
      </trkpt>
      <trkpt lat="48.99161" lon="0.07598">
        <ele>133.57</ele>
        <time>2021-08-08T13:56:33Z</time>
      </trkpt>
      <trkpt lat="48.99163" lon="0.07597">
        <ele>133.69</ele>
        <time>2021-08-08T13:56:34Z</time>
      </trkpt>
      <trkpt lat="48.99165" lon="0.07596">
        <ele>133.77</ele>
        <time>2021-08-08T13:56:35Z</time>
      </trkpt>
      <trkpt lat="48.99168" lon="0.07595">
        <ele>133.9</ele>
        <time>2021-08-08T13:56:36Z</time>
      </trkpt>
      <trkpt lat="48.9917" lon="0.07595">
        <ele>134.12</ele>
        <time>2021-08-08T13:56:37Z</time>
      </trkpt>
      <trkpt lat="48.99173" lon="0.07596">
        <ele>134.42</ele>
        <time>2021-08-08T13:56:38Z</time>
      </trkpt>
      <trkpt lat="48.99176" lon="0.07597">
        <ele>134.83</ele>
        <time>2021-08-08T13:56:39Z</time>
      </trkpt>
      <trkpt lat="48.99179" lon="0.07598">
        <ele>135.24</ele>
        <time>2021-08-08T13:56:40Z</time>
      </trkpt>
      <trkpt lat="48.99182" lon="0.07598">
        <ele>135.58</ele>
        <time>2021-08-08T13:56:41Z</time>
      </trkpt>
      <trkpt lat="48.99185" lon="0.07599">
        <ele>135.99</ele>
        <time>2021-08-08T13:56:42Z</time>
      </trkpt>
      <trkpt lat="48.99189" lon="0.07599">
        <ele>136.39</ele>
        <time>2021-08-08T13:56:43Z</time>
      </trkpt>
      <trkpt lat="48.99194" lon="0.07601">
        <ele>136.99</ele>
        <time>2021-08-08T13:56:44Z</time>
      </trkpt>
      <trkpt lat="48.99198" lon="0.07603">
        <ele>137.51</ele>
        <time>2021-08-08T13:56:45Z</time>
      </trkpt>
      <trkpt lat="48.99202" lon="0.07603">
        <ele>137.84</ele>
        <time>2021-08-08T13:56:46Z</time>
      </trkpt>
      <trkpt lat="48.99206" lon="0.07602">
        <ele>138.11</ele>
        <time>2021-08-08T13:56:47Z</time>
      </trkpt>
      <trkpt lat="48.99211" lon="0.07601">
        <ele>138.37</ele>
        <time>2021-08-08T13:56:48Z</time>
      </trkpt>
      <trkpt lat="48.99215" lon="0.07599">
        <ele>138.54</ele>
        <time>2021-08-08T13:56:49Z</time>
      </trkpt>
      <trkpt lat="48.99219" lon="0.07597">
        <ele>138.68</ele>
        <time>2021-08-08T13:56:50Z</time>
      </trkpt>
      <trkpt lat="48.99223" lon="0.07595">
        <ele>138.82</ele>
        <time>2021-08-08T13:56:51Z</time>
      </trkpt>
      <trkpt lat="48.99227" lon="0.07593">
        <ele>138.98</ele>
        <time>2021-08-08T13:56:52Z</time>
      </trkpt>
      <trkpt lat="48.99229" lon="0.0759">
        <ele>139.02</ele>
        <time>2021-08-08T13:56:53Z</time>
      </trkpt>
      <trkpt lat="48.99232" lon="0.07588">
        <ele>139.05</ele>
        <time>2021-08-08T13:56:54Z</time>
      </trkpt>
      <trkpt lat="48.99234" lon="0.07585">
        <ele>139</ele>
        <time>2021-08-08T13:56:55Z</time>
      </trkpt>
      <trkpt lat="48.99236" lon="0.07583">
        <ele>138.94</ele>
        <time>2021-08-08T13:56:56Z</time>
      </trkpt>
      <trkpt lat="48.99238" lon="0.07581">
        <ele>138.97</ele>
        <time>2021-08-08T13:56:57Z</time>
      </trkpt>
      <trkpt lat="48.99241" lon="0.07578">
        <ele>138.99</ele>
        <time>2021-08-08T13:56:58Z</time>
      </trkpt>
      <trkpt lat="48.99245" lon="0.07578">
        <ele>139.18</ele>
        <time>2021-08-08T13:56:59Z</time>
      </trkpt>
      <trkpt lat="48.9925" lon="0.07576">
        <ele>139.39</ele>
        <time>2021-08-08T13:57:00Z</time>
      </trkpt>
      <trkpt lat="48.99254" lon="0.07574">
        <ele>139.66</ele>
        <time>2021-08-08T13:57:01Z</time>
      </trkpt>
      <trkpt lat="48.99259" lon="0.07572">
        <ele>139.87</ele>
        <time>2021-08-08T13:57:02Z</time>
      </trkpt>
      <trkpt lat="48.99263" lon="0.07568">
        <ele>139.99</ele>
        <time>2021-08-08T13:57:03Z</time>
      </trkpt>
      <trkpt lat="48.99267" lon="0.07567">
        <ele>140.19</ele>
        <time>2021-08-08T13:57:04Z</time>
      </trkpt>
      <trkpt lat="48.99272" lon="0.07564">
        <ele>140.39</ele>
        <time>2021-08-08T13:57:05Z</time>
      </trkpt>
      <trkpt lat="48.99276" lon="0.07562">
        <ele>140.47</ele>
        <time>2021-08-08T13:57:06Z</time>
      </trkpt>
      <trkpt lat="48.9928" lon="0.07559">
        <ele>140.55</ele>
        <time>2021-08-08T13:57:07Z</time>
      </trkpt>
      <trkpt lat="48.99284" lon="0.07555">
        <ele>140.64</ele>
        <time>2021-08-08T13:57:08Z</time>
      </trkpt>
      <trkpt lat="48.99289" lon="0.07551">
        <ele>140.74</ele>
        <time>2021-08-08T13:57:09Z</time>
      </trkpt>
      <trkpt lat="48.99293" lon="0.07545">
        <ele>140.7</ele>
        <time>2021-08-08T13:57:10Z</time>
      </trkpt>
      <trkpt lat="48.99296" lon="0.07539">
        <ele>140.52</ele>
        <time>2021-08-08T13:57:11Z</time>
      </trkpt>
      <trkpt lat="48.99299" lon="0.07534">
        <ele>140.28</ele>
        <time>2021-08-08T13:57:12Z</time>
      </trkpt>
      <trkpt lat="48.99302" lon="0.07529">
        <ele>140.02</ele>
        <time>2021-08-08T13:57:13Z</time>
      </trkpt>
      <trkpt lat="48.99306" lon="0.07525">
        <ele>139.88</ele>
        <time>2021-08-08T13:57:14Z</time>
      </trkpt>
      <trkpt lat="48.9931" lon="0.0752">
        <ele>139.89</ele>
        <time>2021-08-08T13:57:15Z</time>
      </trkpt>
      <trkpt lat="48.99315" lon="0.07515">
        <ele>139.93</ele>
        <time>2021-08-08T13:57:16Z</time>
      </trkpt>
      <trkpt lat="48.9932" lon="0.07509">
        <ele>139.94</ele>
        <time>2021-08-08T13:57:17Z</time>
      </trkpt>
      <trkpt lat="48.99326" lon="0.07505">
        <ele>139.92</ele>
        <time>2021-08-08T13:57:18Z</time>
      </trkpt>
      <trkpt lat="48.99331" lon="0.075">
        <ele>139.82</ele>
        <time>2021-08-08T13:57:19Z</time>
      </trkpt>
      <trkpt lat="48.99336" lon="0.07496">
        <ele>139.98</ele>
        <time>2021-08-08T13:57:20Z</time>
      </trkpt>
      <trkpt lat="48.99342" lon="0.07491">
        <ele>140.17</ele>
        <time>2021-08-08T13:57:21Z</time>
      </trkpt>
      <trkpt lat="48.99346" lon="0.07486">
        <ele>140.28</ele>
        <time>2021-08-08T13:57:22Z</time>
      </trkpt>
      <trkpt lat="48.9935" lon="0.07481">
        <ele>140.4</ele>
        <time>2021-08-08T13:57:23Z</time>
      </trkpt>
      <trkpt lat="48.99355" lon="0.07477">
        <ele>140.59</ele>
        <time>2021-08-08T13:57:24Z</time>
      </trkpt>
      <trkpt lat="48.99359" lon="0.07473">
        <ele>140.79</ele>
        <time>2021-08-08T13:57:25Z</time>
      </trkpt>
      <trkpt lat="48.99364" lon="0.07469">
        <ele>140.88</ele>
        <time>2021-08-08T13:57:26Z</time>
      </trkpt>
      <trkpt lat="48.99369" lon="0.07466">
        <ele>140.94</ele>
        <time>2021-08-08T13:57:27Z</time>
      </trkpt>
      <trkpt lat="48.99373" lon="0.07463">
        <ele>140.97</ele>
        <time>2021-08-08T13:57:28Z</time>
      </trkpt>
      <trkpt lat="48.99377" lon="0.0746">
        <ele>141.05</ele>
        <time>2021-08-08T13:57:29Z</time>
      </trkpt>
      <trkpt lat="48.99382" lon="0.07456">
        <ele>141.18</ele>
        <time>2021-08-08T13:57:30Z</time>
      </trkpt>
      <trkpt lat="48.99387" lon="0.07453">
        <ele>141.34</ele>
        <time>2021-08-08T13:57:31Z</time>
      </trkpt>
      <trkpt lat="48.99392" lon="0.07452">
        <ele>141.62</ele>
        <time>2021-08-08T13:57:32Z</time>
      </trkpt>
      <trkpt lat="48.99396" lon="0.0745">
        <ele>141.83</ele>
        <time>2021-08-08T13:57:33Z</time>
      </trkpt>
      <trkpt lat="48.994" lon="0.07448">
        <ele>142.03</ele>
        <time>2021-08-08T13:57:34Z</time>
      </trkpt>
      <trkpt lat="48.99404" lon="0.07447">
        <ele>142.26</ele>
        <time>2021-08-08T13:57:35Z</time>
      </trkpt>
      <trkpt lat="48.99408" lon="0.07448">
        <ele>142.61</ele>
        <time>2021-08-08T13:57:36Z</time>
      </trkpt>
      <trkpt lat="48.99412" lon="0.07448">
        <ele>142.94</ele>
        <time>2021-08-08T13:57:37Z</time>
      </trkpt>
      <trkpt lat="48.99416" lon="0.07448">
        <ele>143.22</ele>
        <time>2021-08-08T13:57:38Z</time>
      </trkpt>
      <trkpt lat="48.99419" lon="0.07449">
        <ele>143.43</ele>
        <time>2021-08-08T13:57:39Z</time>
      </trkpt>
      <trkpt lat="48.99423" lon="0.07449">
        <ele>143.63</ele>
        <time>2021-08-08T13:57:40Z</time>
      </trkpt>
      <trkpt lat="48.99427" lon="0.07449">
        <ele>143.75</ele>
        <time>2021-08-08T13:57:41Z</time>
      </trkpt>
      <trkpt lat="48.99429" lon="0.07448">
        <ele>143.81</ele>
        <time>2021-08-08T13:57:42Z</time>
      </trkpt>
      <trkpt lat="48.99431" lon="0.07446">
        <ele>143.73</ele>
        <time>2021-08-08T13:57:43Z</time>
      </trkpt>
      <trkpt lat="48.99434" lon="0.07443">
        <ele>143.6</ele>
        <time>2021-08-08T13:57:44Z</time>
      </trkpt>
      <trkpt lat="48.99438" lon="0.07441">
        <ele>143.54</ele>
        <time>2021-08-08T13:57:45Z</time>
      </trkpt>
      <trkpt lat="48.99443" lon="0.0744">
        <ele>143.57</ele>
        <time>2021-08-08T13:57:46Z</time>
      </trkpt>
      <trkpt lat="48.99447" lon="0.07437">
        <ele>143.58</ele>
        <time>2021-08-08T13:57:47Z</time>
      </trkpt>
      <trkpt lat="48.99451" lon="0.07434">
        <ele>143.53</ele>
        <time>2021-08-08T13:57:48Z</time>
      </trkpt>
      <trkpt lat="48.99456" lon="0.07431">
        <ele>143.5</ele>
        <time>2021-08-08T13:57:49Z</time>
      </trkpt>
      <trkpt lat="48.99461" lon="0.07429">
        <ele>143.5</ele>
        <time>2021-08-08T13:57:50Z</time>
      </trkpt>
      <trkpt lat="48.99467" lon="0.07427">
        <ele>143.55</ele>
        <time>2021-08-08T13:57:51Z</time>
      </trkpt>
      <trkpt lat="48.99471" lon="0.07427">
        <ele>143.65</ele>
        <time>2021-08-08T13:57:52Z</time>
      </trkpt>
      <trkpt lat="48.99476" lon="0.07426">
        <ele>143.64</ele>
        <time>2021-08-08T13:57:53Z</time>
      </trkpt>
      <trkpt lat="48.99481" lon="0.07426">
        <ele>143.65</ele>
        <time>2021-08-08T13:57:54Z</time>
      </trkpt>
      <trkpt lat="48.99486" lon="0.07426">
        <ele>143.66</ele>
        <time>2021-08-08T13:57:55Z</time>
      </trkpt>
      <trkpt lat="48.9949" lon="0.07426">
        <ele>143.68</ele>
        <time>2021-08-08T13:57:56Z</time>
      </trkpt>
      <trkpt lat="48.99496" lon="0.07426">
        <ele>143.69</ele>
        <time>2021-08-08T13:57:57Z</time>
      </trkpt>
      <trkpt lat="48.995" lon="0.07426">
        <ele>143.68</ele>
        <time>2021-08-08T13:57:58Z</time>
      </trkpt>
      <trkpt lat="48.99506" lon="0.07427">
        <ele>143.57</ele>
        <time>2021-08-08T13:57:59Z</time>
      </trkpt>
      <trkpt lat="48.99512" lon="0.07429">
        <ele>143.47</ele>
        <time>2021-08-08T13:58:00Z</time>
      </trkpt>
      <trkpt lat="48.99517" lon="0.0743">
        <ele>143.4</ele>
        <time>2021-08-08T13:58:01Z</time>
      </trkpt>
      <trkpt lat="48.99524" lon="0.07433">
        <ele>143.36</ele>
        <time>2021-08-08T13:58:02Z</time>
      </trkpt>
      <trkpt lat="48.99529" lon="0.07436">
        <ele>143.35</ele>
        <time>2021-08-08T13:58:03Z</time>
      </trkpt>
      <trkpt lat="48.99535" lon="0.0744">
        <ele>143.39</ele>
        <time>2021-08-08T13:58:04Z</time>
      </trkpt>
      <trkpt lat="48.99539" lon="0.07444">
        <ele>143.49</ele>
        <time>2021-08-08T13:58:05Z</time>
      </trkpt>
      <trkpt lat="48.99544" lon="0.07448">
        <ele>143.56</ele>
        <time>2021-08-08T13:58:06Z</time>
      </trkpt>
      <trkpt lat="48.99548" lon="0.07452">
        <ele>143.61</ele>
        <time>2021-08-08T13:58:07Z</time>
      </trkpt>
      <trkpt lat="48.99552" lon="0.07454">
        <ele>143.57</ele>
        <time>2021-08-08T13:58:08Z</time>
      </trkpt>
      <trkpt lat="48.99556" lon="0.07457">
        <ele>143.49</ele>
        <time>2021-08-08T13:58:09Z</time>
      </trkpt>
      <trkpt lat="48.9956" lon="0.0746">
        <ele>143.31</ele>
        <time>2021-08-08T13:58:10Z</time>
      </trkpt>
      <trkpt lat="48.99565" lon="0.07464">
        <ele>143.12</ele>
        <time>2021-08-08T13:58:11Z</time>
      </trkpt>
      <trkpt lat="48.9957" lon="0.0747">
        <ele>142.93</ele>
        <time>2021-08-08T13:58:12Z</time>
      </trkpt>
      <trkpt lat="48.99576" lon="0.07475">
        <ele>142.8</ele>
        <time>2021-08-08T13:58:13Z</time>
      </trkpt>
      <trkpt lat="48.99582" lon="0.0748">
        <ele>142.72</ele>
        <time>2021-08-08T13:58:14Z</time>
      </trkpt>
      <trkpt lat="48.99586" lon="0.07485">
        <ele>142.72</ele>
        <time>2021-08-08T13:58:15Z</time>
      </trkpt>
      <trkpt lat="48.99591" lon="0.07491">
        <ele>142.8</ele>
        <time>2021-08-08T13:58:16Z</time>
      </trkpt>
      <trkpt lat="48.99594" lon="0.07497">
        <ele>142.93</ele>
        <time>2021-08-08T13:58:17Z</time>
      </trkpt>
      <trkpt lat="48.99596" lon="0.07503">
        <ele>143.18</ele>
        <time>2021-08-08T13:58:18Z</time>
      </trkpt>
      <trkpt lat="48.99598" lon="0.07509">
        <ele>143.48</ele>
        <time>2021-08-08T13:58:19Z</time>
      </trkpt>
      <trkpt lat="48.99597" lon="0.07513">
        <ele>143.81</ele>
        <time>2021-08-08T13:58:20Z</time>
      </trkpt>
      <trkpt lat="48.99595" lon="0.07517">
        <ele>144.19</ele>
        <time>2021-08-08T13:58:21Z</time>
      </trkpt>
      <trkpt lat="48.99593" lon="0.07519">
        <ele>144.54</ele>
        <time>2021-08-08T13:58:22Z</time>
      </trkpt>
      <trkpt lat="48.99592" lon="0.07523">
        <ele>144.88</ele>
        <time>2021-08-08T13:58:23Z</time>
      </trkpt>
      <trkpt lat="48.9959" lon="0.07525">
        <ele>145.2</ele>
        <time>2021-08-08T13:58:24Z</time>
      </trkpt>
      <trkpt lat="48.99589" lon="0.07528">
        <ele>145.45</ele>
        <time>2021-08-08T13:58:25Z</time>
      </trkpt>
      <trkpt lat="48.99588" lon="0.07529">
        <ele>145.68</ele>
        <time>2021-08-08T13:58:26Z</time>
      </trkpt>
      <trkpt lat="48.99586" lon="0.07531">
        <ele>145.92</ele>
        <time>2021-08-08T13:58:27Z</time>
      </trkpt>
      <trkpt lat="48.99585" lon="0.07533">
        <ele>146.16</ele>
        <time>2021-08-08T13:58:28Z</time>
      </trkpt>
      <trkpt lat="48.99585" lon="0.07536">
        <ele>146.37</ele>
        <time>2021-08-08T13:58:29Z</time>
      </trkpt>
      <trkpt lat="48.99585" lon="0.07539">
        <ele>146.56</ele>
        <time>2021-08-08T13:58:30Z</time>
      </trkpt>
      <trkpt lat="48.99585" lon="0.07541">
        <ele>146.77</ele>
        <time>2021-08-08T13:58:31Z</time>
      </trkpt>
      <trkpt lat="48.99584" lon="0.07545">
        <ele>147.02</ele>
        <time>2021-08-08T13:58:32Z</time>
      </trkpt>
      <trkpt lat="48.99583" lon="0.07548">
        <ele>147.32</ele>
        <time>2021-08-08T13:58:33Z</time>
      </trkpt>
      <trkpt lat="48.99582" lon="0.07551">
        <ele>147.6</ele>
        <time>2021-08-08T13:58:34Z</time>
      </trkpt>
      <trkpt lat="48.99581" lon="0.07554">
        <ele>147.89</ele>
        <time>2021-08-08T13:58:35Z</time>
      </trkpt>
      <trkpt lat="48.9958" lon="0.07557">
        <ele>148.2</ele>
        <time>2021-08-08T13:58:36Z</time>
      </trkpt>
      <trkpt lat="48.99579" lon="0.07559">
        <ele>148.48</ele>
        <time>2021-08-08T13:58:37Z</time>
      </trkpt>
      <trkpt lat="48.99578" lon="0.07563">
        <ele>148.8</ele>
        <time>2021-08-08T13:58:38Z</time>
      </trkpt>
      <trkpt lat="48.99577" lon="0.07568">
        <ele>149.18</ele>
        <time>2021-08-08T13:58:39Z</time>
      </trkpt>
      <trkpt lat="48.99575" lon="0.07571">
        <ele>149.55</ele>
        <time>2021-08-08T13:58:40Z</time>
      </trkpt>
      <trkpt lat="48.99573" lon="0.07574">
        <ele>149.88</ele>
        <time>2021-08-08T13:58:41Z</time>
      </trkpt>
      <trkpt lat="48.99572" lon="0.07578">
        <ele>150.24</ele>
        <time>2021-08-08T13:58:42Z</time>
      </trkpt>
      <trkpt lat="48.9957" lon="0.0758">
        <ele>150.58</ele>
        <time>2021-08-08T13:58:43Z</time>
      </trkpt>
      <trkpt lat="48.99569" lon="0.07585">
        <ele>150.94</ele>
        <time>2021-08-08T13:58:44Z</time>
      </trkpt>
      <trkpt lat="48.99568" lon="0.07588">
        <ele>151.25</ele>
        <time>2021-08-08T13:58:45Z</time>
      </trkpt>
      <trkpt lat="48.99566" lon="0.07591">
        <ele>151.56</ele>
        <time>2021-08-08T13:58:46Z</time>
      </trkpt>
      <trkpt lat="48.99563" lon="0.07592">
        <ele>151.87</ele>
        <time>2021-08-08T13:58:47Z</time>
      </trkpt>
      <trkpt lat="48.99561" lon="0.07594">
        <ele>152.17</ele>
        <time>2021-08-08T13:58:48Z</time>
      </trkpt>
      <trkpt lat="48.99559" lon="0.07596">
        <ele>152.46</ele>
        <time>2021-08-08T13:58:49Z</time>
      </trkpt>
      <trkpt lat="48.99558" lon="0.07598">
        <ele>152.76</ele>
        <time>2021-08-08T13:58:50Z</time>
      </trkpt>
      <trkpt lat="48.99556" lon="0.07602">
        <ele>153.16</ele>
        <time>2021-08-08T13:58:51Z</time>
      </trkpt>
      <trkpt lat="48.99553" lon="0.07606">
        <ele>153.6</ele>
        <time>2021-08-08T13:58:52Z</time>
      </trkpt>
      <trkpt lat="48.99551" lon="0.07609">
        <ele>154.02</ele>
        <time>2021-08-08T13:58:53Z</time>
      </trkpt>
      <trkpt lat="48.99549" lon="0.07613">
        <ele>154.37</ele>
        <time>2021-08-08T13:58:54Z</time>
      </trkpt>
      <trkpt lat="48.99547" lon="0.07616">
        <ele>154.64</ele>
        <time>2021-08-08T13:58:55Z</time>
      </trkpt>
      <trkpt lat="48.99546" lon="0.07619">
        <ele>154.87</ele>
        <time>2021-08-08T13:58:56Z</time>
      </trkpt>
      <trkpt lat="48.99545" lon="0.07622">
        <ele>155.09</ele>
        <time>2021-08-08T13:58:57Z</time>
      </trkpt>
      <trkpt lat="48.99543" lon="0.07625">
        <ele>155.34</ele>
        <time>2021-08-08T13:58:58Z</time>
      </trkpt>
      <trkpt lat="48.9954" lon="0.07628">
        <ele>155.6</ele>
        <time>2021-08-08T13:58:59Z</time>
      </trkpt>
      <trkpt lat="48.99539" lon="0.07632">
        <ele>155.86</ele>
        <time>2021-08-08T13:59:00Z</time>
      </trkpt>
      <trkpt lat="48.99536" lon="0.07635">
        <ele>156.13</ele>
        <time>2021-08-08T13:59:01Z</time>
      </trkpt>
      <trkpt lat="48.99535" lon="0.07639">
        <ele>156.4</ele>
        <time>2021-08-08T13:59:02Z</time>
      </trkpt>
      <trkpt lat="48.99532" lon="0.07643">
        <ele>156.69</ele>
        <time>2021-08-08T13:59:03Z</time>
      </trkpt>
      <trkpt lat="48.99531" lon="0.07646">
        <ele>156.94</ele>
        <time>2021-08-08T13:59:04Z</time>
      </trkpt>
      <trkpt lat="48.99529" lon="0.07649">
        <ele>157.19</ele>
        <time>2021-08-08T13:59:05Z</time>
      </trkpt>
      <trkpt lat="48.99527" lon="0.07652">
        <ele>157.41</ele>
        <time>2021-08-08T13:59:06Z</time>
      </trkpt>
      <trkpt lat="48.99526" lon="0.07655">
        <ele>157.58</ele>
        <time>2021-08-08T13:59:07Z</time>
      </trkpt>
      <trkpt lat="48.99524" lon="0.07657">
        <ele>157.73</ele>
        <time>2021-08-08T13:59:08Z</time>
      </trkpt>
      <trkpt lat="48.99523" lon="0.0766">
        <ele>157.87</ele>
        <time>2021-08-08T13:59:09Z</time>
      </trkpt>
      <trkpt lat="48.99522" lon="0.07663">
        <ele>158.02</ele>
        <time>2021-08-08T13:59:10Z</time>
      </trkpt>
      <trkpt lat="48.99522" lon="0.07666">
        <ele>158.14</ele>
        <time>2021-08-08T13:59:11Z</time>
      </trkpt>
      <trkpt lat="48.9952" lon="0.07669">
        <ele>158.29</ele>
        <time>2021-08-08T13:59:12Z</time>
      </trkpt>
      <trkpt lat="48.99519" lon="0.07672">
        <ele>158.45</ele>
        <time>2021-08-08T13:59:13Z</time>
      </trkpt>
      <trkpt lat="48.99518" lon="0.07676">
        <ele>158.64</ele>
        <time>2021-08-08T13:59:14Z</time>
      </trkpt>
      <trkpt lat="48.99517" lon="0.0768">
        <ele>158.81</ele>
        <time>2021-08-08T13:59:15Z</time>
      </trkpt>
      <trkpt lat="48.99517" lon="0.07685">
        <ele>158.97</ele>
        <time>2021-08-08T13:59:16Z</time>
      </trkpt>
      <trkpt lat="48.99516" lon="0.07689">
        <ele>159.17</ele>
        <time>2021-08-08T13:59:17Z</time>
      </trkpt>
      <trkpt lat="48.99515" lon="0.07693">
        <ele>159.34</ele>
        <time>2021-08-08T13:59:18Z</time>
      </trkpt>
      <trkpt lat="48.99515" lon="0.07698">
        <ele>159.52</ele>
        <time>2021-08-08T13:59:19Z</time>
      </trkpt>
      <trkpt lat="48.99515" lon="0.07703">
        <ele>159.7</ele>
        <time>2021-08-08T13:59:20Z</time>
      </trkpt>
      <trkpt lat="48.99515" lon="0.07707">
        <ele>159.85</ele>
        <time>2021-08-08T13:59:21Z</time>
      </trkpt>
      <trkpt lat="48.99514" lon="0.07711">
        <ele>160.01</ele>
        <time>2021-08-08T13:59:22Z</time>
      </trkpt>
      <trkpt lat="48.99514" lon="0.07715">
        <ele>160.17</ele>
        <time>2021-08-08T13:59:23Z</time>
      </trkpt>
      <trkpt lat="48.99513" lon="0.07719">
        <ele>160.34</ele>
        <time>2021-08-08T13:59:24Z</time>
      </trkpt>
      <trkpt lat="48.99512" lon="0.07723">
        <ele>160.53</ele>
        <time>2021-08-08T13:59:25Z</time>
      </trkpt>
      <trkpt lat="48.99511" lon="0.07728">
        <ele>160.72</ele>
        <time>2021-08-08T13:59:26Z</time>
      </trkpt>
      <trkpt lat="48.9951" lon="0.07732">
        <ele>160.93</ele>
        <time>2021-08-08T13:59:27Z</time>
      </trkpt>
      <trkpt lat="48.99509" lon="0.07738">
        <ele>161.15</ele>
        <time>2021-08-08T13:59:28Z</time>
      </trkpt>
      <trkpt lat="48.99508" lon="0.07744">
        <ele>161.4</ele>
        <time>2021-08-08T13:59:29Z</time>
      </trkpt>
      <trkpt lat="48.99507" lon="0.07751">
        <ele>161.65</ele>
        <time>2021-08-08T13:59:30Z</time>
      </trkpt>
      <trkpt lat="48.99507" lon="0.07756">
        <ele>161.88</ele>
        <time>2021-08-08T13:59:31Z</time>
      </trkpt>
      <trkpt lat="48.99507" lon="0.07762">
        <ele>162.09</ele>
        <time>2021-08-08T13:59:32Z</time>
      </trkpt>
      <trkpt lat="48.99507" lon="0.07767">
        <ele>162.28</ele>
        <time>2021-08-08T13:59:33Z</time>
      </trkpt>
      <trkpt lat="48.99507" lon="0.07772">
        <ele>162.48</ele>
        <time>2021-08-08T13:59:34Z</time>
      </trkpt>
      <trkpt lat="48.99506" lon="0.07777">
        <ele>162.68</ele>
        <time>2021-08-08T13:59:35Z</time>
      </trkpt>
      <trkpt lat="48.99506" lon="0.07781">
        <ele>162.75</ele>
        <time>2021-08-08T13:59:36Z</time>
      </trkpt>
      <trkpt lat="48.99505" lon="0.07786">
        <ele>162.79</ele>
        <time>2021-08-08T13:59:37Z</time>
      </trkpt>
      <trkpt lat="48.99505" lon="0.07791">
        <ele>162.8</ele>
        <time>2021-08-08T13:59:38Z</time>
      </trkpt>
      <trkpt lat="48.99504" lon="0.07795">
        <ele>162.83</ele>
        <time>2021-08-08T13:59:39Z</time>
      </trkpt>
      <trkpt lat="48.99504" lon="0.078">
        <ele>162.84</ele>
        <time>2021-08-08T13:59:40Z</time>
      </trkpt>
      <trkpt lat="48.99503" lon="0.07804">
        <ele>162.89</ele>
        <time>2021-08-08T13:59:41Z</time>
      </trkpt>
      <trkpt lat="48.99502" lon="0.07809">
        <ele>163</ele>
        <time>2021-08-08T13:59:42Z</time>
      </trkpt>
      <trkpt lat="48.99501" lon="0.07814">
        <ele>163.18</ele>
        <time>2021-08-08T13:59:43Z</time>
      </trkpt>
      <trkpt lat="48.995" lon="0.07818">
        <ele>163.37</ele>
        <time>2021-08-08T13:59:44Z</time>
      </trkpt>
      <trkpt lat="48.99499" lon="0.07823">
        <ele>163.57</ele>
        <time>2021-08-08T13:59:45Z</time>
      </trkpt>
      <trkpt lat="48.99498" lon="0.07828">
        <ele>163.78</ele>
        <time>2021-08-08T13:59:46Z</time>
      </trkpt>
      <trkpt lat="48.99498" lon="0.07834">
        <ele>163.98</ele>
        <time>2021-08-08T13:59:47Z</time>
      </trkpt>
      <trkpt lat="48.99498" lon="0.0784">
        <ele>164.04</ele>
        <time>2021-08-08T13:59:48Z</time>
      </trkpt>
      <trkpt lat="48.99498" lon="0.07846">
        <ele>164.07</ele>
        <time>2021-08-08T13:59:49Z</time>
      </trkpt>
      <trkpt lat="48.99498" lon="0.07851">
        <ele>164.08</ele>
        <time>2021-08-08T13:59:50Z</time>
      </trkpt>
      <trkpt lat="48.99498" lon="0.07857">
        <ele>164.08</ele>
        <time>2021-08-08T13:59:51Z</time>
      </trkpt>
      <trkpt lat="48.99498" lon="0.07864">
        <ele>164.07</ele>
        <time>2021-08-08T13:59:52Z</time>
      </trkpt>
      <trkpt lat="48.99497" lon="0.07871">
        <ele>164.09</ele>
        <time>2021-08-08T13:59:53Z</time>
      </trkpt>
      <trkpt lat="48.99496" lon="0.07878">
        <ele>164.13</ele>
        <time>2021-08-08T13:59:54Z</time>
      </trkpt>
      <trkpt lat="48.99495" lon="0.07885">
        <ele>164.16</ele>
        <time>2021-08-08T13:59:55Z</time>
      </trkpt>
      <trkpt lat="48.99495" lon="0.07892">
        <ele>164.25</ele>
        <time>2021-08-08T13:59:56Z</time>
      </trkpt>
      <trkpt lat="48.99494" lon="0.07899">
        <ele>164.48</ele>
        <time>2021-08-08T13:59:57Z</time>
      </trkpt>
      <trkpt lat="48.99492" lon="0.07908">
        <ele>164.82</ele>
        <time>2021-08-08T13:59:58Z</time>
      </trkpt>
      <trkpt lat="48.99491" lon="0.07916">
        <ele>165.16</ele>
        <time>2021-08-08T13:59:59Z</time>
      </trkpt>
      <trkpt lat="48.9949" lon="0.07923">
        <ele>165.3</ele>
        <time>2021-08-08T14:00:00Z</time>
      </trkpt>
      <trkpt lat="48.99489" lon="0.07931">
        <ele>165.38</ele>
        <time>2021-08-08T14:00:01Z</time>
      </trkpt>
      <trkpt lat="48.99487" lon="0.07939">
        <ele>165.44</ele>
        <time>2021-08-08T14:00:02Z</time>
      </trkpt>
      <trkpt lat="48.99486" lon="0.07947">
        <ele>165.49</ele>
        <time>2021-08-08T14:00:03Z</time>
      </trkpt>
      <trkpt lat="48.99484" lon="0.07955">
        <ele>165.54</ele>
        <time>2021-08-08T14:00:04Z</time>
      </trkpt>
      <trkpt lat="48.99483" lon="0.07963">
        <ele>165.6</ele>
        <time>2021-08-08T14:00:05Z</time>
      </trkpt>
      <trkpt lat="48.99481" lon="0.07971">
        <ele>165.66</ele>
        <time>2021-08-08T14:00:06Z</time>
      </trkpt>
      <trkpt lat="48.9948" lon="0.07979">
        <ele>165.71</ele>
        <time>2021-08-08T14:00:07Z</time>
      </trkpt>
      <trkpt lat="48.99477" lon="0.07988">
        <ele>165.78</ele>
        <time>2021-08-08T14:00:08Z</time>
      </trkpt>
      <trkpt lat="48.99476" lon="0.07997">
        <ele>165.83</ele>
        <time>2021-08-08T14:00:09Z</time>
      </trkpt>
      <trkpt lat="48.99475" lon="0.08006">
        <ele>165.89</ele>
        <time>2021-08-08T14:00:10Z</time>
      </trkpt>
      <trkpt lat="48.99473" lon="0.08015">
        <ele>165.95</ele>
        <time>2021-08-08T14:00:11Z</time>
      </trkpt>
      <trkpt lat="48.99472" lon="0.08023">
        <ele>166</ele>
        <time>2021-08-08T14:00:12Z</time>
      </trkpt>
      <trkpt lat="48.99471" lon="0.08032">
        <ele>166.04</ele>
        <time>2021-08-08T14:00:13Z</time>
      </trkpt>
      <trkpt lat="48.9947" lon="0.0804">
        <ele>166.08</ele>
        <time>2021-08-08T14:00:14Z</time>
      </trkpt>
      <trkpt lat="48.99468" lon="0.08049">
        <ele>166.13</ele>
        <time>2021-08-08T14:00:15Z</time>
      </trkpt>
      <trkpt lat="48.99467" lon="0.08057">
        <ele>166.17</ele>
        <time>2021-08-08T14:00:16Z</time>
      </trkpt>
      <trkpt lat="48.99465" lon="0.08066">
        <ele>166.23</ele>
        <time>2021-08-08T14:00:17Z</time>
      </trkpt>
      <trkpt lat="48.99464" lon="0.08074">
        <ele>166.29</ele>
        <time>2021-08-08T14:00:18Z</time>
      </trkpt>
      <trkpt lat="48.99462" lon="0.08082">
        <ele>166.34</ele>
        <time>2021-08-08T14:00:19Z</time>
      </trkpt>
      <trkpt lat="48.99461" lon="0.0809">
        <ele>166.39</ele>
        <time>2021-08-08T14:00:20Z</time>
      </trkpt>
      <trkpt lat="48.9946" lon="0.08099">
        <ele>166.42</ele>
        <time>2021-08-08T14:00:21Z</time>
      </trkpt>
      <trkpt lat="48.9946" lon="0.08107">
        <ele>166.44</ele>
        <time>2021-08-08T14:00:22Z</time>
      </trkpt>
      <trkpt lat="48.9946" lon="0.08115">
        <ele>166.45</ele>
        <time>2021-08-08T14:00:23Z</time>
      </trkpt>
      <trkpt lat="48.9946" lon="0.08123">
        <ele>166.45</ele>
        <time>2021-08-08T14:00:24Z</time>
      </trkpt>
      <trkpt lat="48.9946" lon="0.08133">
        <ele>166.44</ele>
        <time>2021-08-08T14:00:25Z</time>
      </trkpt>
      <trkpt lat="48.99461" lon="0.08143">
        <ele>166.42</ele>
        <time>2021-08-08T14:00:26Z</time>
      </trkpt>
      <trkpt lat="48.99462" lon="0.08153">
        <ele>166.38</ele>
        <time>2021-08-08T14:00:27Z</time>
      </trkpt>
      <trkpt lat="48.99463" lon="0.08162">
        <ele>166.34</ele>
        <time>2021-08-08T14:00:28Z</time>
      </trkpt>
      <trkpt lat="48.99464" lon="0.08171">
        <ele>166.31</ele>
        <time>2021-08-08T14:00:29Z</time>
      </trkpt>
      <trkpt lat="48.99465" lon="0.0818">
        <ele>166.27</ele>
        <time>2021-08-08T14:00:30Z</time>
      </trkpt>
      <trkpt lat="48.99466" lon="0.08189">
        <ele>166.23</ele>
        <time>2021-08-08T14:00:31Z</time>
      </trkpt>
      <trkpt lat="48.99467" lon="0.08198">
        <ele>166.22</ele>
        <time>2021-08-08T14:00:32Z</time>
      </trkpt>
      <trkpt lat="48.99467" lon="0.08206">
        <ele>166.24</ele>
        <time>2021-08-08T14:00:33Z</time>
      </trkpt>
      <trkpt lat="48.99468" lon="0.08215">
        <ele>166.26</ele>
        <time>2021-08-08T14:00:34Z</time>
      </trkpt>
      <trkpt lat="48.99468" lon="0.08224">
        <ele>166.27</ele>
        <time>2021-08-08T14:00:35Z</time>
      </trkpt>
      <trkpt lat="48.99469" lon="0.08234">
        <ele>166.24</ele>
        <time>2021-08-08T14:00:36Z</time>
      </trkpt>
      <trkpt lat="48.9947" lon="0.08243">
        <ele>166.21</ele>
        <time>2021-08-08T14:00:37Z</time>
      </trkpt>
      <trkpt lat="48.9947" lon="0.08252">
        <ele>166.16</ele>
        <time>2021-08-08T14:00:38Z</time>
      </trkpt>
      <trkpt lat="48.99471" lon="0.08261">
        <ele>166.12</ele>
        <time>2021-08-08T14:00:39Z</time>
      </trkpt>
      <trkpt lat="48.99471" lon="0.08271">
        <ele>166.08</ele>
        <time>2021-08-08T14:00:40Z</time>
      </trkpt>
      <trkpt lat="48.99473" lon="0.0828">
        <ele>166.01</ele>
        <time>2021-08-08T14:00:41Z</time>
      </trkpt>
      <trkpt lat="48.99474" lon="0.0829">
        <ele>165.93</ele>
        <time>2021-08-08T14:00:42Z</time>
      </trkpt>
      <trkpt lat="48.99475" lon="0.08299">
        <ele>165.86</ele>
        <time>2021-08-08T14:00:43Z</time>
      </trkpt>
      <trkpt lat="48.99476" lon="0.08309">
        <ele>165.76</ele>
        <time>2021-08-08T14:00:44Z</time>
      </trkpt>
      <trkpt lat="48.99477" lon="0.08319">
        <ele>165.67</ele>
        <time>2021-08-08T14:00:45Z</time>
      </trkpt>
      <trkpt lat="48.99479" lon="0.08329">
        <ele>165.58</ele>
        <time>2021-08-08T14:00:46Z</time>
      </trkpt>
      <trkpt lat="48.9948" lon="0.0834">
        <ele>165.71</ele>
        <time>2021-08-08T14:00:47Z</time>
      </trkpt>
      <trkpt lat="48.99481" lon="0.08351">
        <ele>166.06</ele>
        <time>2021-08-08T14:00:48Z</time>
      </trkpt>
      <trkpt lat="48.99482" lon="0.08362">
        <ele>166.5</ele>
        <time>2021-08-08T14:00:49Z</time>
      </trkpt>
      <trkpt lat="48.99482" lon="0.08372">
        <ele>166.89</ele>
        <time>2021-08-08T14:00:50Z</time>
      </trkpt>
      <trkpt lat="48.99482" lon="0.08382">
        <ele>167.27</ele>
        <time>2021-08-08T14:00:51Z</time>
      </trkpt>
      <trkpt lat="48.99481" lon="0.08392">
        <ele>167.62</ele>
        <time>2021-08-08T14:00:52Z</time>
      </trkpt>
      <trkpt lat="48.9948" lon="0.08402">
        <ele>168.02</ele>
        <time>2021-08-08T14:00:53Z</time>
      </trkpt>
      <trkpt lat="48.99479" lon="0.08412">
        <ele>168.42</ele>
        <time>2021-08-08T14:00:54Z</time>
      </trkpt>
      <trkpt lat="48.99477" lon="0.08422">
        <ele>168.73</ele>
        <time>2021-08-08T14:00:55Z</time>
      </trkpt>
      <trkpt lat="48.99475" lon="0.08432">
        <ele>168.89</ele>
        <time>2021-08-08T14:00:56Z</time>
      </trkpt>
      <trkpt lat="48.99473" lon="0.08442">
        <ele>168.96</ele>
        <time>2021-08-08T14:00:57Z</time>
      </trkpt>
      <trkpt lat="48.9947" lon="0.0845">
        <ele>169.18</ele>
        <time>2021-08-08T14:00:58Z</time>
      </trkpt>
      <trkpt lat="48.99467" lon="0.08458">
        <ele>169.53</ele>
        <time>2021-08-08T14:00:59Z</time>
      </trkpt>
      <trkpt lat="48.99465" lon="0.08467">
        <ele>169.89</ele>
        <time>2021-08-08T14:01:00Z</time>
      </trkpt>
      <trkpt lat="48.99463" lon="0.08474">
        <ele>170.2</ele>
        <time>2021-08-08T14:01:01Z</time>
      </trkpt>
      <trkpt lat="48.9946" lon="0.08481">
        <ele>170.38</ele>
        <time>2021-08-08T14:01:02Z</time>
      </trkpt>
      <trkpt lat="48.99457" lon="0.08488">
        <ele>170.51</ele>
        <time>2021-08-08T14:01:03Z</time>
      </trkpt>
      <trkpt lat="48.99454" lon="0.08496">
        <ele>170.62</ele>
        <time>2021-08-08T14:01:04Z</time>
      </trkpt>
      <trkpt lat="48.99451" lon="0.08502">
        <ele>170.74</ele>
        <time>2021-08-08T14:01:05Z</time>
      </trkpt>
      <trkpt lat="48.99448" lon="0.08508">
        <ele>170.85</ele>
        <time>2021-08-08T14:01:06Z</time>
      </trkpt>
      <trkpt lat="48.99446" lon="0.08515">
        <ele>170.94</ele>
        <time>2021-08-08T14:01:07Z</time>
      </trkpt>
      <trkpt lat="48.99443" lon="0.08521">
        <ele>171</ele>
        <time>2021-08-08T14:01:08Z</time>
      </trkpt>
      <trkpt lat="48.99441" lon="0.08527">
        <ele>171.08</ele>
        <time>2021-08-08T14:01:09Z</time>
      </trkpt>
      <trkpt lat="48.99439" lon="0.08531">
        <ele>171.17</ele>
        <time>2021-08-08T14:01:10Z</time>
      </trkpt>
      <trkpt lat="48.99435" lon="0.08534">
        <ele>171.28</ele>
        <time>2021-08-08T14:01:11Z</time>
      </trkpt>
      <trkpt lat="48.99431" lon="0.08536">
        <ele>171.41</ele>
        <time>2021-08-08T14:01:12Z</time>
      </trkpt>
      <trkpt lat="48.99428" lon="0.0854">
        <ele>171.53</ele>
        <time>2021-08-08T14:01:13Z</time>
      </trkpt>
      <trkpt lat="48.99425" lon="0.08544">
        <ele>171.65</ele>
        <time>2021-08-08T14:01:14Z</time>
      </trkpt>
      <trkpt lat="48.99423" lon="0.08549">
        <ele>171.73</ele>
        <time>2021-08-08T14:01:15Z</time>
      </trkpt>
      <trkpt lat="48.9942" lon="0.08554">
        <ele>171.83</ele>
        <time>2021-08-08T14:01:16Z</time>
      </trkpt>
      <trkpt lat="48.99417" lon="0.08556">
        <ele>171.93</ele>
        <time>2021-08-08T14:01:17Z</time>
      </trkpt>
      <trkpt lat="48.99415" lon="0.08558">
        <ele>171.98</ele>
        <time>2021-08-08T14:01:18Z</time>
      </trkpt>
      <trkpt lat="48.99414" lon="0.0856">
        <ele>171.99</ele>
        <time>2021-08-08T14:01:19Z</time>
      </trkpt>
      <trkpt lat="48.99414" lon="0.08561">
        <ele>172</ele>
        <time>2021-08-08T14:01:20Z</time>
      </trkpt>
      <trkpt lat="48.99415" lon="0.08561">
        <ele>172</ele>
        <time>2021-08-08T14:01:21Z</time>
      </trkpt>
      <trkpt lat="48.99415" lon="0.0856">
        <ele>172</ele>
        <time>2021-08-08T14:01:22Z</time>
      </trkpt>
      <trkpt lat="48.99415" lon="0.0856">
        <ele>172</ele>
        <time>2021-08-08T14:01:23Z</time>
      </trkpt>
      <trkpt lat="48.99415" lon="0.0856">
        <ele>172</ele>
        <time>2021-08-08T14:01:24Z</time>
      </trkpt>
      <trkpt lat="48.99415" lon="0.0856">
        <ele>172</ele>
        <time>2021-08-08T14:01:25Z</time>
      </trkpt>
      <trkpt lat="48.99415" lon="0.0856">
        <ele>172</ele>
        <time>2021-08-08T14:01:26Z</time>
      </trkpt>
      <trkpt lat="48.99415" lon="0.08555">
        <ele>172</ele>
        <time>2021-08-08T14:01:27Z</time>
      </trkpt>
      <trkpt lat="48.99416" lon="0.08552">
        <ele>172</ele>
        <time>2021-08-08T14:01:28Z</time>
      </trkpt>
      <trkpt lat="48.99418" lon="0.08549">
        <ele>171.97</ele>
        <time>2021-08-08T14:01:29Z</time>
      </trkpt>
      <trkpt lat="48.99421" lon="0.08546">
        <ele>171.89</ele>
        <time>2021-08-08T14:01:30Z</time>
      </trkpt>
      <trkpt lat="48.99423" lon="0.08542">
        <ele>171.8</ele>
        <time>2021-08-08T14:01:31Z</time>
      </trkpt>
      <trkpt lat="48.99426" lon="0.08538">
        <ele>171.7</ele>
        <time>2021-08-08T14:01:32Z</time>
      </trkpt>
      <trkpt lat="48.99429" lon="0.08535">
        <ele>171.6</ele>
        <time>2021-08-08T14:01:33Z</time>
      </trkpt>
      <trkpt lat="48.99431" lon="0.08533">
        <ele>171.52</ele>
        <time>2021-08-08T14:01:34Z</time>
      </trkpt>
      <trkpt lat="48.99433" lon="0.08535">
        <ele>171.43</ele>
        <time>2021-08-08T14:01:35Z</time>
      </trkpt>
      <trkpt lat="48.99434" lon="0.08539">
        <ele>171.39</ele>
        <time>2021-08-08T14:01:36Z</time>
      </trkpt>
      <trkpt lat="48.99433" lon="0.08542">
        <ele>171.41</ele>
        <time>2021-08-08T14:01:37Z</time>
      </trkpt>
      <trkpt lat="48.99432" lon="0.08545">
        <ele>171.44</ele>
        <time>2021-08-08T14:01:38Z</time>
      </trkpt>
      <trkpt lat="48.99431" lon="0.08549">
        <ele>171.47</ele>
        <time>2021-08-08T14:01:39Z</time>
      </trkpt>
      <trkpt lat="48.99429" lon="0.08554">
        <ele>171.52</ele>
        <time>2021-08-08T14:01:40Z</time>
      </trkpt>
      <trkpt lat="48.99428" lon="0.08559">
        <ele>171.6</ele>
        <time>2021-08-08T14:01:41Z</time>
      </trkpt>
      <trkpt lat="48.99428" lon="0.08565">
        <ele>171.69</ele>
        <time>2021-08-08T14:01:42Z</time>
      </trkpt>
      <trkpt lat="48.99428" lon="0.08571">
        <ele>171.78</ele>
        <time>2021-08-08T14:01:43Z</time>
      </trkpt>
      <trkpt lat="48.99427" lon="0.08576">
        <ele>171.87</ele>
        <time>2021-08-08T14:01:44Z</time>
      </trkpt>
      <trkpt lat="48.99425" lon="0.08583">
        <ele>171.96</ele>
        <time>2021-08-08T14:01:45Z</time>
      </trkpt>
      <trkpt lat="48.99424" lon="0.08589">
        <ele>171.99</ele>
        <time>2021-08-08T14:01:46Z</time>
      </trkpt>
      <trkpt lat="48.99424" lon="0.08596">
        <ele>172</ele>
        <time>2021-08-08T14:01:47Z</time>
      </trkpt>
      <trkpt lat="48.99425" lon="0.08604">
        <ele>172</ele>
        <time>2021-08-08T14:01:48Z</time>
      </trkpt>
      <trkpt lat="48.99426" lon="0.08611">
        <ele>172</ele>
        <time>2021-08-08T14:01:49Z</time>
      </trkpt>
      <trkpt lat="48.99426" lon="0.0862">
        <ele>172</ele>
        <time>2021-08-08T14:01:50Z</time>
      </trkpt>
      <trkpt lat="48.99427" lon="0.08628">
        <ele>172</ele>
        <time>2021-08-08T14:01:51Z</time>
      </trkpt>
      <trkpt lat="48.99428" lon="0.08637">
        <ele>172</ele>
        <time>2021-08-08T14:01:52Z</time>
      </trkpt>
      <trkpt lat="48.99428" lon="0.08646">
        <ele>172</ele>
        <time>2021-08-08T14:01:53Z</time>
      </trkpt>
      <trkpt lat="48.99425" lon="0.08654">
        <ele>172</ele>
        <time>2021-08-08T14:01:54Z</time>
      </trkpt>
      <trkpt lat="48.9942" lon="0.0866">
        <ele>172</ele>
        <time>2021-08-08T14:01:55Z</time>
      </trkpt>
      <trkpt lat="48.99416" lon="0.08663">
        <ele>172</ele>
        <time>2021-08-08T14:01:56Z</time>
      </trkpt>
      <trkpt lat="48.99411" lon="0.08662">
        <ele>172</ele>
        <time>2021-08-08T14:01:57Z</time>
      </trkpt>
      <trkpt lat="48.99407" lon="0.08662">
        <ele>172</ele>
        <time>2021-08-08T14:01:58Z</time>
      </trkpt>
      <trkpt lat="48.99403" lon="0.08661">
        <ele>172</ele>
        <time>2021-08-08T14:01:59Z</time>
      </trkpt>
      <trkpt lat="48.99398" lon="0.08659">
        <ele>172</ele>
        <time>2021-08-08T14:02:00Z</time>
      </trkpt>
      <trkpt lat="48.99393" lon="0.08658">
        <ele>172</ele>
        <time>2021-08-08T14:02:01Z</time>
      </trkpt>
      <trkpt lat="48.99388" lon="0.08659">
        <ele>172.01</ele>
        <time>2021-08-08T14:02:02Z</time>
      </trkpt>
      <trkpt lat="48.99384" lon="0.08663">
        <ele>172.02</ele>
        <time>2021-08-08T14:02:03Z</time>
      </trkpt>
      <trkpt lat="48.99382" lon="0.08669">
        <ele>172.01</ele>
        <time>2021-08-08T14:02:04Z</time>
      </trkpt>
      <trkpt lat="48.99379" lon="0.08675">
        <ele>172</ele>
        <time>2021-08-08T14:02:05Z</time>
      </trkpt>
      <trkpt lat="48.99378" lon="0.08683">
        <ele>172</ele>
        <time>2021-08-08T14:02:06Z</time>
      </trkpt>
      <trkpt lat="48.99376" lon="0.08691">
        <ele>172</ele>
        <time>2021-08-08T14:02:07Z</time>
      </trkpt>
      <trkpt lat="48.99373" lon="0.08698">
        <ele>172</ele>
        <time>2021-08-08T14:02:08Z</time>
      </trkpt>
      <trkpt lat="48.9937" lon="0.08705">
        <ele>172</ele>
        <time>2021-08-08T14:02:09Z</time>
      </trkpt>
      <trkpt lat="48.99367" lon="0.08712">
        <ele>172</ele>
        <time>2021-08-08T14:02:10Z</time>
      </trkpt>
      <trkpt lat="48.99363" lon="0.08719">
        <ele>172</ele>
        <time>2021-08-08T14:02:11Z</time>
      </trkpt>
      <trkpt lat="48.9936" lon="0.08726">
        <ele>171.89</ele>
        <time>2021-08-08T14:02:12Z</time>
      </trkpt>
      <trkpt lat="48.99356" lon="0.08732">
        <ele>171.64</ele>
        <time>2021-08-08T14:02:13Z</time>
      </trkpt>
      <trkpt lat="48.99354" lon="0.08739">
        <ele>171.4</ele>
        <time>2021-08-08T14:02:14Z</time>
      </trkpt>
      <trkpt lat="48.99351" lon="0.08746">
        <ele>171.19</ele>
        <time>2021-08-08T14:02:15Z</time>
      </trkpt>
      <trkpt lat="48.99348" lon="0.08753">
        <ele>170.99</ele>
        <time>2021-08-08T14:02:16Z</time>
      </trkpt>
      <trkpt lat="48.99345" lon="0.08762">
        <ele>170.7</ele>
        <time>2021-08-08T14:02:17Z</time>
      </trkpt>
      <trkpt lat="48.99342" lon="0.08771">
        <ele>170.39</ele>
        <time>2021-08-08T14:02:18Z</time>
      </trkpt>
      <trkpt lat="48.99338" lon="0.08779">
        <ele>170.09</ele>
        <time>2021-08-08T14:02:19Z</time>
      </trkpt>
      <trkpt lat="48.99335" lon="0.08787">
        <ele>169.8</ele>
        <time>2021-08-08T14:02:20Z</time>
      </trkpt>
      <trkpt lat="48.99332" lon="0.08795">
        <ele>169.5</ele>
        <time>2021-08-08T14:02:21Z</time>
      </trkpt>
      <trkpt lat="48.99329" lon="0.08803">
        <ele>169.2</ele>
        <time>2021-08-08T14:02:22Z</time>
      </trkpt>
      <trkpt lat="48.99327" lon="0.08812">
        <ele>168.89</ele>
        <time>2021-08-08T14:02:23Z</time>
      </trkpt>
      <trkpt lat="48.99324" lon="0.08822">
        <ele>168.54</ele>
        <time>2021-08-08T14:02:24Z</time>
      </trkpt>
      <trkpt lat="48.99321" lon="0.08832">
        <ele>168.2</ele>
        <time>2021-08-08T14:02:25Z</time>
      </trkpt>
      <trkpt lat="48.99318" lon="0.08841">
        <ele>167.85</ele>
        <time>2021-08-08T14:02:26Z</time>
      </trkpt>
      <trkpt lat="48.99316" lon="0.08851">
        <ele>167.52</ele>
        <time>2021-08-08T14:02:27Z</time>
      </trkpt>
      <trkpt lat="48.99316" lon="0.08861">
        <ele>167.16</ele>
        <time>2021-08-08T14:02:28Z</time>
      </trkpt>
      <trkpt lat="48.99316" lon="0.08871">
        <ele>166.63</ele>
        <time>2021-08-08T14:02:29Z</time>
      </trkpt>
      <trkpt lat="48.99317" lon="0.08881">
        <ele>166.08</ele>
        <time>2021-08-08T14:02:30Z</time>
      </trkpt>
      <trkpt lat="48.99316" lon="0.08892">
        <ele>165.5</ele>
        <time>2021-08-08T14:02:31Z</time>
      </trkpt>
      <trkpt lat="48.99316" lon="0.08903">
        <ele>165.06</ele>
        <time>2021-08-08T14:02:32Z</time>
      </trkpt>
      <trkpt lat="48.99316" lon="0.08914">
        <ele>164.63</ele>
        <time>2021-08-08T14:02:33Z</time>
      </trkpt>
      <trkpt lat="48.99316" lon="0.08926">
        <ele>164</ele>
        <time>2021-08-08T14:02:34Z</time>
      </trkpt>
      <trkpt lat="48.99316" lon="0.08936">
        <ele>163.28</ele>
        <time>2021-08-08T14:02:35Z</time>
      </trkpt>
      <trkpt lat="48.99317" lon="0.08947">
        <ele>162.58</ele>
        <time>2021-08-08T14:02:36Z</time>
      </trkpt>
      <trkpt lat="48.99317" lon="0.08958">
        <ele>161.92</ele>
        <time>2021-08-08T14:02:37Z</time>
      </trkpt>
      <trkpt lat="48.99315" lon="0.08967">
        <ele>161.26</ele>
        <time>2021-08-08T14:02:38Z</time>
      </trkpt>
      <trkpt lat="48.99312" lon="0.08977">
        <ele>160.42</ele>
        <time>2021-08-08T14:02:39Z</time>
      </trkpt>
      <trkpt lat="48.99306" lon="0.08986">
        <ele>159.46</ele>
        <time>2021-08-08T14:02:40Z</time>
      </trkpt>
      <trkpt lat="48.99299" lon="0.08994">
        <ele>158.57</ele>
        <time>2021-08-08T14:02:41Z</time>
      </trkpt>
      <trkpt lat="48.99293" lon="0.09">
        <ele>157.82</ele>
        <time>2021-08-08T14:02:42Z</time>
      </trkpt>
      <trkpt lat="48.99286" lon="0.09008">
        <ele>157.07</ele>
        <time>2021-08-08T14:02:43Z</time>
      </trkpt>
      <trkpt lat="48.99281" lon="0.09016">
        <ele>156.31</ele>
        <time>2021-08-08T14:02:44Z</time>
      </trkpt>
      <trkpt lat="48.99277" lon="0.09024">
        <ele>155.51</ele>
        <time>2021-08-08T14:02:45Z</time>
      </trkpt>
      <trkpt lat="48.99271" lon="0.09033">
        <ele>154.43</ele>
        <time>2021-08-08T14:02:46Z</time>
      </trkpt>
      <trkpt lat="48.99266" lon="0.09042">
        <ele>153.19</ele>
        <time>2021-08-08T14:02:47Z</time>
      </trkpt>
      <trkpt lat="48.99262" lon="0.0905">
        <ele>151.97</ele>
        <time>2021-08-08T14:02:48Z</time>
      </trkpt>
      <trkpt lat="48.99257" lon="0.0906">
        <ele>150.7</ele>
        <time>2021-08-08T14:02:49Z</time>
      </trkpt>
      <trkpt lat="48.99251" lon="0.09068">
        <ele>149.66</ele>
        <time>2021-08-08T14:02:50Z</time>
      </trkpt>
      <trkpt lat="48.99247" lon="0.09075">
        <ele>148.75</ele>
        <time>2021-08-08T14:02:51Z</time>
      </trkpt>
      <trkpt lat="48.99242" lon="0.0908">
        <ele>148.01</ele>
        <time>2021-08-08T14:02:52Z</time>
      </trkpt>
      <trkpt lat="48.99239" lon="0.09086">
        <ele>147.3</ele>
        <time>2021-08-08T14:02:53Z</time>
      </trkpt>
      <trkpt lat="48.99237" lon="0.09094">
        <ele>146.59</ele>
        <time>2021-08-08T14:02:54Z</time>
      </trkpt>
      <trkpt lat="48.99237" lon="0.09102">
        <ele>145.94</ele>
        <time>2021-08-08T14:02:55Z</time>
      </trkpt>
      <trkpt lat="48.99238" lon="0.09113">
        <ele>145.23</ele>
        <time>2021-08-08T14:02:56Z</time>
      </trkpt>
      <trkpt lat="48.9924" lon="0.09125">
        <ele>144.35</ele>
        <time>2021-08-08T14:02:57Z</time>
      </trkpt>
      <trkpt lat="48.99241" lon="0.09134">
        <ele>143.48</ele>
        <time>2021-08-08T14:02:58Z</time>
      </trkpt>
      <trkpt lat="48.99244" lon="0.09144">
        <ele>142.75</ele>
        <time>2021-08-08T14:02:59Z</time>
      </trkpt>
      <trkpt lat="48.99245" lon="0.09152">
        <ele>142.19</ele>
        <time>2021-08-08T14:03:00Z</time>
      </trkpt>
      <trkpt lat="48.99249" lon="0.09162">
        <ele>141.6</ele>
        <time>2021-08-08T14:03:01Z</time>
      </trkpt>
      <trkpt lat="48.99253" lon="0.09172">
        <ele>141.29</ele>
        <time>2021-08-08T14:03:02Z</time>
      </trkpt>
      <trkpt lat="48.99257" lon="0.09181">
        <ele>141.17</ele>
        <time>2021-08-08T14:03:03Z</time>
      </trkpt>
      <trkpt lat="48.99261" lon="0.09191">
        <ele>141.04</ele>
        <time>2021-08-08T14:03:04Z</time>
      </trkpt>
      <trkpt lat="48.99265" lon="0.09202">
        <ele>140.91</ele>
        <time>2021-08-08T14:03:05Z</time>
      </trkpt>
      <trkpt lat="48.99269" lon="0.09212">
        <ele>140.77</ele>
        <time>2021-08-08T14:03:06Z</time>
      </trkpt>
      <trkpt lat="48.99273" lon="0.09222">
        <ele>140.67</ele>
        <time>2021-08-08T14:03:07Z</time>
      </trkpt>
      <trkpt lat="48.99278" lon="0.09233">
        <ele>140.34</ele>
        <time>2021-08-08T14:03:08Z</time>
      </trkpt>
      <trkpt lat="48.99283" lon="0.09243">
        <ele>140.11</ele>
        <time>2021-08-08T14:03:09Z</time>
      </trkpt>
      <trkpt lat="48.99289" lon="0.09251">
        <ele>140.15</ele>
        <time>2021-08-08T14:03:10Z</time>
      </trkpt>
      <trkpt lat="48.99295" lon="0.09257">
        <ele>140.33</ele>
        <time>2021-08-08T14:03:11Z</time>
      </trkpt>
      <trkpt lat="48.993" lon="0.09263">
        <ele>140.5</ele>
        <time>2021-08-08T14:03:12Z</time>
      </trkpt>
      <trkpt lat="48.99305" lon="0.09267">
        <ele>140.65</ele>
        <time>2021-08-08T14:03:13Z</time>
      </trkpt>
      <trkpt lat="48.9931" lon="0.09271">
        <ele>140.74</ele>
        <time>2021-08-08T14:03:14Z</time>
      </trkpt>
      <trkpt lat="48.99313" lon="0.09275">
        <ele>140.73</ele>
        <time>2021-08-08T14:03:15Z</time>
      </trkpt>
      <trkpt lat="48.99317" lon="0.09281">
        <ele>140.69</ele>
        <time>2021-08-08T14:03:16Z</time>
      </trkpt>
      <trkpt lat="48.99321" lon="0.09286">
        <ele>140.69</ele>
        <time>2021-08-08T14:03:17Z</time>
      </trkpt>
      <trkpt lat="48.99326" lon="0.0929">
        <ele>140.68</ele>
        <time>2021-08-08T14:03:18Z</time>
      </trkpt>
      <trkpt lat="48.99329" lon="0.09294">
        <ele>140.65</ele>
        <time>2021-08-08T14:03:19Z</time>
      </trkpt>
      <trkpt lat="48.99333" lon="0.09298">
        <ele>140.6</ele>
        <time>2021-08-08T14:03:20Z</time>
      </trkpt>
      <trkpt lat="48.99337" lon="0.093">
        <ele>140.64</ele>
        <time>2021-08-08T14:03:21Z</time>
      </trkpt>
      <trkpt lat="48.99341" lon="0.09303">
        <ele>140.7</ele>
        <time>2021-08-08T14:03:22Z</time>
      </trkpt>
      <trkpt lat="48.99345" lon="0.09305">
        <ele>140.83</ele>
        <time>2021-08-08T14:03:23Z</time>
      </trkpt>
      <trkpt lat="48.99349" lon="0.09307">
        <ele>140.98</ele>
        <time>2021-08-08T14:03:24Z</time>
      </trkpt>
      <trkpt lat="48.99353" lon="0.09307">
        <ele>141.2</ele>
        <time>2021-08-08T14:03:25Z</time>
      </trkpt>
      <trkpt lat="48.99357" lon="0.09308">
        <ele>141.43</ele>
        <time>2021-08-08T14:03:26Z</time>
      </trkpt>
      <trkpt lat="48.99361" lon="0.09309">
        <ele>141.68</ele>
        <time>2021-08-08T14:03:27Z</time>
      </trkpt>
      <trkpt lat="48.99365" lon="0.09309">
        <ele>141.82</ele>
        <time>2021-08-08T14:03:28Z</time>
      </trkpt>
      <trkpt lat="48.9937" lon="0.09309">
        <ele>141.97</ele>
        <time>2021-08-08T14:03:29Z</time>
      </trkpt>
      <trkpt lat="48.99374" lon="0.0931">
        <ele>142.12</ele>
        <time>2021-08-08T14:03:30Z</time>
      </trkpt>
      <trkpt lat="48.99379" lon="0.09309">
        <ele>142.29</ele>
        <time>2021-08-08T14:03:31Z</time>
      </trkpt>
      <trkpt lat="48.99383" lon="0.09309">
        <ele>142.48</ele>
        <time>2021-08-08T14:03:32Z</time>
      </trkpt>
      <trkpt lat="48.99388" lon="0.0931">
        <ele>142.61</ele>
        <time>2021-08-08T14:03:33Z</time>
      </trkpt>
      <trkpt lat="48.99392" lon="0.0931">
        <ele>142.75</ele>
        <time>2021-08-08T14:03:34Z</time>
      </trkpt>
      <trkpt lat="48.99396" lon="0.0931">
        <ele>142.9</ele>
        <time>2021-08-08T14:03:35Z</time>
      </trkpt>
      <trkpt lat="48.99401" lon="0.0931">
        <ele>143.03</ele>
        <time>2021-08-08T14:03:36Z</time>
      </trkpt>
      <trkpt lat="48.99405" lon="0.09311">
        <ele>143.17</ele>
        <time>2021-08-08T14:03:37Z</time>
      </trkpt>
      <trkpt lat="48.9941" lon="0.09312">
        <ele>143.26</ele>
        <time>2021-08-08T14:03:38Z</time>
      </trkpt>
      <trkpt lat="48.99414" lon="0.09312">
        <ele>143.37</ele>
        <time>2021-08-08T14:03:39Z</time>
      </trkpt>
      <trkpt lat="48.99419" lon="0.09312">
        <ele>143.49</ele>
        <time>2021-08-08T14:03:40Z</time>
      </trkpt>
      <trkpt lat="48.99423" lon="0.09312">
        <ele>143.52</ele>
        <time>2021-08-08T14:03:41Z</time>
      </trkpt>
      <trkpt lat="48.99426" lon="0.09312">
        <ele>143.52</ele>
        <time>2021-08-08T14:03:42Z</time>
      </trkpt>
      <trkpt lat="48.99429" lon="0.09314">
        <ele>143.44</ele>
        <time>2021-08-08T14:03:43Z</time>
      </trkpt>
      <trkpt lat="48.99432" lon="0.09315">
        <ele>143.36</ele>
        <time>2021-08-08T14:03:44Z</time>
      </trkpt>
      <trkpt lat="48.99435" lon="0.09316">
        <ele>143.28</ele>
        <time>2021-08-08T14:03:45Z</time>
      </trkpt>
      <trkpt lat="48.99439" lon="0.09317">
        <ele>143.18</ele>
        <time>2021-08-08T14:03:46Z</time>
      </trkpt>
      <trkpt lat="48.99444" lon="0.09319">
        <ele>143.08</ele>
        <time>2021-08-08T14:03:47Z</time>
      </trkpt>
      <trkpt lat="48.99448" lon="0.09321">
        <ele>142.94</ele>
        <time>2021-08-08T14:03:48Z</time>
      </trkpt>
      <trkpt lat="48.99452" lon="0.09323">
        <ele>142.8</ele>
        <time>2021-08-08T14:03:49Z</time>
      </trkpt>
      <trkpt lat="48.99457" lon="0.09323">
        <ele>142.76</ele>
        <time>2021-08-08T14:03:50Z</time>
      </trkpt>
      <trkpt lat="48.99463" lon="0.09323">
        <ele>142.75</ele>
        <time>2021-08-08T14:03:51Z</time>
      </trkpt>
      <trkpt lat="48.99468" lon="0.09324">
        <ele>142.69</ele>
        <time>2021-08-08T14:03:52Z</time>
      </trkpt>
      <trkpt lat="48.99473" lon="0.09327">
        <ele>142.52</ele>
        <time>2021-08-08T14:03:53Z</time>
      </trkpt>
      <trkpt lat="48.9948" lon="0.09328">
        <ele>142.42</ele>
        <time>2021-08-08T14:03:54Z</time>
      </trkpt>
      <trkpt lat="48.99487" lon="0.09329">
        <ele>142.34</ele>
        <time>2021-08-08T14:03:55Z</time>
      </trkpt>
      <trkpt lat="48.99493" lon="0.09331">
        <ele>142.22</ele>
        <time>2021-08-08T14:03:56Z</time>
      </trkpt>
      <trkpt lat="48.99498" lon="0.09333">
        <ele>142.1</ele>
        <time>2021-08-08T14:03:57Z</time>
      </trkpt>
      <trkpt lat="48.99503" lon="0.09334">
        <ele>141.98</ele>
        <time>2021-08-08T14:03:58Z</time>
      </trkpt>
      <trkpt lat="48.99507" lon="0.09336">
        <ele>141.86</ele>
        <time>2021-08-08T14:03:59Z</time>
      </trkpt>
      <trkpt lat="48.99512" lon="0.09337">
        <ele>141.75</ele>
        <time>2021-08-08T14:04:00Z</time>
      </trkpt>
      <trkpt lat="48.99517" lon="0.09339">
        <ele>141.63</ele>
        <time>2021-08-08T14:04:01Z</time>
      </trkpt>
      <trkpt lat="48.99523" lon="0.09341">
        <ele>141.51</ele>
        <time>2021-08-08T14:04:02Z</time>
      </trkpt>
      <trkpt lat="48.99528" lon="0.09342">
        <ele>141.39</ele>
        <time>2021-08-08T14:04:03Z</time>
      </trkpt>
      <trkpt lat="48.99533" lon="0.09344">
        <ele>141.21</ele>
        <time>2021-08-08T14:04:04Z</time>
      </trkpt>
      <trkpt lat="48.99539" lon="0.09345">
        <ele>141</ele>
        <time>2021-08-08T14:04:05Z</time>
      </trkpt>
      <trkpt lat="48.99545" lon="0.09346">
        <ele>140.84</ele>
        <time>2021-08-08T14:04:06Z</time>
      </trkpt>
      <trkpt lat="48.99551" lon="0.09346">
        <ele>140.71</ele>
        <time>2021-08-08T14:04:07Z</time>
      </trkpt>
      <trkpt lat="48.99557" lon="0.09345">
        <ele>140.59</ele>
        <time>2021-08-08T14:04:08Z</time>
      </trkpt>
      <trkpt lat="48.99563" lon="0.09344">
        <ele>140.42</ele>
        <time>2021-08-08T14:04:09Z</time>
      </trkpt>
      <trkpt lat="48.99568" lon="0.09343">
        <ele>140.26</ele>
        <time>2021-08-08T14:04:10Z</time>
      </trkpt>
      <trkpt lat="48.99574" lon="0.09342">
        <ele>140.1</ele>
        <time>2021-08-08T14:04:11Z</time>
      </trkpt>
      <trkpt lat="48.99579" lon="0.0934">
        <ele>139.96</ele>
        <time>2021-08-08T14:04:12Z</time>
      </trkpt>
      <trkpt lat="48.99584" lon="0.09337">
        <ele>139.87</ele>
        <time>2021-08-08T14:04:13Z</time>
      </trkpt>
      <trkpt lat="48.99589" lon="0.09333">
        <ele>139.83</ele>
        <time>2021-08-08T14:04:14Z</time>
      </trkpt>
      <trkpt lat="48.99594" lon="0.09329">
        <ele>139.91</ele>
        <time>2021-08-08T14:04:15Z</time>
      </trkpt>
      <trkpt lat="48.99599" lon="0.09324">
        <ele>140.03</ele>
        <time>2021-08-08T14:04:16Z</time>
      </trkpt>
      <trkpt lat="48.99605" lon="0.09319">
        <ele>140.2</ele>
        <time>2021-08-08T14:04:17Z</time>
      </trkpt>
      <trkpt lat="48.9961" lon="0.09314">
        <ele>140.39</ele>
        <time>2021-08-08T14:04:18Z</time>
      </trkpt>
      <trkpt lat="48.99614" lon="0.09308">
        <ele>140.62</ele>
        <time>2021-08-08T14:04:19Z</time>
      </trkpt>
      <trkpt lat="48.99619" lon="0.09302">
        <ele>140.84</ele>
        <time>2021-08-08T14:04:20Z</time>
      </trkpt>
      <trkpt lat="48.99625" lon="0.09297">
        <ele>141.05</ele>
        <time>2021-08-08T14:04:21Z</time>
      </trkpt>
      <trkpt lat="48.9963" lon="0.09292">
        <ele>141.21</ele>
        <time>2021-08-08T14:04:22Z</time>
      </trkpt>
      <trkpt lat="48.99635" lon="0.09289">
        <ele>141.29</ele>
        <time>2021-08-08T14:04:23Z</time>
      </trkpt>
      <trkpt lat="48.99641" lon="0.09285">
        <ele>141.36</ele>
        <time>2021-08-08T14:04:24Z</time>
      </trkpt>
      <trkpt lat="48.99647" lon="0.09281">
        <ele>141.42</ele>
        <time>2021-08-08T14:04:25Z</time>
      </trkpt>
      <trkpt lat="48.99653" lon="0.09278">
        <ele>141.44</ele>
        <time>2021-08-08T14:04:26Z</time>
      </trkpt>
      <trkpt lat="48.99658" lon="0.09274">
        <ele>141.51</ele>
        <time>2021-08-08T14:04:27Z</time>
      </trkpt>
      <trkpt lat="48.99663" lon="0.09271">
        <ele>141.61</ele>
        <time>2021-08-08T14:04:28Z</time>
      </trkpt>
      <trkpt lat="48.99669" lon="0.09267">
        <ele>141.65</ele>
        <time>2021-08-08T14:04:29Z</time>
      </trkpt>
      <trkpt lat="48.99675" lon="0.09264">
        <ele>141.69</ele>
        <time>2021-08-08T14:04:30Z</time>
      </trkpt>
      <trkpt lat="48.9968" lon="0.0926">
        <ele>141.76</ele>
        <time>2021-08-08T14:04:31Z</time>
      </trkpt>
      <trkpt lat="48.99684" lon="0.09258">
        <ele>141.8</ele>
        <time>2021-08-08T14:04:32Z</time>
      </trkpt>
      <trkpt lat="48.9969" lon="0.09255">
        <ele>141.8</ele>
        <time>2021-08-08T14:04:33Z</time>
      </trkpt>
      <trkpt lat="48.99694" lon="0.09253">
        <ele>141.82</ele>
        <time>2021-08-08T14:04:34Z</time>
      </trkpt>
      <trkpt lat="48.99698" lon="0.0925">
        <ele>141.84</ele>
        <time>2021-08-08T14:04:35Z</time>
      </trkpt>
      <trkpt lat="48.99703" lon="0.09248">
        <ele>141.8</ele>
        <time>2021-08-08T14:04:36Z</time>
      </trkpt>
      <trkpt lat="48.99709" lon="0.09246">
        <ele>141.77</ele>
        <time>2021-08-08T14:04:37Z</time>
      </trkpt>
      <trkpt lat="48.99713" lon="0.09245">
        <ele>141.69</ele>
        <time>2021-08-08T14:04:38Z</time>
      </trkpt>
      <trkpt lat="48.99718" lon="0.09242">
        <ele>141.71</ele>
        <time>2021-08-08T14:04:39Z</time>
      </trkpt>
      <trkpt lat="48.9972" lon="0.09239">
        <ele>141.82</ele>
        <time>2021-08-08T14:04:40Z</time>
      </trkpt>
      <trkpt lat="48.99723" lon="0.09235">
        <ele>142</ele>
        <time>2021-08-08T14:04:41Z</time>
      </trkpt>
      <trkpt lat="48.99723" lon="0.09231">
        <ele>142.26</ele>
        <time>2021-08-08T14:04:42Z</time>
      </trkpt>
      <trkpt lat="48.99723" lon="0.09227">
        <ele>142.55</ele>
        <time>2021-08-08T14:04:43Z</time>
      </trkpt>
      <trkpt lat="48.99723" lon="0.09223">
        <ele>142.82</ele>
        <time>2021-08-08T14:04:44Z</time>
      </trkpt>
      <trkpt lat="48.99722" lon="0.09219">
        <ele>143.2</ele>
        <time>2021-08-08T14:04:45Z</time>
      </trkpt>
      <trkpt lat="48.99723" lon="0.09215">
        <ele>143.62</ele>
        <time>2021-08-08T14:04:46Z</time>
      </trkpt>
      <trkpt lat="48.99723" lon="0.09211">
        <ele>144.02</ele>
        <time>2021-08-08T14:04:47Z</time>
      </trkpt>
      <trkpt lat="48.99722" lon="0.09207">
        <ele>144.43</ele>
        <time>2021-08-08T14:04:48Z</time>
      </trkpt>
      <trkpt lat="48.99722" lon="0.09204">
        <ele>144.82</ele>
        <time>2021-08-08T14:04:49Z</time>
      </trkpt>
      <trkpt lat="48.99723" lon="0.092">
        <ele>145.18</ele>
        <time>2021-08-08T14:04:50Z</time>
      </trkpt>
      <trkpt lat="48.99723" lon="0.09197">
        <ele>145.51</ele>
        <time>2021-08-08T14:04:51Z</time>
      </trkpt>
      <trkpt lat="48.99724" lon="0.09193">
        <ele>145.87</ele>
        <time>2021-08-08T14:04:52Z</time>
      </trkpt>
      <trkpt lat="48.99724" lon="0.09191">
        <ele>146.08</ele>
        <time>2021-08-08T14:04:53Z</time>
      </trkpt>
      <trkpt lat="48.99724" lon="0.09189">
        <ele>146.27</ele>
        <time>2021-08-08T14:04:54Z</time>
      </trkpt>
      <trkpt lat="48.99724" lon="0.09187">
        <ele>146.42</ele>
        <time>2021-08-08T14:04:55Z</time>
      </trkpt>
      <trkpt lat="48.99723" lon="0.09185">
        <ele>146.59</ele>
        <time>2021-08-08T14:04:56Z</time>
      </trkpt>
      <trkpt lat="48.99723" lon="0.0918">
        <ele>146.87</ele>
        <time>2021-08-08T14:04:57Z</time>
      </trkpt>
      <trkpt lat="48.99723" lon="0.09176">
        <ele>147.14</ele>
        <time>2021-08-08T14:04:58Z</time>
      </trkpt>
      <trkpt lat="48.99723" lon="0.09173">
        <ele>147.4</ele>
        <time>2021-08-08T14:04:59Z</time>
      </trkpt>
      <trkpt lat="48.99724" lon="0.0917">
        <ele>147.62</ele>
        <time>2021-08-08T14:05:00Z</time>
      </trkpt>
      <trkpt lat="48.99723" lon="0.09166">
        <ele>147.88</ele>
        <time>2021-08-08T14:05:01Z</time>
      </trkpt>
      <trkpt lat="48.99723" lon="0.09162">
        <ele>148.18</ele>
        <time>2021-08-08T14:05:02Z</time>
      </trkpt>
      <trkpt lat="48.99724" lon="0.0916">
        <ele>148.37</ele>
        <time>2021-08-08T14:05:03Z</time>
      </trkpt>
      <trkpt lat="48.99724" lon="0.09158">
        <ele>148.52</ele>
        <time>2021-08-08T14:05:04Z</time>
      </trkpt>
      <trkpt lat="48.99725" lon="0.09155">
        <ele>148.7</ele>
        <time>2021-08-08T14:05:05Z</time>
      </trkpt>
      <trkpt lat="48.99725" lon="0.09153">
        <ele>148.88</ele>
        <time>2021-08-08T14:05:06Z</time>
      </trkpt>
      <trkpt lat="48.99725" lon="0.09149">
        <ele>149.11</ele>
        <time>2021-08-08T14:05:07Z</time>
      </trkpt>
      <trkpt lat="48.99725" lon="0.09148">
        <ele>149.25</ele>
        <time>2021-08-08T14:05:08Z</time>
      </trkpt>
      <trkpt lat="48.99726" lon="0.09146">
        <ele>149.38</ele>
        <time>2021-08-08T14:05:09Z</time>
      </trkpt>
      <trkpt lat="48.99726" lon="0.09142">
        <ele>149.63</ele>
        <time>2021-08-08T14:05:10Z</time>
      </trkpt>
      <trkpt lat="48.99726" lon="0.0914">
        <ele>149.82</ele>
        <time>2021-08-08T14:05:11Z</time>
      </trkpt>
      <trkpt lat="48.99726" lon="0.09137">
        <ele>150.06</ele>
        <time>2021-08-08T14:05:12Z</time>
      </trkpt>
      <trkpt lat="48.99726" lon="0.09134">
        <ele>150.27</ele>
        <time>2021-08-08T14:05:13Z</time>
      </trkpt>
      <trkpt lat="48.99726" lon="0.09132">
        <ele>150.43</ele>
        <time>2021-08-08T14:05:14Z</time>
      </trkpt>
      <trkpt lat="48.99726" lon="0.09129">
        <ele>150.61</ele>
        <time>2021-08-08T14:05:15Z</time>
      </trkpt>
      <trkpt lat="48.99726" lon="0.09127">
        <ele>150.81</ele>
        <time>2021-08-08T14:05:16Z</time>
      </trkpt>
      <trkpt lat="48.99726" lon="0.09124">
        <ele>150.99</ele>
        <time>2021-08-08T14:05:17Z</time>
      </trkpt>
      <trkpt lat="48.99727" lon="0.0912">
        <ele>151.22</ele>
        <time>2021-08-08T14:05:18Z</time>
      </trkpt>
      <trkpt lat="48.99726" lon="0.09117">
        <ele>151.45</ele>
        <time>2021-08-08T14:05:19Z</time>
      </trkpt>
      <trkpt lat="48.99726" lon="0.09114">
        <ele>151.67</ele>
        <time>2021-08-08T14:05:20Z</time>
      </trkpt>
      <trkpt lat="48.99727" lon="0.09111">
        <ele>151.88</ele>
        <time>2021-08-08T14:05:21Z</time>
      </trkpt>
      <trkpt lat="48.99727" lon="0.09108">
        <ele>152.1</ele>
        <time>2021-08-08T14:05:22Z</time>
      </trkpt>
      <trkpt lat="48.99727" lon="0.09105">
        <ele>152.31</ele>
        <time>2021-08-08T14:05:23Z</time>
      </trkpt>
      <trkpt lat="48.99726" lon="0.09103">
        <ele>152.5</ele>
        <time>2021-08-08T14:05:24Z</time>
      </trkpt>
      <trkpt lat="48.99726" lon="0.09101">
        <ele>152.66</ele>
        <time>2021-08-08T14:05:25Z</time>
      </trkpt>
      <trkpt lat="48.99726" lon="0.09098">
        <ele>152.84</ele>
        <time>2021-08-08T14:05:26Z</time>
      </trkpt>
      <trkpt lat="48.99726" lon="0.09096">
        <ele>153.01</ele>
        <time>2021-08-08T14:05:27Z</time>
      </trkpt>
      <trkpt lat="48.99726" lon="0.09094">
        <ele>153.16</ele>
        <time>2021-08-08T14:05:28Z</time>
      </trkpt>
      <trkpt lat="48.99726" lon="0.09092">
        <ele>153.32</ele>
        <time>2021-08-08T14:05:29Z</time>
      </trkpt>
      <trkpt lat="48.99726" lon="0.09089">
        <ele>153.53</ele>
        <time>2021-08-08T14:05:30Z</time>
      </trkpt>
      <trkpt lat="48.99726" lon="0.09086">
        <ele>153.73</ele>
        <time>2021-08-08T14:05:31Z</time>
      </trkpt>
      <trkpt lat="48.99726" lon="0.09083">
        <ele>153.93</ele>
        <time>2021-08-08T14:05:32Z</time>
      </trkpt>
      <trkpt lat="48.99724" lon="0.09079">
        <ele>154.2</ele>
        <time>2021-08-08T14:05:33Z</time>
      </trkpt>
      <trkpt lat="48.99724" lon="0.09075">
        <ele>154.45</ele>
        <time>2021-08-08T14:05:34Z</time>
      </trkpt>
      <trkpt lat="48.99723" lon="0.09073">
        <ele>154.66</ele>
        <time>2021-08-08T14:05:35Z</time>
      </trkpt>
      <trkpt lat="48.99722" lon="0.09069">
        <ele>154.92</ele>
        <time>2021-08-08T14:05:36Z</time>
      </trkpt>
      <trkpt lat="48.99721" lon="0.09066">
        <ele>155.17</ele>
        <time>2021-08-08T14:05:37Z</time>
      </trkpt>
      <trkpt lat="48.9972" lon="0.09063">
        <ele>155.42</ele>
        <time>2021-08-08T14:05:38Z</time>
      </trkpt>
      <trkpt lat="48.99719" lon="0.0906">
        <ele>155.67</ele>
        <time>2021-08-08T14:05:39Z</time>
      </trkpt>
      <trkpt lat="48.99718" lon="0.09057">
        <ele>155.95</ele>
        <time>2021-08-08T14:05:40Z</time>
      </trkpt>
      <trkpt lat="48.99717" lon="0.09053">
        <ele>156.24</ele>
        <time>2021-08-08T14:05:41Z</time>
      </trkpt>
      <trkpt lat="48.99716" lon="0.09049">
        <ele>156.58</ele>
        <time>2021-08-08T14:05:42Z</time>
      </trkpt>
      <trkpt lat="48.99715" lon="0.09044">
        <ele>156.92</ele>
        <time>2021-08-08T14:05:43Z</time>
      </trkpt>
      <trkpt lat="48.99714" lon="0.0904">
        <ele>157.26</ele>
        <time>2021-08-08T14:05:44Z</time>
      </trkpt>
      <trkpt lat="48.99714" lon="0.09036">
        <ele>157.56</ele>
        <time>2021-08-08T14:05:45Z</time>
      </trkpt>
      <trkpt lat="48.99714" lon="0.09032">
        <ele>157.85</ele>
        <time>2021-08-08T14:05:46Z</time>
      </trkpt>
      <trkpt lat="48.99714" lon="0.09028">
        <ele>158.13</ele>
        <time>2021-08-08T14:05:47Z</time>
      </trkpt>
      <trkpt lat="48.99714" lon="0.09025">
        <ele>158.36</ele>
        <time>2021-08-08T14:05:48Z</time>
      </trkpt>
      <trkpt lat="48.99713" lon="0.09023">
        <ele>158.54</ele>
        <time>2021-08-08T14:05:49Z</time>
      </trkpt>
      <trkpt lat="48.99713" lon="0.09021">
        <ele>158.7</ele>
        <time>2021-08-08T14:05:50Z</time>
      </trkpt>
      <trkpt lat="48.99713" lon="0.09016">
        <ele>158.92</ele>
        <time>2021-08-08T14:05:51Z</time>
      </trkpt>
      <trkpt lat="48.99712" lon="0.09012">
        <ele>159.16</ele>
        <time>2021-08-08T14:05:52Z</time>
      </trkpt>
      <trkpt lat="48.99711" lon="0.09009">
        <ele>159.36</ele>
        <time>2021-08-08T14:05:53Z</time>
      </trkpt>
      <trkpt lat="48.9971" lon="0.09005">
        <ele>159.6</ele>
        <time>2021-08-08T14:05:54Z</time>
      </trkpt>
      <trkpt lat="48.99709" lon="0.09002">
        <ele>159.81</ele>
        <time>2021-08-08T14:05:55Z</time>
      </trkpt>
      <trkpt lat="48.99708" lon="0.08998">
        <ele>160.04</ele>
        <time>2021-08-08T14:05:56Z</time>
      </trkpt>
      <trkpt lat="48.99707" lon="0.08993">
        <ele>160.27</ele>
        <time>2021-08-08T14:05:57Z</time>
      </trkpt>
      <trkpt lat="48.99706" lon="0.08991">
        <ele>160.45</ele>
        <time>2021-08-08T14:05:58Z</time>
      </trkpt>
      <trkpt lat="48.99705" lon="0.08986">
        <ele>160.69</ele>
        <time>2021-08-08T14:05:59Z</time>
      </trkpt>
      <trkpt lat="48.99704" lon="0.08983">
        <ele>160.9</ele>
        <time>2021-08-08T14:06:00Z</time>
      </trkpt>
      <trkpt lat="48.99703" lon="0.08981">
        <ele>161.09</ele>
        <time>2021-08-08T14:06:01Z</time>
      </trkpt>
      <trkpt lat="48.99703" lon="0.08978">
        <ele>161.29</ele>
        <time>2021-08-08T14:06:02Z</time>
      </trkpt>
      <trkpt lat="48.99702" lon="0.08976">
        <ele>161.4</ele>
        <time>2021-08-08T14:06:03Z</time>
      </trkpt>
      <trkpt lat="48.99702" lon="0.08974">
        <ele>161.57</ele>
        <time>2021-08-08T14:06:04Z</time>
      </trkpt>
      <trkpt lat="48.997" lon="0.0897">
        <ele>161.78</ele>
        <time>2021-08-08T14:06:05Z</time>
      </trkpt>
      <trkpt lat="48.997" lon="0.08966">
        <ele>161.95</ele>
        <time>2021-08-08T14:06:06Z</time>
      </trkpt>
      <trkpt lat="48.997" lon="0.08964">
        <ele>162.04</ele>
        <time>2021-08-08T14:06:07Z</time>
      </trkpt>
      <trkpt lat="48.997" lon="0.08961">
        <ele>162.17</ele>
        <time>2021-08-08T14:06:08Z</time>
      </trkpt>
      <trkpt lat="48.99699" lon="0.08958">
        <ele>162.28</ele>
        <time>2021-08-08T14:06:09Z</time>
      </trkpt>
      <trkpt lat="48.99698" lon="0.08955">
        <ele>162.42</ele>
        <time>2021-08-08T14:06:10Z</time>
      </trkpt>
      <trkpt lat="48.99698" lon="0.08952">
        <ele>162.54</ele>
        <time>2021-08-08T14:06:11Z</time>
      </trkpt>
      <trkpt lat="48.99696" lon="0.08949">
        <ele>162.72</ele>
        <time>2021-08-08T14:06:12Z</time>
      </trkpt>
      <trkpt lat="48.99695" lon="0.08945">
        <ele>162.88</ele>
        <time>2021-08-08T14:06:13Z</time>
      </trkpt>
      <trkpt lat="48.99695" lon="0.08941">
        <ele>163.03</ele>
        <time>2021-08-08T14:06:14Z</time>
      </trkpt>
      <trkpt lat="48.99694" lon="0.08939">
        <ele>163.16</ele>
        <time>2021-08-08T14:06:15Z</time>
      </trkpt>
      <trkpt lat="48.99693" lon="0.08936">
        <ele>163.31</ele>
        <time>2021-08-08T14:06:16Z</time>
      </trkpt>
      <trkpt lat="48.99692" lon="0.08931">
        <ele>163.49</ele>
        <time>2021-08-08T14:06:17Z</time>
      </trkpt>
      <trkpt lat="48.99691" lon="0.08927">
        <ele>163.69</ele>
        <time>2021-08-08T14:06:18Z</time>
      </trkpt>
      <trkpt lat="48.99689" lon="0.08923">
        <ele>163.88</ele>
        <time>2021-08-08T14:06:19Z</time>
      </trkpt>
      <trkpt lat="48.99688" lon="0.08918">
        <ele>164.09</ele>
        <time>2021-08-08T14:06:20Z</time>
      </trkpt>
      <trkpt lat="48.99687" lon="0.08914">
        <ele>164.28</ele>
        <time>2021-08-08T14:06:21Z</time>
      </trkpt>
      <trkpt lat="48.99686" lon="0.0891">
        <ele>164.48</ele>
        <time>2021-08-08T14:06:22Z</time>
      </trkpt>
      <trkpt lat="48.99684" lon="0.08906">
        <ele>164.67</ele>
        <time>2021-08-08T14:06:23Z</time>
      </trkpt>
      <trkpt lat="48.99683" lon="0.08902">
        <ele>164.86</ele>
        <time>2021-08-08T14:06:24Z</time>
      </trkpt>
      <trkpt lat="48.99682" lon="0.08899">
        <ele>165.03</ele>
        <time>2021-08-08T14:06:25Z</time>
      </trkpt>
      <trkpt lat="48.99681" lon="0.08894">
        <ele>165.22</ele>
        <time>2021-08-08T14:06:26Z</time>
      </trkpt>
      <trkpt lat="48.9968" lon="0.08889">
        <ele>165.44</ele>
        <time>2021-08-08T14:06:27Z</time>
      </trkpt>
      <trkpt lat="48.99678" lon="0.08885">
        <ele>165.63</ele>
        <time>2021-08-08T14:06:28Z</time>
      </trkpt>
      <trkpt lat="48.99678" lon="0.08881">
        <ele>165.81</ele>
        <time>2021-08-08T14:06:29Z</time>
      </trkpt>
      <trkpt lat="48.99677" lon="0.08875">
        <ele>166.03</ele>
        <time>2021-08-08T14:06:30Z</time>
      </trkpt>
      <trkpt lat="48.99676" lon="0.0887">
        <ele>166.25</ele>
        <time>2021-08-08T14:06:31Z</time>
      </trkpt>
      <trkpt lat="48.99675" lon="0.08863">
        <ele>166.53</ele>
        <time>2021-08-08T14:06:32Z</time>
      </trkpt>
      <trkpt lat="48.99674" lon="0.08858">
        <ele>166.78</ele>
        <time>2021-08-08T14:06:33Z</time>
      </trkpt>
      <trkpt lat="48.99672" lon="0.08853">
        <ele>167</ele>
        <time>2021-08-08T14:06:34Z</time>
      </trkpt>
      <trkpt lat="48.9967" lon="0.0885">
        <ele>167.19</ele>
        <time>2021-08-08T14:06:35Z</time>
      </trkpt>
      <trkpt lat="48.99669" lon="0.08846">
        <ele>167.38</ele>
        <time>2021-08-08T14:06:36Z</time>
      </trkpt>
      <trkpt lat="48.99667" lon="0.0884">
        <ele>167.64</ele>
        <time>2021-08-08T14:06:37Z</time>
      </trkpt>
      <trkpt lat="48.99665" lon="0.08837">
        <ele>167.81</ele>
        <time>2021-08-08T14:06:38Z</time>
      </trkpt>
      <trkpt lat="48.99665" lon="0.08832">
        <ele>167.94</ele>
        <time>2021-08-08T14:06:39Z</time>
      </trkpt>
      <trkpt lat="48.99664" lon="0.08829">
        <ele>167.99</ele>
        <time>2021-08-08T14:06:40Z</time>
      </trkpt>
      <trkpt lat="48.99663" lon="0.08825">
        <ele>168.03</ele>
        <time>2021-08-08T14:06:41Z</time>
      </trkpt>
      <trkpt lat="48.99662" lon="0.08822">
        <ele>168.06</ele>
        <time>2021-08-08T14:06:42Z</time>
      </trkpt>
      <trkpt lat="48.99661" lon="0.08818">
        <ele>168.1</ele>
        <time>2021-08-08T14:06:43Z</time>
      </trkpt>
      <trkpt lat="48.9966" lon="0.08814">
        <ele>168.15</ele>
        <time>2021-08-08T14:06:44Z</time>
      </trkpt>
      <trkpt lat="48.99658" lon="0.08811">
        <ele>168.22</ele>
        <time>2021-08-08T14:06:45Z</time>
      </trkpt>
      <trkpt lat="48.99658" lon="0.08807">
        <ele>168.27</ele>
        <time>2021-08-08T14:06:46Z</time>
      </trkpt>
      <trkpt lat="48.99657" lon="0.08804">
        <ele>168.38</ele>
        <time>2021-08-08T14:06:47Z</time>
      </trkpt>
      <trkpt lat="48.99653" lon="0.08799">
        <ele>168.63</ele>
        <time>2021-08-08T14:06:48Z</time>
      </trkpt>
      <trkpt lat="48.99651" lon="0.08792">
        <ele>168.91</ele>
        <time>2021-08-08T14:06:49Z</time>
      </trkpt>
      <trkpt lat="48.9965" lon="0.08787">
        <ele>169.18</ele>
        <time>2021-08-08T14:06:50Z</time>
      </trkpt>
      <trkpt lat="48.99648" lon="0.08782">
        <ele>169.41</ele>
        <time>2021-08-08T14:06:51Z</time>
      </trkpt>
      <trkpt lat="48.99646" lon="0.08778">
        <ele>169.65</ele>
        <time>2021-08-08T14:06:52Z</time>
      </trkpt>
      <trkpt lat="48.99644" lon="0.08772">
        <ele>169.8</ele>
        <time>2021-08-08T14:06:53Z</time>
      </trkpt>
      <trkpt lat="48.99642" lon="0.08768">
        <ele>169.89</ele>
        <time>2021-08-08T14:06:54Z</time>
      </trkpt>
      <trkpt lat="48.99641" lon="0.08763">
        <ele>169.94</ele>
        <time>2021-08-08T14:06:55Z</time>
      </trkpt>
      <trkpt lat="48.9964" lon="0.08759">
        <ele>169.98</ele>
        <time>2021-08-08T14:06:56Z</time>
      </trkpt>
      <trkpt lat="48.99638" lon="0.08755">
        <ele>169.99</ele>
        <time>2021-08-08T14:06:57Z</time>
      </trkpt>
      <trkpt lat="48.99637" lon="0.08751">
        <ele>170</ele>
        <time>2021-08-08T14:06:58Z</time>
      </trkpt>
      <trkpt lat="48.99636" lon="0.08745">
        <ele>170.13</ele>
        <time>2021-08-08T14:06:59Z</time>
      </trkpt>
      <trkpt lat="48.99636" lon="0.08739">
        <ele>170.32</ele>
        <time>2021-08-08T14:07:00Z</time>
      </trkpt>
      <trkpt lat="48.99636" lon="0.08733">
        <ele>170.53</ele>
        <time>2021-08-08T14:07:01Z</time>
      </trkpt>
      <trkpt lat="48.99638" lon="0.08728">
        <ele>170.7</ele>
        <time>2021-08-08T14:07:02Z</time>
      </trkpt>
      <trkpt lat="48.99641" lon="0.08726">
        <ele>170.76</ele>
        <time>2021-08-08T14:07:03Z</time>
      </trkpt>
      <trkpt lat="48.99644" lon="0.08723">
        <ele>170.78</ele>
        <time>2021-08-08T14:07:04Z</time>
      </trkpt>
      <trkpt lat="48.99647" lon="0.0872">
        <ele>170.72</ele>
        <time>2021-08-08T14:07:05Z</time>
      </trkpt>
      <trkpt lat="48.99651" lon="0.08717">
        <ele>170.62</ele>
        <time>2021-08-08T14:07:06Z</time>
      </trkpt>
      <trkpt lat="48.99653" lon="0.08713">
        <ele>170.52</ele>
        <time>2021-08-08T14:07:07Z</time>
      </trkpt>
      <trkpt lat="48.99656" lon="0.0871">
        <ele>170.42</ele>
        <time>2021-08-08T14:07:08Z</time>
      </trkpt>
      <trkpt lat="48.99659" lon="0.08707">
        <ele>170.32</ele>
        <time>2021-08-08T14:07:09Z</time>
      </trkpt>
      <trkpt lat="48.99661" lon="0.08706">
        <ele>170.24</ele>
        <time>2021-08-08T14:07:10Z</time>
      </trkpt>
      <trkpt lat="48.99661" lon="0.08703">
        <ele>170.21</ele>
        <time>2021-08-08T14:07:11Z</time>
      </trkpt>
      <trkpt lat="48.99661" lon="0.08703">
        <ele>170.21</ele>
        <time>2021-08-08T14:07:12Z</time>
      </trkpt>
      <trkpt lat="48.9966" lon="0.08704">
        <ele>170.24</ele>
        <time>2021-08-08T14:07:13Z</time>
      </trkpt>
      <trkpt lat="48.99658" lon="0.08705">
        <ele>170.3</ele>
        <time>2021-08-08T14:07:14Z</time>
      </trkpt>
      <trkpt lat="48.99656" lon="0.08705">
        <ele>170.35</ele>
        <time>2021-08-08T14:07:15Z</time>
      </trkpt>
      <trkpt lat="48.99655" lon="0.08706">
        <ele>170.41</ele>
        <time>2021-08-08T14:07:16Z</time>
      </trkpt>
      <trkpt lat="48.99652" lon="0.08708">
        <ele>170.48</ele>
        <time>2021-08-08T14:07:17Z</time>
      </trkpt>
      <trkpt lat="48.99649" lon="0.0871">
        <ele>170.58</ele>
        <time>2021-08-08T14:07:18Z</time>
      </trkpt>
      <trkpt lat="48.99646" lon="0.08711">
        <ele>170.7</ele>
        <time>2021-08-08T14:07:19Z</time>
      </trkpt>
      <trkpt lat="48.99642" lon="0.08713">
        <ele>170.82</ele>
        <time>2021-08-08T14:07:20Z</time>
      </trkpt>
      <trkpt lat="48.99639" lon="0.08714">
        <ele>170.95</ele>
        <time>2021-08-08T14:07:21Z</time>
      </trkpt>
      <trkpt lat="48.99636" lon="0.08714">
        <ele>170.98</ele>
        <time>2021-08-08T14:07:22Z</time>
      </trkpt>
      <trkpt lat="48.99633" lon="0.08713">
        <ele>171</ele>
        <time>2021-08-08T14:07:23Z</time>
      </trkpt>
      <trkpt lat="48.99631" lon="0.08711">
        <ele>171</ele>
        <time>2021-08-08T14:07:24Z</time>
      </trkpt>
      <trkpt lat="48.99629" lon="0.08708">
        <ele>171</ele>
        <time>2021-08-08T14:07:25Z</time>
      </trkpt>
      <trkpt lat="48.99628" lon="0.08704">
        <ele>171</ele>
        <time>2021-08-08T14:07:26Z</time>
      </trkpt>
      <trkpt lat="48.99627" lon="0.087">
        <ele>171</ele>
        <time>2021-08-08T14:07:27Z</time>
      </trkpt>
      <trkpt lat="48.99625" lon="0.08696">
        <ele>171</ele>
        <time>2021-08-08T14:07:28Z</time>
      </trkpt>
      <trkpt lat="48.99624" lon="0.08692">
        <ele>170.94</ele>
        <time>2021-08-08T14:07:29Z</time>
      </trkpt>
      <trkpt lat="48.99623" lon="0.08687">
        <ele>170.8</ele>
        <time>2021-08-08T14:07:30Z</time>
      </trkpt>
      <trkpt lat="48.99623" lon="0.08683">
        <ele>170.66</ele>
        <time>2021-08-08T14:07:31Z</time>
      </trkpt>
      <trkpt lat="48.99623" lon="0.08678">
        <ele>170.49</ele>
        <time>2021-08-08T14:07:32Z</time>
      </trkpt>
      <trkpt lat="48.99622" lon="0.08672">
        <ele>170.29</ele>
        <time>2021-08-08T14:07:33Z</time>
      </trkpt>
      <trkpt lat="48.99622" lon="0.08667">
        <ele>170.09</ele>
        <time>2021-08-08T14:07:34Z</time>
      </trkpt>
      <trkpt lat="48.99621" lon="0.08663">
        <ele>170.03</ele>
        <time>2021-08-08T14:07:35Z</time>
      </trkpt>
      <trkpt lat="48.99621" lon="0.08659">
        <ele>170.01</ele>
        <time>2021-08-08T14:07:36Z</time>
      </trkpt>
      <trkpt lat="48.9962" lon="0.08653">
        <ele>170</ele>
        <time>2021-08-08T14:07:37Z</time>
      </trkpt>
      <trkpt lat="48.9962" lon="0.08648">
        <ele>170</ele>
        <time>2021-08-08T14:07:38Z</time>
      </trkpt>
      <trkpt lat="48.99619" lon="0.08642">
        <ele>170</ele>
        <time>2021-08-08T14:07:39Z</time>
      </trkpt>
      <trkpt lat="48.99618" lon="0.08635">
        <ele>169.97</ele>
        <time>2021-08-08T14:07:40Z</time>
      </trkpt>
      <trkpt lat="48.99616" lon="0.08628">
        <ele>169.95</ele>
        <time>2021-08-08T14:07:41Z</time>
      </trkpt>
      <trkpt lat="48.99614" lon="0.08622">
        <ele>169.95</ele>
        <time>2021-08-08T14:07:42Z</time>
      </trkpt>
      <trkpt lat="48.99611" lon="0.08616">
        <ele>169.98</ele>
        <time>2021-08-08T14:07:43Z</time>
      </trkpt>
      <trkpt lat="48.99609" lon="0.0861">
        <ele>169.98</ele>
        <time>2021-08-08T14:07:44Z</time>
      </trkpt>
      <trkpt lat="48.99607" lon="0.08604">
        <ele>169.84</ele>
        <time>2021-08-08T14:07:45Z</time>
      </trkpt>
      <trkpt lat="48.99604" lon="0.08596">
        <ele>169.67</ele>
        <time>2021-08-08T14:07:46Z</time>
      </trkpt>
      <trkpt lat="48.99601" lon="0.08588">
        <ele>169.54</ele>
        <time>2021-08-08T14:07:47Z</time>
      </trkpt>
      <trkpt lat="48.99596" lon="0.08576">
        <ele>169.37</ele>
        <time>2021-08-08T14:07:48Z</time>
      </trkpt>
      <trkpt lat="48.99593" lon="0.08568">
        <ele>169.19</ele>
        <time>2021-08-08T14:07:49Z</time>
      </trkpt>
      <trkpt lat="48.9959" lon="0.08561">
        <ele>169.03</ele>
        <time>2021-08-08T14:07:50Z</time>
      </trkpt>
      <trkpt lat="48.99587" lon="0.08554">
        <ele>168.87</ele>
        <time>2021-08-08T14:07:51Z</time>
      </trkpt>
      <trkpt lat="48.99584" lon="0.08547">
        <ele>168.73</ele>
        <time>2021-08-08T14:07:52Z</time>
      </trkpt>
      <trkpt lat="48.99582" lon="0.08541">
        <ele>168.59</ele>
        <time>2021-08-08T14:07:53Z</time>
      </trkpt>
      <trkpt lat="48.99579" lon="0.08533">
        <ele>168.42</ele>
        <time>2021-08-08T14:07:54Z</time>
      </trkpt>
      <trkpt lat="48.99576" lon="0.08526">
        <ele>168.26</ele>
        <time>2021-08-08T14:07:55Z</time>
      </trkpt>
      <trkpt lat="48.99573" lon="0.08518">
        <ele>168.1</ele>
        <time>2021-08-08T14:07:56Z</time>
      </trkpt>
      <trkpt lat="48.9957" lon="0.08509">
        <ele>167.9</ele>
        <time>2021-08-08T14:07:57Z</time>
      </trkpt>
      <trkpt lat="48.99567" lon="0.085">
        <ele>167.69</ele>
        <time>2021-08-08T14:07:58Z</time>
      </trkpt>
      <trkpt lat="48.99563" lon="0.08492">
        <ele>167.5</ele>
        <time>2021-08-08T14:07:59Z</time>
      </trkpt>
      <trkpt lat="48.99561" lon="0.08484">
        <ele>167.33</ele>
        <time>2021-08-08T14:08:00Z</time>
      </trkpt>
      <trkpt lat="48.99558" lon="0.08477">
        <ele>167.15</ele>
        <time>2021-08-08T14:08:01Z</time>
      </trkpt>
      <trkpt lat="48.99554" lon="0.08469">
        <ele>167.08</ele>
        <time>2021-08-08T14:08:02Z</time>
      </trkpt>
      <trkpt lat="48.99552" lon="0.08462">
        <ele>167.11</ele>
        <time>2021-08-08T14:08:03Z</time>
      </trkpt>
      <trkpt lat="48.99549" lon="0.08454">
        <ele>167.21</ele>
        <time>2021-08-08T14:08:04Z</time>
      </trkpt>
      <trkpt lat="48.99546" lon="0.08447">
        <ele>167.31</ele>
        <time>2021-08-08T14:08:05Z</time>
      </trkpt>
      <trkpt lat="48.99543" lon="0.0844">
        <ele>167.3</ele>
        <time>2021-08-08T14:08:06Z</time>
      </trkpt>
      <trkpt lat="48.9954" lon="0.08433">
        <ele>167.19</ele>
        <time>2021-08-08T14:08:07Z</time>
      </trkpt>
      <trkpt lat="48.99537" lon="0.08427">
        <ele>167.06</ele>
        <time>2021-08-08T14:08:08Z</time>
      </trkpt>
      <trkpt lat="48.99535" lon="0.08419">
        <ele>166.9</ele>
        <time>2021-08-08T14:08:09Z</time>
      </trkpt>
      <trkpt lat="48.99533" lon="0.08414">
        <ele>166.69</ele>
        <time>2021-08-08T14:08:10Z</time>
      </trkpt>
      <trkpt lat="48.9953" lon="0.08408">
        <ele>166.43</ele>
        <time>2021-08-08T14:08:11Z</time>
      </trkpt>
      <trkpt lat="48.99528" lon="0.08403">
        <ele>166.15</ele>
        <time>2021-08-08T14:08:12Z</time>
      </trkpt>
      <trkpt lat="48.99526" lon="0.08397">
        <ele>165.84</ele>
        <time>2021-08-08T14:08:13Z</time>
      </trkpt>
      <trkpt lat="48.99525" lon="0.08392">
        <ele>165.54</ele>
        <time>2021-08-08T14:08:14Z</time>
      </trkpt>
      <trkpt lat="48.99525" lon="0.08387">
        <ele>165.28</ele>
        <time>2021-08-08T14:08:15Z</time>
      </trkpt>
      <trkpt lat="48.99524" lon="0.08383">
        <ele>165.1</ele>
        <time>2021-08-08T14:08:16Z</time>
      </trkpt>
      <trkpt lat="48.99526" lon="0.08379">
        <ele>164.89</ele>
        <time>2021-08-08T14:08:17Z</time>
      </trkpt>
      <trkpt lat="48.99528" lon="0.08379">
        <ele>164.7</ele>
        <time>2021-08-08T14:08:18Z</time>
      </trkpt>
      <trkpt lat="48.99532" lon="0.08381">
        <ele>164.58</ele>
        <time>2021-08-08T14:08:19Z</time>
      </trkpt>
      <trkpt lat="48.99536" lon="0.08384">
        <ele>164.5</ele>
        <time>2021-08-08T14:08:20Z</time>
      </trkpt>
      <trkpt lat="48.99541" lon="0.08387">
        <ele>164.45</ele>
        <time>2021-08-08T14:08:21Z</time>
      </trkpt>
      <trkpt lat="48.99545" lon="0.0839">
        <ele>164.44</ele>
        <time>2021-08-08T14:08:22Z</time>
      </trkpt>
      <trkpt lat="48.9955" lon="0.08393">
        <ele>164.47</ele>
        <time>2021-08-08T14:08:23Z</time>
      </trkpt>
      <trkpt lat="48.99556" lon="0.08396">
        <ele>164.48</ele>
        <time>2021-08-08T14:08:24Z</time>
      </trkpt>
      <trkpt lat="48.99561" lon="0.08399">
        <ele>164.37</ele>
        <time>2021-08-08T14:08:25Z</time>
      </trkpt>
      <trkpt lat="48.99567" lon="0.08403">
        <ele>164.25</ele>
        <time>2021-08-08T14:08:26Z</time>
      </trkpt>
      <trkpt lat="48.99572" lon="0.08406">
        <ele>164.12</ele>
        <time>2021-08-08T14:08:27Z</time>
      </trkpt>
      <trkpt lat="48.99578" lon="0.08409">
        <ele>163.94</ele>
        <time>2021-08-08T14:08:28Z</time>
      </trkpt>
      <trkpt lat="48.99582" lon="0.08412">
        <ele>163.77</ele>
        <time>2021-08-08T14:08:29Z</time>
      </trkpt>
      <trkpt lat="48.99588" lon="0.08415">
        <ele>163.63</ele>
        <time>2021-08-08T14:08:30Z</time>
      </trkpt>
      <trkpt lat="48.99593" lon="0.08418">
        <ele>163.46</ele>
        <time>2021-08-08T14:08:31Z</time>
      </trkpt>
      <trkpt lat="48.99598" lon="0.08421">
        <ele>163.28</ele>
        <time>2021-08-08T14:08:32Z</time>
      </trkpt>
      <trkpt lat="48.99603" lon="0.08425">
        <ele>163.17</ele>
        <time>2021-08-08T14:08:33Z</time>
      </trkpt>
      <trkpt lat="48.99608" lon="0.0843">
        <ele>163.1</ele>
        <time>2021-08-08T14:08:34Z</time>
      </trkpt>
      <trkpt lat="48.99613" lon="0.08433">
        <ele>163.07</ele>
        <time>2021-08-08T14:08:35Z</time>
      </trkpt>
      <trkpt lat="48.99618" lon="0.08437">
        <ele>163.02</ele>
        <time>2021-08-08T14:08:36Z</time>
      </trkpt>
      <trkpt lat="48.99623" lon="0.0844">
        <ele>162.92</ele>
        <time>2021-08-08T14:08:37Z</time>
      </trkpt>
      <trkpt lat="48.99628" lon="0.08443">
        <ele>162.78</ele>
        <time>2021-08-08T14:08:38Z</time>
      </trkpt>
      <trkpt lat="48.99633" lon="0.08447">
        <ele>162.62</ele>
        <time>2021-08-08T14:08:39Z</time>
      </trkpt>
      <trkpt lat="48.99638" lon="0.0845">
        <ele>162.52</ele>
        <time>2021-08-08T14:08:40Z</time>
      </trkpt>
      <trkpt lat="48.99642" lon="0.08453">
        <ele>162.51</ele>
        <time>2021-08-08T14:08:41Z</time>
      </trkpt>
      <trkpt lat="48.99647" lon="0.08457">
        <ele>162.59</ele>
        <time>2021-08-08T14:08:42Z</time>
      </trkpt>
      <trkpt lat="48.99652" lon="0.08461">
        <ele>162.65</ele>
        <time>2021-08-08T14:08:43Z</time>
      </trkpt>
      <trkpt lat="48.99657" lon="0.08464">
        <ele>162.69</ele>
        <time>2021-08-08T14:08:44Z</time>
      </trkpt>
      <trkpt lat="48.99663" lon="0.08466">
        <ele>162.71</ele>
        <time>2021-08-08T14:08:45Z</time>
      </trkpt>
      <trkpt lat="48.99668" lon="0.08469">
        <ele>162.71</ele>
        <time>2021-08-08T14:08:46Z</time>
      </trkpt>
      <trkpt lat="48.99674" lon="0.08472">
        <ele>162.72</ele>
        <time>2021-08-08T14:08:47Z</time>
      </trkpt>
      <trkpt lat="48.99679" lon="0.08475">
        <ele>162.75</ele>
        <time>2021-08-08T14:08:48Z</time>
      </trkpt>
      <trkpt lat="48.99684" lon="0.08478">
        <ele>162.8</ele>
        <time>2021-08-08T14:08:49Z</time>
      </trkpt>
      <trkpt lat="48.99689" lon="0.08481">
        <ele>162.83</ele>
        <time>2021-08-08T14:08:50Z</time>
      </trkpt>
      <trkpt lat="48.99694" lon="0.08484">
        <ele>162.89</ele>
        <time>2021-08-08T14:08:51Z</time>
      </trkpt>
      <trkpt lat="48.99698" lon="0.08488">
        <ele>163.08</ele>
        <time>2021-08-08T14:08:52Z</time>
      </trkpt>
      <trkpt lat="48.99703" lon="0.08493">
        <ele>163.37</ele>
        <time>2021-08-08T14:08:53Z</time>
      </trkpt>
      <trkpt lat="48.99708" lon="0.08499">
        <ele>163.75</ele>
        <time>2021-08-08T14:08:54Z</time>
      </trkpt>
      <trkpt lat="48.99713" lon="0.08503">
        <ele>164.01</ele>
        <time>2021-08-08T14:08:55Z</time>
      </trkpt>
      <trkpt lat="48.99718" lon="0.08506">
        <ele>164.19</ele>
        <time>2021-08-08T14:08:56Z</time>
      </trkpt>
      <trkpt lat="48.99723" lon="0.0851">
        <ele>164.3</ele>
        <time>2021-08-08T14:08:57Z</time>
      </trkpt>
      <trkpt lat="48.99727" lon="0.08514">
        <ele>164.43</ele>
        <time>2021-08-08T14:08:58Z</time>
      </trkpt>
      <trkpt lat="48.99731" lon="0.08518">
        <ele>164.58</ele>
        <time>2021-08-08T14:08:59Z</time>
      </trkpt>
      <trkpt lat="48.99735" lon="0.08523">
        <ele>164.76</ele>
        <time>2021-08-08T14:09:00Z</time>
      </trkpt>
      <trkpt lat="48.99739" lon="0.08528">
        <ele>164.94</ele>
        <time>2021-08-08T14:09:01Z</time>
      </trkpt>
      <trkpt lat="48.99743" lon="0.08534">
        <ele>165.13</ele>
        <time>2021-08-08T14:09:02Z</time>
      </trkpt>
      <trkpt lat="48.99748" lon="0.08538">
        <ele>165.3</ele>
        <time>2021-08-08T14:09:03Z</time>
      </trkpt>
      <trkpt lat="48.99752" lon="0.08542">
        <ele>165.44</ele>
        <time>2021-08-08T14:09:04Z</time>
      </trkpt>
      <trkpt lat="48.99757" lon="0.08545">
        <ele>165.58</ele>
        <time>2021-08-08T14:09:05Z</time>
      </trkpt>
      <trkpt lat="48.99761" lon="0.08549">
        <ele>165.7</ele>
        <time>2021-08-08T14:09:06Z</time>
      </trkpt>
      <trkpt lat="48.99765" lon="0.08552">
        <ele>165.83</ele>
        <time>2021-08-08T14:09:07Z</time>
      </trkpt>
      <trkpt lat="48.99769" lon="0.08555">
        <ele>165.94</ele>
        <time>2021-08-08T14:09:08Z</time>
      </trkpt>
      <trkpt lat="48.99773" lon="0.08558">
        <ele>166.04</ele>
        <time>2021-08-08T14:09:09Z</time>
      </trkpt>
      <trkpt lat="48.99777" lon="0.08561">
        <ele>166.15</ele>
        <time>2021-08-08T14:09:10Z</time>
      </trkpt>
      <trkpt lat="48.99781" lon="0.08564">
        <ele>166.23</ele>
        <time>2021-08-08T14:09:11Z</time>
      </trkpt>
      <trkpt lat="48.99786" lon="0.08568">
        <ele>166.29</ele>
        <time>2021-08-08T14:09:12Z</time>
      </trkpt>
      <trkpt lat="48.99789" lon="0.0857">
        <ele>166.31</ele>
        <time>2021-08-08T14:09:13Z</time>
      </trkpt>
      <trkpt lat="48.99792" lon="0.08572">
        <ele>166.29</ele>
        <time>2021-08-08T14:09:14Z</time>
      </trkpt>
      <trkpt lat="48.99796" lon="0.08574">
        <ele>166.25</ele>
        <time>2021-08-08T14:09:15Z</time>
      </trkpt>
      <trkpt lat="48.99799" lon="0.08575">
        <ele>166.19</ele>
        <time>2021-08-08T14:09:16Z</time>
      </trkpt>
      <trkpt lat="48.99803" lon="0.08575">
        <ele>166.11</ele>
        <time>2021-08-08T14:09:17Z</time>
      </trkpt>
      <trkpt lat="48.99806" lon="0.08575">
        <ele>166.03</ele>
        <time>2021-08-08T14:09:18Z</time>
      </trkpt>
      <trkpt lat="48.9981" lon="0.08575">
        <ele>165.98</ele>
        <time>2021-08-08T14:09:19Z</time>
      </trkpt>
      <trkpt lat="48.99814" lon="0.08572">
        <ele>165.91</ele>
        <time>2021-08-08T14:09:20Z</time>
      </trkpt>
      <trkpt lat="48.99819" lon="0.0857">
        <ele>165.82</ele>
        <time>2021-08-08T14:09:21Z</time>
      </trkpt>
      <trkpt lat="48.99824" lon="0.08568">
        <ele>165.68</ele>
        <time>2021-08-08T14:09:22Z</time>
      </trkpt>
      <trkpt lat="48.99829" lon="0.08565">
        <ele>165.51</ele>
        <time>2021-08-08T14:09:23Z</time>
      </trkpt>
      <trkpt lat="48.99835" lon="0.08562">
        <ele>165.3</ele>
        <time>2021-08-08T14:09:24Z</time>
      </trkpt>
      <trkpt lat="48.99839" lon="0.08559">
        <ele>165.16</ele>
        <time>2021-08-08T14:09:25Z</time>
      </trkpt>
      <trkpt lat="48.99844" lon="0.08556">
        <ele>165.06</ele>
        <time>2021-08-08T14:09:26Z</time>
      </trkpt>
      <trkpt lat="48.99848" lon="0.08553">
        <ele>164.98</ele>
        <time>2021-08-08T14:09:27Z</time>
      </trkpt>
      <trkpt lat="48.99854" lon="0.0855">
        <ele>164.89</ele>
        <time>2021-08-08T14:09:28Z</time>
      </trkpt>
      <trkpt lat="48.9986" lon="0.08547">
        <ele>164.77</ele>
        <time>2021-08-08T14:09:29Z</time>
      </trkpt>
      <trkpt lat="48.99865" lon="0.08544">
        <ele>164.64</ele>
        <time>2021-08-08T14:09:30Z</time>
      </trkpt>
      <trkpt lat="48.99872" lon="0.0854">
        <ele>164.5</ele>
        <time>2021-08-08T14:09:31Z</time>
      </trkpt>
      <trkpt lat="48.99879" lon="0.08536">
        <ele>164.37</ele>
        <time>2021-08-08T14:09:32Z</time>
      </trkpt>
      <trkpt lat="48.99886" lon="0.08534">
        <ele>164.26</ele>
        <time>2021-08-08T14:09:33Z</time>
      </trkpt>
      <trkpt lat="48.99893" lon="0.08532">
        <ele>164.18</ele>
        <time>2021-08-08T14:09:34Z</time>
      </trkpt>
      <trkpt lat="48.999" lon="0.0853">
        <ele>164.09</ele>
        <time>2021-08-08T14:09:35Z</time>
      </trkpt>
      <trkpt lat="48.99908" lon="0.08528">
        <ele>164.03</ele>
        <time>2021-08-08T14:09:36Z</time>
      </trkpt>
      <trkpt lat="48.99915" lon="0.08526">
        <ele>164.01</ele>
        <time>2021-08-08T14:09:37Z</time>
      </trkpt>
      <trkpt lat="48.99922" lon="0.08525">
        <ele>164</ele>
        <time>2021-08-08T14:09:38Z</time>
      </trkpt>
      <trkpt lat="48.99929" lon="0.08523">
        <ele>164</ele>
        <time>2021-08-08T14:09:39Z</time>
      </trkpt>
      <trkpt lat="48.99937" lon="0.08522">
        <ele>164</ele>
        <time>2021-08-08T14:09:40Z</time>
      </trkpt>
      <trkpt lat="48.99945" lon="0.08522">
        <ele>164</ele>
        <time>2021-08-08T14:09:41Z</time>
      </trkpt>
      <trkpt lat="48.99952" lon="0.08521">
        <ele>164</ele>
        <time>2021-08-08T14:09:42Z</time>
      </trkpt>
      <trkpt lat="48.99958" lon="0.0852">
        <ele>164</ele>
        <time>2021-08-08T14:09:43Z</time>
      </trkpt>
      <trkpt lat="48.99963" lon="0.08517">
        <ele>164</ele>
        <time>2021-08-08T14:09:44Z</time>
      </trkpt>
      <trkpt lat="48.99968" lon="0.08515">
        <ele>164</ele>
        <time>2021-08-08T14:09:45Z</time>
      </trkpt>
      <trkpt lat="48.99973" lon="0.08514">
        <ele>163.98</ele>
        <time>2021-08-08T14:09:46Z</time>
      </trkpt>
      <trkpt lat="48.99979" lon="0.08513">
        <ele>163.92</ele>
        <time>2021-08-08T14:09:47Z</time>
      </trkpt>
      <trkpt lat="48.99984" lon="0.08513">
        <ele>163.84</ele>
        <time>2021-08-08T14:09:48Z</time>
      </trkpt>
      <trkpt lat="48.99989" lon="0.08512">
        <ele>163.77</ele>
        <time>2021-08-08T14:09:49Z</time>
      </trkpt>
      <trkpt lat="48.99996" lon="0.08511">
        <ele>163.69</ele>
        <time>2021-08-08T14:09:50Z</time>
      </trkpt>
      <trkpt lat="49.00001" lon="0.0851">
        <ele>163.64</ele>
        <time>2021-08-08T14:09:51Z</time>
      </trkpt>
      <trkpt lat="49.00006" lon="0.08509">
        <ele>163.55</ele>
        <time>2021-08-08T14:09:52Z</time>
      </trkpt>
      <trkpt lat="49.00012" lon="0.08507">
        <ele>163.47</ele>
        <time>2021-08-08T14:09:53Z</time>
      </trkpt>
      <trkpt lat="49.00016" lon="0.08505">
        <ele>163.38</ele>
        <time>2021-08-08T14:09:54Z</time>
      </trkpt>
      <trkpt lat="49.00022" lon="0.08502">
        <ele>163.24</ele>
        <time>2021-08-08T14:09:55Z</time>
      </trkpt>
      <trkpt lat="49.00028" lon="0.08499">
        <ele>163.08</ele>
        <time>2021-08-08T14:09:56Z</time>
      </trkpt>
      <trkpt lat="49.00033" lon="0.08496">
        <ele>163</ele>
        <time>2021-08-08T14:09:57Z</time>
      </trkpt>
      <trkpt lat="49.00038" lon="0.08492">
        <ele>162.93</ele>
        <time>2021-08-08T14:09:58Z</time>
      </trkpt>
      <trkpt lat="49.00044" lon="0.08487">
        <ele>162.8</ele>
        <time>2021-08-08T14:09:59Z</time>
      </trkpt>
      <trkpt lat="49.0005" lon="0.08483">
        <ele>162.61</ele>
        <time>2021-08-08T14:10:00Z</time>
      </trkpt>
      <trkpt lat="49.00057" lon="0.0848">
        <ele>162.37</ele>
        <time>2021-08-08T14:10:01Z</time>
      </trkpt>
      <trkpt lat="49.00062" lon="0.08476">
        <ele>162.19</ele>
        <time>2021-08-08T14:10:02Z</time>
      </trkpt>
      <trkpt lat="49.00068" lon="0.0847">
        <ele>162.06</ele>
        <time>2021-08-08T14:10:03Z</time>
      </trkpt>
      <trkpt lat="49.00073" lon="0.08466">
        <ele>162.02</ele>
        <time>2021-08-08T14:10:04Z</time>
      </trkpt>
      <trkpt lat="49.00077" lon="0.08461">
        <ele>162.01</ele>
        <time>2021-08-08T14:10:05Z</time>
      </trkpt>
      <trkpt lat="49.00083" lon="0.08457">
        <ele>162</ele>
        <time>2021-08-08T14:10:06Z</time>
      </trkpt>
      <trkpt lat="49.00088" lon="0.08452">
        <ele>161.92</ele>
        <time>2021-08-08T14:10:07Z</time>
      </trkpt>
      <trkpt lat="49.00093" lon="0.08448">
        <ele>161.77</ele>
        <time>2021-08-08T14:10:08Z</time>
      </trkpt>
      <trkpt lat="49.00095" lon="0.08446">
        <ele>161.64</ele>
        <time>2021-08-08T14:10:09Z</time>
      </trkpt>
      <trkpt lat="49.00097" lon="0.08445">
        <ele>161.55</ele>
        <time>2021-08-08T14:10:10Z</time>
      </trkpt>
      <trkpt lat="49.00098" lon="0.08447">
        <ele>161.51</ele>
        <time>2021-08-08T14:10:11Z</time>
      </trkpt>
      <trkpt lat="49.00099" lon="0.08448">
        <ele>161.51</ele>
        <time>2021-08-08T14:10:12Z</time>
      </trkpt>
      <trkpt lat="49.001" lon="0.0845">
        <ele>161.52</ele>
        <time>2021-08-08T14:10:13Z</time>
      </trkpt>
      <trkpt lat="49.00101" lon="0.08453">
        <ele>161.55</ele>
        <time>2021-08-08T14:10:14Z</time>
      </trkpt>
      <trkpt lat="49.00101" lon="0.08456">
        <ele>161.6</ele>
        <time>2021-08-08T14:10:15Z</time>
      </trkpt>
      <trkpt lat="49.00102" lon="0.0846">
        <ele>161.66</ele>
        <time>2021-08-08T14:10:16Z</time>
      </trkpt>
      <trkpt lat="49.00103" lon="0.08464">
        <ele>161.76</ele>
        <time>2021-08-08T14:10:17Z</time>
      </trkpt>
      <trkpt lat="49.00103" lon="0.0847">
        <ele>161.89</ele>
        <time>2021-08-08T14:10:18Z</time>
      </trkpt>
      <trkpt lat="49.00104" lon="0.08475">
        <ele>161.99</ele>
        <time>2021-08-08T14:10:19Z</time>
      </trkpt>
      <trkpt lat="49.00104" lon="0.08481">
        <ele>162.05</ele>
        <time>2021-08-08T14:10:20Z</time>
      </trkpt>
      <trkpt lat="49.00104" lon="0.08486">
        <ele>162.1</ele>
        <time>2021-08-08T14:10:21Z</time>
      </trkpt>
      <trkpt lat="49.00105" lon="0.08492">
        <ele>162.14</ele>
        <time>2021-08-08T14:10:22Z</time>
      </trkpt>
      <trkpt lat="49.00106" lon="0.08498">
        <ele>162.17</ele>
        <time>2021-08-08T14:10:23Z</time>
      </trkpt>
      <trkpt lat="49.00105" lon="0.08504">
        <ele>162.17</ele>
        <time>2021-08-08T14:10:24Z</time>
      </trkpt>
      <trkpt lat="49.00106" lon="0.08511">
        <ele>162.13</ele>
        <time>2021-08-08T14:10:25Z</time>
      </trkpt>
      <trkpt lat="49.00107" lon="0.08518">
        <ele>162.07</ele>
        <time>2021-08-08T14:10:26Z</time>
      </trkpt>
      <trkpt lat="49.00107" lon="0.08525">
        <ele>162.03</ele>
        <time>2021-08-08T14:10:27Z</time>
      </trkpt>
      <trkpt lat="49.00107" lon="0.08532">
        <ele>161.93</ele>
        <time>2021-08-08T14:10:28Z</time>
      </trkpt>
      <trkpt lat="49.00107" lon="0.08539">
        <ele>161.74</ele>
        <time>2021-08-08T14:10:29Z</time>
      </trkpt>
      <trkpt lat="49.00107" lon="0.08547">
        <ele>161.51</ele>
        <time>2021-08-08T14:10:30Z</time>
      </trkpt>
      <trkpt lat="49.00107" lon="0.08556">
        <ele>161.24</ele>
        <time>2021-08-08T14:10:31Z</time>
      </trkpt>
      <trkpt lat="49.00108" lon="0.08564">
        <ele>161.15</ele>
        <time>2021-08-08T14:10:32Z</time>
      </trkpt>
      <trkpt lat="49.00108" lon="0.08572">
        <ele>161.12</ele>
        <time>2021-08-08T14:10:33Z</time>
      </trkpt>
      <trkpt lat="49.00109" lon="0.08582">
        <ele>161.1</ele>
        <time>2021-08-08T14:10:34Z</time>
      </trkpt>
      <trkpt lat="49.00109" lon="0.0859">
        <ele>160.91</ele>
        <time>2021-08-08T14:10:35Z</time>
      </trkpt>
      <trkpt lat="49.00108" lon="0.086">
        <ele>160.63</ele>
        <time>2021-08-08T14:10:36Z</time>
      </trkpt>
      <trkpt lat="49.00108" lon="0.08608">
        <ele>160.34</ele>
        <time>2021-08-08T14:10:37Z</time>
      </trkpt>
      <trkpt lat="49.00108" lon="0.08617">
        <ele>160.17</ele>
        <time>2021-08-08T14:10:38Z</time>
      </trkpt>
      <trkpt lat="49.00107" lon="0.08626">
        <ele>160.09</ele>
        <time>2021-08-08T14:10:39Z</time>
      </trkpt>
      <trkpt lat="49.00107" lon="0.08635">
        <ele>160.04</ele>
        <time>2021-08-08T14:10:40Z</time>
      </trkpt>
      <trkpt lat="49.00106" lon="0.08645">
        <ele>159.89</ele>
        <time>2021-08-08T14:10:41Z</time>
      </trkpt>
      <trkpt lat="49.00106" lon="0.08654">
        <ele>159.66</ele>
        <time>2021-08-08T14:10:42Z</time>
      </trkpt>
      <trkpt lat="49.00106" lon="0.08663">
        <ele>159.4</ele>
        <time>2021-08-08T14:10:43Z</time>
      </trkpt>
      <trkpt lat="49.00106" lon="0.08671">
        <ele>159.24</ele>
        <time>2021-08-08T14:10:44Z</time>
      </trkpt>
      <trkpt lat="49.00105" lon="0.08679">
        <ele>159.15</ele>
        <time>2021-08-08T14:10:45Z</time>
      </trkpt>
      <trkpt lat="49.00105" lon="0.08685">
        <ele>159.09</ele>
        <time>2021-08-08T14:10:46Z</time>
      </trkpt>
      <trkpt lat="49.00106" lon="0.08691">
        <ele>159.04</ele>
        <time>2021-08-08T14:10:47Z</time>
      </trkpt>
      <trkpt lat="49.00105" lon="0.08697">
        <ele>158.95</ele>
        <time>2021-08-08T14:10:48Z</time>
      </trkpt>
      <trkpt lat="49.00105" lon="0.08704">
        <ele>158.8</ele>
        <time>2021-08-08T14:10:49Z</time>
      </trkpt>
      <trkpt lat="49.00105" lon="0.0871">
        <ele>158.63</ele>
        <time>2021-08-08T14:10:50Z</time>
      </trkpt>
      <trkpt lat="49.00104" lon="0.08717">
        <ele>158.47</ele>
        <time>2021-08-08T14:10:51Z</time>
      </trkpt>
      <trkpt lat="49.00104" lon="0.08723">
        <ele>158.3</ele>
        <time>2021-08-08T14:10:52Z</time>
      </trkpt>
      <trkpt lat="49.00104" lon="0.08731">
        <ele>158.04</ele>
        <time>2021-08-08T14:10:53Z</time>
      </trkpt>
      <trkpt lat="49.00104" lon="0.08739">
        <ele>157.77</ele>
        <time>2021-08-08T14:10:54Z</time>
      </trkpt>
      <trkpt lat="49.00104" lon="0.08746">
        <ele>157.49</ele>
        <time>2021-08-08T14:10:55Z</time>
      </trkpt>
      <trkpt lat="49.00105" lon="0.08754">
        <ele>157.2</ele>
        <time>2021-08-08T14:10:56Z</time>
      </trkpt>
      <trkpt lat="49.00105" lon="0.08761">
        <ele>156.94</ele>
        <time>2021-08-08T14:10:57Z</time>
      </trkpt>
      <trkpt lat="49.00105" lon="0.08768">
        <ele>156.67</ele>
        <time>2021-08-08T14:10:58Z</time>
      </trkpt>
      <trkpt lat="49.00105" lon="0.08776">
        <ele>156.39</ele>
        <time>2021-08-08T14:10:59Z</time>
      </trkpt>
      <trkpt lat="49.00105" lon="0.08784">
        <ele>156.24</ele>
        <time>2021-08-08T14:11:00Z</time>
      </trkpt>
      <trkpt lat="49.00104" lon="0.08793">
        <ele>156.15</ele>
        <time>2021-08-08T14:11:01Z</time>
      </trkpt>
      <trkpt lat="49.00103" lon="0.08802">
        <ele>156.07</ele>
        <time>2021-08-08T14:11:02Z</time>
      </trkpt>
      <trkpt lat="49.00102" lon="0.08811">
        <ele>155.79</ele>
        <time>2021-08-08T14:11:03Z</time>
      </trkpt>
      <trkpt lat="49.00102" lon="0.0882">
        <ele>155.34</ele>
        <time>2021-08-08T14:11:04Z</time>
      </trkpt>
      <trkpt lat="49.00103" lon="0.08828">
        <ele>154.86</ele>
        <time>2021-08-08T14:11:05Z</time>
      </trkpt>
      <trkpt lat="49.00103" lon="0.08836">
        <ele>154.4</ele>
        <time>2021-08-08T14:11:06Z</time>
      </trkpt>
      <trkpt lat="49.00103" lon="0.08845">
        <ele>154.03</ele>
        <time>2021-08-08T14:11:07Z</time>
      </trkpt>
      <trkpt lat="49.00103" lon="0.08854">
        <ele>153.68</ele>
        <time>2021-08-08T14:11:08Z</time>
      </trkpt>
      <trkpt lat="49.00104" lon="0.08865">
        <ele>153.3</ele>
        <time>2021-08-08T14:11:09Z</time>
      </trkpt>
      <trkpt lat="49.00104" lon="0.08875">
        <ele>152.91</ele>
        <time>2021-08-08T14:11:10Z</time>
      </trkpt>
      <trkpt lat="49.00106" lon="0.08883">
        <ele>152.56</ele>
        <time>2021-08-08T14:11:11Z</time>
      </trkpt>
      <trkpt lat="49.00108" lon="0.0889">
        <ele>152.18</ele>
        <time>2021-08-08T14:11:12Z</time>
      </trkpt>
      <trkpt lat="49.0011" lon="0.08897">
        <ele>151.65</ele>
        <time>2021-08-08T14:11:13Z</time>
      </trkpt>
      <trkpt lat="49.00113" lon="0.08905">
        <ele>151.03</ele>
        <time>2021-08-08T14:11:14Z</time>
      </trkpt>
      <trkpt lat="49.00115" lon="0.08914">
        <ele>150.36</ele>
        <time>2021-08-08T14:11:15Z</time>
      </trkpt>
      <trkpt lat="49.00117" lon="0.08923">
        <ele>149.82</ele>
        <time>2021-08-08T14:11:16Z</time>
      </trkpt>
      <trkpt lat="49.00118" lon="0.08932">
        <ele>149.39</ele>
        <time>2021-08-08T14:11:17Z</time>
      </trkpt>
      <trkpt lat="49.0012" lon="0.08941">
        <ele>148.97</ele>
        <time>2021-08-08T14:11:18Z</time>
      </trkpt>
      <trkpt lat="49.00123" lon="0.08951">
        <ele>148.54</ele>
        <time>2021-08-08T14:11:19Z</time>
      </trkpt>
      <trkpt lat="49.00125" lon="0.0896">
        <ele>148.13</ele>
        <time>2021-08-08T14:11:20Z</time>
      </trkpt>
      <trkpt lat="49.00127" lon="0.0897">
        <ele>147.71</ele>
        <time>2021-08-08T14:11:21Z</time>
      </trkpt>
      <trkpt lat="49.00129" lon="0.08978">
        <ele>147.16</ele>
        <time>2021-08-08T14:11:22Z</time>
      </trkpt>
      <trkpt lat="49.00132" lon="0.08987">
        <ele>146.48</ele>
        <time>2021-08-08T14:11:23Z</time>
      </trkpt>
      <trkpt lat="49.00133" lon="0.08995">
        <ele>145.84</ele>
        <time>2021-08-08T14:11:24Z</time>
      </trkpt>
      <trkpt lat="49.00134" lon="0.09003">
        <ele>145.28</ele>
        <time>2021-08-08T14:11:25Z</time>
      </trkpt>
      <trkpt lat="49.00136" lon="0.09012">
        <ele>144.85</ele>
        <time>2021-08-08T14:11:26Z</time>
      </trkpt>
      <trkpt lat="49.00138" lon="0.0902">
        <ele>144.47</ele>
        <time>2021-08-08T14:11:27Z</time>
      </trkpt>
      <trkpt lat="49.0014" lon="0.09029">
        <ele>144.01</ele>
        <time>2021-08-08T14:11:28Z</time>
      </trkpt>
      <trkpt lat="49.00143" lon="0.09039">
        <ele>143.25</ele>
        <time>2021-08-08T14:11:29Z</time>
      </trkpt>
      <trkpt lat="49.00145" lon="0.09049">
        <ele>142.38</ele>
        <time>2021-08-08T14:11:30Z</time>
      </trkpt>
      <trkpt lat="49.00147" lon="0.09058">
        <ele>141.58</ele>
        <time>2021-08-08T14:11:31Z</time>
      </trkpt>
      <trkpt lat="49.00149" lon="0.09067">
        <ele>140.9</ele>
        <time>2021-08-08T14:11:32Z</time>
      </trkpt>
      <trkpt lat="49.0015" lon="0.09075">
        <ele>140.33</ele>
        <time>2021-08-08T14:11:33Z</time>
      </trkpt>
      <trkpt lat="49.0015" lon="0.09084">
        <ele>139.81</ele>
        <time>2021-08-08T14:11:34Z</time>
      </trkpt>
      <trkpt lat="49.00148" lon="0.0909">
        <ele>139.38</ele>
        <time>2021-08-08T14:11:35Z</time>
      </trkpt>
      <trkpt lat="49.00145" lon="0.09095">
        <ele>139.08</ele>
        <time>2021-08-08T14:11:36Z</time>
      </trkpt>
      <trkpt lat="49.00142" lon="0.091">
        <ele>138.79</ele>
        <time>2021-08-08T14:11:37Z</time>
      </trkpt>
      <trkpt lat="49.0014" lon="0.09105">
        <ele>138.52</ele>
        <time>2021-08-08T14:11:38Z</time>
      </trkpt>
      <trkpt lat="49.00136" lon="0.0911">
        <ele>138.34</ele>
        <time>2021-08-08T14:11:39Z</time>
      </trkpt>
      <trkpt lat="49.00133" lon="0.09114">
        <ele>138.32</ele>
        <time>2021-08-08T14:11:40Z</time>
      </trkpt>
      <trkpt lat="49.00129" lon="0.0912">
        <ele>138.36</ele>
        <time>2021-08-08T14:11:41Z</time>
      </trkpt>
      <trkpt lat="49.00125" lon="0.09126">
        <ele>138.43</ele>
        <time>2021-08-08T14:11:42Z</time>
      </trkpt>
      <trkpt lat="49.00121" lon="0.09131">
        <ele>138.52</ele>
        <time>2021-08-08T14:11:43Z</time>
      </trkpt>
      <trkpt lat="49.00117" lon="0.09136">
        <ele>138.61</ele>
        <time>2021-08-08T14:11:44Z</time>
      </trkpt>
      <trkpt lat="49.00114" lon="0.09141">
        <ele>138.61</ele>
        <time>2021-08-08T14:11:45Z</time>
      </trkpt>
      <trkpt lat="49.0011" lon="0.09147">
        <ele>138.48</ele>
        <time>2021-08-08T14:11:46Z</time>
      </trkpt>
      <trkpt lat="49.00108" lon="0.09153">
        <ele>138.27</ele>
        <time>2021-08-08T14:11:47Z</time>
      </trkpt>
      <trkpt lat="49.00106" lon="0.0916">
        <ele>137.96</ele>
        <time>2021-08-08T14:11:48Z</time>
      </trkpt>
      <trkpt lat="49.00103" lon="0.09168">
        <ele>137.67</ele>
        <time>2021-08-08T14:11:49Z</time>
      </trkpt>
      <trkpt lat="49.001" lon="0.09176">
        <ele>137.52</ele>
        <time>2021-08-08T14:11:50Z</time>
      </trkpt>
      <trkpt lat="49.00098" lon="0.09183">
        <ele>137.39</ele>
        <time>2021-08-08T14:11:51Z</time>
      </trkpt>
      <trkpt lat="49.00096" lon="0.09191">
        <ele>137.28</ele>
        <time>2021-08-08T14:11:52Z</time>
      </trkpt>
      <trkpt lat="49.00093" lon="0.09199">
        <ele>137.11</ele>
        <time>2021-08-08T14:11:53Z</time>
      </trkpt>
      <trkpt lat="49.00089" lon="0.09205">
        <ele>136.91</ele>
        <time>2021-08-08T14:11:54Z</time>
      </trkpt>
      <trkpt lat="49.00085" lon="0.09211">
        <ele>136.72</ele>
        <time>2021-08-08T14:11:55Z</time>
      </trkpt>
      <trkpt lat="49.00081" lon="0.09217">
        <ele>136.56</ele>
        <time>2021-08-08T14:11:56Z</time>
      </trkpt>
      <trkpt lat="49.00076" lon="0.09222">
        <ele>136.35</ele>
        <time>2021-08-08T14:11:57Z</time>
      </trkpt>
      <trkpt lat="49.0007" lon="0.09228">
        <ele>136.23</ele>
        <time>2021-08-08T14:11:58Z</time>
      </trkpt>
      <trkpt lat="49.00064" lon="0.09233">
        <ele>136.19</ele>
        <time>2021-08-08T14:11:59Z</time>
      </trkpt>
      <trkpt lat="49.00058" lon="0.09238">
        <ele>136.25</ele>
        <time>2021-08-08T14:12:00Z</time>
      </trkpt>
      <trkpt lat="49.00053" lon="0.09243">
        <ele>136.33</ele>
        <time>2021-08-08T14:12:01Z</time>
      </trkpt>
      <trkpt lat="49.00048" lon="0.09248">
        <ele>136.35</ele>
        <time>2021-08-08T14:12:02Z</time>
      </trkpt>
      <trkpt lat="49.00043" lon="0.09254">
        <ele>136.23</ele>
        <time>2021-08-08T14:12:03Z</time>
      </trkpt>
      <trkpt lat="49.00038" lon="0.09258">
        <ele>136.09</ele>
        <time>2021-08-08T14:12:04Z</time>
      </trkpt>
      <trkpt lat="49.00034" lon="0.09262">
        <ele>135.98</ele>
        <time>2021-08-08T14:12:05Z</time>
      </trkpt>
      <trkpt lat="49.00028" lon="0.09266">
        <ele>135.88</ele>
        <time>2021-08-08T14:12:06Z</time>
      </trkpt>
      <trkpt lat="49.00023" lon="0.0927">
        <ele>135.77</ele>
        <time>2021-08-08T14:12:07Z</time>
      </trkpt>
      <trkpt lat="49.00018" lon="0.09275">
        <ele>135.64</ele>
        <time>2021-08-08T14:12:08Z</time>
      </trkpt>
      <trkpt lat="49.00012" lon="0.0928">
        <ele>135.52</ele>
        <time>2021-08-08T14:12:09Z</time>
      </trkpt>
      <trkpt lat="49.00006" lon="0.09285">
        <ele>135.52</ele>
        <time>2021-08-08T14:12:10Z</time>
      </trkpt>
      <trkpt lat="49.00001" lon="0.09288">
        <ele>135.57</ele>
        <time>2021-08-08T14:12:11Z</time>
      </trkpt>
      <trkpt lat="48.99996" lon="0.09291">
        <ele>135.59</ele>
        <time>2021-08-08T14:12:12Z</time>
      </trkpt>
      <trkpt lat="48.99991" lon="0.09293">
        <ele>135.59</ele>
        <time>2021-08-08T14:12:13Z</time>
      </trkpt>
      <trkpt lat="48.99986" lon="0.09295">
        <ele>135.59</ele>
        <time>2021-08-08T14:12:14Z</time>
      </trkpt>
      <trkpt lat="48.99981" lon="0.09297">
        <ele>135.56</ele>
        <time>2021-08-08T14:12:15Z</time>
      </trkpt>
      <trkpt lat="48.99976" lon="0.09299">
        <ele>135.47</ele>
        <time>2021-08-08T14:12:16Z</time>
      </trkpt>
      <trkpt lat="48.9997" lon="0.093">
        <ele>135.46</ele>
        <time>2021-08-08T14:12:17Z</time>
      </trkpt>
      <trkpt lat="48.99965" lon="0.09301">
        <ele>135.52</ele>
        <time>2021-08-08T14:12:18Z</time>
      </trkpt>
      <trkpt lat="48.9996" lon="0.09303">
        <ele>135.61</ele>
        <time>2021-08-08T14:12:19Z</time>
      </trkpt>
      <trkpt lat="48.99956" lon="0.09303">
        <ele>135.74</ele>
        <time>2021-08-08T14:12:20Z</time>
      </trkpt>
      <trkpt lat="48.99951" lon="0.09302">
        <ele>135.92</ele>
        <time>2021-08-08T14:12:21Z</time>
      </trkpt>
      <trkpt lat="48.99945" lon="0.09304">
        <ele>136.06</ele>
        <time>2021-08-08T14:12:22Z</time>
      </trkpt>
      <trkpt lat="48.99941" lon="0.09303">
        <ele>136.22</ele>
        <time>2021-08-08T14:12:23Z</time>
      </trkpt>
      <trkpt lat="48.99936" lon="0.09304">
        <ele>136.36</ele>
        <time>2021-08-08T14:12:24Z</time>
      </trkpt>
      <trkpt lat="48.99933" lon="0.09304">
        <ele>136.45</ele>
        <time>2021-08-08T14:12:25Z</time>
      </trkpt>
      <trkpt lat="48.99931" lon="0.09307">
        <ele>136.38</ele>
        <time>2021-08-08T14:12:26Z</time>
      </trkpt>
      <trkpt lat="48.9993" lon="0.09315">
        <ele>135.99</ele>
        <time>2021-08-08T14:12:27Z</time>
      </trkpt>
      <trkpt lat="48.9993" lon="0.09324">
        <ele>135.44</ele>
        <time>2021-08-08T14:12:28Z</time>
      </trkpt>
      <trkpt lat="48.99931" lon="0.09335">
        <ele>134.7</ele>
        <time>2021-08-08T14:12:29Z</time>
      </trkpt>
      <trkpt lat="48.99933" lon="0.09348">
        <ele>133.74</ele>
        <time>2021-08-08T14:12:30Z</time>
      </trkpt>
      <trkpt lat="48.99934" lon="0.0936">
        <ele>132.83</ele>
        <time>2021-08-08T14:12:31Z</time>
      </trkpt>
      <trkpt lat="48.99936" lon="0.09373">
        <ele>131.9</ele>
        <time>2021-08-08T14:12:32Z</time>
      </trkpt>
      <trkpt lat="48.99937" lon="0.09385">
        <ele>130.95</ele>
        <time>2021-08-08T14:12:33Z</time>
      </trkpt>
      <trkpt lat="48.99938" lon="0.09399">
        <ele>130.14</ele>
        <time>2021-08-08T14:12:34Z</time>
      </trkpt>
      <trkpt lat="48.9994" lon="0.09411">
        <ele>129.51</ele>
        <time>2021-08-08T14:12:35Z</time>
      </trkpt>
      <trkpt lat="48.99941" lon="0.09425">
        <ele>128.78</ele>
        <time>2021-08-08T14:12:36Z</time>
      </trkpt>
      <trkpt lat="48.99943" lon="0.09439">
        <ele>127.85</ele>
        <time>2021-08-08T14:12:37Z</time>
      </trkpt>
      <trkpt lat="48.99943" lon="0.09453">
        <ele>127.09</ele>
        <time>2021-08-08T14:12:38Z</time>
      </trkpt>
      <trkpt lat="48.99942" lon="0.09471">
        <ele>126.45</ele>
        <time>2021-08-08T14:12:39Z</time>
      </trkpt>
      <trkpt lat="48.99942" lon="0.09486">
        <ele>125.82</ele>
        <time>2021-08-08T14:12:40Z</time>
      </trkpt>
      <trkpt lat="48.9994" lon="0.09505">
        <ele>125.11</ele>
        <time>2021-08-08T14:12:41Z</time>
      </trkpt>
      <trkpt lat="48.99943" lon="0.09517">
        <ele>124.6</ele>
        <time>2021-08-08T14:12:42Z</time>
      </trkpt>
      <trkpt lat="48.99947" lon="0.09527">
        <ele>124.05</ele>
        <time>2021-08-08T14:12:43Z</time>
      </trkpt>
      <trkpt lat="48.99952" lon="0.09539">
        <ele>124.01</ele>
        <time>2021-08-08T14:12:44Z</time>
      </trkpt>
      <trkpt lat="48.99954" lon="0.09551">
        <ele>124.31</ele>
        <time>2021-08-08T14:12:45Z</time>
      </trkpt>
      <trkpt lat="48.99954" lon="0.09563">
        <ele>124.72</ele>
        <time>2021-08-08T14:12:46Z</time>
      </trkpt>
      <trkpt lat="48.99955" lon="0.09573">
        <ele>125.09</ele>
        <time>2021-08-08T14:12:47Z</time>
      </trkpt>
      <trkpt lat="48.99956" lon="0.09583">
        <ele>125.44</ele>
        <time>2021-08-08T14:12:48Z</time>
      </trkpt>
      <trkpt lat="48.99956" lon="0.09591">
        <ele>125.74</ele>
        <time>2021-08-08T14:12:49Z</time>
      </trkpt>
      <trkpt lat="48.99957" lon="0.09599">
        <ele>126</ele>
        <time>2021-08-08T14:12:50Z</time>
      </trkpt>
      <trkpt lat="48.99957" lon="0.09606">
        <ele>126.25</ele>
        <time>2021-08-08T14:12:51Z</time>
      </trkpt>
      <trkpt lat="48.99957" lon="0.09613">
        <ele>126.54</ele>
        <time>2021-08-08T14:12:52Z</time>
      </trkpt>
      <trkpt lat="48.99958" lon="0.09619">
        <ele>126.93</ele>
        <time>2021-08-08T14:12:53Z</time>
      </trkpt>
      <trkpt lat="48.99958" lon="0.09625">
        <ele>127.31</ele>
        <time>2021-08-08T14:12:54Z</time>
      </trkpt>
      <trkpt lat="48.99958" lon="0.09629">
        <ele>127.69</ele>
        <time>2021-08-08T14:12:55Z</time>
      </trkpt>
      <trkpt lat="48.99957" lon="0.09635">
        <ele>128.08</ele>
        <time>2021-08-08T14:12:56Z</time>
      </trkpt>
      <trkpt lat="48.99957" lon="0.0964">
        <ele>128.46</ele>
        <time>2021-08-08T14:12:57Z</time>
      </trkpt>
      <trkpt lat="48.99956" lon="0.09644">
        <ele>128.78</ele>
        <time>2021-08-08T14:12:58Z</time>
      </trkpt>
      <trkpt lat="48.99955" lon="0.09648">
        <ele>129.12</ele>
        <time>2021-08-08T14:12:59Z</time>
      </trkpt>
      <trkpt lat="48.99954" lon="0.09652">
        <ele>129.49</ele>
        <time>2021-08-08T14:13:00Z</time>
      </trkpt>
      <trkpt lat="48.99952" lon="0.09657">
        <ele>129.86</ele>
        <time>2021-08-08T14:13:01Z</time>
      </trkpt>
      <trkpt lat="48.9995" lon="0.0966">
        <ele>130.18</ele>
        <time>2021-08-08T14:13:02Z</time>
      </trkpt>
      <trkpt lat="48.99948" lon="0.09664">
        <ele>130.51</ele>
        <time>2021-08-08T14:13:03Z</time>
      </trkpt>
      <trkpt lat="48.99947" lon="0.09668">
        <ele>130.87</ele>
        <time>2021-08-08T14:13:04Z</time>
      </trkpt>
      <trkpt lat="48.99945" lon="0.09672">
        <ele>131.32</ele>
        <time>2021-08-08T14:13:05Z</time>
      </trkpt>
      <trkpt lat="48.99945" lon="0.09675">
        <ele>131.69</ele>
        <time>2021-08-08T14:13:06Z</time>
      </trkpt>
      <trkpt lat="48.99944" lon="0.09678">
        <ele>132.13</ele>
        <time>2021-08-08T14:13:07Z</time>
      </trkpt>
      <trkpt lat="48.99942" lon="0.09682">
        <ele>132.64</ele>
        <time>2021-08-08T14:13:08Z</time>
      </trkpt>
      <trkpt lat="48.9994" lon="0.09686">
        <ele>133.15</ele>
        <time>2021-08-08T14:13:09Z</time>
      </trkpt>
      <trkpt lat="48.99939" lon="0.09689">
        <ele>133.64</ele>
        <time>2021-08-08T14:13:10Z</time>
      </trkpt>
      <trkpt lat="48.99937" lon="0.09692">
        <ele>134.08</ele>
        <time>2021-08-08T14:13:11Z</time>
      </trkpt>
      <trkpt lat="48.99935" lon="0.09695">
        <ele>134.51</ele>
        <time>2021-08-08T14:13:12Z</time>
      </trkpt>
      <trkpt lat="48.99934" lon="0.09698">
        <ele>134.89</ele>
        <time>2021-08-08T14:13:13Z</time>
      </trkpt>
      <trkpt lat="48.99932" lon="0.09701">
        <ele>135.28</ele>
        <time>2021-08-08T14:13:14Z</time>
      </trkpt>
      <trkpt lat="48.99931" lon="0.09703">
        <ele>135.64</ele>
        <time>2021-08-08T14:13:15Z</time>
      </trkpt>
      <trkpt lat="48.9993" lon="0.09706">
        <ele>136</ele>
        <time>2021-08-08T14:13:16Z</time>
      </trkpt>
      <trkpt lat="48.99928" lon="0.09709">
        <ele>136.41</ele>
        <time>2021-08-08T14:13:17Z</time>
      </trkpt>
      <trkpt lat="48.99926" lon="0.09712">
        <ele>136.85</ele>
        <time>2021-08-08T14:13:18Z</time>
      </trkpt>
      <trkpt lat="48.99924" lon="0.09715">
        <ele>137.32</ele>
        <time>2021-08-08T14:13:19Z</time>
      </trkpt>
      <trkpt lat="48.99922" lon="0.09718">
        <ele>137.77</ele>
        <time>2021-08-08T14:13:20Z</time>
      </trkpt>
      <trkpt lat="48.9992" lon="0.0972">
        <ele>138.24</ele>
        <time>2021-08-08T14:13:21Z</time>
      </trkpt>
      <trkpt lat="48.99917" lon="0.09722">
        <ele>138.72</ele>
        <time>2021-08-08T14:13:22Z</time>
      </trkpt>
      <trkpt lat="48.99915" lon="0.09723">
        <ele>139.05</ele>
        <time>2021-08-08T14:13:23Z</time>
      </trkpt>
      <trkpt lat="48.99914" lon="0.09724">
        <ele>139.31</ele>
        <time>2021-08-08T14:13:24Z</time>
      </trkpt>
      <trkpt lat="48.99914" lon="0.09725">
        <ele>139.52</ele>
        <time>2021-08-08T14:13:25Z</time>
      </trkpt>
      <trkpt lat="48.99914" lon="0.09726">
        <ele>139.72</ele>
        <time>2021-08-08T14:13:26Z</time>
      </trkpt>
      <trkpt lat="48.99914" lon="0.09728">
        <ele>139.92</ele>
        <time>2021-08-08T14:13:27Z</time>
      </trkpt>
      <trkpt lat="48.99914" lon="0.09729">
        <ele>140.12</ele>
        <time>2021-08-08T14:13:28Z</time>
      </trkpt>
      <trkpt lat="48.99914" lon="0.09731">
        <ele>140.39</ele>
        <time>2021-08-08T14:13:29Z</time>
      </trkpt>
      <trkpt lat="48.99915" lon="0.09733">
        <ele>140.57</ele>
        <time>2021-08-08T14:13:30Z</time>
      </trkpt>
      <trkpt lat="48.99915" lon="0.09734">
        <ele>140.75</ele>
        <time>2021-08-08T14:13:31Z</time>
      </trkpt>
      <trkpt lat="48.99916" lon="0.09736">
        <ele>140.97</ele>
        <time>2021-08-08T14:13:32Z</time>
      </trkpt>
      <trkpt lat="48.99916" lon="0.09738">
        <ele>141.22</ele>
        <time>2021-08-08T14:13:33Z</time>
      </trkpt>
      <trkpt lat="48.99916" lon="0.0974">
        <ele>141.46</ele>
        <time>2021-08-08T14:13:34Z</time>
      </trkpt>
      <trkpt lat="48.99916" lon="0.0974">
        <ele>141.58</ele>
        <time>2021-08-08T14:13:35Z</time>
      </trkpt>
      <trkpt lat="48.99915" lon="0.09739">
        <ele>141.56</ele>
        <time>2021-08-08T14:13:36Z</time>
      </trkpt>
      <trkpt lat="48.99915" lon="0.09738">
        <ele>141.45</ele>
        <time>2021-08-08T14:13:37Z</time>
      </trkpt>
      <trkpt lat="48.99915" lon="0.09738">
        <ele>141.42</ele>
        <time>2021-08-08T14:13:38Z</time>
      </trkpt>
      <trkpt lat="48.99915" lon="0.09738">
        <ele>141.41</ele>
        <time>2021-08-08T14:13:39Z</time>
      </trkpt>
      <trkpt lat="48.99915" lon="0.09738">
        <ele>141.41</ele>
        <time>2021-08-08T14:13:40Z</time>
      </trkpt>
      <trkpt lat="48.99915" lon="0.09738">
        <ele>141.4</ele>
        <time>2021-08-08T14:13:41Z</time>
      </trkpt>
      <trkpt lat="48.99915" lon="0.09738">
        <ele>141.4</ele>
        <time>2021-08-08T14:13:42Z</time>
      </trkpt>
      <trkpt lat="48.99915" lon="0.09738">
        <ele>141.4</ele>
        <time>2021-08-08T14:13:43Z</time>
      </trkpt>
      <trkpt lat="48.99915" lon="0.09738">
        <ele>141.4</ele>
        <time>2021-08-08T14:13:44Z</time>
      </trkpt>
      <trkpt lat="48.99915" lon="0.09738">
        <ele>141.4</ele>
        <time>2021-08-08T14:13:45Z</time>
      </trkpt>
      <trkpt lat="48.99915" lon="0.09738">
        <ele>141.4</ele>
        <time>2021-08-08T14:13:46Z</time>
      </trkpt>
      <trkpt lat="48.99915" lon="0.09738">
        <ele>141.4</ele>
        <time>2021-08-08T14:13:47Z</time>
      </trkpt>
      <trkpt lat="48.99915" lon="0.09738">
        <ele>141.4</ele>
        <time>2021-08-08T14:13:48Z</time>
      </trkpt>
      <trkpt lat="48.99915" lon="0.09738">
        <ele>141.4</ele>
        <time>2021-08-08T14:13:49Z</time>
      </trkpt>
      <trkpt lat="48.99915" lon="0.09738">
        <ele>141.4</ele>
        <time>2021-08-08T14:13:50Z</time>
      </trkpt>
      <trkpt lat="48.99915" lon="0.09738">
        <ele>141.4</ele>
        <time>2021-08-08T14:13:51Z</time>
      </trkpt>
      <trkpt lat="48.99915" lon="0.09738">
        <ele>141.4</ele>
        <time>2021-08-08T14:13:52Z</time>
      </trkpt>
      <trkpt lat="48.99915" lon="0.09738">
        <ele>141.4</ele>
        <time>2021-08-08T14:13:53Z</time>
      </trkpt>
      <trkpt lat="48.99915" lon="0.09738">
        <ele>141.4</ele>
        <time>2021-08-08T14:13:54Z</time>
      </trkpt>
      <trkpt lat="48.99915" lon="0.09738">
        <ele>141.4</ele>
        <time>2021-08-08T14:13:55Z</time>
      </trkpt>
      <trkpt lat="48.99915" lon="0.09738">
        <ele>141.4</ele>
        <time>2021-08-08T14:13:56Z</time>
      </trkpt>
      <trkpt lat="48.99915" lon="0.09738">
        <ele>141.4</ele>
        <time>2021-08-08T14:13:57Z</time>
      </trkpt>
      <trkpt lat="48.99915" lon="0.09738">
        <ele>141.4</ele>
        <time>2021-08-08T14:13:58Z</time>
      </trkpt>
      <trkpt lat="48.99915" lon="0.09738">
        <ele>141.4</ele>
        <time>2021-08-08T14:13:59Z</time>
      </trkpt>
      <trkpt lat="48.99915" lon="0.09738">
        <ele>141.4</ele>
        <time>2021-08-08T14:14:00Z</time>
      </trkpt>
      <trkpt lat="48.99915" lon="0.09738">
        <ele>141.4</ele>
        <time>2021-08-08T14:14:01Z</time>
      </trkpt>
      <trkpt lat="48.99915" lon="0.09738">
        <ele>141.4</ele>
        <time>2021-08-08T14:14:02Z</time>
      </trkpt>
      <trkpt lat="48.99915" lon="0.09738">
        <ele>141.4</ele>
        <time>2021-08-08T14:14:03Z</time>
      </trkpt>
      <trkpt lat="48.99915" lon="0.09738">
        <ele>141.4</ele>
        <time>2021-08-08T14:14:04Z</time>
      </trkpt>
      <trkpt lat="48.99915" lon="0.09738">
        <ele>141.4</ele>
        <time>2021-08-08T14:14:05Z</time>
      </trkpt>
      <trkpt lat="48.99915" lon="0.09738">
        <ele>141.4</ele>
        <time>2021-08-08T14:14:06Z</time>
      </trkpt>
      <trkpt lat="48.99915" lon="0.09738">
        <ele>141.4</ele>
        <time>2021-08-08T14:14:07Z</time>
      </trkpt>
      <trkpt lat="48.99915" lon="0.09738">
        <ele>141.4</ele>
        <time>2021-08-08T14:14:08Z</time>
      </trkpt>
      <trkpt lat="48.99915" lon="0.09738">
        <ele>141.4</ele>
        <time>2021-08-08T14:14:09Z</time>
      </trkpt>
      <trkpt lat="48.99915" lon="0.09738">
        <ele>141.4</ele>
        <time>2021-08-08T14:14:10Z</time>
      </trkpt>
      <trkpt lat="48.99915" lon="0.09738">
        <ele>141.4</ele>
        <time>2021-08-08T14:14:11Z</time>
      </trkpt>
      <trkpt lat="48.99915" lon="0.09738">
        <ele>141.4</ele>
        <time>2021-08-08T14:14:12Z</time>
      </trkpt>
      <trkpt lat="48.99915" lon="0.09738">
        <ele>141.4</ele>
        <time>2021-08-08T14:14:13Z</time>
      </trkpt>
      <trkpt lat="48.99915" lon="0.09738">
        <ele>141.4</ele>
        <time>2021-08-08T14:14:14Z</time>
      </trkpt>
      <trkpt lat="48.99915" lon="0.09738">
        <ele>141.4</ele>
        <time>2021-08-08T14:14:15Z</time>
      </trkpt>
      <trkpt lat="48.99918" lon="0.09752">
        <ele>142.6</ele>
        <time>2021-08-08T14:14:16Z</time>
      </trkpt>
      <trkpt lat="48.99918" lon="0.09753">
        <ele>143.06</ele>
        <time>2021-08-08T14:14:17Z</time>
      </trkpt>
      <trkpt lat="48.99919" lon="0.09754">
        <ele>143.34</ele>
        <time>2021-08-08T14:14:18Z</time>
      </trkpt>
      <trkpt lat="48.99919" lon="0.09755">
        <ele>143.47</ele>
        <time>2021-08-08T14:14:20Z</time>
      </trkpt>
      <trkpt lat="48.99919" lon="0.09755">
        <ele>143.51</ele>
        <time>2021-08-08T14:14:21Z</time>
      </trkpt>
      <trkpt lat="48.99919" lon="0.09755">
        <ele>143.52</ele>
        <time>2021-08-08T14:14:22Z</time>
      </trkpt>
      <trkpt lat="48.99919" lon="0.09755">
        <ele>143.52</ele>
        <time>2021-08-08T14:14:23Z</time>
      </trkpt>
      <trkpt lat="48.99919" lon="0.09755">
        <ele>143.52</ele>
        <time>2021-08-08T14:14:24Z</time>
      </trkpt>
      <trkpt lat="48.99919" lon="0.09755">
        <ele>143.52</ele>
        <time>2021-08-08T14:14:25Z</time>
      </trkpt>
      <trkpt lat="48.99919" lon="0.09755">
        <ele>143.52</ele>
        <time>2021-08-08T14:14:26Z</time>
      </trkpt>
      <trkpt lat="48.99926" lon="0.09763">
        <ele>143.88</ele>
        <time>2021-08-08T14:14:27Z</time>
      </trkpt>
      <trkpt lat="48.99927" lon="0.09764">
        <ele>144.02</ele>
        <time>2021-08-08T14:14:28Z</time>
      </trkpt>
      <trkpt lat="48.99929" lon="0.09766">
        <ele>144.21</ele>
        <time>2021-08-08T14:14:29Z</time>
      </trkpt>
      <trkpt lat="48.99929" lon="0.09768">
        <ele>144.39</ele>
        <time>2021-08-08T14:14:30Z</time>
      </trkpt>
      <trkpt lat="48.9993" lon="0.0977">
        <ele>144.7</ele>
        <time>2021-08-08T14:14:31Z</time>
      </trkpt>
      <trkpt lat="48.9993" lon="0.09772">
        <ele>144.93</ele>
        <time>2021-08-08T14:14:32Z</time>
      </trkpt>
      <trkpt lat="48.9993" lon="0.09773">
        <ele>145.18</ele>
        <time>2021-08-08T14:14:33Z</time>
      </trkpt>
      <trkpt lat="48.9993" lon="0.09775">
        <ele>145.42</ele>
        <time>2021-08-08T14:14:34Z</time>
      </trkpt>
      <trkpt lat="48.99931" lon="0.09777">
        <ele>145.69</ele>
        <time>2021-08-08T14:14:35Z</time>
      </trkpt>
      <trkpt lat="48.9993" lon="0.09779">
        <ele>146.04</ele>
        <time>2021-08-08T14:14:36Z</time>
      </trkpt>
      <trkpt lat="48.9993" lon="0.09781">
        <ele>146.41</ele>
        <time>2021-08-08T14:14:37Z</time>
      </trkpt>
      <trkpt lat="48.9993" lon="0.09782">
        <ele>146.7</ele>
        <time>2021-08-08T14:14:38Z</time>
      </trkpt>
      <trkpt lat="48.9993" lon="0.09784">
        <ele>147.06</ele>
        <time>2021-08-08T14:14:39Z</time>
      </trkpt>
      <trkpt lat="48.9993" lon="0.09786">
        <ele>147.44</ele>
        <time>2021-08-08T14:14:40Z</time>
      </trkpt>
      <trkpt lat="48.99929" lon="0.09788">
        <ele>147.75</ele>
        <time>2021-08-08T14:14:41Z</time>
      </trkpt>
      <trkpt lat="48.99929" lon="0.09789">
        <ele>148.07</ele>
        <time>2021-08-08T14:14:42Z</time>
      </trkpt>
      <trkpt lat="48.99929" lon="0.09791">
        <ele>148.34</ele>
        <time>2021-08-08T14:14:43Z</time>
      </trkpt>
      <trkpt lat="48.99929" lon="0.09792">
        <ele>148.64</ele>
        <time>2021-08-08T14:14:44Z</time>
      </trkpt>
      <trkpt lat="48.99937" lon="0.09798">
        <ele>149.09</ele>
        <time>2021-08-08T14:17:02Z</time>
      </trkpt>
      <trkpt lat="48.9994" lon="0.09799">
        <ele>149.13</ele>
        <time>2021-08-08T14:17:03Z</time>
      </trkpt>
      <trkpt lat="48.99943" lon="0.09801">
        <ele>149.23</ele>
        <time>2021-08-08T14:17:04Z</time>
      </trkpt>
      <trkpt lat="48.99946" lon="0.09803">
        <ele>149.33</ele>
        <time>2021-08-08T14:17:05Z</time>
      </trkpt>
      <trkpt lat="48.99949" lon="0.09804">
        <ele>149.32</ele>
        <time>2021-08-08T14:17:06Z</time>
      </trkpt>
      <trkpt lat="48.99953" lon="0.09805">
        <ele>149.14</ele>
        <time>2021-08-08T14:17:07Z</time>
      </trkpt>
      <trkpt lat="48.99956" lon="0.09806">
        <ele>148.92</ele>
        <time>2021-08-08T14:17:08Z</time>
      </trkpt>
      <trkpt lat="48.9996" lon="0.09808">
        <ele>148.7</ele>
        <time>2021-08-08T14:17:09Z</time>
      </trkpt>
      <trkpt lat="48.99964" lon="0.0981">
        <ele>148.56</ele>
        <time>2021-08-08T14:17:10Z</time>
      </trkpt>
      <trkpt lat="48.99967" lon="0.09813">
        <ele>148.57</ele>
        <time>2021-08-08T14:17:11Z</time>
      </trkpt>
      <trkpt lat="48.99971" lon="0.09816">
        <ele>148.6</ele>
        <time>2021-08-08T14:17:12Z</time>
      </trkpt>
      <trkpt lat="48.99975" lon="0.09819">
        <ele>148.55</ele>
        <time>2021-08-08T14:17:13Z</time>
      </trkpt>
      <trkpt lat="48.99979" lon="0.09822">
        <ele>148.34</ele>
        <time>2021-08-08T14:17:14Z</time>
      </trkpt>
      <trkpt lat="48.99984" lon="0.09825">
        <ele>147.96</ele>
        <time>2021-08-08T14:17:15Z</time>
      </trkpt>
      <trkpt lat="48.99987" lon="0.09828">
        <ele>147.71</ele>
        <time>2021-08-08T14:17:16Z</time>
      </trkpt>
      <trkpt lat="48.9999" lon="0.09832">
        <ele>147.59</ele>
        <time>2021-08-08T14:17:17Z</time>
      </trkpt>
      <trkpt lat="48.99995" lon="0.09836">
        <ele>147.23</ele>
        <time>2021-08-08T14:17:18Z</time>
      </trkpt>
      <trkpt lat="48.99999" lon="0.09839">
        <ele>146.8</ele>
        <time>2021-08-08T14:17:19Z</time>
      </trkpt>
      <trkpt lat="49.00002" lon="0.09843">
        <ele>146.62</ele>
        <time>2021-08-08T14:17:20Z</time>
      </trkpt>
      <trkpt lat="49.00004" lon="0.09847">
        <ele>146.61</ele>
        <time>2021-08-08T14:17:21Z</time>
      </trkpt>
      <trkpt lat="49.00006" lon="0.09851">
        <ele>146.63</ele>
        <time>2021-08-08T14:17:22Z</time>
      </trkpt>
      <trkpt lat="49.00008" lon="0.09855">
        <ele>146.66</ele>
        <time>2021-08-08T14:17:23Z</time>
      </trkpt>
      <trkpt lat="49.00011" lon="0.0986">
        <ele>146.71</ele>
        <time>2021-08-08T14:17:24Z</time>
      </trkpt>
      <trkpt lat="49.00015" lon="0.09866">
        <ele>146.78</ele>
        <time>2021-08-08T14:17:25Z</time>
      </trkpt>
      <trkpt lat="49.00018" lon="0.09873">
        <ele>146.89</ele>
        <time>2021-08-08T14:17:26Z</time>
      </trkpt>
      <trkpt lat="49.0002" lon="0.0988">
        <ele>147.11</ele>
        <time>2021-08-08T14:17:27Z</time>
      </trkpt>
      <trkpt lat="49.00022" lon="0.09887">
        <ele>147.38</ele>
        <time>2021-08-08T14:17:28Z</time>
      </trkpt>
      <trkpt lat="49.00023" lon="0.09893">
        <ele>147.69</ele>
        <time>2021-08-08T14:17:29Z</time>
      </trkpt>
      <trkpt lat="49.00023" lon="0.09898">
        <ele>148.03</ele>
        <time>2021-08-08T14:17:30Z</time>
      </trkpt>
      <trkpt lat="49.00023" lon="0.09903">
        <ele>148.36</ele>
        <time>2021-08-08T14:17:31Z</time>
      </trkpt>
      <trkpt lat="49.00023" lon="0.09908">
        <ele>148.73</ele>
        <time>2021-08-08T14:17:32Z</time>
      </trkpt>
      <trkpt lat="49.00023" lon="0.09913">
        <ele>149.09</ele>
        <time>2021-08-08T14:17:33Z</time>
      </trkpt>
      <trkpt lat="49.00022" lon="0.09918">
        <ele>149.52</ele>
        <time>2021-08-08T14:17:34Z</time>
      </trkpt>
      <trkpt lat="49.00022" lon="0.09924">
        <ele>149.93</ele>
        <time>2021-08-08T14:17:35Z</time>
      </trkpt>
      <trkpt lat="49.00022" lon="0.09929">
        <ele>150.32</ele>
        <time>2021-08-08T14:17:36Z</time>
      </trkpt>
      <trkpt lat="49.00023" lon="0.09935">
        <ele>150.7</ele>
        <time>2021-08-08T14:17:37Z</time>
      </trkpt>
      <trkpt lat="49.00023" lon="0.09941">
        <ele>151.13</ele>
        <time>2021-08-08T14:17:38Z</time>
      </trkpt>
      <trkpt lat="49.00022" lon="0.09947">
        <ele>151.51</ele>
        <time>2021-08-08T14:17:39Z</time>
      </trkpt>
      <trkpt lat="49.00021" lon="0.09954">
        <ele>151.83</ele>
        <time>2021-08-08T14:17:40Z</time>
      </trkpt>
      <trkpt lat="49.0002" lon="0.09963">
        <ele>152.15</ele>
        <time>2021-08-08T14:17:41Z</time>
      </trkpt>
      <trkpt lat="49.0002" lon="0.09967">
        <ele>152.37</ele>
        <time>2021-08-08T14:17:42Z</time>
      </trkpt>
      <trkpt lat="49.00018" lon="0.09973">
        <ele>152.6</ele>
        <time>2021-08-08T14:17:43Z</time>
      </trkpt>
      <trkpt lat="49.00017" lon="0.09979">
        <ele>152.8</ele>
        <time>2021-08-08T14:17:44Z</time>
      </trkpt>
      <trkpt lat="49.00016" lon="0.09984">
        <ele>152.94</ele>
        <time>2021-08-08T14:17:45Z</time>
      </trkpt>
      <trkpt lat="49.00015" lon="0.09987">
        <ele>153.09</ele>
        <time>2021-08-08T14:17:46Z</time>
      </trkpt>
      <trkpt lat="49.00014" lon="0.09992">
        <ele>153.26</ele>
        <time>2021-08-08T14:17:47Z</time>
      </trkpt>
      <trkpt lat="49.00015" lon="0.09997">
        <ele>153.34</ele>
        <time>2021-08-08T14:17:48Z</time>
      </trkpt>
      <trkpt lat="49.00015" lon="0.10002">
        <ele>153.37</ele>
        <time>2021-08-08T14:17:49Z</time>
      </trkpt>
      <trkpt lat="49.00016" lon="0.10006">
        <ele>153.42</ele>
        <time>2021-08-08T14:17:50Z</time>
      </trkpt>
      <trkpt lat="49.00016" lon="0.10011">
        <ele>153.45</ele>
        <time>2021-08-08T14:17:51Z</time>
      </trkpt>
      <trkpt lat="49.00016" lon="0.10017">
        <ele>153.54</ele>
        <time>2021-08-08T14:17:52Z</time>
      </trkpt>
      <trkpt lat="49.00017" lon="0.10021">
        <ele>153.61</ele>
        <time>2021-08-08T14:17:53Z</time>
      </trkpt>
      <trkpt lat="49.00016" lon="0.10026">
        <ele>153.74</ele>
        <time>2021-08-08T14:17:54Z</time>
      </trkpt>
      <trkpt lat="49.00016" lon="0.1003">
        <ele>153.87</ele>
        <time>2021-08-08T14:17:55Z</time>
      </trkpt>
      <trkpt lat="49.00015" lon="0.10036">
        <ele>154.08</ele>
        <time>2021-08-08T14:17:56Z</time>
      </trkpt>
      <trkpt lat="49.00015" lon="0.1004">
        <ele>154.31</ele>
        <time>2021-08-08T14:17:57Z</time>
      </trkpt>
      <trkpt lat="49.00014" lon="0.10046">
        <ele>154.55</ele>
        <time>2021-08-08T14:17:58Z</time>
      </trkpt>
      <trkpt lat="49.00014" lon="0.1005">
        <ele>154.73</ele>
        <time>2021-08-08T14:17:59Z</time>
      </trkpt>
      <trkpt lat="49.00014" lon="0.10054">
        <ele>154.87</ele>
        <time>2021-08-08T14:18:00Z</time>
      </trkpt>
      <trkpt lat="49.00014" lon="0.10058">
        <ele>155</ele>
        <time>2021-08-08T14:18:01Z</time>
      </trkpt>
      <trkpt lat="49.00014" lon="0.10062">
        <ele>155.15</ele>
        <time>2021-08-08T14:18:02Z</time>
      </trkpt>
      <trkpt lat="49.00015" lon="0.10066">
        <ele>155.29</ele>
        <time>2021-08-08T14:18:03Z</time>
      </trkpt>
      <trkpt lat="49.00015" lon="0.10071">
        <ele>155.42</ele>
        <time>2021-08-08T14:18:04Z</time>
      </trkpt>
      <trkpt lat="49.00016" lon="0.10075">
        <ele>155.5</ele>
        <time>2021-08-08T14:18:05Z</time>
      </trkpt>
      <trkpt lat="49.00016" lon="0.10079">
        <ele>155.61</ele>
        <time>2021-08-08T14:18:06Z</time>
      </trkpt>
      <trkpt lat="49.00017" lon="0.10084">
        <ele>155.74</ele>
        <time>2021-08-08T14:18:07Z</time>
      </trkpt>
      <trkpt lat="49.00016" lon="0.10089">
        <ele>155.94</ele>
        <time>2021-08-08T14:18:08Z</time>
      </trkpt>
      <trkpt lat="49.00016" lon="0.10093">
        <ele>156.11</ele>
        <time>2021-08-08T14:18:09Z</time>
      </trkpt>
      <trkpt lat="49.00017" lon="0.10097">
        <ele>156.22</ele>
        <time>2021-08-08T14:18:10Z</time>
      </trkpt>
      <trkpt lat="49.00016" lon="0.10101">
        <ele>156.39</ele>
        <time>2021-08-08T14:18:11Z</time>
      </trkpt>
      <trkpt lat="49.00015" lon="0.10105">
        <ele>156.59</ele>
        <time>2021-08-08T14:18:12Z</time>
      </trkpt>
      <trkpt lat="49.00015" lon="0.10109">
        <ele>156.78</ele>
        <time>2021-08-08T14:18:13Z</time>
      </trkpt>
      <trkpt lat="49.00014" lon="0.10114">
        <ele>157.02</ele>
        <time>2021-08-08T14:18:14Z</time>
      </trkpt>
      <trkpt lat="49.00013" lon="0.10119">
        <ele>157.25</ele>
        <time>2021-08-08T14:18:15Z</time>
      </trkpt>
      <trkpt lat="49.00012" lon="0.10123">
        <ele>157.46</ele>
        <time>2021-08-08T14:18:16Z</time>
      </trkpt>
      <trkpt lat="49.00012" lon="0.10127">
        <ele>157.65</ele>
        <time>2021-08-08T14:18:17Z</time>
      </trkpt>
      <trkpt lat="49.00011" lon="0.1013">
        <ele>157.82</ele>
        <time>2021-08-08T14:18:18Z</time>
      </trkpt>
      <trkpt lat="49.0001" lon="0.10134">
        <ele>158.02</ele>
        <time>2021-08-08T14:18:19Z</time>
      </trkpt>
      <trkpt lat="49.00009" lon="0.10138">
        <ele>158.24</ele>
        <time>2021-08-08T14:18:20Z</time>
      </trkpt>
      <trkpt lat="49.00008" lon="0.10141">
        <ele>158.52</ele>
        <time>2021-08-08T14:18:21Z</time>
      </trkpt>
      <trkpt lat="49.00007" lon="0.10144">
        <ele>158.9</ele>
        <time>2021-08-08T14:18:22Z</time>
      </trkpt>
      <trkpt lat="49.00007" lon="0.10148">
        <ele>159.29</ele>
        <time>2021-08-08T14:18:23Z</time>
      </trkpt>
      <trkpt lat="49.00006" lon="0.10151">
        <ele>159.71</ele>
        <time>2021-08-08T14:18:24Z</time>
      </trkpt>
      <trkpt lat="49.00006" lon="0.10154">
        <ele>160.1</ele>
        <time>2021-08-08T14:18:25Z</time>
      </trkpt>
      <trkpt lat="49.00006" lon="0.10158">
        <ele>160.48</ele>
        <time>2021-08-08T14:18:26Z</time>
      </trkpt>
      <trkpt lat="49.00006" lon="0.10162">
        <ele>160.88</ele>
        <time>2021-08-08T14:18:27Z</time>
      </trkpt>
      <trkpt lat="49.00005" lon="0.10165">
        <ele>161.25</ele>
        <time>2021-08-08T14:18:28Z</time>
      </trkpt>
      <trkpt lat="49.00005" lon="0.10168">
        <ele>161.63</ele>
        <time>2021-08-08T14:18:29Z</time>
      </trkpt>
      <trkpt lat="49.00004" lon="0.10171">
        <ele>162.02</ele>
        <time>2021-08-08T14:18:30Z</time>
      </trkpt>
      <trkpt lat="49.00004" lon="0.10175">
        <ele>162.44</ele>
        <time>2021-08-08T14:18:31Z</time>
      </trkpt>
      <trkpt lat="49.00003" lon="0.10179">
        <ele>162.89</ele>
        <time>2021-08-08T14:18:32Z</time>
      </trkpt>
      <trkpt lat="49.00003" lon="0.10182">
        <ele>163.28</ele>
        <time>2021-08-08T14:18:33Z</time>
      </trkpt>
      <trkpt lat="49.00003" lon="0.10186">
        <ele>163.69</ele>
        <time>2021-08-08T14:18:34Z</time>
      </trkpt>
      <trkpt lat="49.00002" lon="0.10189">
        <ele>164.11</ele>
        <time>2021-08-08T14:18:35Z</time>
      </trkpt>
      <trkpt lat="49.00002" lon="0.10193">
        <ele>164.53</ele>
        <time>2021-08-08T14:18:36Z</time>
      </trkpt>
      <trkpt lat="49.00001" lon="0.10196">
        <ele>164.9</ele>
        <time>2021-08-08T14:18:37Z</time>
      </trkpt>
      <trkpt lat="49.00001" lon="0.102">
        <ele>165.2</ele>
        <time>2021-08-08T14:18:38Z</time>
      </trkpt>
      <trkpt lat="49" lon="0.10203">
        <ele>165.47</ele>
        <time>2021-08-08T14:18:39Z</time>
      </trkpt>
      <trkpt lat="49" lon="0.10207">
        <ele>165.75</ele>
        <time>2021-08-08T14:18:40Z</time>
      </trkpt>
      <trkpt lat="49" lon="0.1021">
        <ele>165.99</ele>
        <time>2021-08-08T14:18:41Z</time>
      </trkpt>
      <trkpt lat="49" lon="0.10213">
        <ele>166.21</ele>
        <time>2021-08-08T14:18:42Z</time>
      </trkpt>
      <trkpt lat="49" lon="0.10216">
        <ele>166.45</ele>
        <time>2021-08-08T14:18:43Z</time>
      </trkpt>
      <trkpt lat="49" lon="0.10219">
        <ele>166.71</ele>
        <time>2021-08-08T14:18:44Z</time>
      </trkpt>
      <trkpt lat="48.99999" lon="0.10222">
        <ele>166.96</ele>
        <time>2021-08-08T14:18:45Z</time>
      </trkpt>
      <trkpt lat="49" lon="0.10226">
        <ele>167.27</ele>
        <time>2021-08-08T14:18:46Z</time>
      </trkpt>
      <trkpt lat="49" lon="0.10229">
        <ele>167.59</ele>
        <time>2021-08-08T14:18:47Z</time>
      </trkpt>
      <trkpt lat="49" lon="0.10232">
        <ele>167.93</ele>
        <time>2021-08-08T14:18:48Z</time>
      </trkpt>
      <trkpt lat="49" lon="0.10235">
        <ele>168.26</ele>
        <time>2021-08-08T14:18:49Z</time>
      </trkpt>
      <trkpt lat="49.00001" lon="0.10238">
        <ele>168.56</ele>
        <time>2021-08-08T14:18:50Z</time>
      </trkpt>
      <trkpt lat="49.00002" lon="0.10241">
        <ele>168.85</ele>
        <time>2021-08-08T14:18:51Z</time>
      </trkpt>
      <trkpt lat="49.00004" lon="0.10244">
        <ele>169.11</ele>
        <time>2021-08-08T14:18:52Z</time>
      </trkpt>
      <trkpt lat="49.00006" lon="0.10247">
        <ele>169.36</ele>
        <time>2021-08-08T14:18:53Z</time>
      </trkpt>
      <trkpt lat="49.00008" lon="0.1025">
        <ele>169.59</ele>
        <time>2021-08-08T14:18:54Z</time>
      </trkpt>
      <trkpt lat="49.00009" lon="0.10252">
        <ele>169.72</ele>
        <time>2021-08-08T14:18:55Z</time>
      </trkpt>
      <trkpt lat="49.00011" lon="0.10254">
        <ele>169.78</ele>
        <time>2021-08-08T14:18:56Z</time>
      </trkpt>
      <trkpt lat="49.00013" lon="0.10256">
        <ele>169.81</ele>
        <time>2021-08-08T14:18:57Z</time>
      </trkpt>
      <trkpt lat="49.00015" lon="0.10258">
        <ele>169.89</ele>
        <time>2021-08-08T14:18:58Z</time>
      </trkpt>
      <trkpt lat="49.00017" lon="0.10261">
        <ele>169.99</ele>
        <time>2021-08-08T14:18:59Z</time>
      </trkpt>
      <trkpt lat="49.00019" lon="0.10264">
        <ele>170.11</ele>
        <time>2021-08-08T14:19:00Z</time>
      </trkpt>
      <trkpt lat="49.00021" lon="0.10266">
        <ele>170.22</ele>
        <time>2021-08-08T14:19:01Z</time>
      </trkpt>
      <trkpt lat="49.00022" lon="0.10268">
        <ele>170.33</ele>
        <time>2021-08-08T14:19:02Z</time>
      </trkpt>
      <trkpt lat="49.00024" lon="0.1027">
        <ele>170.46</ele>
        <time>2021-08-08T14:19:03Z</time>
      </trkpt>
      <trkpt lat="49.00026" lon="0.10273">
        <ele>170.6</ele>
        <time>2021-08-08T14:19:04Z</time>
      </trkpt>
      <trkpt lat="49.00029" lon="0.10275">
        <ele>170.76</ele>
        <time>2021-08-08T14:19:05Z</time>
      </trkpt>
      <trkpt lat="49.00031" lon="0.10278">
        <ele>170.91</ele>
        <time>2021-08-08T14:19:06Z</time>
      </trkpt>
      <trkpt lat="49.00034" lon="0.10279">
        <ele>171.02</ele>
        <time>2021-08-08T14:19:07Z</time>
      </trkpt>
      <trkpt lat="49.00036" lon="0.10282">
        <ele>171.1</ele>
        <time>2021-08-08T14:19:08Z</time>
      </trkpt>
      <trkpt lat="49.00039" lon="0.10283">
        <ele>171.17</ele>
        <time>2021-08-08T14:19:09Z</time>
      </trkpt>
      <trkpt lat="49.00042" lon="0.10286">
        <ele>171.25</ele>
        <time>2021-08-08T14:19:10Z</time>
      </trkpt>
      <trkpt lat="49.00045" lon="0.10288">
        <ele>171.32</ele>
        <time>2021-08-08T14:19:11Z</time>
      </trkpt>
      <trkpt lat="49.00047" lon="0.10289">
        <ele>171.39</ele>
        <time>2021-08-08T14:19:12Z</time>
      </trkpt>
      <trkpt lat="49.0005" lon="0.10292">
        <ele>171.48</ele>
        <time>2021-08-08T14:19:13Z</time>
      </trkpt>
      <trkpt lat="49.00052" lon="0.10295">
        <ele>171.58</ele>
        <time>2021-08-08T14:19:14Z</time>
      </trkpt>
      <trkpt lat="49.00055" lon="0.10299">
        <ele>171.7</ele>
        <time>2021-08-08T14:19:15Z</time>
      </trkpt>
      <trkpt lat="49.00057" lon="0.10301">
        <ele>171.84</ele>
        <time>2021-08-08T14:19:16Z</time>
      </trkpt>
      <trkpt lat="49.00059" lon="0.10304">
        <ele>172.02</ele>
        <time>2021-08-08T14:19:17Z</time>
      </trkpt>
      <trkpt lat="49.00062" lon="0.10308">
        <ele>172.25</ele>
        <time>2021-08-08T14:19:18Z</time>
      </trkpt>
      <trkpt lat="49.00064" lon="0.10311">
        <ele>172.53</ele>
        <time>2021-08-08T14:19:19Z</time>
      </trkpt>
      <trkpt lat="49.00066" lon="0.10315">
        <ele>172.82</ele>
        <time>2021-08-08T14:19:20Z</time>
      </trkpt>
      <trkpt lat="49.00069" lon="0.10319">
        <ele>173.11</ele>
        <time>2021-08-08T14:19:21Z</time>
      </trkpt>
      <trkpt lat="49.00071" lon="0.10324">
        <ele>173.38</ele>
        <time>2021-08-08T14:19:22Z</time>
      </trkpt>
      <trkpt lat="49.00073" lon="0.10328">
        <ele>173.62</ele>
        <time>2021-08-08T14:19:23Z</time>
      </trkpt>
      <trkpt lat="49.00075" lon="0.10332">
        <ele>173.86</ele>
        <time>2021-08-08T14:19:24Z</time>
      </trkpt>
      <trkpt lat="49.00077" lon="0.10337">
        <ele>174.04</ele>
        <time>2021-08-08T14:19:25Z</time>
      </trkpt>
      <trkpt lat="49.0008" lon="0.10341">
        <ele>174.21</ele>
        <time>2021-08-08T14:19:26Z</time>
      </trkpt>
      <trkpt lat="49.00081" lon="0.10345">
        <ele>174.36</ele>
        <time>2021-08-08T14:19:27Z</time>
      </trkpt>
      <trkpt lat="49.00084" lon="0.10349">
        <ele>174.51</ele>
        <time>2021-08-08T14:19:28Z</time>
      </trkpt>
      <trkpt lat="49.00085" lon="0.10353">
        <ele>174.66</ele>
        <time>2021-08-08T14:19:29Z</time>
      </trkpt>
      <trkpt lat="49.00088" lon="0.10357">
        <ele>174.8</ele>
        <time>2021-08-08T14:19:30Z</time>
      </trkpt>
      <trkpt lat="49.00091" lon="0.10362">
        <ele>174.95</ele>
        <time>2021-08-08T14:19:31Z</time>
      </trkpt>
      <trkpt lat="49.00093" lon="0.10366">
        <ele>175.11</ele>
        <time>2021-08-08T14:19:32Z</time>
      </trkpt>
      <trkpt lat="49.00095" lon="0.1037">
        <ele>175.27</ele>
        <time>2021-08-08T14:19:33Z</time>
      </trkpt>
      <trkpt lat="49.00098" lon="0.10375">
        <ele>175.43</ele>
        <time>2021-08-08T14:19:34Z</time>
      </trkpt>
      <trkpt lat="49.001" lon="0.1038">
        <ele>175.6</ele>
        <time>2021-08-08T14:19:35Z</time>
      </trkpt>
      <trkpt lat="49.00102" lon="0.10385">
        <ele>175.78</ele>
        <time>2021-08-08T14:19:36Z</time>
      </trkpt>
      <trkpt lat="49.00105" lon="0.1039">
        <ele>175.96</ele>
        <time>2021-08-08T14:19:37Z</time>
      </trkpt>
      <trkpt lat="49.00107" lon="0.10395">
        <ele>176.14</ele>
        <time>2021-08-08T14:19:38Z</time>
      </trkpt>
      <trkpt lat="49.0011" lon="0.104">
        <ele>176.32</ele>
        <time>2021-08-08T14:19:39Z</time>
      </trkpt>
      <trkpt lat="49.00111" lon="0.10405">
        <ele>176.51</ele>
        <time>2021-08-08T14:19:40Z</time>
      </trkpt>
      <trkpt lat="49.00114" lon="0.1041">
        <ele>176.69</ele>
        <time>2021-08-08T14:19:41Z</time>
      </trkpt>
      <trkpt lat="49.00116" lon="0.10415">
        <ele>176.87</ele>
        <time>2021-08-08T14:19:42Z</time>
      </trkpt>
      <trkpt lat="49.00118" lon="0.1042">
        <ele>176.96</ele>
        <time>2021-08-08T14:19:43Z</time>
      </trkpt>
      <trkpt lat="49.0012" lon="0.10425">
        <ele>176.99</ele>
        <time>2021-08-08T14:19:44Z</time>
      </trkpt>
      <trkpt lat="49.00123" lon="0.10429">
        <ele>177</ele>
        <time>2021-08-08T14:19:45Z</time>
      </trkpt>
      <trkpt lat="49.00126" lon="0.10433">
        <ele>177</ele>
        <time>2021-08-08T14:19:46Z</time>
      </trkpt>
      <trkpt lat="49.0013" lon="0.10438">
        <ele>177</ele>
        <time>2021-08-08T14:19:47Z</time>
      </trkpt>
      <trkpt lat="49.00133" lon="0.10442">
        <ele>177</ele>
        <time>2021-08-08T14:19:48Z</time>
      </trkpt>
      <trkpt lat="49.00137" lon="0.10446">
        <ele>177.05</ele>
        <time>2021-08-08T14:19:49Z</time>
      </trkpt>
      <trkpt lat="49.00141" lon="0.10451">
        <ele>177.17</ele>
        <time>2021-08-08T14:19:50Z</time>
      </trkpt>
      <trkpt lat="49.00145" lon="0.10455">
        <ele>177.31</ele>
        <time>2021-08-08T14:19:51Z</time>
      </trkpt>
      <trkpt lat="49.0015" lon="0.10459">
        <ele>177.46</ele>
        <time>2021-08-08T14:19:52Z</time>
      </trkpt>
      <trkpt lat="49.00154" lon="0.10463">
        <ele>177.61</ele>
        <time>2021-08-08T14:19:53Z</time>
      </trkpt>
      <trkpt lat="49.00159" lon="0.10467">
        <ele>177.75</ele>
        <time>2021-08-08T14:19:54Z</time>
      </trkpt>
      <trkpt lat="49.00163" lon="0.1047">
        <ele>177.88</ele>
        <time>2021-08-08T14:19:55Z</time>
      </trkpt>
      <trkpt lat="49.00168" lon="0.10474">
        <ele>177.93</ele>
        <time>2021-08-08T14:19:56Z</time>
      </trkpt>
      <trkpt lat="49.00173" lon="0.10477">
        <ele>177.85</ele>
        <time>2021-08-08T14:19:57Z</time>
      </trkpt>
      <trkpt lat="49.00177" lon="0.10481">
        <ele>177.77</ele>
        <time>2021-08-08T14:19:58Z</time>
      </trkpt>
      <trkpt lat="49.00182" lon="0.10484">
        <ele>177.7</ele>
        <time>2021-08-08T14:19:59Z</time>
      </trkpt>
      <trkpt lat="49.00187" lon="0.10487">
        <ele>177.66</ele>
        <time>2021-08-08T14:20:00Z</time>
      </trkpt>
      <trkpt lat="49.00193" lon="0.1049">
        <ele>177.66</ele>
        <time>2021-08-08T14:20:01Z</time>
      </trkpt>
      <trkpt lat="49.00198" lon="0.10493">
        <ele>177.73</ele>
        <time>2021-08-08T14:20:02Z</time>
      </trkpt>
      <trkpt lat="49.00204" lon="0.10496">
        <ele>177.81</ele>
        <time>2021-08-08T14:20:03Z</time>
      </trkpt>
      <trkpt lat="49.00209" lon="0.10499">
        <ele>177.91</ele>
        <time>2021-08-08T14:20:04Z</time>
      </trkpt>
      <trkpt lat="49.00215" lon="0.10501">
        <ele>177.97</ele>
        <time>2021-08-08T14:20:05Z</time>
      </trkpt>
      <trkpt lat="49.0022" lon="0.10503">
        <ele>177.99</ele>
        <time>2021-08-08T14:20:06Z</time>
      </trkpt>
      <trkpt lat="49.00224" lon="0.10506">
        <ele>177.96</ele>
        <time>2021-08-08T14:20:07Z</time>
      </trkpt>
      <trkpt lat="49.00229" lon="0.10508">
        <ele>177.87</ele>
        <time>2021-08-08T14:20:08Z</time>
      </trkpt>
      <trkpt lat="49.00233" lon="0.1051">
        <ele>177.79</ele>
        <time>2021-08-08T14:20:09Z</time>
      </trkpt>
      <trkpt lat="49.00238" lon="0.10513">
        <ele>177.72</ele>
        <time>2021-08-08T14:20:10Z</time>
      </trkpt>
      <trkpt lat="49.00244" lon="0.10515">
        <ele>177.66</ele>
        <time>2021-08-08T14:20:11Z</time>
      </trkpt>
      <trkpt lat="49.0025" lon="0.10517">
        <ele>177.62</ele>
        <time>2021-08-08T14:20:12Z</time>
      </trkpt>
      <trkpt lat="49.00255" lon="0.10518">
        <ele>177.64</ele>
        <time>2021-08-08T14:20:13Z</time>
      </trkpt>
      <trkpt lat="49.00261" lon="0.10519">
        <ele>177.66</ele>
        <time>2021-08-08T14:20:14Z</time>
      </trkpt>
      <trkpt lat="49.00267" lon="0.10519">
        <ele>177.67</ele>
        <time>2021-08-08T14:20:15Z</time>
      </trkpt>
      <trkpt lat="49.00273" lon="0.10519">
        <ele>177.69</ele>
        <time>2021-08-08T14:20:16Z</time>
      </trkpt>
      <trkpt lat="49.00278" lon="0.10521">
        <ele>177.72</ele>
        <time>2021-08-08T14:20:17Z</time>
      </trkpt>
      <trkpt lat="49.00285" lon="0.10521">
        <ele>177.75</ele>
        <time>2021-08-08T14:20:18Z</time>
      </trkpt>
      <trkpt lat="49.00291" lon="0.10521">
        <ele>177.76</ele>
        <time>2021-08-08T14:20:19Z</time>
      </trkpt>
      <trkpt lat="49.00297" lon="0.10521">
        <ele>177.75</ele>
        <time>2021-08-08T14:20:20Z</time>
      </trkpt>
      <trkpt lat="49.00304" lon="0.1052">
        <ele>177.73</ele>
        <time>2021-08-08T14:20:21Z</time>
      </trkpt>
      <trkpt lat="49.0031" lon="0.10519">
        <ele>177.69</ele>
        <time>2021-08-08T14:20:22Z</time>
      </trkpt>
      <trkpt lat="49.00316" lon="0.10517">
        <ele>177.64</ele>
        <time>2021-08-08T14:20:23Z</time>
      </trkpt>
      <trkpt lat="49.00322" lon="0.10515">
        <ele>177.58</ele>
        <time>2021-08-08T14:20:24Z</time>
      </trkpt>
      <trkpt lat="49.00328" lon="0.10513">
        <ele>177.51</ele>
        <time>2021-08-08T14:20:25Z</time>
      </trkpt>
      <trkpt lat="49.00334" lon="0.10512">
        <ele>177.44</ele>
        <time>2021-08-08T14:20:26Z</time>
      </trkpt>
      <trkpt lat="49.0034" lon="0.1051">
        <ele>177.38</ele>
        <time>2021-08-08T14:20:27Z</time>
      </trkpt>
      <trkpt lat="49.00347" lon="0.10509">
        <ele>177.35</ele>
        <time>2021-08-08T14:20:28Z</time>
      </trkpt>
      <trkpt lat="49.00353" lon="0.1051">
        <ele>177.35</ele>
        <time>2021-08-08T14:20:29Z</time>
      </trkpt>
      <trkpt lat="49.0036" lon="0.1051">
        <ele>177.37</ele>
        <time>2021-08-08T14:20:30Z</time>
      </trkpt>
      <trkpt lat="49.00367" lon="0.10512">
        <ele>177.4</ele>
        <time>2021-08-08T14:20:31Z</time>
      </trkpt>
      <trkpt lat="49.00373" lon="0.10512">
        <ele>177.43</ele>
        <time>2021-08-08T14:20:32Z</time>
      </trkpt>
      <trkpt lat="49.0038" lon="0.10513">
        <ele>177.46</ele>
        <time>2021-08-08T14:20:33Z</time>
      </trkpt>
      <trkpt lat="49.00386" lon="0.10514">
        <ele>177.48</ele>
        <time>2021-08-08T14:20:34Z</time>
      </trkpt>
      <trkpt lat="49.00393" lon="0.10514">
        <ele>177.5</ele>
        <time>2021-08-08T14:20:35Z</time>
      </trkpt>
      <trkpt lat="49.00399" lon="0.10514">
        <ele>177.51</ele>
        <time>2021-08-08T14:20:36Z</time>
      </trkpt>
      <trkpt lat="49.00405" lon="0.10514">
        <ele>177.51</ele>
        <time>2021-08-08T14:20:37Z</time>
      </trkpt>
      <trkpt lat="49.0041" lon="0.10514">
        <ele>177.5</ele>
        <time>2021-08-08T14:20:38Z</time>
      </trkpt>
      <trkpt lat="49.00416" lon="0.10514">
        <ele>177.51</ele>
        <time>2021-08-08T14:20:39Z</time>
      </trkpt>
      <trkpt lat="49.00421" lon="0.10515">
        <ele>177.47</ele>
        <time>2021-08-08T14:20:40Z</time>
      </trkpt>
      <trkpt lat="49.00427" lon="0.10516">
        <ele>177.4</ele>
        <time>2021-08-08T14:20:41Z</time>
      </trkpt>
      <trkpt lat="49.00433" lon="0.10518">
        <ele>177.31</ele>
        <time>2021-08-08T14:20:42Z</time>
      </trkpt>
      <trkpt lat="49.00438" lon="0.10519">
        <ele>177.21</ele>
        <time>2021-08-08T14:20:43Z</time>
      </trkpt>
      <trkpt lat="49.00442" lon="0.10521">
        <ele>177.11</ele>
        <time>2021-08-08T14:20:44Z</time>
      </trkpt>
      <trkpt lat="49.00445" lon="0.10521">
        <ele>177.03</ele>
        <time>2021-08-08T14:20:45Z</time>
      </trkpt>
      <trkpt lat="49.00448" lon="0.10521">
        <ele>176.99</ele>
        <time>2021-08-08T14:20:46Z</time>
      </trkpt>
      <trkpt lat="49.00451" lon="0.10521">
        <ele>176.95</ele>
        <time>2021-08-08T14:20:47Z</time>
      </trkpt>
      <trkpt lat="49.00455" lon="0.1052">
        <ele>176.91</ele>
        <time>2021-08-08T14:20:48Z</time>
      </trkpt>
      <trkpt lat="49.00459" lon="0.1052">
        <ele>176.86</ele>
        <time>2021-08-08T14:20:49Z</time>
      </trkpt>
      <trkpt lat="49.00464" lon="0.1052">
        <ele>176.81</ele>
        <time>2021-08-08T14:20:50Z</time>
      </trkpt>
      <trkpt lat="49.0047" lon="0.10521">
        <ele>176.77</ele>
        <time>2021-08-08T14:20:51Z</time>
      </trkpt>
      <trkpt lat="49.00476" lon="0.10521">
        <ele>176.77</ele>
        <time>2021-08-08T14:20:52Z</time>
      </trkpt>
      <trkpt lat="49.00482" lon="0.10522">
        <ele>176.78</ele>
        <time>2021-08-08T14:20:53Z</time>
      </trkpt>
      <trkpt lat="49.00488" lon="0.10523">
        <ele>176.81</ele>
        <time>2021-08-08T14:20:54Z</time>
      </trkpt>
      <trkpt lat="49.00494" lon="0.10523">
        <ele>176.81</ele>
        <time>2021-08-08T14:20:55Z</time>
      </trkpt>
      <trkpt lat="49.00498" lon="0.10523">
        <ele>176.82</ele>
        <time>2021-08-08T14:20:56Z</time>
      </trkpt>
      <trkpt lat="49.00503" lon="0.10523">
        <ele>176.75</ele>
        <time>2021-08-08T14:20:57Z</time>
      </trkpt>
      <trkpt lat="49.00508" lon="0.10523">
        <ele>176.6</ele>
        <time>2021-08-08T14:20:58Z</time>
      </trkpt>
      <trkpt lat="49.00513" lon="0.10522">
        <ele>176.41</ele>
        <time>2021-08-08T14:20:59Z</time>
      </trkpt>
      <trkpt lat="49.00519" lon="0.10521">
        <ele>176.18</ele>
        <time>2021-08-08T14:21:00Z</time>
      </trkpt>
      <trkpt lat="49.00525" lon="0.10519">
        <ele>175.92</ele>
        <time>2021-08-08T14:21:01Z</time>
      </trkpt>
      <trkpt lat="49.00531" lon="0.10517">
        <ele>175.62</ele>
        <time>2021-08-08T14:21:02Z</time>
      </trkpt>
      <trkpt lat="49.00538" lon="0.10514">
        <ele>175.28</ele>
        <time>2021-08-08T14:21:03Z</time>
      </trkpt>
      <trkpt lat="49.00545" lon="0.1051">
        <ele>174.92</ele>
        <time>2021-08-08T14:21:04Z</time>
      </trkpt>
      <trkpt lat="49.00551" lon="0.10507">
        <ele>174.56</ele>
        <time>2021-08-08T14:21:05Z</time>
      </trkpt>
      <trkpt lat="49.00557" lon="0.10503">
        <ele>174.21</ele>
        <time>2021-08-08T14:21:06Z</time>
      </trkpt>
      <trkpt lat="49.00564" lon="0.10501">
        <ele>173.88</ele>
        <time>2021-08-08T14:21:07Z</time>
      </trkpt>
      <trkpt lat="49.0057" lon="0.10498">
        <ele>173.51</ele>
        <time>2021-08-08T14:21:08Z</time>
      </trkpt>
      <trkpt lat="49.00576" lon="0.10495">
        <ele>173.16</ele>
        <time>2021-08-08T14:21:09Z</time>
      </trkpt>
      <trkpt lat="49.00583" lon="0.10491">
        <ele>172.83</ele>
        <time>2021-08-08T14:21:10Z</time>
      </trkpt>
      <trkpt lat="49.00589" lon="0.10488">
        <ele>172.59</ele>
        <time>2021-08-08T14:21:11Z</time>
      </trkpt>
      <trkpt lat="49.00595" lon="0.10485">
        <ele>172.33</ele>
        <time>2021-08-08T14:21:12Z</time>
      </trkpt>
      <trkpt lat="49.00602" lon="0.10482">
        <ele>172.06</ele>
        <time>2021-08-08T14:21:13Z</time>
      </trkpt>
      <trkpt lat="49.00609" lon="0.10479">
        <ele>171.71</ele>
        <time>2021-08-08T14:21:14Z</time>
      </trkpt>
      <trkpt lat="49.00616" lon="0.10476">
        <ele>171.4</ele>
        <time>2021-08-08T14:21:15Z</time>
      </trkpt>
      <trkpt lat="49.00622" lon="0.10472">
        <ele>171.13</ele>
        <time>2021-08-08T14:21:16Z</time>
      </trkpt>
      <trkpt lat="49.00629" lon="0.10469">
        <ele>170.87</ele>
        <time>2021-08-08T14:21:17Z</time>
      </trkpt>
      <trkpt lat="49.00636" lon="0.10466">
        <ele>170.65</ele>
        <time>2021-08-08T14:21:18Z</time>
      </trkpt>
      <trkpt lat="49.00643" lon="0.10463">
        <ele>170.6</ele>
        <time>2021-08-08T14:21:19Z</time>
      </trkpt>
      <trkpt lat="49.0065" lon="0.10461">
        <ele>170.71</ele>
        <time>2021-08-08T14:21:20Z</time>
      </trkpt>
      <trkpt lat="49.00657" lon="0.10459">
        <ele>170.9</ele>
        <time>2021-08-08T14:21:21Z</time>
      </trkpt>
      <trkpt lat="49.00664" lon="0.10456">
        <ele>171.13</ele>
        <time>2021-08-08T14:21:22Z</time>
      </trkpt>
      <trkpt lat="49.00671" lon="0.10452">
        <ele>171.33</ele>
        <time>2021-08-08T14:21:23Z</time>
      </trkpt>
      <trkpt lat="49.00677" lon="0.10449">
        <ele>171.49</ele>
        <time>2021-08-08T14:21:24Z</time>
      </trkpt>
      <trkpt lat="49.00684" lon="0.10447">
        <ele>171.64</ele>
        <time>2021-08-08T14:21:25Z</time>
      </trkpt>
      <trkpt lat="49.00691" lon="0.10444">
        <ele>171.81</ele>
        <time>2021-08-08T14:21:26Z</time>
      </trkpt>
      <trkpt lat="49.00698" lon="0.10443">
        <ele>172.01</ele>
        <time>2021-08-08T14:21:27Z</time>
      </trkpt>
      <trkpt lat="49.00705" lon="0.10444">
        <ele>172.26</ele>
        <time>2021-08-08T14:21:28Z</time>
      </trkpt>
      <trkpt lat="49.00712" lon="0.10446">
        <ele>172.56</ele>
        <time>2021-08-08T14:21:29Z</time>
      </trkpt>
      <trkpt lat="49.0072" lon="0.10448">
        <ele>172.89</ele>
        <time>2021-08-08T14:21:30Z</time>
      </trkpt>
      <trkpt lat="49.00727" lon="0.1045">
        <ele>173.21</ele>
        <time>2021-08-08T14:21:31Z</time>
      </trkpt>
      <trkpt lat="49.00734" lon="0.10452">
        <ele>173.47</ele>
        <time>2021-08-08T14:21:32Z</time>
      </trkpt>
      <trkpt lat="49.00741" lon="0.10454">
        <ele>173.69</ele>
        <time>2021-08-08T14:21:33Z</time>
      </trkpt>
      <trkpt lat="49.00748" lon="0.10455">
        <ele>173.87</ele>
        <time>2021-08-08T14:21:34Z</time>
      </trkpt>
      <trkpt lat="49.00755" lon="0.10455">
        <ele>174.08</ele>
        <time>2021-08-08T14:21:35Z</time>
      </trkpt>
      <trkpt lat="49.00761" lon="0.10454">
        <ele>174.31</ele>
        <time>2021-08-08T14:21:36Z</time>
      </trkpt>
      <trkpt lat="49.00768" lon="0.10454">
        <ele>174.54</ele>
        <time>2021-08-08T14:21:37Z</time>
      </trkpt>
      <trkpt lat="49.00774" lon="0.10454">
        <ele>174.77</ele>
        <time>2021-08-08T14:21:38Z</time>
      </trkpt>
      <trkpt lat="49.00781" lon="0.10453">
        <ele>174.93</ele>
        <time>2021-08-08T14:21:39Z</time>
      </trkpt>
      <trkpt lat="49.00788" lon="0.10452">
        <ele>174.98</ele>
        <time>2021-08-08T14:21:40Z</time>
      </trkpt>
      <trkpt lat="49.00795" lon="0.10451">
        <ele>174.99</ele>
        <time>2021-08-08T14:21:41Z</time>
      </trkpt>
      <trkpt lat="49.00803" lon="0.1045">
        <ele>175</ele>
        <time>2021-08-08T14:21:42Z</time>
      </trkpt>
      <trkpt lat="49.0081" lon="0.10449">
        <ele>175.02</ele>
        <time>2021-08-08T14:21:43Z</time>
      </trkpt>
      <trkpt lat="49.00816" lon="0.10449">
        <ele>175.05</ele>
        <time>2021-08-08T14:21:44Z</time>
      </trkpt>
      <trkpt lat="49.00823" lon="0.10448">
        <ele>175.07</ele>
        <time>2021-08-08T14:21:45Z</time>
      </trkpt>
      <trkpt lat="49.0083" lon="0.10447">
        <ele>175.08</ele>
        <time>2021-08-08T14:21:46Z</time>
      </trkpt>
      <trkpt lat="49.00836" lon="0.10446">
        <ele>175.07</ele>
        <time>2021-08-08T14:21:47Z</time>
      </trkpt>
      <trkpt lat="49.00843" lon="0.10446">
        <ele>175.05</ele>
        <time>2021-08-08T14:21:48Z</time>
      </trkpt>
      <trkpt lat="49.00849" lon="0.10446">
        <ele>175.03</ele>
        <time>2021-08-08T14:21:49Z</time>
      </trkpt>
      <trkpt lat="49.00856" lon="0.10446">
        <ele>175.02</ele>
        <time>2021-08-08T14:21:50Z</time>
      </trkpt>
      <trkpt lat="49.00863" lon="0.10447">
        <ele>175.01</ele>
        <time>2021-08-08T14:21:51Z</time>
      </trkpt>
      <trkpt lat="49.00871" lon="0.10448">
        <ele>175</ele>
        <time>2021-08-08T14:21:52Z</time>
      </trkpt>
      <trkpt lat="49.00878" lon="0.10449">
        <ele>175</ele>
        <time>2021-08-08T14:21:53Z</time>
      </trkpt>
      <trkpt lat="49.00884" lon="0.10449">
        <ele>175</ele>
        <time>2021-08-08T14:21:54Z</time>
      </trkpt>
      <trkpt lat="49.00891" lon="0.1045">
        <ele>175</ele>
        <time>2021-08-08T14:21:55Z</time>
      </trkpt>
      <trkpt lat="49.00898" lon="0.10452">
        <ele>175</ele>
        <time>2021-08-08T14:21:56Z</time>
      </trkpt>
      <trkpt lat="49.00906" lon="0.10453">
        <ele>175</ele>
        <time>2021-08-08T14:21:57Z</time>
      </trkpt>
      <trkpt lat="49.00912" lon="0.10455">
        <ele>175</ele>
        <time>2021-08-08T14:21:58Z</time>
      </trkpt>
      <trkpt lat="49.00919" lon="0.10455">
        <ele>175</ele>
        <time>2021-08-08T14:21:59Z</time>
      </trkpt>
      <trkpt lat="49.00927" lon="0.10455">
        <ele>175</ele>
        <time>2021-08-08T14:22:00Z</time>
      </trkpt>
      <trkpt lat="49.00934" lon="0.10455">
        <ele>175</ele>
        <time>2021-08-08T14:22:01Z</time>
      </trkpt>
      <trkpt lat="49.00941" lon="0.10454">
        <ele>175</ele>
        <time>2021-08-08T14:22:02Z</time>
      </trkpt>
      <trkpt lat="49.00948" lon="0.10454">
        <ele>175</ele>
        <time>2021-08-08T14:22:03Z</time>
      </trkpt>
      <trkpt lat="49.00955" lon="0.10454">
        <ele>175</ele>
        <time>2021-08-08T14:22:04Z</time>
      </trkpt>
      <trkpt lat="49.00963" lon="0.10453">
        <ele>175</ele>
        <time>2021-08-08T14:22:05Z</time>
      </trkpt>
      <trkpt lat="49.0097" lon="0.10453">
        <ele>175</ele>
        <time>2021-08-08T14:22:06Z</time>
      </trkpt>
      <trkpt lat="49.00976" lon="0.10451">
        <ele>174.92</ele>
        <time>2021-08-08T14:22:07Z</time>
      </trkpt>
      <trkpt lat="49.00983" lon="0.10449">
        <ele>174.75</ele>
        <time>2021-08-08T14:22:08Z</time>
      </trkpt>
      <trkpt lat="49.0099" lon="0.10447">
        <ele>174.52</ele>
        <time>2021-08-08T14:22:09Z</time>
      </trkpt>
      <trkpt lat="49.00996" lon="0.10444">
        <ele>174.26</ele>
        <time>2021-08-08T14:22:10Z</time>
      </trkpt>
      <trkpt lat="49.01002" lon="0.10441">
        <ele>174.08</ele>
        <time>2021-08-08T14:22:11Z</time>
      </trkpt>
      <trkpt lat="49.01008" lon="0.10439">
        <ele>174.02</ele>
        <time>2021-08-08T14:22:12Z</time>
      </trkpt>
      <trkpt lat="49.01014" lon="0.10437">
        <ele>174.01</ele>
        <time>2021-08-08T14:22:13Z</time>
      </trkpt>
      <trkpt lat="49.01021" lon="0.10434">
        <ele>174</ele>
        <time>2021-08-08T14:22:14Z</time>
      </trkpt>
      <trkpt lat="49.01028" lon="0.10433">
        <ele>174</ele>
        <time>2021-08-08T14:22:15Z</time>
      </trkpt>
      <trkpt lat="49.01036" lon="0.10431">
        <ele>173.9</ele>
        <time>2021-08-08T14:22:16Z</time>
      </trkpt>
      <trkpt lat="49.01043" lon="0.10429">
        <ele>173.76</ele>
        <time>2021-08-08T14:22:17Z</time>
      </trkpt>
      <trkpt lat="49.0105" lon="0.10428">
        <ele>173.59</ele>
        <time>2021-08-08T14:22:18Z</time>
      </trkpt>
      <trkpt lat="49.01057" lon="0.10427">
        <ele>173.44</ele>
        <time>2021-08-08T14:22:19Z</time>
      </trkpt>
      <trkpt lat="49.01063" lon="0.10427">
        <ele>173.39</ele>
        <time>2021-08-08T14:22:20Z</time>
      </trkpt>
      <trkpt lat="49.0107" lon="0.10427">
        <ele>173.39</ele>
        <time>2021-08-08T14:22:21Z</time>
      </trkpt>
      <trkpt lat="49.01076" lon="0.10428">
        <ele>173.41</ele>
        <time>2021-08-08T14:22:22Z</time>
      </trkpt>
      <trkpt lat="49.01083" lon="0.10429">
        <ele>173.44</ele>
        <time>2021-08-08T14:22:23Z</time>
      </trkpt>
      <trkpt lat="49.01088" lon="0.1043">
        <ele>173.33</ele>
        <time>2021-08-08T14:22:24Z</time>
      </trkpt>
      <trkpt lat="49.01093" lon="0.10429">
        <ele>173.16</ele>
        <time>2021-08-08T14:22:25Z</time>
      </trkpt>
      <trkpt lat="49.01098" lon="0.10427">
        <ele>172.95</ele>
        <time>2021-08-08T14:22:26Z</time>
      </trkpt>
      <trkpt lat="49.01099" lon="0.10421">
        <ele>172.72</ele>
        <time>2021-08-08T14:22:27Z</time>
      </trkpt>
      <trkpt lat="49.01098" lon="0.10417">
        <ele>172.54</ele>
        <time>2021-08-08T14:22:28Z</time>
      </trkpt>
      <trkpt lat="49.01098" lon="0.10414">
        <ele>172.46</ele>
        <time>2021-08-08T14:22:29Z</time>
      </trkpt>
      <trkpt lat="49.01098" lon="0.10414">
        <ele>172.44</ele>
        <time>2021-08-08T14:22:30Z</time>
      </trkpt>
      <trkpt lat="49.01098" lon="0.10414">
        <ele>172.42</ele>
        <time>2021-08-08T14:22:31Z</time>
      </trkpt>
      <trkpt lat="49.01098" lon="0.10413">
        <ele>172.41</ele>
        <time>2021-08-08T14:22:32Z</time>
      </trkpt>
      <trkpt lat="49.01098" lon="0.10413">
        <ele>172.41</ele>
        <time>2021-08-08T14:22:33Z</time>
      </trkpt>
      <trkpt lat="49.01098" lon="0.10413">
        <ele>172.41</ele>
        <time>2021-08-08T14:22:34Z</time>
      </trkpt>
      <trkpt lat="49.01098" lon="0.10413">
        <ele>172.4</ele>
        <time>2021-08-08T14:22:35Z</time>
      </trkpt>
      <trkpt lat="49.01098" lon="0.10413">
        <ele>172.4</ele>
        <time>2021-08-08T14:22:36Z</time>
      </trkpt>
      <trkpt lat="49.01098" lon="0.10413">
        <ele>172.4</ele>
        <time>2021-08-08T14:22:37Z</time>
      </trkpt>
      <trkpt lat="49.01098" lon="0.10413">
        <ele>172.4</ele>
        <time>2021-08-08T14:22:38Z</time>
      </trkpt>
      <trkpt lat="49.01098" lon="0.10413">
        <ele>172.4</ele>
        <time>2021-08-08T14:22:39Z</time>
      </trkpt>
      <trkpt lat="49.01098" lon="0.10413">
        <ele>172.4</ele>
        <time>2021-08-08T14:22:40Z</time>
      </trkpt>
      <trkpt lat="49.01098" lon="0.10413">
        <ele>172.4</ele>
        <time>2021-08-08T14:22:41Z</time>
      </trkpt>
      <trkpt lat="49.01098" lon="0.10413">
        <ele>172.4</ele>
        <time>2021-08-08T14:22:42Z</time>
      </trkpt>
      <trkpt lat="49.01098" lon="0.10413">
        <ele>172.4</ele>
        <time>2021-08-08T14:22:43Z</time>
      </trkpt>
      <trkpt lat="49.01098" lon="0.10413">
        <ele>172.4</ele>
        <time>2021-08-08T14:22:44Z</time>
      </trkpt>
      <trkpt lat="49.01098" lon="0.10413">
        <ele>172.4</ele>
        <time>2021-08-08T14:22:45Z</time>
      </trkpt>
      <trkpt lat="49.01096" lon="0.10403">
        <ele>172.31</ele>
        <time>2021-08-08T14:22:46Z</time>
      </trkpt>
      <trkpt lat="49.01095" lon="0.10398">
        <ele>172.23</ele>
        <time>2021-08-08T14:22:47Z</time>
      </trkpt>
      <trkpt lat="49.01094" lon="0.10393">
        <ele>172.13</ele>
        <time>2021-08-08T14:22:48Z</time>
      </trkpt>
      <trkpt lat="49.01094" lon="0.10387">
        <ele>172.02</ele>
        <time>2021-08-08T14:22:49Z</time>
      </trkpt>
      <trkpt lat="49.01093" lon="0.10381">
        <ele>171.93</ele>
        <time>2021-08-08T14:22:50Z</time>
      </trkpt>
      <trkpt lat="49.01092" lon="0.10374">
        <ele>171.86</ele>
        <time>2021-08-08T14:22:51Z</time>
      </trkpt>
      <trkpt lat="49.01091" lon="0.10365">
        <ele>171.8</ele>
        <time>2021-08-08T14:22:52Z</time>
      </trkpt>
      <trkpt lat="49.01089" lon="0.10357">
        <ele>171.69</ele>
        <time>2021-08-08T14:22:53Z</time>
      </trkpt>
      <trkpt lat="49.01088" lon="0.10349">
        <ele>171.48</ele>
        <time>2021-08-08T14:22:54Z</time>
      </trkpt>
      <trkpt lat="49.01087" lon="0.1034">
        <ele>171.2</ele>
        <time>2021-08-08T14:22:55Z</time>
      </trkpt>
      <trkpt lat="49.01086" lon="0.10331">
        <ele>170.93</ele>
        <time>2021-08-08T14:22:56Z</time>
      </trkpt>
      <trkpt lat="49.01085" lon="0.10321">
        <ele>170.62</ele>
        <time>2021-08-08T14:22:57Z</time>
      </trkpt>
      <trkpt lat="49.01085" lon="0.10312">
        <ele>170.32</ele>
        <time>2021-08-08T14:22:58Z</time>
      </trkpt>
      <trkpt lat="49.01083" lon="0.10303">
        <ele>170.09</ele>
        <time>2021-08-08T14:22:59Z</time>
      </trkpt>
      <trkpt lat="49.01083" lon="0.10294">
        <ele>170.04</ele>
        <time>2021-08-08T14:23:00Z</time>
      </trkpt>
      <trkpt lat="49.01081" lon="0.10286">
        <ele>170.03</ele>
        <time>2021-08-08T14:23:01Z</time>
      </trkpt>
      <trkpt lat="49.0108" lon="0.10277">
        <ele>169.99</ele>
        <time>2021-08-08T14:23:02Z</time>
      </trkpt>
      <trkpt lat="49.01079" lon="0.10267">
        <ele>169.78</ele>
        <time>2021-08-08T14:23:03Z</time>
      </trkpt>
      <trkpt lat="49.01078" lon="0.10258">
        <ele>169.54</ele>
        <time>2021-08-08T14:23:04Z</time>
      </trkpt>
      <trkpt lat="49.01076" lon="0.10248">
        <ele>169.29</ele>
        <time>2021-08-08T14:23:05Z</time>
      </trkpt>
      <trkpt lat="49.01075" lon="0.10239">
        <ele>169</ele>
        <time>2021-08-08T14:23:06Z</time>
      </trkpt>
      <trkpt lat="49.01075" lon="0.10229">
        <ele>168.68</ele>
        <time>2021-08-08T14:23:07Z</time>
      </trkpt>
      <trkpt lat="49.01074" lon="0.10219">
        <ele>168.41</ele>
        <time>2021-08-08T14:23:08Z</time>
      </trkpt>
      <trkpt lat="49.01073" lon="0.10208">
        <ele>168.25</ele>
        <time>2021-08-08T14:23:09Z</time>
      </trkpt>
      <trkpt lat="49.01074" lon="0.102">
        <ele>168.12</ele>
        <time>2021-08-08T14:23:10Z</time>
      </trkpt>
      <trkpt lat="49.01074" lon="0.10191">
        <ele>167.97</ele>
        <time>2021-08-08T14:23:11Z</time>
      </trkpt>
      <trkpt lat="49.01074" lon="0.10181">
        <ele>167.77</ele>
        <time>2021-08-08T14:23:12Z</time>
      </trkpt>
      <trkpt lat="49.01074" lon="0.10172">
        <ele>167.55</ele>
        <time>2021-08-08T14:23:13Z</time>
      </trkpt>
      <trkpt lat="49.01074" lon="0.10162">
        <ele>167.35</ele>
        <time>2021-08-08T14:23:14Z</time>
      </trkpt>
      <trkpt lat="49.01075" lon="0.10151">
        <ele>167.2</ele>
        <time>2021-08-08T14:23:15Z</time>
      </trkpt>
      <trkpt lat="49.01076" lon="0.1014">
        <ele>167.07</ele>
        <time>2021-08-08T14:23:16Z</time>
      </trkpt>
      <trkpt lat="49.01077" lon="0.10129">
        <ele>167.02</ele>
        <time>2021-08-08T14:23:17Z</time>
      </trkpt>
      <trkpt lat="49.01078" lon="0.10117">
        <ele>167.01</ele>
        <time>2021-08-08T14:23:18Z</time>
      </trkpt>
      <trkpt lat="49.01079" lon="0.10105">
        <ele>166.86</ele>
        <time>2021-08-08T14:23:19Z</time>
      </trkpt>
      <trkpt lat="49.0108" lon="0.10094">
        <ele>166.52</ele>
        <time>2021-08-08T14:23:20Z</time>
      </trkpt>
      <trkpt lat="49.01082" lon="0.10083">
        <ele>166.16</ele>
        <time>2021-08-08T14:23:21Z</time>
      </trkpt>
      <trkpt lat="49.01083" lon="0.10072">
        <ele>166.05</ele>
        <time>2021-08-08T14:23:22Z</time>
      </trkpt>
      <trkpt lat="49.01084" lon="0.10059">
        <ele>166</ele>
        <time>2021-08-08T14:23:23Z</time>
      </trkpt>
      <trkpt lat="49.01085" lon="0.10048">
        <ele>165.96</ele>
        <time>2021-08-08T14:23:24Z</time>
      </trkpt>
      <trkpt lat="49.01086" lon="0.10037">
        <ele>165.92</ele>
        <time>2021-08-08T14:23:25Z</time>
      </trkpt>
      <trkpt lat="49.01086" lon="0.10026">
        <ele>165.87</ele>
        <time>2021-08-08T14:23:26Z</time>
      </trkpt>
      <trkpt lat="49.01085" lon="0.10016">
        <ele>165.64</ele>
        <time>2021-08-08T14:23:27Z</time>
      </trkpt>
      <trkpt lat="49.01084" lon="0.10005">
        <ele>165.31</ele>
        <time>2021-08-08T14:23:28Z</time>
      </trkpt>
      <trkpt lat="49.01084" lon="0.09994">
        <ele>165.09</ele>
        <time>2021-08-08T14:23:29Z</time>
      </trkpt>
      <trkpt lat="49.01084" lon="0.09984">
        <ele>165.02</ele>
        <time>2021-08-08T14:23:30Z</time>
      </trkpt>
      <trkpt lat="49.01083" lon="0.09973">
        <ele>165</ele>
        <time>2021-08-08T14:23:31Z</time>
      </trkpt>
      <trkpt lat="49.01084" lon="0.09963">
        <ele>164.98</ele>
        <time>2021-08-08T14:23:32Z</time>
      </trkpt>
      <trkpt lat="49.01084" lon="0.09953">
        <ele>164.98</ele>
        <time>2021-08-08T14:23:33Z</time>
      </trkpt>
      <trkpt lat="49.01084" lon="0.09944">
        <ele>164.97</ele>
        <time>2021-08-08T14:23:34Z</time>
      </trkpt>
      <trkpt lat="49.01084" lon="0.09934">
        <ele>164.71</ele>
        <time>2021-08-08T14:23:35Z</time>
      </trkpt>
      <trkpt lat="49.01086" lon="0.09923">
        <ele>164.36</ele>
        <time>2021-08-08T14:23:36Z</time>
      </trkpt>
      <trkpt lat="49.01088" lon="0.09913">
        <ele>164.11</ele>
        <time>2021-08-08T14:23:37Z</time>
      </trkpt>
      <trkpt lat="49.01089" lon="0.09902">
        <ele>164.03</ele>
        <time>2021-08-08T14:23:38Z</time>
      </trkpt>
      <trkpt lat="49.01092" lon="0.09892">
        <ele>164.01</ele>
        <time>2021-08-08T14:23:39Z</time>
      </trkpt>
      <trkpt lat="49.01094" lon="0.09881">
        <ele>164</ele>
        <time>2021-08-08T14:23:40Z</time>
      </trkpt>
      <trkpt lat="49.01096" lon="0.0987">
        <ele>164</ele>
        <time>2021-08-08T14:23:41Z</time>
      </trkpt>
      <trkpt lat="49.01098" lon="0.0986">
        <ele>163.98</ele>
        <time>2021-08-08T14:23:42Z</time>
      </trkpt>
      <trkpt lat="49.01101" lon="0.0985">
        <ele>163.82</ele>
        <time>2021-08-08T14:23:43Z</time>
      </trkpt>
      <trkpt lat="49.01102" lon="0.0984">
        <ele>163.57</ele>
        <time>2021-08-08T14:23:44Z</time>
      </trkpt>
      <trkpt lat="49.01105" lon="0.0983">
        <ele>163.33</ele>
        <time>2021-08-08T14:23:45Z</time>
      </trkpt>
      <trkpt lat="49.01107" lon="0.0982">
        <ele>163.21</ele>
        <time>2021-08-08T14:23:46Z</time>
      </trkpt>
      <trkpt lat="49.01108" lon="0.09811">
        <ele>163.13</ele>
        <time>2021-08-08T14:23:47Z</time>
      </trkpt>
      <trkpt lat="49.0111" lon="0.09801">
        <ele>163.06</ele>
        <time>2021-08-08T14:23:48Z</time>
      </trkpt>
      <trkpt lat="49.01112" lon="0.09791">
        <ele>162.98</ele>
        <time>2021-08-08T14:23:49Z</time>
      </trkpt>
      <trkpt lat="49.01115" lon="0.09781">
        <ele>162.89</ele>
        <time>2021-08-08T14:23:50Z</time>
      </trkpt>
      <trkpt lat="49.01117" lon="0.09771">
        <ele>162.65</ele>
        <time>2021-08-08T14:23:51Z</time>
      </trkpt>
      <trkpt lat="49.01119" lon="0.09761">
        <ele>162.27</ele>
        <time>2021-08-08T14:23:52Z</time>
      </trkpt>
      <trkpt lat="49.0112" lon="0.0975">
        <ele>161.87</ele>
        <time>2021-08-08T14:23:53Z</time>
      </trkpt>
      <trkpt lat="49.01121" lon="0.0974">
        <ele>161.46</ele>
        <time>2021-08-08T14:23:54Z</time>
      </trkpt>
      <trkpt lat="49.01124" lon="0.09729">
        <ele>160.99</ele>
        <time>2021-08-08T14:23:55Z</time>
      </trkpt>
      <trkpt lat="49.01126" lon="0.0972">
        <ele>160.62</ele>
        <time>2021-08-08T14:23:56Z</time>
      </trkpt>
      <trkpt lat="49.01128" lon="0.09712">
        <ele>160.46</ele>
        <time>2021-08-08T14:23:57Z</time>
      </trkpt>
      <trkpt lat="49.01131" lon="0.09707">
        <ele>160.34</ele>
        <time>2021-08-08T14:23:58Z</time>
      </trkpt>
      <trkpt lat="49.01135" lon="0.09703">
        <ele>160.21</ele>
        <time>2021-08-08T14:23:59Z</time>
      </trkpt>
      <trkpt lat="49.01139" lon="0.09702">
        <ele>160.04</ele>
        <time>2021-08-08T14:24:00Z</time>
      </trkpt>
      <trkpt lat="49.01146" lon="0.09703">
        <ele>159.72</ele>
        <time>2021-08-08T14:24:01Z</time>
      </trkpt>
      <trkpt lat="49.01152" lon="0.09702">
        <ele>159.34</ele>
        <time>2021-08-08T14:24:02Z</time>
      </trkpt>
      <trkpt lat="49.01158" lon="0.09703">
        <ele>158.98</ele>
        <time>2021-08-08T14:24:03Z</time>
      </trkpt>
      <trkpt lat="49.01164" lon="0.09704">
        <ele>158.62</ele>
        <time>2021-08-08T14:24:04Z</time>
      </trkpt>
      <trkpt lat="49.0117" lon="0.09704">
        <ele>158.36</ele>
        <time>2021-08-08T14:24:05Z</time>
      </trkpt>
      <trkpt lat="49.01175" lon="0.09704">
        <ele>158.13</ele>
        <time>2021-08-08T14:24:06Z</time>
      </trkpt>
      <trkpt lat="49.0118" lon="0.09701">
        <ele>157.87</ele>
        <time>2021-08-08T14:24:07Z</time>
      </trkpt>
      <trkpt lat="49.01184" lon="0.09697">
        <ele>157.6</ele>
        <time>2021-08-08T14:24:08Z</time>
      </trkpt>
      <trkpt lat="49.01188" lon="0.09693">
        <ele>157.32</ele>
        <time>2021-08-08T14:24:09Z</time>
      </trkpt>
      <trkpt lat="49.01191" lon="0.09688">
        <ele>157.03</ele>
        <time>2021-08-08T14:24:10Z</time>
      </trkpt>
      <trkpt lat="49.01195" lon="0.09682">
        <ele>156.67</ele>
        <time>2021-08-08T14:24:11Z</time>
      </trkpt>
      <trkpt lat="49.01198" lon="0.09675">
        <ele>156.23</ele>
        <time>2021-08-08T14:24:12Z</time>
      </trkpt>
      <trkpt lat="49.01201" lon="0.09666">
        <ele>155.73</ele>
        <time>2021-08-08T14:24:13Z</time>
      </trkpt>
      <trkpt lat="49.01205" lon="0.09658">
        <ele>155.25</ele>
        <time>2021-08-08T14:24:14Z</time>
      </trkpt>
      <trkpt lat="49.01207" lon="0.09649">
        <ele>154.89</ele>
        <time>2021-08-08T14:24:15Z</time>
      </trkpt>
      <trkpt lat="49.01211" lon="0.0964">
        <ele>154.57</ele>
        <time>2021-08-08T14:24:16Z</time>
      </trkpt>
      <trkpt lat="49.01213" lon="0.0963">
        <ele>154.18</ele>
        <time>2021-08-08T14:24:17Z</time>
      </trkpt>
      <trkpt lat="49.01214" lon="0.09619">
        <ele>153.75</ele>
        <time>2021-08-08T14:24:18Z</time>
      </trkpt>
      <trkpt lat="49.01215" lon="0.09609">
        <ele>153.35</ele>
        <time>2021-08-08T14:24:19Z</time>
      </trkpt>
      <trkpt lat="49.01216" lon="0.09599">
        <ele>152.96</ele>
        <time>2021-08-08T14:24:20Z</time>
      </trkpt>
      <trkpt lat="49.01216" lon="0.09589">
        <ele>152.6</ele>
        <time>2021-08-08T14:24:21Z</time>
      </trkpt>
      <trkpt lat="49.01217" lon="0.09579">
        <ele>152.22</ele>
        <time>2021-08-08T14:24:22Z</time>
      </trkpt>
      <trkpt lat="49.0122" lon="0.09567">
        <ele>151.75</ele>
        <time>2021-08-08T14:24:23Z</time>
      </trkpt>
      <trkpt lat="49.01224" lon="0.09556">
        <ele>151.1</ele>
        <time>2021-08-08T14:24:24Z</time>
      </trkpt>
      <trkpt lat="49.01228" lon="0.09547">
        <ele>150.37</ele>
        <time>2021-08-08T14:24:25Z</time>
      </trkpt>
      <trkpt lat="49.01232" lon="0.0954">
        <ele>149.69</ele>
        <time>2021-08-08T14:24:26Z</time>
      </trkpt>
      <trkpt lat="49.01235" lon="0.09533">
        <ele>149.05</ele>
        <time>2021-08-08T14:24:27Z</time>
      </trkpt>
      <trkpt lat="49.01236" lon="0.09527">
        <ele>148.63</ele>
        <time>2021-08-08T14:24:28Z</time>
      </trkpt>
      <trkpt lat="49.01239" lon="0.09519">
        <ele>148.11</ele>
        <time>2021-08-08T14:24:29Z</time>
      </trkpt>
      <trkpt lat="49.01242" lon="0.09511">
        <ele>147.49</ele>
        <time>2021-08-08T14:24:30Z</time>
      </trkpt>
      <trkpt lat="49.01246" lon="0.09502">
        <ele>146.75</ele>
        <time>2021-08-08T14:24:31Z</time>
      </trkpt>
      <trkpt lat="49.01251" lon="0.09492">
        <ele>145.99</ele>
        <time>2021-08-08T14:24:32Z</time>
      </trkpt>
      <trkpt lat="49.01255" lon="0.09481">
        <ele>145.26</ele>
        <time>2021-08-08T14:24:33Z</time>
      </trkpt>
      <trkpt lat="49.0126" lon="0.09469">
        <ele>144.49</ele>
        <time>2021-08-08T14:24:34Z</time>
      </trkpt>
      <trkpt lat="49.01268" lon="0.09458">
        <ele>143.59</ele>
        <time>2021-08-08T14:24:35Z</time>
      </trkpt>
      <trkpt lat="49.01273" lon="0.09447">
        <ele>142.76</ele>
        <time>2021-08-08T14:24:36Z</time>
      </trkpt>
      <trkpt lat="49.01281" lon="0.09436">
        <ele>141.81</ele>
        <time>2021-08-08T14:24:37Z</time>
      </trkpt>
      <trkpt lat="49.01286" lon="0.09426">
        <ele>140.83</ele>
        <time>2021-08-08T14:24:38Z</time>
      </trkpt>
      <trkpt lat="49.01292" lon="0.09417">
        <ele>139.88</ele>
        <time>2021-08-08T14:24:39Z</time>
      </trkpt>
      <trkpt lat="49.01296" lon="0.09409">
        <ele>139.07</ele>
        <time>2021-08-08T14:24:40Z</time>
      </trkpt>
      <trkpt lat="49.01301" lon="0.09402">
        <ele>138.28</ele>
        <time>2021-08-08T14:24:41Z</time>
      </trkpt>
      <trkpt lat="49.01305" lon="0.09396">
        <ele>137.58</ele>
        <time>2021-08-08T14:24:42Z</time>
      </trkpt>
      <trkpt lat="49.01309" lon="0.0939">
        <ele>136.9</ele>
        <time>2021-08-08T14:24:43Z</time>
      </trkpt>
      <trkpt lat="49.01312" lon="0.09385">
        <ele>136.38</ele>
        <time>2021-08-08T14:24:44Z</time>
      </trkpt>
      <trkpt lat="49.01316" lon="0.09381">
        <ele>135.86</ele>
        <time>2021-08-08T14:24:45Z</time>
      </trkpt>
      <trkpt lat="49.01319" lon="0.09379">
        <ele>135.41</ele>
        <time>2021-08-08T14:24:46Z</time>
      </trkpt>
      <trkpt lat="49.01322" lon="0.09376">
        <ele>134.93</ele>
        <time>2021-08-08T14:24:47Z</time>
      </trkpt>
      <trkpt lat="49.01326" lon="0.09372">
        <ele>134.39</ele>
        <time>2021-08-08T14:24:48Z</time>
      </trkpt>
      <trkpt lat="49.0133" lon="0.09367">
        <ele>133.84</ele>
        <time>2021-08-08T14:24:49Z</time>
      </trkpt>
      <trkpt lat="49.01333" lon="0.09363">
        <ele>133.31</ele>
        <time>2021-08-08T14:24:50Z</time>
      </trkpt>
      <trkpt lat="49.01335" lon="0.09356">
        <ele>132.83</ele>
        <time>2021-08-08T14:24:51Z</time>
      </trkpt>
      <trkpt lat="49.01336" lon="0.09348">
        <ele>132.39</ele>
        <time>2021-08-08T14:24:52Z</time>
      </trkpt>
      <trkpt lat="49.01338" lon="0.0934">
        <ele>131.94</ele>
        <time>2021-08-08T14:24:53Z</time>
      </trkpt>
      <trkpt lat="49.01339" lon="0.09332">
        <ele>131.52</ele>
        <time>2021-08-08T14:24:54Z</time>
      </trkpt>
      <trkpt lat="49.01341" lon="0.09325">
        <ele>131.1</ele>
        <time>2021-08-08T14:24:55Z</time>
      </trkpt>
      <trkpt lat="49.01344" lon="0.09317">
        <ele>130.68</ele>
        <time>2021-08-08T14:24:56Z</time>
      </trkpt>
      <trkpt lat="49.01347" lon="0.09309">
        <ele>130.28</ele>
        <time>2021-08-08T14:24:57Z</time>
      </trkpt>
      <trkpt lat="49.01349" lon="0.09302">
        <ele>129.88</ele>
        <time>2021-08-08T14:24:58Z</time>
      </trkpt>
      <trkpt lat="49.01354" lon="0.09296">
        <ele>129.4</ele>
        <time>2021-08-08T14:24:59Z</time>
      </trkpt>
      <trkpt lat="49.01358" lon="0.09275">
        <ele>128.23</ele>
        <time>2021-08-08T14:26:18Z</time>
      </trkpt>
      <trkpt lat="49.01357" lon="0.09269">
        <ele>128.27</ele>
        <time>2021-08-08T14:26:19Z</time>
      </trkpt>
      <trkpt lat="49.01357" lon="0.09264">
        <ele>128.27</ele>
        <time>2021-08-08T14:26:20Z</time>
      </trkpt>
      <trkpt lat="49.01358" lon="0.09259">
        <ele>128.24</ele>
        <time>2021-08-08T14:26:21Z</time>
      </trkpt>
      <trkpt lat="49.01358" lon="0.09252">
        <ele>128.2</ele>
        <time>2021-08-08T14:26:22Z</time>
      </trkpt>
      <trkpt lat="49.01359" lon="0.09246">
        <ele>128.06</ele>
        <time>2021-08-08T14:26:23Z</time>
      </trkpt>
      <trkpt lat="49.01359" lon="0.09239">
        <ele>127.83</ele>
        <time>2021-08-08T14:26:24Z</time>
      </trkpt>
      <trkpt lat="49.01359" lon="0.09232">
        <ele>127.56</ele>
        <time>2021-08-08T14:26:25Z</time>
      </trkpt>
      <trkpt lat="49.0136" lon="0.09224">
        <ele>127.25</ele>
        <time>2021-08-08T14:26:26Z</time>
      </trkpt>
      <trkpt lat="49.0136" lon="0.09216">
        <ele>126.94</ele>
        <time>2021-08-08T14:26:27Z</time>
      </trkpt>
      <trkpt lat="49.0136" lon="0.09207">
        <ele>126.63</ele>
        <time>2021-08-08T14:26:28Z</time>
      </trkpt>
      <trkpt lat="49.0136" lon="0.09198">
        <ele>126.32</ele>
        <time>2021-08-08T14:26:29Z</time>
      </trkpt>
      <trkpt lat="49.01359" lon="0.09189">
        <ele>126.02</ele>
        <time>2021-08-08T14:26:30Z</time>
      </trkpt>
      <trkpt lat="49.01358" lon="0.0918">
        <ele>125.73</ele>
        <time>2021-08-08T14:26:31Z</time>
      </trkpt>
      <trkpt lat="49.01356" lon="0.0917">
        <ele>125.43</ele>
        <time>2021-08-08T14:26:32Z</time>
      </trkpt>
      <trkpt lat="49.01354" lon="0.0916">
        <ele>124.99</ele>
        <time>2021-08-08T14:26:33Z</time>
      </trkpt>
      <trkpt lat="49.01351" lon="0.09151">
        <ele>124.44</ele>
        <time>2021-08-08T14:26:34Z</time>
      </trkpt>
      <trkpt lat="49.01348" lon="0.09141">
        <ele>123.87</ele>
        <time>2021-08-08T14:26:35Z</time>
      </trkpt>
      <trkpt lat="49.01345" lon="0.09132">
        <ele>123.48</ele>
        <time>2021-08-08T14:26:36Z</time>
      </trkpt>
      <trkpt lat="49.01342" lon="0.09122">
        <ele>123.21</ele>
        <time>2021-08-08T14:26:37Z</time>
      </trkpt>
      <trkpt lat="49.01338" lon="0.09113">
        <ele>122.98</ele>
        <time>2021-08-08T14:26:38Z</time>
      </trkpt>
      <trkpt lat="49.01335" lon="0.09103">
        <ele>122.77</ele>
        <time>2021-08-08T14:26:39Z</time>
      </trkpt>
      <trkpt lat="49.01331" lon="0.09094">
        <ele>122.51</ele>
        <time>2021-08-08T14:26:40Z</time>
      </trkpt>
      <trkpt lat="49.01328" lon="0.09084">
        <ele>122.17</ele>
        <time>2021-08-08T14:26:41Z</time>
      </trkpt>
      <trkpt lat="49.01324" lon="0.09074">
        <ele>121.75</ele>
        <time>2021-08-08T14:26:42Z</time>
      </trkpt>
      <trkpt lat="49.0132" lon="0.09064">
        <ele>121.21</ele>
        <time>2021-08-08T14:26:43Z</time>
      </trkpt>
      <trkpt lat="49.01316" lon="0.09055">
        <ele>120.58</ele>
        <time>2021-08-08T14:26:44Z</time>
      </trkpt>
      <trkpt lat="49.01312" lon="0.09045">
        <ele>119.8</ele>
        <time>2021-08-08T14:26:45Z</time>
      </trkpt>
      <trkpt lat="49.01308" lon="0.09035">
        <ele>118.97</ele>
        <time>2021-08-08T14:26:46Z</time>
      </trkpt>
      <trkpt lat="49.01305" lon="0.09025">
        <ele>118.21</ele>
        <time>2021-08-08T14:26:47Z</time>
      </trkpt>
      <trkpt lat="49.01302" lon="0.09013">
        <ele>117.69</ele>
        <time>2021-08-08T14:26:48Z</time>
      </trkpt>
      <trkpt lat="49.013" lon="0.09002">
        <ele>117.26</ele>
        <time>2021-08-08T14:26:49Z</time>
      </trkpt>
      <trkpt lat="49.01298" lon="0.08992">
        <ele>116.87</ele>
        <time>2021-08-08T14:26:50Z</time>
      </trkpt>
      <trkpt lat="49.01298" lon="0.08982">
        <ele>116.5</ele>
        <time>2021-08-08T14:26:51Z</time>
      </trkpt>
      <trkpt lat="49.01299" lon="0.08973">
        <ele>116.16</ele>
        <time>2021-08-08T14:26:52Z</time>
      </trkpt>
      <trkpt lat="49.01302" lon="0.08966">
        <ele>115.88</ele>
        <time>2021-08-08T14:26:53Z</time>
      </trkpt>
      <trkpt lat="49.01306" lon="0.08961">
        <ele>115.68</ele>
        <time>2021-08-08T14:26:54Z</time>
      </trkpt>
      <trkpt lat="49.0131" lon="0.08957">
        <ele>115.52</ele>
        <time>2021-08-08T14:26:55Z</time>
      </trkpt>
      <trkpt lat="49.01313" lon="0.08954">
        <ele>115.41</ele>
        <time>2021-08-08T14:26:56Z</time>
      </trkpt>
      <trkpt lat="49.01318" lon="0.08953">
        <ele>115.35</ele>
        <time>2021-08-08T14:26:57Z</time>
      </trkpt>
      <trkpt lat="49.01322" lon="0.08954">
        <ele>115.35</ele>
        <time>2021-08-08T14:26:58Z</time>
      </trkpt>
      <trkpt lat="49.01326" lon="0.08956">
        <ele>115.39</ele>
        <time>2021-08-08T14:26:59Z</time>
      </trkpt>
      <trkpt lat="49.01329" lon="0.08959">
        <ele>115.49</ele>
        <time>2021-08-08T14:27:00Z</time>
      </trkpt>
      <trkpt lat="49.01332" lon="0.08962">
        <ele>115.59</ele>
        <time>2021-08-08T14:27:01Z</time>
      </trkpt>
      <trkpt lat="49.01335" lon="0.08965">
        <ele>115.68</ele>
        <time>2021-08-08T14:27:02Z</time>
      </trkpt>
      <trkpt lat="49.01337" lon="0.08968">
        <ele>115.78</ele>
        <time>2021-08-08T14:27:03Z</time>
      </trkpt>
      <trkpt lat="49.01339" lon="0.0897">
        <ele>115.88</ele>
        <time>2021-08-08T14:27:04Z</time>
      </trkpt>
      <trkpt lat="49.01341" lon="0.08973">
        <ele>116</ele>
        <time>2021-08-08T14:27:05Z</time>
      </trkpt>
      <trkpt lat="49.01342" lon="0.08975">
        <ele>116.11</ele>
        <time>2021-08-08T14:27:06Z</time>
      </trkpt>
      <trkpt lat="49.01344" lon="0.08976">
        <ele>116.17</ele>
        <time>2021-08-08T14:27:07Z</time>
      </trkpt>
      <trkpt lat="49.01346" lon="0.08978">
        <ele>116.26</ele>
        <time>2021-08-08T14:27:08Z</time>
      </trkpt>
      <trkpt lat="49.01347" lon="0.08979">
        <ele>116.34</ele>
        <time>2021-08-08T14:27:09Z</time>
      </trkpt>
      <trkpt lat="49.01349" lon="0.08979">
        <ele>116.35</ele>
        <time>2021-08-08T14:27:10Z</time>
      </trkpt>
      <trkpt lat="49.0135" lon="0.08979">
        <ele>116.36</ele>
        <time>2021-08-08T14:27:11Z</time>
      </trkpt>
      <trkpt lat="49.0135" lon="0.08976">
        <ele>116.26</ele>
        <time>2021-08-08T14:27:12Z</time>
      </trkpt>
      <trkpt lat="49.01349" lon="0.08975">
        <ele>116.16</ele>
        <time>2021-08-08T14:27:13Z</time>
      </trkpt>
      <trkpt lat="49.01347" lon="0.08972">
        <ele>116.05</ele>
        <time>2021-08-08T14:27:14Z</time>
      </trkpt>
      <trkpt lat="49.01346" lon="0.08968">
        <ele>115.85</ele>
        <time>2021-08-08T14:27:15Z</time>
      </trkpt>
      <trkpt lat="49.01344" lon="0.08964">
        <ele>115.66</ele>
        <time>2021-08-08T14:27:16Z</time>
      </trkpt>
      <trkpt lat="49.0134" lon="0.08962">
        <ele>115.59</ele>
        <time>2021-08-08T14:27:17Z</time>
      </trkpt>
      <trkpt lat="49.01336" lon="0.0896">
        <ele>115.54</ele>
        <time>2021-08-08T14:27:18Z</time>
      </trkpt>
      <trkpt lat="49.01332" lon="0.08957">
        <ele>115.48</ele>
        <time>2021-08-08T14:27:19Z</time>
      </trkpt>
      <trkpt lat="49.01329" lon="0.08953">
        <ele>115.36</ele>
        <time>2021-08-08T14:27:20Z</time>
      </trkpt>
      <trkpt lat="49.01326" lon="0.0895">
        <ele>115.25</ele>
        <time>2021-08-08T14:27:21Z</time>
      </trkpt>
      <trkpt lat="49.01323" lon="0.08947">
        <ele>115.13</ele>
        <time>2021-08-08T14:27:22Z</time>
      </trkpt>
      <trkpt lat="49.01321" lon="0.08943">
        <ele>114.97</ele>
        <time>2021-08-08T14:27:23Z</time>
      </trkpt>
      <trkpt lat="49.01318" lon="0.08938">
        <ele>114.67</ele>
        <time>2021-08-08T14:27:24Z</time>
      </trkpt>
      <trkpt lat="49.01316" lon="0.08933">
        <ele>114.33</ele>
        <time>2021-08-08T14:27:25Z</time>
      </trkpt>
      <trkpt lat="49.01316" lon="0.08928">
        <ele>113.99</ele>
        <time>2021-08-08T14:27:26Z</time>
      </trkpt>
      <trkpt lat="49.01315" lon="0.08925">
        <ele>113.72</ele>
        <time>2021-08-08T14:27:27Z</time>
      </trkpt>
      <trkpt lat="49.01316" lon="0.08921">
        <ele>113.45</ele>
        <time>2021-08-08T14:27:28Z</time>
      </trkpt>
      <trkpt lat="49.01318" lon="0.08918">
        <ele>113.22</ele>
        <time>2021-08-08T14:27:29Z</time>
      </trkpt>
      <trkpt lat="49.01322" lon="0.08914">
        <ele>113.01</ele>
        <time>2021-08-08T14:27:30Z</time>
      </trkpt>
      <trkpt lat="49.01326" lon="0.0891">
        <ele>112.85</ele>
        <time>2021-08-08T14:27:31Z</time>
      </trkpt>
      <trkpt lat="49.01331" lon="0.08906">
        <ele>112.68</ele>
        <time>2021-08-08T14:27:32Z</time>
      </trkpt>
      <trkpt lat="49.01338" lon="0.08901">
        <ele>112.46</ele>
        <time>2021-08-08T14:27:33Z</time>
      </trkpt>
      <trkpt lat="49.01344" lon="0.08895">
        <ele>112.1</ele>
        <time>2021-08-08T14:27:34Z</time>
      </trkpt>
      <trkpt lat="49.0135" lon="0.0889">
        <ele>111.64</ele>
        <time>2021-08-08T14:27:35Z</time>
      </trkpt>
      <trkpt lat="49.01356" lon="0.08883">
        <ele>111.02</ele>
        <time>2021-08-08T14:27:36Z</time>
      </trkpt>
      <trkpt lat="49.01361" lon="0.08875">
        <ele>110.29</ele>
        <time>2021-08-08T14:27:37Z</time>
      </trkpt>
      <trkpt lat="49.01367" lon="0.08866">
        <ele>109.64</ele>
        <time>2021-08-08T14:27:38Z</time>
      </trkpt>
      <trkpt lat="49.01371" lon="0.08857">
        <ele>109.1</ele>
        <time>2021-08-08T14:27:39Z</time>
      </trkpt>
      <trkpt lat="49.01375" lon="0.08848">
        <ele>108.7</ele>
        <time>2021-08-08T14:27:40Z</time>
      </trkpt>
      <trkpt lat="49.0138" lon="0.0884">
        <ele>108.37</ele>
        <time>2021-08-08T14:27:41Z</time>
      </trkpt>
      <trkpt lat="49.01384" lon="0.08832">
        <ele>108.11</ele>
        <time>2021-08-08T14:27:42Z</time>
      </trkpt>
      <trkpt lat="49.01388" lon="0.08826">
        <ele>108.03</ele>
        <time>2021-08-08T14:27:43Z</time>
      </trkpt>
      <trkpt lat="49.01392" lon="0.08821">
        <ele>108.15</ele>
        <time>2021-08-08T14:27:44Z</time>
      </trkpt>
      <trkpt lat="49.01396" lon="0.08816">
        <ele>108.4</ele>
        <time>2021-08-08T14:27:45Z</time>
      </trkpt>
      <trkpt lat="49.014" lon="0.08813">
        <ele>108.67</ele>
        <time>2021-08-08T14:27:46Z</time>
      </trkpt>
      <trkpt lat="49.01404" lon="0.08809">
        <ele>108.96</ele>
        <time>2021-08-08T14:27:47Z</time>
      </trkpt>
      <trkpt lat="49.01408" lon="0.08805">
        <ele>109.26</ele>
        <time>2021-08-08T14:27:48Z</time>
      </trkpt>
      <trkpt lat="49.01411" lon="0.08802">
        <ele>109.67</ele>
        <time>2021-08-08T14:27:49Z</time>
      </trkpt>
      <trkpt lat="49.01415" lon="0.08799">
        <ele>110.11</ele>
        <time>2021-08-08T14:27:50Z</time>
      </trkpt>
      <trkpt lat="49.01418" lon="0.08797">
        <ele>110.59</ele>
        <time>2021-08-08T14:27:51Z</time>
      </trkpt>
      <trkpt lat="49.01421" lon="0.08795">
        <ele>111.12</ele>
        <time>2021-08-08T14:27:52Z</time>
      </trkpt>
      <trkpt lat="49.01424" lon="0.08793">
        <ele>111.71</ele>
        <time>2021-08-08T14:27:53Z</time>
      </trkpt>
      <trkpt lat="49.01427" lon="0.08792">
        <ele>112.26</ele>
        <time>2021-08-08T14:27:54Z</time>
      </trkpt>
      <trkpt lat="49.0143" lon="0.0879">
        <ele>112.82</ele>
        <time>2021-08-08T14:27:55Z</time>
      </trkpt>
      <trkpt lat="49.01433" lon="0.08788">
        <ele>113.35</ele>
        <time>2021-08-08T14:27:56Z</time>
      </trkpt>
      <trkpt lat="49.01436" lon="0.08786">
        <ele>113.89</ele>
        <time>2021-08-08T14:27:57Z</time>
      </trkpt>
      <trkpt lat="49.01438" lon="0.08784">
        <ele>114.4</ele>
        <time>2021-08-08T14:27:58Z</time>
      </trkpt>
      <trkpt lat="49.01441" lon="0.08783">
        <ele>114.88</ele>
        <time>2021-08-08T14:27:59Z</time>
      </trkpt>
      <trkpt lat="49.01443" lon="0.08782">
        <ele>115.36</ele>
        <time>2021-08-08T14:28:00Z</time>
      </trkpt>
      <trkpt lat="49.01446" lon="0.0878">
        <ele>115.77</ele>
        <time>2021-08-08T14:28:01Z</time>
      </trkpt>
      <trkpt lat="49.01448" lon="0.08779">
        <ele>116.15</ele>
        <time>2021-08-08T14:28:02Z</time>
      </trkpt>
      <trkpt lat="49.01451" lon="0.08778">
        <ele>116.53</ele>
        <time>2021-08-08T14:28:03Z</time>
      </trkpt>
      <trkpt lat="49.01453" lon="0.08777">
        <ele>116.85</ele>
        <time>2021-08-08T14:28:04Z</time>
      </trkpt>
      <trkpt lat="49.01455" lon="0.08776">
        <ele>117.13</ele>
        <time>2021-08-08T14:28:05Z</time>
      </trkpt>
      <trkpt lat="49.01457" lon="0.08774">
        <ele>117.42</ele>
        <time>2021-08-08T14:28:06Z</time>
      </trkpt>
      <trkpt lat="49.0146" lon="0.08772">
        <ele>117.7</ele>
        <time>2021-08-08T14:28:07Z</time>
      </trkpt>
      <trkpt lat="49.01461" lon="0.08771">
        <ele>117.96</ele>
        <time>2021-08-08T14:28:08Z</time>
      </trkpt>
      <trkpt lat="49.01463" lon="0.08769">
        <ele>118.21</ele>
        <time>2021-08-08T14:28:09Z</time>
      </trkpt>
      <trkpt lat="49.01466" lon="0.08767">
        <ele>118.51</ele>
        <time>2021-08-08T14:28:10Z</time>
      </trkpt>
      <trkpt lat="49.01468" lon="0.08766">
        <ele>118.83</ele>
        <time>2021-08-08T14:28:11Z</time>
      </trkpt>
      <trkpt lat="49.0147" lon="0.08765">
        <ele>119.14</ele>
        <time>2021-08-08T14:28:12Z</time>
      </trkpt>
      <trkpt lat="49.01473" lon="0.08764">
        <ele>119.5</ele>
        <time>2021-08-08T14:28:13Z</time>
      </trkpt>
      <trkpt lat="49.01476" lon="0.08763">
        <ele>119.9</ele>
        <time>2021-08-08T14:28:14Z</time>
      </trkpt>
      <trkpt lat="49.01478" lon="0.08762">
        <ele>120.3</ele>
        <time>2021-08-08T14:28:15Z</time>
      </trkpt>
      <trkpt lat="49.01481" lon="0.0876">
        <ele>120.68</ele>
        <time>2021-08-08T14:28:16Z</time>
      </trkpt>
      <trkpt lat="49.01483" lon="0.08759">
        <ele>121.08</ele>
        <time>2021-08-08T14:28:17Z</time>
      </trkpt>
      <trkpt lat="49.01486" lon="0.08759">
        <ele>121.44</ele>
        <time>2021-08-08T14:28:18Z</time>
      </trkpt>
      <trkpt lat="49.01488" lon="0.08758">
        <ele>121.79</ele>
        <time>2021-08-08T14:28:19Z</time>
      </trkpt>
      <trkpt lat="49.0149" lon="0.08757">
        <ele>122.16</ele>
        <time>2021-08-08T14:28:20Z</time>
      </trkpt>
      <trkpt lat="49.01492" lon="0.08756">
        <ele>122.54</ele>
        <time>2021-08-08T14:28:21Z</time>
      </trkpt>
      <trkpt lat="49.01495" lon="0.08754">
        <ele>122.92</ele>
        <time>2021-08-08T14:28:22Z</time>
      </trkpt>
      <trkpt lat="49.01497" lon="0.08753">
        <ele>123.26</ele>
        <time>2021-08-08T14:28:23Z</time>
      </trkpt>
      <trkpt lat="49.01499" lon="0.08752">
        <ele>123.61</ele>
        <time>2021-08-08T14:28:24Z</time>
      </trkpt>
      <trkpt lat="49.01501" lon="0.08751">
        <ele>123.93</ele>
        <time>2021-08-08T14:28:25Z</time>
      </trkpt>
      <trkpt lat="49.01503" lon="0.08751">
        <ele>124.28</ele>
        <time>2021-08-08T14:28:26Z</time>
      </trkpt>
      <trkpt lat="49.01505" lon="0.08749">
        <ele>124.64</ele>
        <time>2021-08-08T14:28:27Z</time>
      </trkpt>
      <trkpt lat="49.01508" lon="0.08748">
        <ele>125</ele>
        <time>2021-08-08T14:28:28Z</time>
      </trkpt>
      <trkpt lat="49.0151" lon="0.08747">
        <ele>125.34</ele>
        <time>2021-08-08T14:28:29Z</time>
      </trkpt>
      <trkpt lat="49.01512" lon="0.08746">
        <ele>125.72</ele>
        <time>2021-08-08T14:28:30Z</time>
      </trkpt>
      <trkpt lat="49.01515" lon="0.08745">
        <ele>126.09</ele>
        <time>2021-08-08T14:28:31Z</time>
      </trkpt>
      <trkpt lat="49.01517" lon="0.08743">
        <ele>126.43</ele>
        <time>2021-08-08T14:28:32Z</time>
      </trkpt>
      <trkpt lat="49.0152" lon="0.08743">
        <ele>126.81</ele>
        <time>2021-08-08T14:28:33Z</time>
      </trkpt>
      <trkpt lat="49.01522" lon="0.08741">
        <ele>127.12</ele>
        <time>2021-08-08T14:28:34Z</time>
      </trkpt>
      <trkpt lat="49.01524" lon="0.0874">
        <ele>127.42</ele>
        <time>2021-08-08T14:28:35Z</time>
      </trkpt>
      <trkpt lat="49.01527" lon="0.08738">
        <ele>127.73</ele>
        <time>2021-08-08T14:28:36Z</time>
      </trkpt>
      <trkpt lat="49.01529" lon="0.08736">
        <ele>128.06</ele>
        <time>2021-08-08T14:28:37Z</time>
      </trkpt>
      <trkpt lat="49.0153" lon="0.08733">
        <ele>128.31</ele>
        <time>2021-08-08T14:28:38Z</time>
      </trkpt>
      <trkpt lat="49.01531" lon="0.0873">
        <ele>128.5</ele>
        <time>2021-08-08T14:28:39Z</time>
      </trkpt>
      <trkpt lat="49.01532" lon="0.08727">
        <ele>128.6</ele>
        <time>2021-08-08T14:28:40Z</time>
      </trkpt>
      <trkpt lat="49.01532" lon="0.08723">
        <ele>128.67</ele>
        <time>2021-08-08T14:28:41Z</time>
      </trkpt>
      <trkpt lat="49.01532" lon="0.08719">
        <ele>128.81</ele>
        <time>2021-08-08T14:28:42Z</time>
      </trkpt>
      <trkpt lat="49.01531" lon="0.08714">
        <ele>128.89</ele>
        <time>2021-08-08T14:28:43Z</time>
      </trkpt>
      <trkpt lat="49.01531" lon="0.0871">
        <ele>128.94</ele>
        <time>2021-08-08T14:28:44Z</time>
      </trkpt>
      <trkpt lat="49.0153" lon="0.08706">
        <ele>128.98</ele>
        <time>2021-08-08T14:28:45Z</time>
      </trkpt>
      <trkpt lat="49.01529" lon="0.08701">
        <ele>129.04</ele>
        <time>2021-08-08T14:28:46Z</time>
      </trkpt>
      <trkpt lat="49.01529" lon="0.08697">
        <ele>129.12</ele>
        <time>2021-08-08T14:28:47Z</time>
      </trkpt>
      <trkpt lat="49.01529" lon="0.08693">
        <ele>129.19</ele>
        <time>2021-08-08T14:28:48Z</time>
      </trkpt>
      <trkpt lat="49.01528" lon="0.08688">
        <ele>129.24</ele>
        <time>2021-08-08T14:28:49Z</time>
      </trkpt>
      <trkpt lat="49.01528" lon="0.08683">
        <ele>129.33</ele>
        <time>2021-08-08T14:28:50Z</time>
      </trkpt>
      <trkpt lat="49.01527" lon="0.08678">
        <ele>129.44</ele>
        <time>2021-08-08T14:28:51Z</time>
      </trkpt>
      <trkpt lat="49.01526" lon="0.08673">
        <ele>129.54</ele>
        <time>2021-08-08T14:28:52Z</time>
      </trkpt>
      <trkpt lat="49.01525" lon="0.08668">
        <ele>129.64</ele>
        <time>2021-08-08T14:28:53Z</time>
      </trkpt>
      <trkpt lat="49.01525" lon="0.08663">
        <ele>129.8</ele>
        <time>2021-08-08T14:28:54Z</time>
      </trkpt>
      <trkpt lat="49.01525" lon="0.08657">
        <ele>129.96</ele>
        <time>2021-08-08T14:28:55Z</time>
      </trkpt>
      <trkpt lat="49.01525" lon="0.08652">
        <ele>130.14</ele>
        <time>2021-08-08T14:28:56Z</time>
      </trkpt>
      <trkpt lat="49.01525" lon="0.08646">
        <ele>130.37</ele>
        <time>2021-08-08T14:28:57Z</time>
      </trkpt>
      <trkpt lat="49.01525" lon="0.0864">
        <ele>130.61</ele>
        <time>2021-08-08T14:28:58Z</time>
      </trkpt>
      <trkpt lat="49.01525" lon="0.08634">
        <ele>130.91</ele>
        <time>2021-08-08T14:28:59Z</time>
      </trkpt>
      <trkpt lat="49.01525" lon="0.08628">
        <ele>131.2</ele>
        <time>2021-08-08T14:29:00Z</time>
      </trkpt>
      <trkpt lat="49.01524" lon="0.08623">
        <ele>131.48</ele>
        <time>2021-08-08T14:29:01Z</time>
      </trkpt>
      <trkpt lat="49.01523" lon="0.08617">
        <ele>131.71</ele>
        <time>2021-08-08T14:29:02Z</time>
      </trkpt>
      <trkpt lat="49.01523" lon="0.08611">
        <ele>131.97</ele>
        <time>2021-08-08T14:29:03Z</time>
      </trkpt>
      <trkpt lat="49.01522" lon="0.08605">
        <ele>132</ele>
        <time>2021-08-08T14:29:04Z</time>
      </trkpt>
      <trkpt lat="49.01521" lon="0.08599">
        <ele>131.9</ele>
        <time>2021-08-08T14:29:05Z</time>
      </trkpt>
      <trkpt lat="49.0152" lon="0.08593">
        <ele>131.81</ele>
        <time>2021-08-08T14:29:06Z</time>
      </trkpt>
      <trkpt lat="49.01519" lon="0.08587">
        <ele>131.76</ele>
        <time>2021-08-08T14:29:07Z</time>
      </trkpt>
      <trkpt lat="49.01519" lon="0.08581">
        <ele>131.76</ele>
        <time>2021-08-08T14:29:08Z</time>
      </trkpt>
      <trkpt lat="49.01518" lon="0.08576">
        <ele>131.79</ele>
        <time>2021-08-08T14:29:09Z</time>
      </trkpt>
      <trkpt lat="49.01518" lon="0.08571">
        <ele>131.8</ele>
        <time>2021-08-08T14:29:10Z</time>
      </trkpt>
      <trkpt lat="49.01516" lon="0.08566">
        <ele>131.73</ele>
        <time>2021-08-08T14:29:11Z</time>
      </trkpt>
      <trkpt lat="49.01515" lon="0.08561">
        <ele>131.63</ele>
        <time>2021-08-08T14:29:12Z</time>
      </trkpt>
      <trkpt lat="49.01514" lon="0.08555">
        <ele>131.61</ele>
        <time>2021-08-08T14:29:13Z</time>
      </trkpt>
      <trkpt lat="49.01513" lon="0.08549">
        <ele>131.66</ele>
        <time>2021-08-08T14:29:14Z</time>
      </trkpt>
      <trkpt lat="49.01513" lon="0.08542">
        <ele>131.78</ele>
        <time>2021-08-08T14:29:15Z</time>
      </trkpt>
      <trkpt lat="49.01513" lon="0.08535">
        <ele>132</ele>
        <time>2021-08-08T14:29:16Z</time>
      </trkpt>
      <trkpt lat="49.01513" lon="0.08528">
        <ele>132.25</ele>
        <time>2021-08-08T14:29:17Z</time>
      </trkpt>
      <trkpt lat="49.01514" lon="0.08522">
        <ele>132.44</ele>
        <time>2021-08-08T14:29:18Z</time>
      </trkpt>
      <trkpt lat="49.01514" lon="0.08516">
        <ele>132.5</ele>
        <time>2021-08-08T14:29:19Z</time>
      </trkpt>
      <trkpt lat="49.01514" lon="0.0851">
        <ele>132.55</ele>
        <time>2021-08-08T14:29:20Z</time>
      </trkpt>
      <trkpt lat="49.01515" lon="0.08506">
        <ele>132.64</ele>
        <time>2021-08-08T14:29:21Z</time>
      </trkpt>
      <trkpt lat="49.01516" lon="0.08503">
        <ele>132.79</ele>
        <time>2021-08-08T14:29:22Z</time>
      </trkpt>
      <trkpt lat="49.01517" lon="0.08501">
        <ele>132.96</ele>
        <time>2021-08-08T14:29:23Z</time>
      </trkpt>
      <trkpt lat="49.01517" lon="0.08501">
        <ele>133.07</ele>
        <time>2021-08-08T14:29:24Z</time>
      </trkpt>
      <trkpt lat="49.01518" lon="0.08502">
        <ele>133.15</ele>
        <time>2021-08-08T14:29:25Z</time>
      </trkpt>
      <trkpt lat="49.01518" lon="0.08502">
        <ele>133.17</ele>
        <time>2021-08-08T14:29:26Z</time>
      </trkpt>
      <trkpt lat="49.01518" lon="0.08502">
        <ele>133.18</ele>
        <time>2021-08-08T14:29:27Z</time>
      </trkpt>
      <trkpt lat="49.01518" lon="0.08502">
        <ele>133.18</ele>
        <time>2021-08-08T14:29:28Z</time>
      </trkpt>
      <trkpt lat="49.01518" lon="0.08502">
        <ele>133.18</ele>
        <time>2021-08-08T14:29:29Z</time>
      </trkpt>
      <trkpt lat="49.01518" lon="0.08502">
        <ele>133.18</ele>
        <time>2021-08-08T14:29:30Z</time>
      </trkpt>
      <trkpt lat="49.01518" lon="0.08502">
        <ele>133.18</ele>
        <time>2021-08-08T14:29:31Z</time>
      </trkpt>
      <trkpt lat="49.01518" lon="0.08502">
        <ele>133.18</ele>
        <time>2021-08-08T14:29:32Z</time>
      </trkpt>
      <trkpt lat="49.01518" lon="0.08502">
        <ele>133.18</ele>
        <time>2021-08-08T14:29:33Z</time>
      </trkpt>
      <trkpt lat="49.01518" lon="0.08502">
        <ele>133.18</ele>
        <time>2021-08-08T14:29:34Z</time>
      </trkpt>
      <trkpt lat="49.01518" lon="0.08502">
        <ele>133.18</ele>
        <time>2021-08-08T14:29:35Z</time>
      </trkpt>
      <trkpt lat="49.01518" lon="0.08502">
        <ele>133.18</ele>
        <time>2021-08-08T14:29:36Z</time>
      </trkpt>
      <trkpt lat="49.01518" lon="0.08502">
        <ele>133.18</ele>
        <time>2021-08-08T14:29:37Z</time>
      </trkpt>
      <trkpt lat="49.01518" lon="0.08502">
        <ele>133.18</ele>
        <time>2021-08-08T14:29:38Z</time>
      </trkpt>
      <trkpt lat="49.01518" lon="0.08502">
        <ele>133.18</ele>
        <time>2021-08-08T14:29:39Z</time>
      </trkpt>
      <trkpt lat="49.01518" lon="0.08502">
        <ele>133.18</ele>
        <time>2021-08-08T14:29:40Z</time>
      </trkpt>
      <trkpt lat="49.01518" lon="0.08502">
        <ele>133.18</ele>
        <time>2021-08-08T14:29:41Z</time>
      </trkpt>
      <trkpt lat="49.01518" lon="0.08502">
        <ele>133.18</ele>
        <time>2021-08-08T14:29:42Z</time>
      </trkpt>
      <trkpt lat="49.01518" lon="0.08502">
        <ele>133.18</ele>
        <time>2021-08-08T14:29:43Z</time>
      </trkpt>
      <trkpt lat="49.01518" lon="0.08502">
        <ele>133.18</ele>
        <time>2021-08-08T14:29:44Z</time>
      </trkpt>
      <trkpt lat="49.01518" lon="0.08502">
        <ele>133.18</ele>
        <time>2021-08-08T14:29:45Z</time>
      </trkpt>
      <trkpt lat="49.01518" lon="0.08502">
        <ele>133.18</ele>
        <time>2021-08-08T14:29:46Z</time>
      </trkpt>
      <trkpt lat="49.01518" lon="0.08502">
        <ele>133.18</ele>
        <time>2021-08-08T14:29:47Z</time>
      </trkpt>
      <trkpt lat="49.01518" lon="0.08502">
        <ele>133.18</ele>
        <time>2021-08-08T14:29:48Z</time>
      </trkpt>
      <trkpt lat="49.01518" lon="0.08502">
        <ele>133.18</ele>
        <time>2021-08-08T14:29:49Z</time>
      </trkpt>
      <trkpt lat="49.01518" lon="0.08502">
        <ele>133.18</ele>
        <time>2021-08-08T14:29:50Z</time>
      </trkpt>
      <trkpt lat="49.01518" lon="0.08502">
        <ele>133.18</ele>
        <time>2021-08-08T14:29:51Z</time>
      </trkpt>
      <trkpt lat="49.01518" lon="0.08502">
        <ele>133.18</ele>
        <time>2021-08-08T14:29:52Z</time>
      </trkpt>
      <trkpt lat="49.01519" lon="0.08496">
        <ele>133.29</ele>
        <time>2021-08-08T14:29:53Z</time>
      </trkpt>
      <trkpt lat="49.0152" lon="0.08493">
        <ele>133.36</ele>
        <time>2021-08-08T14:29:54Z</time>
      </trkpt>
      <trkpt lat="49.01521" lon="0.0849">
        <ele>133.42</ele>
        <time>2021-08-08T14:29:55Z</time>
      </trkpt>
      <trkpt lat="49.01522" lon="0.08487">
        <ele>133.49</ele>
        <time>2021-08-08T14:29:56Z</time>
      </trkpt>
      <trkpt lat="49.01523" lon="0.08483">
        <ele>133.56</ele>
        <time>2021-08-08T14:29:57Z</time>
      </trkpt>
      <trkpt lat="49.01524" lon="0.08479">
        <ele>133.62</ele>
        <time>2021-08-08T14:29:58Z</time>
      </trkpt>
      <trkpt lat="49.01524" lon="0.08475">
        <ele>133.59</ele>
        <time>2021-08-08T14:29:59Z</time>
      </trkpt>
      <trkpt lat="49.01525" lon="0.08471">
        <ele>133.61</ele>
        <time>2021-08-08T14:30:00Z</time>
      </trkpt>
      <trkpt lat="49.01526" lon="0.08467">
        <ele>133.66</ele>
        <time>2021-08-08T14:30:01Z</time>
      </trkpt>
      <trkpt lat="49.01527" lon="0.08463">
        <ele>133.78</ele>
        <time>2021-08-08T14:30:02Z</time>
      </trkpt>
      <trkpt lat="49.01527" lon="0.08457">
        <ele>133.86</ele>
        <time>2021-08-08T14:30:03Z</time>
      </trkpt>
      <trkpt lat="49.01528" lon="0.08451">
        <ele>133.96</ele>
        <time>2021-08-08T14:30:04Z</time>
      </trkpt>
      <trkpt lat="49.01528" lon="0.08445">
        <ele>133.98</ele>
        <time>2021-08-08T14:30:05Z</time>
      </trkpt>
      <trkpt lat="49.01526" lon="0.08438">
        <ele>133.79</ele>
        <time>2021-08-08T14:30:06Z</time>
      </trkpt>
      <trkpt lat="49.01524" lon="0.08431">
        <ele>133.5</ele>
        <time>2021-08-08T14:30:07Z</time>
      </trkpt>
      <trkpt lat="49.01522" lon="0.08424">
        <ele>133.16</ele>
        <time>2021-08-08T14:30:08Z</time>
      </trkpt>
      <trkpt lat="49.01522" lon="0.08415">
        <ele>132.91</ele>
        <time>2021-08-08T14:30:09Z</time>
      </trkpt>
      <trkpt lat="49.01522" lon="0.08407">
        <ele>132.47</ele>
        <time>2021-08-08T14:30:10Z</time>
      </trkpt>
      <trkpt lat="49.01522" lon="0.084">
        <ele>132.12</ele>
        <time>2021-08-08T14:30:11Z</time>
      </trkpt>
      <trkpt lat="49.01524" lon="0.08392">
        <ele>131.78</ele>
        <time>2021-08-08T14:30:12Z</time>
      </trkpt>
      <trkpt lat="49.01525" lon="0.08384">
        <ele>131.49</ele>
        <time>2021-08-08T14:30:13Z</time>
      </trkpt>
      <trkpt lat="49.01528" lon="0.08377">
        <ele>131.55</ele>
        <time>2021-08-08T14:30:14Z</time>
      </trkpt>
      <trkpt lat="49.0153" lon="0.08369">
        <ele>131.62</ele>
        <time>2021-08-08T14:30:15Z</time>
      </trkpt>
      <trkpt lat="49.01534" lon="0.08362">
        <ele>131.81</ele>
        <time>2021-08-08T14:30:16Z</time>
      </trkpt>
      <trkpt lat="49.01537" lon="0.08356">
        <ele>131.94</ele>
        <time>2021-08-08T14:30:17Z</time>
      </trkpt>
      <trkpt lat="49.01541" lon="0.08349">
        <ele>131.99</ele>
        <time>2021-08-08T14:30:18Z</time>
      </trkpt>
      <trkpt lat="49.01544" lon="0.08343">
        <ele>131.98</ele>
        <time>2021-08-08T14:30:19Z</time>
      </trkpt>
      <trkpt lat="49.01547" lon="0.08337">
        <ele>131.99</ele>
        <time>2021-08-08T14:30:20Z</time>
      </trkpt>
      <trkpt lat="49.0155" lon="0.08331">
        <ele>132.07</ele>
        <time>2021-08-08T14:30:21Z</time>
      </trkpt>
      <trkpt lat="49.01554" lon="0.08326">
        <ele>132.33</ele>
        <time>2021-08-08T14:30:22Z</time>
      </trkpt>
      <trkpt lat="49.01557" lon="0.0832">
        <ele>132.58</ele>
        <time>2021-08-08T14:30:23Z</time>
      </trkpt>
      <trkpt lat="49.0156" lon="0.08314">
        <ele>132.81</ele>
        <time>2021-08-08T14:30:24Z</time>
      </trkpt>
      <trkpt lat="49.01564" lon="0.08308">
        <ele>133.18</ele>
        <time>2021-08-08T14:30:25Z</time>
      </trkpt>
      <trkpt lat="49.01568" lon="0.08303">
        <ele>133.55</ele>
        <time>2021-08-08T14:30:26Z</time>
      </trkpt>
      <trkpt lat="49.01572" lon="0.08299">
        <ele>133.83</ele>
        <time>2021-08-08T14:30:27Z</time>
      </trkpt>
      <trkpt lat="49.01575" lon="0.08294">
        <ele>134.02</ele>
        <time>2021-08-08T14:30:28Z</time>
      </trkpt>
      <trkpt lat="49.01579" lon="0.08288">
        <ele>134.16</ele>
        <time>2021-08-08T14:30:29Z</time>
      </trkpt>
      <trkpt lat="49.01582" lon="0.08281">
        <ele>134.12</ele>
        <time>2021-08-08T14:30:30Z</time>
      </trkpt>
      <trkpt lat="49.01585" lon="0.08274">
        <ele>134.05</ele>
        <time>2021-08-08T14:30:31Z</time>
      </trkpt>
      <trkpt lat="49.01587" lon="0.08268">
        <ele>134.06</ele>
        <time>2021-08-08T14:30:32Z</time>
      </trkpt>
      <trkpt lat="49.0159" lon="0.0826">
        <ele>134.04</ele>
        <time>2021-08-08T14:30:33Z</time>
      </trkpt>
      <trkpt lat="49.01591" lon="0.08252">
        <ele>133.98</ele>
        <time>2021-08-08T14:30:34Z</time>
      </trkpt>
      <trkpt lat="49.01594" lon="0.08244">
        <ele>133.82</ele>
        <time>2021-08-08T14:30:35Z</time>
      </trkpt>
      <trkpt lat="49.01597" lon="0.08237">
        <ele>133.64</ele>
        <time>2021-08-08T14:30:36Z</time>
      </trkpt>
      <trkpt lat="49.016" lon="0.08228">
        <ele>133.38</ele>
        <time>2021-08-08T14:30:37Z</time>
      </trkpt>
      <trkpt lat="49.01603" lon="0.08221">
        <ele>133.15</ele>
        <time>2021-08-08T14:30:38Z</time>
      </trkpt>
      <trkpt lat="49.01606" lon="0.08212">
        <ele>133.11</ele>
        <time>2021-08-08T14:30:39Z</time>
      </trkpt>
      <trkpt lat="49.01608" lon="0.08204">
        <ele>133.02</ele>
        <time>2021-08-08T14:30:40Z</time>
      </trkpt>
      <trkpt lat="49.0161" lon="0.08196">
        <ele>132.98</ele>
        <time>2021-08-08T14:30:41Z</time>
      </trkpt>
      <trkpt lat="49.01613" lon="0.08188">
        <ele>133.11</ele>
        <time>2021-08-08T14:30:42Z</time>
      </trkpt>
      <trkpt lat="49.01616" lon="0.08179">
        <ele>133.33</ele>
        <time>2021-08-08T14:30:43Z</time>
      </trkpt>
      <trkpt lat="49.01619" lon="0.08171">
        <ele>133.54</ele>
        <time>2021-08-08T14:30:44Z</time>
      </trkpt>
      <trkpt lat="49.01623" lon="0.08164">
        <ele>133.67</ele>
        <time>2021-08-08T14:30:45Z</time>
      </trkpt>
      <trkpt lat="49.01626" lon="0.08158">
        <ele>133.72</ele>
        <time>2021-08-08T14:30:46Z</time>
      </trkpt>
      <trkpt lat="49.0163" lon="0.08151">
        <ele>133.77</ele>
        <time>2021-08-08T14:30:47Z</time>
      </trkpt>
      <trkpt lat="49.01633" lon="0.08145">
        <ele>133.8</ele>
        <time>2021-08-08T14:30:48Z</time>
      </trkpt>
      <trkpt lat="49.01636" lon="0.08138">
        <ele>133.78</ele>
        <time>2021-08-08T14:30:49Z</time>
      </trkpt>
      <trkpt lat="49.01639" lon="0.08132">
        <ele>133.77</ele>
        <time>2021-08-08T14:30:50Z</time>
      </trkpt>
      <trkpt lat="49.01642" lon="0.08126">
        <ele>133.79</ele>
        <time>2021-08-08T14:30:51Z</time>
      </trkpt>
      <trkpt lat="49.01647" lon="0.0812">
        <ele>133.85</ele>
        <time>2021-08-08T14:30:52Z</time>
      </trkpt>
      <trkpt lat="49.01651" lon="0.08115">
        <ele>133.96</ele>
        <time>2021-08-08T14:30:53Z</time>
      </trkpt>
      <trkpt lat="49.01653" lon="0.08111">
        <ele>134.03</ele>
        <time>2021-08-08T14:30:54Z</time>
      </trkpt>
      <trkpt lat="49.01656" lon="0.08107">
        <ele>133.98</ele>
        <time>2021-08-08T14:30:55Z</time>
      </trkpt>
      <trkpt lat="49.01656" lon="0.08101">
        <ele>133.76</ele>
        <time>2021-08-08T14:30:56Z</time>
      </trkpt>
      <trkpt lat="49.01656" lon="0.08095">
        <ele>133.44</ele>
        <time>2021-08-08T14:30:57Z</time>
      </trkpt>
      <trkpt lat="49.01655" lon="0.08089">
        <ele>133.05</ele>
        <time>2021-08-08T14:30:58Z</time>
      </trkpt>
      <trkpt lat="49.01653" lon="0.08083">
        <ele>132.67</ele>
        <time>2021-08-08T14:30:59Z</time>
      </trkpt>
      <trkpt lat="49.01651" lon="0.08077">
        <ele>132.52</ele>
        <time>2021-08-08T14:31:00Z</time>
      </trkpt>
      <trkpt lat="49.01649" lon="0.08071">
        <ele>132.41</ele>
        <time>2021-08-08T14:31:01Z</time>
      </trkpt>
      <trkpt lat="49.01647" lon="0.08066">
        <ele>132.34</ele>
        <time>2021-08-08T14:31:02Z</time>
      </trkpt>
      <trkpt lat="49.01645" lon="0.08059">
        <ele>132.26</ele>
        <time>2021-08-08T14:31:03Z</time>
      </trkpt>
      <trkpt lat="49.01643" lon="0.08052">
        <ele>132.1</ele>
        <time>2021-08-08T14:31:04Z</time>
      </trkpt>
      <trkpt lat="49.01641" lon="0.08044">
        <ele>131.79</ele>
        <time>2021-08-08T14:31:05Z</time>
      </trkpt>
      <trkpt lat="49.01639" lon="0.08037">
        <ele>131.46</ele>
        <time>2021-08-08T14:31:06Z</time>
      </trkpt>
      <trkpt lat="49.01636" lon="0.08029">
        <ele>131.1</ele>
        <time>2021-08-08T14:31:07Z</time>
      </trkpt>
      <trkpt lat="49.01634" lon="0.08021">
        <ele>130.9</ele>
        <time>2021-08-08T14:31:08Z</time>
      </trkpt>
      <trkpt lat="49.01631" lon="0.08012">
        <ele>130.77</ele>
        <time>2021-08-08T14:31:09Z</time>
      </trkpt>
      <trkpt lat="49.01628" lon="0.08004">
        <ele>130.65</ele>
        <time>2021-08-08T14:31:10Z</time>
      </trkpt>
      <trkpt lat="49.01624" lon="0.07995">
        <ele>130.42</ele>
        <time>2021-08-08T14:31:11Z</time>
      </trkpt>
      <trkpt lat="49.01621" lon="0.07987">
        <ele>130.05</ele>
        <time>2021-08-08T14:31:12Z</time>
      </trkpt>
      <trkpt lat="49.01618" lon="0.07978">
        <ele>129.64</ele>
        <time>2021-08-08T14:31:13Z</time>
      </trkpt>
      <trkpt lat="49.01615" lon="0.07968">
        <ele>129.19</ele>
        <time>2021-08-08T14:31:14Z</time>
      </trkpt>
      <trkpt lat="49.01613" lon="0.07959">
        <ele>128.76</ele>
        <time>2021-08-08T14:31:15Z</time>
      </trkpt>
      <trkpt lat="49.01609" lon="0.0795">
        <ele>128.35</ele>
        <time>2021-08-08T14:31:16Z</time>
      </trkpt>
      <trkpt lat="49.01605" lon="0.0794">
        <ele>127.99</ele>
        <time>2021-08-08T14:31:17Z</time>
      </trkpt>
      <trkpt lat="49.01602" lon="0.07931">
        <ele>127.66</ele>
        <time>2021-08-08T14:31:18Z</time>
      </trkpt>
      <trkpt lat="49.01598" lon="0.07923">
        <ele>127.35</ele>
        <time>2021-08-08T14:31:19Z</time>
      </trkpt>
      <trkpt lat="49.01594" lon="0.07913">
        <ele>127.03</ele>
        <time>2021-08-08T14:31:20Z</time>
      </trkpt>
      <trkpt lat="49.01588" lon="0.07902">
        <ele>126.64</ele>
        <time>2021-08-08T14:31:21Z</time>
      </trkpt>
      <trkpt lat="49.01582" lon="0.0789">
        <ele>126.15</ele>
        <time>2021-08-08T14:31:22Z</time>
      </trkpt>
      <trkpt lat="49.01575" lon="0.0788">
        <ele>125.43</ele>
        <time>2021-08-08T14:31:23Z</time>
      </trkpt>
      <trkpt lat="49.01571" lon="0.07871">
        <ele>124.78</ele>
        <time>2021-08-08T14:31:24Z</time>
      </trkpt>
      <trkpt lat="49.01567" lon="0.07862">
        <ele>124.12</ele>
        <time>2021-08-08T14:31:25Z</time>
      </trkpt>
      <trkpt lat="49.0156" lon="0.07852">
        <ele>123.12</ele>
        <time>2021-08-08T14:31:26Z</time>
      </trkpt>
      <trkpt lat="49.01553" lon="0.07842">
        <ele>121.93</ele>
        <time>2021-08-08T14:31:27Z</time>
      </trkpt>
      <trkpt lat="49.01546" lon="0.07831">
        <ele>120.73</ele>
        <time>2021-08-08T14:31:28Z</time>
      </trkpt>
      <trkpt lat="49.01538" lon="0.0781">
        <ele>119.43</ele>
        <time>2021-08-08T14:31:29Z</time>
      </trkpt>
      <trkpt lat="49.01529" lon="0.07795">
        <ele>117.98</ele>
        <time>2021-08-08T14:31:30Z</time>
      </trkpt>
      <trkpt lat="49.01522" lon="0.07777">
        <ele>116.15</ele>
        <time>2021-08-08T14:31:31Z</time>
      </trkpt>
      <trkpt lat="49.01518" lon="0.07761">
        <ele>114.46</ele>
        <time>2021-08-08T14:31:32Z</time>
      </trkpt>
      <trkpt lat="49.01515" lon="0.07747">
        <ele>113.04</ele>
        <time>2021-08-08T14:31:33Z</time>
      </trkpt>
      <trkpt lat="49.01511" lon="0.07734">
        <ele>111.87</ele>
        <time>2021-08-08T14:31:34Z</time>
      </trkpt>
      <trkpt lat="49.01508" lon="0.0772">
        <ele>110.91</ele>
        <time>2021-08-08T14:31:35Z</time>
      </trkpt>
      <trkpt lat="49.01504" lon="0.07711">
        <ele>110.15</ele>
        <time>2021-08-08T14:31:36Z</time>
      </trkpt>
      <trkpt lat="49.01502" lon="0.07698">
        <ele>109.5</ele>
        <time>2021-08-08T14:31:37Z</time>
      </trkpt>
      <trkpt lat="49.01499" lon="0.07686">
        <ele>108.62</ele>
        <time>2021-08-08T14:31:38Z</time>
      </trkpt>
      <trkpt lat="49.01494" lon="0.07676">
        <ele>107.63</ele>
        <time>2021-08-08T14:31:39Z</time>
      </trkpt>
      <trkpt lat="49.0149" lon="0.07666">
        <ele>106.65</ele>
        <time>2021-08-08T14:31:40Z</time>
      </trkpt>
      <trkpt lat="49.01484" lon="0.07655">
        <ele>105.81</ele>
        <time>2021-08-08T14:31:41Z</time>
      </trkpt>
      <trkpt lat="49.01477" lon="0.07642">
        <ele>104.87</ele>
        <time>2021-08-08T14:31:42Z</time>
      </trkpt>
      <trkpt lat="49.01469" lon="0.0763">
        <ele>103.91</ele>
        <time>2021-08-08T14:31:43Z</time>
      </trkpt>
      <trkpt lat="49.01464" lon="0.07616">
        <ele>103.15</ele>
        <time>2021-08-08T14:31:44Z</time>
      </trkpt>
      <trkpt lat="49.01459" lon="0.07602">
        <ele>102.48</ele>
        <time>2021-08-08T14:31:45Z</time>
      </trkpt>
      <trkpt lat="49.01453" lon="0.07592">
        <ele>101.87</ele>
        <time>2021-08-08T14:31:46Z</time>
      </trkpt>
      <trkpt lat="49.01444" lon="0.07578">
        <ele>101.12</ele>
        <time>2021-08-08T14:31:47Z</time>
      </trkpt>
      <trkpt lat="49.01437" lon="0.0757">
        <ele>100.33</ele>
        <time>2021-08-08T14:31:48Z</time>
      </trkpt>
      <trkpt lat="49.0143" lon="0.07561">
        <ele>99.53</ele>
        <time>2021-08-08T14:31:49Z</time>
      </trkpt>
      <trkpt lat="49.01425" lon="0.07551">
        <ele>98.86</ele>
        <time>2021-08-08T14:31:50Z</time>
      </trkpt>
      <trkpt lat="49.01421" lon="0.07541">
        <ele>98.44</ele>
        <time>2021-08-08T14:31:51Z</time>
      </trkpt>
      <trkpt lat="49.01417" lon="0.07535">
        <ele>98.15</ele>
        <time>2021-08-08T14:31:52Z</time>
      </trkpt>
      <trkpt lat="49.01415" lon="0.07531">
        <ele>97.95</ele>
        <time>2021-08-08T14:31:53Z</time>
      </trkpt>
      <trkpt lat="49.01414" lon="0.07524">
        <ele>97.77</ele>
        <time>2021-08-08T14:31:54Z</time>
      </trkpt>
      <trkpt lat="49.01415" lon="0.07518">
        <ele>97.6</ele>
        <time>2021-08-08T14:31:55Z</time>
      </trkpt>
      <trkpt lat="49.01416" lon="0.07512">
        <ele>97.43</ele>
        <time>2021-08-08T14:31:56Z</time>
      </trkpt>
      <trkpt lat="49.01417" lon="0.07505">
        <ele>97.26</ele>
        <time>2021-08-08T14:31:57Z</time>
      </trkpt>
      <trkpt lat="49.01419" lon="0.07497">
        <ele>96.99</ele>
        <time>2021-08-08T14:31:58Z</time>
      </trkpt>
      <trkpt lat="49.0142" lon="0.07489">
        <ele>96.58</ele>
        <time>2021-08-08T14:31:59Z</time>
      </trkpt>
      <trkpt lat="49.01423" lon="0.07482">
        <ele>96.19</ele>
        <time>2021-08-08T14:32:00Z</time>
      </trkpt>
      <trkpt lat="49.01425" lon="0.07474">
        <ele>95.83</ele>
        <time>2021-08-08T14:32:01Z</time>
      </trkpt>
      <trkpt lat="49.01427" lon="0.07466">
        <ele>95.56</ele>
        <time>2021-08-08T14:32:02Z</time>
      </trkpt>
      <trkpt lat="49.0143" lon="0.07457">
        <ele>95.28</ele>
        <time>2021-08-08T14:32:03Z</time>
      </trkpt>
      <trkpt lat="49.01433" lon="0.07449">
        <ele>94.99</ele>
        <time>2021-08-08T14:32:04Z</time>
      </trkpt>
      <trkpt lat="49.01436" lon="0.07441">
        <ele>94.62</ele>
        <time>2021-08-08T14:32:05Z</time>
      </trkpt>
      <trkpt lat="49.0144" lon="0.07433">
        <ele>94.18</ele>
        <time>2021-08-08T14:32:06Z</time>
      </trkpt>
      <trkpt lat="49.01444" lon="0.07424">
        <ele>93.72</ele>
        <time>2021-08-08T14:32:07Z</time>
      </trkpt>
      <trkpt lat="49.01448" lon="0.07416">
        <ele>93.39</ele>
        <time>2021-08-08T14:32:08Z</time>
      </trkpt>
      <trkpt lat="49.01452" lon="0.07408">
        <ele>93.25</ele>
        <time>2021-08-08T14:32:09Z</time>
      </trkpt>
      <trkpt lat="49.01457" lon="0.07401">
        <ele>93.13</ele>
        <time>2021-08-08T14:32:10Z</time>
      </trkpt>
      <trkpt lat="49.01463" lon="0.07393">
        <ele>92.98</ele>
        <time>2021-08-08T14:32:11Z</time>
      </trkpt>
      <trkpt lat="49.01469" lon="0.07385">
        <ele>92.73</ele>
        <time>2021-08-08T14:32:12Z</time>
      </trkpt>
      <trkpt lat="49.01475" lon="0.07378">
        <ele>92.44</ele>
        <time>2021-08-08T14:32:13Z</time>
      </trkpt>
      <trkpt lat="49.01482" lon="0.07371">
        <ele>92.16</ele>
        <time>2021-08-08T14:32:14Z</time>
      </trkpt>
      <trkpt lat="49.01489" lon="0.07364">
        <ele>91.9</ele>
        <time>2021-08-08T14:32:15Z</time>
      </trkpt>
      <trkpt lat="49.01496" lon="0.07357">
        <ele>91.57</ele>
        <time>2021-08-08T14:32:16Z</time>
      </trkpt>
      <trkpt lat="49.01503" lon="0.07352">
        <ele>91.18</ele>
        <time>2021-08-08T14:32:17Z</time>
      </trkpt>
      <trkpt lat="49.01511" lon="0.07347">
        <ele>90.81</ele>
        <time>2021-08-08T14:32:18Z</time>
      </trkpt>
      <trkpt lat="49.01519" lon="0.07342">
        <ele>90.53</ele>
        <time>2021-08-08T14:32:19Z</time>
      </trkpt>
      <trkpt lat="49.01527" lon="0.07337">
        <ele>90.34</ele>
        <time>2021-08-08T14:32:20Z</time>
      </trkpt>
      <trkpt lat="49.01534" lon="0.07333">
        <ele>90.22</ele>
        <time>2021-08-08T14:32:21Z</time>
      </trkpt>
      <trkpt lat="49.01542" lon="0.07328">
        <ele>90.07</ele>
        <time>2021-08-08T14:32:22Z</time>
      </trkpt>
      <trkpt lat="49.01549" lon="0.07324">
        <ele>90.01</ele>
        <time>2021-08-08T14:32:23Z</time>
      </trkpt>
      <trkpt lat="49.01557" lon="0.07319">
        <ele>89.99</ele>
        <time>2021-08-08T14:32:24Z</time>
      </trkpt>
      <trkpt lat="49.01564" lon="0.07315">
        <ele>89.78</ele>
        <time>2021-08-08T14:32:25Z</time>
      </trkpt>
      <trkpt lat="49.01571" lon="0.07312">
        <ele>89.53</ele>
        <time>2021-08-08T14:32:26Z</time>
      </trkpt>
      <trkpt lat="49.01579" lon="0.07308">
        <ele>89.27</ele>
        <time>2021-08-08T14:32:27Z</time>
      </trkpt>
      <trkpt lat="49.01586" lon="0.07304">
        <ele>88.99</ele>
        <time>2021-08-08T14:32:28Z</time>
      </trkpt>
      <trkpt lat="49.01594" lon="0.073">
        <ele>88.7</ele>
        <time>2021-08-08T14:32:29Z</time>
      </trkpt>
      <trkpt lat="49.01601" lon="0.07295">
        <ele>88.38</ele>
        <time>2021-08-08T14:32:30Z</time>
      </trkpt>
      <trkpt lat="49.01609" lon="0.07291">
        <ele>88.05</ele>
        <time>2021-08-08T14:32:31Z</time>
      </trkpt>
      <trkpt lat="49.01617" lon="0.07287">
        <ele>87.72</ele>
        <time>2021-08-08T14:32:32Z</time>
      </trkpt>
      <trkpt lat="49.01624" lon="0.07283">
        <ele>87.41</ele>
        <time>2021-08-08T14:32:33Z</time>
      </trkpt>
      <trkpt lat="49.01631" lon="0.07279">
        <ele>87.17</ele>
        <time>2021-08-08T14:32:34Z</time>
      </trkpt>
      <trkpt lat="49.01639" lon="0.07278">
        <ele>87.06</ele>
        <time>2021-08-08T14:32:35Z</time>
      </trkpt>
      <trkpt lat="49.01646" lon="0.07279">
        <ele>87.04</ele>
        <time>2021-08-08T14:32:36Z</time>
      </trkpt>
      <trkpt lat="49.01654" lon="0.07279">
        <ele>87.05</ele>
        <time>2021-08-08T14:32:37Z</time>
      </trkpt>
      <trkpt lat="49.01662" lon="0.07279">
        <ele>87.05</ele>
        <time>2021-08-08T14:32:38Z</time>
      </trkpt>
      <trkpt lat="49.0167" lon="0.07278">
        <ele>86.92</ele>
        <time>2021-08-08T14:32:39Z</time>
      </trkpt>
      <trkpt lat="49.01678" lon="0.07276">
        <ele>86.59</ele>
        <time>2021-08-08T14:32:40Z</time>
      </trkpt>
      <trkpt lat="49.01686" lon="0.07272">
        <ele>86.2</ele>
        <time>2021-08-08T14:32:41Z</time>
      </trkpt>
      <trkpt lat="49.01693" lon="0.07268">
        <ele>85.83</ele>
        <time>2021-08-08T14:32:42Z</time>
      </trkpt>
      <trkpt lat="49.01701" lon="0.07264">
        <ele>85.6</ele>
        <time>2021-08-08T14:32:43Z</time>
      </trkpt>
      <trkpt lat="49.01708" lon="0.07261">
        <ele>85.46</ele>
        <time>2021-08-08T14:32:44Z</time>
      </trkpt>
      <trkpt lat="49.01716" lon="0.0726">
        <ele>85.4</ele>
        <time>2021-08-08T14:32:45Z</time>
      </trkpt>
      <trkpt lat="49.01724" lon="0.0726">
        <ele>85.39</ele>
        <time>2021-08-08T14:32:46Z</time>
      </trkpt>
      <trkpt lat="49.01732" lon="0.07261">
        <ele>85.39</ele>
        <time>2021-08-08T14:32:47Z</time>
      </trkpt>
      <trkpt lat="49.01741" lon="0.07261">
        <ele>85.39</ele>
        <time>2021-08-08T14:32:48Z</time>
      </trkpt>
      <trkpt lat="49.01749" lon="0.0726">
        <ele>85.36</ele>
        <time>2021-08-08T14:32:49Z</time>
      </trkpt>
      <trkpt lat="49.01756" lon="0.07258">
        <ele>85.31</ele>
        <time>2021-08-08T14:32:50Z</time>
      </trkpt>
      <trkpt lat="49.01764" lon="0.07255">
        <ele>85.22</ele>
        <time>2021-08-08T14:32:51Z</time>
      </trkpt>
      <trkpt lat="49.01771" lon="0.07252">
        <ele>85.13</ele>
        <time>2021-08-08T14:32:52Z</time>
      </trkpt>
      <trkpt lat="49.01778" lon="0.0725">
        <ele>85.01</ele>
        <time>2021-08-08T14:32:53Z</time>
      </trkpt>
      <trkpt lat="49.01785" lon="0.07247">
        <ele>84.68</ele>
        <time>2021-08-08T14:32:54Z</time>
      </trkpt>
      <trkpt lat="49.01792" lon="0.07242">
        <ele>84.26</ele>
        <time>2021-08-08T14:32:55Z</time>
      </trkpt>
      <trkpt lat="49.01797" lon="0.07235">
        <ele>83.81</ele>
        <time>2021-08-08T14:32:56Z</time>
      </trkpt>
      <trkpt lat="49.01801" lon="0.07227">
        <ele>83.38</ele>
        <time>2021-08-08T14:32:57Z</time>
      </trkpt>
      <trkpt lat="49.01804" lon="0.07218">
        <ele>83</ele>
        <time>2021-08-08T14:32:58Z</time>
      </trkpt>
      <trkpt lat="49.01806" lon="0.07207">
        <ele>82.62</ele>
        <time>2021-08-08T14:32:59Z</time>
      </trkpt>
      <trkpt lat="49.01808" lon="0.07196">
        <ele>82.23</ele>
        <time>2021-08-08T14:33:00Z</time>
      </trkpt>
      <trkpt lat="49.01808" lon="0.07186">
        <ele>81.84</ele>
        <time>2021-08-08T14:33:01Z</time>
      </trkpt>
      <trkpt lat="49.01809" lon="0.07175">
        <ele>81.46</ele>
        <time>2021-08-08T14:33:02Z</time>
      </trkpt>
      <trkpt lat="49.0181" lon="0.07165">
        <ele>81.09</ele>
        <time>2021-08-08T14:33:03Z</time>
      </trkpt>
      <trkpt lat="49.01811" lon="0.07154">
        <ele>80.72</ele>
        <time>2021-08-08T14:33:04Z</time>
      </trkpt>
      <trkpt lat="49.01811" lon="0.07144">
        <ele>80.34</ele>
        <time>2021-08-08T14:33:05Z</time>
      </trkpt>
      <trkpt lat="49.01811" lon="0.07134">
        <ele>80.1</ele>
        <time>2021-08-08T14:33:06Z</time>
      </trkpt>
      <trkpt lat="49.01812" lon="0.07124">
        <ele>80.03</ele>
        <time>2021-08-08T14:33:07Z</time>
      </trkpt>
      <trkpt lat="49.01813" lon="0.07117">
        <ele>80.01</ele>
        <time>2021-08-08T14:33:08Z</time>
      </trkpt>
      <trkpt lat="49.01813" lon="0.07112">
        <ele>80</ele>
        <time>2021-08-08T14:33:09Z</time>
      </trkpt>
      <trkpt lat="49.01814" lon="0.07108">
        <ele>79.93</ele>
        <time>2021-08-08T14:33:10Z</time>
      </trkpt>
      <trkpt lat="49.01814" lon="0.07106">
        <ele>79.84</ele>
        <time>2021-08-08T14:33:11Z</time>
      </trkpt>
      <trkpt lat="49.01814" lon="0.07102">
        <ele>79.74</ele>
        <time>2021-08-08T14:33:12Z</time>
      </trkpt>
      <trkpt lat="49.01814" lon="0.07099">
        <ele>79.62</ele>
        <time>2021-08-08T14:33:13Z</time>
      </trkpt>
      <trkpt lat="49.01813" lon="0.07096">
        <ele>79.52</ele>
        <time>2021-08-08T14:33:14Z</time>
      </trkpt>
      <trkpt lat="49.01813" lon="0.07094">
        <ele>79.42</ele>
        <time>2021-08-08T14:33:15Z</time>
      </trkpt>
      <trkpt lat="49.01813" lon="0.07092">
        <ele>79.34</ele>
        <time>2021-08-08T14:33:16Z</time>
      </trkpt>
      <trkpt lat="49.01813" lon="0.07089">
        <ele>79.24</ele>
        <time>2021-08-08T14:33:17Z</time>
      </trkpt>
      <trkpt lat="49.01813" lon="0.07086">
        <ele>79.13</ele>
        <time>2021-08-08T14:33:18Z</time>
      </trkpt>
      <trkpt lat="49.01813" lon="0.07083">
        <ele>79.04</ele>
        <time>2021-08-08T14:33:19Z</time>
      </trkpt>
      <trkpt lat="49.01813" lon="0.0708">
        <ele>79.01</ele>
        <time>2021-08-08T14:33:20Z</time>
      </trkpt>
      <trkpt lat="49.01813" lon="0.07078">
        <ele>79</ele>
        <time>2021-08-08T14:33:21Z</time>
      </trkpt>
      <trkpt lat="49.01813" lon="0.07076">
        <ele>79</ele>
        <time>2021-08-08T14:33:22Z</time>
      </trkpt>
      <trkpt lat="49.01813" lon="0.07073">
        <ele>79</ele>
        <time>2021-08-08T14:33:23Z</time>
      </trkpt>
      <trkpt lat="49.01813" lon="0.07071">
        <ele>79</ele>
        <time>2021-08-08T14:33:24Z</time>
      </trkpt>
      <trkpt lat="49.01813" lon="0.07069">
        <ele>79</ele>
        <time>2021-08-08T14:33:25Z</time>
      </trkpt>
      <trkpt lat="49.01813" lon="0.07067">
        <ele>79</ele>
        <time>2021-08-08T14:33:26Z</time>
      </trkpt>
      <trkpt lat="49.01813" lon="0.07065">
        <ele>79</ele>
        <time>2021-08-08T14:33:27Z</time>
      </trkpt>
      <trkpt lat="49.01813" lon="0.07063">
        <ele>79</ele>
        <time>2021-08-08T14:33:28Z</time>
      </trkpt>
      <trkpt lat="49.01813" lon="0.07059">
        <ele>79</ele>
        <time>2021-08-08T14:33:29Z</time>
      </trkpt>
      <trkpt lat="49.01813" lon="0.07056">
        <ele>79</ele>
        <time>2021-08-08T14:33:30Z</time>
      </trkpt>
      <trkpt lat="49.01813" lon="0.07053">
        <ele>79</ele>
        <time>2021-08-08T14:33:31Z</time>
      </trkpt>
      <trkpt lat="49.01813" lon="0.07051">
        <ele>79</ele>
        <time>2021-08-08T14:33:32Z</time>
      </trkpt>
      <trkpt lat="49.01812" lon="0.07048">
        <ele>79</ele>
        <time>2021-08-08T14:33:33Z</time>
      </trkpt>
      <trkpt lat="49.01812" lon="0.07046">
        <ele>79</ele>
        <time>2021-08-08T14:33:34Z</time>
      </trkpt>
      <trkpt lat="49.01811" lon="0.07044">
        <ele>79</ele>
        <time>2021-08-08T14:33:35Z</time>
      </trkpt>
      <trkpt lat="49.01811" lon="0.07043">
        <ele>79</ele>
        <time>2021-08-08T14:33:36Z</time>
      </trkpt>
      <trkpt lat="49.0181" lon="0.0704">
        <ele>79</ele>
        <time>2021-08-08T14:33:37Z</time>
      </trkpt>
      <trkpt lat="49.01809" lon="0.07039">
        <ele>79</ele>
        <time>2021-08-08T14:33:38Z</time>
      </trkpt>
      <trkpt lat="49.0181" lon="0.07036">
        <ele>79</ele>
        <time>2021-08-08T14:33:39Z</time>
      </trkpt>
      <trkpt lat="49.01811" lon="0.07034">
        <ele>79</ele>
        <time>2021-08-08T14:33:40Z</time>
      </trkpt>
      <trkpt lat="49.01811" lon="0.07032">
        <ele>79</ele>
        <time>2021-08-08T14:33:41Z</time>
      </trkpt>
      <trkpt lat="49.01812" lon="0.0703">
        <ele>79</ele>
        <time>2021-08-08T14:33:42Z</time>
      </trkpt>
      <trkpt lat="49.01814" lon="0.07026">
        <ele>78.99</ele>
        <time>2021-08-08T14:33:43Z</time>
      </trkpt>
      <trkpt lat="49.01814" lon="0.07023">
        <ele>78.96</ele>
        <time>2021-08-08T14:33:44Z</time>
      </trkpt>
      <trkpt lat="49.01814" lon="0.07021">
        <ele>78.94</ele>
        <time>2021-08-08T14:33:45Z</time>
      </trkpt>
      <trkpt lat="49.01814" lon="0.07018">
        <ele>78.91</ele>
        <time>2021-08-08T14:33:46Z</time>
      </trkpt>
      <trkpt lat="49.01814" lon="0.07016">
        <ele>78.88</ele>
        <time>2021-08-08T14:33:47Z</time>
      </trkpt>
      <trkpt lat="49.01815" lon="0.07015">
        <ele>78.86</ele>
        <time>2021-08-08T14:33:48Z</time>
      </trkpt>
      <trkpt lat="49.01815" lon="0.07015">
        <ele>78.85</ele>
        <time>2021-08-08T14:33:49Z</time>
      </trkpt>
      <trkpt lat="49.01815" lon="0.07015">
        <ele>78.85</ele>
        <time>2021-08-08T14:33:50Z</time>
      </trkpt>
      <trkpt lat="49.01815" lon="0.07015">
        <ele>78.85</ele>
        <time>2021-08-08T14:33:51Z</time>
      </trkpt>
      <trkpt lat="49.01815" lon="0.07015">
        <ele>78.85</ele>
        <time>2021-08-08T14:33:52Z</time>
      </trkpt>
      <trkpt lat="49.01815" lon="0.07015">
        <ele>78.85</ele>
        <time>2021-08-08T14:33:53Z</time>
      </trkpt>
      <trkpt lat="49.01815" lon="0.07015">
        <ele>78.85</ele>
        <time>2021-08-08T14:33:54Z</time>
      </trkpt>
      <trkpt lat="49.01815" lon="0.07015">
        <ele>78.85</ele>
        <time>2021-08-08T14:33:55Z</time>
      </trkpt>
      <trkpt lat="49.01815" lon="0.07015">
        <ele>78.85</ele>
        <time>2021-08-08T14:33:56Z</time>
      </trkpt>
      <trkpt lat="49.01815" lon="0.07015">
        <ele>78.85</ele>
        <time>2021-08-08T14:33:57Z</time>
      </trkpt>
      <trkpt lat="49.01815" lon="0.07015">
        <ele>78.85</ele>
        <time>2021-08-08T14:33:58Z</time>
      </trkpt>
      <trkpt lat="49.01815" lon="0.07015">
        <ele>78.85</ele>
        <time>2021-08-08T14:33:59Z</time>
      </trkpt>
      <trkpt lat="49.01815" lon="0.07015">
        <ele>78.85</ele>
        <time>2021-08-08T14:34:00Z</time>
      </trkpt>
      <trkpt lat="49.01815" lon="0.07015">
        <ele>78.85</ele>
        <time>2021-08-08T14:34:01Z</time>
      </trkpt>
      <trkpt lat="49.01815" lon="0.07015">
        <ele>78.85</ele>
        <time>2021-08-08T14:34:02Z</time>
      </trkpt>
      <trkpt lat="49.01815" lon="0.07015">
        <ele>78.85</ele>
        <time>2021-08-08T14:34:03Z</time>
      </trkpt>
      <trkpt lat="49.01815" lon="0.07015">
        <ele>78.85</ele>
        <time>2021-08-08T14:34:04Z</time>
      </trkpt>
      <trkpt lat="49.01815" lon="0.07015">
        <ele>78.85</ele>
        <time>2021-08-08T14:34:05Z</time>
      </trkpt>
      <trkpt lat="49.01815" lon="0.07015">
        <ele>78.85</ele>
        <time>2021-08-08T14:34:06Z</time>
      </trkpt>
      <trkpt lat="49.01815" lon="0.07015">
        <ele>78.85</ele>
        <time>2021-08-08T14:34:07Z</time>
      </trkpt>
      <trkpt lat="49.01815" lon="0.07015">
        <ele>78.85</ele>
        <time>2021-08-08T14:34:08Z</time>
      </trkpt>
      <trkpt lat="49.01815" lon="0.07015">
        <ele>78.85</ele>
        <time>2021-08-08T14:34:09Z</time>
      </trkpt>
      <trkpt lat="49.01815" lon="0.07015">
        <ele>78.85</ele>
        <time>2021-08-08T14:34:10Z</time>
      </trkpt>
      <trkpt lat="49.01815" lon="0.07015">
        <ele>78.85</ele>
        <time>2021-08-08T14:34:11Z</time>
      </trkpt>
      <trkpt lat="49.01815" lon="0.07015">
        <ele>78.85</ele>
        <time>2021-08-08T14:34:12Z</time>
      </trkpt>
      <trkpt lat="49.01815" lon="0.07015">
        <ele>78.85</ele>
        <time>2021-08-08T14:34:13Z</time>
      </trkpt>
      <trkpt lat="49.01815" lon="0.07015">
        <ele>78.85</ele>
        <time>2021-08-08T14:34:14Z</time>
      </trkpt>
      <trkpt lat="49.01815" lon="0.07015">
        <ele>78.85</ele>
        <time>2021-08-08T14:34:15Z</time>
      </trkpt>
      <trkpt lat="49.01815" lon="0.07015">
        <ele>78.85</ele>
        <time>2021-08-08T14:34:17Z</time>
      </trkpt>
      <trkpt lat="49.01815" lon="0.07015">
        <ele>78.85</ele>
        <time>2021-08-08T14:34:18Z</time>
      </trkpt>
      <trkpt lat="49.01815" lon="0.07015">
        <ele>78.85</ele>
        <time>2021-08-08T14:34:19Z</time>
      </trkpt>
      <trkpt lat="49.01815" lon="0.07015">
        <ele>78.85</ele>
        <time>2021-08-08T14:34:20Z</time>
      </trkpt>
      <trkpt lat="49.01815" lon="0.07015">
        <ele>78.85</ele>
        <time>2021-08-08T14:34:21Z</time>
      </trkpt>
      <trkpt lat="49.01815" lon="0.07015">
        <ele>78.85</ele>
        <time>2021-08-08T14:34:22Z</time>
      </trkpt>
      <trkpt lat="49.01815" lon="0.07015">
        <ele>78.85</ele>
        <time>2021-08-08T14:34:23Z</time>
      </trkpt>
      <trkpt lat="49.01815" lon="0.07015">
        <ele>78.85</ele>
        <time>2021-08-08T14:34:24Z</time>
      </trkpt>
      <trkpt lat="49.01815" lon="0.07015">
        <ele>78.85</ele>
        <time>2021-08-08T14:34:25Z</time>
      </trkpt>
      <trkpt lat="49.01815" lon="0.07015">
        <ele>78.85</ele>
        <time>2021-08-08T14:34:26Z</time>
      </trkpt>
      <trkpt lat="49.01815" lon="0.07015">
        <ele>78.85</ele>
        <time>2021-08-08T14:34:27Z</time>
      </trkpt>
      <trkpt lat="49.01815" lon="0.07015">
        <ele>78.85</ele>
        <time>2021-08-08T14:34:28Z</time>
      </trkpt>
      <trkpt lat="49.01815" lon="0.07015">
        <ele>78.85</ele>
        <time>2021-08-08T14:34:29Z</time>
      </trkpt>
      <trkpt lat="49.01815" lon="0.07015">
        <ele>78.85</ele>
        <time>2021-08-08T14:34:30Z</time>
      </trkpt>
      <trkpt lat="49.01817" lon="0.07001">
        <ele>78.67</ele>
        <time>2021-08-08T14:34:31Z</time>
      </trkpt>
      <trkpt lat="49.01818" lon="0.07001">
        <ele>78.61</ele>
        <time>2021-08-08T14:34:32Z</time>
      </trkpt>
      <trkpt lat="49.01818" lon="0.07001">
        <ele>78.59</ele>
        <time>2021-08-08T14:34:33Z</time>
      </trkpt>
      <trkpt lat="49.01818" lon="0.07">
        <ele>78.57</ele>
        <time>2021-08-08T14:34:34Z</time>
      </trkpt>
      <trkpt lat="49.01818" lon="0.07">
        <ele>78.56</ele>
        <time>2021-08-08T14:34:35Z</time>
      </trkpt>
      <trkpt lat="49.01818" lon="0.07">
        <ele>78.56</ele>
        <time>2021-08-08T14:34:36Z</time>
      </trkpt>
      <trkpt lat="49.01818" lon="0.07">
        <ele>78.56</ele>
        <time>2021-08-08T14:34:37Z</time>
      </trkpt>
      <trkpt lat="49.01818" lon="0.07">
        <ele>78.56</ele>
        <time>2021-08-08T14:34:38Z</time>
      </trkpt>
      <trkpt lat="49.01818" lon="0.07">
        <ele>78.56</ele>
        <time>2021-08-08T14:34:39Z</time>
      </trkpt>
      <trkpt lat="49.01818" lon="0.07">
        <ele>78.56</ele>
        <time>2021-08-08T14:34:40Z</time>
      </trkpt>
      <trkpt lat="49.01818" lon="0.07">
        <ele>78.56</ele>
        <time>2021-08-08T14:34:41Z</time>
      </trkpt>
      <trkpt lat="49.01818" lon="0.07">
        <ele>78.56</ele>
        <time>2021-08-08T14:34:42Z</time>
      </trkpt>
      <trkpt lat="49.01818" lon="0.06991">
        <ele>78.56</ele>
        <time>2021-08-08T14:34:43Z</time>
      </trkpt>
      <trkpt lat="49.01818" lon="0.0699">
        <ele>78.56</ele>
        <time>2021-08-08T14:34:44Z</time>
      </trkpt>
      <trkpt lat="49.01818" lon="0.06988">
        <ele>78.56</ele>
        <time>2021-08-08T14:34:45Z</time>
      </trkpt>
      <trkpt lat="49.01818" lon="0.06988">
        <ele>78.56</ele>
        <time>2021-08-08T14:34:46Z</time>
      </trkpt>
      <trkpt lat="49.01817" lon="0.06988">
        <ele>78.57</ele>
        <time>2021-08-08T14:34:47Z</time>
      </trkpt>
      <trkpt lat="49.01817" lon="0.06988">
        <ele>78.57</ele>
        <time>2021-08-08T14:34:48Z</time>
      </trkpt>
      <trkpt lat="49.01817" lon="0.06988">
        <ele>78.57</ele>
        <time>2021-08-08T14:34:49Z</time>
      </trkpt>
      <trkpt lat="49.01817" lon="0.06988">
        <ele>78.57</ele>
        <time>2021-08-08T14:34:50Z</time>
      </trkpt>
      <trkpt lat="49.01817" lon="0.06988">
        <ele>78.57</ele>
        <time>2021-08-08T14:34:51Z</time>
      </trkpt>
      <trkpt lat="49.01817" lon="0.06988">
        <ele>78.57</ele>
        <time>2021-08-08T14:34:52Z</time>
      </trkpt>
      <trkpt lat="49.01817" lon="0.06988">
        <ele>78.57</ele>
        <time>2021-08-08T14:34:53Z</time>
      </trkpt>
      <trkpt lat="49.01817" lon="0.06988">
        <ele>78.57</ele>
        <time>2021-08-08T14:34:54Z</time>
      </trkpt>
      <trkpt lat="49.01817" lon="0.06988">
        <ele>78.57</ele>
        <time>2021-08-08T14:34:55Z</time>
      </trkpt>
      <trkpt lat="49.01817" lon="0.06988">
        <ele>78.57</ele>
        <time>2021-08-08T14:34:56Z</time>
      </trkpt>
      <trkpt lat="49.01817" lon="0.06988">
        <ele>78.57</ele>
        <time>2021-08-08T14:34:57Z</time>
      </trkpt>
      <trkpt lat="49.01817" lon="0.06988">
        <ele>78.57</ele>
        <time>2021-08-08T14:34:58Z</time>
      </trkpt>
      <trkpt lat="49.01817" lon="0.06988">
        <ele>78.57</ele>
        <time>2021-08-08T14:34:59Z</time>
      </trkpt>
      <trkpt lat="49.01817" lon="0.06988">
        <ele>78.57</ele>
        <time>2021-08-08T14:35:00Z</time>
      </trkpt>
      <trkpt lat="49.01817" lon="0.06988">
        <ele>78.57</ele>
        <time>2021-08-08T14:35:01Z</time>
      </trkpt>
      <trkpt lat="49.01817" lon="0.06988">
        <ele>78.57</ele>
        <time>2021-08-08T14:35:02Z</time>
      </trkpt>
      <trkpt lat="49.01817" lon="0.06988">
        <ele>78.57</ele>
        <time>2021-08-08T14:35:03Z</time>
      </trkpt>
      <trkpt lat="49.01817" lon="0.06988">
        <ele>78.57</ele>
        <time>2021-08-08T14:35:04Z</time>
      </trkpt>
      <trkpt lat="49.01817" lon="0.06988">
        <ele>78.57</ele>
        <time>2021-08-08T14:35:05Z</time>
      </trkpt>
      <trkpt lat="49.01817" lon="0.06988">
        <ele>78.57</ele>
        <time>2021-08-08T14:35:06Z</time>
      </trkpt>
      <trkpt lat="49.01817" lon="0.06988">
        <ele>78.57</ele>
        <time>2021-08-08T14:35:07Z</time>
      </trkpt>
      <trkpt lat="49.01817" lon="0.06988">
        <ele>78.57</ele>
        <time>2021-08-08T14:35:08Z</time>
      </trkpt>
      <trkpt lat="49.01817" lon="0.06988">
        <ele>78.57</ele>
        <time>2021-08-08T14:35:09Z</time>
      </trkpt>
      <trkpt lat="49.01817" lon="0.06974">
        <ele>78.58</ele>
        <time>2021-08-08T14:35:10Z</time>
      </trkpt>
      <trkpt lat="49.01817" lon="0.06973">
        <ele>78.58</ele>
        <time>2021-08-08T14:35:11Z</time>
      </trkpt>
      <trkpt lat="49.01817" lon="0.06973">
        <ele>78.57</ele>
        <time>2021-08-08T14:35:12Z</time>
      </trkpt>
      <trkpt lat="49.01818" lon="0.06973">
        <ele>78.57</ele>
        <time>2021-08-08T14:35:13Z</time>
      </trkpt>
      <trkpt lat="49.01818" lon="0.06973">
        <ele>78.56</ele>
        <time>2021-08-08T14:35:14Z</time>
      </trkpt>
      <trkpt lat="49.01818" lon="0.06973">
        <ele>78.56</ele>
        <time>2021-08-08T14:35:15Z</time>
      </trkpt>
      <trkpt lat="49.01818" lon="0.06973">
        <ele>78.56</ele>
        <time>2021-08-08T14:35:16Z</time>
      </trkpt>
      <trkpt lat="49.01818" lon="0.06973">
        <ele>78.56</ele>
        <time>2021-08-08T14:35:17Z</time>
      </trkpt>
      <trkpt lat="49.01818" lon="0.06973">
        <ele>78.56</ele>
        <time>2021-08-08T14:35:18Z</time>
      </trkpt>
      <trkpt lat="49.01818" lon="0.06973">
        <ele>78.56</ele>
        <time>2021-08-08T14:35:19Z</time>
      </trkpt>
      <trkpt lat="49.01818" lon="0.06973">
        <ele>78.56</ele>
        <time>2021-08-08T14:35:20Z</time>
      </trkpt>
      <trkpt lat="49.01818" lon="0.06973">
        <ele>78.56</ele>
        <time>2021-08-08T14:35:21Z</time>
      </trkpt>
      <trkpt lat="49.01818" lon="0.06973">
        <ele>78.56</ele>
        <time>2021-08-08T14:35:22Z</time>
      </trkpt>
      <trkpt lat="49.01823" lon="0.06961">
        <ele>78.43</ele>
        <time>2021-08-08T14:35:23Z</time>
      </trkpt>
      <trkpt lat="49.01824" lon="0.0696">
        <ele>78.37</ele>
        <time>2021-08-08T14:35:24Z</time>
      </trkpt>
      <trkpt lat="49.01824" lon="0.0696">
        <ele>78.34</ele>
        <time>2021-08-08T14:35:25Z</time>
      </trkpt>
      <trkpt lat="49.01824" lon="0.06959">
        <ele>78.33</ele>
        <time>2021-08-08T14:35:26Z</time>
      </trkpt>
      <trkpt lat="49.01824" lon="0.06959">
        <ele>78.33</ele>
        <time>2021-08-08T14:35:27Z</time>
      </trkpt>
      <trkpt lat="49.01824" lon="0.06959">
        <ele>78.32</ele>
        <time>2021-08-08T14:35:28Z</time>
      </trkpt>
      <trkpt lat="49.01824" lon="0.06959">
        <ele>78.32</ele>
        <time>2021-08-08T14:35:29Z</time>
      </trkpt>
      <trkpt lat="49.01824" lon="0.06959">
        <ele>78.32</ele>
        <time>2021-08-08T14:35:30Z</time>
      </trkpt>
      <trkpt lat="49.01824" lon="0.06959">
        <ele>78.32</ele>
        <time>2021-08-08T14:35:31Z</time>
      </trkpt>
      <trkpt lat="49.01824" lon="0.06959">
        <ele>78.32</ele>
        <time>2021-08-08T14:35:32Z</time>
      </trkpt>
      <trkpt lat="49.01824" lon="0.06959">
        <ele>78.32</ele>
        <time>2021-08-08T14:35:33Z</time>
      </trkpt>
      <trkpt lat="49.01824" lon="0.06959">
        <ele>78.32</ele>
        <time>2021-08-08T14:35:34Z</time>
      </trkpt>
      <trkpt lat="49.01824" lon="0.06959">
        <ele>78.32</ele>
        <time>2021-08-08T14:35:35Z</time>
      </trkpt>
      <trkpt lat="49.01824" lon="0.06959">
        <ele>78.32</ele>
        <time>2021-08-08T14:35:36Z</time>
      </trkpt>
      <trkpt lat="49.01824" lon="0.06959">
        <ele>78.32</ele>
        <time>2021-08-08T14:35:37Z</time>
      </trkpt>
      <trkpt lat="49.01824" lon="0.06959">
        <ele>78.32</ele>
        <time>2021-08-08T14:35:38Z</time>
      </trkpt>
      <trkpt lat="49.01824" lon="0.06944">
        <ele>78.34</ele>
        <time>2021-08-08T14:35:39Z</time>
      </trkpt>
      <trkpt lat="49.01824" lon="0.06943">
        <ele>78.37</ele>
        <time>2021-08-08T14:35:40Z</time>
      </trkpt>
      <trkpt lat="49.01824" lon="0.06941">
        <ele>78.4</ele>
        <time>2021-08-08T14:35:41Z</time>
      </trkpt>
      <trkpt lat="49.01824" lon="0.0694">
        <ele>78.44</ele>
        <time>2021-08-08T14:35:42Z</time>
      </trkpt>
      <trkpt lat="49.01824" lon="0.0694">
        <ele>78.45</ele>
        <time>2021-08-08T14:35:43Z</time>
      </trkpt>
      <trkpt lat="49.01824" lon="0.0694">
        <ele>78.45</ele>
        <time>2021-08-08T14:35:44Z</time>
      </trkpt>
      <trkpt lat="49.01824" lon="0.0694">
        <ele>78.45</ele>
        <time>2021-08-08T14:35:45Z</time>
      </trkpt>
      <trkpt lat="49.01824" lon="0.0694">
        <ele>78.45</ele>
        <time>2021-08-08T14:35:46Z</time>
      </trkpt>
      <trkpt lat="49.01824" lon="0.0694">
        <ele>78.45</ele>
        <time>2021-08-08T14:35:47Z</time>
      </trkpt>
      <trkpt lat="49.01824" lon="0.0694">
        <ele>78.45</ele>
        <time>2021-08-08T14:35:48Z</time>
      </trkpt>
      <trkpt lat="49.01824" lon="0.0694">
        <ele>78.45</ele>
        <time>2021-08-08T14:35:49Z</time>
      </trkpt>
      <trkpt lat="49.01824" lon="0.0694">
        <ele>78.45</ele>
        <time>2021-08-08T14:35:50Z</time>
      </trkpt>
      <trkpt lat="49.01824" lon="0.0694">
        <ele>78.45</ele>
        <time>2021-08-08T14:35:51Z</time>
      </trkpt>
      <trkpt lat="49.01824" lon="0.0694">
        <ele>78.45</ele>
        <time>2021-08-08T14:35:52Z</time>
      </trkpt>
      <trkpt lat="49.01824" lon="0.0694">
        <ele>78.45</ele>
        <time>2021-08-08T14:35:53Z</time>
      </trkpt>
      <trkpt lat="49.01824" lon="0.0694">
        <ele>78.45</ele>
        <time>2021-08-08T14:35:54Z</time>
      </trkpt>
      <trkpt lat="49.01824" lon="0.0694">
        <ele>78.45</ele>
        <time>2021-08-08T14:35:55Z</time>
      </trkpt>
      <trkpt lat="49.01824" lon="0.06926">
        <ele>78.68</ele>
        <time>2021-08-08T14:35:56Z</time>
      </trkpt>
      <trkpt lat="49.01825" lon="0.06926">
        <ele>78.74</ele>
        <time>2021-08-08T14:35:57Z</time>
      </trkpt>
      <trkpt lat="49.01825" lon="0.06926">
        <ele>78.76</ele>
        <time>2021-08-08T14:35:58Z</time>
      </trkpt>
      <trkpt lat="49.01825" lon="0.06926">
        <ele>78.76</ele>
        <time>2021-08-08T14:35:59Z</time>
      </trkpt>
      <trkpt lat="49.01825" lon="0.06926">
        <ele>78.77</ele>
        <time>2021-08-08T14:36:00Z</time>
      </trkpt>
      <trkpt lat="49.01825" lon="0.06926">
        <ele>78.77</ele>
        <time>2021-08-08T14:36:01Z</time>
      </trkpt>
      <trkpt lat="49.01825" lon="0.06926">
        <ele>78.77</ele>
        <time>2021-08-08T14:36:02Z</time>
      </trkpt>
      <trkpt lat="49.01825" lon="0.06926">
        <ele>78.77</ele>
        <time>2021-08-08T14:36:03Z</time>
      </trkpt>
      <trkpt lat="49.01825" lon="0.06926">
        <ele>78.77</ele>
        <time>2021-08-08T14:36:04Z</time>
      </trkpt>
      <trkpt lat="49.01825" lon="0.06926">
        <ele>78.77</ele>
        <time>2021-08-08T14:36:05Z</time>
      </trkpt>
      <trkpt lat="49.01825" lon="0.06926">
        <ele>78.77</ele>
        <time>2021-08-08T14:36:06Z</time>
      </trkpt>
      <trkpt lat="49.01825" lon="0.06926">
        <ele>78.77</ele>
        <time>2021-08-08T14:36:07Z</time>
      </trkpt>
      <trkpt lat="49.01825" lon="0.06926">
        <ele>78.77</ele>
        <time>2021-08-08T14:36:08Z</time>
      </trkpt>
      <trkpt lat="49.01825" lon="0.06926">
        <ele>78.77</ele>
        <time>2021-08-08T14:36:09Z</time>
      </trkpt>
      <trkpt lat="49.01825" lon="0.06926">
        <ele>78.77</ele>
        <time>2021-08-08T14:36:10Z</time>
      </trkpt>
      <trkpt lat="49.01825" lon="0.06926">
        <ele>78.77</ele>
        <time>2021-08-08T14:36:11Z</time>
      </trkpt>
      <trkpt lat="49.01825" lon="0.06926">
        <ele>78.77</ele>
        <time>2021-08-08T14:36:12Z</time>
      </trkpt>
      <trkpt lat="49.01825" lon="0.06926">
        <ele>78.77</ele>
        <time>2021-08-08T14:36:13Z</time>
      </trkpt>
      <trkpt lat="49.01825" lon="0.06926">
        <ele>78.77</ele>
        <time>2021-08-08T14:36:14Z</time>
      </trkpt>
      <trkpt lat="49.01825" lon="0.06926">
        <ele>78.77</ele>
        <time>2021-08-08T14:36:15Z</time>
      </trkpt>
      <trkpt lat="49.01825" lon="0.06926">
        <ele>78.77</ele>
        <time>2021-08-08T14:36:16Z</time>
      </trkpt>
      <trkpt lat="49.01826" lon="0.06912">
        <ele>78.93</ele>
        <time>2021-08-08T14:36:17Z</time>
      </trkpt>
      <trkpt lat="49.01825" lon="0.06909">
        <ele>78.98</ele>
        <time>2021-08-08T14:36:18Z</time>
      </trkpt>
      <trkpt lat="49.01826" lon="0.06908">
        <ele>78.99</ele>
        <time>2021-08-08T14:36:19Z</time>
      </trkpt>
      <trkpt lat="49.01826" lon="0.06907">
        <ele>79</ele>
        <time>2021-08-08T14:36:20Z</time>
      </trkpt>
      <trkpt lat="49.01826" lon="0.06907">
        <ele>79</ele>
        <time>2021-08-08T14:36:21Z</time>
      </trkpt>
      <trkpt lat="49.01826" lon="0.06907">
        <ele>79</ele>
        <time>2021-08-08T14:36:22Z</time>
      </trkpt>
      <trkpt lat="49.01826" lon="0.06907">
        <ele>79</ele>
        <time>2021-08-08T14:36:23Z</time>
      </trkpt>
      <trkpt lat="49.01826" lon="0.06907">
        <ele>79</ele>
        <time>2021-08-08T14:36:24Z</time>
      </trkpt>
      <trkpt lat="49.01826" lon="0.06907">
        <ele>79</ele>
        <time>2021-08-08T14:36:25Z</time>
      </trkpt>
      <trkpt lat="49.01826" lon="0.06907">
        <ele>79</ele>
        <time>2021-08-08T14:36:26Z</time>
      </trkpt>
      <trkpt lat="49.01826" lon="0.06907">
        <ele>79</ele>
        <time>2021-08-08T14:36:27Z</time>
      </trkpt>
      <trkpt lat="49.01826" lon="0.06907">
        <ele>79</ele>
        <time>2021-08-08T14:36:28Z</time>
      </trkpt>
      <trkpt lat="49.01826" lon="0.06907">
        <ele>79</ele>
        <time>2021-08-08T14:36:29Z</time>
      </trkpt>
      <trkpt lat="49.01828" lon="0.06892">
        <ele>79</ele>
        <time>2021-08-08T14:36:30Z</time>
      </trkpt>
      <trkpt lat="49.01827" lon="0.0689">
        <ele>79</ele>
        <time>2021-08-08T14:36:31Z</time>
      </trkpt>
      <trkpt lat="49.01828" lon="0.06888">
        <ele>79.03</ele>
        <time>2021-08-08T14:36:32Z</time>
      </trkpt>
      <trkpt lat="49.01828" lon="0.06886">
        <ele>79.09</ele>
        <time>2021-08-08T14:36:33Z</time>
      </trkpt>
      <trkpt lat="49.01828" lon="0.06886">
        <ele>79.1</ele>
        <time>2021-08-08T14:36:34Z</time>
      </trkpt>
      <trkpt lat="49.01828" lon="0.06886">
        <ele>79.11</ele>
        <time>2021-08-08T14:36:35Z</time>
      </trkpt>
      <trkpt lat="49.01828" lon="0.06886">
        <ele>79.11</ele>
        <time>2021-08-08T14:36:36Z</time>
      </trkpt>
      <trkpt lat="49.01828" lon="0.06886">
        <ele>79.11</ele>
        <time>2021-08-08T14:36:37Z</time>
      </trkpt>
      <trkpt lat="49.01828" lon="0.06886">
        <ele>79.11</ele>
        <time>2021-08-08T14:36:38Z</time>
      </trkpt>
      <trkpt lat="49.01828" lon="0.06886">
        <ele>79.11</ele>
        <time>2021-08-08T14:36:39Z</time>
      </trkpt>
      <trkpt lat="49.01828" lon="0.06886">
        <ele>79.11</ele>
        <time>2021-08-08T14:36:40Z</time>
      </trkpt>
      <trkpt lat="49.01828" lon="0.06886">
        <ele>79.11</ele>
        <time>2021-08-08T14:36:41Z</time>
      </trkpt>
      <trkpt lat="49.01828" lon="0.06886">
        <ele>79.11</ele>
        <time>2021-08-08T14:36:42Z</time>
      </trkpt>
      <trkpt lat="49.01828" lon="0.06886">
        <ele>79.11</ele>
        <time>2021-08-08T14:36:43Z</time>
      </trkpt>
      <trkpt lat="49.01828" lon="0.06886">
        <ele>79.11</ele>
        <time>2021-08-08T14:36:44Z</time>
      </trkpt>
      <trkpt lat="49.01828" lon="0.06886">
        <ele>79.11</ele>
        <time>2021-08-08T14:36:45Z</time>
      </trkpt>
      <trkpt lat="49.01828" lon="0.06886">
        <ele>79.11</ele>
        <time>2021-08-08T14:36:46Z</time>
      </trkpt>
      <trkpt lat="49.01828" lon="0.06886">
        <ele>79.11</ele>
        <time>2021-08-08T14:36:47Z</time>
      </trkpt>
      <trkpt lat="49.01828" lon="0.06886">
        <ele>79.11</ele>
        <time>2021-08-08T14:36:48Z</time>
      </trkpt>
      <trkpt lat="49.01828" lon="0.06886">
        <ele>79.11</ele>
        <time>2021-08-08T14:36:49Z</time>
      </trkpt>
      <trkpt lat="49.01828" lon="0.06886">
        <ele>79.11</ele>
        <time>2021-08-08T14:36:50Z</time>
      </trkpt>
      <trkpt lat="49.01828" lon="0.06886">
        <ele>79.11</ele>
        <time>2021-08-08T14:36:51Z</time>
      </trkpt>
      <trkpt lat="49.01828" lon="0.06886">
        <ele>79.11</ele>
        <time>2021-08-08T14:36:52Z</time>
      </trkpt>
      <trkpt lat="49.01828" lon="0.06886">
        <ele>79.11</ele>
        <time>2021-08-08T14:36:53Z</time>
      </trkpt>
      <trkpt lat="49.01828" lon="0.06886">
        <ele>79.11</ele>
        <time>2021-08-08T14:36:54Z</time>
      </trkpt>
      <trkpt lat="49.01828" lon="0.06886">
        <ele>79.11</ele>
        <time>2021-08-08T14:36:55Z</time>
      </trkpt>
      <trkpt lat="49.01828" lon="0.06886">
        <ele>79.11</ele>
        <time>2021-08-08T14:36:56Z</time>
      </trkpt>
      <trkpt lat="49.01828" lon="0.06886">
        <ele>79.11</ele>
        <time>2021-08-08T14:36:57Z</time>
      </trkpt>
      <trkpt lat="49.01828" lon="0.06886">
        <ele>79.11</ele>
        <time>2021-08-08T14:36:58Z</time>
      </trkpt>
      <trkpt lat="49.01828" lon="0.06886">
        <ele>79.11</ele>
        <time>2021-08-08T14:36:59Z</time>
      </trkpt>
      <trkpt lat="49.01828" lon="0.06886">
        <ele>79.11</ele>
        <time>2021-08-08T14:37:00Z</time>
      </trkpt>
      <trkpt lat="49.01825" lon="0.06875">
        <ele>79.38</ele>
        <time>2021-08-08T14:37:01Z</time>
      </trkpt>
      <trkpt lat="49.01823" lon="0.06875">
        <ele>79.46</ele>
        <time>2021-08-08T14:37:02Z</time>
      </trkpt>
      <trkpt lat="49.01822" lon="0.06875">
        <ele>79.49</ele>
        <time>2021-08-08T14:37:03Z</time>
      </trkpt>
      <trkpt lat="49.01821" lon="0.06875">
        <ele>79.5</ele>
        <time>2021-08-08T14:37:04Z</time>
      </trkpt>
      <trkpt lat="49.0182" lon="0.06875">
        <ele>79.5</ele>
        <time>2021-08-08T14:37:05Z</time>
      </trkpt>
      <trkpt lat="49.01818" lon="0.06876">
        <ele>79.48</ele>
        <time>2021-08-08T14:37:06Z</time>
      </trkpt>
      <trkpt lat="49.01816" lon="0.06876">
        <ele>79.46</ele>
        <time>2021-08-08T14:37:07Z</time>
      </trkpt>
      <trkpt lat="49.01814" lon="0.06876">
        <ele>79.46</ele>
        <time>2021-08-08T14:37:08Z</time>
      </trkpt>
      <trkpt lat="49.01813" lon="0.06877">
        <ele>79.44</ele>
        <time>2021-08-08T14:37:09Z</time>
      </trkpt>
      <trkpt lat="49.01811" lon="0.06878">
        <ele>79.42</ele>
        <time>2021-08-08T14:37:10Z</time>
      </trkpt>
      <trkpt lat="49.01808" lon="0.06878">
        <ele>79.39</ele>
        <time>2021-08-08T14:37:11Z</time>
      </trkpt>
      <trkpt lat="49.01806" lon="0.06879">
        <ele>79.37</ele>
        <time>2021-08-08T14:37:12Z</time>
      </trkpt>
      <trkpt lat="49.01804" lon="0.0688">
        <ele>79.37</ele>
        <time>2021-08-08T14:37:13Z</time>
      </trkpt>
      <trkpt lat="49.01802" lon="0.06879">
        <ele>79.4</ele>
        <time>2021-08-08T14:37:14Z</time>
      </trkpt>
      <trkpt lat="49.01801" lon="0.06878">
        <ele>79.46</ele>
        <time>2021-08-08T14:37:15Z</time>
      </trkpt>
      <trkpt lat="49.01799" lon="0.06876">
        <ele>79.55</ele>
        <time>2021-08-08T14:37:16Z</time>
      </trkpt>
      <trkpt lat="49.01798" lon="0.06873">
        <ele>79.65</ele>
        <time>2021-08-08T14:37:17Z</time>
      </trkpt>
      <trkpt lat="49.01799" lon="0.06869">
        <ele>79.75</ele>
        <time>2021-08-08T14:37:18Z</time>
      </trkpt>
      <trkpt lat="49.01799" lon="0.06865">
        <ele>79.86</ele>
        <time>2021-08-08T14:37:19Z</time>
      </trkpt>
      <trkpt lat="49.01801" lon="0.0686">
        <ele>79.99</ele>
        <time>2021-08-08T14:37:20Z</time>
      </trkpt>
      <trkpt lat="49.01802" lon="0.06855">
        <ele>80.14</ele>
        <time>2021-08-08T14:37:21Z</time>
      </trkpt>
      <trkpt lat="49.01803" lon="0.0685">
        <ele>80.31</ele>
        <time>2021-08-08T14:37:22Z</time>
      </trkpt>
      <trkpt lat="49.01804" lon="0.06846">
        <ele>80.49</ele>
        <time>2021-08-08T14:37:23Z</time>
      </trkpt>
      <trkpt lat="49.01805" lon="0.06841">
        <ele>80.66</ele>
        <time>2021-08-08T14:37:24Z</time>
      </trkpt>
      <trkpt lat="49.01806" lon="0.06836">
        <ele>80.83</ele>
        <time>2021-08-08T14:37:25Z</time>
      </trkpt>
      <trkpt lat="49.01807" lon="0.06832">
        <ele>81</ele>
        <time>2021-08-08T14:37:26Z</time>
      </trkpt>
      <trkpt lat="49.01808" lon="0.06826">
        <ele>81.17</ele>
        <time>2021-08-08T14:37:27Z</time>
      </trkpt>
      <trkpt lat="49.01809" lon="0.06822">
        <ele>81.35</ele>
        <time>2021-08-08T14:37:28Z</time>
      </trkpt>
      <trkpt lat="49.01811" lon="0.06817">
        <ele>81.52</ele>
        <time>2021-08-08T14:37:29Z</time>
      </trkpt>
      <trkpt lat="49.01811" lon="0.06812">
        <ele>81.71</ele>
        <time>2021-08-08T14:37:30Z</time>
      </trkpt>
      <trkpt lat="49.01812" lon="0.06806">
        <ele>81.89</ele>
        <time>2021-08-08T14:37:31Z</time>
      </trkpt>
      <trkpt lat="49.01813" lon="0.06802">
        <ele>82.1</ele>
        <time>2021-08-08T14:37:32Z</time>
      </trkpt>
      <trkpt lat="49.01814" lon="0.06796">
        <ele>82.33</ele>
        <time>2021-08-08T14:37:33Z</time>
      </trkpt>
      <trkpt lat="49.01815" lon="0.06792">
        <ele>82.56</ele>
        <time>2021-08-08T14:37:34Z</time>
      </trkpt>
      <trkpt lat="49.01816" lon="0.06787">
        <ele>82.8</ele>
        <time>2021-08-08T14:37:35Z</time>
      </trkpt>
      <trkpt lat="49.01817" lon="0.06783">
        <ele>83.04</ele>
        <time>2021-08-08T14:37:36Z</time>
      </trkpt>
      <trkpt lat="49.01817" lon="0.06779">
        <ele>83.24</ele>
        <time>2021-08-08T14:37:37Z</time>
      </trkpt>
      <trkpt lat="49.01816" lon="0.06776">
        <ele>83.4</ele>
        <time>2021-08-08T14:37:38Z</time>
      </trkpt>
      <trkpt lat="49.01815" lon="0.06772">
        <ele>83.5</ele>
        <time>2021-08-08T14:37:39Z</time>
      </trkpt>
      <trkpt lat="49.01813" lon="0.0677">
        <ele>83.53</ele>
        <time>2021-08-08T14:37:40Z</time>
      </trkpt>
      <trkpt lat="49.01811" lon="0.06767">
        <ele>83.55</ele>
        <time>2021-08-08T14:37:41Z</time>
      </trkpt>
      <trkpt lat="49.01808" lon="0.06765">
        <ele>83.55</ele>
        <time>2021-08-08T14:37:42Z</time>
      </trkpt>
      <trkpt lat="49.01807" lon="0.06761">
        <ele>83.6</ele>
        <time>2021-08-08T14:37:43Z</time>
      </trkpt>
      <trkpt lat="49.01805" lon="0.06757">
        <ele>83.7</ele>
        <time>2021-08-08T14:37:44Z</time>
      </trkpt>
      <trkpt lat="49.01804" lon="0.06753">
        <ele>83.84</ele>
        <time>2021-08-08T14:37:45Z</time>
      </trkpt>
      <trkpt lat="49.01803" lon="0.06749">
        <ele>83.99</ele>
        <time>2021-08-08T14:37:46Z</time>
      </trkpt>
      <trkpt lat="49.01801" lon="0.06745">
        <ele>84.13</ele>
        <time>2021-08-08T14:37:47Z</time>
      </trkpt>
      <trkpt lat="49.01799" lon="0.06741">
        <ele>84.26</ele>
        <time>2021-08-08T14:37:48Z</time>
      </trkpt>
      <trkpt lat="49.01798" lon="0.06737">
        <ele>84.41</ele>
        <time>2021-08-08T14:37:49Z</time>
      </trkpt>
      <trkpt lat="49.01796" lon="0.06732">
        <ele>84.57</ele>
        <time>2021-08-08T14:37:50Z</time>
      </trkpt>
      <trkpt lat="49.01795" lon="0.06727">
        <ele>84.75</ele>
        <time>2021-08-08T14:37:51Z</time>
      </trkpt>
      <trkpt lat="49.01794" lon="0.06722">
        <ele>84.92</ele>
        <time>2021-08-08T14:37:52Z</time>
      </trkpt>
      <trkpt lat="49.01793" lon="0.06718">
        <ele>85.09</ele>
        <time>2021-08-08T14:37:53Z</time>
      </trkpt>
      <trkpt lat="49.01792" lon="0.06713">
        <ele>85.25</ele>
        <time>2021-08-08T14:37:54Z</time>
      </trkpt>
      <trkpt lat="49.01791" lon="0.06709">
        <ele>85.41</ele>
        <time>2021-08-08T14:37:55Z</time>
      </trkpt>
      <trkpt lat="49.0179" lon="0.06704">
        <ele>85.58</ele>
        <time>2021-08-08T14:37:56Z</time>
      </trkpt>
      <trkpt lat="49.01789" lon="0.06699">
        <ele>85.76</ele>
        <time>2021-08-08T14:37:57Z</time>
      </trkpt>
      <trkpt lat="49.01788" lon="0.06694">
        <ele>85.95</ele>
        <time>2021-08-08T14:37:58Z</time>
      </trkpt>
      <trkpt lat="49.01788" lon="0.06688">
        <ele>86.13</ele>
        <time>2021-08-08T14:37:59Z</time>
      </trkpt>
      <trkpt lat="49.01787" lon="0.06684">
        <ele>86.3</ele>
        <time>2021-08-08T14:38:00Z</time>
      </trkpt>
      <trkpt lat="49.01787" lon="0.0668">
        <ele>86.45</ele>
        <time>2021-08-08T14:38:01Z</time>
      </trkpt>
      <trkpt lat="49.01787" lon="0.06676">
        <ele>86.59</ele>
        <time>2021-08-08T14:38:02Z</time>
      </trkpt>
      <trkpt lat="49.01787" lon="0.06672">
        <ele>86.74</ele>
        <time>2021-08-08T14:38:03Z</time>
      </trkpt>
      <trkpt lat="49.01786" lon="0.06669">
        <ele>86.87</ele>
        <time>2021-08-08T14:38:04Z</time>
      </trkpt>
      <trkpt lat="49.01786" lon="0.06665">
        <ele>87.02</ele>
        <time>2021-08-08T14:38:05Z</time>
      </trkpt>
      <trkpt lat="49.01786" lon="0.06662">
        <ele>87.22</ele>
        <time>2021-08-08T14:38:06Z</time>
      </trkpt>
      <trkpt lat="49.01786" lon="0.06659">
        <ele>87.43</ele>
        <time>2021-08-08T14:38:07Z</time>
      </trkpt>
      <trkpt lat="49.01786" lon="0.06656">
        <ele>87.66</ele>
        <time>2021-08-08T14:38:08Z</time>
      </trkpt>
      <trkpt lat="49.01785" lon="0.06653">
        <ele>87.9</ele>
        <time>2021-08-08T14:38:09Z</time>
      </trkpt>
      <trkpt lat="49.01785" lon="0.06649">
        <ele>88.17</ele>
        <time>2021-08-08T14:38:10Z</time>
      </trkpt>
      <trkpt lat="49.01785" lon="0.06645">
        <ele>88.44</ele>
        <time>2021-08-08T14:38:11Z</time>
      </trkpt>
      <trkpt lat="49.01785" lon="0.06642">
        <ele>88.7</ele>
        <time>2021-08-08T14:38:12Z</time>
      </trkpt>
      <trkpt lat="49.01785" lon="0.06638">
        <ele>88.96</ele>
        <time>2021-08-08T14:38:13Z</time>
      </trkpt>
      <trkpt lat="49.01784" lon="0.06635">
        <ele>89.26</ele>
        <time>2021-08-08T14:38:14Z</time>
      </trkpt>
      <trkpt lat="49.01784" lon="0.06632">
        <ele>89.57</ele>
        <time>2021-08-08T14:38:15Z</time>
      </trkpt>
      <trkpt lat="49.01783" lon="0.06629">
        <ele>89.89</ele>
        <time>2021-08-08T14:38:16Z</time>
      </trkpt>
      <trkpt lat="49.01783" lon="0.06626">
        <ele>90.22</ele>
        <time>2021-08-08T14:38:17Z</time>
      </trkpt>
      <trkpt lat="49.01782" lon="0.06622">
        <ele>90.54</ele>
        <time>2021-08-08T14:38:18Z</time>
      </trkpt>
      <trkpt lat="49.01782" lon="0.06619">
        <ele>90.87</ele>
        <time>2021-08-08T14:38:19Z</time>
      </trkpt>
      <trkpt lat="49.01781" lon="0.06616">
        <ele>91.21</ele>
        <time>2021-08-08T14:38:20Z</time>
      </trkpt>
      <trkpt lat="49.0178" lon="0.06613">
        <ele>91.54</ele>
        <time>2021-08-08T14:38:21Z</time>
      </trkpt>
      <trkpt lat="49.0178" lon="0.0661">
        <ele>91.86</ele>
        <time>2021-08-08T14:38:22Z</time>
      </trkpt>
      <trkpt lat="49.01779" lon="0.06607">
        <ele>92.2</ele>
        <time>2021-08-08T14:38:23Z</time>
      </trkpt>
      <trkpt lat="49.01778" lon="0.06604">
        <ele>92.57</ele>
        <time>2021-08-08T14:38:24Z</time>
      </trkpt>
      <trkpt lat="49.01778" lon="0.06601">
        <ele>92.96</ele>
        <time>2021-08-08T14:38:25Z</time>
      </trkpt>
      <trkpt lat="49.01777" lon="0.06597">
        <ele>93.33</ele>
        <time>2021-08-08T14:38:26Z</time>
      </trkpt>
      <trkpt lat="49.01776" lon="0.06594">
        <ele>93.71</ele>
        <time>2021-08-08T14:38:27Z</time>
      </trkpt>
      <trkpt lat="49.01775" lon="0.0659">
        <ele>94.08</ele>
        <time>2021-08-08T14:38:28Z</time>
      </trkpt>
      <trkpt lat="49.01775" lon="0.06587">
        <ele>94.46</ele>
        <time>2021-08-08T14:38:29Z</time>
      </trkpt>
      <trkpt lat="49.01774" lon="0.06583">
        <ele>94.84</ele>
        <time>2021-08-08T14:38:30Z</time>
      </trkpt>
      <trkpt lat="49.01773" lon="0.0658">
        <ele>95.12</ele>
        <time>2021-08-08T14:38:31Z</time>
      </trkpt>
      <trkpt lat="49.01772" lon="0.06577">
        <ele>95.37</ele>
        <time>2021-08-08T14:38:32Z</time>
      </trkpt>
      <trkpt lat="49.01772" lon="0.06574">
        <ele>95.61</ele>
        <time>2021-08-08T14:38:33Z</time>
      </trkpt>
      <trkpt lat="49.01771" lon="0.06571">
        <ele>95.87</ele>
        <time>2021-08-08T14:38:34Z</time>
      </trkpt>
      <trkpt lat="49.01771" lon="0.06568">
        <ele>96.14</ele>
        <time>2021-08-08T14:38:35Z</time>
      </trkpt>
      <trkpt lat="49.0177" lon="0.06565">
        <ele>96.4</ele>
        <time>2021-08-08T14:38:36Z</time>
      </trkpt>
      <trkpt lat="49.0177" lon="0.06562">
        <ele>96.66</ele>
        <time>2021-08-08T14:38:37Z</time>
      </trkpt>
      <trkpt lat="49.01769" lon="0.06559">
        <ele>96.93</ele>
        <time>2021-08-08T14:38:38Z</time>
      </trkpt>
      <trkpt lat="49.01768" lon="0.06556">
        <ele>97.22</ele>
        <time>2021-08-08T14:38:39Z</time>
      </trkpt>
      <trkpt lat="49.01767" lon="0.06552">
        <ele>97.49</ele>
        <time>2021-08-08T14:38:40Z</time>
      </trkpt>
      <trkpt lat="49.01767" lon="0.06549">
        <ele>97.77</ele>
        <time>2021-08-08T14:38:41Z</time>
      </trkpt>
      <trkpt lat="49.01766" lon="0.06546">
        <ele>98.02</ele>
        <time>2021-08-08T14:38:42Z</time>
      </trkpt>
      <trkpt lat="49.01765" lon="0.06543">
        <ele>98.26</ele>
        <time>2021-08-08T14:38:43Z</time>
      </trkpt>
      <trkpt lat="49.01765" lon="0.0654">
        <ele>98.49</ele>
        <time>2021-08-08T14:38:44Z</time>
      </trkpt>
      <trkpt lat="49.01764" lon="0.06537">
        <ele>98.72</ele>
        <time>2021-08-08T14:38:45Z</time>
      </trkpt>
      <trkpt lat="49.01764" lon="0.06534">
        <ele>98.93</ele>
        <time>2021-08-08T14:38:46Z</time>
      </trkpt>
      <trkpt lat="49.01764" lon="0.06532">
        <ele>99.1</ele>
        <time>2021-08-08T14:38:47Z</time>
      </trkpt>
      <trkpt lat="49.01765" lon="0.0653">
        <ele>99.26</ele>
        <time>2021-08-08T14:38:48Z</time>
      </trkpt>
      <trkpt lat="49.01766" lon="0.06527">
        <ele>99.39</ele>
        <time>2021-08-08T14:38:49Z</time>
      </trkpt>
      <trkpt lat="49.01767" lon="0.06524">
        <ele>99.49</ele>
        <time>2021-08-08T14:38:50Z</time>
      </trkpt>
      <trkpt lat="49.01768" lon="0.06521">
        <ele>99.56</ele>
        <time>2021-08-08T14:38:51Z</time>
      </trkpt>
      <trkpt lat="49.01769" lon="0.06517">
        <ele>99.65</ele>
        <time>2021-08-08T14:38:52Z</time>
      </trkpt>
      <trkpt lat="49.0177" lon="0.06514">
        <ele>99.76</ele>
        <time>2021-08-08T14:38:53Z</time>
      </trkpt>
      <trkpt lat="49.0177" lon="0.06511">
        <ele>99.86</ele>
        <time>2021-08-08T14:38:54Z</time>
      </trkpt>
      <trkpt lat="49.0177" lon="0.06507">
        <ele>99.97</ele>
        <time>2021-08-08T14:38:55Z</time>
      </trkpt>
      <trkpt lat="49.0177" lon="0.06504">
        <ele>100.1</ele>
        <time>2021-08-08T14:38:56Z</time>
      </trkpt>
      <trkpt lat="49.01769" lon="0.065">
        <ele>100.25</ele>
        <time>2021-08-08T14:38:57Z</time>
      </trkpt>
      <trkpt lat="49.01768" lon="0.06497">
        <ele>100.41</ele>
        <time>2021-08-08T14:38:58Z</time>
      </trkpt>
      <trkpt lat="49.01768" lon="0.06493">
        <ele>100.55</ele>
        <time>2021-08-08T14:38:59Z</time>
      </trkpt>
      <trkpt lat="49.01767" lon="0.06489">
        <ele>100.72</ele>
        <time>2021-08-08T14:39:00Z</time>
      </trkpt>
      <trkpt lat="49.01766" lon="0.06485">
        <ele>100.9</ele>
        <time>2021-08-08T14:39:01Z</time>
      </trkpt>
      <trkpt lat="49.01765" lon="0.06481">
        <ele>101.08</ele>
        <time>2021-08-08T14:39:02Z</time>
      </trkpt>
      <trkpt lat="49.01764" lon="0.06477">
        <ele>101.26</ele>
        <time>2021-08-08T14:39:03Z</time>
      </trkpt>
      <trkpt lat="49.01763" lon="0.06473">
        <ele>101.44</ele>
        <time>2021-08-08T14:39:04Z</time>
      </trkpt>
      <trkpt lat="49.01762" lon="0.06469">
        <ele>101.63</ele>
        <time>2021-08-08T14:39:05Z</time>
      </trkpt>
      <trkpt lat="49.01761" lon="0.06464">
        <ele>101.82</ele>
        <time>2021-08-08T14:39:06Z</time>
      </trkpt>
      <trkpt lat="49.0176" lon="0.0646">
        <ele>102.01</ele>
        <time>2021-08-08T14:39:07Z</time>
      </trkpt>
      <trkpt lat="49.01759" lon="0.06456">
        <ele>102.19</ele>
        <time>2021-08-08T14:39:08Z</time>
      </trkpt>
      <trkpt lat="49.01758" lon="0.06451">
        <ele>102.38</ele>
        <time>2021-08-08T14:39:09Z</time>
      </trkpt>
      <trkpt lat="49.01758" lon="0.06446">
        <ele>102.57</ele>
        <time>2021-08-08T14:39:10Z</time>
      </trkpt>
      <trkpt lat="49.01756" lon="0.06442">
        <ele>102.71</ele>
        <time>2021-08-08T14:39:11Z</time>
      </trkpt>
      <trkpt lat="49.01755" lon="0.06438">
        <ele>102.78</ele>
        <time>2021-08-08T14:39:12Z</time>
      </trkpt>
      <trkpt lat="49.01754" lon="0.06433">
        <ele>102.83</ele>
        <time>2021-08-08T14:39:13Z</time>
      </trkpt>
      <trkpt lat="49.01753" lon="0.06429">
        <ele>102.88</ele>
        <time>2021-08-08T14:39:14Z</time>
      </trkpt>
      <trkpt lat="49.01752" lon="0.06425">
        <ele>102.92</ele>
        <time>2021-08-08T14:39:15Z</time>
      </trkpt>
      <trkpt lat="49.01751" lon="0.0642">
        <ele>102.96</ele>
        <time>2021-08-08T14:39:16Z</time>
      </trkpt>
      <trkpt lat="49.01749" lon="0.06415">
        <ele>103</ele>
        <time>2021-08-08T14:39:17Z</time>
      </trkpt>
      <trkpt lat="49.01749" lon="0.0641">
        <ele>103.04</ele>
        <time>2021-08-08T14:39:18Z</time>
      </trkpt>
      <trkpt lat="49.01748" lon="0.06406">
        <ele>103.08</ele>
        <time>2021-08-08T14:39:19Z</time>
      </trkpt>
      <trkpt lat="49.01747" lon="0.064">
        <ele>103.13</ele>
        <time>2021-08-08T14:39:20Z</time>
      </trkpt>
      <trkpt lat="49.01747" lon="0.06394">
        <ele>103.19</ele>
        <time>2021-08-08T14:39:21Z</time>
      </trkpt>
      <trkpt lat="49.01746" lon="0.06389">
        <ele>103.27</ele>
        <time>2021-08-08T14:39:22Z</time>
      </trkpt>
      <trkpt lat="49.01745" lon="0.06383">
        <ele>103.32</ele>
        <time>2021-08-08T14:39:23Z</time>
      </trkpt>
      <trkpt lat="49.01745" lon="0.06377">
        <ele>103.37</ele>
        <time>2021-08-08T14:39:24Z</time>
      </trkpt>
      <trkpt lat="49.01744" lon="0.06371">
        <ele>103.41</ele>
        <time>2021-08-08T14:39:25Z</time>
      </trkpt>
      <trkpt lat="49.01744" lon="0.06365">
        <ele>103.44</ele>
        <time>2021-08-08T14:39:26Z</time>
      </trkpt>
      <trkpt lat="49.01743" lon="0.06359">
        <ele>103.46</ele>
        <time>2021-08-08T14:39:27Z</time>
      </trkpt>
      <trkpt lat="49.01743" lon="0.06352">
        <ele>103.47</ele>
        <time>2021-08-08T14:39:28Z</time>
      </trkpt>
      <trkpt lat="49.01743" lon="0.06344">
        <ele>103.47</ele>
        <time>2021-08-08T14:39:29Z</time>
      </trkpt>
      <trkpt lat="49.01743" lon="0.06336">
        <ele>103.49</ele>
        <time>2021-08-08T14:39:30Z</time>
      </trkpt>
      <trkpt lat="49.01743" lon="0.06328">
        <ele>103.48</ele>
        <time>2021-08-08T14:39:31Z</time>
      </trkpt>
      <trkpt lat="49.01744" lon="0.0632">
        <ele>103.45</ele>
        <time>2021-08-08T14:39:32Z</time>
      </trkpt>
      <trkpt lat="49.01745" lon="0.06311">
        <ele>103.37</ele>
        <time>2021-08-08T14:39:33Z</time>
      </trkpt>
      <trkpt lat="49.01746" lon="0.06304">
        <ele>103.27</ele>
        <time>2021-08-08T14:39:34Z</time>
      </trkpt>
      <trkpt lat="49.01746" lon="0.06297">
        <ele>103.06</ele>
        <time>2021-08-08T14:39:35Z</time>
      </trkpt>
      <trkpt lat="49.01747" lon="0.06292">
        <ele>102.82</ele>
        <time>2021-08-08T14:39:36Z</time>
      </trkpt>
      <trkpt lat="49.01748" lon="0.06288">
        <ele>102.6</ele>
        <time>2021-08-08T14:39:37Z</time>
      </trkpt>
      <trkpt lat="49.01747" lon="0.06284">
        <ele>102.46</ele>
        <time>2021-08-08T14:39:38Z</time>
      </trkpt>
      <trkpt lat="49.01747" lon="0.06279">
        <ele>102.32</ele>
        <time>2021-08-08T14:39:39Z</time>
      </trkpt>
      <trkpt lat="49.01747" lon="0.06276">
        <ele>102.23</ele>
        <time>2021-08-08T14:39:40Z</time>
      </trkpt>
      <trkpt lat="49.01747" lon="0.06274">
        <ele>102.2</ele>
        <time>2021-08-08T14:39:41Z</time>
      </trkpt>
      <trkpt lat="49.01747" lon="0.06274">
        <ele>102.19</ele>
        <time>2021-08-08T14:39:42Z</time>
      </trkpt>
      <trkpt lat="49.01747" lon="0.06274">
        <ele>102.19</ele>
        <time>2021-08-08T14:39:43Z</time>
      </trkpt>
      <trkpt lat="49.01748" lon="0.06273">
        <ele>102.17</ele>
        <time>2021-08-08T14:39:44Z</time>
      </trkpt>
      <trkpt lat="49.01748" lon="0.06273">
        <ele>102.17</ele>
        <time>2021-08-08T14:39:45Z</time>
      </trkpt>
      <trkpt lat="49.01748" lon="0.06273">
        <ele>102.17</ele>
        <time>2021-08-08T14:39:46Z</time>
      </trkpt>
      <trkpt lat="49.01748" lon="0.06273">
        <ele>102.17</ele>
        <time>2021-08-08T14:39:47Z</time>
      </trkpt>
      <trkpt lat="49.01748" lon="0.06273">
        <ele>102.17</ele>
        <time>2021-08-08T14:39:48Z</time>
      </trkpt>
      <trkpt lat="49.01748" lon="0.06273">
        <ele>102.17</ele>
        <time>2021-08-08T14:39:49Z</time>
      </trkpt>
      <trkpt lat="49.01748" lon="0.06273">
        <ele>102.17</ele>
        <time>2021-08-08T14:39:50Z</time>
      </trkpt>
      <trkpt lat="49.01748" lon="0.06273">
        <ele>102.17</ele>
        <time>2021-08-08T14:39:51Z</time>
      </trkpt>
      <trkpt lat="49.01748" lon="0.06273">
        <ele>102.17</ele>
        <time>2021-08-08T14:39:52Z</time>
      </trkpt>
      <trkpt lat="49.01748" lon="0.06273">
        <ele>102.17</ele>
        <time>2021-08-08T14:39:53Z</time>
      </trkpt>
      <trkpt lat="49.01748" lon="0.06273">
        <ele>102.17</ele>
        <time>2021-08-08T14:39:54Z</time>
      </trkpt>
      <trkpt lat="49.01748" lon="0.06273">
        <ele>102.17</ele>
        <time>2021-08-08T14:39:55Z</time>
      </trkpt>
      <trkpt lat="49.01745" lon="0.06259">
        <ele>102.22</ele>
        <time>2021-08-08T14:39:56Z</time>
      </trkpt>
      <trkpt lat="49.01745" lon="0.06258">
        <ele>102.23</ele>
        <time>2021-08-08T14:39:57Z</time>
      </trkpt>
      <trkpt lat="49.01745" lon="0.06258">
        <ele>102.23</ele>
        <time>2021-08-08T14:39:58Z</time>
      </trkpt>
      <trkpt lat="49.01745" lon="0.06257">
        <ele>102.23</ele>
        <time>2021-08-08T14:39:59Z</time>
      </trkpt>
      <trkpt lat="49.01745" lon="0.06257">
        <ele>102.23</ele>
        <time>2021-08-08T14:40:00Z</time>
      </trkpt>
      <trkpt lat="49.01745" lon="0.06257">
        <ele>102.23</ele>
        <time>2021-08-08T14:40:01Z</time>
      </trkpt>
      <trkpt lat="49.01745" lon="0.06257">
        <ele>102.23</ele>
        <time>2021-08-08T14:40:02Z</time>
      </trkpt>
      <trkpt lat="49.01745" lon="0.06257">
        <ele>102.23</ele>
        <time>2021-08-08T14:40:03Z</time>
      </trkpt>
      <trkpt lat="49.01745" lon="0.06257">
        <ele>102.23</ele>
        <time>2021-08-08T14:40:04Z</time>
      </trkpt>
      <trkpt lat="49.01745" lon="0.06257">
        <ele>102.23</ele>
        <time>2021-08-08T14:40:05Z</time>
      </trkpt>
      <trkpt lat="49.01745" lon="0.06257">
        <ele>102.23</ele>
        <time>2021-08-08T14:40:06Z</time>
      </trkpt>
      <trkpt lat="49.01745" lon="0.06257">
        <ele>102.23</ele>
        <time>2021-08-08T14:40:07Z</time>
      </trkpt>
      <trkpt lat="49.01745" lon="0.06257">
        <ele>102.23</ele>
        <time>2021-08-08T14:40:08Z</time>
      </trkpt>
      <trkpt lat="49.01745" lon="0.06257">
        <ele>102.23</ele>
        <time>2021-08-08T14:40:09Z</time>
      </trkpt>
      <trkpt lat="49.01745" lon="0.06257">
        <ele>102.23</ele>
        <time>2021-08-08T14:40:10Z</time>
      </trkpt>
      <trkpt lat="49.01745" lon="0.06257">
        <ele>102.23</ele>
        <time>2021-08-08T14:40:11Z</time>
      </trkpt>
      <trkpt lat="49.01745" lon="0.06257">
        <ele>102.23</ele>
        <time>2021-08-08T14:40:12Z</time>
      </trkpt>
      <trkpt lat="49.01745" lon="0.06257">
        <ele>102.23</ele>
        <time>2021-08-08T14:40:13Z</time>
      </trkpt>
      <trkpt lat="49.01745" lon="0.06257">
        <ele>102.23</ele>
        <time>2021-08-08T14:40:14Z</time>
      </trkpt>
      <trkpt lat="49.01745" lon="0.06257">
        <ele>102.23</ele>
        <time>2021-08-08T14:40:15Z</time>
      </trkpt>
      <trkpt lat="49.01745" lon="0.06257">
        <ele>102.23</ele>
        <time>2021-08-08T14:40:16Z</time>
      </trkpt>
      <trkpt lat="49.01745" lon="0.06257">
        <ele>102.23</ele>
        <time>2021-08-08T14:40:17Z</time>
      </trkpt>
      <trkpt lat="49.01745" lon="0.06257">
        <ele>102.23</ele>
        <time>2021-08-08T14:40:18Z</time>
      </trkpt>
      <trkpt lat="49.01745" lon="0.06257">
        <ele>102.23</ele>
        <time>2021-08-08T14:40:19Z</time>
      </trkpt>
      <trkpt lat="49.01745" lon="0.06257">
        <ele>102.23</ele>
        <time>2021-08-08T14:40:20Z</time>
      </trkpt>
      <trkpt lat="49.01744" lon="0.06259">
        <ele>102.28</ele>
        <time>2021-08-08T14:40:21Z</time>
      </trkpt>
      <trkpt lat="49.01743" lon="0.06262">
        <ele>102.32</ele>
        <time>2021-08-08T14:40:22Z</time>
      </trkpt>
      <trkpt lat="49.01744" lon="0.06264">
        <ele>102.34</ele>
        <time>2021-08-08T14:40:23Z</time>
      </trkpt>
      <trkpt lat="49.01744" lon="0.06267">
        <ele>102.35</ele>
        <time>2021-08-08T14:40:24Z</time>
      </trkpt>
      <trkpt lat="49.01744" lon="0.0627">
        <ele>102.37</ele>
        <time>2021-08-08T14:40:25Z</time>
      </trkpt>
      <trkpt lat="49.01744" lon="0.06274">
        <ele>102.4</ele>
        <time>2021-08-08T14:40:26Z</time>
      </trkpt>
      <trkpt lat="49.01744" lon="0.06278">
        <ele>102.44</ele>
        <time>2021-08-08T14:40:27Z</time>
      </trkpt>
      <trkpt lat="49.01743" lon="0.06281">
        <ele>102.57</ele>
        <time>2021-08-08T14:40:28Z</time>
      </trkpt>
      <trkpt lat="49.01742" lon="0.06285">
        <ele>102.77</ele>
        <time>2021-08-08T14:40:29Z</time>
      </trkpt>
      <trkpt lat="49.01741" lon="0.06288">
        <ele>102.96</ele>
        <time>2021-08-08T14:40:30Z</time>
      </trkpt>
      <trkpt lat="49.01739" lon="0.06292">
        <ele>103.18</ele>
        <time>2021-08-08T14:40:31Z</time>
      </trkpt>
      <trkpt lat="49.01738" lon="0.06294">
        <ele>103.36</ele>
        <time>2021-08-08T14:40:32Z</time>
      </trkpt>
      <trkpt lat="49.01737" lon="0.06296">
        <ele>103.52</ele>
        <time>2021-08-08T14:40:33Z</time>
      </trkpt>
      <trkpt lat="49.01735" lon="0.06298">
        <ele>103.7</ele>
        <time>2021-08-08T14:40:34Z</time>
      </trkpt>
      <trkpt lat="49.01733" lon="0.06299">
        <ele>103.89</ele>
        <time>2021-08-08T14:40:35Z</time>
      </trkpt>
      <trkpt lat="49.01731" lon="0.063">
        <ele>104.08</ele>
        <time>2021-08-08T14:40:36Z</time>
      </trkpt>
      <trkpt lat="49.01729" lon="0.063">
        <ele>104.27</ele>
        <time>2021-08-08T14:40:37Z</time>
      </trkpt>
      <trkpt lat="49.01726" lon="0.063">
        <ele>104.45</ele>
        <time>2021-08-08T14:40:38Z</time>
      </trkpt>
      <trkpt lat="49.01724" lon="0.06301">
        <ele>104.62</ele>
        <time>2021-08-08T14:40:39Z</time>
      </trkpt>
      <trkpt lat="49.01722" lon="0.06301">
        <ele>104.77</ele>
        <time>2021-08-08T14:40:40Z</time>
      </trkpt>
      <trkpt lat="49.01719" lon="0.06301">
        <ele>104.88</ele>
        <time>2021-08-08T14:40:41Z</time>
      </trkpt>
      <trkpt lat="49.01716" lon="0.063">
        <ele>104.95</ele>
        <time>2021-08-08T14:40:42Z</time>
      </trkpt>
      <trkpt lat="49.01714" lon="0.06298">
        <ele>105.02</ele>
        <time>2021-08-08T14:40:43Z</time>
      </trkpt>
      <trkpt lat="49.01711" lon="0.06297">
        <ele>105.07</ele>
        <time>2021-08-08T14:40:44Z</time>
      </trkpt>
      <trkpt lat="49.01708" lon="0.06296">
        <ele>105.14</ele>
        <time>2021-08-08T14:40:45Z</time>
      </trkpt>
      <trkpt lat="49.01705" lon="0.06296">
        <ele>105.22</ele>
        <time>2021-08-08T14:40:46Z</time>
      </trkpt>
      <trkpt lat="49.01703" lon="0.06295">
        <ele>105.3</ele>
        <time>2021-08-08T14:40:47Z</time>
      </trkpt>
      <trkpt lat="49.017" lon="0.06295">
        <ele>105.38</ele>
        <time>2021-08-08T14:40:48Z</time>
      </trkpt>
      <trkpt lat="49.01699" lon="0.06295">
        <ele>105.45</ele>
        <time>2021-08-08T14:40:49Z</time>
      </trkpt>
      <trkpt lat="49.01697" lon="0.06296">
        <ele>105.53</ele>
        <time>2021-08-08T14:40:50Z</time>
      </trkpt>
      <trkpt lat="49.01695" lon="0.06296">
        <ele>105.62</ele>
        <time>2021-08-08T14:40:51Z</time>
      </trkpt>
      <trkpt lat="49.01693" lon="0.06297">
        <ele>105.71</ele>
        <time>2021-08-08T14:40:52Z</time>
      </trkpt>
      <trkpt lat="49.01692" lon="0.06296">
        <ele>105.81</ele>
        <time>2021-08-08T14:40:53Z</time>
      </trkpt>
      <trkpt lat="49.0169" lon="0.06296">
        <ele>105.91</ele>
        <time>2021-08-08T14:40:54Z</time>
      </trkpt>
      <trkpt lat="49.01688" lon="0.06295">
        <ele>106.02</ele>
        <time>2021-08-08T14:40:55Z</time>
      </trkpt>
      <trkpt lat="49.01687" lon="0.06294">
        <ele>106.11</ele>
        <time>2021-08-08T14:40:56Z</time>
      </trkpt>
      <trkpt lat="49.01684" lon="0.06293">
        <ele>106.22</ele>
        <time>2021-08-08T14:40:57Z</time>
      </trkpt>
      <trkpt lat="49.01682" lon="0.06292">
        <ele>106.37</ele>
        <time>2021-08-08T14:40:58Z</time>
      </trkpt>
      <trkpt lat="49.01679" lon="0.06291">
        <ele>106.5</ele>
        <time>2021-08-08T14:40:59Z</time>
      </trkpt>
      <trkpt lat="49.01677" lon="0.06289">
        <ele>106.6</ele>
        <time>2021-08-08T14:41:00Z</time>
      </trkpt>
      <trkpt lat="49.01675" lon="0.06289">
        <ele>106.72</ele>
        <time>2021-08-08T14:41:01Z</time>
      </trkpt>
      <trkpt lat="49.01674" lon="0.06288">
        <ele>106.82</ele>
        <time>2021-08-08T14:41:02Z</time>
      </trkpt>
      <trkpt lat="49.01672" lon="0.06287">
        <ele>106.9</ele>
        <time>2021-08-08T14:41:03Z</time>
      </trkpt>
      <trkpt lat="49.01671" lon="0.06288">
        <ele>107</ele>
        <time>2021-08-08T14:41:04Z</time>
      </trkpt>
      <trkpt lat="49.0167" lon="0.06288">
        <ele>107.08</ele>
        <time>2021-08-08T14:41:05Z</time>
      </trkpt>
      <trkpt lat="49.01668" lon="0.06286">
        <ele>107.18</ele>
        <time>2021-08-08T14:41:06Z</time>
      </trkpt>
      <trkpt lat="49.01665" lon="0.06284">
        <ele>107.37</ele>
        <time>2021-08-08T14:41:07Z</time>
      </trkpt>
      <trkpt lat="49.01661" lon="0.06283">
        <ele>107.64</ele>
        <time>2021-08-08T14:41:08Z</time>
      </trkpt>
      <trkpt lat="49.01657" lon="0.06282">
        <ele>108.01</ele>
        <time>2021-08-08T14:41:09Z</time>
      </trkpt>
      <trkpt lat="49.01655" lon="0.06283">
        <ele>108.35</ele>
        <time>2021-08-08T14:41:10Z</time>
      </trkpt>
      <trkpt lat="49.01652" lon="0.06281">
        <ele>108.62</ele>
        <time>2021-08-08T14:41:11Z</time>
      </trkpt>
      <trkpt lat="49.01649" lon="0.0628">
        <ele>108.85</ele>
        <time>2021-08-08T14:41:12Z</time>
      </trkpt>
      <trkpt lat="49.01647" lon="0.06277">
        <ele>109.05</ele>
        <time>2021-08-08T14:41:13Z</time>
      </trkpt>
      <trkpt lat="49.01645" lon="0.06276">
        <ele>109.24</ele>
        <time>2021-08-08T14:41:14Z</time>
      </trkpt>
      <trkpt lat="49.01643" lon="0.06276">
        <ele>109.45</ele>
        <time>2021-08-08T14:41:15Z</time>
      </trkpt>
      <trkpt lat="49.0164" lon="0.06275">
        <ele>109.69</ele>
        <time>2021-08-08T14:41:16Z</time>
      </trkpt>
      <trkpt lat="49.01637" lon="0.06275">
        <ele>109.99</ele>
        <time>2021-08-08T14:41:17Z</time>
      </trkpt>
      <trkpt lat="49.01634" lon="0.06274">
        <ele>110.26</ele>
        <time>2021-08-08T14:41:18Z</time>
      </trkpt>
      <trkpt lat="49.01632" lon="0.06274">
        <ele>110.5</ele>
        <time>2021-08-08T14:41:19Z</time>
      </trkpt>
      <trkpt lat="49.0163" lon="0.06274">
        <ele>110.73</ele>
        <time>2021-08-08T14:41:20Z</time>
      </trkpt>
      <trkpt lat="49.01627" lon="0.06274">
        <ele>111.02</ele>
        <time>2021-08-08T14:41:21Z</time>
      </trkpt>
      <trkpt lat="49.01625" lon="0.06274">
        <ele>111.29</ele>
        <time>2021-08-08T14:41:22Z</time>
      </trkpt>
      <trkpt lat="49.01623" lon="0.06274">
        <ele>111.52</ele>
        <time>2021-08-08T14:41:23Z</time>
      </trkpt>
      <trkpt lat="49.01622" lon="0.06272">
        <ele>111.7</ele>
        <time>2021-08-08T14:41:24Z</time>
      </trkpt>
      <trkpt lat="49.01619" lon="0.0627">
        <ele>111.93</ele>
        <time>2021-08-08T14:41:25Z</time>
      </trkpt>
      <trkpt lat="49.01617" lon="0.06267">
        <ele>112.17</ele>
        <time>2021-08-08T14:41:26Z</time>
      </trkpt>
      <trkpt lat="49.01614" lon="0.06264">
        <ele>112.45</ele>
        <time>2021-08-08T14:41:27Z</time>
      </trkpt>
      <trkpt lat="49.01612" lon="0.06263">
        <ele>112.79</ele>
        <time>2021-08-08T14:41:28Z</time>
      </trkpt>
      <trkpt lat="49.01609" lon="0.06261">
        <ele>113.08</ele>
        <time>2021-08-08T14:41:29Z</time>
      </trkpt>
      <trkpt lat="49.01607" lon="0.0626">
        <ele>113.36</ele>
        <time>2021-08-08T14:41:30Z</time>
      </trkpt>
      <trkpt lat="49.01604" lon="0.06259">
        <ele>113.63</ele>
        <time>2021-08-08T14:41:31Z</time>
      </trkpt>
      <trkpt lat="49.01602" lon="0.06258">
        <ele>113.89</ele>
        <time>2021-08-08T14:41:32Z</time>
      </trkpt>
      <trkpt lat="49.016" lon="0.06257">
        <ele>114.12</ele>
        <time>2021-08-08T14:41:33Z</time>
      </trkpt>
      <trkpt lat="49.01598" lon="0.06256">
        <ele>114.33</ele>
        <time>2021-08-08T14:41:34Z</time>
      </trkpt>
      <trkpt lat="49.01596" lon="0.06256">
        <ele>114.52</ele>
        <time>2021-08-08T14:41:35Z</time>
      </trkpt>
      <trkpt lat="49.01595" lon="0.06256">
        <ele>114.69</ele>
        <time>2021-08-08T14:41:36Z</time>
      </trkpt>
      <trkpt lat="49.01593" lon="0.06255">
        <ele>114.9</ele>
        <time>2021-08-08T14:41:37Z</time>
      </trkpt>
      <trkpt lat="49.01591" lon="0.06255">
        <ele>115.12</ele>
        <time>2021-08-08T14:41:38Z</time>
      </trkpt>
      <trkpt lat="49.01589" lon="0.06254">
        <ele>115.32</ele>
        <time>2021-08-08T14:41:39Z</time>
      </trkpt>
      <trkpt lat="49.01586" lon="0.06253">
        <ele>115.57</ele>
        <time>2021-08-08T14:41:40Z</time>
      </trkpt>
      <trkpt lat="49.01584" lon="0.06253">
        <ele>115.85</ele>
        <time>2021-08-08T14:41:41Z</time>
      </trkpt>
      <trkpt lat="49.01581" lon="0.06252">
        <ele>116.1</ele>
        <time>2021-08-08T14:41:42Z</time>
      </trkpt>
      <trkpt lat="49.01579" lon="0.06251">
        <ele>116.38</ele>
        <time>2021-08-08T14:41:43Z</time>
      </trkpt>
      <trkpt lat="49.01576" lon="0.0625">
        <ele>116.64</ele>
        <time>2021-08-08T14:41:44Z</time>
      </trkpt>
      <trkpt lat="49.01574" lon="0.06249">
        <ele>116.85</ele>
        <time>2021-08-08T14:41:45Z</time>
      </trkpt>
      <trkpt lat="49.01571" lon="0.06249">
        <ele>117.1</ele>
        <time>2021-08-08T14:41:46Z</time>
      </trkpt>
      <trkpt lat="49.01569" lon="0.06248">
        <ele>117.32</ele>
        <time>2021-08-08T14:41:47Z</time>
      </trkpt>
      <trkpt lat="49.01566" lon="0.06247">
        <ele>117.57</ele>
        <time>2021-08-08T14:41:48Z</time>
      </trkpt>
      <trkpt lat="49.01564" lon="0.06247">
        <ele>117.79</ele>
        <time>2021-08-08T14:41:49Z</time>
      </trkpt>
      <trkpt lat="49.01561" lon="0.06246">
        <ele>118.02</ele>
        <time>2021-08-08T14:41:50Z</time>
      </trkpt>
      <trkpt lat="49.01559" lon="0.06246">
        <ele>118.25</ele>
        <time>2021-08-08T14:41:51Z</time>
      </trkpt>
      <trkpt lat="49.01556" lon="0.06245">
        <ele>118.48</ele>
        <time>2021-08-08T14:41:52Z</time>
      </trkpt>
      <trkpt lat="49.01554" lon="0.06245">
        <ele>118.69</ele>
        <time>2021-08-08T14:41:53Z</time>
      </trkpt>
      <trkpt lat="49.01551" lon="0.06245">
        <ele>118.86</ele>
        <time>2021-08-08T14:41:54Z</time>
      </trkpt>
      <trkpt lat="49.01549" lon="0.06243">
        <ele>118.99</ele>
        <time>2021-08-08T14:41:55Z</time>
      </trkpt>
      <trkpt lat="49.01546" lon="0.06242">
        <ele>119.11</ele>
        <time>2021-08-08T14:41:56Z</time>
      </trkpt>
      <trkpt lat="49.01544" lon="0.0624">
        <ele>119.25</ele>
        <time>2021-08-08T14:41:57Z</time>
      </trkpt>
      <trkpt lat="49.01541" lon="0.06238">
        <ele>119.37</ele>
        <time>2021-08-08T14:41:58Z</time>
      </trkpt>
      <trkpt lat="49.01538" lon="0.06237">
        <ele>119.54</ele>
        <time>2021-08-08T14:41:59Z</time>
      </trkpt>
      <trkpt lat="49.01536" lon="0.06236">
        <ele>119.69</ele>
        <time>2021-08-08T14:42:00Z</time>
      </trkpt>
      <trkpt lat="49.01534" lon="0.06235">
        <ele>119.85</ele>
        <time>2021-08-08T14:42:01Z</time>
      </trkpt>
      <trkpt lat="49.01531" lon="0.06234">
        <ele>120.03</ele>
        <time>2021-08-08T14:42:02Z</time>
      </trkpt>
      <trkpt lat="49.01528" lon="0.06233">
        <ele>120.26</ele>
        <time>2021-08-08T14:42:03Z</time>
      </trkpt>
      <trkpt lat="49.01525" lon="0.06233">
        <ele>120.52</ele>
        <time>2021-08-08T14:42:04Z</time>
      </trkpt>
      <trkpt lat="49.01522" lon="0.06233">
        <ele>120.74</ele>
        <time>2021-08-08T14:42:05Z</time>
      </trkpt>
      <trkpt lat="49.0152" lon="0.06233">
        <ele>120.95</ele>
        <time>2021-08-08T14:42:06Z</time>
      </trkpt>
      <trkpt lat="49.01518" lon="0.06233">
        <ele>121.16</ele>
        <time>2021-08-08T14:42:07Z</time>
      </trkpt>
      <trkpt lat="49.01515" lon="0.06232">
        <ele>121.33</ele>
        <time>2021-08-08T14:42:08Z</time>
      </trkpt>
      <trkpt lat="49.01513" lon="0.06231">
        <ele>121.5</ele>
        <time>2021-08-08T14:42:09Z</time>
      </trkpt>
      <trkpt lat="49.0151" lon="0.06231">
        <ele>121.71</ele>
        <time>2021-08-08T14:42:10Z</time>
      </trkpt>
      <trkpt lat="49.01507" lon="0.06231">
        <ele>121.96</ele>
        <time>2021-08-08T14:42:11Z</time>
      </trkpt>
      <trkpt lat="49.01504" lon="0.06231">
        <ele>122.2</ele>
        <time>2021-08-08T14:42:12Z</time>
      </trkpt>
      <trkpt lat="49.01502" lon="0.06231">
        <ele>122.41</ele>
        <time>2021-08-08T14:42:13Z</time>
      </trkpt>
      <trkpt lat="49.01499" lon="0.0623">
        <ele>122.6</ele>
        <time>2021-08-08T14:42:14Z</time>
      </trkpt>
      <trkpt lat="49.01496" lon="0.06229">
        <ele>122.79</ele>
        <time>2021-08-08T14:42:15Z</time>
      </trkpt>
      <trkpt lat="49.01494" lon="0.06229">
        <ele>122.99</ele>
        <time>2021-08-08T14:42:16Z</time>
      </trkpt>
      <trkpt lat="49.01492" lon="0.06228">
        <ele>123.18</ele>
        <time>2021-08-08T14:42:17Z</time>
      </trkpt>
      <trkpt lat="49.01489" lon="0.06228">
        <ele>123.4</ele>
        <time>2021-08-08T14:42:18Z</time>
      </trkpt>
      <trkpt lat="49.01487" lon="0.06228">
        <ele>123.62</ele>
        <time>2021-08-08T14:42:19Z</time>
      </trkpt>
      <trkpt lat="49.01485" lon="0.06227">
        <ele>123.82</ele>
        <time>2021-08-08T14:42:20Z</time>
      </trkpt>
      <trkpt lat="49.01482" lon="0.06226">
        <ele>124.01</ele>
        <time>2021-08-08T14:42:21Z</time>
      </trkpt>
      <trkpt lat="49.0148" lon="0.06224">
        <ele>124.19</ele>
        <time>2021-08-08T14:42:22Z</time>
      </trkpt>
      <trkpt lat="49.01477" lon="0.06223">
        <ele>124.41</ele>
        <time>2021-08-08T14:42:23Z</time>
      </trkpt>
      <trkpt lat="49.01475" lon="0.06223">
        <ele>124.64</ele>
        <time>2021-08-08T14:42:24Z</time>
      </trkpt>
      <trkpt lat="49.01473" lon="0.06224">
        <ele>124.9</ele>
        <time>2021-08-08T14:42:25Z</time>
      </trkpt>
      <trkpt lat="49.01471" lon="0.06225">
        <ele>125.11</ele>
        <time>2021-08-08T14:42:26Z</time>
      </trkpt>
      <trkpt lat="49.01469" lon="0.06225">
        <ele>125.29</ele>
        <time>2021-08-08T14:42:27Z</time>
      </trkpt>
      <trkpt lat="49.01467" lon="0.06225">
        <ele>125.44</ele>
        <time>2021-08-08T14:42:28Z</time>
      </trkpt>
      <trkpt lat="49.01465" lon="0.06225">
        <ele>125.6</ele>
        <time>2021-08-08T14:42:29Z</time>
      </trkpt>
      <trkpt lat="49.01463" lon="0.06225">
        <ele>125.75</ele>
        <time>2021-08-08T14:42:30Z</time>
      </trkpt>
      <trkpt lat="49.01461" lon="0.06226">
        <ele>125.91</ele>
        <time>2021-08-08T14:42:31Z</time>
      </trkpt>
      <trkpt lat="49.01459" lon="0.06227">
        <ele>126.07</ele>
        <time>2021-08-08T14:42:32Z</time>
      </trkpt>
      <trkpt lat="49.01456" lon="0.06227">
        <ele>126.26</ele>
        <time>2021-08-08T14:42:33Z</time>
      </trkpt>
      <trkpt lat="49.01453" lon="0.06227">
        <ele>126.44</ele>
        <time>2021-08-08T14:42:34Z</time>
      </trkpt>
      <trkpt lat="49.01451" lon="0.06226">
        <ele>126.6</ele>
        <time>2021-08-08T14:42:35Z</time>
      </trkpt>
      <trkpt lat="49.01449" lon="0.06226">
        <ele>126.76</ele>
        <time>2021-08-08T14:42:36Z</time>
      </trkpt>
      <trkpt lat="49.01446" lon="0.06226">
        <ele>126.93</ele>
        <time>2021-08-08T14:42:37Z</time>
      </trkpt>
      <trkpt lat="49.01443" lon="0.06225">
        <ele>127.1</ele>
        <time>2021-08-08T14:42:38Z</time>
      </trkpt>
      <trkpt lat="49.0144" lon="0.06224">
        <ele>127.29</ele>
        <time>2021-08-08T14:42:39Z</time>
      </trkpt>
      <trkpt lat="49.01437" lon="0.06224">
        <ele>127.49</ele>
        <time>2021-08-08T14:42:40Z</time>
      </trkpt>
      <trkpt lat="49.01434" lon="0.06225">
        <ele>127.71</ele>
        <time>2021-08-08T14:42:41Z</time>
      </trkpt>
      <trkpt lat="49.01431" lon="0.06224">
        <ele>127.93</ele>
        <time>2021-08-08T14:42:42Z</time>
      </trkpt>
      <trkpt lat="49.01428" lon="0.06225">
        <ele>128.19</ele>
        <time>2021-08-08T14:42:43Z</time>
      </trkpt>
      <trkpt lat="49.01425" lon="0.06226">
        <ele>128.42</ele>
        <time>2021-08-08T14:42:44Z</time>
      </trkpt>
      <trkpt lat="49.01422" lon="0.06227">
        <ele>128.66</ele>
        <time>2021-08-08T14:42:45Z</time>
      </trkpt>
      <trkpt lat="49.01419" lon="0.06228">
        <ele>128.91</ele>
        <time>2021-08-08T14:42:46Z</time>
      </trkpt>
      <trkpt lat="49.01417" lon="0.06229">
        <ele>129.14</ele>
        <time>2021-08-08T14:42:47Z</time>
      </trkpt>
      <trkpt lat="49.01414" lon="0.0623">
        <ele>129.39</ele>
        <time>2021-08-08T14:42:48Z</time>
      </trkpt>
      <trkpt lat="49.01411" lon="0.06233">
        <ele>129.65</ele>
        <time>2021-08-08T14:42:49Z</time>
      </trkpt>
      <trkpt lat="49.01408" lon="0.06235">
        <ele>129.93</ele>
        <time>2021-08-08T14:42:50Z</time>
      </trkpt>
      <trkpt lat="49.01405" lon="0.06238">
        <ele>130.26</ele>
        <time>2021-08-08T14:42:51Z</time>
      </trkpt>
      <trkpt lat="49.01402" lon="0.0624">
        <ele>130.55</ele>
        <time>2021-08-08T14:42:52Z</time>
      </trkpt>
      <trkpt lat="49.014" lon="0.06242">
        <ele>130.83</ele>
        <time>2021-08-08T14:42:53Z</time>
      </trkpt>
      <trkpt lat="49.01397" lon="0.06245">
        <ele>131.12</ele>
        <time>2021-08-08T14:42:54Z</time>
      </trkpt>
      <trkpt lat="49.01394" lon="0.06246">
        <ele>131.4</ele>
        <time>2021-08-08T14:42:55Z</time>
      </trkpt>
      <trkpt lat="49.01391" lon="0.06248">
        <ele>131.67</ele>
        <time>2021-08-08T14:42:56Z</time>
      </trkpt>
      <trkpt lat="49.01389" lon="0.06249">
        <ele>131.88</ele>
        <time>2021-08-08T14:42:57Z</time>
      </trkpt>
      <trkpt lat="49.01387" lon="0.0625">
        <ele>132.07</ele>
        <time>2021-08-08T14:42:58Z</time>
      </trkpt>
      <trkpt lat="49.01385" lon="0.0625">
        <ele>132.23</ele>
        <time>2021-08-08T14:42:59Z</time>
      </trkpt>
      <trkpt lat="49.01382" lon="0.06249">
        <ele>132.39</ele>
        <time>2021-08-08T14:43:00Z</time>
      </trkpt>
      <trkpt lat="49.01381" lon="0.06248">
        <ele>132.51</ele>
        <time>2021-08-08T14:43:01Z</time>
      </trkpt>
      <trkpt lat="49.01378" lon="0.06248">
        <ele>132.65</ele>
        <time>2021-08-08T14:43:02Z</time>
      </trkpt>
      <trkpt lat="49.01376" lon="0.06248">
        <ele>132.79</ele>
        <time>2021-08-08T14:43:03Z</time>
      </trkpt>
      <trkpt lat="49.01374" lon="0.06247">
        <ele>132.94</ele>
        <time>2021-08-08T14:43:04Z</time>
      </trkpt>
      <trkpt lat="49.01372" lon="0.06246">
        <ele>133.08</ele>
        <time>2021-08-08T14:43:05Z</time>
      </trkpt>
      <trkpt lat="49.0137" lon="0.06245">
        <ele>133.22</ele>
        <time>2021-08-08T14:43:06Z</time>
      </trkpt>
      <trkpt lat="49.01368" lon="0.06244">
        <ele>133.37</ele>
        <time>2021-08-08T14:43:07Z</time>
      </trkpt>
      <trkpt lat="49.01366" lon="0.06242">
        <ele>133.54</ele>
        <time>2021-08-08T14:43:08Z</time>
      </trkpt>
      <trkpt lat="49.01363" lon="0.06241">
        <ele>133.73</ele>
        <time>2021-08-08T14:43:09Z</time>
      </trkpt>
      <trkpt lat="49.01361" lon="0.06239">
        <ele>133.91</ele>
        <time>2021-08-08T14:43:10Z</time>
      </trkpt>
      <trkpt lat="49.0136" lon="0.06238">
        <ele>134.08</ele>
        <time>2021-08-08T14:43:11Z</time>
      </trkpt>
      <trkpt lat="49.01357" lon="0.06237">
        <ele>134.28</ele>
        <time>2021-08-08T14:43:12Z</time>
      </trkpt>
      <trkpt lat="49.01355" lon="0.06236">
        <ele>134.48</ele>
        <time>2021-08-08T14:43:13Z</time>
      </trkpt>
      <trkpt lat="49.01352" lon="0.06235">
        <ele>134.68</ele>
        <time>2021-08-08T14:43:14Z</time>
      </trkpt>
      <trkpt lat="49.0135" lon="0.06236">
        <ele>134.9</ele>
        <time>2021-08-08T14:43:15Z</time>
      </trkpt>
      <trkpt lat="49.01348" lon="0.06236">
        <ele>135.12</ele>
        <time>2021-08-08T14:43:16Z</time>
      </trkpt>
      <trkpt lat="49.01345" lon="0.06236">
        <ele>135.34</ele>
        <time>2021-08-08T14:43:17Z</time>
      </trkpt>
      <trkpt lat="49.01342" lon="0.06235">
        <ele>135.55</ele>
        <time>2021-08-08T14:43:18Z</time>
      </trkpt>
      <trkpt lat="49.0134" lon="0.06234">
        <ele>135.72</ele>
        <time>2021-08-08T14:43:19Z</time>
      </trkpt>
      <trkpt lat="49.01338" lon="0.06233">
        <ele>135.91</ele>
        <time>2021-08-08T14:43:20Z</time>
      </trkpt>
      <trkpt lat="49.01335" lon="0.06232">
        <ele>136.13</ele>
        <time>2021-08-08T14:43:21Z</time>
      </trkpt>
      <trkpt lat="49.01332" lon="0.06232">
        <ele>136.34</ele>
        <time>2021-08-08T14:43:22Z</time>
      </trkpt>
      <trkpt lat="49.0133" lon="0.06231">
        <ele>136.53</ele>
        <time>2021-08-08T14:43:23Z</time>
      </trkpt>
      <trkpt lat="49.01328" lon="0.06231">
        <ele>136.73</ele>
        <time>2021-08-08T14:43:24Z</time>
      </trkpt>
      <trkpt lat="49.01326" lon="0.0623">
        <ele>136.93</ele>
        <time>2021-08-08T14:43:25Z</time>
      </trkpt>
      <trkpt lat="49.01323" lon="0.06229">
        <ele>137.14</ele>
        <time>2021-08-08T14:43:26Z</time>
      </trkpt>
      <trkpt lat="49.01321" lon="0.06228">
        <ele>137.34</ele>
        <time>2021-08-08T14:43:27Z</time>
      </trkpt>
      <trkpt lat="49.01319" lon="0.06227">
        <ele>137.54</ele>
        <time>2021-08-08T14:43:28Z</time>
      </trkpt>
      <trkpt lat="49.01317" lon="0.06226">
        <ele>137.74</ele>
        <time>2021-08-08T14:43:29Z</time>
      </trkpt>
      <trkpt lat="49.01315" lon="0.06225">
        <ele>137.91</ele>
        <time>2021-08-08T14:43:30Z</time>
      </trkpt>
      <trkpt lat="49.01314" lon="0.06225">
        <ele>138.07</ele>
        <time>2021-08-08T14:43:31Z</time>
      </trkpt>
      <trkpt lat="49.01312" lon="0.06224">
        <ele>138.21</ele>
        <time>2021-08-08T14:43:32Z</time>
      </trkpt>
      <trkpt lat="49.01311" lon="0.06224">
        <ele>138.36</ele>
        <time>2021-08-08T14:43:33Z</time>
      </trkpt>
      <trkpt lat="49.0131" lon="0.06223">
        <ele>138.47</ele>
        <time>2021-08-08T14:43:34Z</time>
      </trkpt>
      <trkpt lat="49.01308" lon="0.06223">
        <ele>138.65</ele>
        <time>2021-08-08T14:43:35Z</time>
      </trkpt>
      <trkpt lat="49.01307" lon="0.06223">
        <ele>138.81</ele>
        <time>2021-08-08T14:43:36Z</time>
      </trkpt>
      <trkpt lat="49.01305" lon="0.06222">
        <ele>138.98</ele>
        <time>2021-08-08T14:43:37Z</time>
      </trkpt>
      <trkpt lat="49.01303" lon="0.06221">
        <ele>139.11</ele>
        <time>2021-08-08T14:43:38Z</time>
      </trkpt>
      <trkpt lat="49.013" lon="0.0622">
        <ele>139.24</ele>
        <time>2021-08-08T14:43:39Z</time>
      </trkpt>
      <trkpt lat="49.01298" lon="0.06219">
        <ele>139.37</ele>
        <time>2021-08-08T14:43:40Z</time>
      </trkpt>
      <trkpt lat="49.01296" lon="0.06217">
        <ele>139.52</ele>
        <time>2021-08-08T14:43:41Z</time>
      </trkpt>
      <trkpt lat="49.01292" lon="0.06215">
        <ele>139.72</ele>
        <time>2021-08-08T14:43:42Z</time>
      </trkpt>
      <trkpt lat="49.01289" lon="0.06214">
        <ele>139.93</ele>
        <time>2021-08-08T14:43:43Z</time>
      </trkpt>
      <trkpt lat="49.01286" lon="0.06212">
        <ele>140.16</ele>
        <time>2021-08-08T14:43:44Z</time>
      </trkpt>
      <trkpt lat="49.01284" lon="0.06209">
        <ele>140.38</ele>
        <time>2021-08-08T14:43:45Z</time>
      </trkpt>
      <trkpt lat="49.0128" lon="0.06206">
        <ele>140.64</ele>
        <time>2021-08-08T14:43:46Z</time>
      </trkpt>
      <trkpt lat="49.01278" lon="0.06204">
        <ele>140.87</ele>
        <time>2021-08-08T14:43:47Z</time>
      </trkpt>
      <trkpt lat="49.01275" lon="0.06202">
        <ele>141.08</ele>
        <time>2021-08-08T14:43:48Z</time>
      </trkpt>
      <trkpt lat="49.01273" lon="0.06199">
        <ele>141.28</ele>
        <time>2021-08-08T14:43:49Z</time>
      </trkpt>
      <trkpt lat="49.0127" lon="0.06198">
        <ele>141.47</ele>
        <time>2021-08-08T14:43:50Z</time>
      </trkpt>
      <trkpt lat="49.01268" lon="0.06197">
        <ele>141.64</ele>
        <time>2021-08-08T14:43:51Z</time>
      </trkpt>
      <trkpt lat="49.01266" lon="0.06195">
        <ele>141.79</ele>
        <time>2021-08-08T14:43:52Z</time>
      </trkpt>
      <trkpt lat="49.01263" lon="0.06194">
        <ele>141.95</ele>
        <time>2021-08-08T14:43:53Z</time>
      </trkpt>
      <trkpt lat="49.01261" lon="0.06192">
        <ele>142.11</ele>
        <time>2021-08-08T14:43:54Z</time>
      </trkpt>
      <trkpt lat="49.01259" lon="0.06191">
        <ele>142.28</ele>
        <time>2021-08-08T14:43:55Z</time>
      </trkpt>
      <trkpt lat="49.01255" lon="0.0619">
        <ele>142.54</ele>
        <time>2021-08-08T14:43:56Z</time>
      </trkpt>
      <trkpt lat="49.01252" lon="0.06189">
        <ele>142.76</ele>
        <time>2021-08-08T14:43:57Z</time>
      </trkpt>
      <trkpt lat="49.01249" lon="0.06188">
        <ele>142.98</ele>
        <time>2021-08-08T14:43:58Z</time>
      </trkpt>
      <trkpt lat="49.01247" lon="0.06186">
        <ele>143.23</ele>
        <time>2021-08-08T14:43:59Z</time>
      </trkpt>
      <trkpt lat="49.01244" lon="0.06185">
        <ele>143.5</ele>
        <time>2021-08-08T14:44:00Z</time>
      </trkpt>
      <trkpt lat="49.01242" lon="0.06184">
        <ele>143.74</ele>
        <time>2021-08-08T14:44:01Z</time>
      </trkpt>
      <trkpt lat="49.01238" lon="0.06181">
        <ele>144.1</ele>
        <time>2021-08-08T14:44:02Z</time>
      </trkpt>
      <trkpt lat="49.01236" lon="0.06181">
        <ele>144.36</ele>
        <time>2021-08-08T14:44:03Z</time>
      </trkpt>
      <trkpt lat="49.01234" lon="0.0618">
        <ele>144.63</ele>
        <time>2021-08-08T14:44:04Z</time>
      </trkpt>
      <trkpt lat="49.01231" lon="0.06179">
        <ele>144.93</ele>
        <time>2021-08-08T14:44:05Z</time>
      </trkpt>
      <trkpt lat="49.01228" lon="0.06178">
        <ele>145.24</ele>
        <time>2021-08-08T14:44:06Z</time>
      </trkpt>
      <trkpt lat="49.01225" lon="0.06176">
        <ele>145.59</ele>
        <time>2021-08-08T14:44:07Z</time>
      </trkpt>
      <trkpt lat="49.01222" lon="0.06174">
        <ele>145.9</ele>
        <time>2021-08-08T14:44:08Z</time>
      </trkpt>
      <trkpt lat="49.01219" lon="0.06174">
        <ele>146.11</ele>
        <time>2021-08-08T14:44:09Z</time>
      </trkpt>
      <trkpt lat="49.01216" lon="0.06175">
        <ele>146.3</ele>
        <time>2021-08-08T14:44:10Z</time>
      </trkpt>
      <trkpt lat="49.01214" lon="0.06175">
        <ele>146.46</ele>
        <time>2021-08-08T14:44:11Z</time>
      </trkpt>
      <trkpt lat="49.01211" lon="0.06174">
        <ele>146.62</ele>
        <time>2021-08-08T14:44:12Z</time>
      </trkpt>
      <trkpt lat="49.01208" lon="0.06172">
        <ele>146.83</ele>
        <time>2021-08-08T14:44:13Z</time>
      </trkpt>
      <trkpt lat="49.01205" lon="0.0617">
        <ele>147.05</ele>
        <time>2021-08-08T14:44:14Z</time>
      </trkpt>
      <trkpt lat="49.01202" lon="0.0617">
        <ele>147.25</ele>
        <time>2021-08-08T14:44:15Z</time>
      </trkpt>
      <trkpt lat="49.01199" lon="0.06169">
        <ele>147.49</ele>
        <time>2021-08-08T14:44:16Z</time>
      </trkpt>
      <trkpt lat="49.01196" lon="0.06168">
        <ele>147.72</ele>
        <time>2021-08-08T14:44:17Z</time>
      </trkpt>
      <trkpt lat="49.01193" lon="0.06167">
        <ele>147.96</ele>
        <time>2021-08-08T14:44:18Z</time>
      </trkpt>
      <trkpt lat="49.0119" lon="0.06166">
        <ele>148.07</ele>
        <time>2021-08-08T14:44:19Z</time>
      </trkpt>
      <trkpt lat="49.01187" lon="0.06164">
        <ele>148.17</ele>
        <time>2021-08-08T14:44:20Z</time>
      </trkpt>
      <trkpt lat="49.01184" lon="0.06163">
        <ele>148.25</ele>
        <time>2021-08-08T14:44:21Z</time>
      </trkpt>
      <trkpt lat="49.01181" lon="0.06162">
        <ele>148.35</ele>
        <time>2021-08-08T14:44:22Z</time>
      </trkpt>
      <trkpt lat="49.01178" lon="0.06161">
        <ele>148.45</ele>
        <time>2021-08-08T14:44:23Z</time>
      </trkpt>
      <trkpt lat="49.01175" lon="0.0616">
        <ele>148.57</ele>
        <time>2021-08-08T14:44:24Z</time>
      </trkpt>
      <trkpt lat="49.01173" lon="0.0616">
        <ele>148.69</ele>
        <time>2021-08-08T14:44:25Z</time>
      </trkpt>
      <trkpt lat="49.0117" lon="0.0616">
        <ele>148.8</ele>
        <time>2021-08-08T14:44:26Z</time>
      </trkpt>
      <trkpt lat="49.01168" lon="0.06159">
        <ele>148.91</ele>
        <time>2021-08-08T14:44:27Z</time>
      </trkpt>
      <trkpt lat="49.01165" lon="0.06159">
        <ele>149.06</ele>
        <time>2021-08-08T14:44:28Z</time>
      </trkpt>
      <trkpt lat="49.01162" lon="0.06158">
        <ele>149.24</ele>
        <time>2021-08-08T14:44:29Z</time>
      </trkpt>
      <trkpt lat="49.0116" lon="0.06156">
        <ele>149.41</ele>
        <time>2021-08-08T14:44:30Z</time>
      </trkpt>
      <trkpt lat="49.01158" lon="0.06156">
        <ele>149.57</ele>
        <time>2021-08-08T14:44:31Z</time>
      </trkpt>
      <trkpt lat="49.01155" lon="0.06155">
        <ele>149.74</ele>
        <time>2021-08-08T14:44:32Z</time>
      </trkpt>
      <trkpt lat="49.01152" lon="0.06154">
        <ele>149.94</ele>
        <time>2021-08-08T14:44:33Z</time>
      </trkpt>
      <trkpt lat="49.0115" lon="0.06153">
        <ele>150.14</ele>
        <time>2021-08-08T14:44:34Z</time>
      </trkpt>
      <trkpt lat="49.01147" lon="0.06153">
        <ele>150.34</ele>
        <time>2021-08-08T14:44:35Z</time>
      </trkpt>
      <trkpt lat="49.01144" lon="0.06151">
        <ele>150.55</ele>
        <time>2021-08-08T14:44:36Z</time>
      </trkpt>
      <trkpt lat="49.01141" lon="0.06151">
        <ele>150.75</ele>
        <time>2021-08-08T14:44:37Z</time>
      </trkpt>
      <trkpt lat="49.01138" lon="0.06151">
        <ele>150.94</ele>
        <time>2021-08-08T14:44:38Z</time>
      </trkpt>
      <trkpt lat="49.01136" lon="0.06151">
        <ele>151.06</ele>
        <time>2021-08-08T14:44:39Z</time>
      </trkpt>
      <trkpt lat="49.01132" lon="0.0615">
        <ele>151.18</ele>
        <time>2021-08-08T14:44:40Z</time>
      </trkpt>
      <trkpt lat="49.01129" lon="0.06149">
        <ele>151.31</ele>
        <time>2021-08-08T14:44:41Z</time>
      </trkpt>
      <trkpt lat="49.01125" lon="0.06149">
        <ele>151.43</ele>
        <time>2021-08-08T14:44:42Z</time>
      </trkpt>
      <trkpt lat="49.01122" lon="0.06148">
        <ele>151.56</ele>
        <time>2021-08-08T14:44:43Z</time>
      </trkpt>
      <trkpt lat="49.01119" lon="0.06148">
        <ele>151.67</ele>
        <time>2021-08-08T14:44:44Z</time>
      </trkpt>
      <trkpt lat="49.01116" lon="0.06149">
        <ele>151.79</ele>
        <time>2021-08-08T14:44:45Z</time>
      </trkpt>
      <trkpt lat="49.01113" lon="0.06149">
        <ele>151.89</ele>
        <time>2021-08-08T14:44:46Z</time>
      </trkpt>
      <trkpt lat="49.01109" lon="0.06149">
        <ele>152.01</ele>
        <time>2021-08-08T14:44:47Z</time>
      </trkpt>
      <trkpt lat="49.01106" lon="0.0615">
        <ele>152.13</ele>
        <time>2021-08-08T14:44:48Z</time>
      </trkpt>
      <trkpt lat="49.01103" lon="0.0615">
        <ele>152.24</ele>
        <time>2021-08-08T14:44:49Z</time>
      </trkpt>
      <trkpt lat="49.01099" lon="0.0615">
        <ele>152.37</ele>
        <time>2021-08-08T14:44:50Z</time>
      </trkpt>
      <trkpt lat="49.01095" lon="0.0615">
        <ele>152.51</ele>
        <time>2021-08-08T14:44:51Z</time>
      </trkpt>
      <trkpt lat="49.01089" lon="0.06152">
        <ele>152.7</ele>
        <time>2021-08-08T14:44:52Z</time>
      </trkpt>
      <trkpt lat="49.01084" lon="0.06154">
        <ele>152.89</ele>
        <time>2021-08-08T14:44:53Z</time>
      </trkpt>
      <trkpt lat="49.0108" lon="0.06155">
        <ele>153</ele>
        <time>2021-08-08T14:44:54Z</time>
      </trkpt>
      <trkpt lat="49.01075" lon="0.06155">
        <ele>153.09</ele>
        <time>2021-08-08T14:44:55Z</time>
      </trkpt>
      <trkpt lat="49.0107" lon="0.06155">
        <ele>153.16</ele>
        <time>2021-08-08T14:44:56Z</time>
      </trkpt>
      <trkpt lat="49.01066" lon="0.06156">
        <ele>153.22</ele>
        <time>2021-08-08T14:44:57Z</time>
      </trkpt>
      <trkpt lat="49.01061" lon="0.06156">
        <ele>153.27</ele>
        <time>2021-08-08T14:44:58Z</time>
      </trkpt>
      <trkpt lat="49.01057" lon="0.06156">
        <ele>153.32</ele>
        <time>2021-08-08T14:44:59Z</time>
      </trkpt>
      <trkpt lat="49.01054" lon="0.06157">
        <ele>153.34</ele>
        <time>2021-08-08T14:45:00Z</time>
      </trkpt>
      <trkpt lat="49.01051" lon="0.06157">
        <ele>153.34</ele>
        <time>2021-08-08T14:45:01Z</time>
      </trkpt>
      <trkpt lat="49.01047" lon="0.06157">
        <ele>153.34</ele>
        <time>2021-08-08T14:45:02Z</time>
      </trkpt>
      <trkpt lat="49.01043" lon="0.06157">
        <ele>153.34</ele>
        <time>2021-08-08T14:45:03Z</time>
      </trkpt>
      <trkpt lat="49.01039" lon="0.06156">
        <ele>153.38</ele>
        <time>2021-08-08T14:45:04Z</time>
      </trkpt>
      <trkpt lat="49.01035" lon="0.06155">
        <ele>153.4</ele>
        <time>2021-08-08T14:45:05Z</time>
      </trkpt>
      <trkpt lat="49.01031" lon="0.06155">
        <ele>153.41</ele>
        <time>2021-08-08T14:45:06Z</time>
      </trkpt>
      <trkpt lat="49.01027" lon="0.06155">
        <ele>153.43</ele>
        <time>2021-08-08T14:45:07Z</time>
      </trkpt>
      <trkpt lat="49.01023" lon="0.06155">
        <ele>153.47</ele>
        <time>2021-08-08T14:45:08Z</time>
      </trkpt>
      <trkpt lat="49.01016" lon="0.06156">
        <ele>153.52</ele>
        <time>2021-08-08T14:45:09Z</time>
      </trkpt>
      <trkpt lat="49.01011" lon="0.06155">
        <ele>153.61</ele>
        <time>2021-08-08T14:45:10Z</time>
      </trkpt>
      <trkpt lat="49.01006" lon="0.06155">
        <ele>153.71</ele>
        <time>2021-08-08T14:45:11Z</time>
      </trkpt>
      <trkpt lat="49.01" lon="0.06156">
        <ele>153.78</ele>
        <time>2021-08-08T14:45:12Z</time>
      </trkpt>
      <trkpt lat="49.00994" lon="0.06155">
        <ele>153.81</ele>
        <time>2021-08-08T14:45:13Z</time>
      </trkpt>
      <trkpt lat="49.0099" lon="0.06155">
        <ele>153.84</ele>
        <time>2021-08-08T14:45:14Z</time>
      </trkpt>
      <trkpt lat="49.00984" lon="0.06154">
        <ele>153.87</ele>
        <time>2021-08-08T14:45:15Z</time>
      </trkpt>
      <trkpt lat="49.0098" lon="0.06154">
        <ele>153.88</ele>
        <time>2021-08-08T14:45:16Z</time>
      </trkpt>
      <trkpt lat="49.00974" lon="0.06155">
        <ele>153.87</ele>
        <time>2021-08-08T14:45:17Z</time>
      </trkpt>
      <trkpt lat="49.00968" lon="0.06156">
        <ele>153.82</ele>
        <time>2021-08-08T14:45:18Z</time>
      </trkpt>
      <trkpt lat="49.00964" lon="0.06156">
        <ele>153.77</ele>
        <time>2021-08-08T14:45:19Z</time>
      </trkpt>
      <trkpt lat="49.00959" lon="0.06156">
        <ele>153.78</ele>
        <time>2021-08-08T14:45:20Z</time>
      </trkpt>
      <trkpt lat="49.00955" lon="0.06156">
        <ele>153.8</ele>
        <time>2021-08-08T14:45:21Z</time>
      </trkpt>
      <trkpt lat="49.00951" lon="0.06155">
        <ele>153.84</ele>
        <time>2021-08-08T14:45:22Z</time>
      </trkpt>
      <trkpt lat="49.00946" lon="0.06154">
        <ele>153.86</ele>
        <time>2021-08-08T14:45:23Z</time>
      </trkpt>
      <trkpt lat="49.00942" lon="0.06154">
        <ele>153.92</ele>
        <time>2021-08-08T14:45:24Z</time>
      </trkpt>
      <trkpt lat="49.00938" lon="0.06155">
        <ele>153.97</ele>
        <time>2021-08-08T14:45:25Z</time>
      </trkpt>
      <trkpt lat="49.00934" lon="0.06155">
        <ele>154.04</ele>
        <time>2021-08-08T14:45:26Z</time>
      </trkpt>
      <trkpt lat="49.0093" lon="0.06155">
        <ele>154.11</ele>
        <time>2021-08-08T14:45:27Z</time>
      </trkpt>
      <trkpt lat="49.00926" lon="0.06156">
        <ele>154.16</ele>
        <time>2021-08-08T14:45:28Z</time>
      </trkpt>
      <trkpt lat="49.00921" lon="0.06159">
        <ele>154.16</ele>
        <time>2021-08-08T14:45:29Z</time>
      </trkpt>
      <trkpt lat="49.00916" lon="0.0616">
        <ele>154.2</ele>
        <time>2021-08-08T14:45:30Z</time>
      </trkpt>
      <trkpt lat="49.00911" lon="0.06161">
        <ele>154.23</ele>
        <time>2021-08-08T14:45:31Z</time>
      </trkpt>
      <trkpt lat="49.00906" lon="0.06162">
        <ele>154.24</ele>
        <time>2021-08-08T14:45:32Z</time>
      </trkpt>
      <trkpt lat="49.009" lon="0.06162">
        <ele>154.25</ele>
        <time>2021-08-08T14:45:33Z</time>
      </trkpt>
      <trkpt lat="49.00894" lon="0.06162">
        <ele>154.3</ele>
        <time>2021-08-08T14:45:34Z</time>
      </trkpt>
      <trkpt lat="49.00888" lon="0.06161">
        <ele>154.39</ele>
        <time>2021-08-08T14:45:35Z</time>
      </trkpt>
      <trkpt lat="49.00883" lon="0.0616">
        <ele>154.44</ele>
        <time>2021-08-08T14:45:36Z</time>
      </trkpt>
      <trkpt lat="49.00876" lon="0.0616">
        <ele>154.48</ele>
        <time>2021-08-08T14:45:37Z</time>
      </trkpt>
      <trkpt lat="49.0087" lon="0.06158">
        <ele>154.56</ele>
        <time>2021-08-08T14:45:38Z</time>
      </trkpt>
      <trkpt lat="49.00863" lon="0.06159">
        <ele>154.56</ele>
        <time>2021-08-08T14:45:39Z</time>
      </trkpt>
      <trkpt lat="49.00856" lon="0.0616">
        <ele>154.51</ele>
        <time>2021-08-08T14:45:40Z</time>
      </trkpt>
      <trkpt lat="49.0085" lon="0.06159">
        <ele>154.53</ele>
        <time>2021-08-08T14:45:41Z</time>
      </trkpt>
      <trkpt lat="49.00844" lon="0.06158">
        <ele>154.6</ele>
        <time>2021-08-08T14:45:42Z</time>
      </trkpt>
      <trkpt lat="49.0084" lon="0.06157">
        <ele>154.67</ele>
        <time>2021-08-08T14:45:43Z</time>
      </trkpt>
      <trkpt lat="49.00836" lon="0.06156">
        <ele>154.75</ele>
        <time>2021-08-08T14:45:44Z</time>
      </trkpt>
      <trkpt lat="49.00831" lon="0.06155">
        <ele>154.8</ele>
        <time>2021-08-08T14:45:45Z</time>
      </trkpt>
      <trkpt lat="49.00826" lon="0.06154">
        <ele>154.77</ele>
        <time>2021-08-08T14:45:46Z</time>
      </trkpt>
      <trkpt lat="49.00822" lon="0.06153">
        <ele>154.77</ele>
        <time>2021-08-08T14:45:47Z</time>
      </trkpt>
      <trkpt lat="49.00816" lon="0.06152">
        <ele>154.76</ele>
        <time>2021-08-08T14:45:48Z</time>
      </trkpt>
      <trkpt lat="49.00811" lon="0.0615">
        <ele>154.81</ele>
        <time>2021-08-08T14:45:49Z</time>
      </trkpt>
      <trkpt lat="49.00806" lon="0.0615">
        <ele>154.83</ele>
        <time>2021-08-08T14:45:50Z</time>
      </trkpt>
      <trkpt lat="49.008" lon="0.06149">
        <ele>155.04</ele>
        <time>2021-08-08T14:45:51Z</time>
      </trkpt>
      <trkpt lat="49.00795" lon="0.06148">
        <ele>155.26</ele>
        <time>2021-08-08T14:45:52Z</time>
      </trkpt>
      <trkpt lat="49.00797" lon="0.06129">
        <ele>157.29</ele>
        <time>2021-08-08T14:48:22Z</time>
      </trkpt>
      <trkpt lat="49.00798" lon="0.06126">
        <ele>157.56</ele>
        <time>2021-08-08T14:48:23Z</time>
      </trkpt>
      <trkpt lat="49.00799" lon="0.06123">
        <ele>157.86</ele>
        <time>2021-08-08T14:48:24Z</time>
      </trkpt>
      <trkpt lat="49.00799" lon="0.0612">
        <ele>158.18</ele>
        <time>2021-08-08T14:48:25Z</time>
      </trkpt>
      <trkpt lat="49.00799" lon="0.06116">
        <ele>158.52</ele>
        <time>2021-08-08T14:48:26Z</time>
      </trkpt>
      <trkpt lat="49.00799" lon="0.06112">
        <ele>158.97</ele>
        <time>2021-08-08T14:48:27Z</time>
      </trkpt>
      <trkpt lat="49.00799" lon="0.06108">
        <ele>159.41</ele>
        <time>2021-08-08T14:48:28Z</time>
      </trkpt>
      <trkpt lat="49.00799" lon="0.06104">
        <ele>159.84</ele>
        <time>2021-08-08T14:48:29Z</time>
      </trkpt>
      <trkpt lat="49.00799" lon="0.061">
        <ele>160.24</ele>
        <time>2021-08-08T14:48:30Z</time>
      </trkpt>
      <trkpt lat="49.008" lon="0.06096">
        <ele>160.64</ele>
        <time>2021-08-08T14:48:31Z</time>
      </trkpt>
      <trkpt lat="49.008" lon="0.06092">
        <ele>161.08</ele>
        <time>2021-08-08T14:48:32Z</time>
      </trkpt>
      <trkpt lat="49.008" lon="0.06087">
        <ele>161.57</ele>
        <time>2021-08-08T14:48:33Z</time>
      </trkpt>
      <trkpt lat="49.008" lon="0.06082">
        <ele>162.06</ele>
        <time>2021-08-08T14:48:34Z</time>
      </trkpt>
      <trkpt lat="49.00799" lon="0.06076">
        <ele>162.35</ele>
        <time>2021-08-08T14:48:35Z</time>
      </trkpt>
      <trkpt lat="49.00799" lon="0.0607">
        <ele>162.6</ele>
        <time>2021-08-08T14:48:36Z</time>
      </trkpt>
      <trkpt lat="49.00799" lon="0.06065">
        <ele>162.82</ele>
        <time>2021-08-08T14:48:37Z</time>
      </trkpt>
      <trkpt lat="49.00799" lon="0.0606">
        <ele>163.01</ele>
        <time>2021-08-08T14:48:38Z</time>
      </trkpt>
      <trkpt lat="49.00799" lon="0.06055">
        <ele>163.18</ele>
        <time>2021-08-08T14:48:39Z</time>
      </trkpt>
      <trkpt lat="49.00798" lon="0.06051">
        <ele>163.37</ele>
        <time>2021-08-08T14:48:40Z</time>
      </trkpt>
      <trkpt lat="49.00797" lon="0.06047">
        <ele>163.53</ele>
        <time>2021-08-08T14:48:41Z</time>
      </trkpt>
      <trkpt lat="49.00797" lon="0.06043">
        <ele>163.68</ele>
        <time>2021-08-08T14:48:42Z</time>
      </trkpt>
      <trkpt lat="49.00797" lon="0.06039">
        <ele>163.84</ele>
        <time>2021-08-08T14:48:43Z</time>
      </trkpt>
      <trkpt lat="49.00797" lon="0.06032">
        <ele>164.04</ele>
        <time>2021-08-08T14:48:44Z</time>
      </trkpt>
      <trkpt lat="49.00797" lon="0.06026">
        <ele>164.32</ele>
        <time>2021-08-08T14:48:45Z</time>
      </trkpt>
      <trkpt lat="49.00797" lon="0.0602">
        <ele>164.64</ele>
        <time>2021-08-08T14:48:46Z</time>
      </trkpt>
      <trkpt lat="49.00797" lon="0.06015">
        <ele>164.94</ele>
        <time>2021-08-08T14:48:47Z</time>
      </trkpt>
      <trkpt lat="49.00798" lon="0.06011">
        <ele>165.22</ele>
        <time>2021-08-08T14:48:48Z</time>
      </trkpt>
      <trkpt lat="49.008" lon="0.06006">
        <ele>165.48</ele>
        <time>2021-08-08T14:48:49Z</time>
      </trkpt>
      <trkpt lat="49.00801" lon="0.06002">
        <ele>165.74</ele>
        <time>2021-08-08T14:48:50Z</time>
      </trkpt>
      <trkpt lat="49.00802" lon="0.05998">
        <ele>165.93</ele>
        <time>2021-08-08T14:48:51Z</time>
      </trkpt>
      <trkpt lat="49.00804" lon="0.05994">
        <ele>165.99</ele>
        <time>2021-08-08T14:48:52Z</time>
      </trkpt>
      <trkpt lat="49.00806" lon="0.0599">
        <ele>165.98</ele>
        <time>2021-08-08T14:48:53Z</time>
      </trkpt>
      <trkpt lat="49.00807" lon="0.05986">
        <ele>165.95</ele>
        <time>2021-08-08T14:48:54Z</time>
      </trkpt>
      <trkpt lat="49.00809" lon="0.05983">
        <ele>165.89</ele>
        <time>2021-08-08T14:48:55Z</time>
      </trkpt>
      <trkpt lat="49.00811" lon="0.0598">
        <ele>165.84</ele>
        <time>2021-08-08T14:48:56Z</time>
      </trkpt>
      <trkpt lat="49.00812" lon="0.05977">
        <ele>165.8</ele>
        <time>2021-08-08T14:48:57Z</time>
      </trkpt>
      <trkpt lat="49.00813" lon="0.05974">
        <ele>165.74</ele>
        <time>2021-08-08T14:48:58Z</time>
      </trkpt>
      <trkpt lat="49.00815" lon="0.0597">
        <ele>165.74</ele>
        <time>2021-08-08T14:48:59Z</time>
      </trkpt>
      <trkpt lat="49.00815" lon="0.05967">
        <ele>165.82</ele>
        <time>2021-08-08T14:49:00Z</time>
      </trkpt>
      <trkpt lat="49.00816" lon="0.05963">
        <ele>165.91</ele>
        <time>2021-08-08T14:49:01Z</time>
      </trkpt>
      <trkpt lat="49.00818" lon="0.05959">
        <ele>166.01</ele>
        <time>2021-08-08T14:49:02Z</time>
      </trkpt>
      <trkpt lat="49.0082" lon="0.05955">
        <ele>166.07</ele>
        <time>2021-08-08T14:49:03Z</time>
      </trkpt>
      <trkpt lat="49.00823" lon="0.05951">
        <ele>166.11</ele>
        <time>2021-08-08T14:49:04Z</time>
      </trkpt>
      <trkpt lat="49.00826" lon="0.05948">
        <ele>166.14</ele>
        <time>2021-08-08T14:49:05Z</time>
      </trkpt>
      <trkpt lat="49.00828" lon="0.05944">
        <ele>166.18</ele>
        <time>2021-08-08T14:49:06Z</time>
      </trkpt>
      <trkpt lat="49.0083" lon="0.05942">
        <ele>166.13</ele>
        <time>2021-08-08T14:49:07Z</time>
      </trkpt>
      <trkpt lat="49.00833" lon="0.05939">
        <ele>166.04</ele>
        <time>2021-08-08T14:49:08Z</time>
      </trkpt>
      <trkpt lat="49.00836" lon="0.05936">
        <ele>165.95</ele>
        <time>2021-08-08T14:49:09Z</time>
      </trkpt>
      <trkpt lat="49.00839" lon="0.05934">
        <ele>165.84</ele>
        <time>2021-08-08T14:49:10Z</time>
      </trkpt>
      <trkpt lat="49.00842" lon="0.05932">
        <ele>165.74</ele>
        <time>2021-08-08T14:49:11Z</time>
      </trkpt>
      <trkpt lat="49.00845" lon="0.05928">
        <ele>165.63</ele>
        <time>2021-08-08T14:49:12Z</time>
      </trkpt>
      <trkpt lat="49.00849" lon="0.05924">
        <ele>165.49</ele>
        <time>2021-08-08T14:49:13Z</time>
      </trkpt>
      <trkpt lat="49.00853" lon="0.05921">
        <ele>165.35</ele>
        <time>2021-08-08T14:49:14Z</time>
      </trkpt>
      <trkpt lat="49.00858" lon="0.05919">
        <ele>165.19</ele>
        <time>2021-08-08T14:49:15Z</time>
      </trkpt>
      <trkpt lat="49.00861" lon="0.05916">
        <ele>165.08</ele>
        <time>2021-08-08T14:49:16Z</time>
      </trkpt>
      <trkpt lat="49.00865" lon="0.05913">
        <ele>164.94</ele>
        <time>2021-08-08T14:49:17Z</time>
      </trkpt>
      <trkpt lat="49.00868" lon="0.0591">
        <ele>164.81</ele>
        <time>2021-08-08T14:49:18Z</time>
      </trkpt>
      <trkpt lat="49.00872" lon="0.05906">
        <ele>164.69</ele>
        <time>2021-08-08T14:49:19Z</time>
      </trkpt>
      <trkpt lat="49.00875" lon="0.05903">
        <ele>164.57</ele>
        <time>2021-08-08T14:49:20Z</time>
      </trkpt>
      <trkpt lat="49.00878" lon="0.059">
        <ele>164.45</ele>
        <time>2021-08-08T14:49:21Z</time>
      </trkpt>
      <trkpt lat="49.00881" lon="0.05897">
        <ele>164.32</ele>
        <time>2021-08-08T14:49:22Z</time>
      </trkpt>
      <trkpt lat="49.00885" lon="0.05893">
        <ele>164.21</ele>
        <time>2021-08-08T14:49:23Z</time>
      </trkpt>
      <trkpt lat="49.00889" lon="0.05887">
        <ele>164.08</ele>
        <time>2021-08-08T14:49:24Z</time>
      </trkpt>
      <trkpt lat="49.00893" lon="0.05882">
        <ele>163.8</ele>
        <time>2021-08-08T14:49:25Z</time>
      </trkpt>
      <trkpt lat="49.00898" lon="0.05876">
        <ele>163.4</ele>
        <time>2021-08-08T14:49:26Z</time>
      </trkpt>
      <trkpt lat="49.00902" lon="0.05871">
        <ele>162.95</ele>
        <time>2021-08-08T14:49:27Z</time>
      </trkpt>
      <trkpt lat="49.00906" lon="0.05864">
        <ele>162.46</ele>
        <time>2021-08-08T14:49:28Z</time>
      </trkpt>
      <trkpt lat="49.00908" lon="0.05857">
        <ele>162.1</ele>
        <time>2021-08-08T14:49:29Z</time>
      </trkpt>
      <trkpt lat="49.00909" lon="0.05852">
        <ele>161.86</ele>
        <time>2021-08-08T14:49:30Z</time>
      </trkpt>
      <trkpt lat="49.0091" lon="0.05846">
        <ele>161.66</ele>
        <time>2021-08-08T14:49:31Z</time>
      </trkpt>
      <trkpt lat="49.00912" lon="0.05841">
        <ele>161.45</ele>
        <time>2021-08-08T14:49:32Z</time>
      </trkpt>
      <trkpt lat="49.00914" lon="0.05835">
        <ele>161.28</ele>
        <time>2021-08-08T14:49:33Z</time>
      </trkpt>
      <trkpt lat="49.00916" lon="0.05829">
        <ele>161.13</ele>
        <time>2021-08-08T14:49:34Z</time>
      </trkpt>
      <trkpt lat="49.00918" lon="0.05821">
        <ele>160.92</ele>
        <time>2021-08-08T14:49:35Z</time>
      </trkpt>
      <trkpt lat="49.00919" lon="0.05812">
        <ele>160.73</ele>
        <time>2021-08-08T14:49:36Z</time>
      </trkpt>
      <trkpt lat="49.00921" lon="0.05804">
        <ele>160.42</ele>
        <time>2021-08-08T14:49:37Z</time>
      </trkpt>
      <trkpt lat="49.00923" lon="0.05795">
        <ele>159.96</ele>
        <time>2021-08-08T14:49:38Z</time>
      </trkpt>
      <trkpt lat="49.00925" lon="0.05785">
        <ele>159.47</ele>
        <time>2021-08-08T14:49:39Z</time>
      </trkpt>
      <trkpt lat="49.00927" lon="0.05775">
        <ele>159.11</ele>
        <time>2021-08-08T14:49:40Z</time>
      </trkpt>
      <trkpt lat="49.00929" lon="0.05766">
        <ele>159.09</ele>
        <time>2021-08-08T14:49:41Z</time>
      </trkpt>
      <trkpt lat="49.00932" lon="0.05756">
        <ele>159.13</ele>
        <time>2021-08-08T14:49:42Z</time>
      </trkpt>
      <trkpt lat="49.00934" lon="0.05749">
        <ele>159.14</ele>
        <time>2021-08-08T14:49:43Z</time>
      </trkpt>
      <trkpt lat="49.00937" lon="0.05744">
        <ele>159.19</ele>
        <time>2021-08-08T14:49:44Z</time>
      </trkpt>
      <trkpt lat="49.00941" lon="0.05739">
        <ele>159.13</ele>
        <time>2021-08-08T14:49:45Z</time>
      </trkpt>
      <trkpt lat="49.00947" lon="0.05734">
        <ele>158.91</ele>
        <time>2021-08-08T14:49:46Z</time>
      </trkpt>
      <trkpt lat="49.00952" lon="0.0573">
        <ele>158.65</ele>
        <time>2021-08-08T14:49:47Z</time>
      </trkpt>
      <trkpt lat="49.00957" lon="0.05726">
        <ele>158.46</ele>
        <time>2021-08-08T14:49:48Z</time>
      </trkpt>
      <trkpt lat="49.00961" lon="0.05722">
        <ele>158.31</ele>
        <time>2021-08-08T14:49:49Z</time>
      </trkpt>
      <trkpt lat="49.00965" lon="0.05717">
        <ele>158.25</ele>
        <time>2021-08-08T14:49:50Z</time>
      </trkpt>
      <trkpt lat="49.0097" lon="0.05713">
        <ele>158.24</ele>
        <time>2021-08-08T14:49:51Z</time>
      </trkpt>
      <trkpt lat="49.00972" lon="0.05709">
        <ele>158.36</ele>
        <time>2021-08-08T14:49:52Z</time>
      </trkpt>
      <trkpt lat="49.00975" lon="0.05706">
        <ele>158.51</ele>
        <time>2021-08-08T14:49:53Z</time>
      </trkpt>
      <trkpt lat="49.00978" lon="0.05701">
        <ele>158.7</ele>
        <time>2021-08-08T14:49:54Z</time>
      </trkpt>
      <trkpt lat="49.00983" lon="0.05697">
        <ele>158.9</ele>
        <time>2021-08-08T14:49:55Z</time>
      </trkpt>
      <trkpt lat="49.00986" lon="0.05693">
        <ele>159.02</ele>
        <time>2021-08-08T14:49:56Z</time>
      </trkpt>
      <trkpt lat="49.0099" lon="0.05689">
        <ele>159.07</ele>
        <time>2021-08-08T14:49:57Z</time>
      </trkpt>
      <trkpt lat="49.00994" lon="0.05686">
        <ele>159.04</ele>
        <time>2021-08-08T14:49:58Z</time>
      </trkpt>
      <trkpt lat="49.00998" lon="0.05684">
        <ele>158.94</ele>
        <time>2021-08-08T14:49:59Z</time>
      </trkpt>
      <trkpt lat="49.01002" lon="0.05681">
        <ele>158.83</ele>
        <time>2021-08-08T14:50:00Z</time>
      </trkpt>
      <trkpt lat="49.01007" lon="0.05679">
        <ele>158.71</ele>
        <time>2021-08-08T14:50:01Z</time>
      </trkpt>
      <trkpt lat="49.01011" lon="0.05676">
        <ele>158.59</ele>
        <time>2021-08-08T14:50:02Z</time>
      </trkpt>
      <trkpt lat="49.01015" lon="0.05673">
        <ele>158.47</ele>
        <time>2021-08-08T14:50:03Z</time>
      </trkpt>
      <trkpt lat="49.0102" lon="0.05671">
        <ele>158.32</ele>
        <time>2021-08-08T14:50:04Z</time>
      </trkpt>
      <trkpt lat="49.01024" lon="0.05669">
        <ele>158.14</ele>
        <time>2021-08-08T14:50:05Z</time>
      </trkpt>
      <trkpt lat="49.01029" lon="0.05667">
        <ele>158</ele>
        <time>2021-08-08T14:50:06Z</time>
      </trkpt>
      <trkpt lat="49.01035" lon="0.05664">
        <ele>157.92</ele>
        <time>2021-08-08T14:50:07Z</time>
      </trkpt>
      <trkpt lat="49.0104" lon="0.05662">
        <ele>157.84</ele>
        <time>2021-08-08T14:50:08Z</time>
      </trkpt>
      <trkpt lat="49.01045" lon="0.0566">
        <ele>157.76</ele>
        <time>2021-08-08T14:50:09Z</time>
      </trkpt>
      <trkpt lat="49.01051" lon="0.05656">
        <ele>157.66</ele>
        <time>2021-08-08T14:50:10Z</time>
      </trkpt>
      <trkpt lat="49.01056" lon="0.05653">
        <ele>157.52</ele>
        <time>2021-08-08T14:50:11Z</time>
      </trkpt>
      <trkpt lat="49.01061" lon="0.05651">
        <ele>157.38</ele>
        <time>2021-08-08T14:50:12Z</time>
      </trkpt>
      <trkpt lat="49.01066" lon="0.05647">
        <ele>157.27</ele>
        <time>2021-08-08T14:50:13Z</time>
      </trkpt>
      <trkpt lat="49.01069" lon="0.05644">
        <ele>157.23</ele>
        <time>2021-08-08T14:50:14Z</time>
      </trkpt>
      <trkpt lat="49.01073" lon="0.05641">
        <ele>157.26</ele>
        <time>2021-08-08T14:50:15Z</time>
      </trkpt>
      <trkpt lat="49.01077" lon="0.05637">
        <ele>157.34</ele>
        <time>2021-08-08T14:50:16Z</time>
      </trkpt>
      <trkpt lat="49.01081" lon="0.05634">
        <ele>157.43</ele>
        <time>2021-08-08T14:50:17Z</time>
      </trkpt>
      <trkpt lat="49.01084" lon="0.05631">
        <ele>157.5</ele>
        <time>2021-08-08T14:50:18Z</time>
      </trkpt>
      <trkpt lat="49.01087" lon="0.05628">
        <ele>157.48</ele>
        <time>2021-08-08T14:50:19Z</time>
      </trkpt>
      <trkpt lat="49.01091" lon="0.05625">
        <ele>157.47</ele>
        <time>2021-08-08T14:50:20Z</time>
      </trkpt>
      <trkpt lat="49.01095" lon="0.0562">
        <ele>157.51</ele>
        <time>2021-08-08T14:50:21Z</time>
      </trkpt>
      <trkpt lat="49.01098" lon="0.05615">
        <ele>157.63</ele>
        <time>2021-08-08T14:50:22Z</time>
      </trkpt>
      <trkpt lat="49.01102" lon="0.0561">
        <ele>157.72</ele>
        <time>2021-08-08T14:50:23Z</time>
      </trkpt>
      <trkpt lat="49.01105" lon="0.05605">
        <ele>157.79</ele>
        <time>2021-08-08T14:50:24Z</time>
      </trkpt>
      <trkpt lat="49.01109" lon="0.05601">
        <ele>157.85</ele>
        <time>2021-08-08T14:50:25Z</time>
      </trkpt>
      <trkpt lat="49.01113" lon="0.05595">
        <ele>157.99</ele>
        <time>2021-08-08T14:50:26Z</time>
      </trkpt>
      <trkpt lat="49.01116" lon="0.05591">
        <ele>158.19</ele>
        <time>2021-08-08T14:50:27Z</time>
      </trkpt>
      <trkpt lat="49.01119" lon="0.05586">
        <ele>158.42</ele>
        <time>2021-08-08T14:50:28Z</time>
      </trkpt>
      <trkpt lat="49.01122" lon="0.05582">
        <ele>158.63</ele>
        <time>2021-08-08T14:50:29Z</time>
      </trkpt>
      <trkpt lat="49.01125" lon="0.05577">
        <ele>158.85</ele>
        <time>2021-08-08T14:50:30Z</time>
      </trkpt>
      <trkpt lat="49.0113" lon="0.05573">
        <ele>159.02</ele>
        <time>2021-08-08T14:50:31Z</time>
      </trkpt>
      <trkpt lat="49.01134" lon="0.0557">
        <ele>159.11</ele>
        <time>2021-08-08T14:50:32Z</time>
      </trkpt>
      <trkpt lat="49.01138" lon="0.05567">
        <ele>159.19</ele>
        <time>2021-08-08T14:50:33Z</time>
      </trkpt>
      <trkpt lat="49.01142" lon="0.05563">
        <ele>159.3</ele>
        <time>2021-08-08T14:50:34Z</time>
      </trkpt>
      <trkpt lat="49.01146" lon="0.0556">
        <ele>159.38</ele>
        <time>2021-08-08T14:50:35Z</time>
      </trkpt>
      <trkpt lat="49.0115" lon="0.05558">
        <ele>159.43</ele>
        <time>2021-08-08T14:50:36Z</time>
      </trkpt>
      <trkpt lat="49.01154" lon="0.05556">
        <ele>159.46</ele>
        <time>2021-08-08T14:50:37Z</time>
      </trkpt>
      <trkpt lat="49.01157" lon="0.05552">
        <ele>159.46</ele>
        <time>2021-08-08T14:50:38Z</time>
      </trkpt>
      <trkpt lat="49.01161" lon="0.05549">
        <ele>159.43</ele>
        <time>2021-08-08T14:50:39Z</time>
      </trkpt>
      <trkpt lat="49.01165" lon="0.05546">
        <ele>159.42</ele>
        <time>2021-08-08T14:50:40Z</time>
      </trkpt>
      <trkpt lat="49.01169" lon="0.05544">
        <ele>159.36</ele>
        <time>2021-08-08T14:50:41Z</time>
      </trkpt>
      <trkpt lat="49.01173" lon="0.05542">
        <ele>159.29</ele>
        <time>2021-08-08T14:50:42Z</time>
      </trkpt>
      <trkpt lat="49.01177" lon="0.05541">
        <ele>159.2</ele>
        <time>2021-08-08T14:50:43Z</time>
      </trkpt>
      <trkpt lat="49.01181" lon="0.0554">
        <ele>159.08</ele>
        <time>2021-08-08T14:50:44Z</time>
      </trkpt>
      <trkpt lat="49.01186" lon="0.0554">
        <ele>158.92</ele>
        <time>2021-08-08T14:50:45Z</time>
      </trkpt>
      <trkpt lat="49.01191" lon="0.0554">
        <ele>158.75</ele>
        <time>2021-08-08T14:50:46Z</time>
      </trkpt>
      <trkpt lat="49.01196" lon="0.05539">
        <ele>158.64</ele>
        <time>2021-08-08T14:50:47Z</time>
      </trkpt>
      <trkpt lat="49.01201" lon="0.05537">
        <ele>158.65</ele>
        <time>2021-08-08T14:50:48Z</time>
      </trkpt>
      <trkpt lat="49.01205" lon="0.05536">
        <ele>158.68</ele>
        <time>2021-08-08T14:50:49Z</time>
      </trkpt>
      <trkpt lat="49.01209" lon="0.05535">
        <ele>158.74</ele>
        <time>2021-08-08T14:50:50Z</time>
      </trkpt>
      <trkpt lat="49.01213" lon="0.05532">
        <ele>158.82</ele>
        <time>2021-08-08T14:50:51Z</time>
      </trkpt>
      <trkpt lat="49.01219" lon="0.05529">
        <ele>158.92</ele>
        <time>2021-08-08T14:50:52Z</time>
      </trkpt>
      <trkpt lat="49.01225" lon="0.05526">
        <ele>158.92</ele>
        <time>2021-08-08T14:50:53Z</time>
      </trkpt>
      <trkpt lat="49.0123" lon="0.05522">
        <ele>158.82</ele>
        <time>2021-08-08T14:50:54Z</time>
      </trkpt>
      <trkpt lat="49.01236" lon="0.05518">
        <ele>158.72</ele>
        <time>2021-08-08T14:50:55Z</time>
      </trkpt>
      <trkpt lat="49.01242" lon="0.05515">
        <ele>158.65</ele>
        <time>2021-08-08T14:50:56Z</time>
      </trkpt>
      <trkpt lat="49.01247" lon="0.05513">
        <ele>158.6</ele>
        <time>2021-08-08T14:50:57Z</time>
      </trkpt>
      <trkpt lat="49.01252" lon="0.0551">
        <ele>158.58</ele>
        <time>2021-08-08T14:50:58Z</time>
      </trkpt>
      <trkpt lat="49.01257" lon="0.05506">
        <ele>158.53</ele>
        <time>2021-08-08T14:50:59Z</time>
      </trkpt>
      <trkpt lat="49.01263" lon="0.05503">
        <ele>158.46</ele>
        <time>2021-08-08T14:51:00Z</time>
      </trkpt>
      <trkpt lat="49.01268" lon="0.055">
        <ele>158.37</ele>
        <time>2021-08-08T14:51:01Z</time>
      </trkpt>
      <trkpt lat="49.01272" lon="0.05498">
        <ele>158.28</ele>
        <time>2021-08-08T14:51:02Z</time>
      </trkpt>
      <trkpt lat="49.01277" lon="0.05495">
        <ele>158.22</ele>
        <time>2021-08-08T14:51:03Z</time>
      </trkpt>
      <trkpt lat="49.01282" lon="0.05493">
        <ele>158.13</ele>
        <time>2021-08-08T14:51:04Z</time>
      </trkpt>
      <trkpt lat="49.01288" lon="0.05491">
        <ele>158</ele>
        <time>2021-08-08T14:51:05Z</time>
      </trkpt>
      <trkpt lat="49.01294" lon="0.0549">
        <ele>157.85</ele>
        <time>2021-08-08T14:51:06Z</time>
      </trkpt>
      <trkpt lat="49.01299" lon="0.05488">
        <ele>157.71</ele>
        <time>2021-08-08T14:51:07Z</time>
      </trkpt>
      <trkpt lat="49.01305" lon="0.05486">
        <ele>157.58</ele>
        <time>2021-08-08T14:51:08Z</time>
      </trkpt>
      <trkpt lat="49.01311" lon="0.05484">
        <ele>157.44</ele>
        <time>2021-08-08T14:51:09Z</time>
      </trkpt>
      <trkpt lat="49.01316" lon="0.05483">
        <ele>157.32</ele>
        <time>2021-08-08T14:51:10Z</time>
      </trkpt>
      <trkpt lat="49.01321" lon="0.0548">
        <ele>157.2</ele>
        <time>2021-08-08T14:51:11Z</time>
      </trkpt>
      <trkpt lat="49.01326" lon="0.05477">
        <ele>157.11</ele>
        <time>2021-08-08T14:51:12Z</time>
      </trkpt>
      <trkpt lat="49.01331" lon="0.05475">
        <ele>157.02</ele>
        <time>2021-08-08T14:51:13Z</time>
      </trkpt>
      <trkpt lat="49.01338" lon="0.05473">
        <ele>156.88</ele>
        <time>2021-08-08T14:51:14Z</time>
      </trkpt>
      <trkpt lat="49.01343" lon="0.05471">
        <ele>156.75</ele>
        <time>2021-08-08T14:51:15Z</time>
      </trkpt>
      <trkpt lat="49.01349" lon="0.0547">
        <ele>156.59</ele>
        <time>2021-08-08T14:51:16Z</time>
      </trkpt>
      <trkpt lat="49.01356" lon="0.05467">
        <ele>156.42</ele>
        <time>2021-08-08T14:51:17Z</time>
      </trkpt>
      <trkpt lat="49.01362" lon="0.05468">
        <ele>156.21</ele>
        <time>2021-08-08T14:51:18Z</time>
      </trkpt>
      <trkpt lat="49.01369" lon="0.05468">
        <ele>155.97</ele>
        <time>2021-08-08T14:51:19Z</time>
      </trkpt>
      <trkpt lat="49.01376" lon="0.05467">
        <ele>155.73</ele>
        <time>2021-08-08T14:51:20Z</time>
      </trkpt>
      <trkpt lat="49.01384" lon="0.05467">
        <ele>155.47</ele>
        <time>2021-08-08T14:51:21Z</time>
      </trkpt>
      <trkpt lat="49.01391" lon="0.05467">
        <ele>155.23</ele>
        <time>2021-08-08T14:51:22Z</time>
      </trkpt>
      <trkpt lat="49.01397" lon="0.05467">
        <ele>155</ele>
        <time>2021-08-08T14:51:23Z</time>
      </trkpt>
      <trkpt lat="49.01402" lon="0.05467">
        <ele>154.81</ele>
        <time>2021-08-08T14:51:24Z</time>
      </trkpt>
      <trkpt lat="49.01406" lon="0.05467">
        <ele>154.64</ele>
        <time>2021-08-08T14:51:25Z</time>
      </trkpt>
      <trkpt lat="49.01409" lon="0.05467">
        <ele>154.51</ele>
        <time>2021-08-08T14:51:26Z</time>
      </trkpt>
      <trkpt lat="49.01412" lon="0.05467">
        <ele>154.39</ele>
        <time>2021-08-08T14:51:27Z</time>
      </trkpt>
      <trkpt lat="49.01416" lon="0.05468">
        <ele>154.25</ele>
        <time>2021-08-08T14:51:28Z</time>
      </trkpt>
      <trkpt lat="49.01418" lon="0.05468">
        <ele>154.14</ele>
        <time>2021-08-08T14:51:29Z</time>
      </trkpt>
      <trkpt lat="49.01421" lon="0.05469">
        <ele>154.01</ele>
        <time>2021-08-08T14:51:30Z</time>
      </trkpt>
      <trkpt lat="49.01426" lon="0.05469">
        <ele>153.85</ele>
        <time>2021-08-08T14:51:31Z</time>
      </trkpt>
      <trkpt lat="49.01429" lon="0.0547">
        <ele>153.71</ele>
        <time>2021-08-08T14:51:32Z</time>
      </trkpt>
      <trkpt lat="49.01433" lon="0.0547">
        <ele>153.57</ele>
        <time>2021-08-08T14:51:33Z</time>
      </trkpt>
      <trkpt lat="49.01438" lon="0.05469">
        <ele>153.41</ele>
        <time>2021-08-08T14:51:34Z</time>
      </trkpt>
      <trkpt lat="49.01443" lon="0.05467">
        <ele>153.29</ele>
        <time>2021-08-08T14:51:35Z</time>
      </trkpt>
      <trkpt lat="49.01448" lon="0.05463">
        <ele>153.03</ele>
        <time>2021-08-08T14:51:36Z</time>
      </trkpt>
      <trkpt lat="49.0145" lon="0.05459">
        <ele>152.84</ele>
        <time>2021-08-08T14:51:37Z</time>
      </trkpt>
      <trkpt lat="49.01453" lon="0.05454">
        <ele>152.6</ele>
        <time>2021-08-08T14:51:38Z</time>
      </trkpt>
      <trkpt lat="49.01456" lon="0.0545">
        <ele>152.34</ele>
        <time>2021-08-08T14:51:39Z</time>
      </trkpt>
      <trkpt lat="49.01458" lon="0.05446">
        <ele>152.08</ele>
        <time>2021-08-08T14:51:40Z</time>
      </trkpt>
      <trkpt lat="49.0146" lon="0.05441">
        <ele>151.73</ele>
        <time>2021-08-08T14:51:41Z</time>
      </trkpt>
      <trkpt lat="49.01461" lon="0.05437">
        <ele>151.28</ele>
        <time>2021-08-08T14:51:42Z</time>
      </trkpt>
      <trkpt lat="49.01463" lon="0.05432">
        <ele>150.72</ele>
        <time>2021-08-08T14:51:43Z</time>
      </trkpt>
      <trkpt lat="49.01464" lon="0.05424">
        <ele>150.06</ele>
        <time>2021-08-08T14:51:44Z</time>
      </trkpt>
      <trkpt lat="49.01464" lon="0.05415">
        <ele>149.35</ele>
        <time>2021-08-08T14:51:45Z</time>
      </trkpt>
      <trkpt lat="49.01464" lon="0.05405">
        <ele>148.39</ele>
        <time>2021-08-08T14:51:46Z</time>
      </trkpt>
      <trkpt lat="49.01464" lon="0.05394">
        <ele>147.22</ele>
        <time>2021-08-08T14:51:47Z</time>
      </trkpt>
      <trkpt lat="49.01464" lon="0.0538">
        <ele>145.83</ele>
        <time>2021-08-08T14:51:48Z</time>
      </trkpt>
      <trkpt lat="49.01465" lon="0.05363">
        <ele>143.98</ele>
        <time>2021-08-08T14:51:49Z</time>
      </trkpt>
      <trkpt lat="49.01467" lon="0.05349">
        <ele>142.46</ele>
        <time>2021-08-08T14:51:50Z</time>
      </trkpt>
      <trkpt lat="49.01467" lon="0.05336">
        <ele>141.23</ele>
        <time>2021-08-08T14:51:51Z</time>
      </trkpt>
      <trkpt lat="49.01468" lon="0.05325">
        <ele>140.06</ele>
        <time>2021-08-08T14:51:52Z</time>
      </trkpt>
      <trkpt lat="49.01468" lon="0.05315">
        <ele>138.95</ele>
        <time>2021-08-08T14:51:53Z</time>
      </trkpt>
      <trkpt lat="49.01469" lon="0.05306">
        <ele>137.86</ele>
        <time>2021-08-08T14:51:54Z</time>
      </trkpt>
      <trkpt lat="49.01472" lon="0.05299">
        <ele>136.97</ele>
        <time>2021-08-08T14:51:55Z</time>
      </trkpt>
      <trkpt lat="49.01474" lon="0.05293">
        <ele>136.22</ele>
        <time>2021-08-08T14:51:56Z</time>
      </trkpt>
      <trkpt lat="49.01478" lon="0.05286">
        <ele>135.44</ele>
        <time>2021-08-08T14:51:57Z</time>
      </trkpt>
      <trkpt lat="49.01482" lon="0.0528">
        <ele>134.73</ele>
        <time>2021-08-08T14:51:58Z</time>
      </trkpt>
      <trkpt lat="49.01487" lon="0.05273">
        <ele>133.97</ele>
        <time>2021-08-08T14:51:59Z</time>
      </trkpt>
      <trkpt lat="49.01494" lon="0.05266">
        <ele>133.15</ele>
        <time>2021-08-08T14:52:00Z</time>
      </trkpt>
      <trkpt lat="49.015" lon="0.05259">
        <ele>132.58</ele>
        <time>2021-08-08T14:52:01Z</time>
      </trkpt>
      <trkpt lat="49.01507" lon="0.05253">
        <ele>132.05</ele>
        <time>2021-08-08T14:52:02Z</time>
      </trkpt>
      <trkpt lat="49.01514" lon="0.05247">
        <ele>131.57</ele>
        <time>2021-08-08T14:52:03Z</time>
      </trkpt>
      <trkpt lat="49.01522" lon="0.0524">
        <ele>131.06</ele>
        <time>2021-08-08T14:52:04Z</time>
      </trkpt>
      <trkpt lat="49.01529" lon="0.05233">
        <ele>130.47</ele>
        <time>2021-08-08T14:52:05Z</time>
      </trkpt>
      <trkpt lat="49.01537" lon="0.05224">
        <ele>129.47</ele>
        <time>2021-08-08T14:52:06Z</time>
      </trkpt>
      <trkpt lat="49.01544" lon="0.05215">
        <ele>128.17</ele>
        <time>2021-08-08T14:52:07Z</time>
      </trkpt>
      <trkpt lat="49.01551" lon="0.05207">
        <ele>126.62</ele>
        <time>2021-08-08T14:52:08Z</time>
      </trkpt>
      <trkpt lat="49.01557" lon="0.05198">
        <ele>124.95</ele>
        <time>2021-08-08T14:52:09Z</time>
      </trkpt>
      <trkpt lat="49.01564" lon="0.05191">
        <ele>123.47</ele>
        <time>2021-08-08T14:52:10Z</time>
      </trkpt>
      <trkpt lat="49.01571" lon="0.05186">
        <ele>122.23</ele>
        <time>2021-08-08T14:52:11Z</time>
      </trkpt>
      <trkpt lat="49.01577" lon="0.05182">
        <ele>121.22</ele>
        <time>2021-08-08T14:52:12Z</time>
      </trkpt>
      <trkpt lat="49.01583" lon="0.05179">
        <ele>120.36</ele>
        <time>2021-08-08T14:52:13Z</time>
      </trkpt>
      <trkpt lat="49.01588" lon="0.05179">
        <ele>119.64</ele>
        <time>2021-08-08T14:52:14Z</time>
      </trkpt>
      <trkpt lat="49.01595" lon="0.05178">
        <ele>118.87</ele>
        <time>2021-08-08T14:52:15Z</time>
      </trkpt>
      <trkpt lat="49.01601" lon="0.05178">
        <ele>118.16</ele>
        <time>2021-08-08T14:52:16Z</time>
      </trkpt>
      <trkpt lat="49.01606" lon="0.05176">
        <ele>117.49</ele>
        <time>2021-08-08T14:52:17Z</time>
      </trkpt>
      <trkpt lat="49.01607" lon="0.05169">
        <ele>116.83</ele>
        <time>2021-08-08T14:52:18Z</time>
      </trkpt>
      <trkpt lat="49.01612" lon="0.05158">
        <ele>115.99</ele>
        <time>2021-08-08T14:52:19Z</time>
      </trkpt>
      <trkpt lat="49.01616" lon="0.0515">
        <ele>115.34</ele>
        <time>2021-08-08T14:52:20Z</time>
      </trkpt>
      <trkpt lat="49.01621" lon="0.0514">
        <ele>114.65</ele>
        <time>2021-08-08T14:52:21Z</time>
      </trkpt>
      <trkpt lat="49.01624" lon="0.05132">
        <ele>113.81</ele>
        <time>2021-08-08T14:52:22Z</time>
      </trkpt>
      <trkpt lat="49.01627" lon="0.05123">
        <ele>112.89</ele>
        <time>2021-08-08T14:52:23Z</time>
      </trkpt>
      <trkpt lat="49.0163" lon="0.05116">
        <ele>112.09</ele>
        <time>2021-08-08T14:52:24Z</time>
      </trkpt>
      <trkpt lat="49.01634" lon="0.0511">
        <ele>111.38</ele>
        <time>2021-08-08T14:52:25Z</time>
      </trkpt>
      <trkpt lat="49.01639" lon="0.05105">
        <ele>110.8</ele>
        <time>2021-08-08T14:52:26Z</time>
      </trkpt>
      <trkpt lat="49.01644" lon="0.05098">
        <ele>110.01</ele>
        <time>2021-08-08T14:52:27Z</time>
      </trkpt>
      <trkpt lat="49.01648" lon="0.0509">
        <ele>109.2</ele>
        <time>2021-08-08T14:52:28Z</time>
      </trkpt>
      <trkpt lat="49.01651" lon="0.05083">
        <ele>108.42</ele>
        <time>2021-08-08T14:52:29Z</time>
      </trkpt>
      <trkpt lat="49.01653" lon="0.05074">
        <ele>107.78</ele>
        <time>2021-08-08T14:52:30Z</time>
      </trkpt>
      <trkpt lat="49.01652" lon="0.05067">
        <ele>107.31</ele>
        <time>2021-08-08T14:52:31Z</time>
      </trkpt>
      <trkpt lat="49.01651" lon="0.0506">
        <ele>106.98</ele>
        <time>2021-08-08T14:52:32Z</time>
      </trkpt>
      <trkpt lat="49.01651" lon="0.0505">
        <ele>106.43</ele>
        <time>2021-08-08T14:52:33Z</time>
      </trkpt>
      <trkpt lat="49.01651" lon="0.05035">
        <ele>105.47</ele>
        <time>2021-08-08T14:52:34Z</time>
      </trkpt>
      <trkpt lat="49.0165" lon="0.05021">
        <ele>104.7</ele>
        <time>2021-08-08T14:52:35Z</time>
      </trkpt>
      <trkpt lat="49.01647" lon="0.05007">
        <ele>104.17</ele>
        <time>2021-08-08T14:52:36Z</time>
      </trkpt>
      <trkpt lat="49.01646" lon="0.04996">
        <ele>103.8</ele>
        <time>2021-08-08T14:52:37Z</time>
      </trkpt>
      <trkpt lat="49.01642" lon="0.04984">
        <ele>103.5</ele>
        <time>2021-08-08T14:52:38Z</time>
      </trkpt>
      <trkpt lat="49.01638" lon="0.04972">
        <ele>103.12</ele>
        <time>2021-08-08T14:52:39Z</time>
      </trkpt>
      <trkpt lat="49.01633" lon="0.0496">
        <ele>102.82</ele>
        <time>2021-08-08T14:52:40Z</time>
      </trkpt>
      <trkpt lat="49.01628" lon="0.04949">
        <ele>102.45</ele>
        <time>2021-08-08T14:52:41Z</time>
      </trkpt>
      <trkpt lat="49.01624" lon="0.0494">
        <ele>101.96</ele>
        <time>2021-08-08T14:52:42Z</time>
      </trkpt>
      <trkpt lat="49.0162" lon="0.04933">
        <ele>101.44</ele>
        <time>2021-08-08T14:52:43Z</time>
      </trkpt>
      <trkpt lat="49.01617" lon="0.04926">
        <ele>100.97</ele>
        <time>2021-08-08T14:52:44Z</time>
      </trkpt>
      <trkpt lat="49.01616" lon="0.04917">
        <ele>100.54</ele>
        <time>2021-08-08T14:52:45Z</time>
      </trkpt>
      <trkpt lat="49.01617" lon="0.04908">
        <ele>100.02</ele>
        <time>2021-08-08T14:52:46Z</time>
      </trkpt>
      <trkpt lat="49.01615" lon="0.04899">
        <ele>99.4</ele>
        <time>2021-08-08T14:52:47Z</time>
      </trkpt>
      <trkpt lat="49.01614" lon="0.04889">
        <ele>98.68</ele>
        <time>2021-08-08T14:52:48Z</time>
      </trkpt>
      <trkpt lat="49.01614" lon="0.0488">
        <ele>98.18</ele>
        <time>2021-08-08T14:52:49Z</time>
      </trkpt>
      <trkpt lat="49.01614" lon="0.04869">
        <ele>97.7</ele>
        <time>2021-08-08T14:52:50Z</time>
      </trkpt>
      <trkpt lat="49.01614" lon="0.04859">
        <ele>97.29</ele>
        <time>2021-08-08T14:52:51Z</time>
      </trkpt>
      <trkpt lat="49.01614" lon="0.04847">
        <ele>96.87</ele>
        <time>2021-08-08T14:52:52Z</time>
      </trkpt>
      <trkpt lat="49.01614" lon="0.04836">
        <ele>96.49</ele>
        <time>2021-08-08T14:52:53Z</time>
      </trkpt>
      <trkpt lat="49.01615" lon="0.04826">
        <ele>95.97</ele>
        <time>2021-08-08T14:52:54Z</time>
      </trkpt>
      <trkpt lat="49.01617" lon="0.04815">
        <ele>95.36</ele>
        <time>2021-08-08T14:52:55Z</time>
      </trkpt>
      <trkpt lat="49.01621" lon="0.04804">
        <ele>94.84</ele>
        <time>2021-08-08T14:52:56Z</time>
      </trkpt>
      <trkpt lat="49.01624" lon="0.04793">
        <ele>94.31</ele>
        <time>2021-08-08T14:52:57Z</time>
      </trkpt>
      <trkpt lat="49.01627" lon="0.04782">
        <ele>93.71</ele>
        <time>2021-08-08T14:52:58Z</time>
      </trkpt>
      <trkpt lat="49.01629" lon="0.04772">
        <ele>92.93</ele>
        <time>2021-08-08T14:52:59Z</time>
      </trkpt>
      <trkpt lat="49.01631" lon="0.04762">
        <ele>92.14</ele>
        <time>2021-08-08T14:53:00Z</time>
      </trkpt>
      <trkpt lat="49.01633" lon="0.04752">
        <ele>91.21</ele>
        <time>2021-08-08T14:53:01Z</time>
      </trkpt>
      <trkpt lat="49.01634" lon="0.04742">
        <ele>90.37</ele>
        <time>2021-08-08T14:53:02Z</time>
      </trkpt>
      <trkpt lat="49.01636" lon="0.0473">
        <ele>89.56</ele>
        <time>2021-08-08T14:53:03Z</time>
      </trkpt>
      <trkpt lat="49.01637" lon="0.04718">
        <ele>88.64</ele>
        <time>2021-08-08T14:53:04Z</time>
      </trkpt>
      <trkpt lat="49.01637" lon="0.04706">
        <ele>87.58</ele>
        <time>2021-08-08T14:53:05Z</time>
      </trkpt>
      <trkpt lat="49.0164" lon="0.04695">
        <ele>86.54</ele>
        <time>2021-08-08T14:53:06Z</time>
      </trkpt>
      <trkpt lat="49.01642" lon="0.04684">
        <ele>85.78</ele>
        <time>2021-08-08T14:53:07Z</time>
      </trkpt>
      <trkpt lat="49.01646" lon="0.04675">
        <ele>85.17</ele>
        <time>2021-08-08T14:53:08Z</time>
      </trkpt>
      <trkpt lat="49.0165" lon="0.04664">
        <ele>84.42</ele>
        <time>2021-08-08T14:53:09Z</time>
      </trkpt>
      <trkpt lat="49.01653" lon="0.04653">
        <ele>83.48</ele>
        <time>2021-08-08T14:53:10Z</time>
      </trkpt>
      <trkpt lat="49.01657" lon="0.04642">
        <ele>82.42</ele>
        <time>2021-08-08T14:53:11Z</time>
      </trkpt>
      <trkpt lat="49.01662" lon="0.0463">
        <ele>81.51</ele>
        <time>2021-08-08T14:53:12Z</time>
      </trkpt>
      <trkpt lat="49.01666" lon="0.04616">
        <ele>80.68</ele>
        <time>2021-08-08T14:53:13Z</time>
      </trkpt>
      <trkpt lat="49.01671" lon="0.04602">
        <ele>80.06</ele>
        <time>2021-08-08T14:53:14Z</time>
      </trkpt>
      <trkpt lat="49.01677" lon="0.04588">
        <ele>79.5</ele>
        <time>2021-08-08T14:53:15Z</time>
      </trkpt>
      <trkpt lat="49.01682" lon="0.04576">
        <ele>78.96</ele>
        <time>2021-08-08T14:53:16Z</time>
      </trkpt>
      <trkpt lat="49.01687" lon="0.04564">
        <ele>78.5</ele>
        <time>2021-08-08T14:53:17Z</time>
      </trkpt>
      <trkpt lat="49.01692" lon="0.04552">
        <ele>77.99</ele>
        <time>2021-08-08T14:53:18Z</time>
      </trkpt>
      <trkpt lat="49.01697" lon="0.04541">
        <ele>77.33</ele>
        <time>2021-08-08T14:53:19Z</time>
      </trkpt>
      <trkpt lat="49.01702" lon="0.04529">
        <ele>76.64</ele>
        <time>2021-08-08T14:53:20Z</time>
      </trkpt>
      <trkpt lat="49.01708" lon="0.04517">
        <ele>76.13</ele>
        <time>2021-08-08T14:53:21Z</time>
      </trkpt>
      <trkpt lat="49.01715" lon="0.04508">
        <ele>75.72</ele>
        <time>2021-08-08T14:53:22Z</time>
      </trkpt>
      <trkpt lat="49.01722" lon="0.04499">
        <ele>75.23</ele>
        <time>2021-08-08T14:53:23Z</time>
      </trkpt>
      <trkpt lat="49.01729" lon="0.0449">
        <ele>75.3</ele>
        <time>2021-08-08T14:53:24Z</time>
      </trkpt>
      <trkpt lat="49.01737" lon="0.04482">
        <ele>75.36</ele>
        <time>2021-08-08T14:53:25Z</time>
      </trkpt>
      <trkpt lat="49.01745" lon="0.04476">
        <ele>75.26</ele>
        <time>2021-08-08T14:53:26Z</time>
      </trkpt>
      <trkpt lat="49.01755" lon="0.04469">
        <ele>75.01</ele>
        <time>2021-08-08T14:53:27Z</time>
      </trkpt>
      <trkpt lat="49.01764" lon="0.04463">
        <ele>74.74</ele>
        <time>2021-08-08T14:53:28Z</time>
      </trkpt>
      <trkpt lat="49.01771" lon="0.04455">
        <ele>74.23</ele>
        <time>2021-08-08T14:53:29Z</time>
      </trkpt>
      <trkpt lat="49.01778" lon="0.04446">
        <ele>73.53</ele>
        <time>2021-08-08T14:53:30Z</time>
      </trkpt>
      <trkpt lat="49.01784" lon="0.04439">
        <ele>73.04</ele>
        <time>2021-08-08T14:53:31Z</time>
      </trkpt>
      <trkpt lat="49.01789" lon="0.04434">
        <ele>72.79</ele>
        <time>2021-08-08T14:53:32Z</time>
      </trkpt>
      <trkpt lat="49.01793" lon="0.0443">
        <ele>72.6</ele>
        <time>2021-08-08T14:53:33Z</time>
      </trkpt>
      <trkpt lat="49.01793" lon="0.04427">
        <ele>72.38</ele>
        <time>2021-08-08T14:53:34Z</time>
      </trkpt>
    </trkseg>
  </trk>
  <trk>
    <name><![CDATA[RETOUR]]></name>
    <desc><![CDATA[<p>Heure de départ: 14:16 8 août 2021<br/>Heure d'arrivée: 18:22 8 août 2021<br/>Distance: 62,5 km (04:06)<br/>Temps déplacement: 03:54<br/>Vitesse moyenne: 15,21 km/h<br/>Vitesse moyenne mouv.: 15,99 km/h<br/>Vitesse Max.: 46,14 km/h<br/>Altitude minimale: 49 m<br/>Altitude maximale: 199 m<br/>Vitesse de montée: 624,8 m/h<br/>Vitesse de descente: 1103,9 m/h<br/>Gain d'altitude: 975 m<br/>Perte d'altitude: 975 m<br/>Temps de montée: 01:33<br/>Temps de descente: 00:53<br/></p><hr align="center" width="480" style="height: 2px; width: 517px"/>]]></desc>
    <trkseg>
      <trkpt lat="49.01793" lon="0.04427">
        <ele>72.38</ele>
        <time>2021-08-08T14:53:34Z</time>
      </trkpt>
      <trkpt lat="49.01791" lon="0.04425">
        <ele>72.14</ele>
        <time>2021-08-08T14:53:35Z</time>
      </trkpt>
      <trkpt lat="49.01787" lon="0.04421">
        <ele>71.82</ele>
        <time>2021-08-08T14:53:36Z</time>
      </trkpt>
      <trkpt lat="49.01782" lon="0.04421">
        <ele>71.57</ele>
        <time>2021-08-08T14:53:37Z</time>
      </trkpt>
      <trkpt lat="49.01777" lon="0.0442">
        <ele>71.36</ele>
        <time>2021-08-08T14:53:38Z</time>
      </trkpt>
      <trkpt lat="49.01772" lon="0.04419">
        <ele>71.34</ele>
        <time>2021-08-08T14:53:39Z</time>
      </trkpt>
      <trkpt lat="49.01768" lon="0.04419">
        <ele>71.43</ele>
        <time>2021-08-08T14:53:40Z</time>
      </trkpt>
      <trkpt lat="49.01763" lon="0.04419">
        <ele>71.59</ele>
        <time>2021-08-08T14:53:41Z</time>
      </trkpt>
      <trkpt lat="49.01759" lon="0.04419">
        <ele>71.74</ele>
        <time>2021-08-08T14:53:42Z</time>
      </trkpt>
      <trkpt lat="49.01754" lon="0.0442">
        <ele>71.9</ele>
        <time>2021-08-08T14:53:43Z</time>
      </trkpt>
      <trkpt lat="49.01749" lon="0.0442">
        <ele>72.09</ele>
        <time>2021-08-08T14:53:44Z</time>
      </trkpt>
      <trkpt lat="49.01745" lon="0.04421">
        <ele>72.36</ele>
        <time>2021-08-08T14:53:45Z</time>
      </trkpt>
      <trkpt lat="49.01742" lon="0.04421">
        <ele>72.6</ele>
        <time>2021-08-08T14:53:46Z</time>
      </trkpt>
      <trkpt lat="49.01739" lon="0.04421">
        <ele>72.82</ele>
        <time>2021-08-08T14:53:47Z</time>
      </trkpt>
      <trkpt lat="49.01735" lon="0.04421">
        <ele>73.03</ele>
        <time>2021-08-08T14:53:48Z</time>
      </trkpt>
      <trkpt lat="49.01732" lon="0.04422">
        <ele>73.24</ele>
        <time>2021-08-08T14:53:49Z</time>
      </trkpt>
      <trkpt lat="49.01729" lon="0.04423">
        <ele>73.47</ele>
        <time>2021-08-08T14:53:50Z</time>
      </trkpt>
      <trkpt lat="49.01725" lon="0.04423">
        <ele>73.72</ele>
        <time>2021-08-08T14:53:51Z</time>
      </trkpt>
      <trkpt lat="49.01721" lon="0.04424">
        <ele>73.95</ele>
        <time>2021-08-08T14:53:52Z</time>
      </trkpt>
      <trkpt lat="49.01718" lon="0.04424">
        <ele>74.19</ele>
        <time>2021-08-08T14:53:53Z</time>
      </trkpt>
      <trkpt lat="49.01714" lon="0.04425">
        <ele>74.4</ele>
        <time>2021-08-08T14:53:54Z</time>
      </trkpt>
      <trkpt lat="49.0171" lon="0.04424">
        <ele>74.64</ele>
        <time>2021-08-08T14:53:55Z</time>
      </trkpt>
      <trkpt lat="49.01707" lon="0.04424">
        <ele>74.84</ele>
        <time>2021-08-08T14:53:56Z</time>
      </trkpt>
      <trkpt lat="49.01704" lon="0.04424">
        <ele>75.03</ele>
        <time>2021-08-08T14:53:57Z</time>
      </trkpt>
      <trkpt lat="49.01701" lon="0.04425">
        <ele>75.2</ele>
        <time>2021-08-08T14:53:58Z</time>
      </trkpt>
      <trkpt lat="49.01698" lon="0.04425">
        <ele>75.38</ele>
        <time>2021-08-08T14:53:59Z</time>
      </trkpt>
      <trkpt lat="49.01695" lon="0.04425">
        <ele>75.57</ele>
        <time>2021-08-08T14:54:00Z</time>
      </trkpt>
      <trkpt lat="49.01693" lon="0.04426">
        <ele>75.73</ele>
        <time>2021-08-08T14:54:01Z</time>
      </trkpt>
      <trkpt lat="49.0169" lon="0.04426">
        <ele>75.92</ele>
        <time>2021-08-08T14:54:02Z</time>
      </trkpt>
      <trkpt lat="49.01688" lon="0.04425">
        <ele>76.15</ele>
        <time>2021-08-08T14:54:03Z</time>
      </trkpt>
      <trkpt lat="49.01686" lon="0.04426">
        <ele>76.34</ele>
        <time>2021-08-08T14:54:04Z</time>
      </trkpt>
      <trkpt lat="49.01683" lon="0.04426">
        <ele>76.55</ele>
        <time>2021-08-08T14:54:05Z</time>
      </trkpt>
      <trkpt lat="49.0168" lon="0.04427">
        <ele>76.75</ele>
        <time>2021-08-08T14:54:06Z</time>
      </trkpt>
      <trkpt lat="49.01677" lon="0.04426">
        <ele>76.98</ele>
        <time>2021-08-08T14:54:07Z</time>
      </trkpt>
      <trkpt lat="49.01675" lon="0.04427">
        <ele>77.19</ele>
        <time>2021-08-08T14:54:08Z</time>
      </trkpt>
      <trkpt lat="49.01672" lon="0.04426">
        <ele>77.44</ele>
        <time>2021-08-08T14:54:09Z</time>
      </trkpt>
      <trkpt lat="49.01669" lon="0.04426">
        <ele>77.71</ele>
        <time>2021-08-08T14:54:10Z</time>
      </trkpt>
      <trkpt lat="49.01666" lon="0.04426">
        <ele>77.95</ele>
        <time>2021-08-08T14:54:11Z</time>
      </trkpt>
      <trkpt lat="49.01663" lon="0.04427">
        <ele>78.15</ele>
        <time>2021-08-08T14:54:12Z</time>
      </trkpt>
      <trkpt lat="49.01659" lon="0.04429">
        <ele>78.42</ele>
        <time>2021-08-08T14:54:13Z</time>
      </trkpt>
      <trkpt lat="49.01657" lon="0.0443">
        <ele>78.64</ele>
        <time>2021-08-08T14:54:14Z</time>
      </trkpt>
      <trkpt lat="49.01653" lon="0.04432">
        <ele>78.89</ele>
        <time>2021-08-08T14:54:15Z</time>
      </trkpt>
      <trkpt lat="49.01651" lon="0.04433">
        <ele>79.07</ele>
        <time>2021-08-08T14:54:16Z</time>
      </trkpt>
      <trkpt lat="49.01648" lon="0.04433">
        <ele>79.25</ele>
        <time>2021-08-08T14:54:17Z</time>
      </trkpt>
      <trkpt lat="49.01646" lon="0.04434">
        <ele>79.44</ele>
        <time>2021-08-08T14:54:18Z</time>
      </trkpt>
      <trkpt lat="49.01643" lon="0.04435">
        <ele>79.65</ele>
        <time>2021-08-08T14:54:19Z</time>
      </trkpt>
      <trkpt lat="49.0164" lon="0.04435">
        <ele>79.84</ele>
        <time>2021-08-08T14:54:20Z</time>
      </trkpt>
      <trkpt lat="49.01638" lon="0.04436">
        <ele>79.98</ele>
        <time>2021-08-08T14:54:21Z</time>
      </trkpt>
      <trkpt lat="49.01636" lon="0.04437">
        <ele>80.1</ele>
        <time>2021-08-08T14:54:22Z</time>
      </trkpt>
      <trkpt lat="49.01633" lon="0.04437">
        <ele>80.21</ele>
        <time>2021-08-08T14:54:23Z</time>
      </trkpt>
      <trkpt lat="49.0163" lon="0.04438">
        <ele>80.33</ele>
        <time>2021-08-08T14:54:24Z</time>
      </trkpt>
      <trkpt lat="49.01627" lon="0.04439">
        <ele>80.45</ele>
        <time>2021-08-08T14:54:25Z</time>
      </trkpt>
      <trkpt lat="49.01624" lon="0.04439">
        <ele>80.57</ele>
        <time>2021-08-08T14:54:26Z</time>
      </trkpt>
      <trkpt lat="49.01621" lon="0.04438">
        <ele>80.71</ele>
        <time>2021-08-08T14:54:27Z</time>
      </trkpt>
      <trkpt lat="49.01619" lon="0.04437">
        <ele>80.84</ele>
        <time>2021-08-08T14:54:28Z</time>
      </trkpt>
      <trkpt lat="49.01616" lon="0.04437">
        <ele>80.98</ele>
        <time>2021-08-08T14:54:29Z</time>
      </trkpt>
      <trkpt lat="49.01613" lon="0.04433">
        <ele>81.19</ele>
        <time>2021-08-08T14:54:30Z</time>
      </trkpt>
      <trkpt lat="49.0161" lon="0.04432">
        <ele>81.41</ele>
        <time>2021-08-08T14:54:31Z</time>
      </trkpt>
      <trkpt lat="49.01607" lon="0.04431">
        <ele>81.61</ele>
        <time>2021-08-08T14:54:32Z</time>
      </trkpt>
      <trkpt lat="49.01604" lon="0.04431">
        <ele>81.78</ele>
        <time>2021-08-08T14:54:33Z</time>
      </trkpt>
      <trkpt lat="49.01601" lon="0.04431">
        <ele>81.95</ele>
        <time>2021-08-08T14:54:34Z</time>
      </trkpt>
      <trkpt lat="49.01598" lon="0.04431">
        <ele>82.1</ele>
        <time>2021-08-08T14:54:35Z</time>
      </trkpt>
      <trkpt lat="49.01595" lon="0.04432">
        <ele>82.26</ele>
        <time>2021-08-08T14:54:36Z</time>
      </trkpt>
      <trkpt lat="49.01592" lon="0.04431">
        <ele>82.43</ele>
        <time>2021-08-08T14:54:37Z</time>
      </trkpt>
      <trkpt lat="49.0159" lon="0.0443">
        <ele>82.59</ele>
        <time>2021-08-08T14:54:38Z</time>
      </trkpt>
      <trkpt lat="49.01586" lon="0.0443">
        <ele>82.76</ele>
        <time>2021-08-08T14:54:39Z</time>
      </trkpt>
      <trkpt lat="49.01583" lon="0.0443">
        <ele>82.95</ele>
        <time>2021-08-08T14:54:40Z</time>
      </trkpt>
      <trkpt lat="49.01579" lon="0.0443">
        <ele>83.2</ele>
        <time>2021-08-08T14:54:41Z</time>
      </trkpt>
      <trkpt lat="49.01576" lon="0.04429">
        <ele>83.45</ele>
        <time>2021-08-08T14:54:42Z</time>
      </trkpt>
      <trkpt lat="49.01572" lon="0.0443">
        <ele>83.68</ele>
        <time>2021-08-08T14:54:43Z</time>
      </trkpt>
      <trkpt lat="49.01569" lon="0.0443">
        <ele>83.91</ele>
        <time>2021-08-08T14:54:44Z</time>
      </trkpt>
      <trkpt lat="49.01566" lon="0.0443">
        <ele>84.15</ele>
        <time>2021-08-08T14:54:45Z</time>
      </trkpt>
      <trkpt lat="49.01563" lon="0.0443">
        <ele>84.38</ele>
        <time>2021-08-08T14:54:46Z</time>
      </trkpt>
      <trkpt lat="49.01559" lon="0.0443">
        <ele>84.62</ele>
        <time>2021-08-08T14:54:47Z</time>
      </trkpt>
      <trkpt lat="49.01556" lon="0.0443">
        <ele>84.85</ele>
        <time>2021-08-08T14:54:48Z</time>
      </trkpt>
      <trkpt lat="49.01553" lon="0.04429">
        <ele>85.11</ele>
        <time>2021-08-08T14:54:49Z</time>
      </trkpt>
      <trkpt lat="49.01549" lon="0.04429">
        <ele>85.42</ele>
        <time>2021-08-08T14:54:50Z</time>
      </trkpt>
      <trkpt lat="49.01546" lon="0.04429">
        <ele>85.7</ele>
        <time>2021-08-08T14:54:51Z</time>
      </trkpt>
      <trkpt lat="49.01543" lon="0.04429">
        <ele>85.99</ele>
        <time>2021-08-08T14:54:52Z</time>
      </trkpt>
      <trkpt lat="49.0154" lon="0.04429">
        <ele>86.27</ele>
        <time>2021-08-08T14:54:53Z</time>
      </trkpt>
      <trkpt lat="49.01536" lon="0.04428">
        <ele>86.56</ele>
        <time>2021-08-08T14:54:54Z</time>
      </trkpt>
      <trkpt lat="49.01533" lon="0.04428">
        <ele>86.83</ele>
        <time>2021-08-08T14:54:55Z</time>
      </trkpt>
      <trkpt lat="49.0153" lon="0.04429">
        <ele>87.1</ele>
        <time>2021-08-08T14:54:56Z</time>
      </trkpt>
      <trkpt lat="49.01528" lon="0.04429">
        <ele>87.35</ele>
        <time>2021-08-08T14:54:57Z</time>
      </trkpt>
      <trkpt lat="49.01525" lon="0.04429">
        <ele>87.59</ele>
        <time>2021-08-08T14:54:58Z</time>
      </trkpt>
      <trkpt lat="49.01522" lon="0.04429">
        <ele>87.86</ele>
        <time>2021-08-08T14:54:59Z</time>
      </trkpt>
      <trkpt lat="49.01519" lon="0.0443">
        <ele>88.13</ele>
        <time>2021-08-08T14:55:00Z</time>
      </trkpt>
      <trkpt lat="49.01516" lon="0.0443">
        <ele>88.39</ele>
        <time>2021-08-08T14:55:01Z</time>
      </trkpt>
      <trkpt lat="49.01514" lon="0.0443">
        <ele>88.65</ele>
        <time>2021-08-08T14:55:02Z</time>
      </trkpt>
      <trkpt lat="49.01511" lon="0.04431">
        <ele>88.88</ele>
        <time>2021-08-08T14:55:03Z</time>
      </trkpt>
      <trkpt lat="49.01509" lon="0.04431">
        <ele>89.09</ele>
        <time>2021-08-08T14:55:04Z</time>
      </trkpt>
      <trkpt lat="49.01507" lon="0.04432">
        <ele>89.31</ele>
        <time>2021-08-08T14:55:05Z</time>
      </trkpt>
      <trkpt lat="49.01504" lon="0.04432">
        <ele>89.55</ele>
        <time>2021-08-08T14:55:06Z</time>
      </trkpt>
      <trkpt lat="49.01501" lon="0.04432">
        <ele>89.78</ele>
        <time>2021-08-08T14:55:07Z</time>
      </trkpt>
      <trkpt lat="49.01499" lon="0.04433">
        <ele>90.12</ele>
        <time>2021-08-08T14:55:08Z</time>
      </trkpt>
      <trkpt lat="49.01496" lon="0.04433">
        <ele>90.56</ele>
        <time>2021-08-08T14:55:09Z</time>
      </trkpt>
      <trkpt lat="49.01494" lon="0.04433">
        <ele>91.03</ele>
        <time>2021-08-08T14:55:10Z</time>
      </trkpt>
      <trkpt lat="49.01492" lon="0.04434">
        <ele>91.44</ele>
        <time>2021-08-08T14:55:11Z</time>
      </trkpt>
      <trkpt lat="49.01489" lon="0.04435">
        <ele>91.87</ele>
        <time>2021-08-08T14:55:12Z</time>
      </trkpt>
      <trkpt lat="49.01487" lon="0.04435">
        <ele>92.33</ele>
        <time>2021-08-08T14:55:13Z</time>
      </trkpt>
      <trkpt lat="49.01484" lon="0.04436">
        <ele>92.8</ele>
        <time>2021-08-08T14:55:14Z</time>
      </trkpt>
      <trkpt lat="49.01482" lon="0.04436">
        <ele>93.25</ele>
        <time>2021-08-08T14:55:15Z</time>
      </trkpt>
      <trkpt lat="49.01479" lon="0.04436">
        <ele>93.72</ele>
        <time>2021-08-08T14:55:16Z</time>
      </trkpt>
      <trkpt lat="49.01477" lon="0.04435">
        <ele>94.19</ele>
        <time>2021-08-08T14:55:17Z</time>
      </trkpt>
      <trkpt lat="49.01475" lon="0.04434">
        <ele>94.59</ele>
        <time>2021-08-08T14:55:18Z</time>
      </trkpt>
      <trkpt lat="49.01473" lon="0.04434">
        <ele>95</ele>
        <time>2021-08-08T14:55:19Z</time>
      </trkpt>
      <trkpt lat="49.01471" lon="0.04433">
        <ele>95.41</ele>
        <time>2021-08-08T14:55:20Z</time>
      </trkpt>
      <trkpt lat="49.01469" lon="0.04433">
        <ele>95.85</ele>
        <time>2021-08-08T14:55:21Z</time>
      </trkpt>
      <trkpt lat="49.01467" lon="0.04433">
        <ele>96.35</ele>
        <time>2021-08-08T14:55:22Z</time>
      </trkpt>
      <trkpt lat="49.01465" lon="0.04432">
        <ele>96.76</ele>
        <time>2021-08-08T14:55:23Z</time>
      </trkpt>
      <trkpt lat="49.01464" lon="0.04432">
        <ele>97.12</ele>
        <time>2021-08-08T14:55:24Z</time>
      </trkpt>
      <trkpt lat="49.01463" lon="0.04431">
        <ele>97.45</ele>
        <time>2021-08-08T14:55:25Z</time>
      </trkpt>
      <trkpt lat="49.01461" lon="0.04431">
        <ele>97.77</ele>
        <time>2021-08-08T14:55:26Z</time>
      </trkpt>
      <trkpt lat="49.0146" lon="0.0443">
        <ele>98.06</ele>
        <time>2021-08-08T14:55:27Z</time>
      </trkpt>
      <trkpt lat="49.01459" lon="0.0443">
        <ele>98.3</ele>
        <time>2021-08-08T14:55:28Z</time>
      </trkpt>
      <trkpt lat="49.01457" lon="0.0443">
        <ele>98.58</ele>
        <time>2021-08-08T14:55:29Z</time>
      </trkpt>
      <trkpt lat="49.01456" lon="0.04429">
        <ele>98.89</ele>
        <time>2021-08-08T14:55:30Z</time>
      </trkpt>
      <trkpt lat="49.01455" lon="0.04427">
        <ele>99.27</ele>
        <time>2021-08-08T14:55:31Z</time>
      </trkpt>
      <trkpt lat="49.01453" lon="0.04426">
        <ele>99.59</ele>
        <time>2021-08-08T14:55:32Z</time>
      </trkpt>
      <trkpt lat="49.01452" lon="0.04425">
        <ele>99.91</ele>
        <time>2021-08-08T14:55:33Z</time>
      </trkpt>
      <trkpt lat="49.01451" lon="0.04423">
        <ele>100.16</ele>
        <time>2021-08-08T14:55:34Z</time>
      </trkpt>
      <trkpt lat="49.0145" lon="0.04423">
        <ele>100.45</ele>
        <time>2021-08-08T14:55:35Z</time>
      </trkpt>
      <trkpt lat="49.01449" lon="0.04422">
        <ele>100.72</ele>
        <time>2021-08-08T14:55:36Z</time>
      </trkpt>
      <trkpt lat="49.01448" lon="0.04421">
        <ele>100.96</ele>
        <time>2021-08-08T14:55:37Z</time>
      </trkpt>
      <trkpt lat="49.01447" lon="0.04421">
        <ele>101.2</ele>
        <time>2021-08-08T14:55:38Z</time>
      </trkpt>
      <trkpt lat="49.01445" lon="0.04419">
        <ele>101.58</ele>
        <time>2021-08-08T14:55:39Z</time>
      </trkpt>
      <trkpt lat="49.01443" lon="0.04418">
        <ele>101.95</ele>
        <time>2021-08-08T14:55:40Z</time>
      </trkpt>
      <trkpt lat="49.01442" lon="0.04418">
        <ele>102.24</ele>
        <time>2021-08-08T14:55:41Z</time>
      </trkpt>
      <trkpt lat="49.0144" lon="0.04417">
        <ele>102.52</ele>
        <time>2021-08-08T14:55:42Z</time>
      </trkpt>
      <trkpt lat="49.01438" lon="0.04417">
        <ele>102.76</ele>
        <time>2021-08-08T14:55:43Z</time>
      </trkpt>
      <trkpt lat="49.01437" lon="0.04416">
        <ele>102.97</ele>
        <time>2021-08-08T14:55:44Z</time>
      </trkpt>
      <trkpt lat="49.01436" lon="0.04415">
        <ele>103.12</ele>
        <time>2021-08-08T14:55:45Z</time>
      </trkpt>
      <trkpt lat="49.01434" lon="0.04414">
        <ele>103.32</ele>
        <time>2021-08-08T14:55:46Z</time>
      </trkpt>
      <trkpt lat="49.01432" lon="0.04414">
        <ele>103.54</ele>
        <time>2021-08-08T14:55:47Z</time>
      </trkpt>
      <trkpt lat="49.01431" lon="0.04414">
        <ele>103.79</ele>
        <time>2021-08-08T14:55:48Z</time>
      </trkpt>
      <trkpt lat="49.01429" lon="0.04414">
        <ele>104.01</ele>
        <time>2021-08-08T14:55:49Z</time>
      </trkpt>
      <trkpt lat="49.01427" lon="0.04414">
        <ele>104.27</ele>
        <time>2021-08-08T14:55:50Z</time>
      </trkpt>
      <trkpt lat="49.01426" lon="0.04414">
        <ele>104.47</ele>
        <time>2021-08-08T14:55:51Z</time>
      </trkpt>
      <trkpt lat="49.01425" lon="0.04415">
        <ele>104.65</ele>
        <time>2021-08-08T14:55:52Z</time>
      </trkpt>
      <trkpt lat="49.01424" lon="0.04414">
        <ele>104.84</ele>
        <time>2021-08-08T14:55:53Z</time>
      </trkpt>
      <trkpt lat="49.01422" lon="0.04413">
        <ele>105.09</ele>
        <time>2021-08-08T14:55:54Z</time>
      </trkpt>
      <trkpt lat="49.0142" lon="0.04411">
        <ele>105.32</ele>
        <time>2021-08-08T14:55:55Z</time>
      </trkpt>
      <trkpt lat="49.01419" lon="0.0441">
        <ele>105.57</ele>
        <time>2021-08-08T14:55:56Z</time>
      </trkpt>
      <trkpt lat="49.01417" lon="0.0441">
        <ele>105.87</ele>
        <time>2021-08-08T14:55:57Z</time>
      </trkpt>
      <trkpt lat="49.01415" lon="0.0441">
        <ele>106.15</ele>
        <time>2021-08-08T14:55:58Z</time>
      </trkpt>
      <trkpt lat="49.01413" lon="0.04409">
        <ele>106.45</ele>
        <time>2021-08-08T14:55:59Z</time>
      </trkpt>
      <trkpt lat="49.01411" lon="0.04409">
        <ele>106.72</ele>
        <time>2021-08-08T14:56:00Z</time>
      </trkpt>
      <trkpt lat="49.01409" lon="0.04408">
        <ele>106.97</ele>
        <time>2021-08-08T14:56:01Z</time>
      </trkpt>
      <trkpt lat="49.01407" lon="0.04408">
        <ele>107.23</ele>
        <time>2021-08-08T14:56:02Z</time>
      </trkpt>
      <trkpt lat="49.01406" lon="0.04407">
        <ele>107.5</ele>
        <time>2021-08-08T14:56:03Z</time>
      </trkpt>
      <trkpt lat="49.01404" lon="0.04408">
        <ele>107.78</ele>
        <time>2021-08-08T14:56:04Z</time>
      </trkpt>
      <trkpt lat="49.01402" lon="0.04407">
        <ele>108.01</ele>
        <time>2021-08-08T14:56:05Z</time>
      </trkpt>
      <trkpt lat="49.01401" lon="0.04405">
        <ele>108.2</ele>
        <time>2021-08-08T14:56:06Z</time>
      </trkpt>
      <trkpt lat="49.014" lon="0.04404">
        <ele>108.37</ele>
        <time>2021-08-08T14:56:07Z</time>
      </trkpt>
      <trkpt lat="49.01398" lon="0.04404">
        <ele>108.56</ele>
        <time>2021-08-08T14:56:08Z</time>
      </trkpt>
      <trkpt lat="49.01397" lon="0.04403">
        <ele>108.8</ele>
        <time>2021-08-08T14:56:09Z</time>
      </trkpt>
      <trkpt lat="49.01394" lon="0.04403">
        <ele>109.09</ele>
        <time>2021-08-08T14:56:10Z</time>
      </trkpt>
      <trkpt lat="49.01392" lon="0.04403">
        <ele>109.4</ele>
        <time>2021-08-08T14:56:11Z</time>
      </trkpt>
      <trkpt lat="49.0139" lon="0.04402">
        <ele>109.67</ele>
        <time>2021-08-08T14:56:12Z</time>
      </trkpt>
      <trkpt lat="49.01388" lon="0.04402">
        <ele>109.96</ele>
        <time>2021-08-08T14:56:13Z</time>
      </trkpt>
      <trkpt lat="49.01386" lon="0.04401">
        <ele>110.25</ele>
        <time>2021-08-08T14:56:14Z</time>
      </trkpt>
      <trkpt lat="49.01384" lon="0.044">
        <ele>110.55</ele>
        <time>2021-08-08T14:56:15Z</time>
      </trkpt>
      <trkpt lat="49.01383" lon="0.044">
        <ele>110.79</ele>
        <time>2021-08-08T14:56:16Z</time>
      </trkpt>
      <trkpt lat="49.01382" lon="0.044">
        <ele>110.97</ele>
        <time>2021-08-08T14:56:17Z</time>
      </trkpt>
      <trkpt lat="49.01381" lon="0.04401">
        <ele>111.12</ele>
        <time>2021-08-08T14:56:18Z</time>
      </trkpt>
      <trkpt lat="49.01379" lon="0.04401">
        <ele>111.3</ele>
        <time>2021-08-08T14:56:19Z</time>
      </trkpt>
      <trkpt lat="49.01377" lon="0.04401">
        <ele>111.6</ele>
        <time>2021-08-08T14:56:20Z</time>
      </trkpt>
      <trkpt lat="49.01375" lon="0.04402">
        <ele>111.9</ele>
        <time>2021-08-08T14:56:21Z</time>
      </trkpt>
      <trkpt lat="49.01373" lon="0.04403">
        <ele>112.15</ele>
        <time>2021-08-08T14:56:22Z</time>
      </trkpt>
      <trkpt lat="49.01372" lon="0.04403">
        <ele>112.38</ele>
        <time>2021-08-08T14:56:23Z</time>
      </trkpt>
      <trkpt lat="49.01369" lon="0.04403">
        <ele>112.69</ele>
        <time>2021-08-08T14:56:24Z</time>
      </trkpt>
      <trkpt lat="49.01367" lon="0.04403">
        <ele>113</ele>
        <time>2021-08-08T14:56:25Z</time>
      </trkpt>
      <trkpt lat="49.01365" lon="0.04403">
        <ele>113.26</ele>
        <time>2021-08-08T14:56:26Z</time>
      </trkpt>
      <trkpt lat="49.01364" lon="0.04402">
        <ele>113.49</ele>
        <time>2021-08-08T14:56:27Z</time>
      </trkpt>
      <trkpt lat="49.01362" lon="0.04401">
        <ele>113.76</ele>
        <time>2021-08-08T14:56:28Z</time>
      </trkpt>
      <trkpt lat="49.0136" lon="0.044">
        <ele>114.01</ele>
        <time>2021-08-08T14:56:29Z</time>
      </trkpt>
      <trkpt lat="49.01358" lon="0.044">
        <ele>114.23</ele>
        <time>2021-08-08T14:56:30Z</time>
      </trkpt>
      <trkpt lat="49.01356" lon="0.044">
        <ele>114.43</ele>
        <time>2021-08-08T14:56:31Z</time>
      </trkpt>
      <trkpt lat="49.01354" lon="0.04399">
        <ele>114.65</ele>
        <time>2021-08-08T14:56:32Z</time>
      </trkpt>
      <trkpt lat="49.01352" lon="0.04397">
        <ele>114.86</ele>
        <time>2021-08-08T14:56:33Z</time>
      </trkpt>
      <trkpt lat="49.01351" lon="0.04397">
        <ele>115.05</ele>
        <time>2021-08-08T14:56:34Z</time>
      </trkpt>
      <trkpt lat="49.01349" lon="0.04396">
        <ele>115.23</ele>
        <time>2021-08-08T14:56:35Z</time>
      </trkpt>
      <trkpt lat="49.01347" lon="0.04396">
        <ele>115.42</ele>
        <time>2021-08-08T14:56:36Z</time>
      </trkpt>
      <trkpt lat="49.01345" lon="0.04395">
        <ele>115.64</ele>
        <time>2021-08-08T14:56:37Z</time>
      </trkpt>
      <trkpt lat="49.01343" lon="0.04394">
        <ele>115.88</ele>
        <time>2021-08-08T14:56:38Z</time>
      </trkpt>
      <trkpt lat="49.01341" lon="0.04395">
        <ele>116.11</ele>
        <time>2021-08-08T14:56:39Z</time>
      </trkpt>
      <trkpt lat="49.01338" lon="0.04395">
        <ele>116.35</ele>
        <time>2021-08-08T14:56:40Z</time>
      </trkpt>
      <trkpt lat="49.01336" lon="0.04395">
        <ele>116.6</ele>
        <time>2021-08-08T14:56:41Z</time>
      </trkpt>
      <trkpt lat="49.01333" lon="0.04396">
        <ele>116.9</ele>
        <time>2021-08-08T14:56:42Z</time>
      </trkpt>
      <trkpt lat="49.01331" lon="0.04396">
        <ele>117.22</ele>
        <time>2021-08-08T14:56:43Z</time>
      </trkpt>
      <trkpt lat="49.01328" lon="0.04397">
        <ele>117.52</ele>
        <time>2021-08-08T14:56:44Z</time>
      </trkpt>
      <trkpt lat="49.01326" lon="0.04397">
        <ele>117.8</ele>
        <time>2021-08-08T14:56:45Z</time>
      </trkpt>
      <trkpt lat="49.01324" lon="0.04397">
        <ele>118.08</ele>
        <time>2021-08-08T14:56:46Z</time>
      </trkpt>
      <trkpt lat="49.01322" lon="0.04398">
        <ele>118.36</ele>
        <time>2021-08-08T14:56:47Z</time>
      </trkpt>
      <trkpt lat="49.01321" lon="0.04398">
        <ele>118.6</ele>
        <time>2021-08-08T14:56:48Z</time>
      </trkpt>
      <trkpt lat="49.01318" lon="0.04398">
        <ele>118.85</ele>
        <time>2021-08-08T14:56:49Z</time>
      </trkpt>
      <trkpt lat="49.01316" lon="0.04398">
        <ele>119.14</ele>
        <time>2021-08-08T14:56:50Z</time>
      </trkpt>
      <trkpt lat="49.01314" lon="0.04398">
        <ele>119.41</ele>
        <time>2021-08-08T14:56:51Z</time>
      </trkpt>
      <trkpt lat="49.01312" lon="0.04397">
        <ele>119.74</ele>
        <time>2021-08-08T14:56:52Z</time>
      </trkpt>
      <trkpt lat="49.01309" lon="0.04396">
        <ele>120.09</ele>
        <time>2021-08-08T14:56:53Z</time>
      </trkpt>
      <trkpt lat="49.01307" lon="0.04395">
        <ele>120.43</ele>
        <time>2021-08-08T14:56:54Z</time>
      </trkpt>
      <trkpt lat="49.01305" lon="0.04394">
        <ele>120.75</ele>
        <time>2021-08-08T14:56:55Z</time>
      </trkpt>
      <trkpt lat="49.01303" lon="0.04392">
        <ele>121.02</ele>
        <time>2021-08-08T14:56:56Z</time>
      </trkpt>
      <trkpt lat="49.01301" lon="0.04392">
        <ele>121.28</ele>
        <time>2021-08-08T14:56:57Z</time>
      </trkpt>
      <trkpt lat="49.01299" lon="0.04392">
        <ele>121.51</ele>
        <time>2021-08-08T14:56:58Z</time>
      </trkpt>
      <trkpt lat="49.01296" lon="0.04391">
        <ele>121.78</ele>
        <time>2021-08-08T14:56:59Z</time>
      </trkpt>
      <trkpt lat="49.01294" lon="0.04391">
        <ele>122.05</ele>
        <time>2021-08-08T14:57:00Z</time>
      </trkpt>
      <trkpt lat="49.01291" lon="0.04391">
        <ele>122.32</ele>
        <time>2021-08-08T14:57:01Z</time>
      </trkpt>
      <trkpt lat="49.01289" lon="0.0439">
        <ele>122.58</ele>
        <time>2021-08-08T14:57:02Z</time>
      </trkpt>
      <trkpt lat="49.01287" lon="0.0439">
        <ele>122.84</ele>
        <time>2021-08-08T14:57:03Z</time>
      </trkpt>
      <trkpt lat="49.01285" lon="0.0439">
        <ele>123.05</ele>
        <time>2021-08-08T14:57:04Z</time>
      </trkpt>
      <trkpt lat="49.01283" lon="0.04391">
        <ele>123.25</ele>
        <time>2021-08-08T14:57:05Z</time>
      </trkpt>
      <trkpt lat="49.0128" lon="0.0439">
        <ele>123.52</ele>
        <time>2021-08-08T14:57:06Z</time>
      </trkpt>
      <trkpt lat="49.01278" lon="0.0439">
        <ele>123.78</ele>
        <time>2021-08-08T14:57:07Z</time>
      </trkpt>
      <trkpt lat="49.01276" lon="0.0439">
        <ele>123.96</ele>
        <time>2021-08-08T14:57:08Z</time>
      </trkpt>
      <trkpt lat="49.01273" lon="0.04391">
        <ele>124.13</ele>
        <time>2021-08-08T14:57:09Z</time>
      </trkpt>
      <trkpt lat="49.01271" lon="0.04391">
        <ele>124.26</ele>
        <time>2021-08-08T14:57:10Z</time>
      </trkpt>
      <trkpt lat="49.01269" lon="0.04392">
        <ele>124.39</ele>
        <time>2021-08-08T14:57:11Z</time>
      </trkpt>
      <trkpt lat="49.01267" lon="0.04392">
        <ele>124.52</ele>
        <time>2021-08-08T14:57:12Z</time>
      </trkpt>
      <trkpt lat="49.01265" lon="0.04392">
        <ele>124.65</ele>
        <time>2021-08-08T14:57:13Z</time>
      </trkpt>
      <trkpt lat="49.01263" lon="0.04392">
        <ele>124.79</ele>
        <time>2021-08-08T14:57:14Z</time>
      </trkpt>
      <trkpt lat="49.01262" lon="0.04392">
        <ele>124.94</ele>
        <time>2021-08-08T14:57:15Z</time>
      </trkpt>
      <trkpt lat="49.01259" lon="0.04392">
        <ele>125.1</ele>
        <time>2021-08-08T14:57:16Z</time>
      </trkpt>
      <trkpt lat="49.01257" lon="0.04393">
        <ele>125.24</ele>
        <time>2021-08-08T14:57:17Z</time>
      </trkpt>
      <trkpt lat="49.01255" lon="0.04393">
        <ele>125.39</ele>
        <time>2021-08-08T14:57:18Z</time>
      </trkpt>
      <trkpt lat="49.01253" lon="0.04393">
        <ele>125.55</ele>
        <time>2021-08-08T14:57:19Z</time>
      </trkpt>
      <trkpt lat="49.01251" lon="0.04393">
        <ele>125.71</ele>
        <time>2021-08-08T14:57:20Z</time>
      </trkpt>
      <trkpt lat="49.01249" lon="0.04393">
        <ele>125.91</ele>
        <time>2021-08-08T14:57:21Z</time>
      </trkpt>
      <trkpt lat="49.01246" lon="0.04393">
        <ele>126.12</ele>
        <time>2021-08-08T14:57:22Z</time>
      </trkpt>
      <trkpt lat="49.01244" lon="0.04393">
        <ele>126.36</ele>
        <time>2021-08-08T14:57:23Z</time>
      </trkpt>
      <trkpt lat="49.01242" lon="0.04392">
        <ele>126.61</ele>
        <time>2021-08-08T14:57:24Z</time>
      </trkpt>
      <trkpt lat="49.0124" lon="0.04392">
        <ele>126.87</ele>
        <time>2021-08-08T14:57:25Z</time>
      </trkpt>
      <trkpt lat="49.01238" lon="0.04392">
        <ele>127.09</ele>
        <time>2021-08-08T14:57:26Z</time>
      </trkpt>
      <trkpt lat="49.01235" lon="0.04392">
        <ele>127.33</ele>
        <time>2021-08-08T14:57:27Z</time>
      </trkpt>
      <trkpt lat="49.01233" lon="0.04393">
        <ele>127.54</ele>
        <time>2021-08-08T14:57:28Z</time>
      </trkpt>
      <trkpt lat="49.01231" lon="0.04393">
        <ele>127.75</ele>
        <time>2021-08-08T14:57:29Z</time>
      </trkpt>
      <trkpt lat="49.01228" lon="0.04393">
        <ele>127.99</ele>
        <time>2021-08-08T14:57:30Z</time>
      </trkpt>
      <trkpt lat="49.01226" lon="0.04393">
        <ele>128.26</ele>
        <time>2021-08-08T14:57:31Z</time>
      </trkpt>
      <trkpt lat="49.01224" lon="0.04391">
        <ele>128.54</ele>
        <time>2021-08-08T14:57:32Z</time>
      </trkpt>
      <trkpt lat="49.01221" lon="0.0439">
        <ele>128.86</ele>
        <time>2021-08-08T14:57:33Z</time>
      </trkpt>
      <trkpt lat="49.01218" lon="0.04389">
        <ele>129.15</ele>
        <time>2021-08-08T14:57:34Z</time>
      </trkpt>
      <trkpt lat="49.01216" lon="0.04388">
        <ele>129.39</ele>
        <time>2021-08-08T14:57:35Z</time>
      </trkpt>
      <trkpt lat="49.01214" lon="0.04387">
        <ele>129.61</ele>
        <time>2021-08-08T14:57:36Z</time>
      </trkpt>
      <trkpt lat="49.01213" lon="0.04387">
        <ele>129.77</ele>
        <time>2021-08-08T14:57:37Z</time>
      </trkpt>
      <trkpt lat="49.01211" lon="0.04387">
        <ele>129.91</ele>
        <time>2021-08-08T14:57:38Z</time>
      </trkpt>
      <trkpt lat="49.0121" lon="0.04386">
        <ele>130.03</ele>
        <time>2021-08-08T14:57:39Z</time>
      </trkpt>
      <trkpt lat="49.01208" lon="0.04385">
        <ele>130.2</ele>
        <time>2021-08-08T14:57:40Z</time>
      </trkpt>
      <trkpt lat="49.01207" lon="0.04384">
        <ele>130.37</ele>
        <time>2021-08-08T14:57:41Z</time>
      </trkpt>
      <trkpt lat="49.01206" lon="0.04383">
        <ele>130.54</ele>
        <time>2021-08-08T14:57:42Z</time>
      </trkpt>
      <trkpt lat="49.01204" lon="0.04382">
        <ele>130.75</ele>
        <time>2021-08-08T14:57:43Z</time>
      </trkpt>
      <trkpt lat="49.01203" lon="0.04381">
        <ele>130.91</ele>
        <time>2021-08-08T14:57:44Z</time>
      </trkpt>
      <trkpt lat="49.012" lon="0.04381">
        <ele>131.06</ele>
        <time>2021-08-08T14:57:45Z</time>
      </trkpt>
      <trkpt lat="49.01198" lon="0.04382">
        <ele>131.19</ele>
        <time>2021-08-08T14:57:46Z</time>
      </trkpt>
      <trkpt lat="49.01197" lon="0.04381">
        <ele>131.32</ele>
        <time>2021-08-08T14:57:47Z</time>
      </trkpt>
      <trkpt lat="49.01194" lon="0.04381">
        <ele>131.5</ele>
        <time>2021-08-08T14:57:48Z</time>
      </trkpt>
      <trkpt lat="49.01193" lon="0.0438">
        <ele>131.67</ele>
        <time>2021-08-08T14:57:49Z</time>
      </trkpt>
      <trkpt lat="49.0119" lon="0.0438">
        <ele>131.87</ele>
        <time>2021-08-08T14:57:50Z</time>
      </trkpt>
      <trkpt lat="49.01188" lon="0.04378">
        <ele>132.11</ele>
        <time>2021-08-08T14:57:51Z</time>
      </trkpt>
      <trkpt lat="49.01186" lon="0.04377">
        <ele>132.34</ele>
        <time>2021-08-08T14:57:52Z</time>
      </trkpt>
      <trkpt lat="49.01184" lon="0.04377">
        <ele>132.56</ele>
        <time>2021-08-08T14:57:53Z</time>
      </trkpt>
      <trkpt lat="49.01181" lon="0.04375">
        <ele>132.8</ele>
        <time>2021-08-08T14:57:54Z</time>
      </trkpt>
      <trkpt lat="49.0118" lon="0.04374">
        <ele>133.02</ele>
        <time>2021-08-08T14:57:55Z</time>
      </trkpt>
      <trkpt lat="49.01177" lon="0.04374">
        <ele>133.25</ele>
        <time>2021-08-08T14:57:56Z</time>
      </trkpt>
      <trkpt lat="49.01175" lon="0.04373">
        <ele>133.45</ele>
        <time>2021-08-08T14:57:57Z</time>
      </trkpt>
      <trkpt lat="49.01173" lon="0.04373">
        <ele>133.62</ele>
        <time>2021-08-08T14:57:58Z</time>
      </trkpt>
      <trkpt lat="49.01171" lon="0.04373">
        <ele>133.78</ele>
        <time>2021-08-08T14:57:59Z</time>
      </trkpt>
      <trkpt lat="49.01168" lon="0.04374">
        <ele>133.93</ele>
        <time>2021-08-08T14:58:00Z</time>
      </trkpt>
      <trkpt lat="49.01167" lon="0.04374">
        <ele>134.06</ele>
        <time>2021-08-08T14:58:01Z</time>
      </trkpt>
      <trkpt lat="49.01165" lon="0.04374">
        <ele>134.11</ele>
        <time>2021-08-08T14:58:02Z</time>
      </trkpt>
      <trkpt lat="49.01162" lon="0.04375">
        <ele>134.14</ele>
        <time>2021-08-08T14:58:03Z</time>
      </trkpt>
      <trkpt lat="49.0116" lon="0.04376">
        <ele>134.17</ele>
        <time>2021-08-08T14:58:04Z</time>
      </trkpt>
      <trkpt lat="49.01157" lon="0.04377">
        <ele>134.2</ele>
        <time>2021-08-08T14:58:05Z</time>
      </trkpt>
      <trkpt lat="49.01155" lon="0.04377">
        <ele>134.22</ele>
        <time>2021-08-08T14:58:06Z</time>
      </trkpt>
      <trkpt lat="49.01153" lon="0.04378">
        <ele>134.28</ele>
        <time>2021-08-08T14:58:07Z</time>
      </trkpt>
      <trkpt lat="49.01149" lon="0.04376">
        <ele>134.45</ele>
        <time>2021-08-08T14:58:08Z</time>
      </trkpt>
      <trkpt lat="49.01147" lon="0.04375">
        <ele>134.62</ele>
        <time>2021-08-08T14:58:09Z</time>
      </trkpt>
      <trkpt lat="49.01144" lon="0.04376">
        <ele>134.72</ele>
        <time>2021-08-08T14:58:10Z</time>
      </trkpt>
      <trkpt lat="49.01141" lon="0.04376">
        <ele>134.82</ele>
        <time>2021-08-08T14:58:11Z</time>
      </trkpt>
      <trkpt lat="49.01137" lon="0.04376">
        <ele>134.93</ele>
        <time>2021-08-08T14:58:12Z</time>
      </trkpt>
      <trkpt lat="49.01134" lon="0.04375">
        <ele>135.02</ele>
        <time>2021-08-08T14:58:13Z</time>
      </trkpt>
      <trkpt lat="49.01131" lon="0.04375">
        <ele>135.11</ele>
        <time>2021-08-08T14:58:14Z</time>
      </trkpt>
      <trkpt lat="49.01128" lon="0.04375">
        <ele>135.18</ele>
        <time>2021-08-08T14:58:15Z</time>
      </trkpt>
      <trkpt lat="49.01125" lon="0.04376">
        <ele>135.19</ele>
        <time>2021-08-08T14:58:16Z</time>
      </trkpt>
      <trkpt lat="49.01121" lon="0.04375">
        <ele>135.26</ele>
        <time>2021-08-08T14:58:17Z</time>
      </trkpt>
      <trkpt lat="49.01118" lon="0.04375">
        <ele>135.32</ele>
        <time>2021-08-08T14:58:18Z</time>
      </trkpt>
      <trkpt lat="49.01116" lon="0.04375">
        <ele>135.37</ele>
        <time>2021-08-08T14:58:19Z</time>
      </trkpt>
      <trkpt lat="49.01113" lon="0.04375">
        <ele>135.44</ele>
        <time>2021-08-08T14:58:20Z</time>
      </trkpt>
      <trkpt lat="49.0111" lon="0.04375">
        <ele>135.54</ele>
        <time>2021-08-08T14:58:21Z</time>
      </trkpt>
      <trkpt lat="49.01106" lon="0.04374">
        <ele>135.72</ele>
        <time>2021-08-08T14:58:22Z</time>
      </trkpt>
      <trkpt lat="49.01103" lon="0.04374">
        <ele>135.83</ele>
        <time>2021-08-08T14:58:23Z</time>
      </trkpt>
      <trkpt lat="49.01099" lon="0.04374">
        <ele>136</ele>
        <time>2021-08-08T14:58:24Z</time>
      </trkpt>
      <trkpt lat="49.01096" lon="0.04373">
        <ele>136.21</ele>
        <time>2021-08-08T14:58:25Z</time>
      </trkpt>
      <trkpt lat="49.01092" lon="0.04371">
        <ele>136.48</ele>
        <time>2021-08-08T14:58:26Z</time>
      </trkpt>
      <trkpt lat="49.01088" lon="0.0437">
        <ele>136.74</ele>
        <time>2021-08-08T14:58:27Z</time>
      </trkpt>
      <trkpt lat="49.01084" lon="0.0437">
        <ele>136.93</ele>
        <time>2021-08-08T14:58:28Z</time>
      </trkpt>
      <trkpt lat="49.01081" lon="0.0437">
        <ele>137.08</ele>
        <time>2021-08-08T14:58:29Z</time>
      </trkpt>
      <trkpt lat="49.01078" lon="0.0437">
        <ele>137.19</ele>
        <time>2021-08-08T14:58:30Z</time>
      </trkpt>
      <trkpt lat="49.01076" lon="0.0437">
        <ele>137.3</ele>
        <time>2021-08-08T14:58:31Z</time>
      </trkpt>
      <trkpt lat="49.01074" lon="0.04368">
        <ele>137.48</ele>
        <time>2021-08-08T14:58:32Z</time>
      </trkpt>
      <trkpt lat="49.01072" lon="0.04368">
        <ele>137.64</ele>
        <time>2021-08-08T14:58:33Z</time>
      </trkpt>
      <trkpt lat="49.01069" lon="0.04367">
        <ele>137.79</ele>
        <time>2021-08-08T14:58:34Z</time>
      </trkpt>
      <trkpt lat="49.01066" lon="0.04366">
        <ele>137.99</ele>
        <time>2021-08-08T14:58:35Z</time>
      </trkpt>
      <trkpt lat="49.01064" lon="0.04366">
        <ele>138.11</ele>
        <time>2021-08-08T14:58:36Z</time>
      </trkpt>
      <trkpt lat="49.01061" lon="0.04366">
        <ele>138.22</ele>
        <time>2021-08-08T14:58:37Z</time>
      </trkpt>
      <trkpt lat="49.01057" lon="0.04365">
        <ele>138.39</ele>
        <time>2021-08-08T14:58:38Z</time>
      </trkpt>
      <trkpt lat="49.01054" lon="0.04365">
        <ele>138.6</ele>
        <time>2021-08-08T14:58:39Z</time>
      </trkpt>
      <trkpt lat="49.01051" lon="0.04364">
        <ele>138.83</ele>
        <time>2021-08-08T14:58:40Z</time>
      </trkpt>
      <trkpt lat="49.01049" lon="0.04364">
        <ele>139.03</ele>
        <time>2021-08-08T14:58:41Z</time>
      </trkpt>
      <trkpt lat="49.01046" lon="0.04364">
        <ele>139.22</ele>
        <time>2021-08-08T14:58:42Z</time>
      </trkpt>
      <trkpt lat="49.01044" lon="0.04365">
        <ele>139.34</ele>
        <time>2021-08-08T14:58:43Z</time>
      </trkpt>
      <trkpt lat="49.01041" lon="0.04365">
        <ele>139.52</ele>
        <time>2021-08-08T14:58:44Z</time>
      </trkpt>
      <trkpt lat="49.01036" lon="0.04365">
        <ele>139.79</ele>
        <time>2021-08-08T14:58:45Z</time>
      </trkpt>
      <trkpt lat="49.01033" lon="0.04364">
        <ele>140.05</ele>
        <time>2021-08-08T14:58:46Z</time>
      </trkpt>
      <trkpt lat="49.0103" lon="0.04365">
        <ele>140.25</ele>
        <time>2021-08-08T14:58:47Z</time>
      </trkpt>
      <trkpt lat="49.01026" lon="0.04365">
        <ele>140.53</ele>
        <time>2021-08-08T14:58:48Z</time>
      </trkpt>
      <trkpt lat="49.01023" lon="0.04363">
        <ele>141.13</ele>
        <time>2021-08-08T14:58:49Z</time>
      </trkpt>
      <trkpt lat="49.0102" lon="0.04363">
        <ele>141.7</ele>
        <time>2021-08-08T14:58:50Z</time>
      </trkpt>
      <trkpt lat="49.01017" lon="0.04362">
        <ele>142.22</ele>
        <time>2021-08-08T14:58:51Z</time>
      </trkpt>
      <trkpt lat="49.01014" lon="0.04361">
        <ele>142.7</ele>
        <time>2021-08-08T14:58:52Z</time>
      </trkpt>
      <trkpt lat="49.01012" lon="0.04361">
        <ele>143.09</ele>
        <time>2021-08-08T14:58:53Z</time>
      </trkpt>
      <trkpt lat="49.01009" lon="0.04361">
        <ele>143.52</ele>
        <time>2021-08-08T14:58:54Z</time>
      </trkpt>
      <trkpt lat="49.01007" lon="0.04361">
        <ele>143.9</ele>
        <time>2021-08-08T14:58:55Z</time>
      </trkpt>
      <trkpt lat="49.01004" lon="0.04361">
        <ele>144.23</ele>
        <time>2021-08-08T14:58:56Z</time>
      </trkpt>
      <trkpt lat="49.01002" lon="0.04361">
        <ele>144.56</ele>
        <time>2021-08-08T14:58:57Z</time>
      </trkpt>
      <trkpt lat="49.01" lon="0.0436">
        <ele>144.9</ele>
        <time>2021-08-08T14:58:58Z</time>
      </trkpt>
      <trkpt lat="49.00999" lon="0.04358">
        <ele>145.33</ele>
        <time>2021-08-08T14:58:59Z</time>
      </trkpt>
      <trkpt lat="49.00997" lon="0.04359">
        <ele>145.58</ele>
        <time>2021-08-08T14:59:00Z</time>
      </trkpt>
      <trkpt lat="49.00995" lon="0.0436">
        <ele>145.8</ele>
        <time>2021-08-08T14:59:01Z</time>
      </trkpt>
      <trkpt lat="49.00992" lon="0.04359">
        <ele>146.19</ele>
        <time>2021-08-08T14:59:02Z</time>
      </trkpt>
      <trkpt lat="49.00991" lon="0.04358">
        <ele>146.5</ele>
        <time>2021-08-08T14:59:03Z</time>
      </trkpt>
      <trkpt lat="49.00989" lon="0.04357">
        <ele>146.93</ele>
        <time>2021-08-08T14:59:04Z</time>
      </trkpt>
      <trkpt lat="49.00986" lon="0.04355">
        <ele>147.42</ele>
        <time>2021-08-08T14:59:05Z</time>
      </trkpt>
      <trkpt lat="49.00984" lon="0.04354">
        <ele>147.93</ele>
        <time>2021-08-08T14:59:06Z</time>
      </trkpt>
      <trkpt lat="49.00981" lon="0.04353">
        <ele>148.39</ele>
        <time>2021-08-08T14:59:07Z</time>
      </trkpt>
      <trkpt lat="49.00979" lon="0.04352">
        <ele>148.83</ele>
        <time>2021-08-08T14:59:08Z</time>
      </trkpt>
      <trkpt lat="49.00977" lon="0.04351">
        <ele>149.23</ele>
        <time>2021-08-08T14:59:09Z</time>
      </trkpt>
      <trkpt lat="49.00974" lon="0.04351">
        <ele>149.62</ele>
        <time>2021-08-08T14:59:10Z</time>
      </trkpt>
      <trkpt lat="49.00973" lon="0.04352">
        <ele>149.87</ele>
        <time>2021-08-08T14:59:11Z</time>
      </trkpt>
      <trkpt lat="49.00971" lon="0.04352">
        <ele>150.02</ele>
        <time>2021-08-08T14:59:12Z</time>
      </trkpt>
      <trkpt lat="49.0097" lon="0.04353">
        <ele>150.09</ele>
        <time>2021-08-08T14:59:13Z</time>
      </trkpt>
      <trkpt lat="49.00969" lon="0.04354">
        <ele>150.13</ele>
        <time>2021-08-08T14:59:14Z</time>
      </trkpt>
      <trkpt lat="49.00968" lon="0.04354">
        <ele>150.23</ele>
        <time>2021-08-08T14:59:15Z</time>
      </trkpt>
      <trkpt lat="49.00966" lon="0.04354">
        <ele>150.4</ele>
        <time>2021-08-08T14:59:16Z</time>
      </trkpt>
      <trkpt lat="49.00964" lon="0.04354">
        <ele>150.62</ele>
        <time>2021-08-08T14:59:17Z</time>
      </trkpt>
      <trkpt lat="49.00963" lon="0.04354">
        <ele>150.78</ele>
        <time>2021-08-08T14:59:18Z</time>
      </trkpt>
      <trkpt lat="49.00961" lon="0.04354">
        <ele>150.87</ele>
        <time>2021-08-08T14:59:19Z</time>
      </trkpt>
      <trkpt lat="49.00959" lon="0.04355">
        <ele>151.04</ele>
        <time>2021-08-08T14:59:20Z</time>
      </trkpt>
      <trkpt lat="49.00957" lon="0.04355">
        <ele>151.2</ele>
        <time>2021-08-08T14:59:21Z</time>
      </trkpt>
      <trkpt lat="49.00955" lon="0.04356">
        <ele>151.36</ele>
        <time>2021-08-08T14:59:22Z</time>
      </trkpt>
      <trkpt lat="49.00953" lon="0.04357">
        <ele>151.5</ele>
        <time>2021-08-08T14:59:23Z</time>
      </trkpt>
      <trkpt lat="49.00952" lon="0.04357">
        <ele>151.61</ele>
        <time>2021-08-08T14:59:24Z</time>
      </trkpt>
      <trkpt lat="49.0095" lon="0.04358">
        <ele>151.69</ele>
        <time>2021-08-08T14:59:25Z</time>
      </trkpt>
      <trkpt lat="49.00949" lon="0.04358">
        <ele>151.82</ele>
        <time>2021-08-08T14:59:26Z</time>
      </trkpt>
      <trkpt lat="49.00947" lon="0.04358">
        <ele>152</ele>
        <time>2021-08-08T14:59:27Z</time>
      </trkpt>
      <trkpt lat="49.00945" lon="0.04358">
        <ele>152.13</ele>
        <time>2021-08-08T14:59:28Z</time>
      </trkpt>
      <trkpt lat="49.00944" lon="0.04359">
        <ele>152.25</ele>
        <time>2021-08-08T14:59:29Z</time>
      </trkpt>
      <trkpt lat="49.00942" lon="0.0436">
        <ele>152.37</ele>
        <time>2021-08-08T14:59:30Z</time>
      </trkpt>
      <trkpt lat="49.0094" lon="0.04361">
        <ele>152.56</ele>
        <time>2021-08-08T14:59:31Z</time>
      </trkpt>
      <trkpt lat="49.00938" lon="0.04362">
        <ele>152.82</ele>
        <time>2021-08-08T14:59:32Z</time>
      </trkpt>
      <trkpt lat="49.00936" lon="0.04362">
        <ele>153.04</ele>
        <time>2021-08-08T14:59:33Z</time>
      </trkpt>
      <trkpt lat="49.00934" lon="0.04362">
        <ele>153.28</ele>
        <time>2021-08-08T14:59:34Z</time>
      </trkpt>
      <trkpt lat="49.00934" lon="0.04361">
        <ele>153.48</ele>
        <time>2021-08-08T14:59:35Z</time>
      </trkpt>
      <trkpt lat="49.00932" lon="0.04361">
        <ele>153.67</ele>
        <time>2021-08-08T14:59:36Z</time>
      </trkpt>
      <trkpt lat="49.00931" lon="0.04362">
        <ele>153.81</ele>
        <time>2021-08-08T14:59:37Z</time>
      </trkpt>
      <trkpt lat="49.0093" lon="0.04362">
        <ele>153.99</ele>
        <time>2021-08-08T14:59:38Z</time>
      </trkpt>
      <trkpt lat="49.00928" lon="0.04362">
        <ele>154.17</ele>
        <time>2021-08-08T14:59:39Z</time>
      </trkpt>
      <trkpt lat="49.00927" lon="0.04361">
        <ele>154.44</ele>
        <time>2021-08-08T14:59:40Z</time>
      </trkpt>
      <trkpt lat="49.00925" lon="0.04361">
        <ele>154.68</ele>
        <time>2021-08-08T14:59:41Z</time>
      </trkpt>
      <trkpt lat="49.00924" lon="0.04361">
        <ele>154.89</ele>
        <time>2021-08-08T14:59:42Z</time>
      </trkpt>
      <trkpt lat="49.00923" lon="0.04361">
        <ele>155.09</ele>
        <time>2021-08-08T14:59:43Z</time>
      </trkpt>
      <trkpt lat="49.00921" lon="0.04361">
        <ele>155.26</ele>
        <time>2021-08-08T14:59:44Z</time>
      </trkpt>
      <trkpt lat="49.0092" lon="0.04362">
        <ele>155.4</ele>
        <time>2021-08-08T14:59:45Z</time>
      </trkpt>
      <trkpt lat="49.00919" lon="0.04363">
        <ele>155.47</ele>
        <time>2021-08-08T14:59:46Z</time>
      </trkpt>
      <trkpt lat="49.00918" lon="0.04363">
        <ele>155.59</ele>
        <time>2021-08-08T14:59:47Z</time>
      </trkpt>
      <trkpt lat="49.00917" lon="0.04364">
        <ele>155.71</ele>
        <time>2021-08-08T14:59:48Z</time>
      </trkpt>
      <trkpt lat="49.00915" lon="0.04364">
        <ele>155.83</ele>
        <time>2021-08-08T14:59:49Z</time>
      </trkpt>
      <trkpt lat="49.00913" lon="0.04366">
        <ele>155.94</ele>
        <time>2021-08-08T14:59:50Z</time>
      </trkpt>
      <trkpt lat="49.00912" lon="0.04367">
        <ele>156.04</ele>
        <time>2021-08-08T14:59:51Z</time>
      </trkpt>
      <trkpt lat="49.00911" lon="0.04368">
        <ele>156.08</ele>
        <time>2021-08-08T14:59:52Z</time>
      </trkpt>
      <trkpt lat="49.00909" lon="0.0437">
        <ele>156.12</ele>
        <time>2021-08-08T14:59:53Z</time>
      </trkpt>
      <trkpt lat="49.00908" lon="0.04371">
        <ele>156.2</ele>
        <time>2021-08-08T14:59:54Z</time>
      </trkpt>
      <trkpt lat="49.00906" lon="0.04371">
        <ele>156.46</ele>
        <time>2021-08-08T14:59:55Z</time>
      </trkpt>
      <trkpt lat="49.00904" lon="0.04371">
        <ele>156.64</ele>
        <time>2021-08-08T14:59:56Z</time>
      </trkpt>
      <trkpt lat="49.00902" lon="0.04372">
        <ele>156.85</ele>
        <time>2021-08-08T14:59:57Z</time>
      </trkpt>
      <trkpt lat="49.009" lon="0.04373">
        <ele>157.05</ele>
        <time>2021-08-08T14:59:58Z</time>
      </trkpt>
      <trkpt lat="49.00897" lon="0.04373">
        <ele>157.35</ele>
        <time>2021-08-08T14:59:59Z</time>
      </trkpt>
      <trkpt lat="49.00895" lon="0.04373">
        <ele>157.66</ele>
        <time>2021-08-08T15:00:00Z</time>
      </trkpt>
      <trkpt lat="49.00893" lon="0.04374">
        <ele>157.91</ele>
        <time>2021-08-08T15:00:01Z</time>
      </trkpt>
      <trkpt lat="49.00891" lon="0.04374">
        <ele>158.18</ele>
        <time>2021-08-08T15:00:02Z</time>
      </trkpt>
      <trkpt lat="49.00888" lon="0.04376">
        <ele>158.35</ele>
        <time>2021-08-08T15:00:03Z</time>
      </trkpt>
      <trkpt lat="49.00887" lon="0.04377">
        <ele>158.46</ele>
        <time>2021-08-08T15:00:04Z</time>
      </trkpt>
      <trkpt lat="49.00885" lon="0.04378">
        <ele>158.55</ele>
        <time>2021-08-08T15:00:05Z</time>
      </trkpt>
      <trkpt lat="49.00883" lon="0.04379">
        <ele>158.64</ele>
        <time>2021-08-08T15:00:06Z</time>
      </trkpt>
      <trkpt lat="49.0088" lon="0.0438">
        <ele>158.74</ele>
        <time>2021-08-08T15:00:07Z</time>
      </trkpt>
      <trkpt lat="49.00879" lon="0.04381">
        <ele>158.82</ele>
        <time>2021-08-08T15:00:08Z</time>
      </trkpt>
      <trkpt lat="49.00877" lon="0.04382">
        <ele>158.88</ele>
        <time>2021-08-08T15:00:09Z</time>
      </trkpt>
      <trkpt lat="49.00875" lon="0.04383">
        <ele>158.93</ele>
        <time>2021-08-08T15:00:10Z</time>
      </trkpt>
      <trkpt lat="49.00873" lon="0.04385">
        <ele>159.01</ele>
        <time>2021-08-08T15:00:11Z</time>
      </trkpt>
      <trkpt lat="49.00871" lon="0.04388">
        <ele>159.05</ele>
        <time>2021-08-08T15:00:12Z</time>
      </trkpt>
      <trkpt lat="49.00869" lon="0.0439">
        <ele>159.08</ele>
        <time>2021-08-08T15:00:13Z</time>
      </trkpt>
      <trkpt lat="49.00865" lon="0.04395">
        <ele>159.1</ele>
        <time>2021-08-08T15:00:15Z</time>
      </trkpt>
      <trkpt lat="49.0085" lon="0.04397">
        <ele>174.05859375</ele>
      </trkpt>
      <trkpt lat="49.00805" lon="0.04317">
        <ele>176.58984375</ele>
      </trkpt>
      <trkpt lat="49.00806" lon="0.04208">
        <ele>176.51953125</ele>
      </trkpt>
      <trkpt lat="49.00795" lon="0.04145">
        <ele>174.48828125</ele>
      </trkpt>
      <trkpt lat="49.00775" lon="0.04114">
        <ele>171.86328125</ele>
      </trkpt>
      <trkpt lat="49.00767" lon="0.04053">
        <ele>164.81640625</ele>
      </trkpt>
      <trkpt lat="49.00663" lon="0.04089">
        <ele>156.5703125</ele>
      </trkpt>
      <trkpt lat="49.00604" lon="0.04111">
        <ele>151.515625</ele>
      </trkpt>
      <trkpt lat="49.00588" lon="0.04109">
        <ele>148.82421875</ele>
      </trkpt>
      <trkpt lat="49.00545" lon="0.04124">
        <ele>144.921875</ele>
      </trkpt>
      <trkpt lat="49.00531" lon="0.04128">
        <ele>143.640625</ele>
      </trkpt>
      <trkpt lat="49.00479" lon="0.0415">
        <ele>141.59765625</ele>
      </trkpt>
      <trkpt lat="49.00446" lon="0.04086">
        <ele>127.12890625</ele>
      </trkpt>
      <trkpt lat="49.00411" lon="0.03945">
        <ele>104.9375</ele>
      </trkpt>
      <trkpt lat="49.00366" lon="0.03936">
        <ele>102.89453125</ele>
      </trkpt>
      <trkpt lat="49.00356" lon="0.0403">
        <ele>110.53515625</ele>
      </trkpt>
      <trkpt lat="49.00356" lon="0.04073">
        <ele>114.42578125</ele>
      </trkpt>
      <trkpt lat="49.00365" lon="0.0424">
        <ele>139.07421875</ele>
      </trkpt>
      <trkpt lat="49.00362" lon="0.04432">
        <ele>160.6875</ele>
      </trkpt>
      <trkpt lat="49.00357" lon="0.04479">
        <ele>164.21875</ele>
      </trkpt>
      <trkpt lat="49.00365" lon="0.04592">
        <ele>172.51953125</ele>
      </trkpt>
      <trkpt lat="49.00368" lon="0.04631">
        <ele>174.19921875</ele>
      </trkpt>
      <trkpt lat="49.00376" lon="0.04693">
        <ele>176.2734375</ele>
      </trkpt>
      <trkpt lat="49.0036" lon="0.04752">
        <ele>177.25390625</ele>
      </trkpt>
      <trkpt lat="49.00352" lon="0.04853">
        <ele>179</ele>
      </trkpt>
      <trkpt lat="49.0046" lon="0.04775">
        <ele>179.61328125</ele>
      </trkpt>
      <trkpt lat="49.00481" lon="0.04712">
        <ele>179.7578125</ele>
      </trkpt>
      <trkpt lat="49.00608" lon="0.0461">
        <ele>177.82421875</ele>
      </trkpt>
      <trkpt lat="49.00724" lon="0.04493">
        <ele>177.02734375</ele>
      </trkpt>
      <trkpt lat="49.00783" lon="0.04508">
        <ele>175.63671875</ele>
      </trkpt>
      <trkpt lat="49.00826" lon="0.04461">
        <ele>174.02734375</ele>
      </trkpt>
      <trkpt lat="49.00849" lon="0.04422">
        <ele>159.58</ele>
        <time>2021-08-08T15:02:28Z</time>
      </trkpt>
      <trkpt lat="49.00849" lon="0.04425">
        <ele>159.4</ele>
        <time>2021-08-08T15:02:29Z</time>
      </trkpt>
      <trkpt lat="49.00849" lon="0.04428">
        <ele>159.24</ele>
        <time>2021-08-08T15:02:30Z</time>
      </trkpt>
      <trkpt lat="49.00849" lon="0.04432">
        <ele>159.08</ele>
        <time>2021-08-08T15:02:31Z</time>
      </trkpt>
      <trkpt lat="49.00849" lon="0.04435">
        <ele>158.92</ele>
        <time>2021-08-08T15:02:32Z</time>
      </trkpt>
      <trkpt lat="49.00849" lon="0.04438">
        <ele>158.74</ele>
        <time>2021-08-08T15:02:33Z</time>
      </trkpt>
      <trkpt lat="49.0085" lon="0.04442">
        <ele>158.47</ele>
        <time>2021-08-08T15:02:34Z</time>
      </trkpt>
      <trkpt lat="49.0085" lon="0.04447">
        <ele>158.32</ele>
        <time>2021-08-08T15:02:35Z</time>
      </trkpt>
      <trkpt lat="49.0085" lon="0.04453">
        <ele>158.33</ele>
        <time>2021-08-08T15:02:36Z</time>
      </trkpt>
      <trkpt lat="49.00851" lon="0.04458">
        <ele>158.29</ele>
        <time>2021-08-08T15:02:37Z</time>
      </trkpt>
      <trkpt lat="49.00851" lon="0.04463">
        <ele>158.34</ele>
        <time>2021-08-08T15:02:38Z</time>
      </trkpt>
      <trkpt lat="49.00851" lon="0.04468">
        <ele>158.38</ele>
        <time>2021-08-08T15:02:39Z</time>
      </trkpt>
      <trkpt lat="49.00851" lon="0.04474">
        <ele>158.46</ele>
        <time>2021-08-08T15:02:40Z</time>
      </trkpt>
      <trkpt lat="49.00852" lon="0.0448">
        <ele>158.53</ele>
        <time>2021-08-08T15:02:41Z</time>
      </trkpt>
      <trkpt lat="49.00852" lon="0.04486">
        <ele>158.62</ele>
        <time>2021-08-08T15:02:42Z</time>
      </trkpt>
      <trkpt lat="49.00852" lon="0.04494">
        <ele>158.81</ele>
        <time>2021-08-08T15:02:43Z</time>
      </trkpt>
      <trkpt lat="49.00852" lon="0.045">
        <ele>158.96</ele>
        <time>2021-08-08T15:02:44Z</time>
      </trkpt>
      <trkpt lat="49.00853" lon="0.04506">
        <ele>158.97</ele>
        <time>2021-08-08T15:02:45Z</time>
      </trkpt>
      <trkpt lat="49.00854" lon="0.04512">
        <ele>158.94</ele>
        <time>2021-08-08T15:02:46Z</time>
      </trkpt>
      <trkpt lat="49.00854" lon="0.04518">
        <ele>158.9</ele>
        <time>2021-08-08T15:02:47Z</time>
      </trkpt>
      <trkpt lat="49.00855" lon="0.04524">
        <ele>158.9</ele>
        <time>2021-08-08T15:02:48Z</time>
      </trkpt>
      <trkpt lat="49.00855" lon="0.0453">
        <ele>158.86</ele>
        <time>2021-08-08T15:02:49Z</time>
      </trkpt>
      <trkpt lat="49.00856" lon="0.04536">
        <ele>158.81</ele>
        <time>2021-08-08T15:02:50Z</time>
      </trkpt>
      <trkpt lat="49.00857" lon="0.04542">
        <ele>158.75</ele>
        <time>2021-08-08T15:02:51Z</time>
      </trkpt>
      <trkpt lat="49.00858" lon="0.04548">
        <ele>158.6</ele>
        <time>2021-08-08T15:02:52Z</time>
      </trkpt>
      <trkpt lat="49.00859" lon="0.04555">
        <ele>158.42</ele>
        <time>2021-08-08T15:02:53Z</time>
      </trkpt>
      <trkpt lat="49.00861" lon="0.04561">
        <ele>158.02</ele>
        <time>2021-08-08T15:02:54Z</time>
      </trkpt>
      <trkpt lat="49.00862" lon="0.04569">
        <ele>157.58</ele>
        <time>2021-08-08T15:02:55Z</time>
      </trkpt>
      <trkpt lat="49.00863" lon="0.04576">
        <ele>157.2</ele>
        <time>2021-08-08T15:02:56Z</time>
      </trkpt>
      <trkpt lat="49.00863" lon="0.04583">
        <ele>156.92</ele>
        <time>2021-08-08T15:02:57Z</time>
      </trkpt>
      <trkpt lat="49.00861" lon="0.04591">
        <ele>156.8</ele>
        <time>2021-08-08T15:02:58Z</time>
      </trkpt>
      <trkpt lat="49.00859" lon="0.04598">
        <ele>156.74</ele>
        <time>2021-08-08T15:02:59Z</time>
      </trkpt>
      <trkpt lat="49.00858" lon="0.04607">
        <ele>156.68</ele>
        <time>2021-08-08T15:03:00Z</time>
      </trkpt>
      <trkpt lat="49.00856" lon="0.04614">
        <ele>156.67</ele>
        <time>2021-08-08T15:03:01Z</time>
      </trkpt>
      <trkpt lat="49.00855" lon="0.04621">
        <ele>156.53</ele>
        <time>2021-08-08T15:03:02Z</time>
      </trkpt>
      <trkpt lat="49.00854" lon="0.04628">
        <ele>156.32</ele>
        <time>2021-08-08T15:03:03Z</time>
      </trkpt>
      <trkpt lat="49.00853" lon="0.04634">
        <ele>156.15</ele>
        <time>2021-08-08T15:03:04Z</time>
      </trkpt>
      <trkpt lat="49.00852" lon="0.0464">
        <ele>155.94</ele>
        <time>2021-08-08T15:03:05Z</time>
      </trkpt>
      <trkpt lat="49.00851" lon="0.04648">
        <ele>155.56</ele>
        <time>2021-08-08T15:03:06Z</time>
      </trkpt>
      <trkpt lat="49.0085" lon="0.04656">
        <ele>155.12</ele>
        <time>2021-08-08T15:03:07Z</time>
      </trkpt>
      <trkpt lat="49.00849" lon="0.04663">
        <ele>154.77</ele>
        <time>2021-08-08T15:03:08Z</time>
      </trkpt>
      <trkpt lat="49.00847" lon="0.0467">
        <ele>154.26</ele>
        <time>2021-08-08T15:03:09Z</time>
      </trkpt>
      <trkpt lat="49.00846" lon="0.04677">
        <ele>153.5</ele>
        <time>2021-08-08T15:03:10Z</time>
      </trkpt>
      <trkpt lat="49.00842" lon="0.04685">
        <ele>152.76</ele>
        <time>2021-08-08T15:03:11Z</time>
      </trkpt>
      <trkpt lat="49.00839" lon="0.04692">
        <ele>152.07</ele>
        <time>2021-08-08T15:03:12Z</time>
      </trkpt>
      <trkpt lat="49.00834" lon="0.047">
        <ele>151.42</ele>
        <time>2021-08-08T15:03:13Z</time>
      </trkpt>
      <trkpt lat="49.0083" lon="0.04705">
        <ele>150.9</ele>
        <time>2021-08-08T15:03:14Z</time>
      </trkpt>
      <trkpt lat="49.00824" lon="0.04712">
        <ele>150.3</ele>
        <time>2021-08-08T15:03:15Z</time>
      </trkpt>
      <trkpt lat="49.00817" lon="0.04722">
        <ele>149.59</ele>
        <time>2021-08-08T15:03:16Z</time>
      </trkpt>
      <trkpt lat="49.00809" lon="0.04732">
        <ele>149</ele>
        <time>2021-08-08T15:03:17Z</time>
      </trkpt>
      <trkpt lat="49.00802" lon="0.0474">
        <ele>148.51</ele>
        <time>2021-08-08T15:03:18Z</time>
      </trkpt>
      <trkpt lat="49.00796" lon="0.04748">
        <ele>148.06</ele>
        <time>2021-08-08T15:03:19Z</time>
      </trkpt>
      <trkpt lat="49.0079" lon="0.04756">
        <ele>147.77</ele>
        <time>2021-08-08T15:03:20Z</time>
      </trkpt>
      <trkpt lat="49.00787" lon="0.04763">
        <ele>147.55</ele>
        <time>2021-08-08T15:03:21Z</time>
      </trkpt>
      <trkpt lat="49.00785" lon="0.04768">
        <ele>147.28</ele>
        <time>2021-08-08T15:03:22Z</time>
      </trkpt>
      <trkpt lat="49.00787" lon="0.04775">
        <ele>146.78</ele>
        <time>2021-08-08T15:03:23Z</time>
      </trkpt>
      <trkpt lat="49.00788" lon="0.0478">
        <ele>146.39</ele>
        <time>2021-08-08T15:03:24Z</time>
      </trkpt>
      <trkpt lat="49.0079" lon="0.04785">
        <ele>146.09</ele>
        <time>2021-08-08T15:03:25Z</time>
      </trkpt>
      <trkpt lat="49.00793" lon="0.04791">
        <ele>145.78</ele>
        <time>2021-08-08T15:03:26Z</time>
      </trkpt>
      <trkpt lat="49.00796" lon="0.04798">
        <ele>145.39</ele>
        <time>2021-08-08T15:03:27Z</time>
      </trkpt>
      <trkpt lat="49.00799" lon="0.04804">
        <ele>144.93</ele>
        <time>2021-08-08T15:03:28Z</time>
      </trkpt>
      <trkpt lat="49.00803" lon="0.04811">
        <ele>144.39</ele>
        <time>2021-08-08T15:03:29Z</time>
      </trkpt>
      <trkpt lat="49.00806" lon="0.04817">
        <ele>143.75</ele>
        <time>2021-08-08T15:03:30Z</time>
      </trkpt>
      <trkpt lat="49.0081" lon="0.04822">
        <ele>143.11</ele>
        <time>2021-08-08T15:03:31Z</time>
      </trkpt>
      <trkpt lat="49.00814" lon="0.04827">
        <ele>142.36</ele>
        <time>2021-08-08T15:03:32Z</time>
      </trkpt>
      <trkpt lat="49.00819" lon="0.04831">
        <ele>141.58</ele>
        <time>2021-08-08T15:03:33Z</time>
      </trkpt>
      <trkpt lat="49.00823" lon="0.04836">
        <ele>140.81</ele>
        <time>2021-08-08T15:03:34Z</time>
      </trkpt>
      <trkpt lat="49.00826" lon="0.0484">
        <ele>140.07</ele>
        <time>2021-08-08T15:03:35Z</time>
      </trkpt>
      <trkpt lat="49.0083" lon="0.04843">
        <ele>139.37</ele>
        <time>2021-08-08T15:03:36Z</time>
      </trkpt>
      <trkpt lat="49.00834" lon="0.04846">
        <ele>138.73</ele>
        <time>2021-08-08T15:03:37Z</time>
      </trkpt>
      <trkpt lat="49.00837" lon="0.04851">
        <ele>138.09</ele>
        <time>2021-08-08T15:03:38Z</time>
      </trkpt>
      <trkpt lat="49.00839" lon="0.04854">
        <ele>137.49</ele>
        <time>2021-08-08T15:03:39Z</time>
      </trkpt>
      <trkpt lat="49.00842" lon="0.04858">
        <ele>136.87</ele>
        <time>2021-08-08T15:03:40Z</time>
      </trkpt>
      <trkpt lat="49.00844" lon="0.04862">
        <ele>136.35</ele>
        <time>2021-08-08T15:03:41Z</time>
      </trkpt>
      <trkpt lat="49.00847" lon="0.04867">
        <ele>136.17</ele>
        <time>2021-08-08T15:03:42Z</time>
      </trkpt>
      <trkpt lat="49.00849" lon="0.04872">
        <ele>136.15</ele>
        <time>2021-08-08T15:03:43Z</time>
      </trkpt>
      <trkpt lat="49.00852" lon="0.04876">
        <ele>136.16</ele>
        <time>2021-08-08T15:03:44Z</time>
      </trkpt>
      <trkpt lat="49.00854" lon="0.04883">
        <ele>136.37</ele>
        <time>2021-08-08T15:03:45Z</time>
      </trkpt>
      <trkpt lat="49.00855" lon="0.04889">
        <ele>136.7</ele>
        <time>2021-08-08T15:03:46Z</time>
      </trkpt>
      <trkpt lat="49.00856" lon="0.04895">
        <ele>136.97</ele>
        <time>2021-08-08T15:03:47Z</time>
      </trkpt>
      <trkpt lat="49.00857" lon="0.04901">
        <ele>137.32</ele>
        <time>2021-08-08T15:03:48Z</time>
      </trkpt>
      <trkpt lat="49.00858" lon="0.04909">
        <ele>137.71</ele>
        <time>2021-08-08T15:03:49Z</time>
      </trkpt>
      <trkpt lat="49.00861" lon="0.04917">
        <ele>137.94</ele>
        <time>2021-08-08T15:03:50Z</time>
      </trkpt>
      <trkpt lat="49.00863" lon="0.04925">
        <ele>138.15</ele>
        <time>2021-08-08T15:03:51Z</time>
      </trkpt>
      <trkpt lat="49.00866" lon="0.04931">
        <ele>138.31</ele>
        <time>2021-08-08T15:03:52Z</time>
      </trkpt>
      <trkpt lat="49.00869" lon="0.04938">
        <ele>138.38</ele>
        <time>2021-08-08T15:03:53Z</time>
      </trkpt>
      <trkpt lat="49.00872" lon="0.04947">
        <ele>138.56</ele>
        <time>2021-08-08T15:03:54Z</time>
      </trkpt>
      <trkpt lat="49.00874" lon="0.04954">
        <ele>138.74</ele>
        <time>2021-08-08T15:03:55Z</time>
      </trkpt>
      <trkpt lat="49.00876" lon="0.0496">
        <ele>138.89</ele>
        <time>2021-08-08T15:03:56Z</time>
      </trkpt>
      <trkpt lat="49.00879" lon="0.04965">
        <ele>138.89</ele>
        <time>2021-08-08T15:03:57Z</time>
      </trkpt>
      <trkpt lat="49.00882" lon="0.04968">
        <ele>138.72</ele>
        <time>2021-08-08T15:03:58Z</time>
      </trkpt>
      <trkpt lat="49.00888" lon="0.04972">
        <ele>138.33</ele>
        <time>2021-08-08T15:03:59Z</time>
      </trkpt>
      <trkpt lat="49.00892" lon="0.04974">
        <ele>137.97</ele>
        <time>2021-08-08T15:04:00Z</time>
      </trkpt>
      <trkpt lat="49.00895" lon="0.04977">
        <ele>137.75</ele>
        <time>2021-08-08T15:04:01Z</time>
      </trkpt>
      <trkpt lat="49.00899" lon="0.04979">
        <ele>137.51</ele>
        <time>2021-08-08T15:04:02Z</time>
      </trkpt>
      <trkpt lat="49.00903" lon="0.04981">
        <ele>137.2</ele>
        <time>2021-08-08T15:04:03Z</time>
      </trkpt>
      <trkpt lat="49.00907" lon="0.04982">
        <ele>136.92</ele>
        <time>2021-08-08T15:04:04Z</time>
      </trkpt>
      <trkpt lat="49.00913" lon="0.04986">
        <ele>136.55</ele>
        <time>2021-08-08T15:04:05Z</time>
      </trkpt>
      <trkpt lat="49.00919" lon="0.0499">
        <ele>136.32</ele>
        <time>2021-08-08T15:04:06Z</time>
      </trkpt>
      <trkpt lat="49.00923" lon="0.04994">
        <ele>136.35</ele>
        <time>2021-08-08T15:04:07Z</time>
      </trkpt>
      <trkpt lat="49.00927" lon="0.04997">
        <ele>136.4</ele>
        <time>2021-08-08T15:04:08Z</time>
      </trkpt>
      <trkpt lat="49.00932" lon="0.05">
        <ele>136.42</ele>
        <time>2021-08-08T15:04:09Z</time>
      </trkpt>
      <trkpt lat="49.00935" lon="0.05001">
        <ele>136.39</ele>
        <time>2021-08-08T15:04:10Z</time>
      </trkpt>
      <trkpt lat="49.00941" lon="0.05003">
        <ele>136.29</ele>
        <time>2021-08-08T15:04:11Z</time>
      </trkpt>
      <trkpt lat="49.00945" lon="0.05005">
        <ele>136.21</ele>
        <time>2021-08-08T15:04:12Z</time>
      </trkpt>
      <trkpt lat="49.00949" lon="0.05008">
        <ele>136.08</ele>
        <time>2021-08-08T15:04:13Z</time>
      </trkpt>
      <trkpt lat="49.00955" lon="0.05013">
        <ele>135.95</ele>
        <time>2021-08-08T15:04:14Z</time>
      </trkpt>
      <trkpt lat="49.00957" lon="0.05018">
        <ele>136</ele>
        <time>2021-08-08T15:04:15Z</time>
      </trkpt>
      <trkpt lat="49.0096" lon="0.05021">
        <ele>136.05</ele>
        <time>2021-08-08T15:04:16Z</time>
      </trkpt>
      <trkpt lat="49.00963" lon="0.05024">
        <ele>136.11</ele>
        <time>2021-08-08T15:04:17Z</time>
      </trkpt>
      <trkpt lat="49.00967" lon="0.05027">
        <ele>136.16</ele>
        <time>2021-08-08T15:04:18Z</time>
      </trkpt>
      <trkpt lat="49.00971" lon="0.0503">
        <ele>136.13</ele>
        <time>2021-08-08T15:04:19Z</time>
      </trkpt>
      <trkpt lat="49.00975" lon="0.05031">
        <ele>136.04</ele>
        <time>2021-08-08T15:04:20Z</time>
      </trkpt>
      <trkpt lat="49.00978" lon="0.05033">
        <ele>135.99</ele>
        <time>2021-08-08T15:04:21Z</time>
      </trkpt>
      <trkpt lat="49.00981" lon="0.05035">
        <ele>135.95</ele>
        <time>2021-08-08T15:04:22Z</time>
      </trkpt>
      <trkpt lat="49.00984" lon="0.05037">
        <ele>135.94</ele>
        <time>2021-08-08T15:04:23Z</time>
      </trkpt>
      <trkpt lat="49.00986" lon="0.0504">
        <ele>135.95</ele>
        <time>2021-08-08T15:04:24Z</time>
      </trkpt>
      <trkpt lat="49.00989" lon="0.05044">
        <ele>135.97</ele>
        <time>2021-08-08T15:04:25Z</time>
      </trkpt>
      <trkpt lat="49.00992" lon="0.05047">
        <ele>135.98</ele>
        <time>2021-08-08T15:04:26Z</time>
      </trkpt>
      <trkpt lat="49.00995" lon="0.0505">
        <ele>135.99</ele>
        <time>2021-08-08T15:04:27Z</time>
      </trkpt>
      <trkpt lat="49.00998" lon="0.05053">
        <ele>135.99</ele>
        <time>2021-08-08T15:04:28Z</time>
      </trkpt>
      <trkpt lat="49.01" lon="0.05056">
        <ele>135.99</ele>
        <time>2021-08-08T15:04:29Z</time>
      </trkpt>
      <trkpt lat="49.01003" lon="0.05059">
        <ele>136.15</ele>
        <time>2021-08-08T15:04:30Z</time>
      </trkpt>
      <trkpt lat="49.01006" lon="0.05063">
        <ele>136.47</ele>
        <time>2021-08-08T15:04:31Z</time>
      </trkpt>
      <trkpt lat="49.01008" lon="0.05068">
        <ele>136.86</ele>
        <time>2021-08-08T15:04:32Z</time>
      </trkpt>
      <trkpt lat="49.0101" lon="0.05073">
        <ele>137.32</ele>
        <time>2021-08-08T15:04:33Z</time>
      </trkpt>
      <trkpt lat="49.01012" lon="0.05079">
        <ele>137.88</ele>
        <time>2021-08-08T15:04:34Z</time>
      </trkpt>
      <trkpt lat="49.01014" lon="0.05083">
        <ele>138.32</ele>
        <time>2021-08-08T15:04:35Z</time>
      </trkpt>
      <trkpt lat="49.01017" lon="0.05092">
        <ele>138.8</ele>
        <time>2021-08-08T15:04:36Z</time>
      </trkpt>
      <trkpt lat="49.01018" lon="0.05095">
        <ele>139.07</ele>
        <time>2021-08-08T15:04:37Z</time>
      </trkpt>
      <trkpt lat="49.01019" lon="0.05097">
        <ele>139.22</ele>
        <time>2021-08-08T15:04:38Z</time>
      </trkpt>
      <trkpt lat="49.01021" lon="0.05098">
        <ele>139.28</ele>
        <time>2021-08-08T15:04:39Z</time>
      </trkpt>
      <trkpt lat="49.01023" lon="0.05099">
        <ele>139.3</ele>
        <time>2021-08-08T15:04:40Z</time>
      </trkpt>
      <trkpt lat="49.01024" lon="0.05099">
        <ele>139.29</ele>
        <time>2021-08-08T15:04:41Z</time>
      </trkpt>
      <trkpt lat="49.01027" lon="0.051">
        <ele>139.23</ele>
        <time>2021-08-08T15:04:42Z</time>
      </trkpt>
      <trkpt lat="49.01029" lon="0.05101">
        <ele>139.22</ele>
        <time>2021-08-08T15:04:43Z</time>
      </trkpt>
      <trkpt lat="49.01032" lon="0.05103">
        <ele>139.24</ele>
        <time>2021-08-08T15:04:44Z</time>
      </trkpt>
      <trkpt lat="49.01036" lon="0.05106">
        <ele>139.3</ele>
        <time>2021-08-08T15:04:45Z</time>
      </trkpt>
      <trkpt lat="49.0104" lon="0.05109">
        <ele>139.36</ele>
        <time>2021-08-08T15:04:46Z</time>
      </trkpt>
      <trkpt lat="49.01044" lon="0.05112">
        <ele>139.43</ele>
        <time>2021-08-08T15:04:47Z</time>
      </trkpt>
      <trkpt lat="49.01047" lon="0.05115">
        <ele>139.62</ele>
        <time>2021-08-08T15:04:48Z</time>
      </trkpt>
      <trkpt lat="49.01049" lon="0.05118">
        <ele>139.85</ele>
        <time>2021-08-08T15:04:49Z</time>
      </trkpt>
      <trkpt lat="49.01052" lon="0.05121">
        <ele>140.12</ele>
        <time>2021-08-08T15:04:50Z</time>
      </trkpt>
      <trkpt lat="49.01053" lon="0.05124">
        <ele>140.34</ele>
        <time>2021-08-08T15:04:51Z</time>
      </trkpt>
      <trkpt lat="49.01056" lon="0.05128">
        <ele>140.7</ele>
        <time>2021-08-08T15:04:52Z</time>
      </trkpt>
      <trkpt lat="49.01058" lon="0.05131">
        <ele>140.97</ele>
        <time>2021-08-08T15:04:53Z</time>
      </trkpt>
      <trkpt lat="49.01059" lon="0.05133">
        <ele>141.21</ele>
        <time>2021-08-08T15:04:54Z</time>
      </trkpt>
      <trkpt lat="49.01064" lon="0.05134">
        <ele>141.24</ele>
        <time>2021-08-08T15:04:55Z</time>
      </trkpt>
      <trkpt lat="49.01068" lon="0.05137">
        <ele>141.31</ele>
        <time>2021-08-08T15:04:56Z</time>
      </trkpt>
      <trkpt lat="49.0107" lon="0.05138">
        <ele>141.38</ele>
        <time>2021-08-08T15:04:57Z</time>
      </trkpt>
      <trkpt lat="49.01073" lon="0.05138">
        <ele>141.33</ele>
        <time>2021-08-08T15:04:58Z</time>
      </trkpt>
      <trkpt lat="49.01076" lon="0.05139">
        <ele>141.28</ele>
        <time>2021-08-08T15:04:59Z</time>
      </trkpt>
      <trkpt lat="49.01079" lon="0.05139">
        <ele>141.2</ele>
        <time>2021-08-08T15:05:00Z</time>
      </trkpt>
      <trkpt lat="49.01082" lon="0.05139">
        <ele>141.15</ele>
        <time>2021-08-08T15:05:01Z</time>
      </trkpt>
      <trkpt lat="49.01085" lon="0.0514">
        <ele>141.19</ele>
        <time>2021-08-08T15:05:02Z</time>
      </trkpt>
      <trkpt lat="49.01087" lon="0.0514">
        <ele>141.19</ele>
        <time>2021-08-08T15:05:03Z</time>
      </trkpt>
      <trkpt lat="49.01089" lon="0.0514">
        <ele>141.13</ele>
        <time>2021-08-08T15:05:04Z</time>
      </trkpt>
      <trkpt lat="49.01092" lon="0.05138">
        <ele>140.99</ele>
        <time>2021-08-08T15:05:05Z</time>
      </trkpt>
      <trkpt lat="49.01095" lon="0.05137">
        <ele>140.86</ele>
        <time>2021-08-08T15:05:06Z</time>
      </trkpt>
      <trkpt lat="49.01098" lon="0.05136">
        <ele>140.75</ele>
        <time>2021-08-08T15:05:07Z</time>
      </trkpt>
      <trkpt lat="49.01101" lon="0.05136">
        <ele>140.71</ele>
        <time>2021-08-08T15:05:08Z</time>
      </trkpt>
      <trkpt lat="49.01105" lon="0.05139">
        <ele>140.96</ele>
        <time>2021-08-08T15:05:09Z</time>
      </trkpt>
      <trkpt lat="49.01109" lon="0.05142">
        <ele>141.32</ele>
        <time>2021-08-08T15:05:10Z</time>
      </trkpt>
      <trkpt lat="49.01113" lon="0.05146">
        <ele>141.78</ele>
        <time>2021-08-08T15:05:11Z</time>
      </trkpt>
      <trkpt lat="49.01116" lon="0.05147">
        <ele>142.03</ele>
        <time>2021-08-08T15:05:12Z</time>
      </trkpt>
      <trkpt lat="49.01119" lon="0.05149">
        <ele>142.38</ele>
        <time>2021-08-08T15:05:13Z</time>
      </trkpt>
      <trkpt lat="49.01123" lon="0.05153">
        <ele>142.87</ele>
        <time>2021-08-08T15:05:14Z</time>
      </trkpt>
      <trkpt lat="49.01127" lon="0.05156">
        <ele>143.27</ele>
        <time>2021-08-08T15:05:15Z</time>
      </trkpt>
      <trkpt lat="49.01131" lon="0.05161">
        <ele>143.93</ele>
        <time>2021-08-08T15:05:16Z</time>
      </trkpt>
      <trkpt lat="49.01134" lon="0.05164">
        <ele>144.43</ele>
        <time>2021-08-08T15:05:17Z</time>
      </trkpt>
      <trkpt lat="49.01138" lon="0.05167">
        <ele>144.84</ele>
        <time>2021-08-08T15:05:18Z</time>
      </trkpt>
      <trkpt lat="49.01141" lon="0.05169">
        <ele>145.16</ele>
        <time>2021-08-08T15:05:19Z</time>
      </trkpt>
      <trkpt lat="49.01144" lon="0.05171">
        <ele>145.34</ele>
        <time>2021-08-08T15:05:20Z</time>
      </trkpt>
      <trkpt lat="49.01147" lon="0.05171">
        <ele>145.3</ele>
        <time>2021-08-08T15:05:21Z</time>
      </trkpt>
      <trkpt lat="49.01153" lon="0.0517">
        <ele>145.1</ele>
        <time>2021-08-08T15:05:22Z</time>
      </trkpt>
      <trkpt lat="49.01158" lon="0.0517">
        <ele>144.86</ele>
        <time>2021-08-08T15:05:23Z</time>
      </trkpt>
      <trkpt lat="49.01164" lon="0.05168">
        <ele>144.5</ele>
        <time>2021-08-08T15:05:24Z</time>
      </trkpt>
      <trkpt lat="49.01172" lon="0.05168">
        <ele>144.2</ele>
        <time>2021-08-08T15:05:25Z</time>
      </trkpt>
      <trkpt lat="49.01177" lon="0.05169">
        <ele>144.01</ele>
        <time>2021-08-08T15:05:26Z</time>
      </trkpt>
      <trkpt lat="49.01183" lon="0.0517">
        <ele>143.88</ele>
        <time>2021-08-08T15:05:27Z</time>
      </trkpt>
      <trkpt lat="49.01188" lon="0.05171">
        <ele>143.78</ele>
        <time>2021-08-08T15:05:28Z</time>
      </trkpt>
      <trkpt lat="49.01193" lon="0.05173">
        <ele>143.72</ele>
        <time>2021-08-08T15:05:29Z</time>
      </trkpt>
      <trkpt lat="49.01199" lon="0.05175">
        <ele>143.51</ele>
        <time>2021-08-08T15:05:30Z</time>
      </trkpt>
      <trkpt lat="49.01205" lon="0.05178">
        <ele>143.2</ele>
        <time>2021-08-08T15:05:31Z</time>
      </trkpt>
      <trkpt lat="49.01211" lon="0.05181">
        <ele>142.85</ele>
        <time>2021-08-08T15:05:32Z</time>
      </trkpt>
      <trkpt lat="49.01217" lon="0.05185">
        <ele>142.57</ele>
        <time>2021-08-08T15:05:33Z</time>
      </trkpt>
      <trkpt lat="49.01223" lon="0.05189">
        <ele>142.35</ele>
        <time>2021-08-08T15:05:34Z</time>
      </trkpt>
      <trkpt lat="49.0123" lon="0.05191">
        <ele>141.98</ele>
        <time>2021-08-08T15:05:35Z</time>
      </trkpt>
      <trkpt lat="49.01236" lon="0.05196">
        <ele>141.83</ele>
        <time>2021-08-08T15:05:36Z</time>
      </trkpt>
      <trkpt lat="49.01241" lon="0.052">
        <ele>141.81</ele>
        <time>2021-08-08T15:05:37Z</time>
      </trkpt>
      <trkpt lat="49.01247" lon="0.05204">
        <ele>141.77</ele>
        <time>2021-08-08T15:05:38Z</time>
      </trkpt>
      <trkpt lat="49.01253" lon="0.05207">
        <ele>141.64</ele>
        <time>2021-08-08T15:05:39Z</time>
      </trkpt>
      <trkpt lat="49.01257" lon="0.05209">
        <ele>141.48</ele>
        <time>2021-08-08T15:05:40Z</time>
      </trkpt>
      <trkpt lat="49.01263" lon="0.05212">
        <ele>141.4</ele>
        <time>2021-08-08T15:05:41Z</time>
      </trkpt>
      <trkpt lat="49.01267" lon="0.05216">
        <ele>141.35</ele>
        <time>2021-08-08T15:05:42Z</time>
      </trkpt>
      <trkpt lat="49.01271" lon="0.05219">
        <ele>141.34</ele>
        <time>2021-08-08T15:05:43Z</time>
      </trkpt>
      <trkpt lat="49.01276" lon="0.05221">
        <ele>141.12</ele>
        <time>2021-08-08T15:05:44Z</time>
      </trkpt>
      <trkpt lat="49.01281" lon="0.05223">
        <ele>140.79</ele>
        <time>2021-08-08T15:05:45Z</time>
      </trkpt>
      <trkpt lat="49.01286" lon="0.05224">
        <ele>140.41</ele>
        <time>2021-08-08T15:05:46Z</time>
      </trkpt>
      <trkpt lat="49.01291" lon="0.05225">
        <ele>140.02</ele>
        <time>2021-08-08T15:05:47Z</time>
      </trkpt>
      <trkpt lat="49.01296" lon="0.05226">
        <ele>139.63</ele>
        <time>2021-08-08T15:05:48Z</time>
      </trkpt>
      <trkpt lat="49.01301" lon="0.05227">
        <ele>139.23</ele>
        <time>2021-08-08T15:05:49Z</time>
      </trkpt>
      <trkpt lat="49.01305" lon="0.05229">
        <ele>138.89</ele>
        <time>2021-08-08T15:05:50Z</time>
      </trkpt>
      <trkpt lat="49.0131" lon="0.05231">
        <ele>138.61</ele>
        <time>2021-08-08T15:05:51Z</time>
      </trkpt>
      <trkpt lat="49.01314" lon="0.05233">
        <ele>138.35</ele>
        <time>2021-08-08T15:05:52Z</time>
      </trkpt>
      <trkpt lat="49.01319" lon="0.05235">
        <ele>138.05</ele>
        <time>2021-08-08T15:05:53Z</time>
      </trkpt>
      <trkpt lat="49.01325" lon="0.05237">
        <ele>137.71</ele>
        <time>2021-08-08T15:05:54Z</time>
      </trkpt>
      <trkpt lat="49.01329" lon="0.0524">
        <ele>137.45</ele>
        <time>2021-08-08T15:05:55Z</time>
      </trkpt>
      <trkpt lat="49.01334" lon="0.05242">
        <ele>137.18</ele>
        <time>2021-08-08T15:05:56Z</time>
      </trkpt>
      <trkpt lat="49.0134" lon="0.05244">
        <ele>136.99</ele>
        <time>2021-08-08T15:05:57Z</time>
      </trkpt>
      <trkpt lat="49.01345" lon="0.05246">
        <ele>136.81</ele>
        <time>2021-08-08T15:05:58Z</time>
      </trkpt>
      <trkpt lat="49.0135" lon="0.05248">
        <ele>136.67</ele>
        <time>2021-08-08T15:05:59Z</time>
      </trkpt>
      <trkpt lat="49.01355" lon="0.05251">
        <ele>136.62</ele>
        <time>2021-08-08T15:06:00Z</time>
      </trkpt>
      <trkpt lat="49.0136" lon="0.05253">
        <ele>136.66</ele>
        <time>2021-08-08T15:06:01Z</time>
      </trkpt>
      <trkpt lat="49.01365" lon="0.05256">
        <ele>136.71</ele>
        <time>2021-08-08T15:06:02Z</time>
      </trkpt>
      <trkpt lat="49.0137" lon="0.05258">
        <ele>136.73</ele>
        <time>2021-08-08T15:06:03Z</time>
      </trkpt>
      <trkpt lat="49.01375" lon="0.0526">
        <ele>136.68</ele>
        <time>2021-08-08T15:06:04Z</time>
      </trkpt>
      <trkpt lat="49.0138" lon="0.05262">
        <ele>136.58</ele>
        <time>2021-08-08T15:06:05Z</time>
      </trkpt>
      <trkpt lat="49.01385" lon="0.05264">
        <ele>136.44</ele>
        <time>2021-08-08T15:06:06Z</time>
      </trkpt>
      <trkpt lat="49.0139" lon="0.05266">
        <ele>136.29</ele>
        <time>2021-08-08T15:06:07Z</time>
      </trkpt>
      <trkpt lat="49.01395" lon="0.05267">
        <ele>136.29</ele>
        <time>2021-08-08T15:06:08Z</time>
      </trkpt>
      <trkpt lat="49.01399" lon="0.05269">
        <ele>136.31</ele>
        <time>2021-08-08T15:06:09Z</time>
      </trkpt>
      <trkpt lat="49.01404" lon="0.0527">
        <ele>136.38</ele>
        <time>2021-08-08T15:06:10Z</time>
      </trkpt>
      <trkpt lat="49.01408" lon="0.05272">
        <ele>136.47</ele>
        <time>2021-08-08T15:06:11Z</time>
      </trkpt>
      <trkpt lat="49.01412" lon="0.05274">
        <ele>136.59</ele>
        <time>2021-08-08T15:06:12Z</time>
      </trkpt>
      <trkpt lat="49.01416" lon="0.05276">
        <ele>136.69</ele>
        <time>2021-08-08T15:06:13Z</time>
      </trkpt>
      <trkpt lat="49.0142" lon="0.05278">
        <ele>136.8</ele>
        <time>2021-08-08T15:06:14Z</time>
      </trkpt>
      <trkpt lat="49.01425" lon="0.05279">
        <ele>136.9</ele>
        <time>2021-08-08T15:06:15Z</time>
      </trkpt>
      <trkpt lat="49.01428" lon="0.05282">
        <ele>137.08</ele>
        <time>2021-08-08T15:06:16Z</time>
      </trkpt>
      <trkpt lat="49.0143" lon="0.05285">
        <ele>137.39</ele>
        <time>2021-08-08T15:06:17Z</time>
      </trkpt>
      <trkpt lat="49.01432" lon="0.05288">
        <ele>137.78</ele>
        <time>2021-08-08T15:06:18Z</time>
      </trkpt>
      <trkpt lat="49.01435" lon="0.05292">
        <ele>138.16</ele>
        <time>2021-08-08T15:06:19Z</time>
      </trkpt>
      <trkpt lat="49.01438" lon="0.05294">
        <ele>138.45</ele>
        <time>2021-08-08T15:06:20Z</time>
      </trkpt>
      <trkpt lat="49.01441" lon="0.05296">
        <ele>138.65</ele>
        <time>2021-08-08T15:06:21Z</time>
      </trkpt>
      <trkpt lat="49.01445" lon="0.05297">
        <ele>138.69</ele>
        <time>2021-08-08T15:06:22Z</time>
      </trkpt>
      <trkpt lat="49.01447" lon="0.05296">
        <ele>138.46</ele>
        <time>2021-08-08T15:06:23Z</time>
      </trkpt>
      <trkpt lat="49.0145" lon="0.05295">
        <ele>138.18</ele>
        <time>2021-08-08T15:06:24Z</time>
      </trkpt>
      <trkpt lat="49.01453" lon="0.05294">
        <ele>137.85</ele>
        <time>2021-08-08T15:06:25Z</time>
      </trkpt>
      <trkpt lat="49.01454" lon="0.05294">
        <ele>137.62</ele>
        <time>2021-08-08T15:06:26Z</time>
      </trkpt>
      <trkpt lat="49.01456" lon="0.05294">
        <ele>137.49</ele>
        <time>2021-08-08T15:06:27Z</time>
      </trkpt>
      <trkpt lat="49.01457" lon="0.05295">
        <ele>137.51</ele>
        <time>2021-08-08T15:06:28Z</time>
      </trkpt>
      <trkpt lat="49.01458" lon="0.05297">
        <ele>137.57</ele>
        <time>2021-08-08T15:06:29Z</time>
      </trkpt>
      <trkpt lat="49.0146" lon="0.05302">
        <ele>137.8</ele>
        <time>2021-08-08T15:06:30Z</time>
      </trkpt>
      <trkpt lat="49.01462" lon="0.05306">
        <ele>138.06</ele>
        <time>2021-08-08T15:06:31Z</time>
      </trkpt>
      <trkpt lat="49.01463" lon="0.05309">
        <ele>138.33</ele>
        <time>2021-08-08T15:06:32Z</time>
      </trkpt>
      <trkpt lat="49.01463" lon="0.05313">
        <ele>138.65</ele>
        <time>2021-08-08T15:06:33Z</time>
      </trkpt>
      <trkpt lat="49.01464" lon="0.05316">
        <ele>138.89</ele>
        <time>2021-08-08T15:06:34Z</time>
      </trkpt>
      <trkpt lat="49.01464" lon="0.05318">
        <ele>139.14</ele>
        <time>2021-08-08T15:06:35Z</time>
      </trkpt>
      <trkpt lat="49.01464" lon="0.05321">
        <ele>139.38</ele>
        <time>2021-08-08T15:06:36Z</time>
      </trkpt>
      <trkpt lat="49.01465" lon="0.05323">
        <ele>139.6</ele>
        <time>2021-08-08T15:06:37Z</time>
      </trkpt>
      <trkpt lat="49.01465" lon="0.05325">
        <ele>139.82</ele>
        <time>2021-08-08T15:06:38Z</time>
      </trkpt>
      <trkpt lat="49.01465" lon="0.05328">
        <ele>140.11</ele>
        <time>2021-08-08T15:06:39Z</time>
      </trkpt>
      <trkpt lat="49.01465" lon="0.05332">
        <ele>140.47</ele>
        <time>2021-08-08T15:06:40Z</time>
      </trkpt>
      <trkpt lat="49.01465" lon="0.05336">
        <ele>140.89</ele>
        <time>2021-08-08T15:06:41Z</time>
      </trkpt>
      <trkpt lat="49.01464" lon="0.0534">
        <ele>141.27</ele>
        <time>2021-08-08T15:06:42Z</time>
      </trkpt>
      <trkpt lat="49.01464" lon="0.05344">
        <ele>141.63</ele>
        <time>2021-08-08T15:06:43Z</time>
      </trkpt>
      <trkpt lat="49.01464" lon="0.05348">
        <ele>141.9</ele>
        <time>2021-08-08T15:06:44Z</time>
      </trkpt>
      <trkpt lat="49.01464" lon="0.05351">
        <ele>142.22</ele>
        <time>2021-08-08T15:06:45Z</time>
      </trkpt>
      <trkpt lat="49.01464" lon="0.05354">
        <ele>142.48</ele>
        <time>2021-08-08T15:06:46Z</time>
      </trkpt>
      <trkpt lat="49.01464" lon="0.05357">
        <ele>142.71</ele>
        <time>2021-08-08T15:06:47Z</time>
      </trkpt>
      <trkpt lat="49.01463" lon="0.0536">
        <ele>143.05</ele>
        <time>2021-08-08T15:06:48Z</time>
      </trkpt>
      <trkpt lat="49.01463" lon="0.05364">
        <ele>143.5</ele>
        <time>2021-08-08T15:06:49Z</time>
      </trkpt>
      <trkpt lat="49.01462" lon="0.05368">
        <ele>143.93</ele>
        <time>2021-08-08T15:06:50Z</time>
      </trkpt>
      <trkpt lat="49.01463" lon="0.05371">
        <ele>144.27</ele>
        <time>2021-08-08T15:06:51Z</time>
      </trkpt>
      <trkpt lat="49.01463" lon="0.05375">
        <ele>144.6</ele>
        <time>2021-08-08T15:06:52Z</time>
      </trkpt>
      <trkpt lat="49.01463" lon="0.05378">
        <ele>144.95</ele>
        <time>2021-08-08T15:06:53Z</time>
      </trkpt>
      <trkpt lat="49.01464" lon="0.05382">
        <ele>145.29</ele>
        <time>2021-08-08T15:06:54Z</time>
      </trkpt>
      <trkpt lat="49.01464" lon="0.05385">
        <ele>145.58</ele>
        <time>2021-08-08T15:06:55Z</time>
      </trkpt>
      <trkpt lat="49.01464" lon="0.05388">
        <ele>145.92</ele>
        <time>2021-08-08T15:06:56Z</time>
      </trkpt>
      <trkpt lat="49.01463" lon="0.05391">
        <ele>146.34</ele>
        <time>2021-08-08T15:06:57Z</time>
      </trkpt>
      <trkpt lat="49.01463" lon="0.05395">
        <ele>146.72</ele>
        <time>2021-08-08T15:06:58Z</time>
      </trkpt>
      <trkpt lat="49.01464" lon="0.05397">
        <ele>146.98</ele>
        <time>2021-08-08T15:06:59Z</time>
      </trkpt>
      <trkpt lat="49.01464" lon="0.05401">
        <ele>147.27</ele>
        <time>2021-08-08T15:07:00Z</time>
      </trkpt>
      <trkpt lat="49.01464" lon="0.05404">
        <ele>147.62</ele>
        <time>2021-08-08T15:07:01Z</time>
      </trkpt>
      <trkpt lat="49.01465" lon="0.05407">
        <ele>147.9</ele>
        <time>2021-08-08T15:07:02Z</time>
      </trkpt>
      <trkpt lat="49.01466" lon="0.0541">
        <ele>148.13</ele>
        <time>2021-08-08T15:07:03Z</time>
      </trkpt>
      <trkpt lat="49.01466" lon="0.05413">
        <ele>148.47</ele>
        <time>2021-08-08T15:07:04Z</time>
      </trkpt>
      <trkpt lat="49.01465" lon="0.05417">
        <ele>148.93</ele>
        <time>2021-08-08T15:07:05Z</time>
      </trkpt>
      <trkpt lat="49.01463" lon="0.0542">
        <ele>149.39</ele>
        <time>2021-08-08T15:07:06Z</time>
      </trkpt>
      <trkpt lat="49.01461" lon="0.05423">
        <ele>149.88</ele>
        <time>2021-08-08T15:07:07Z</time>
      </trkpt>
      <trkpt lat="49.0146" lon="0.05425">
        <ele>150.26</ele>
        <time>2021-08-08T15:07:08Z</time>
      </trkpt>
      <trkpt lat="49.01459" lon="0.05428">
        <ele>150.57</ele>
        <time>2021-08-08T15:07:09Z</time>
      </trkpt>
      <trkpt lat="49.01459" lon="0.05431">
        <ele>150.85</ele>
        <time>2021-08-08T15:07:10Z</time>
      </trkpt>
      <trkpt lat="49.01458" lon="0.05434">
        <ele>151.18</ele>
        <time>2021-08-08T15:07:11Z</time>
      </trkpt>
      <trkpt lat="49.01458" lon="0.05437">
        <ele>151.44</ele>
        <time>2021-08-08T15:07:12Z</time>
      </trkpt>
      <trkpt lat="49.01459" lon="0.05441">
        <ele>151.62</ele>
        <time>2021-08-08T15:07:13Z</time>
      </trkpt>
      <trkpt lat="49.01459" lon="0.05444">
        <ele>151.8</ele>
        <time>2021-08-08T15:07:14Z</time>
      </trkpt>
      <trkpt lat="49.0146" lon="0.05447">
        <ele>151.76</ele>
        <time>2021-08-08T15:07:15Z</time>
      </trkpt>
      <trkpt lat="49.01462" lon="0.05451">
        <ele>151.55</ele>
        <time>2021-08-08T15:07:16Z</time>
      </trkpt>
      <trkpt lat="49.01464" lon="0.05455">
        <ele>151.23</ele>
        <time>2021-08-08T15:07:17Z</time>
      </trkpt>
      <trkpt lat="49.01466" lon="0.05459">
        <ele>150.93</ele>
        <time>2021-08-08T15:07:18Z</time>
      </trkpt>
      <trkpt lat="49.01469" lon="0.05463">
        <ele>150.56</ele>
        <time>2021-08-08T15:07:19Z</time>
      </trkpt>
      <trkpt lat="49.01472" lon="0.05464">
        <ele>150.15</ele>
        <time>2021-08-08T15:07:20Z</time>
      </trkpt>
      <trkpt lat="49.01476" lon="0.05466">
        <ele>149.59</ele>
        <time>2021-08-08T15:07:21Z</time>
      </trkpt>
      <trkpt lat="49.01479" lon="0.05467">
        <ele>149.06</ele>
        <time>2021-08-08T15:07:22Z</time>
      </trkpt>
      <trkpt lat="49.01482" lon="0.0547">
        <ele>148.42</ele>
        <time>2021-08-08T15:07:23Z</time>
      </trkpt>
      <trkpt lat="49.01486" lon="0.05473">
        <ele>147.78</ele>
        <time>2021-08-08T15:07:24Z</time>
      </trkpt>
      <trkpt lat="49.0149" lon="0.05477">
        <ele>147.1</ele>
        <time>2021-08-08T15:07:25Z</time>
      </trkpt>
      <trkpt lat="49.01495" lon="0.05481">
        <ele>146.45</ele>
        <time>2021-08-08T15:07:26Z</time>
      </trkpt>
      <trkpt lat="49.015" lon="0.05487">
        <ele>145.79</ele>
        <time>2021-08-08T15:07:27Z</time>
      </trkpt>
      <trkpt lat="49.01506" lon="0.05491">
        <ele>145.11</ele>
        <time>2021-08-08T15:07:28Z</time>
      </trkpt>
      <trkpt lat="49.0151" lon="0.05496">
        <ele>144.58</ele>
        <time>2021-08-08T15:07:29Z</time>
      </trkpt>
      <trkpt lat="49.01515" lon="0.05502">
        <ele>144.13</ele>
        <time>2021-08-08T15:07:30Z</time>
      </trkpt>
      <trkpt lat="49.0152" lon="0.05506">
        <ele>143.67</ele>
        <time>2021-08-08T15:07:31Z</time>
      </trkpt>
      <trkpt lat="49.01525" lon="0.05511">
        <ele>143.28</ele>
        <time>2021-08-08T15:07:32Z</time>
      </trkpt>
      <trkpt lat="49.01531" lon="0.05517">
        <ele>142.92</ele>
        <time>2021-08-08T15:07:33Z</time>
      </trkpt>
      <trkpt lat="49.01536" lon="0.05525">
        <ele>142.66</ele>
        <time>2021-08-08T15:07:34Z</time>
      </trkpt>
      <trkpt lat="49.01542" lon="0.05536">
        <ele>142.36</ele>
        <time>2021-08-08T15:07:35Z</time>
      </trkpt>
      <trkpt lat="49.01548" lon="0.05547">
        <ele>141.92</ele>
        <time>2021-08-08T15:07:36Z</time>
      </trkpt>
      <trkpt lat="49.01553" lon="0.05557">
        <ele>141.5</ele>
        <time>2021-08-08T15:07:37Z</time>
      </trkpt>
      <trkpt lat="49.01556" lon="0.05571">
        <ele>141.1</ele>
        <time>2021-08-08T15:07:38Z</time>
      </trkpt>
      <trkpt lat="49.01561" lon="0.05582">
        <ele>140.57</ele>
        <time>2021-08-08T15:07:39Z</time>
      </trkpt>
      <trkpt lat="49.01568" lon="0.0559">
        <ele>139.97</ele>
        <time>2021-08-08T15:07:40Z</time>
      </trkpt>
      <trkpt lat="49.01574" lon="0.05597">
        <ele>139.32</ele>
        <time>2021-08-08T15:07:41Z</time>
      </trkpt>
      <trkpt lat="49.01581" lon="0.05605">
        <ele>138.59</ele>
        <time>2021-08-08T15:07:42Z</time>
      </trkpt>
      <trkpt lat="49.01587" lon="0.05614">
        <ele>138.06</ele>
        <time>2021-08-08T15:07:43Z</time>
      </trkpt>
      <trkpt lat="49.01593" lon="0.05624">
        <ele>137.86</ele>
        <time>2021-08-08T15:07:44Z</time>
      </trkpt>
      <trkpt lat="49.01599" lon="0.05634">
        <ele>137.77</ele>
        <time>2021-08-08T15:07:45Z</time>
      </trkpt>
      <trkpt lat="49.01605" lon="0.05644">
        <ele>137.38</ele>
        <time>2021-08-08T15:07:46Z</time>
      </trkpt>
      <trkpt lat="49.01614" lon="0.05655">
        <ele>136.53</ele>
        <time>2021-08-08T15:07:47Z</time>
      </trkpt>
      <trkpt lat="49.01623" lon="0.05665">
        <ele>135.59</ele>
        <time>2021-08-08T15:07:48Z</time>
      </trkpt>
      <trkpt lat="49.01631" lon="0.05672">
        <ele>134.87</ele>
        <time>2021-08-08T15:07:49Z</time>
      </trkpt>
      <trkpt lat="49.01639" lon="0.05678">
        <ele>134.27</ele>
        <time>2021-08-08T15:07:50Z</time>
      </trkpt>
      <trkpt lat="49.01645" lon="0.05684">
        <ele>133.87</ele>
        <time>2021-08-08T15:07:51Z</time>
      </trkpt>
      <trkpt lat="49.01652" lon="0.05693">
        <ele>133.61</ele>
        <time>2021-08-08T15:07:52Z</time>
      </trkpt>
      <trkpt lat="49.01655" lon="0.05702">
        <ele>133.47</ele>
        <time>2021-08-08T15:07:53Z</time>
      </trkpt>
      <trkpt lat="49.01657" lon="0.05711">
        <ele>133.39</ele>
        <time>2021-08-08T15:07:54Z</time>
      </trkpt>
      <trkpt lat="49.01658" lon="0.0572">
        <ele>133.33</ele>
        <time>2021-08-08T15:07:55Z</time>
      </trkpt>
      <trkpt lat="49.01658" lon="0.05729">
        <ele>133.31</ele>
        <time>2021-08-08T15:07:56Z</time>
      </trkpt>
      <trkpt lat="49.01658" lon="0.05739">
        <ele>133.32</ele>
        <time>2021-08-08T15:07:57Z</time>
      </trkpt>
      <trkpt lat="49.01657" lon="0.0575">
        <ele>133.33</ele>
        <time>2021-08-08T15:07:58Z</time>
      </trkpt>
      <trkpt lat="49.01657" lon="0.0576">
        <ele>133.09</ele>
        <time>2021-08-08T15:07:59Z</time>
      </trkpt>
      <trkpt lat="49.01657" lon="0.0577">
        <ele>132.77</ele>
        <time>2021-08-08T15:08:00Z</time>
      </trkpt>
      <trkpt lat="49.01656" lon="0.05779">
        <ele>132.45</ele>
        <time>2021-08-08T15:08:01Z</time>
      </trkpt>
      <trkpt lat="49.01655" lon="0.05788">
        <ele>132.18</ele>
        <time>2021-08-08T15:08:02Z</time>
      </trkpt>
      <trkpt lat="49.01655" lon="0.05793">
        <ele>131.96</ele>
        <time>2021-08-08T15:08:03Z</time>
      </trkpt>
      <trkpt lat="49.01653" lon="0.05798">
        <ele>131.83</ele>
        <time>2021-08-08T15:08:04Z</time>
      </trkpt>
      <trkpt lat="49.01648" lon="0.058">
        <ele>131.86</ele>
        <time>2021-08-08T15:08:05Z</time>
      </trkpt>
      <trkpt lat="49.01643" lon="0.058">
        <ele>131.99</ele>
        <time>2021-08-08T15:08:06Z</time>
      </trkpt>
      <trkpt lat="49.01639" lon="0.058">
        <ele>132.13</ele>
        <time>2021-08-08T15:08:07Z</time>
      </trkpt>
      <trkpt lat="49.01635" lon="0.058">
        <ele>132.29</ele>
        <time>2021-08-08T15:08:08Z</time>
      </trkpt>
      <trkpt lat="49.0163" lon="0.058">
        <ele>132.45</ele>
        <time>2021-08-08T15:08:09Z</time>
      </trkpt>
      <trkpt lat="49.01626" lon="0.058">
        <ele>132.6</ele>
        <time>2021-08-08T15:08:10Z</time>
      </trkpt>
      <trkpt lat="49.01622" lon="0.05799">
        <ele>132.77</ele>
        <time>2021-08-08T15:08:11Z</time>
      </trkpt>
      <trkpt lat="49.01618" lon="0.05799">
        <ele>132.94</ele>
        <time>2021-08-08T15:08:12Z</time>
      </trkpt>
      <trkpt lat="49.01614" lon="0.05798">
        <ele>133.12</ele>
        <time>2021-08-08T15:08:13Z</time>
      </trkpt>
      <trkpt lat="49.01609" lon="0.05797">
        <ele>133.26</ele>
        <time>2021-08-08T15:08:14Z</time>
      </trkpt>
      <trkpt lat="49.01604" lon="0.05796">
        <ele>133.32</ele>
        <time>2021-08-08T15:08:15Z</time>
      </trkpt>
      <trkpt lat="49.01599" lon="0.05795">
        <ele>133.35</ele>
        <time>2021-08-08T15:08:16Z</time>
      </trkpt>
      <trkpt lat="49.01595" lon="0.05794">
        <ele>133.39</ele>
        <time>2021-08-08T15:08:17Z</time>
      </trkpt>
      <trkpt lat="49.01591" lon="0.05793">
        <ele>133.42</ele>
        <time>2021-08-08T15:08:18Z</time>
      </trkpt>
      <trkpt lat="49.01586" lon="0.05792">
        <ele>133.47</ele>
        <time>2021-08-08T15:08:19Z</time>
      </trkpt>
      <trkpt lat="49.01582" lon="0.0579">
        <ele>133.54</ele>
        <time>2021-08-08T15:08:20Z</time>
      </trkpt>
      <trkpt lat="49.01578" lon="0.05788">
        <ele>133.69</ele>
        <time>2021-08-08T15:08:21Z</time>
      </trkpt>
      <trkpt lat="49.01573" lon="0.05786">
        <ele>133.87</ele>
        <time>2021-08-08T15:08:22Z</time>
      </trkpt>
      <trkpt lat="49.01568" lon="0.05785">
        <ele>134.08</ele>
        <time>2021-08-08T15:08:23Z</time>
      </trkpt>
      <trkpt lat="49.01564" lon="0.05782">
        <ele>134.32</ele>
        <time>2021-08-08T15:08:24Z</time>
      </trkpt>
      <trkpt lat="49.01559" lon="0.0578">
        <ele>134.6</ele>
        <time>2021-08-08T15:08:25Z</time>
      </trkpt>
      <trkpt lat="49.01554" lon="0.05778">
        <ele>134.88</ele>
        <time>2021-08-08T15:08:26Z</time>
      </trkpt>
      <trkpt lat="49.01549" lon="0.05776">
        <ele>135.02</ele>
        <time>2021-08-08T15:08:27Z</time>
      </trkpt>
      <trkpt lat="49.01544" lon="0.05774">
        <ele>135.11</ele>
        <time>2021-08-08T15:08:28Z</time>
      </trkpt>
      <trkpt lat="49.01539" lon="0.05773">
        <ele>135.16</ele>
        <time>2021-08-08T15:08:29Z</time>
      </trkpt>
      <trkpt lat="49.01534" lon="0.05772">
        <ele>135.2</ele>
        <time>2021-08-08T15:08:30Z</time>
      </trkpt>
      <trkpt lat="49.01529" lon="0.05771">
        <ele>135.24</ele>
        <time>2021-08-08T15:08:31Z</time>
      </trkpt>
      <trkpt lat="49.01524" lon="0.0577">
        <ele>135.28</ele>
        <time>2021-08-08T15:08:32Z</time>
      </trkpt>
      <trkpt lat="49.01519" lon="0.0577">
        <ele>135.33</ele>
        <time>2021-08-08T15:08:33Z</time>
      </trkpt>
      <trkpt lat="49.01514" lon="0.0577">
        <ele>135.4</ele>
        <time>2021-08-08T15:08:34Z</time>
      </trkpt>
      <trkpt lat="49.01509" lon="0.05769">
        <ele>135.47</ele>
        <time>2021-08-08T15:08:35Z</time>
      </trkpt>
      <trkpt lat="49.01504" lon="0.0577">
        <ele>135.5</ele>
        <time>2021-08-08T15:08:36Z</time>
      </trkpt>
      <trkpt lat="49.01499" lon="0.05771">
        <ele>135.51</ele>
        <time>2021-08-08T15:08:37Z</time>
      </trkpt>
      <trkpt lat="49.01494" lon="0.05772">
        <ele>135.45</ele>
        <time>2021-08-08T15:08:38Z</time>
      </trkpt>
      <trkpt lat="49.01489" lon="0.05773">
        <ele>135.36</ele>
        <time>2021-08-08T15:08:39Z</time>
      </trkpt>
      <trkpt lat="49.01483" lon="0.05774">
        <ele>135.28</ele>
        <time>2021-08-08T15:08:40Z</time>
      </trkpt>
      <trkpt lat="49.01478" lon="0.05775">
        <ele>135.22</ele>
        <time>2021-08-08T15:08:41Z</time>
      </trkpt>
      <trkpt lat="49.01473" lon="0.05776">
        <ele>135.17</ele>
        <time>2021-08-08T15:08:42Z</time>
      </trkpt>
      <trkpt lat="49.01469" lon="0.05776">
        <ele>135.15</ele>
        <time>2021-08-08T15:08:43Z</time>
      </trkpt>
      <trkpt lat="49.01464" lon="0.05775">
        <ele>135.18</ele>
        <time>2021-08-08T15:08:44Z</time>
      </trkpt>
      <trkpt lat="49.01459" lon="0.05774">
        <ele>135.24</ele>
        <time>2021-08-08T15:08:45Z</time>
      </trkpt>
      <trkpt lat="49.01454" lon="0.05773">
        <ele>135.31</ele>
        <time>2021-08-08T15:08:46Z</time>
      </trkpt>
      <trkpt lat="49.01449" lon="0.05772">
        <ele>135.41</ele>
        <time>2021-08-08T15:08:47Z</time>
      </trkpt>
      <trkpt lat="49.01444" lon="0.0577">
        <ele>135.51</ele>
        <time>2021-08-08T15:08:48Z</time>
      </trkpt>
      <trkpt lat="49.0144" lon="0.05768">
        <ele>135.59</ele>
        <time>2021-08-08T15:08:49Z</time>
      </trkpt>
      <trkpt lat="49.01435" lon="0.05767">
        <ele>135.62</ele>
        <time>2021-08-08T15:08:50Z</time>
      </trkpt>
      <trkpt lat="49.0143" lon="0.05765">
        <ele>135.65</ele>
        <time>2021-08-08T15:08:51Z</time>
      </trkpt>
      <trkpt lat="49.01425" lon="0.05763">
        <ele>135.68</ele>
        <time>2021-08-08T15:08:52Z</time>
      </trkpt>
      <trkpt lat="49.0142" lon="0.0576">
        <ele>135.69</ele>
        <time>2021-08-08T15:08:53Z</time>
      </trkpt>
      <trkpt lat="49.01416" lon="0.05758">
        <ele>135.72</ele>
        <time>2021-08-08T15:08:54Z</time>
      </trkpt>
      <trkpt lat="49.01411" lon="0.05755">
        <ele>135.79</ele>
        <time>2021-08-08T15:08:55Z</time>
      </trkpt>
      <trkpt lat="49.01407" lon="0.05753">
        <ele>135.87</ele>
        <time>2021-08-08T15:08:56Z</time>
      </trkpt>
      <trkpt lat="49.01403" lon="0.0575">
        <ele>135.97</ele>
        <time>2021-08-08T15:08:57Z</time>
      </trkpt>
      <trkpt lat="49.01398" lon="0.05747">
        <ele>136.22</ele>
        <time>2021-08-08T15:08:58Z</time>
      </trkpt>
      <trkpt lat="49.01394" lon="0.05744">
        <ele>136.51</ele>
        <time>2021-08-08T15:08:59Z</time>
      </trkpt>
      <trkpt lat="49.01389" lon="0.05742">
        <ele>136.76</ele>
        <time>2021-08-08T15:09:00Z</time>
      </trkpt>
      <trkpt lat="49.01384" lon="0.05739">
        <ele>137.13</ele>
        <time>2021-08-08T15:09:01Z</time>
      </trkpt>
      <trkpt lat="49.01379" lon="0.05737">
        <ele>137.53</ele>
        <time>2021-08-08T15:09:02Z</time>
      </trkpt>
      <trkpt lat="49.01374" lon="0.05736">
        <ele>137.91</ele>
        <time>2021-08-08T15:09:03Z</time>
      </trkpt>
      <trkpt lat="49.01369" lon="0.05734">
        <ele>138.3</ele>
        <time>2021-08-08T15:09:04Z</time>
      </trkpt>
      <trkpt lat="49.01364" lon="0.05733">
        <ele>138.61</ele>
        <time>2021-08-08T15:09:05Z</time>
      </trkpt>
      <trkpt lat="49.01361" lon="0.05732">
        <ele>138.83</ele>
        <time>2021-08-08T15:09:06Z</time>
      </trkpt>
      <trkpt lat="49.01356" lon="0.05732">
        <ele>138.92</ele>
        <time>2021-08-08T15:09:07Z</time>
      </trkpt>
      <trkpt lat="49.01351" lon="0.05733">
        <ele>138.87</ele>
        <time>2021-08-08T15:09:08Z</time>
      </trkpt>
      <trkpt lat="49.01346" lon="0.05733">
        <ele>138.82</ele>
        <time>2021-08-08T15:09:09Z</time>
      </trkpt>
      <trkpt lat="49.0134" lon="0.05734">
        <ele>138.72</ele>
        <time>2021-08-08T15:09:10Z</time>
      </trkpt>
      <trkpt lat="49.01335" lon="0.05735">
        <ele>138.67</ele>
        <time>2021-08-08T15:09:11Z</time>
      </trkpt>
      <trkpt lat="49.01329" lon="0.05737">
        <ele>138.55</ele>
        <time>2021-08-08T15:09:12Z</time>
      </trkpt>
      <trkpt lat="49.01324" lon="0.05738">
        <ele>138.45</ele>
        <time>2021-08-08T15:09:13Z</time>
      </trkpt>
      <trkpt lat="49.01318" lon="0.0574">
        <ele>138.3</ele>
        <time>2021-08-08T15:09:14Z</time>
      </trkpt>
      <trkpt lat="49.01313" lon="0.05742">
        <ele>138.13</ele>
        <time>2021-08-08T15:09:15Z</time>
      </trkpt>
      <trkpt lat="49.01308" lon="0.05744">
        <ele>137.96</ele>
        <time>2021-08-08T15:09:16Z</time>
      </trkpt>
      <trkpt lat="49.01303" lon="0.05745">
        <ele>137.83</ele>
        <time>2021-08-08T15:09:17Z</time>
      </trkpt>
      <trkpt lat="49.01298" lon="0.05747">
        <ele>137.73</ele>
        <time>2021-08-08T15:09:18Z</time>
      </trkpt>
      <trkpt lat="49.01293" lon="0.05749">
        <ele>137.62</ele>
        <time>2021-08-08T15:09:19Z</time>
      </trkpt>
      <trkpt lat="49.01288" lon="0.05751">
        <ele>137.59</ele>
        <time>2021-08-08T15:09:20Z</time>
      </trkpt>
      <trkpt lat="49.01282" lon="0.05753">
        <ele>137.61</ele>
        <time>2021-08-08T15:09:21Z</time>
      </trkpt>
      <trkpt lat="49.01276" lon="0.05755">
        <ele>137.65</ele>
        <time>2021-08-08T15:09:22Z</time>
      </trkpt>
      <trkpt lat="49.01271" lon="0.05756">
        <ele>137.59</ele>
        <time>2021-08-08T15:09:23Z</time>
      </trkpt>
      <trkpt lat="49.01265" lon="0.05758">
        <ele>137.46</ele>
        <time>2021-08-08T15:09:24Z</time>
      </trkpt>
      <trkpt lat="49.01259" lon="0.05761">
        <ele>137.3</ele>
        <time>2021-08-08T15:09:25Z</time>
      </trkpt>
      <trkpt lat="49.01254" lon="0.05762">
        <ele>137.18</ele>
        <time>2021-08-08T15:09:26Z</time>
      </trkpt>
      <trkpt lat="49.01249" lon="0.05763">
        <ele>137.1</ele>
        <time>2021-08-08T15:09:27Z</time>
      </trkpt>
      <trkpt lat="49.01244" lon="0.05764">
        <ele>137.11</ele>
        <time>2021-08-08T15:09:28Z</time>
      </trkpt>
      <trkpt lat="49.01239" lon="0.05766">
        <ele>137.07</ele>
        <time>2021-08-08T15:09:29Z</time>
      </trkpt>
      <trkpt lat="49.01233" lon="0.05767">
        <ele>137</ele>
        <time>2021-08-08T15:09:30Z</time>
      </trkpt>
      <trkpt lat="49.01228" lon="0.05769">
        <ele>136.95</ele>
        <time>2021-08-08T15:09:31Z</time>
      </trkpt>
      <trkpt lat="49.01223" lon="0.05769">
        <ele>136.94</ele>
        <time>2021-08-08T15:09:32Z</time>
      </trkpt>
      <trkpt lat="49.01218" lon="0.05769">
        <ele>137.04</ele>
        <time>2021-08-08T15:09:33Z</time>
      </trkpt>
      <trkpt lat="49.01213" lon="0.05767">
        <ele>137.25</ele>
        <time>2021-08-08T15:09:34Z</time>
      </trkpt>
      <trkpt lat="49.01209" lon="0.05766">
        <ele>137.47</ele>
        <time>2021-08-08T15:09:35Z</time>
      </trkpt>
      <trkpt lat="49.01205" lon="0.05764">
        <ele>137.7</ele>
        <time>2021-08-08T15:09:36Z</time>
      </trkpt>
      <trkpt lat="49.01202" lon="0.05762">
        <ele>137.92</ele>
        <time>2021-08-08T15:09:37Z</time>
      </trkpt>
      <trkpt lat="49.01198" lon="0.0576">
        <ele>138.12</ele>
        <time>2021-08-08T15:09:38Z</time>
      </trkpt>
      <trkpt lat="49.01195" lon="0.0576">
        <ele>138.22</ele>
        <time>2021-08-08T15:09:39Z</time>
      </trkpt>
      <trkpt lat="49.01192" lon="0.05759">
        <ele>138.46</ele>
        <time>2021-08-08T15:09:40Z</time>
      </trkpt>
      <trkpt lat="49.01189" lon="0.05759">
        <ele>138.79</ele>
        <time>2021-08-08T15:09:41Z</time>
      </trkpt>
      <trkpt lat="49.01186" lon="0.05758">
        <ele>139.16</ele>
        <time>2021-08-08T15:09:42Z</time>
      </trkpt>
      <trkpt lat="49.01183" lon="0.05757">
        <ele>139.56</ele>
        <time>2021-08-08T15:09:43Z</time>
      </trkpt>
      <trkpt lat="49.0118" lon="0.05757">
        <ele>139.94</ele>
        <time>2021-08-08T15:09:44Z</time>
      </trkpt>
      <trkpt lat="49.01176" lon="0.05757">
        <ele>140.31</ele>
        <time>2021-08-08T15:09:45Z</time>
      </trkpt>
      <trkpt lat="49.01173" lon="0.05758">
        <ele>140.65</ele>
        <time>2021-08-08T15:09:46Z</time>
      </trkpt>
      <trkpt lat="49.0117" lon="0.05758">
        <ele>140.98</ele>
        <time>2021-08-08T15:09:47Z</time>
      </trkpt>
      <trkpt lat="49.01166" lon="0.05759">
        <ele>141.29</ele>
        <time>2021-08-08T15:09:48Z</time>
      </trkpt>
      <trkpt lat="49.01163" lon="0.05759">
        <ele>141.6</ele>
        <time>2021-08-08T15:09:49Z</time>
      </trkpt>
      <trkpt lat="49.01161" lon="0.05758">
        <ele>141.93</ele>
        <time>2021-08-08T15:09:50Z</time>
      </trkpt>
      <trkpt lat="49.01158" lon="0.05758">
        <ele>142.28</ele>
        <time>2021-08-08T15:09:51Z</time>
      </trkpt>
      <trkpt lat="49.01154" lon="0.05757">
        <ele>142.64</ele>
        <time>2021-08-08T15:09:52Z</time>
      </trkpt>
      <trkpt lat="49.01151" lon="0.05756">
        <ele>143.06</ele>
        <time>2021-08-08T15:09:53Z</time>
      </trkpt>
      <trkpt lat="49.01148" lon="0.05754">
        <ele>143.51</ele>
        <time>2021-08-08T15:09:54Z</time>
      </trkpt>
      <trkpt lat="49.01145" lon="0.05753">
        <ele>143.94</ele>
        <time>2021-08-08T15:09:55Z</time>
      </trkpt>
      <trkpt lat="49.01142" lon="0.05752">
        <ele>144.4</ele>
        <time>2021-08-08T15:09:56Z</time>
      </trkpt>
      <trkpt lat="49.01138" lon="0.0575">
        <ele>144.84</ele>
        <time>2021-08-08T15:09:57Z</time>
      </trkpt>
      <trkpt lat="49.01135" lon="0.05749">
        <ele>145.2</ele>
        <time>2021-08-08T15:09:58Z</time>
      </trkpt>
      <trkpt lat="49.01133" lon="0.05747">
        <ele>145.52</ele>
        <time>2021-08-08T15:09:59Z</time>
      </trkpt>
      <trkpt lat="49.01129" lon="0.05746">
        <ele>145.84</ele>
        <time>2021-08-08T15:10:00Z</time>
      </trkpt>
      <trkpt lat="49.01127" lon="0.05744">
        <ele>146.19</ele>
        <time>2021-08-08T15:10:01Z</time>
      </trkpt>
      <trkpt lat="49.01124" lon="0.05742">
        <ele>146.55</ele>
        <time>2021-08-08T15:10:02Z</time>
      </trkpt>
      <trkpt lat="49.01121" lon="0.05739">
        <ele>146.91</ele>
        <time>2021-08-08T15:10:03Z</time>
      </trkpt>
      <trkpt lat="49.01119" lon="0.05737">
        <ele>147.25</ele>
        <time>2021-08-08T15:10:04Z</time>
      </trkpt>
      <trkpt lat="49.01117" lon="0.05734">
        <ele>147.58</ele>
        <time>2021-08-08T15:10:05Z</time>
      </trkpt>
      <trkpt lat="49.01115" lon="0.05732">
        <ele>147.92</ele>
        <time>2021-08-08T15:10:06Z</time>
      </trkpt>
      <trkpt lat="49.01113" lon="0.05729">
        <ele>148.27</ele>
        <time>2021-08-08T15:10:07Z</time>
      </trkpt>
      <trkpt lat="49.01111" lon="0.05726">
        <ele>148.61</ele>
        <time>2021-08-08T15:10:08Z</time>
      </trkpt>
      <trkpt lat="49.01108" lon="0.05725">
        <ele>148.88</ele>
        <time>2021-08-08T15:10:09Z</time>
      </trkpt>
      <trkpt lat="49.01106" lon="0.05724">
        <ele>149.15</ele>
        <time>2021-08-08T15:10:10Z</time>
      </trkpt>
      <trkpt lat="49.01104" lon="0.05722">
        <ele>149.41</ele>
        <time>2021-08-08T15:10:11Z</time>
      </trkpt>
      <trkpt lat="49.01102" lon="0.05721">
        <ele>149.66</ele>
        <time>2021-08-08T15:10:12Z</time>
      </trkpt>
      <trkpt lat="49.01099" lon="0.05719">
        <ele>149.95</ele>
        <time>2021-08-08T15:10:13Z</time>
      </trkpt>
      <trkpt lat="49.01097" lon="0.05717">
        <ele>150.25</ele>
        <time>2021-08-08T15:10:14Z</time>
      </trkpt>
      <trkpt lat="49.01095" lon="0.05716">
        <ele>150.52</ele>
        <time>2021-08-08T15:10:15Z</time>
      </trkpt>
      <trkpt lat="49.01092" lon="0.05715">
        <ele>150.76</ele>
        <time>2021-08-08T15:10:16Z</time>
      </trkpt>
      <trkpt lat="49.01089" lon="0.05714">
        <ele>151.02</ele>
        <time>2021-08-08T15:10:17Z</time>
      </trkpt>
      <trkpt lat="49.01087" lon="0.05713">
        <ele>151.29</ele>
        <time>2021-08-08T15:10:18Z</time>
      </trkpt>
      <trkpt lat="49.01085" lon="0.05712">
        <ele>151.53</ele>
        <time>2021-08-08T15:10:19Z</time>
      </trkpt>
      <trkpt lat="49.01083" lon="0.05711">
        <ele>151.76</ele>
        <time>2021-08-08T15:10:20Z</time>
      </trkpt>
      <trkpt lat="49.01081" lon="0.0571">
        <ele>151.98</ele>
        <time>2021-08-08T15:10:21Z</time>
      </trkpt>
      <trkpt lat="49.01078" lon="0.05709">
        <ele>152.2</ele>
        <time>2021-08-08T15:10:22Z</time>
      </trkpt>
      <trkpt lat="49.01076" lon="0.05709">
        <ele>152.43</ele>
        <time>2021-08-08T15:10:23Z</time>
      </trkpt>
      <trkpt lat="49.01074" lon="0.05708">
        <ele>152.65</ele>
        <time>2021-08-08T15:10:24Z</time>
      </trkpt>
      <trkpt lat="49.01071" lon="0.05707">
        <ele>152.85</ele>
        <time>2021-08-08T15:10:25Z</time>
      </trkpt>
      <trkpt lat="49.01069" lon="0.05708">
        <ele>153.02</ele>
        <time>2021-08-08T15:10:26Z</time>
      </trkpt>
      <trkpt lat="49.01066" lon="0.05708">
        <ele>153.17</ele>
        <time>2021-08-08T15:10:27Z</time>
      </trkpt>
      <trkpt lat="49.01064" lon="0.05709">
        <ele>153.31</ele>
        <time>2021-08-08T15:10:28Z</time>
      </trkpt>
      <trkpt lat="49.01061" lon="0.0571">
        <ele>153.47</ele>
        <time>2021-08-08T15:10:29Z</time>
      </trkpt>
      <trkpt lat="49.01058" lon="0.0571">
        <ele>153.63</ele>
        <time>2021-08-08T15:10:30Z</time>
      </trkpt>
      <trkpt lat="49.01055" lon="0.05711">
        <ele>153.79</ele>
        <time>2021-08-08T15:10:31Z</time>
      </trkpt>
      <trkpt lat="49.01051" lon="0.05711">
        <ele>153.9</ele>
        <time>2021-08-08T15:10:32Z</time>
      </trkpt>
      <trkpt lat="49.01048" lon="0.05711">
        <ele>154</ele>
        <time>2021-08-08T15:10:33Z</time>
      </trkpt>
      <trkpt lat="49.01045" lon="0.05713">
        <ele>154.06</ele>
        <time>2021-08-08T15:10:34Z</time>
      </trkpt>
      <trkpt lat="49.01042" lon="0.05713">
        <ele>154.13</ele>
        <time>2021-08-08T15:10:35Z</time>
      </trkpt>
      <trkpt lat="49.01039" lon="0.05713">
        <ele>154.19</ele>
        <time>2021-08-08T15:10:36Z</time>
      </trkpt>
      <trkpt lat="49.01036" lon="0.05715">
        <ele>154.22</ele>
        <time>2021-08-08T15:10:37Z</time>
      </trkpt>
      <trkpt lat="49.01032" lon="0.05714">
        <ele>154.35</ele>
        <time>2021-08-08T15:10:38Z</time>
      </trkpt>
      <trkpt lat="49.01029" lon="0.05714">
        <ele>154.48</ele>
        <time>2021-08-08T15:10:39Z</time>
      </trkpt>
      <trkpt lat="49.01026" lon="0.05714">
        <ele>154.61</ele>
        <time>2021-08-08T15:10:40Z</time>
      </trkpt>
      <trkpt lat="49.01023" lon="0.05714">
        <ele>154.78</ele>
        <time>2021-08-08T15:10:41Z</time>
      </trkpt>
      <trkpt lat="49.0102" lon="0.05713">
        <ele>154.93</ele>
        <time>2021-08-08T15:10:42Z</time>
      </trkpt>
      <trkpt lat="49.01018" lon="0.05713">
        <ele>155.09</ele>
        <time>2021-08-08T15:10:43Z</time>
      </trkpt>
      <trkpt lat="49.01015" lon="0.05712">
        <ele>155.3</ele>
        <time>2021-08-08T15:10:44Z</time>
      </trkpt>
      <trkpt lat="49.01013" lon="0.05711">
        <ele>155.48</ele>
        <time>2021-08-08T15:10:45Z</time>
      </trkpt>
      <trkpt lat="49.0101" lon="0.0571">
        <ele>155.69</ele>
        <time>2021-08-08T15:10:46Z</time>
      </trkpt>
      <trkpt lat="49.01009" lon="0.05709">
        <ele>155.86</ele>
        <time>2021-08-08T15:10:47Z</time>
      </trkpt>
      <trkpt lat="49.01007" lon="0.05708">
        <ele>156.07</ele>
        <time>2021-08-08T15:10:48Z</time>
      </trkpt>
      <trkpt lat="49.01004" lon="0.05707">
        <ele>156.34</ele>
        <time>2021-08-08T15:10:49Z</time>
      </trkpt>
      <trkpt lat="49.01002" lon="0.05705">
        <ele>156.6</ele>
        <time>2021-08-08T15:10:50Z</time>
      </trkpt>
      <trkpt lat="49.01" lon="0.05704">
        <ele>156.84</ele>
        <time>2021-08-08T15:10:51Z</time>
      </trkpt>
      <trkpt lat="49.00999" lon="0.05703">
        <ele>157.04</ele>
        <time>2021-08-08T15:10:52Z</time>
      </trkpt>
      <trkpt lat="49.00997" lon="0.05703">
        <ele>157.25</ele>
        <time>2021-08-08T15:10:53Z</time>
      </trkpt>
      <trkpt lat="49.00995" lon="0.05703">
        <ele>157.37</ele>
        <time>2021-08-08T15:10:54Z</time>
      </trkpt>
      <trkpt lat="49.00993" lon="0.05703">
        <ele>157.52</ele>
        <time>2021-08-08T15:10:55Z</time>
      </trkpt>
      <trkpt lat="49.0099" lon="0.05704">
        <ele>157.64</ele>
        <time>2021-08-08T15:10:56Z</time>
      </trkpt>
      <trkpt lat="49.00988" lon="0.05704">
        <ele>157.82</ele>
        <time>2021-08-08T15:10:57Z</time>
      </trkpt>
      <trkpt lat="49.00985" lon="0.05704">
        <ele>157.94</ele>
        <time>2021-08-08T15:10:58Z</time>
      </trkpt>
      <trkpt lat="49.00983" lon="0.05703">
        <ele>158.18</ele>
        <time>2021-08-08T15:10:59Z</time>
      </trkpt>
      <trkpt lat="49.0098" lon="0.05703">
        <ele>158.47</ele>
        <time>2021-08-08T15:11:00Z</time>
      </trkpt>
      <trkpt lat="49.00977" lon="0.05702">
        <ele>158.71</ele>
        <time>2021-08-08T15:11:01Z</time>
      </trkpt>
      <trkpt lat="49.00975" lon="0.05701">
        <ele>158.98</ele>
        <time>2021-08-08T15:11:02Z</time>
      </trkpt>
      <trkpt lat="49.00972" lon="0.05701">
        <ele>159.25</ele>
        <time>2021-08-08T15:11:03Z</time>
      </trkpt>
      <trkpt lat="49.00969" lon="0.057">
        <ele>159.51</ele>
        <time>2021-08-08T15:11:04Z</time>
      </trkpt>
      <trkpt lat="49.00965" lon="0.05701">
        <ele>159.78</ele>
        <time>2021-08-08T15:11:05Z</time>
      </trkpt>
      <trkpt lat="49.00962" lon="0.05701">
        <ele>160.04</ele>
        <time>2021-08-08T15:11:06Z</time>
      </trkpt>
      <trkpt lat="49.00958" lon="0.05701">
        <ele>160.29</ele>
        <time>2021-08-08T15:11:07Z</time>
      </trkpt>
      <trkpt lat="49.00955" lon="0.05702">
        <ele>160.52</ele>
        <time>2021-08-08T15:11:08Z</time>
      </trkpt>
      <trkpt lat="49.00951" lon="0.05703">
        <ele>160.75</ele>
        <time>2021-08-08T15:11:09Z</time>
      </trkpt>
      <trkpt lat="49.00948" lon="0.05703">
        <ele>161</ele>
        <time>2021-08-08T15:11:10Z</time>
      </trkpt>
      <trkpt lat="49.00944" lon="0.05703">
        <ele>161.26</ele>
        <time>2021-08-08T15:11:11Z</time>
      </trkpt>
      <trkpt lat="49.00941" lon="0.05703">
        <ele>161.53</ele>
        <time>2021-08-08T15:11:12Z</time>
      </trkpt>
      <trkpt lat="49.00937" lon="0.05703">
        <ele>161.83</ele>
        <time>2021-08-08T15:11:13Z</time>
      </trkpt>
      <trkpt lat="49.00934" lon="0.05703">
        <ele>162.13</ele>
        <time>2021-08-08T15:11:14Z</time>
      </trkpt>
      <trkpt lat="49.0093" lon="0.05703">
        <ele>162.44</ele>
        <time>2021-08-08T15:11:15Z</time>
      </trkpt>
      <trkpt lat="49.00926" lon="0.05705">
        <ele>162.71</ele>
        <time>2021-08-08T15:11:16Z</time>
      </trkpt>
      <trkpt lat="49.00922" lon="0.05706">
        <ele>162.98</ele>
        <time>2021-08-08T15:11:17Z</time>
      </trkpt>
      <trkpt lat="49.00919" lon="0.05707">
        <ele>163.25</ele>
        <time>2021-08-08T15:11:18Z</time>
      </trkpt>
      <trkpt lat="49.00915" lon="0.05708">
        <ele>163.5</ele>
        <time>2021-08-08T15:11:19Z</time>
      </trkpt>
      <trkpt lat="49.00911" lon="0.0571">
        <ele>163.69</ele>
        <time>2021-08-08T15:11:20Z</time>
      </trkpt>
      <trkpt lat="49.00907" lon="0.05711">
        <ele>163.87</ele>
        <time>2021-08-08T15:11:21Z</time>
      </trkpt>
      <trkpt lat="49.00904" lon="0.05712">
        <ele>164.05</ele>
        <time>2021-08-08T15:11:22Z</time>
      </trkpt>
      <trkpt lat="49.00901" lon="0.05714">
        <ele>164.21</ele>
        <time>2021-08-08T15:11:23Z</time>
      </trkpt>
      <trkpt lat="49.00897" lon="0.05715">
        <ele>164.4</ele>
        <time>2021-08-08T15:11:24Z</time>
      </trkpt>
      <trkpt lat="49.00894" lon="0.05715">
        <ele>164.6</ele>
        <time>2021-08-08T15:11:25Z</time>
      </trkpt>
      <trkpt lat="49.0089" lon="0.05716">
        <ele>164.82</ele>
        <time>2021-08-08T15:11:26Z</time>
      </trkpt>
      <trkpt lat="49.00887" lon="0.05717">
        <ele>165.04</ele>
        <time>2021-08-08T15:11:27Z</time>
      </trkpt>
      <trkpt lat="49.00884" lon="0.05718">
        <ele>165.28</ele>
        <time>2021-08-08T15:11:28Z</time>
      </trkpt>
      <trkpt lat="49.0088" lon="0.05717">
        <ele>165.51</ele>
        <time>2021-08-08T15:11:29Z</time>
      </trkpt>
      <trkpt lat="49.00877" lon="0.05718">
        <ele>165.76</ele>
        <time>2021-08-08T15:11:30Z</time>
      </trkpt>
      <trkpt lat="49.00873" lon="0.05719">
        <ele>166</ele>
        <time>2021-08-08T15:11:31Z</time>
      </trkpt>
      <trkpt lat="49.0087" lon="0.0572">
        <ele>166.25</ele>
        <time>2021-08-08T15:11:32Z</time>
      </trkpt>
      <trkpt lat="49.00867" lon="0.0572">
        <ele>166.5</ele>
        <time>2021-08-08T15:11:33Z</time>
      </trkpt>
      <trkpt lat="49.00863" lon="0.05721">
        <ele>166.73</ele>
        <time>2021-08-08T15:11:34Z</time>
      </trkpt>
      <trkpt lat="49.0086" lon="0.0572">
        <ele>166.94</ele>
        <time>2021-08-08T15:11:35Z</time>
      </trkpt>
      <trkpt lat="49.00857" lon="0.0572">
        <ele>167.09</ele>
        <time>2021-08-08T15:11:36Z</time>
      </trkpt>
      <trkpt lat="49.00854" lon="0.0572">
        <ele>167.21</ele>
        <time>2021-08-08T15:11:37Z</time>
      </trkpt>
      <trkpt lat="49.0085" lon="0.05719">
        <ele>167.33</ele>
        <time>2021-08-08T15:11:38Z</time>
      </trkpt>
      <trkpt lat="49.00847" lon="0.05718">
        <ele>167.46</ele>
        <time>2021-08-08T15:11:39Z</time>
      </trkpt>
      <trkpt lat="49.00843" lon="0.05716">
        <ele>167.6</ele>
        <time>2021-08-08T15:11:40Z</time>
      </trkpt>
      <trkpt lat="49.00839" lon="0.05716">
        <ele>167.73</ele>
        <time>2021-08-08T15:11:41Z</time>
      </trkpt>
      <trkpt lat="49.00835" lon="0.05715">
        <ele>167.87</ele>
        <time>2021-08-08T15:11:42Z</time>
      </trkpt>
      <trkpt lat="49.00831" lon="0.05715">
        <ele>168.01</ele>
        <time>2021-08-08T15:11:43Z</time>
      </trkpt>
      <trkpt lat="49.00827" lon="0.05715">
        <ele>168.16</ele>
        <time>2021-08-08T15:11:44Z</time>
      </trkpt>
      <trkpt lat="49.00823" lon="0.05716">
        <ele>168.32</ele>
        <time>2021-08-08T15:11:45Z</time>
      </trkpt>
      <trkpt lat="49.00818" lon="0.05716">
        <ele>168.48</ele>
        <time>2021-08-08T15:11:46Z</time>
      </trkpt>
      <trkpt lat="49.00813" lon="0.05716">
        <ele>168.65</ele>
        <time>2021-08-08T15:11:47Z</time>
      </trkpt>
      <trkpt lat="49.00809" lon="0.05717">
        <ele>168.82</ele>
        <time>2021-08-08T15:11:48Z</time>
      </trkpt>
      <trkpt lat="49.00804" lon="0.05718">
        <ele>168.99</ele>
        <time>2021-08-08T15:11:49Z</time>
      </trkpt>
      <trkpt lat="49.00799" lon="0.05719">
        <ele>169.15</ele>
        <time>2021-08-08T15:11:50Z</time>
      </trkpt>
      <trkpt lat="49.00794" lon="0.0572">
        <ele>169.33</ele>
        <time>2021-08-08T15:11:51Z</time>
      </trkpt>
      <trkpt lat="49.00789" lon="0.05721">
        <ele>169.51</ele>
        <time>2021-08-08T15:11:52Z</time>
      </trkpt>
      <trkpt lat="49.00784" lon="0.05723">
        <ele>169.69</ele>
        <time>2021-08-08T15:11:53Z</time>
      </trkpt>
      <trkpt lat="49.0078" lon="0.05723">
        <ele>169.85</ele>
        <time>2021-08-08T15:11:54Z</time>
      </trkpt>
      <trkpt lat="49.00776" lon="0.05723">
        <ele>169.96</ele>
        <time>2021-08-08T15:11:55Z</time>
      </trkpt>
      <trkpt lat="49.00771" lon="0.05725">
        <ele>169.99</ele>
        <time>2021-08-08T15:11:56Z</time>
      </trkpt>
      <trkpt lat="49.00767" lon="0.05727">
        <ele>170</ele>
        <time>2021-08-08T15:11:57Z</time>
      </trkpt>
      <trkpt lat="49.00763" lon="0.05728">
        <ele>170</ele>
        <time>2021-08-08T15:11:58Z</time>
      </trkpt>
      <trkpt lat="49.00758" lon="0.05729">
        <ele>170</ele>
        <time>2021-08-08T15:11:59Z</time>
      </trkpt>
      <trkpt lat="49.00753" lon="0.05731">
        <ele>170</ele>
        <time>2021-08-08T15:12:00Z</time>
      </trkpt>
      <trkpt lat="49.00748" lon="0.05733">
        <ele>170.04</ele>
        <time>2021-08-08T15:12:01Z</time>
      </trkpt>
      <trkpt lat="49.00744" lon="0.05734">
        <ele>170.16</ele>
        <time>2021-08-08T15:12:02Z</time>
      </trkpt>
      <trkpt lat="49.0074" lon="0.05736">
        <ele>170.29</ele>
        <time>2021-08-08T15:12:03Z</time>
      </trkpt>
      <trkpt lat="49.00736" lon="0.05737">
        <ele>170.44</ele>
        <time>2021-08-08T15:12:04Z</time>
      </trkpt>
      <trkpt lat="49.00731" lon="0.05738">
        <ele>170.61</ele>
        <time>2021-08-08T15:12:05Z</time>
      </trkpt>
      <trkpt lat="49.00726" lon="0.05739">
        <ele>170.79</ele>
        <time>2021-08-08T15:12:06Z</time>
      </trkpt>
      <trkpt lat="49.00721" lon="0.05741">
        <ele>170.94</ele>
        <time>2021-08-08T15:12:07Z</time>
      </trkpt>
      <trkpt lat="49.00715" lon="0.05742">
        <ele>170.98</ele>
        <time>2021-08-08T15:12:08Z</time>
      </trkpt>
      <trkpt lat="49.00709" lon="0.05742">
        <ele>170.99</ele>
        <time>2021-08-08T15:12:09Z</time>
      </trkpt>
      <trkpt lat="49.00704" lon="0.05743">
        <ele>171</ele>
        <time>2021-08-08T15:12:10Z</time>
      </trkpt>
      <trkpt lat="49.00698" lon="0.05745">
        <ele>171</ele>
        <time>2021-08-08T15:12:11Z</time>
      </trkpt>
      <trkpt lat="49.00693" lon="0.05746">
        <ele>171</ele>
        <time>2021-08-08T15:12:12Z</time>
      </trkpt>
      <trkpt lat="49.00688" lon="0.05747">
        <ele>171</ele>
        <time>2021-08-08T15:12:13Z</time>
      </trkpt>
      <trkpt lat="49.00682" lon="0.05748">
        <ele>171</ele>
        <time>2021-08-08T15:12:14Z</time>
      </trkpt>
      <trkpt lat="49.00676" lon="0.05749">
        <ele>171</ele>
        <time>2021-08-08T15:12:15Z</time>
      </trkpt>
      <trkpt lat="49.00671" lon="0.05749">
        <ele>171</ele>
        <time>2021-08-08T15:12:16Z</time>
      </trkpt>
      <trkpt lat="49.00666" lon="0.0575">
        <ele>171</ele>
        <time>2021-08-08T15:12:17Z</time>
      </trkpt>
      <trkpt lat="49.0066" lon="0.05751">
        <ele>171</ele>
        <time>2021-08-08T15:12:18Z</time>
      </trkpt>
      <trkpt lat="49.00655" lon="0.05752">
        <ele>171</ele>
        <time>2021-08-08T15:12:19Z</time>
      </trkpt>
      <trkpt lat="49.00649" lon="0.05753">
        <ele>171</ele>
        <time>2021-08-08T15:12:20Z</time>
      </trkpt>
      <trkpt lat="49.00644" lon="0.05753">
        <ele>171</ele>
        <time>2021-08-08T15:12:21Z</time>
      </trkpt>
      <trkpt lat="49.00639" lon="0.05754">
        <ele>171</ele>
        <time>2021-08-08T15:12:22Z</time>
      </trkpt>
      <trkpt lat="49.00633" lon="0.05755">
        <ele>171</ele>
        <time>2021-08-08T15:12:23Z</time>
      </trkpt>
      <trkpt lat="49.00627" lon="0.05756">
        <ele>171</ele>
        <time>2021-08-08T15:12:24Z</time>
      </trkpt>
      <trkpt lat="49.00622" lon="0.05757">
        <ele>171</ele>
        <time>2021-08-08T15:12:25Z</time>
      </trkpt>
      <trkpt lat="49.00616" lon="0.05758">
        <ele>171</ele>
        <time>2021-08-08T15:12:26Z</time>
      </trkpt>
      <trkpt lat="49.00609" lon="0.05759">
        <ele>171</ele>
        <time>2021-08-08T15:12:27Z</time>
      </trkpt>
      <trkpt lat="49.00603" lon="0.0576">
        <ele>171</ele>
        <time>2021-08-08T15:12:28Z</time>
      </trkpt>
      <trkpt lat="49.00598" lon="0.05761">
        <ele>171</ele>
        <time>2021-08-08T15:12:29Z</time>
      </trkpt>
      <trkpt lat="49.00592" lon="0.05762">
        <ele>171</ele>
        <time>2021-08-08T15:12:30Z</time>
      </trkpt>
      <trkpt lat="49.00587" lon="0.05762">
        <ele>171</ele>
        <time>2021-08-08T15:12:31Z</time>
      </trkpt>
      <trkpt lat="49.00581" lon="0.05762">
        <ele>171.03</ele>
        <time>2021-08-08T15:12:32Z</time>
      </trkpt>
      <trkpt lat="49.00576" lon="0.05762">
        <ele>171.12</ele>
        <time>2021-08-08T15:12:33Z</time>
      </trkpt>
      <trkpt lat="49.0057" lon="0.05763">
        <ele>171.21</ele>
        <time>2021-08-08T15:12:34Z</time>
      </trkpt>
      <trkpt lat="49.00565" lon="0.05763">
        <ele>171.31</ele>
        <time>2021-08-08T15:12:35Z</time>
      </trkpt>
      <trkpt lat="49.00559" lon="0.05765">
        <ele>171.38</ele>
        <time>2021-08-08T15:12:36Z</time>
      </trkpt>
      <trkpt lat="49.00552" lon="0.05766">
        <ele>171.47</ele>
        <time>2021-08-08T15:12:37Z</time>
      </trkpt>
      <trkpt lat="49.00546" lon="0.05767">
        <ele>171.56</ele>
        <time>2021-08-08T15:12:38Z</time>
      </trkpt>
      <trkpt lat="49.00541" lon="0.05768">
        <ele>171.66</ele>
        <time>2021-08-08T15:12:39Z</time>
      </trkpt>
      <trkpt lat="49.00535" lon="0.05769">
        <ele>171.76</ele>
        <time>2021-08-08T15:12:40Z</time>
      </trkpt>
      <trkpt lat="49.0053" lon="0.0577">
        <ele>171.89</ele>
        <time>2021-08-08T15:12:41Z</time>
      </trkpt>
      <trkpt lat="49.00523" lon="0.0577">
        <ele>171.97</ele>
        <time>2021-08-08T15:12:42Z</time>
      </trkpt>
      <trkpt lat="49.00516" lon="0.05771">
        <ele>171.99</ele>
        <time>2021-08-08T15:12:43Z</time>
      </trkpt>
      <trkpt lat="49.0051" lon="0.05772">
        <ele>172</ele>
        <time>2021-08-08T15:12:44Z</time>
      </trkpt>
      <trkpt lat="49.00503" lon="0.05772">
        <ele>172</ele>
        <time>2021-08-08T15:12:45Z</time>
      </trkpt>
      <trkpt lat="49.00496" lon="0.05772">
        <ele>172</ele>
        <time>2021-08-08T15:12:46Z</time>
      </trkpt>
      <trkpt lat="49.00491" lon="0.05774">
        <ele>172</ele>
        <time>2021-08-08T15:12:47Z</time>
      </trkpt>
      <trkpt lat="49.00486" lon="0.05775">
        <ele>172</ele>
        <time>2021-08-08T15:12:48Z</time>
      </trkpt>
      <trkpt lat="49.00481" lon="0.05776">
        <ele>172</ele>
        <time>2021-08-08T15:12:49Z</time>
      </trkpt>
      <trkpt lat="49.00476" lon="0.05777">
        <ele>172</ele>
        <time>2021-08-08T15:12:50Z</time>
      </trkpt>
      <trkpt lat="49.00471" lon="0.05779">
        <ele>172</ele>
        <time>2021-08-08T15:12:51Z</time>
      </trkpt>
      <trkpt lat="49.00466" lon="0.05781">
        <ele>172</ele>
        <time>2021-08-08T15:12:52Z</time>
      </trkpt>
      <trkpt lat="49.0046" lon="0.05782">
        <ele>172</ele>
        <time>2021-08-08T15:12:53Z</time>
      </trkpt>
      <trkpt lat="49.00455" lon="0.05782">
        <ele>172</ele>
        <time>2021-08-08T15:12:54Z</time>
      </trkpt>
      <trkpt lat="49.0045" lon="0.05782">
        <ele>172</ele>
        <time>2021-08-08T15:12:55Z</time>
      </trkpt>
      <trkpt lat="49.00445" lon="0.05783">
        <ele>172</ele>
        <time>2021-08-08T15:12:56Z</time>
      </trkpt>
      <trkpt lat="49.0044" lon="0.05783">
        <ele>172</ele>
        <time>2021-08-08T15:12:57Z</time>
      </trkpt>
      <trkpt lat="49.00435" lon="0.05783">
        <ele>172</ele>
        <time>2021-08-08T15:12:58Z</time>
      </trkpt>
      <trkpt lat="49.0043" lon="0.05783">
        <ele>172</ele>
        <time>2021-08-08T15:12:59Z</time>
      </trkpt>
      <trkpt lat="49.00425" lon="0.05785">
        <ele>172</ele>
        <time>2021-08-08T15:13:00Z</time>
      </trkpt>
      <trkpt lat="49.0042" lon="0.05789">
        <ele>172</ele>
        <time>2021-08-08T15:13:01Z</time>
      </trkpt>
      <trkpt lat="49.00416" lon="0.05793">
        <ele>172</ele>
        <time>2021-08-08T15:13:02Z</time>
      </trkpt>
      <trkpt lat="49.00415" lon="0.05799">
        <ele>172</ele>
        <time>2021-08-08T15:13:03Z</time>
      </trkpt>
      <trkpt lat="49.00415" lon="0.05805">
        <ele>172</ele>
        <time>2021-08-08T15:13:04Z</time>
      </trkpt>
      <trkpt lat="49.00416" lon="0.0581">
        <ele>171.88</ele>
        <time>2021-08-08T15:13:05Z</time>
      </trkpt>
      <trkpt lat="49.00416" lon="0.05816">
        <ele>171.7</ele>
        <time>2021-08-08T15:13:06Z</time>
      </trkpt>
      <trkpt lat="49.00417" lon="0.05821">
        <ele>171.53</ele>
        <time>2021-08-08T15:13:07Z</time>
      </trkpt>
      <trkpt lat="49.00417" lon="0.05824">
        <ele>171.4</ele>
        <time>2021-08-08T15:13:08Z</time>
      </trkpt>
      <trkpt lat="49.00418" lon="0.05825">
        <ele>171.32</ele>
        <time>2021-08-08T15:13:09Z</time>
      </trkpt>
      <trkpt lat="49.00418" lon="0.05825">
        <ele>171.3</ele>
        <time>2021-08-08T15:13:10Z</time>
      </trkpt>
      <trkpt lat="49.00418" lon="0.05825">
        <ele>171.31</ele>
        <time>2021-08-08T15:13:11Z</time>
      </trkpt>
      <trkpt lat="49.00418" lon="0.05825">
        <ele>171.31</ele>
        <time>2021-08-08T15:13:12Z</time>
      </trkpt>
      <trkpt lat="49.00418" lon="0.05825">
        <ele>171.31</ele>
        <time>2021-08-08T15:13:13Z</time>
      </trkpt>
      <trkpt lat="49.00418" lon="0.05825">
        <ele>171.31</ele>
        <time>2021-08-08T15:13:14Z</time>
      </trkpt>
      <trkpt lat="49.00418" lon="0.05825">
        <ele>171.31</ele>
        <time>2021-08-08T15:13:15Z</time>
      </trkpt>
      <trkpt lat="49.00418" lon="0.05825">
        <ele>171.31</ele>
        <time>2021-08-08T15:13:16Z</time>
      </trkpt>
      <trkpt lat="49.00418" lon="0.05825">
        <ele>171.31</ele>
        <time>2021-08-08T15:13:17Z</time>
      </trkpt>
      <trkpt lat="49.00418" lon="0.05825">
        <ele>171.31</ele>
        <time>2021-08-08T15:13:18Z</time>
      </trkpt>
      <trkpt lat="49.00418" lon="0.05825">
        <ele>171.31</ele>
        <time>2021-08-08T15:13:19Z</time>
      </trkpt>
      <trkpt lat="49.00418" lon="0.05825">
        <ele>171.31</ele>
        <time>2021-08-08T15:13:20Z</time>
      </trkpt>
      <trkpt lat="49.00418" lon="0.05825">
        <ele>171.31</ele>
        <time>2021-08-08T15:13:21Z</time>
      </trkpt>
      <trkpt lat="49.00418" lon="0.05825">
        <ele>171.31</ele>
        <time>2021-08-08T15:13:22Z</time>
      </trkpt>
      <trkpt lat="49.00418" lon="0.05825">
        <ele>171.31</ele>
        <time>2021-08-08T15:13:23Z</time>
      </trkpt>
      <trkpt lat="49.00418" lon="0.05825">
        <ele>171.31</ele>
        <time>2021-08-08T15:13:24Z</time>
      </trkpt>
      <trkpt lat="49.00418" lon="0.05825">
        <ele>171.31</ele>
        <time>2021-08-08T15:13:25Z</time>
      </trkpt>
      <trkpt lat="49.00418" lon="0.05825">
        <ele>171.31</ele>
        <time>2021-08-08T15:13:26Z</time>
      </trkpt>
      <trkpt lat="49.00418" lon="0.05825">
        <ele>171.31</ele>
        <time>2021-08-08T15:13:27Z</time>
      </trkpt>
      <trkpt lat="49.00418" lon="0.05825">
        <ele>171.31</ele>
        <time>2021-08-08T15:13:28Z</time>
      </trkpt>
      <trkpt lat="49.00418" lon="0.05825">
        <ele>171.31</ele>
        <time>2021-08-08T15:13:29Z</time>
      </trkpt>
      <trkpt lat="49.00418" lon="0.05825">
        <ele>171.31</ele>
        <time>2021-08-08T15:13:30Z</time>
      </trkpt>
      <trkpt lat="49.00418" lon="0.05825">
        <ele>171.31</ele>
        <time>2021-08-08T15:13:31Z</time>
      </trkpt>
      <trkpt lat="49.00418" lon="0.05825">
        <ele>171.31</ele>
        <time>2021-08-08T15:13:32Z</time>
      </trkpt>
      <trkpt lat="49.00418" lon="0.05825">
        <ele>171.31</ele>
        <time>2021-08-08T15:13:33Z</time>
      </trkpt>
      <trkpt lat="49.00418" lon="0.05825">
        <ele>171.31</ele>
        <time>2021-08-08T15:13:34Z</time>
      </trkpt>
      <trkpt lat="49.00418" lon="0.05825">
        <ele>171.31</ele>
        <time>2021-08-08T15:13:35Z</time>
      </trkpt>
      <trkpt lat="49.00418" lon="0.05825">
        <ele>171.31</ele>
        <time>2021-08-08T15:13:36Z</time>
      </trkpt>
      <trkpt lat="49.00418" lon="0.05825">
        <ele>171.31</ele>
        <time>2021-08-08T15:13:37Z</time>
      </trkpt>
      <trkpt lat="49.00418" lon="0.05825">
        <ele>171.31</ele>
        <time>2021-08-08T15:13:38Z</time>
      </trkpt>
      <trkpt lat="49.00418" lon="0.05825">
        <ele>171.31</ele>
        <time>2021-08-08T15:13:39Z</time>
      </trkpt>
      <trkpt lat="49.00418" lon="0.05825">
        <ele>171.31</ele>
        <time>2021-08-08T15:13:40Z</time>
      </trkpt>
      <trkpt lat="49.00418" lon="0.05825">
        <ele>171.31</ele>
        <time>2021-08-08T15:13:41Z</time>
      </trkpt>
      <trkpt lat="49.00418" lon="0.05825">
        <ele>171.31</ele>
        <time>2021-08-08T15:13:42Z</time>
      </trkpt>
      <trkpt lat="49.00418" lon="0.05825">
        <ele>171.31</ele>
        <time>2021-08-08T15:13:43Z</time>
      </trkpt>
      <trkpt lat="49.00418" lon="0.05825">
        <ele>171.31</ele>
        <time>2021-08-08T15:13:44Z</time>
      </trkpt>
      <trkpt lat="49.00418" lon="0.05825">
        <ele>171.31</ele>
        <time>2021-08-08T15:13:45Z</time>
      </trkpt>
      <trkpt lat="49.00418" lon="0.05825">
        <ele>171.31</ele>
        <time>2021-08-08T15:13:46Z</time>
      </trkpt>
      <trkpt lat="49.00418" lon="0.05825">
        <ele>171.31</ele>
        <time>2021-08-08T15:13:47Z</time>
      </trkpt>
      <trkpt lat="49.00418" lon="0.05825">
        <ele>171.31</ele>
        <time>2021-08-08T15:13:48Z</time>
      </trkpt>
      <trkpt lat="49.00418" lon="0.05825">
        <ele>171.31</ele>
        <time>2021-08-08T15:13:49Z</time>
      </trkpt>
      <trkpt lat="49.00418" lon="0.05825">
        <ele>171.31</ele>
        <time>2021-08-08T15:13:50Z</time>
      </trkpt>
      <trkpt lat="49.00418" lon="0.05825">
        <ele>171.31</ele>
        <time>2021-08-08T15:13:51Z</time>
      </trkpt>
      <trkpt lat="49.00418" lon="0.05825">
        <ele>171.31</ele>
        <time>2021-08-08T15:13:52Z</time>
      </trkpt>
      <trkpt lat="49.00418" lon="0.05825">
        <ele>171.31</ele>
        <time>2021-08-08T15:13:53Z</time>
      </trkpt>
      <trkpt lat="49.00418" lon="0.05825">
        <ele>171.31</ele>
        <time>2021-08-08T15:13:54Z</time>
      </trkpt>
      <trkpt lat="49.00418" lon="0.05825">
        <ele>171.31</ele>
        <time>2021-08-08T15:13:55Z</time>
      </trkpt>
      <trkpt lat="49.00418" lon="0.05825">
        <ele>171.31</ele>
        <time>2021-08-08T15:13:56Z</time>
      </trkpt>
      <trkpt lat="49.00418" lon="0.05825">
        <ele>171.31</ele>
        <time>2021-08-08T15:13:57Z</time>
      </trkpt>
      <trkpt lat="49.00418" lon="0.05825">
        <ele>171.31</ele>
        <time>2021-08-08T15:13:58Z</time>
      </trkpt>
      <trkpt lat="49.00418" lon="0.05825">
        <ele>171.31</ele>
        <time>2021-08-08T15:13:59Z</time>
      </trkpt>
      <trkpt lat="49.00418" lon="0.05825">
        <ele>171.31</ele>
        <time>2021-08-08T15:14:00Z</time>
      </trkpt>
      <trkpt lat="49.00418" lon="0.05825">
        <ele>171.31</ele>
        <time>2021-08-08T15:14:01Z</time>
      </trkpt>
      <trkpt lat="49.00418" lon="0.05825">
        <ele>171.31</ele>
        <time>2021-08-08T15:14:02Z</time>
      </trkpt>
      <trkpt lat="49.00418" lon="0.05825">
        <ele>171.31</ele>
        <time>2021-08-08T15:14:03Z</time>
      </trkpt>
      <trkpt lat="49.00418" lon="0.05825">
        <ele>171.31</ele>
        <time>2021-08-08T15:14:04Z</time>
      </trkpt>
      <trkpt lat="49.00418" lon="0.05825">
        <ele>171.31</ele>
        <time>2021-08-08T15:14:05Z</time>
      </trkpt>
      <trkpt lat="49.00418" lon="0.05825">
        <ele>171.31</ele>
        <time>2021-08-08T15:14:06Z</time>
      </trkpt>
      <trkpt lat="49.00418" lon="0.05825">
        <ele>171.31</ele>
        <time>2021-08-08T15:14:07Z</time>
      </trkpt>
      <trkpt lat="49.00418" lon="0.05825">
        <ele>171.31</ele>
        <time>2021-08-08T15:14:08Z</time>
      </trkpt>
      <trkpt lat="49.00418" lon="0.05825">
        <ele>171.31</ele>
        <time>2021-08-08T15:14:09Z</time>
      </trkpt>
      <trkpt lat="49.00418" lon="0.05825">
        <ele>171.31</ele>
        <time>2021-08-08T15:14:10Z</time>
      </trkpt>
      <trkpt lat="49.00418" lon="0.05825">
        <ele>171.31</ele>
        <time>2021-08-08T15:14:11Z</time>
      </trkpt>
      <trkpt lat="49.00418" lon="0.05825">
        <ele>171.31</ele>
        <time>2021-08-08T15:14:12Z</time>
      </trkpt>
      <trkpt lat="49.00418" lon="0.05825">
        <ele>171.31</ele>
        <time>2021-08-08T15:14:13Z</time>
      </trkpt>
      <trkpt lat="49.00418" lon="0.05825">
        <ele>171.31</ele>
        <time>2021-08-08T15:14:14Z</time>
      </trkpt>
      <trkpt lat="49.00418" lon="0.05825">
        <ele>171.31</ele>
        <time>2021-08-08T15:14:15Z</time>
      </trkpt>
      <trkpt lat="49.00418" lon="0.05825">
        <ele>171.31</ele>
        <time>2021-08-08T15:14:16Z</time>
      </trkpt>
      <trkpt lat="49.00418" lon="0.05825">
        <ele>171.31</ele>
        <time>2021-08-08T15:14:17Z</time>
      </trkpt>
      <trkpt lat="49.00418" lon="0.05825">
        <ele>171.31</ele>
        <time>2021-08-08T15:14:18Z</time>
      </trkpt>
      <trkpt lat="49.00418" lon="0.05825">
        <ele>171.31</ele>
        <time>2021-08-08T15:14:19Z</time>
      </trkpt>
      <trkpt lat="49.00418" lon="0.05825">
        <ele>171.31</ele>
        <time>2021-08-08T15:14:20Z</time>
      </trkpt>
      <trkpt lat="49.00418" lon="0.05825">
        <ele>171.31</ele>
        <time>2021-08-08T15:14:21Z</time>
      </trkpt>
      <trkpt lat="49.00418" lon="0.05825">
        <ele>171.31</ele>
        <time>2021-08-08T15:14:22Z</time>
      </trkpt>
      <trkpt lat="49.00418" lon="0.05825">
        <ele>171.31</ele>
        <time>2021-08-08T15:14:23Z</time>
      </trkpt>
      <trkpt lat="49.00418" lon="0.05825">
        <ele>171.31</ele>
        <time>2021-08-08T15:14:24Z</time>
      </trkpt>
      <trkpt lat="49.00418" lon="0.05825">
        <ele>171.31</ele>
        <time>2021-08-08T15:14:25Z</time>
      </trkpt>
      <trkpt lat="49.00418" lon="0.05825">
        <ele>171.31</ele>
        <time>2021-08-08T15:14:26Z</time>
      </trkpt>
      <trkpt lat="49.00418" lon="0.05825">
        <ele>171.31</ele>
        <time>2021-08-08T15:14:27Z</time>
      </trkpt>
      <trkpt lat="49.00418" lon="0.05825">
        <ele>171.31</ele>
        <time>2021-08-08T15:14:28Z</time>
      </trkpt>
      <trkpt lat="49.00418" lon="0.05825">
        <ele>171.31</ele>
        <time>2021-08-08T15:14:29Z</time>
      </trkpt>
      <trkpt lat="49.00418" lon="0.05825">
        <ele>171.31</ele>
        <time>2021-08-08T15:14:30Z</time>
      </trkpt>
      <trkpt lat="49.00418" lon="0.05825">
        <ele>171.31</ele>
        <time>2021-08-08T15:14:31Z</time>
      </trkpt>
      <trkpt lat="49.00418" lon="0.05825">
        <ele>171.31</ele>
        <time>2021-08-08T15:14:32Z</time>
      </trkpt>
      <trkpt lat="49.00418" lon="0.05825">
        <ele>171.31</ele>
        <time>2021-08-08T15:14:33Z</time>
      </trkpt>
      <trkpt lat="49.00418" lon="0.05825">
        <ele>171.31</ele>
        <time>2021-08-08T15:14:34Z</time>
      </trkpt>
      <trkpt lat="49.00418" lon="0.05825">
        <ele>171.31</ele>
        <time>2021-08-08T15:14:35Z</time>
      </trkpt>
      <trkpt lat="49.00418" lon="0.05825">
        <ele>171.31</ele>
        <time>2021-08-08T15:14:36Z</time>
      </trkpt>
      <trkpt lat="49.00418" lon="0.05825">
        <ele>171.31</ele>
        <time>2021-08-08T15:14:37Z</time>
      </trkpt>
      <trkpt lat="49.00418" lon="0.05825">
        <ele>171.31</ele>
        <time>2021-08-08T15:14:38Z</time>
      </trkpt>
      <trkpt lat="49.00418" lon="0.05825">
        <ele>171.31</ele>
        <time>2021-08-08T15:14:39Z</time>
      </trkpt>
      <trkpt lat="49.00418" lon="0.05825">
        <ele>171.31</ele>
        <time>2021-08-08T15:14:40Z</time>
      </trkpt>
      <trkpt lat="49.00418" lon="0.05825">
        <ele>171.31</ele>
        <time>2021-08-08T15:14:41Z</time>
      </trkpt>
      <trkpt lat="49.00418" lon="0.05825">
        <ele>171.31</ele>
        <time>2021-08-08T15:14:42Z</time>
      </trkpt>
      <trkpt lat="49.00418" lon="0.05825">
        <ele>171.31</ele>
        <time>2021-08-08T15:14:43Z</time>
      </trkpt>
      <trkpt lat="49.00418" lon="0.05825">
        <ele>171.31</ele>
        <time>2021-08-08T15:14:44Z</time>
      </trkpt>
      <trkpt lat="49.00418" lon="0.05825">
        <ele>171.31</ele>
        <time>2021-08-08T15:14:45Z</time>
      </trkpt>
      <trkpt lat="49.00418" lon="0.05825">
        <ele>171.31</ele>
        <time>2021-08-08T15:14:46Z</time>
      </trkpt>
      <trkpt lat="49.00418" lon="0.05825">
        <ele>171.31</ele>
        <time>2021-08-08T15:14:47Z</time>
      </trkpt>
      <trkpt lat="49.00418" lon="0.05825">
        <ele>171.31</ele>
        <time>2021-08-08T15:14:48Z</time>
      </trkpt>
      <trkpt lat="49.00418" lon="0.05825">
        <ele>171.31</ele>
        <time>2021-08-08T15:14:49Z</time>
      </trkpt>
      <trkpt lat="49.00418" lon="0.05825">
        <ele>171.31</ele>
        <time>2021-08-08T15:14:50Z</time>
      </trkpt>
      <trkpt lat="49.00418" lon="0.05825">
        <ele>171.31</ele>
        <time>2021-08-08T15:14:51Z</time>
      </trkpt>
      <trkpt lat="49.00418" lon="0.05825">
        <ele>171.31</ele>
        <time>2021-08-08T15:14:52Z</time>
      </trkpt>
      <trkpt lat="49.00418" lon="0.05825">
        <ele>171.31</ele>
        <time>2021-08-08T15:14:53Z</time>
      </trkpt>
      <trkpt lat="49.00418" lon="0.05825">
        <ele>171.31</ele>
        <time>2021-08-08T15:14:54Z</time>
      </trkpt>
      <trkpt lat="49.00418" lon="0.05825">
        <ele>171.31</ele>
        <time>2021-08-08T15:14:55Z</time>
      </trkpt>
      <trkpt lat="49.00418" lon="0.05825">
        <ele>171.31</ele>
        <time>2021-08-08T15:14:56Z</time>
      </trkpt>
      <trkpt lat="49.00418" lon="0.05825">
        <ele>171.31</ele>
        <time>2021-08-08T15:14:57Z</time>
      </trkpt>
      <trkpt lat="49.00418" lon="0.05825">
        <ele>171.31</ele>
        <time>2021-08-08T15:14:58Z</time>
      </trkpt>
      <trkpt lat="49.00418" lon="0.05825">
        <ele>171.31</ele>
        <time>2021-08-08T15:14:59Z</time>
      </trkpt>
      <trkpt lat="49.00418" lon="0.05825">
        <ele>171.31</ele>
        <time>2021-08-08T15:15:00Z</time>
      </trkpt>
      <trkpt lat="49.00418" lon="0.05825">
        <ele>171.31</ele>
        <time>2021-08-08T15:15:01Z</time>
      </trkpt>
      <trkpt lat="49.00418" lon="0.05825">
        <ele>171.31</ele>
        <time>2021-08-08T15:15:02Z</time>
      </trkpt>
      <trkpt lat="49.00418" lon="0.05825">
        <ele>171.31</ele>
        <time>2021-08-08T15:15:03Z</time>
      </trkpt>
      <trkpt lat="49.00418" lon="0.05825">
        <ele>171.31</ele>
        <time>2021-08-08T15:15:04Z</time>
      </trkpt>
      <trkpt lat="49.00418" lon="0.05825">
        <ele>171.31</ele>
        <time>2021-08-08T15:15:05Z</time>
      </trkpt>
      <trkpt lat="49.00418" lon="0.05825">
        <ele>171.31</ele>
        <time>2021-08-08T15:15:06Z</time>
      </trkpt>
      <trkpt lat="49.00418" lon="0.05825">
        <ele>171.31</ele>
        <time>2021-08-08T15:15:07Z</time>
      </trkpt>
      <trkpt lat="49.00418" lon="0.05825">
        <ele>171.31</ele>
        <time>2021-08-08T15:15:08Z</time>
      </trkpt>
      <trkpt lat="49.00418" lon="0.05825">
        <ele>171.31</ele>
        <time>2021-08-08T15:15:09Z</time>
      </trkpt>
      <trkpt lat="49.00418" lon="0.05825">
        <ele>171.31</ele>
        <time>2021-08-08T15:15:10Z</time>
      </trkpt>
      <trkpt lat="49.00418" lon="0.05825">
        <ele>171.31</ele>
        <time>2021-08-08T15:15:11Z</time>
      </trkpt>
      <trkpt lat="49.00418" lon="0.05825">
        <ele>171.31</ele>
        <time>2021-08-08T15:15:12Z</time>
      </trkpt>
      <trkpt lat="49.00418" lon="0.05825">
        <ele>171.31</ele>
        <time>2021-08-08T15:15:13Z</time>
      </trkpt>
      <trkpt lat="49.00418" lon="0.05825">
        <ele>171.31</ele>
        <time>2021-08-08T15:15:14Z</time>
      </trkpt>
      <trkpt lat="49.00418" lon="0.05825">
        <ele>171.31</ele>
        <time>2021-08-08T15:15:15Z</time>
      </trkpt>
      <trkpt lat="49.00418" lon="0.05825">
        <ele>171.31</ele>
        <time>2021-08-08T15:15:16Z</time>
      </trkpt>
      <trkpt lat="49.00418" lon="0.05825">
        <ele>171.31</ele>
        <time>2021-08-08T15:15:17Z</time>
      </trkpt>
      <trkpt lat="49.00418" lon="0.05825">
        <ele>171.31</ele>
        <time>2021-08-08T15:15:18Z</time>
      </trkpt>
      <trkpt lat="49.00418" lon="0.05825">
        <ele>171.31</ele>
        <time>2021-08-08T15:15:19Z</time>
      </trkpt>
      <trkpt lat="49.00418" lon="0.05825">
        <ele>171.31</ele>
        <time>2021-08-08T15:15:20Z</time>
      </trkpt>
      <trkpt lat="49.00418" lon="0.05825">
        <ele>171.31</ele>
        <time>2021-08-08T15:15:21Z</time>
      </trkpt>
      <trkpt lat="49.00418" lon="0.05825">
        <ele>171.31</ele>
        <time>2021-08-08T15:15:22Z</time>
      </trkpt>
      <trkpt lat="49.00418" lon="0.05825">
        <ele>171.31</ele>
        <time>2021-08-08T15:15:23Z</time>
      </trkpt>
      <trkpt lat="49.00418" lon="0.05825">
        <ele>171.31</ele>
        <time>2021-08-08T15:15:24Z</time>
      </trkpt>
      <trkpt lat="49.00418" lon="0.05825">
        <ele>171.31</ele>
        <time>2021-08-08T15:15:25Z</time>
      </trkpt>
      <trkpt lat="49.00418" lon="0.05825">
        <ele>171.31</ele>
        <time>2021-08-08T15:15:26Z</time>
      </trkpt>
      <trkpt lat="49.00418" lon="0.05825">
        <ele>171.31</ele>
        <time>2021-08-08T15:15:27Z</time>
      </trkpt>
      <trkpt lat="49.00418" lon="0.05825">
        <ele>171.31</ele>
        <time>2021-08-08T15:15:28Z</time>
      </trkpt>
      <trkpt lat="49.00418" lon="0.05825">
        <ele>171.31</ele>
        <time>2021-08-08T15:15:29Z</time>
      </trkpt>
      <trkpt lat="49.00418" lon="0.05825">
        <ele>171.31</ele>
        <time>2021-08-08T15:15:30Z</time>
      </trkpt>
      <trkpt lat="49.00418" lon="0.05825">
        <ele>171.31</ele>
        <time>2021-08-08T15:15:31Z</time>
      </trkpt>
      <trkpt lat="49.00418" lon="0.05825">
        <ele>171.31</ele>
        <time>2021-08-08T15:15:32Z</time>
      </trkpt>
      <trkpt lat="49.00418" lon="0.05825">
        <ele>171.31</ele>
        <time>2021-08-08T15:15:33Z</time>
      </trkpt>
      <trkpt lat="49.00418" lon="0.05825">
        <ele>171.31</ele>
        <time>2021-08-08T15:15:34Z</time>
      </trkpt>
      <trkpt lat="49.00418" lon="0.05825">
        <ele>171.31</ele>
        <time>2021-08-08T15:15:35Z</time>
      </trkpt>
      <trkpt lat="49.00418" lon="0.05825">
        <ele>171.31</ele>
        <time>2021-08-08T15:15:36Z</time>
      </trkpt>
      <trkpt lat="49.00418" lon="0.05825">
        <ele>171.31</ele>
        <time>2021-08-08T15:15:37Z</time>
      </trkpt>
      <trkpt lat="49.00418" lon="0.05825">
        <ele>171.31</ele>
        <time>2021-08-08T15:15:38Z</time>
      </trkpt>
      <trkpt lat="49.00418" lon="0.05825">
        <ele>171.31</ele>
        <time>2021-08-08T15:15:39Z</time>
      </trkpt>
      <trkpt lat="49.00418" lon="0.05825">
        <ele>171.31</ele>
        <time>2021-08-08T15:15:40Z</time>
      </trkpt>
      <trkpt lat="49.00418" lon="0.05825">
        <ele>171.31</ele>
        <time>2021-08-08T15:15:41Z</time>
      </trkpt>
      <trkpt lat="49.00418" lon="0.05825">
        <ele>171.31</ele>
        <time>2021-08-08T15:15:42Z</time>
      </trkpt>
      <trkpt lat="49.00418" lon="0.05825">
        <ele>171.31</ele>
        <time>2021-08-08T15:15:43Z</time>
      </trkpt>
      <trkpt lat="49.00418" lon="0.05825">
        <ele>171.31</ele>
        <time>2021-08-08T15:15:44Z</time>
      </trkpt>
      <trkpt lat="49.00418" lon="0.05825">
        <ele>171.31</ele>
        <time>2021-08-08T15:15:45Z</time>
      </trkpt>
      <trkpt lat="49.00418" lon="0.05825">
        <ele>171.31</ele>
        <time>2021-08-08T15:15:46Z</time>
      </trkpt>
      <trkpt lat="49.00418" lon="0.05825">
        <ele>171.31</ele>
        <time>2021-08-08T15:15:47Z</time>
      </trkpt>
      <trkpt lat="49.00418" lon="0.05825">
        <ele>171.31</ele>
        <time>2021-08-08T15:15:48Z</time>
      </trkpt>
      <trkpt lat="49.00418" lon="0.05825">
        <ele>171.31</ele>
        <time>2021-08-08T15:15:49Z</time>
      </trkpt>
      <trkpt lat="49.00418" lon="0.05825">
        <ele>171.31</ele>
        <time>2021-08-08T15:15:50Z</time>
      </trkpt>
      <trkpt lat="49.00418" lon="0.05825">
        <ele>171.31</ele>
        <time>2021-08-08T15:15:51Z</time>
      </trkpt>
      <trkpt lat="49.00418" lon="0.05825">
        <ele>171.31</ele>
        <time>2021-08-08T15:15:52Z</time>
      </trkpt>
      <trkpt lat="49.00418" lon="0.05825">
        <ele>171.31</ele>
        <time>2021-08-08T15:15:53Z</time>
      </trkpt>
      <trkpt lat="49.00418" lon="0.05825">
        <ele>171.31</ele>
        <time>2021-08-08T15:15:54Z</time>
      </trkpt>
      <trkpt lat="49.00418" lon="0.05825">
        <ele>171.31</ele>
        <time>2021-08-08T15:15:55Z</time>
      </trkpt>
      <trkpt lat="49.00415" lon="0.05835">
        <ele>171.04</ele>
        <time>2021-08-08T15:15:56Z</time>
      </trkpt>
      <trkpt lat="49.00416" lon="0.05839">
        <ele>170.87</ele>
        <time>2021-08-08T15:15:57Z</time>
      </trkpt>
      <trkpt lat="49.00416" lon="0.05843">
        <ele>170.72</ele>
        <time>2021-08-08T15:15:58Z</time>
      </trkpt>
      <trkpt lat="49.00417" lon="0.05847">
        <ele>170.58</ele>
        <time>2021-08-08T15:15:59Z</time>
      </trkpt>
      <trkpt lat="49.00418" lon="0.0585">
        <ele>170.46</ele>
        <time>2021-08-08T15:16:00Z</time>
      </trkpt>
      <trkpt lat="49.00419" lon="0.05855">
        <ele>170.34</ele>
        <time>2021-08-08T15:16:01Z</time>
      </trkpt>
      <trkpt lat="49.0042" lon="0.05859">
        <ele>170.23</ele>
        <time>2021-08-08T15:16:02Z</time>
      </trkpt>
      <trkpt lat="49.0042" lon="0.05864">
        <ele>170.1</ele>
        <time>2021-08-08T15:16:03Z</time>
      </trkpt>
      <trkpt lat="49.00421" lon="0.05868">
        <ele>169.97</ele>
        <time>2021-08-08T15:16:04Z</time>
      </trkpt>
      <trkpt lat="49.00422" lon="0.05873">
        <ele>169.82</ele>
        <time>2021-08-08T15:16:05Z</time>
      </trkpt>
      <trkpt lat="49.00422" lon="0.05877">
        <ele>169.68</ele>
        <time>2021-08-08T15:16:06Z</time>
      </trkpt>
      <trkpt lat="49.00423" lon="0.05882">
        <ele>169.55</ele>
        <time>2021-08-08T15:16:07Z</time>
      </trkpt>
      <trkpt lat="49.00424" lon="0.05885">
        <ele>169.43</ele>
        <time>2021-08-08T15:16:08Z</time>
      </trkpt>
      <trkpt lat="49.00424" lon="0.05889">
        <ele>169.32</ele>
        <time>2021-08-08T15:16:09Z</time>
      </trkpt>
      <trkpt lat="49.00425" lon="0.05894">
        <ele>169.26</ele>
        <time>2021-08-08T15:16:10Z</time>
      </trkpt>
      <trkpt lat="49.00426" lon="0.05899">
        <ele>169.22</ele>
        <time>2021-08-08T15:16:11Z</time>
      </trkpt>
      <trkpt lat="49.00427" lon="0.05904">
        <ele>169.18</ele>
        <time>2021-08-08T15:16:12Z</time>
      </trkpt>
      <trkpt lat="49.00428" lon="0.0591">
        <ele>169.13</ele>
        <time>2021-08-08T15:16:13Z</time>
      </trkpt>
      <trkpt lat="49.00429" lon="0.05915">
        <ele>169.06</ele>
        <time>2021-08-08T15:16:14Z</time>
      </trkpt>
      <trkpt lat="49.00431" lon="0.05921">
        <ele>168.97</ele>
        <time>2021-08-08T15:16:15Z</time>
      </trkpt>
      <trkpt lat="49.00432" lon="0.05927">
        <ele>168.88</ele>
        <time>2021-08-08T15:16:16Z</time>
      </trkpt>
      <trkpt lat="49.00433" lon="0.05933">
        <ele>168.8</ele>
        <time>2021-08-08T15:16:17Z</time>
      </trkpt>
      <trkpt lat="49.00435" lon="0.05939">
        <ele>168.74</ele>
        <time>2021-08-08T15:16:18Z</time>
      </trkpt>
      <trkpt lat="49.00436" lon="0.05945">
        <ele>168.7</ele>
        <time>2021-08-08T15:16:19Z</time>
      </trkpt>
      <trkpt lat="49.00437" lon="0.0595">
        <ele>168.56</ele>
        <time>2021-08-08T15:16:20Z</time>
      </trkpt>
      <trkpt lat="49.00438" lon="0.05956">
        <ele>168.41</ele>
        <time>2021-08-08T15:16:21Z</time>
      </trkpt>
      <trkpt lat="49.00439" lon="0.05962">
        <ele>168.26</ele>
        <time>2021-08-08T15:16:22Z</time>
      </trkpt>
      <trkpt lat="49.00441" lon="0.05968">
        <ele>168.08</ele>
        <time>2021-08-08T15:16:23Z</time>
      </trkpt>
      <trkpt lat="49.00442" lon="0.05975">
        <ele>167.88</ele>
        <time>2021-08-08T15:16:24Z</time>
      </trkpt>
      <trkpt lat="49.00443" lon="0.05983">
        <ele>167.66</ele>
        <time>2021-08-08T15:16:25Z</time>
      </trkpt>
      <trkpt lat="49.00445" lon="0.05991">
        <ele>167.43</ele>
        <time>2021-08-08T15:16:26Z</time>
      </trkpt>
      <trkpt lat="49.00445" lon="0.05998">
        <ele>167.17</ele>
        <time>2021-08-08T15:16:27Z</time>
      </trkpt>
      <trkpt lat="49.00446" lon="0.06006">
        <ele>166.91</ele>
        <time>2021-08-08T15:16:28Z</time>
      </trkpt>
      <trkpt lat="49.00447" lon="0.06014">
        <ele>166.65</ele>
        <time>2021-08-08T15:16:29Z</time>
      </trkpt>
      <trkpt lat="49.00448" lon="0.06023">
        <ele>166.38</ele>
        <time>2021-08-08T15:16:30Z</time>
      </trkpt>
      <trkpt lat="49.00449" lon="0.06032">
        <ele>166.12</ele>
        <time>2021-08-08T15:16:31Z</time>
      </trkpt>
      <trkpt lat="49.00449" lon="0.0604">
        <ele>165.86</ele>
        <time>2021-08-08T15:16:32Z</time>
      </trkpt>
      <trkpt lat="49.00451" lon="0.06049">
        <ele>165.57</ele>
        <time>2021-08-08T15:16:33Z</time>
      </trkpt>
      <trkpt lat="49.00451" lon="0.06057">
        <ele>165.33</ele>
        <time>2021-08-08T15:16:34Z</time>
      </trkpt>
      <trkpt lat="49.00451" lon="0.06066">
        <ele>165.2</ele>
        <time>2021-08-08T15:16:35Z</time>
      </trkpt>
      <trkpt lat="49.00452" lon="0.06074">
        <ele>165.12</ele>
        <time>2021-08-08T15:16:36Z</time>
      </trkpt>
      <trkpt lat="49.00453" lon="0.06083">
        <ele>165.04</ele>
        <time>2021-08-08T15:16:37Z</time>
      </trkpt>
      <trkpt lat="49.00455" lon="0.06091">
        <ele>164.88</ele>
        <time>2021-08-08T15:16:38Z</time>
      </trkpt>
      <trkpt lat="49.00456" lon="0.061">
        <ele>164.72</ele>
        <time>2021-08-08T15:16:39Z</time>
      </trkpt>
      <trkpt lat="49.00457" lon="0.06109">
        <ele>164.56</ele>
        <time>2021-08-08T15:16:40Z</time>
      </trkpt>
      <trkpt lat="49.00459" lon="0.06118">
        <ele>164.45</ele>
        <time>2021-08-08T15:16:41Z</time>
      </trkpt>
      <trkpt lat="49.00461" lon="0.06127">
        <ele>164.31</ele>
        <time>2021-08-08T15:16:42Z</time>
      </trkpt>
      <trkpt lat="49.00462" lon="0.06137">
        <ele>164.13</ele>
        <time>2021-08-08T15:16:43Z</time>
      </trkpt>
      <trkpt lat="49.00464" lon="0.06146">
        <ele>163.87</ele>
        <time>2021-08-08T15:16:44Z</time>
      </trkpt>
      <trkpt lat="49.00465" lon="0.06153">
        <ele>163.59</ele>
        <time>2021-08-08T15:16:45Z</time>
      </trkpt>
      <trkpt lat="49.00468" lon="0.06163">
        <ele>163.28</ele>
        <time>2021-08-08T15:16:46Z</time>
      </trkpt>
      <trkpt lat="49.00469" lon="0.06172">
        <ele>162.95</ele>
        <time>2021-08-08T15:16:47Z</time>
      </trkpt>
      <trkpt lat="49.00472" lon="0.06182">
        <ele>162.6</ele>
        <time>2021-08-08T15:16:48Z</time>
      </trkpt>
      <trkpt lat="49.00474" lon="0.06191">
        <ele>162.22</ele>
        <time>2021-08-08T15:16:49Z</time>
      </trkpt>
      <trkpt lat="49.00476" lon="0.06201">
        <ele>161.81</ele>
        <time>2021-08-08T15:16:50Z</time>
      </trkpt>
      <trkpt lat="49.00476" lon="0.06209">
        <ele>161.46</ele>
        <time>2021-08-08T15:16:51Z</time>
      </trkpt>
      <trkpt lat="49.00474" lon="0.06219">
        <ele>161.2</ele>
        <time>2021-08-08T15:16:52Z</time>
      </trkpt>
      <trkpt lat="49.00469" lon="0.06228">
        <ele>160.98</ele>
        <time>2021-08-08T15:16:53Z</time>
      </trkpt>
      <trkpt lat="49.00467" lon="0.06232">
        <ele>160.84</ele>
        <time>2021-08-08T15:16:54Z</time>
      </trkpt>
      <trkpt lat="49.00465" lon="0.06234">
        <ele>160.75</ele>
        <time>2021-08-08T15:16:55Z</time>
      </trkpt>
      <trkpt lat="49.00464" lon="0.06236">
        <ele>160.67</ele>
        <time>2021-08-08T15:16:56Z</time>
      </trkpt>
      <trkpt lat="49.00461" lon="0.06238">
        <ele>160.63</ele>
        <time>2021-08-08T15:16:57Z</time>
      </trkpt>
      <trkpt lat="49.00458" lon="0.06239">
        <ele>160.61</ele>
        <time>2021-08-08T15:16:58Z</time>
      </trkpt>
      <trkpt lat="49.00456" lon="0.06241">
        <ele>160.55</ele>
        <time>2021-08-08T15:16:59Z</time>
      </trkpt>
      <trkpt lat="49.00454" lon="0.06243">
        <ele>160.46</ele>
        <time>2021-08-08T15:17:00Z</time>
      </trkpt>
      <trkpt lat="49.00452" lon="0.06245">
        <ele>160.36</ele>
        <time>2021-08-08T15:17:01Z</time>
      </trkpt>
      <trkpt lat="49.0045" lon="0.06248">
        <ele>160.2</ele>
        <time>2021-08-08T15:17:02Z</time>
      </trkpt>
      <trkpt lat="49.00449" lon="0.06251">
        <ele>160.03</ele>
        <time>2021-08-08T15:17:03Z</time>
      </trkpt>
      <trkpt lat="49.00447" lon="0.06254">
        <ele>159.91</ele>
        <time>2021-08-08T15:17:04Z</time>
      </trkpt>
      <trkpt lat="49.00445" lon="0.06257">
        <ele>159.8</ele>
        <time>2021-08-08T15:17:05Z</time>
      </trkpt>
      <trkpt lat="49.00442" lon="0.06259">
        <ele>159.71</ele>
        <time>2021-08-08T15:17:06Z</time>
      </trkpt>
      <trkpt lat="49.00439" lon="0.0626">
        <ele>159.66</ele>
        <time>2021-08-08T15:17:07Z</time>
      </trkpt>
      <trkpt lat="49.00435" lon="0.0626">
        <ele>159.64</ele>
        <time>2021-08-08T15:17:08Z</time>
      </trkpt>
      <trkpt lat="49.00431" lon="0.06259">
        <ele>159.67</ele>
        <time>2021-08-08T15:17:09Z</time>
      </trkpt>
      <trkpt lat="49.00428" lon="0.06258">
        <ele>159.69</ele>
        <time>2021-08-08T15:17:10Z</time>
      </trkpt>
      <trkpt lat="49.00425" lon="0.06257">
        <ele>159.73</ele>
        <time>2021-08-08T15:17:11Z</time>
      </trkpt>
      <trkpt lat="49.00421" lon="0.06256">
        <ele>159.77</ele>
        <time>2021-08-08T15:17:12Z</time>
      </trkpt>
      <trkpt lat="49.00417" lon="0.06254">
        <ele>159.82</ele>
        <time>2021-08-08T15:17:13Z</time>
      </trkpt>
      <trkpt lat="49.00413" lon="0.06252">
        <ele>159.81</ele>
        <time>2021-08-08T15:17:14Z</time>
      </trkpt>
      <trkpt lat="49.00409" lon="0.0625">
        <ele>159.76</ele>
        <time>2021-08-08T15:17:15Z</time>
      </trkpt>
      <trkpt lat="49.00405" lon="0.06248">
        <ele>159.7</ele>
        <time>2021-08-08T15:17:16Z</time>
      </trkpt>
      <trkpt lat="49.00401" lon="0.06247">
        <ele>159.63</ele>
        <time>2021-08-08T15:17:17Z</time>
      </trkpt>
      <trkpt lat="49.00396" lon="0.06245">
        <ele>159.58</ele>
        <time>2021-08-08T15:17:18Z</time>
      </trkpt>
      <trkpt lat="49.00392" lon="0.06244">
        <ele>159.55</ele>
        <time>2021-08-08T15:17:19Z</time>
      </trkpt>
      <trkpt lat="49.00388" lon="0.06241">
        <ele>159.56</ele>
        <time>2021-08-08T15:17:20Z</time>
      </trkpt>
      <trkpt lat="49.00384" lon="0.06238">
        <ele>159.53</ele>
        <time>2021-08-08T15:17:21Z</time>
      </trkpt>
      <trkpt lat="49.00381" lon="0.06235">
        <ele>159.52</ele>
        <time>2021-08-08T15:17:22Z</time>
      </trkpt>
      <trkpt lat="49.00377" lon="0.0623">
        <ele>159.54</ele>
        <time>2021-08-08T15:17:23Z</time>
      </trkpt>
      <trkpt lat="49.00373" lon="0.06226">
        <ele>159.58</ele>
        <time>2021-08-08T15:17:24Z</time>
      </trkpt>
      <trkpt lat="49.0037" lon="0.06221">
        <ele>159.67</ele>
        <time>2021-08-08T15:17:25Z</time>
      </trkpt>
      <trkpt lat="49.00365" lon="0.06216">
        <ele>159.7</ele>
        <time>2021-08-08T15:17:26Z</time>
      </trkpt>
      <trkpt lat="49.00359" lon="0.06214">
        <ele>159.58</ele>
        <time>2021-08-08T15:17:27Z</time>
      </trkpt>
      <trkpt lat="49.00355" lon="0.06212">
        <ele>159.5</ele>
        <time>2021-08-08T15:17:28Z</time>
      </trkpt>
      <trkpt lat="49.00349" lon="0.0621">
        <ele>159.35</ele>
        <time>2021-08-08T15:17:29Z</time>
      </trkpt>
      <trkpt lat="49.00345" lon="0.06208">
        <ele>159.21</ele>
        <time>2021-08-08T15:17:30Z</time>
      </trkpt>
      <trkpt lat="49.00341" lon="0.06204">
        <ele>159.13</ele>
        <time>2021-08-08T15:17:31Z</time>
      </trkpt>
      <trkpt lat="49.00336" lon="0.06201">
        <ele>159</ele>
        <time>2021-08-08T15:17:32Z</time>
      </trkpt>
      <trkpt lat="49.00331" lon="0.06197">
        <ele>158.86</ele>
        <time>2021-08-08T15:17:33Z</time>
      </trkpt>
      <trkpt lat="49.00326" lon="0.06193">
        <ele>158.82</ele>
        <time>2021-08-08T15:17:34Z</time>
      </trkpt>
      <trkpt lat="49.00321" lon="0.06188">
        <ele>158.88</ele>
        <time>2021-08-08T15:17:35Z</time>
      </trkpt>
      <trkpt lat="49.00317" lon="0.06184">
        <ele>158.92</ele>
        <time>2021-08-08T15:17:36Z</time>
      </trkpt>
      <trkpt lat="49.00313" lon="0.06182">
        <ele>158.88</ele>
        <time>2021-08-08T15:17:37Z</time>
      </trkpt>
      <trkpt lat="49.00308" lon="0.06179">
        <ele>158.76</ele>
        <time>2021-08-08T15:17:38Z</time>
      </trkpt>
      <trkpt lat="49.00304" lon="0.06175">
        <ele>158.65</ele>
        <time>2021-08-08T15:17:39Z</time>
      </trkpt>
      <trkpt lat="49.003" lon="0.06169">
        <ele>158.66</ele>
        <time>2021-08-08T15:17:40Z</time>
      </trkpt>
      <trkpt lat="49.00295" lon="0.06166">
        <ele>158.69</ele>
        <time>2021-08-08T15:17:41Z</time>
      </trkpt>
      <trkpt lat="49.00291" lon="0.06162">
        <ele>158.78</ele>
        <time>2021-08-08T15:17:42Z</time>
      </trkpt>
      <trkpt lat="49.00286" lon="0.06157">
        <ele>158.91</ele>
        <time>2021-08-08T15:17:43Z</time>
      </trkpt>
      <trkpt lat="49.00281" lon="0.06153">
        <ele>159.03</ele>
        <time>2021-08-08T15:17:44Z</time>
      </trkpt>
      <trkpt lat="49.00277" lon="0.0615">
        <ele>159.14</ele>
        <time>2021-08-08T15:17:45Z</time>
      </trkpt>
      <trkpt lat="49.00273" lon="0.06145">
        <ele>159.19</ele>
        <time>2021-08-08T15:17:46Z</time>
      </trkpt>
      <trkpt lat="49.00268" lon="0.0614">
        <ele>159.22</ele>
        <time>2021-08-08T15:17:47Z</time>
      </trkpt>
      <trkpt lat="49.00264" lon="0.06136">
        <ele>159.19</ele>
        <time>2021-08-08T15:17:48Z</time>
      </trkpt>
      <trkpt lat="49.0026" lon="0.06133">
        <ele>159.12</ele>
        <time>2021-08-08T15:17:49Z</time>
      </trkpt>
      <trkpt lat="49.00256" lon="0.0613">
        <ele>159.06</ele>
        <time>2021-08-08T15:17:50Z</time>
      </trkpt>
      <trkpt lat="49.00252" lon="0.06126">
        <ele>159.03</ele>
        <time>2021-08-08T15:17:51Z</time>
      </trkpt>
      <trkpt lat="49.00248" lon="0.06123">
        <ele>158.99</ele>
        <time>2021-08-08T15:17:52Z</time>
      </trkpt>
      <trkpt lat="49.00243" lon="0.0612">
        <ele>158.94</ele>
        <time>2021-08-08T15:17:53Z</time>
      </trkpt>
      <trkpt lat="49.00239" lon="0.06116">
        <ele>158.9</ele>
        <time>2021-08-08T15:17:54Z</time>
      </trkpt>
      <trkpt lat="49.00234" lon="0.06111">
        <ele>158.87</ele>
        <time>2021-08-08T15:17:55Z</time>
      </trkpt>
      <trkpt lat="49.00229" lon="0.06106">
        <ele>158.75</ele>
        <time>2021-08-08T15:17:56Z</time>
      </trkpt>
      <trkpt lat="49.00224" lon="0.06102">
        <ele>158.55</ele>
        <time>2021-08-08T15:17:57Z</time>
      </trkpt>
      <trkpt lat="49.00219" lon="0.06096">
        <ele>158.41</ele>
        <time>2021-08-08T15:17:58Z</time>
      </trkpt>
      <trkpt lat="49.00213" lon="0.06091">
        <ele>158.36</ele>
        <time>2021-08-08T15:17:59Z</time>
      </trkpt>
      <trkpt lat="49.00207" lon="0.06086">
        <ele>158.34</ele>
        <time>2021-08-08T15:18:00Z</time>
      </trkpt>
      <trkpt lat="49.00202" lon="0.06082">
        <ele>158.32</ele>
        <time>2021-08-08T15:18:01Z</time>
      </trkpt>
      <trkpt lat="49.00197" lon="0.06078">
        <ele>158.29</ele>
        <time>2021-08-08T15:18:02Z</time>
      </trkpt>
      <trkpt lat="49.00192" lon="0.06074">
        <ele>158.12</ele>
        <time>2021-08-08T15:18:03Z</time>
      </trkpt>
      <trkpt lat="49.00187" lon="0.06071">
        <ele>157.86</ele>
        <time>2021-08-08T15:18:04Z</time>
      </trkpt>
      <trkpt lat="49.0018" lon="0.06066">
        <ele>157.54</ele>
        <time>2021-08-08T15:18:05Z</time>
      </trkpt>
      <trkpt lat="49.00177" lon="0.06061">
        <ele>157.47</ele>
        <time>2021-08-08T15:18:06Z</time>
      </trkpt>
      <trkpt lat="49.00172" lon="0.06055">
        <ele>157.41</ele>
        <time>2021-08-08T15:18:07Z</time>
      </trkpt>
      <trkpt lat="49.00168" lon="0.06051">
        <ele>157.45</ele>
        <time>2021-08-08T15:18:08Z</time>
      </trkpt>
      <trkpt lat="49.00164" lon="0.06044">
        <ele>157.65</ele>
        <time>2021-08-08T15:18:09Z</time>
      </trkpt>
      <trkpt lat="49.0016" lon="0.06036">
        <ele>158.01</ele>
        <time>2021-08-08T15:18:10Z</time>
      </trkpt>
      <trkpt lat="49.00156" lon="0.06029">
        <ele>158.38</ele>
        <time>2021-08-08T15:18:11Z</time>
      </trkpt>
      <trkpt lat="49.00153" lon="0.06024">
        <ele>158.69</ele>
        <time>2021-08-08T15:18:12Z</time>
      </trkpt>
      <trkpt lat="49.0015" lon="0.06018">
        <ele>158.99</ele>
        <time>2021-08-08T15:18:13Z</time>
      </trkpt>
      <trkpt lat="49.00147" lon="0.06013">
        <ele>159.25</ele>
        <time>2021-08-08T15:18:14Z</time>
      </trkpt>
      <trkpt lat="49.00142" lon="0.06004">
        <ele>159.66</ele>
        <time>2021-08-08T15:18:15Z</time>
      </trkpt>
      <trkpt lat="49.00139" lon="0.05998">
        <ele>160</ele>
        <time>2021-08-08T15:18:16Z</time>
      </trkpt>
      <trkpt lat="49.00136" lon="0.05989">
        <ele>160.45</ele>
        <time>2021-08-08T15:18:17Z</time>
      </trkpt>
      <trkpt lat="49.00134" lon="0.05983">
        <ele>160.81</ele>
        <time>2021-08-08T15:18:18Z</time>
      </trkpt>
      <trkpt lat="49.00131" lon="0.05978">
        <ele>161.14</ele>
        <time>2021-08-08T15:18:19Z</time>
      </trkpt>
      <trkpt lat="49.00128" lon="0.05972">
        <ele>161.46</ele>
        <time>2021-08-08T15:18:20Z</time>
      </trkpt>
      <trkpt lat="49.00124" lon="0.05967">
        <ele>161.64</ele>
        <time>2021-08-08T15:18:21Z</time>
      </trkpt>
      <trkpt lat="49.00121" lon="0.05961">
        <ele>161.9</ele>
        <time>2021-08-08T15:18:22Z</time>
      </trkpt>
      <trkpt lat="49.00118" lon="0.05956">
        <ele>162.16</ele>
        <time>2021-08-08T15:18:23Z</time>
      </trkpt>
      <trkpt lat="49.00115" lon="0.05952">
        <ele>162.41</ele>
        <time>2021-08-08T15:18:24Z</time>
      </trkpt>
      <trkpt lat="49.00112" lon="0.05947">
        <ele>162.68</ele>
        <time>2021-08-08T15:18:25Z</time>
      </trkpt>
      <trkpt lat="49.00108" lon="0.05943">
        <ele>162.82</ele>
        <time>2021-08-08T15:18:26Z</time>
      </trkpt>
      <trkpt lat="49.00104" lon="0.05938">
        <ele>162.8</ele>
        <time>2021-08-08T15:18:27Z</time>
      </trkpt>
      <trkpt lat="49.001" lon="0.05933">
        <ele>162.77</ele>
        <time>2021-08-08T15:18:28Z</time>
      </trkpt>
      <trkpt lat="49.00097" lon="0.05928">
        <ele>162.84</ele>
        <time>2021-08-08T15:18:29Z</time>
      </trkpt>
      <trkpt lat="49.00093" lon="0.05925">
        <ele>162.87</ele>
        <time>2021-08-08T15:18:30Z</time>
      </trkpt>
      <trkpt lat="49.00089" lon="0.0592">
        <ele>162.98</ele>
        <time>2021-08-08T15:18:31Z</time>
      </trkpt>
      <trkpt lat="49.00086" lon="0.05916">
        <ele>163.11</ele>
        <time>2021-08-08T15:18:32Z</time>
      </trkpt>
      <trkpt lat="49.00082" lon="0.05912">
        <ele>163.25</ele>
        <time>2021-08-08T15:18:33Z</time>
      </trkpt>
      <trkpt lat="49.00076" lon="0.05905">
        <ele>163.45</ele>
        <time>2021-08-08T15:18:34Z</time>
      </trkpt>
      <trkpt lat="49.00071" lon="0.05903">
        <ele>163.51</ele>
        <time>2021-08-08T15:18:35Z</time>
      </trkpt>
      <trkpt lat="49.00067" lon="0.059">
        <ele>163.58</ele>
        <time>2021-08-08T15:18:36Z</time>
      </trkpt>
      <trkpt lat="49.00063" lon="0.05897">
        <ele>163.63</ele>
        <time>2021-08-08T15:18:37Z</time>
      </trkpt>
      <trkpt lat="49.0006" lon="0.05895">
        <ele>163.68</ele>
        <time>2021-08-08T15:18:38Z</time>
      </trkpt>
      <trkpt lat="49.00056" lon="0.05894">
        <ele>163.67</ele>
        <time>2021-08-08T15:18:39Z</time>
      </trkpt>
      <trkpt lat="49.00052" lon="0.05891">
        <ele>163.67</ele>
        <time>2021-08-08T15:18:40Z</time>
      </trkpt>
      <trkpt lat="49.00048" lon="0.05889">
        <ele>163.7</ele>
        <time>2021-08-08T15:18:41Z</time>
      </trkpt>
      <trkpt lat="49.00042" lon="0.05886">
        <ele>163.84</ele>
        <time>2021-08-08T15:18:42Z</time>
      </trkpt>
      <trkpt lat="49.00037" lon="0.05883">
        <ele>163.95</ele>
        <time>2021-08-08T15:18:43Z</time>
      </trkpt>
      <trkpt lat="49.00032" lon="0.05881">
        <ele>163.99</ele>
        <time>2021-08-08T15:18:44Z</time>
      </trkpt>
      <trkpt lat="49.00026" lon="0.05879">
        <ele>164.03</ele>
        <time>2021-08-08T15:18:45Z</time>
      </trkpt>
      <trkpt lat="49.00022" lon="0.05878">
        <ele>163.98</ele>
        <time>2021-08-08T15:18:46Z</time>
      </trkpt>
      <trkpt lat="49.00018" lon="0.05877">
        <ele>163.98</ele>
        <time>2021-08-08T15:18:47Z</time>
      </trkpt>
      <trkpt lat="49.00015" lon="0.05875">
        <ele>164.02</ele>
        <time>2021-08-08T15:18:48Z</time>
      </trkpt>
      <trkpt lat="49.00012" lon="0.05873">
        <ele>164.12</ele>
        <time>2021-08-08T15:18:49Z</time>
      </trkpt>
      <trkpt lat="49.00009" lon="0.05871">
        <ele>164.19</ele>
        <time>2021-08-08T15:18:50Z</time>
      </trkpt>
      <trkpt lat="49.00007" lon="0.05871">
        <ele>164.16</ele>
        <time>2021-08-08T15:18:51Z</time>
      </trkpt>
      <trkpt lat="49.00005" lon="0.0587">
        <ele>164.24</ele>
        <time>2021-08-08T15:18:52Z</time>
      </trkpt>
      <trkpt lat="49.00005" lon="0.05869">
        <ele>164.28</ele>
        <time>2021-08-08T15:18:53Z</time>
      </trkpt>
      <trkpt lat="49.00003" lon="0.05869">
        <ele>164.27</ele>
        <time>2021-08-08T15:18:54Z</time>
      </trkpt>
      <trkpt lat="49.00003" lon="0.05869">
        <ele>164.27</ele>
        <time>2021-08-08T15:18:55Z</time>
      </trkpt>
      <trkpt lat="49.00003" lon="0.05869">
        <ele>164.27</ele>
        <time>2021-08-08T15:18:56Z</time>
      </trkpt>
      <trkpt lat="49.00003" lon="0.05869">
        <ele>164.27</ele>
        <time>2021-08-08T15:18:57Z</time>
      </trkpt>
      <trkpt lat="49.00003" lon="0.05869">
        <ele>164.27</ele>
        <time>2021-08-08T15:18:58Z</time>
      </trkpt>
      <trkpt lat="49.00003" lon="0.05869">
        <ele>164.27</ele>
        <time>2021-08-08T15:18:59Z</time>
      </trkpt>
      <trkpt lat="49.00003" lon="0.05869">
        <ele>164.27</ele>
        <time>2021-08-08T15:19:00Z</time>
      </trkpt>
      <trkpt lat="49.00001" lon="0.05869">
        <ele>164.22</ele>
        <time>2021-08-08T15:19:01Z</time>
      </trkpt>
      <trkpt lat="48.99999" lon="0.05869">
        <ele>164.17</ele>
        <time>2021-08-08T15:19:02Z</time>
      </trkpt>
      <trkpt lat="48.99998" lon="0.05868">
        <ele>164.23</ele>
        <time>2021-08-08T15:19:03Z</time>
      </trkpt>
      <trkpt lat="48.99995" lon="0.05867">
        <ele>164.3</ele>
        <time>2021-08-08T15:19:04Z</time>
      </trkpt>
      <trkpt lat="48.99992" lon="0.05867">
        <ele>164.37</ele>
        <time>2021-08-08T15:19:05Z</time>
      </trkpt>
      <trkpt lat="48.99988" lon="0.05867">
        <ele>164.39</ele>
        <time>2021-08-08T15:19:06Z</time>
      </trkpt>
      <trkpt lat="48.99984" lon="0.05867">
        <ele>164.41</ele>
        <time>2021-08-08T15:19:07Z</time>
      </trkpt>
      <trkpt lat="48.9998" lon="0.05867">
        <ele>164.4</ele>
        <time>2021-08-08T15:19:08Z</time>
      </trkpt>
      <trkpt lat="48.99975" lon="0.05866">
        <ele>164.44</ele>
        <time>2021-08-08T15:19:09Z</time>
      </trkpt>
      <trkpt lat="48.9997" lon="0.05866">
        <ele>164.49</ele>
        <time>2021-08-08T15:19:10Z</time>
      </trkpt>
      <trkpt lat="48.99966" lon="0.05866">
        <ele>164.65</ele>
        <time>2021-08-08T15:19:11Z</time>
      </trkpt>
      <trkpt lat="48.99962" lon="0.05866">
        <ele>164.84</ele>
        <time>2021-08-08T15:19:12Z</time>
      </trkpt>
      <trkpt lat="48.99958" lon="0.05865">
        <ele>165.04</ele>
        <time>2021-08-08T15:19:13Z</time>
      </trkpt>
      <trkpt lat="48.99953" lon="0.05866">
        <ele>165.19</ele>
        <time>2021-08-08T15:19:14Z</time>
      </trkpt>
      <trkpt lat="48.99949" lon="0.05866">
        <ele>165.36</ele>
        <time>2021-08-08T15:19:15Z</time>
      </trkpt>
      <trkpt lat="48.99945" lon="0.05866">
        <ele>165.53</ele>
        <time>2021-08-08T15:19:16Z</time>
      </trkpt>
      <trkpt lat="48.9994" lon="0.05867">
        <ele>165.8</ele>
        <time>2021-08-08T15:19:17Z</time>
      </trkpt>
      <trkpt lat="48.99935" lon="0.05867">
        <ele>166.15</ele>
        <time>2021-08-08T15:19:18Z</time>
      </trkpt>
      <trkpt lat="48.9993" lon="0.05866">
        <ele>166.54</ele>
        <time>2021-08-08T15:19:19Z</time>
      </trkpt>
      <trkpt lat="48.99924" lon="0.05863">
        <ele>167.09</ele>
        <time>2021-08-08T15:19:20Z</time>
      </trkpt>
      <trkpt lat="48.99921" lon="0.05859">
        <ele>167.59</ele>
        <time>2021-08-08T15:19:21Z</time>
      </trkpt>
      <trkpt lat="48.99918" lon="0.05854">
        <ele>167.99</ele>
        <time>2021-08-08T15:19:22Z</time>
      </trkpt>
      <trkpt lat="48.99917" lon="0.05849">
        <ele>168.29</ele>
        <time>2021-08-08T15:19:23Z</time>
      </trkpt>
      <trkpt lat="48.99918" lon="0.05844">
        <ele>168.49</ele>
        <time>2021-08-08T15:19:24Z</time>
      </trkpt>
      <trkpt lat="48.99918" lon="0.0584">
        <ele>168.67</ele>
        <time>2021-08-08T15:19:25Z</time>
      </trkpt>
      <trkpt lat="48.99917" lon="0.05836">
        <ele>168.82</ele>
        <time>2021-08-08T15:19:26Z</time>
      </trkpt>
      <trkpt lat="48.99918" lon="0.05831">
        <ele>169.01</ele>
        <time>2021-08-08T15:19:27Z</time>
      </trkpt>
      <trkpt lat="48.99918" lon="0.05827">
        <ele>169.17</ele>
        <time>2021-08-08T15:19:28Z</time>
      </trkpt>
      <trkpt lat="48.99917" lon="0.05822">
        <ele>169.33</ele>
        <time>2021-08-08T15:19:29Z</time>
      </trkpt>
      <trkpt lat="48.99916" lon="0.05818">
        <ele>169.49</ele>
        <time>2021-08-08T15:19:30Z</time>
      </trkpt>
      <trkpt lat="48.99915" lon="0.05812">
        <ele>169.68</ele>
        <time>2021-08-08T15:19:31Z</time>
      </trkpt>
      <trkpt lat="48.99913" lon="0.05807">
        <ele>169.87</ele>
        <time>2021-08-08T15:19:32Z</time>
      </trkpt>
      <trkpt lat="48.99912" lon="0.05802">
        <ele>170.05</ele>
        <time>2021-08-08T15:19:33Z</time>
      </trkpt>
      <trkpt lat="48.99912" lon="0.05797">
        <ele>170.22</ele>
        <time>2021-08-08T15:19:34Z</time>
      </trkpt>
      <trkpt lat="48.99911" lon="0.05793">
        <ele>170.39</ele>
        <time>2021-08-08T15:19:35Z</time>
      </trkpt>
      <trkpt lat="48.9991" lon="0.05788">
        <ele>170.56</ele>
        <time>2021-08-08T15:19:36Z</time>
      </trkpt>
      <trkpt lat="48.9991" lon="0.05783">
        <ele>170.74</ele>
        <time>2021-08-08T15:19:37Z</time>
      </trkpt>
      <trkpt lat="48.99908" lon="0.05778">
        <ele>170.92</ele>
        <time>2021-08-08T15:19:38Z</time>
      </trkpt>
      <trkpt lat="48.99908" lon="0.05773">
        <ele>171.1</ele>
        <time>2021-08-08T15:19:39Z</time>
      </trkpt>
      <trkpt lat="48.99907" lon="0.05767">
        <ele>171.3</ele>
        <time>2021-08-08T15:19:40Z</time>
      </trkpt>
      <trkpt lat="48.99905" lon="0.05761">
        <ele>171.51</ele>
        <time>2021-08-08T15:19:41Z</time>
      </trkpt>
      <trkpt lat="48.99904" lon="0.05755">
        <ele>171.72</ele>
        <time>2021-08-08T15:19:42Z</time>
      </trkpt>
      <trkpt lat="48.99902" lon="0.05749">
        <ele>171.94</ele>
        <time>2021-08-08T15:19:43Z</time>
      </trkpt>
      <trkpt lat="48.999" lon="0.05744">
        <ele>172.13</ele>
        <time>2021-08-08T15:19:44Z</time>
      </trkpt>
      <trkpt lat="48.99898" lon="0.05739">
        <ele>172.32</ele>
        <time>2021-08-08T15:19:45Z</time>
      </trkpt>
      <trkpt lat="48.99897" lon="0.05735">
        <ele>172.48</ele>
        <time>2021-08-08T15:19:46Z</time>
      </trkpt>
      <trkpt lat="48.99894" lon="0.05731">
        <ele>172.63</ele>
        <time>2021-08-08T15:19:47Z</time>
      </trkpt>
      <trkpt lat="48.99893" lon="0.05727">
        <ele>172.78</ele>
        <time>2021-08-08T15:19:48Z</time>
      </trkpt>
      <trkpt lat="48.99891" lon="0.05723">
        <ele>172.93</ele>
        <time>2021-08-08T15:19:49Z</time>
      </trkpt>
      <trkpt lat="48.99888" lon="0.05719">
        <ele>172.98</ele>
        <time>2021-08-08T15:19:50Z</time>
      </trkpt>
      <trkpt lat="48.99886" lon="0.05718">
        <ele>172.99</ele>
        <time>2021-08-08T15:19:51Z</time>
      </trkpt>
      <trkpt lat="48.99883" lon="0.05716">
        <ele>173</ele>
        <time>2021-08-08T15:19:52Z</time>
      </trkpt>
      <trkpt lat="48.99878" lon="0.05712">
        <ele>173</ele>
        <time>2021-08-08T15:19:53Z</time>
      </trkpt>
      <trkpt lat="48.99874" lon="0.05707">
        <ele>173</ele>
        <time>2021-08-08T15:19:54Z</time>
      </trkpt>
      <trkpt lat="48.9987" lon="0.05702">
        <ele>173</ele>
        <time>2021-08-08T15:19:55Z</time>
      </trkpt>
      <trkpt lat="48.99866" lon="0.05697">
        <ele>173</ele>
        <time>2021-08-08T15:19:56Z</time>
      </trkpt>
      <trkpt lat="48.99863" lon="0.05693">
        <ele>173</ele>
        <time>2021-08-08T15:19:57Z</time>
      </trkpt>
      <trkpt lat="48.99859" lon="0.0569">
        <ele>173</ele>
        <time>2021-08-08T15:19:58Z</time>
      </trkpt>
      <trkpt lat="48.99856" lon="0.05686">
        <ele>173</ele>
        <time>2021-08-08T15:19:59Z</time>
      </trkpt>
      <trkpt lat="48.99851" lon="0.05683">
        <ele>173</ele>
        <time>2021-08-08T15:20:00Z</time>
      </trkpt>
      <trkpt lat="48.99847" lon="0.05679">
        <ele>173</ele>
        <time>2021-08-08T15:20:01Z</time>
      </trkpt>
      <trkpt lat="48.99842" lon="0.05676">
        <ele>173</ele>
        <time>2021-08-08T15:20:02Z</time>
      </trkpt>
      <trkpt lat="48.99838" lon="0.05672">
        <ele>173</ele>
        <time>2021-08-08T15:20:03Z</time>
      </trkpt>
      <trkpt lat="48.99833" lon="0.05668">
        <ele>173</ele>
        <time>2021-08-08T15:20:04Z</time>
      </trkpt>
      <trkpt lat="48.99828" lon="0.05665">
        <ele>173.05</ele>
        <time>2021-08-08T15:20:05Z</time>
      </trkpt>
      <trkpt lat="48.99824" lon="0.05662">
        <ele>173.12</ele>
        <time>2021-08-08T15:20:06Z</time>
      </trkpt>
      <trkpt lat="48.99821" lon="0.05659">
        <ele>173.23</ele>
        <time>2021-08-08T15:20:07Z</time>
      </trkpt>
      <trkpt lat="48.99817" lon="0.05655">
        <ele>173.36</ele>
        <time>2021-08-08T15:20:08Z</time>
      </trkpt>
      <trkpt lat="48.99813" lon="0.05651">
        <ele>173.5</ele>
        <time>2021-08-08T15:20:09Z</time>
      </trkpt>
      <trkpt lat="48.99809" lon="0.05647">
        <ele>173.64</ele>
        <time>2021-08-08T15:20:10Z</time>
      </trkpt>
      <trkpt lat="48.99805" lon="0.05643">
        <ele>173.78</ele>
        <time>2021-08-08T15:20:11Z</time>
      </trkpt>
      <trkpt lat="48.99801" lon="0.05639">
        <ele>173.93</ele>
        <time>2021-08-08T15:20:12Z</time>
      </trkpt>
      <trkpt lat="48.99797" lon="0.05635">
        <ele>173.98</ele>
        <time>2021-08-08T15:20:13Z</time>
      </trkpt>
      <trkpt lat="48.99793" lon="0.05632">
        <ele>173.99</ele>
        <time>2021-08-08T15:20:14Z</time>
      </trkpt>
      <trkpt lat="48.99789" lon="0.05628">
        <ele>174</ele>
        <time>2021-08-08T15:20:15Z</time>
      </trkpt>
      <trkpt lat="48.99785" lon="0.05625">
        <ele>174</ele>
        <time>2021-08-08T15:20:16Z</time>
      </trkpt>
      <trkpt lat="48.9978" lon="0.0562">
        <ele>174</ele>
        <time>2021-08-08T15:20:17Z</time>
      </trkpt>
      <trkpt lat="48.99776" lon="0.05616">
        <ele>174</ele>
        <time>2021-08-08T15:20:18Z</time>
      </trkpt>
      <trkpt lat="48.99772" lon="0.05612">
        <ele>174</ele>
        <time>2021-08-08T15:20:19Z</time>
      </trkpt>
      <trkpt lat="48.99768" lon="0.05608">
        <ele>174</ele>
        <time>2021-08-08T15:20:20Z</time>
      </trkpt>
      <trkpt lat="48.99764" lon="0.05604">
        <ele>174</ele>
        <time>2021-08-08T15:20:21Z</time>
      </trkpt>
      <trkpt lat="48.9976" lon="0.056">
        <ele>174</ele>
        <time>2021-08-08T15:20:22Z</time>
      </trkpt>
      <trkpt lat="48.99756" lon="0.05595">
        <ele>174</ele>
        <time>2021-08-08T15:20:23Z</time>
      </trkpt>
      <trkpt lat="48.99752" lon="0.0559">
        <ele>174</ele>
        <time>2021-08-08T15:20:24Z</time>
      </trkpt>
      <trkpt lat="48.99749" lon="0.05583">
        <ele>174</ele>
        <time>2021-08-08T15:20:25Z</time>
      </trkpt>
      <trkpt lat="48.99745" lon="0.05578">
        <ele>174.03</ele>
        <time>2021-08-08T15:20:26Z</time>
      </trkpt>
      <trkpt lat="48.99741" lon="0.05573">
        <ele>174.09</ele>
        <time>2021-08-08T15:20:27Z</time>
      </trkpt>
      <trkpt lat="48.99737" lon="0.05567">
        <ele>174.23</ele>
        <time>2021-08-08T15:20:28Z</time>
      </trkpt>
      <trkpt lat="48.99733" lon="0.05562">
        <ele>174.39</ele>
        <time>2021-08-08T15:20:29Z</time>
      </trkpt>
      <trkpt lat="48.9973" lon="0.05556">
        <ele>174.61</ele>
        <time>2021-08-08T15:20:30Z</time>
      </trkpt>
      <trkpt lat="48.99726" lon="0.05552">
        <ele>174.78</ele>
        <time>2021-08-08T15:20:31Z</time>
      </trkpt>
      <trkpt lat="48.99723" lon="0.05547">
        <ele>174.92</ele>
        <time>2021-08-08T15:20:32Z</time>
      </trkpt>
      <trkpt lat="48.9972" lon="0.05541">
        <ele>174.98</ele>
        <time>2021-08-08T15:20:33Z</time>
      </trkpt>
      <trkpt lat="48.99717" lon="0.05537">
        <ele>174.99</ele>
        <time>2021-08-08T15:20:34Z</time>
      </trkpt>
      <trkpt lat="48.99714" lon="0.05533">
        <ele>175</ele>
        <time>2021-08-08T15:20:35Z</time>
      </trkpt>
      <trkpt lat="48.9971" lon="0.05527">
        <ele>175</ele>
        <time>2021-08-08T15:20:36Z</time>
      </trkpt>
      <trkpt lat="48.99707" lon="0.05523">
        <ele>175</ele>
        <time>2021-08-08T15:20:37Z</time>
      </trkpt>
      <trkpt lat="48.99703" lon="0.05519">
        <ele>175</ele>
        <time>2021-08-08T15:20:38Z</time>
      </trkpt>
      <trkpt lat="48.99699" lon="0.05514">
        <ele>175</ele>
        <time>2021-08-08T15:20:39Z</time>
      </trkpt>
      <trkpt lat="48.99695" lon="0.05509">
        <ele>175</ele>
        <time>2021-08-08T15:20:40Z</time>
      </trkpt>
      <trkpt lat="48.99691" lon="0.05503">
        <ele>175</ele>
        <time>2021-08-08T15:20:41Z</time>
      </trkpt>
      <trkpt lat="48.99687" lon="0.05499">
        <ele>175</ele>
        <time>2021-08-08T15:20:42Z</time>
      </trkpt>
      <trkpt lat="48.99683" lon="0.05493">
        <ele>175</ele>
        <time>2021-08-08T15:20:43Z</time>
      </trkpt>
      <trkpt lat="48.99679" lon="0.05488">
        <ele>175</ele>
        <time>2021-08-08T15:20:44Z</time>
      </trkpt>
      <trkpt lat="48.99674" lon="0.05481">
        <ele>175</ele>
        <time>2021-08-08T15:20:45Z</time>
      </trkpt>
      <trkpt lat="48.99671" lon="0.05475">
        <ele>175</ele>
        <time>2021-08-08T15:20:46Z</time>
      </trkpt>
      <trkpt lat="48.99667" lon="0.0547">
        <ele>175</ele>
        <time>2021-08-08T15:20:47Z</time>
      </trkpt>
      <trkpt lat="48.99662" lon="0.05465">
        <ele>175.03</ele>
        <time>2021-08-08T15:20:48Z</time>
      </trkpt>
      <trkpt lat="48.99659" lon="0.05461">
        <ele>175.09</ele>
        <time>2021-08-08T15:20:49Z</time>
      </trkpt>
      <trkpt lat="48.99655" lon="0.05456">
        <ele>175.19</ele>
        <time>2021-08-08T15:20:50Z</time>
      </trkpt>
      <trkpt lat="48.99651" lon="0.05451">
        <ele>175.35</ele>
        <time>2021-08-08T15:20:51Z</time>
      </trkpt>
      <trkpt lat="48.99648" lon="0.05446">
        <ele>175.54</ele>
        <time>2021-08-08T15:20:52Z</time>
      </trkpt>
      <trkpt lat="48.99645" lon="0.05443">
        <ele>175.72</ele>
        <time>2021-08-08T15:20:53Z</time>
      </trkpt>
      <trkpt lat="48.99641" lon="0.05438">
        <ele>175.86</ele>
        <time>2021-08-08T15:20:54Z</time>
      </trkpt>
      <trkpt lat="48.99637" lon="0.05435">
        <ele>175.96</ele>
        <time>2021-08-08T15:20:55Z</time>
      </trkpt>
      <trkpt lat="48.99634" lon="0.05432">
        <ele>175.99</ele>
        <time>2021-08-08T15:20:56Z</time>
      </trkpt>
      <trkpt lat="48.9963" lon="0.05428">
        <ele>176</ele>
        <time>2021-08-08T15:20:57Z</time>
      </trkpt>
      <trkpt lat="48.99626" lon="0.05425">
        <ele>176</ele>
        <time>2021-08-08T15:20:58Z</time>
      </trkpt>
      <trkpt lat="48.99623" lon="0.05422">
        <ele>176</ele>
        <time>2021-08-08T15:20:59Z</time>
      </trkpt>
      <trkpt lat="48.99618" lon="0.05418">
        <ele>176</ele>
        <time>2021-08-08T15:21:00Z</time>
      </trkpt>
      <trkpt lat="48.99615" lon="0.05415">
        <ele>176</ele>
        <time>2021-08-08T15:21:01Z</time>
      </trkpt>
      <trkpt lat="48.99611" lon="0.05413">
        <ele>176</ele>
        <time>2021-08-08T15:21:02Z</time>
      </trkpt>
      <trkpt lat="48.99607" lon="0.0541">
        <ele>176</ele>
        <time>2021-08-08T15:21:03Z</time>
      </trkpt>
      <trkpt lat="48.99603" lon="0.05407">
        <ele>176</ele>
        <time>2021-08-08T15:21:04Z</time>
      </trkpt>
      <trkpt lat="48.99599" lon="0.05403">
        <ele>176</ele>
        <time>2021-08-08T15:21:05Z</time>
      </trkpt>
      <trkpt lat="48.99595" lon="0.054">
        <ele>176</ele>
        <time>2021-08-08T15:21:06Z</time>
      </trkpt>
      <trkpt lat="48.99591" lon="0.05395">
        <ele>176</ele>
        <time>2021-08-08T15:21:07Z</time>
      </trkpt>
      <trkpt lat="48.99587" lon="0.05394">
        <ele>176</ele>
        <time>2021-08-08T15:21:08Z</time>
      </trkpt>
      <trkpt lat="48.99583" lon="0.05394">
        <ele>176</ele>
        <time>2021-08-08T15:21:09Z</time>
      </trkpt>
      <trkpt lat="48.9958" lon="0.05396">
        <ele>176</ele>
        <time>2021-08-08T15:21:10Z</time>
      </trkpt>
      <trkpt lat="48.99575" lon="0.05401">
        <ele>176</ele>
        <time>2021-08-08T15:21:11Z</time>
      </trkpt>
      <trkpt lat="48.9957" lon="0.05406">
        <ele>176</ele>
        <time>2021-08-08T15:21:12Z</time>
      </trkpt>
      <trkpt lat="48.99566" lon="0.05409">
        <ele>176</ele>
        <time>2021-08-08T15:21:13Z</time>
      </trkpt>
      <trkpt lat="48.99561" lon="0.05415">
        <ele>176</ele>
        <time>2021-08-08T15:21:14Z</time>
      </trkpt>
      <trkpt lat="48.99556" lon="0.05419">
        <ele>176</ele>
        <time>2021-08-08T15:21:15Z</time>
      </trkpt>
      <trkpt lat="48.99552" lon="0.05424">
        <ele>176</ele>
        <time>2021-08-08T15:21:16Z</time>
      </trkpt>
      <trkpt lat="48.99549" lon="0.05429">
        <ele>176</ele>
        <time>2021-08-08T15:21:17Z</time>
      </trkpt>
      <trkpt lat="48.99545" lon="0.05433">
        <ele>176</ele>
        <time>2021-08-08T15:21:18Z</time>
      </trkpt>
      <trkpt lat="48.99542" lon="0.05438">
        <ele>176</ele>
        <time>2021-08-08T15:21:19Z</time>
      </trkpt>
      <trkpt lat="48.99538" lon="0.05443">
        <ele>176</ele>
        <time>2021-08-08T15:21:20Z</time>
      </trkpt>
      <trkpt lat="48.99534" lon="0.05448">
        <ele>176</ele>
        <time>2021-08-08T15:21:21Z</time>
      </trkpt>
      <trkpt lat="48.99531" lon="0.05453">
        <ele>176</ele>
        <time>2021-08-08T15:21:22Z</time>
      </trkpt>
      <trkpt lat="48.99527" lon="0.05458">
        <ele>176</ele>
        <time>2021-08-08T15:21:23Z</time>
      </trkpt>
      <trkpt lat="48.99524" lon="0.05464">
        <ele>176</ele>
        <time>2021-08-08T15:21:24Z</time>
      </trkpt>
      <trkpt lat="48.99521" lon="0.05469">
        <ele>176</ele>
        <time>2021-08-08T15:21:25Z</time>
      </trkpt>
      <trkpt lat="48.99517" lon="0.05474">
        <ele>175.96</ele>
        <time>2021-08-08T15:21:26Z</time>
      </trkpt>
      <trkpt lat="48.99513" lon="0.0548">
        <ele>175.8</ele>
        <time>2021-08-08T15:21:27Z</time>
      </trkpt>
      <trkpt lat="48.9951" lon="0.05486">
        <ele>175.59</ele>
        <time>2021-08-08T15:21:28Z</time>
      </trkpt>
      <trkpt lat="48.99506" lon="0.05492">
        <ele>175.37</ele>
        <time>2021-08-08T15:21:29Z</time>
      </trkpt>
      <trkpt lat="48.99501" lon="0.05499">
        <ele>175.15</ele>
        <time>2021-08-08T15:21:30Z</time>
      </trkpt>
      <trkpt lat="48.99496" lon="0.05505">
        <ele>175.04</ele>
        <time>2021-08-08T15:21:31Z</time>
      </trkpt>
      <trkpt lat="48.99491" lon="0.05512">
        <ele>175.01</ele>
        <time>2021-08-08T15:21:32Z</time>
      </trkpt>
      <trkpt lat="48.99487" lon="0.0552">
        <ele>175</ele>
        <time>2021-08-08T15:21:33Z</time>
      </trkpt>
      <trkpt lat="48.99483" lon="0.05527">
        <ele>175</ele>
        <time>2021-08-08T15:21:34Z</time>
      </trkpt>
      <trkpt lat="48.99478" lon="0.05535">
        <ele>175</ele>
        <time>2021-08-08T15:21:35Z</time>
      </trkpt>
      <trkpt lat="48.99474" lon="0.05542">
        <ele>175</ele>
        <time>2021-08-08T15:21:36Z</time>
      </trkpt>
      <trkpt lat="48.99468" lon="0.05549">
        <ele>175</ele>
        <time>2021-08-08T15:21:37Z</time>
      </trkpt>
      <trkpt lat="48.99463" lon="0.05556">
        <ele>174.99</ele>
        <time>2021-08-08T15:21:38Z</time>
      </trkpt>
      <trkpt lat="48.99458" lon="0.05563">
        <ele>174.82</ele>
        <time>2021-08-08T15:21:39Z</time>
      </trkpt>
      <trkpt lat="48.99453" lon="0.05569">
        <ele>174.61</ele>
        <time>2021-08-08T15:21:40Z</time>
      </trkpt>
      <trkpt lat="48.99448" lon="0.05575">
        <ele>174.38</ele>
        <time>2021-08-08T15:21:41Z</time>
      </trkpt>
      <trkpt lat="48.99443" lon="0.05582">
        <ele>174.16</ele>
        <time>2021-08-08T15:21:42Z</time>
      </trkpt>
      <trkpt lat="48.99437" lon="0.05588">
        <ele>173.94</ele>
        <time>2021-08-08T15:21:43Z</time>
      </trkpt>
      <trkpt lat="48.99432" lon="0.05593">
        <ele>173.73</ele>
        <time>2021-08-08T15:21:44Z</time>
      </trkpt>
      <trkpt lat="48.99427" lon="0.05599">
        <ele>173.51</ele>
        <time>2021-08-08T15:21:45Z</time>
      </trkpt>
      <trkpt lat="48.99422" lon="0.05606">
        <ele>173.29</ele>
        <time>2021-08-08T15:21:46Z</time>
      </trkpt>
      <trkpt lat="48.99417" lon="0.05612">
        <ele>173.06</ele>
        <time>2021-08-08T15:21:47Z</time>
      </trkpt>
      <trkpt lat="48.99412" lon="0.05618">
        <ele>172.83</ele>
        <time>2021-08-08T15:21:48Z</time>
      </trkpt>
      <trkpt lat="48.99407" lon="0.05624">
        <ele>172.62</ele>
        <time>2021-08-08T15:21:49Z</time>
      </trkpt>
      <trkpt lat="48.99402" lon="0.05631">
        <ele>172.39</ele>
        <time>2021-08-08T15:21:50Z</time>
      </trkpt>
      <trkpt lat="48.99396" lon="0.05638">
        <ele>172.15</ele>
        <time>2021-08-08T15:21:51Z</time>
      </trkpt>
      <trkpt lat="48.99391" lon="0.05644">
        <ele>171.91</ele>
        <time>2021-08-08T15:21:52Z</time>
      </trkpt>
      <trkpt lat="48.99386" lon="0.05651">
        <ele>171.66</ele>
        <time>2021-08-08T15:21:53Z</time>
      </trkpt>
      <trkpt lat="48.99381" lon="0.05658">
        <ele>171.42</ele>
        <time>2021-08-08T15:21:54Z</time>
      </trkpt>
      <trkpt lat="48.99376" lon="0.05664">
        <ele>171.2</ele>
        <time>2021-08-08T15:21:55Z</time>
      </trkpt>
      <trkpt lat="48.99371" lon="0.05668">
        <ele>171.01</ele>
        <time>2021-08-08T15:21:56Z</time>
      </trkpt>
      <trkpt lat="48.99365" lon="0.05671">
        <ele>170.89</ele>
        <time>2021-08-08T15:21:57Z</time>
      </trkpt>
      <trkpt lat="48.9936" lon="0.05671">
        <ele>170.83</ele>
        <time>2021-08-08T15:21:58Z</time>
      </trkpt>
      <trkpt lat="48.99354" lon="0.0567">
        <ele>170.68</ele>
        <time>2021-08-08T15:21:59Z</time>
      </trkpt>
      <trkpt lat="48.99348" lon="0.05668">
        <ele>170.54</ele>
        <time>2021-08-08T15:22:00Z</time>
      </trkpt>
      <trkpt lat="48.99343" lon="0.05667">
        <ele>170.4</ele>
        <time>2021-08-08T15:22:01Z</time>
      </trkpt>
      <trkpt lat="48.99338" lon="0.05665">
        <ele>170.27</ele>
        <time>2021-08-08T15:22:02Z</time>
      </trkpt>
      <trkpt lat="48.99332" lon="0.05663">
        <ele>170.17</ele>
        <time>2021-08-08T15:22:03Z</time>
      </trkpt>
      <trkpt lat="48.99326" lon="0.05661">
        <ele>170.19</ele>
        <time>2021-08-08T15:22:04Z</time>
      </trkpt>
      <trkpt lat="48.9932" lon="0.05659">
        <ele>170.24</ele>
        <time>2021-08-08T15:22:05Z</time>
      </trkpt>
      <trkpt lat="48.99314" lon="0.05657">
        <ele>170.31</ele>
        <time>2021-08-08T15:22:06Z</time>
      </trkpt>
      <trkpt lat="48.99308" lon="0.05655">
        <ele>170.38</ele>
        <time>2021-08-08T15:22:07Z</time>
      </trkpt>
      <trkpt lat="48.99302" lon="0.05654">
        <ele>170.34</ele>
        <time>2021-08-08T15:22:08Z</time>
      </trkpt>
      <trkpt lat="48.99295" lon="0.05652">
        <ele>170.21</ele>
        <time>2021-08-08T15:22:09Z</time>
      </trkpt>
      <trkpt lat="48.99289" lon="0.05651">
        <ele>170.03</ele>
        <time>2021-08-08T15:22:10Z</time>
      </trkpt>
      <trkpt lat="48.99281" lon="0.05649">
        <ele>169.84</ele>
        <time>2021-08-08T15:22:11Z</time>
      </trkpt>
      <trkpt lat="48.99274" lon="0.05646">
        <ele>169.67</ele>
        <time>2021-08-08T15:22:12Z</time>
      </trkpt>
      <trkpt lat="48.99267" lon="0.05644">
        <ele>169.5</ele>
        <time>2021-08-08T15:22:13Z</time>
      </trkpt>
      <trkpt lat="48.9926" lon="0.05641">
        <ele>169.34</ele>
        <time>2021-08-08T15:22:14Z</time>
      </trkpt>
      <trkpt lat="48.99254" lon="0.05639">
        <ele>169.19</ele>
        <time>2021-08-08T15:22:15Z</time>
      </trkpt>
      <trkpt lat="48.99248" lon="0.05637">
        <ele>169.05</ele>
        <time>2021-08-08T15:22:16Z</time>
      </trkpt>
      <trkpt lat="48.99242" lon="0.05635">
        <ele>168.91</ele>
        <time>2021-08-08T15:22:17Z</time>
      </trkpt>
      <trkpt lat="48.99235" lon="0.05632">
        <ele>168.78</ele>
        <time>2021-08-08T15:22:18Z</time>
      </trkpt>
      <trkpt lat="48.99228" lon="0.05629">
        <ele>168.63</ele>
        <time>2021-08-08T15:22:19Z</time>
      </trkpt>
      <trkpt lat="48.99221" lon="0.05627">
        <ele>168.46</ele>
        <time>2021-08-08T15:22:20Z</time>
      </trkpt>
      <trkpt lat="48.99214" lon="0.05626">
        <ele>168.36</ele>
        <time>2021-08-08T15:22:21Z</time>
      </trkpt>
      <trkpt lat="48.99207" lon="0.05624">
        <ele>168.31</ele>
        <time>2021-08-08T15:22:22Z</time>
      </trkpt>
      <trkpt lat="48.992" lon="0.05622">
        <ele>168.3</ele>
        <time>2021-08-08T15:22:23Z</time>
      </trkpt>
      <trkpt lat="48.99193" lon="0.0562">
        <ele>168.3</ele>
        <time>2021-08-08T15:22:24Z</time>
      </trkpt>
      <trkpt lat="48.99186" lon="0.05618">
        <ele>168.24</ele>
        <time>2021-08-08T15:22:25Z</time>
      </trkpt>
      <trkpt lat="48.9918" lon="0.05615">
        <ele>168.22</ele>
        <time>2021-08-08T15:22:26Z</time>
      </trkpt>
      <trkpt lat="48.99174" lon="0.05612">
        <ele>168.2</ele>
        <time>2021-08-08T15:22:27Z</time>
      </trkpt>
      <trkpt lat="48.99168" lon="0.05609">
        <ele>168.13</ele>
        <time>2021-08-08T15:22:28Z</time>
      </trkpt>
      <trkpt lat="48.99162" lon="0.05607">
        <ele>168.16</ele>
        <time>2021-08-08T15:22:29Z</time>
      </trkpt>
      <trkpt lat="48.99155" lon="0.05604">
        <ele>168.24</ele>
        <time>2021-08-08T15:22:30Z</time>
      </trkpt>
      <trkpt lat="48.99149" lon="0.05601">
        <ele>168.32</ele>
        <time>2021-08-08T15:22:31Z</time>
      </trkpt>
      <trkpt lat="48.99144" lon="0.05598">
        <ele>168.43</ele>
        <time>2021-08-08T15:22:32Z</time>
      </trkpt>
      <trkpt lat="48.99138" lon="0.05596">
        <ele>168.49</ele>
        <time>2021-08-08T15:22:33Z</time>
      </trkpt>
      <trkpt lat="48.99132" lon="0.05594">
        <ele>168.51</ele>
        <time>2021-08-08T15:22:34Z</time>
      </trkpt>
      <trkpt lat="48.99127" lon="0.05592">
        <ele>168.55</ele>
        <time>2021-08-08T15:22:35Z</time>
      </trkpt>
      <trkpt lat="48.99121" lon="0.05591">
        <ele>168.57</ele>
        <time>2021-08-08T15:22:36Z</time>
      </trkpt>
      <trkpt lat="48.99116" lon="0.0559">
        <ele>168.56</ele>
        <time>2021-08-08T15:22:37Z</time>
      </trkpt>
      <trkpt lat="48.99112" lon="0.05591">
        <ele>168.51</ele>
        <time>2021-08-08T15:22:38Z</time>
      </trkpt>
      <trkpt lat="48.99107" lon="0.05594">
        <ele>168.32</ele>
        <time>2021-08-08T15:22:39Z</time>
      </trkpt>
      <trkpt lat="48.99104" lon="0.05597">
        <ele>168.13</ele>
        <time>2021-08-08T15:22:40Z</time>
      </trkpt>
      <trkpt lat="48.99102" lon="0.05599">
        <ele>167.96</ele>
        <time>2021-08-08T15:22:41Z</time>
      </trkpt>
      <trkpt lat="48.99101" lon="0.05599">
        <ele>167.92</ele>
        <time>2021-08-08T15:22:42Z</time>
      </trkpt>
      <trkpt lat="48.99102" lon="0.05598">
        <ele>167.94</ele>
        <time>2021-08-08T15:22:43Z</time>
      </trkpt>
      <trkpt lat="48.99102" lon="0.05597">
        <ele>167.98</ele>
        <time>2021-08-08T15:22:44Z</time>
      </trkpt>
      <trkpt lat="48.99102" lon="0.05597">
        <ele>167.99</ele>
        <time>2021-08-08T15:22:45Z</time>
      </trkpt>
      <trkpt lat="48.99102" lon="0.05597">
        <ele>167.99</ele>
        <time>2021-08-08T15:22:46Z</time>
      </trkpt>
      <trkpt lat="48.99102" lon="0.05597">
        <ele>167.99</ele>
        <time>2021-08-08T15:22:47Z</time>
      </trkpt>
      <trkpt lat="48.99102" lon="0.05597">
        <ele>167.99</ele>
        <time>2021-08-08T15:22:48Z</time>
      </trkpt>
      <trkpt lat="48.99102" lon="0.05597">
        <ele>167.99</ele>
        <time>2021-08-08T15:22:49Z</time>
      </trkpt>
      <trkpt lat="48.99102" lon="0.05597">
        <ele>167.99</ele>
        <time>2021-08-08T15:22:50Z</time>
      </trkpt>
      <trkpt lat="48.99102" lon="0.05597">
        <ele>167.99</ele>
        <time>2021-08-08T15:22:51Z</time>
      </trkpt>
      <trkpt lat="48.99103" lon="0.056">
        <ele>167.87</ele>
        <time>2021-08-08T15:22:52Z</time>
      </trkpt>
      <trkpt lat="48.99102" lon="0.05604">
        <ele>167.64</ele>
        <time>2021-08-08T15:22:53Z</time>
      </trkpt>
      <trkpt lat="48.99101" lon="0.05609">
        <ele>167.31</ele>
        <time>2021-08-08T15:22:54Z</time>
      </trkpt>
      <trkpt lat="48.99101" lon="0.05615">
        <ele>166.99</ele>
        <time>2021-08-08T15:22:55Z</time>
      </trkpt>
      <trkpt lat="48.991" lon="0.05622">
        <ele>166.73</ele>
        <time>2021-08-08T15:22:56Z</time>
      </trkpt>
      <trkpt lat="48.99098" lon="0.0563">
        <ele>166.45</ele>
        <time>2021-08-08T15:22:57Z</time>
      </trkpt>
      <trkpt lat="48.99096" lon="0.05638">
        <ele>166.16</ele>
        <time>2021-08-08T15:22:58Z</time>
      </trkpt>
      <trkpt lat="48.99095" lon="0.05647">
        <ele>165.86</ele>
        <time>2021-08-08T15:22:59Z</time>
      </trkpt>
      <trkpt lat="48.99093" lon="0.05657">
        <ele>165.51</ele>
        <time>2021-08-08T15:23:00Z</time>
      </trkpt>
      <trkpt lat="48.9909" lon="0.05668">
        <ele>165.09</ele>
        <time>2021-08-08T15:23:01Z</time>
      </trkpt>
      <trkpt lat="48.99088" lon="0.05679">
        <ele>164.33</ele>
        <time>2021-08-08T15:23:02Z</time>
      </trkpt>
      <trkpt lat="48.99086" lon="0.05691">
        <ele>163.53</ele>
        <time>2021-08-08T15:23:03Z</time>
      </trkpt>
      <trkpt lat="48.99082" lon="0.05703">
        <ele>162.5</ele>
        <time>2021-08-08T15:23:04Z</time>
      </trkpt>
      <trkpt lat="48.99079" lon="0.05716">
        <ele>161.32</ele>
        <time>2021-08-08T15:23:05Z</time>
      </trkpt>
      <trkpt lat="48.99076" lon="0.05729">
        <ele>160.08</ele>
        <time>2021-08-08T15:23:06Z</time>
      </trkpt>
      <trkpt lat="48.99073" lon="0.05743">
        <ele>158.75</ele>
        <time>2021-08-08T15:23:07Z</time>
      </trkpt>
      <trkpt lat="48.99071" lon="0.05755">
        <ele>157.58</ele>
        <time>2021-08-08T15:23:08Z</time>
      </trkpt>
      <trkpt lat="48.99068" lon="0.05769">
        <ele>156.62</ele>
        <time>2021-08-08T15:23:09Z</time>
      </trkpt>
      <trkpt lat="48.99064" lon="0.05785">
        <ele>155.55</ele>
        <time>2021-08-08T15:23:10Z</time>
      </trkpt>
      <trkpt lat="48.9906" lon="0.05799">
        <ele>154.56</ele>
        <time>2021-08-08T15:23:11Z</time>
      </trkpt>
      <trkpt lat="48.99058" lon="0.05813">
        <ele>153.5</ele>
        <time>2021-08-08T15:23:12Z</time>
      </trkpt>
      <trkpt lat="48.99056" lon="0.05828">
        <ele>152.13</ele>
        <time>2021-08-08T15:23:13Z</time>
      </trkpt>
      <trkpt lat="48.99058" lon="0.05844">
        <ele>150.46</ele>
        <time>2021-08-08T15:23:14Z</time>
      </trkpt>
      <trkpt lat="48.9906" lon="0.05858">
        <ele>148.86</ele>
        <time>2021-08-08T15:23:15Z</time>
      </trkpt>
      <trkpt lat="48.9906" lon="0.05874">
        <ele>147.42</ele>
        <time>2021-08-08T15:23:16Z</time>
      </trkpt>
      <trkpt lat="48.9906" lon="0.05886">
        <ele>146.37</ele>
        <time>2021-08-08T15:23:17Z</time>
      </trkpt>
      <trkpt lat="48.99061" lon="0.05899">
        <ele>145.33</ele>
        <time>2021-08-08T15:23:18Z</time>
      </trkpt>
      <trkpt lat="48.99062" lon="0.0591">
        <ele>144.42</ele>
        <time>2021-08-08T15:23:19Z</time>
      </trkpt>
      <trkpt lat="48.99061" lon="0.0592">
        <ele>143.57</ele>
        <time>2021-08-08T15:23:20Z</time>
      </trkpt>
      <trkpt lat="48.99059" lon="0.05928">
        <ele>142.9</ele>
        <time>2021-08-08T15:23:21Z</time>
      </trkpt>
      <trkpt lat="48.99058" lon="0.05934">
        <ele>142.28</ele>
        <time>2021-08-08T15:23:22Z</time>
      </trkpt>
      <trkpt lat="48.99058" lon="0.0594">
        <ele>141.68</ele>
        <time>2021-08-08T15:23:23Z</time>
      </trkpt>
      <trkpt lat="48.99057" lon="0.05943">
        <ele>141.27</ele>
        <time>2021-08-08T15:23:24Z</time>
      </trkpt>
      <trkpt lat="48.99056" lon="0.05947">
        <ele>140.96</ele>
        <time>2021-08-08T15:23:25Z</time>
      </trkpt>
      <trkpt lat="48.99055" lon="0.0595">
        <ele>140.68</ele>
        <time>2021-08-08T15:23:26Z</time>
      </trkpt>
      <trkpt lat="48.99055" lon="0.05956">
        <ele>140.34</ele>
        <time>2021-08-08T15:23:27Z</time>
      </trkpt>
      <trkpt lat="48.99054" lon="0.05961">
        <ele>139.97</ele>
        <time>2021-08-08T15:23:28Z</time>
      </trkpt>
      <trkpt lat="48.99051" lon="0.05966">
        <ele>139.59</ele>
        <time>2021-08-08T15:23:29Z</time>
      </trkpt>
      <trkpt lat="48.99047" lon="0.0597">
        <ele>139.27</ele>
        <time>2021-08-08T15:23:30Z</time>
      </trkpt>
      <trkpt lat="48.99041" lon="0.05972">
        <ele>139.09</ele>
        <time>2021-08-08T15:23:31Z</time>
      </trkpt>
      <trkpt lat="48.99035" lon="0.05972">
        <ele>139.02</ele>
        <time>2021-08-08T15:23:32Z</time>
      </trkpt>
      <trkpt lat="48.9903" lon="0.05974">
        <ele>138.9</ele>
        <time>2021-08-08T15:23:33Z</time>
      </trkpt>
      <trkpt lat="48.99025" lon="0.05978">
        <ele>138.62</ele>
        <time>2021-08-08T15:23:34Z</time>
      </trkpt>
      <trkpt lat="48.99022" lon="0.05982">
        <ele>138.19</ele>
        <time>2021-08-08T15:23:35Z</time>
      </trkpt>
      <trkpt lat="48.99025" lon="0.05992">
        <ele>137.64</ele>
        <time>2021-08-08T15:23:36Z</time>
      </trkpt>
      <trkpt lat="48.99029" lon="0.06001">
        <ele>137.16</ele>
        <time>2021-08-08T15:23:37Z</time>
      </trkpt>
      <trkpt lat="48.99033" lon="0.06008">
        <ele>136.63</ele>
        <time>2021-08-08T15:23:38Z</time>
      </trkpt>
      <trkpt lat="48.99037" lon="0.06016">
        <ele>136.06</ele>
        <time>2021-08-08T15:23:39Z</time>
      </trkpt>
      <trkpt lat="48.99042" lon="0.06025">
        <ele>135.48</ele>
        <time>2021-08-08T15:23:40Z</time>
      </trkpt>
      <trkpt lat="48.99047" lon="0.06034">
        <ele>134.84</ele>
        <time>2021-08-08T15:23:41Z</time>
      </trkpt>
      <trkpt lat="48.99052" lon="0.06043">
        <ele>134.18</ele>
        <time>2021-08-08T15:23:42Z</time>
      </trkpt>
      <trkpt lat="48.99057" lon="0.06053">
        <ele>133.47</ele>
        <time>2021-08-08T15:23:43Z</time>
      </trkpt>
      <trkpt lat="48.99063" lon="0.06063">
        <ele>132.75</ele>
        <time>2021-08-08T15:23:44Z</time>
      </trkpt>
      <trkpt lat="48.99068" lon="0.06074">
        <ele>132</ele>
        <time>2021-08-08T15:23:45Z</time>
      </trkpt>
      <trkpt lat="48.99073" lon="0.06084">
        <ele>131.29</ele>
        <time>2021-08-08T15:23:46Z</time>
      </trkpt>
      <trkpt lat="48.99077" lon="0.06093">
        <ele>130.79</ele>
        <time>2021-08-08T15:23:47Z</time>
      </trkpt>
      <trkpt lat="48.99081" lon="0.06103">
        <ele>130.41</ele>
        <time>2021-08-08T15:23:48Z</time>
      </trkpt>
      <trkpt lat="48.99085" lon="0.06113">
        <ele>130.05</ele>
        <time>2021-08-08T15:23:49Z</time>
      </trkpt>
      <trkpt lat="48.9909" lon="0.06122">
        <ele>129.46</ele>
        <time>2021-08-08T15:23:50Z</time>
      </trkpt>
      <trkpt lat="48.99096" lon="0.0613">
        <ele>128.86</ele>
        <time>2021-08-08T15:23:51Z</time>
      </trkpt>
      <trkpt lat="48.99101" lon="0.0614">
        <ele>128.24</ele>
        <time>2021-08-08T15:23:52Z</time>
      </trkpt>
      <trkpt lat="48.99107" lon="0.06149">
        <ele>127.79</ele>
        <time>2021-08-08T15:23:53Z</time>
      </trkpt>
      <trkpt lat="48.99112" lon="0.06158">
        <ele>127.51</ele>
        <time>2021-08-08T15:23:54Z</time>
      </trkpt>
      <trkpt lat="48.99118" lon="0.06167">
        <ele>127.31</ele>
        <time>2021-08-08T15:23:55Z</time>
      </trkpt>
      <trkpt lat="48.99123" lon="0.06176">
        <ele>126.91</ele>
        <time>2021-08-08T15:23:56Z</time>
      </trkpt>
      <trkpt lat="48.99128" lon="0.06186">
        <ele>126.45</ele>
        <time>2021-08-08T15:23:57Z</time>
      </trkpt>
      <trkpt lat="48.99133" lon="0.06196">
        <ele>125.96</ele>
        <time>2021-08-08T15:23:58Z</time>
      </trkpt>
      <trkpt lat="48.99138" lon="0.06206">
        <ele>125.7</ele>
        <time>2021-08-08T15:23:59Z</time>
      </trkpt>
      <trkpt lat="48.99144" lon="0.06215">
        <ele>125.5</ele>
        <time>2021-08-08T15:24:00Z</time>
      </trkpt>
      <trkpt lat="48.99149" lon="0.06226">
        <ele>125.28</ele>
        <time>2021-08-08T15:24:01Z</time>
      </trkpt>
      <trkpt lat="48.99154" lon="0.06236">
        <ele>124.93</ele>
        <time>2021-08-08T15:24:02Z</time>
      </trkpt>
      <trkpt lat="48.99159" lon="0.06246">
        <ele>124.47</ele>
        <time>2021-08-08T15:24:03Z</time>
      </trkpt>
      <trkpt lat="48.99162" lon="0.06255">
        <ele>123.98</ele>
        <time>2021-08-08T15:24:04Z</time>
      </trkpt>
      <trkpt lat="48.99164" lon="0.06266">
        <ele>123.55</ele>
        <time>2021-08-08T15:24:05Z</time>
      </trkpt>
      <trkpt lat="48.99165" lon="0.06278">
        <ele>123.11</ele>
        <time>2021-08-08T15:24:06Z</time>
      </trkpt>
      <trkpt lat="48.99165" lon="0.06291">
        <ele>122.64</ele>
        <time>2021-08-08T15:24:07Z</time>
      </trkpt>
      <trkpt lat="48.99164" lon="0.06305">
        <ele>122.14</ele>
        <time>2021-08-08T15:24:08Z</time>
      </trkpt>
      <trkpt lat="48.99163" lon="0.06321">
        <ele>121.22</ele>
        <time>2021-08-08T15:24:09Z</time>
      </trkpt>
      <trkpt lat="48.99162" lon="0.06336">
        <ele>120.3</ele>
        <time>2021-08-08T15:24:10Z</time>
      </trkpt>
      <trkpt lat="48.99162" lon="0.06352">
        <ele>119.62</ele>
        <time>2021-08-08T15:24:11Z</time>
      </trkpt>
      <trkpt lat="48.99163" lon="0.06366">
        <ele>119.05</ele>
        <time>2021-08-08T15:24:12Z</time>
      </trkpt>
      <trkpt lat="48.99165" lon="0.06384">
        <ele>118.43</ele>
        <time>2021-08-08T15:24:13Z</time>
      </trkpt>
      <trkpt lat="48.99166" lon="0.06396">
        <ele>117.94</ele>
        <time>2021-08-08T15:24:14Z</time>
      </trkpt>
      <trkpt lat="48.99167" lon="0.06409">
        <ele>117.48</ele>
        <time>2021-08-08T15:24:15Z</time>
      </trkpt>
      <trkpt lat="48.99169" lon="0.06422">
        <ele>117.02</ele>
        <time>2021-08-08T15:24:16Z</time>
      </trkpt>
      <trkpt lat="48.99169" lon="0.06435">
        <ele>116.56</ele>
        <time>2021-08-08T15:24:17Z</time>
      </trkpt>
      <trkpt lat="48.99172" lon="0.06446">
        <ele>116.12</ele>
        <time>2021-08-08T15:24:18Z</time>
      </trkpt>
      <trkpt lat="48.99174" lon="0.06459">
        <ele>115.66</ele>
        <time>2021-08-08T15:24:19Z</time>
      </trkpt>
      <trkpt lat="48.99175" lon="0.06474">
        <ele>115.2</ele>
        <time>2021-08-08T15:24:20Z</time>
      </trkpt>
      <trkpt lat="48.99178" lon="0.06485">
        <ele>115.06</ele>
        <time>2021-08-08T15:24:21Z</time>
      </trkpt>
      <trkpt lat="48.99178" lon="0.065">
        <ele>115.01</ele>
        <time>2021-08-08T15:24:22Z</time>
      </trkpt>
      <trkpt lat="48.9918" lon="0.06513">
        <ele>114.84</ele>
        <time>2021-08-08T15:24:23Z</time>
      </trkpt>
      <trkpt lat="48.99182" lon="0.06526">
        <ele>114.6</ele>
        <time>2021-08-08T15:24:24Z</time>
      </trkpt>
      <trkpt lat="48.99184" lon="0.06538">
        <ele>114.35</ele>
        <time>2021-08-08T15:24:25Z</time>
      </trkpt>
      <trkpt lat="48.99186" lon="0.0655">
        <ele>114.15</ele>
        <time>2021-08-08T15:24:26Z</time>
      </trkpt>
      <trkpt lat="48.99189" lon="0.0656">
        <ele>114.04</ele>
        <time>2021-08-08T15:24:27Z</time>
      </trkpt>
      <trkpt lat="48.99192" lon="0.0657">
        <ele>114.01</ele>
        <time>2021-08-08T15:24:28Z</time>
      </trkpt>
      <trkpt lat="48.99195" lon="0.0658">
        <ele>113.99</ele>
        <time>2021-08-08T15:24:29Z</time>
      </trkpt>
      <trkpt lat="48.99196" lon="0.0659">
        <ele>113.97</ele>
        <time>2021-08-08T15:24:30Z</time>
      </trkpt>
      <trkpt lat="48.99196" lon="0.06599">
        <ele>113.97</ele>
        <time>2021-08-08T15:24:31Z</time>
      </trkpt>
      <trkpt lat="48.99196" lon="0.06608">
        <ele>113.99</ele>
        <time>2021-08-08T15:24:32Z</time>
      </trkpt>
      <trkpt lat="48.99195" lon="0.06616">
        <ele>114</ele>
        <time>2021-08-08T15:24:33Z</time>
      </trkpt>
      <trkpt lat="48.99194" lon="0.06625">
        <ele>114.02</ele>
        <time>2021-08-08T15:24:34Z</time>
      </trkpt>
      <trkpt lat="48.99191" lon="0.06633">
        <ele>114.09</ele>
        <time>2021-08-08T15:24:35Z</time>
      </trkpt>
      <trkpt lat="48.99189" lon="0.06641">
        <ele>114.19</ele>
        <time>2021-08-08T15:24:36Z</time>
      </trkpt>
      <trkpt lat="48.99187" lon="0.06649">
        <ele>114.43</ele>
        <time>2021-08-08T15:24:37Z</time>
      </trkpt>
      <trkpt lat="48.99185" lon="0.06656">
        <ele>114.66</ele>
        <time>2021-08-08T15:24:38Z</time>
      </trkpt>
      <trkpt lat="48.99182" lon="0.06664">
        <ele>114.86</ele>
        <time>2021-08-08T15:24:39Z</time>
      </trkpt>
      <trkpt lat="48.99179" lon="0.06672">
        <ele>115.03</ele>
        <time>2021-08-08T15:24:40Z</time>
      </trkpt>
      <trkpt lat="48.99177" lon="0.06679">
        <ele>115.21</ele>
        <time>2021-08-08T15:24:41Z</time>
      </trkpt>
      <trkpt lat="48.99175" lon="0.06687">
        <ele>115.43</ele>
        <time>2021-08-08T15:24:42Z</time>
      </trkpt>
      <trkpt lat="48.99173" lon="0.06695">
        <ele>115.68</ele>
        <time>2021-08-08T15:24:43Z</time>
      </trkpt>
      <trkpt lat="48.9917" lon="0.06702">
        <ele>115.81</ele>
        <time>2021-08-08T15:24:44Z</time>
      </trkpt>
      <trkpt lat="48.99168" lon="0.0671">
        <ele>115.91</ele>
        <time>2021-08-08T15:24:45Z</time>
      </trkpt>
      <trkpt lat="48.99166" lon="0.06717">
        <ele>115.98</ele>
        <time>2021-08-08T15:24:46Z</time>
      </trkpt>
      <trkpt lat="48.99165" lon="0.06724">
        <ele>116.09</ele>
        <time>2021-08-08T15:24:47Z</time>
      </trkpt>
      <trkpt lat="48.99163" lon="0.06731">
        <ele>116.31</ele>
        <time>2021-08-08T15:24:48Z</time>
      </trkpt>
      <trkpt lat="48.99161" lon="0.06738">
        <ele>116.55</ele>
        <time>2021-08-08T15:24:49Z</time>
      </trkpt>
      <trkpt lat="48.9916" lon="0.06745">
        <ele>116.78</ele>
        <time>2021-08-08T15:24:50Z</time>
      </trkpt>
      <trkpt lat="48.99158" lon="0.06753">
        <ele>116.95</ele>
        <time>2021-08-08T15:24:51Z</time>
      </trkpt>
      <trkpt lat="48.99156" lon="0.06759">
        <ele>117.07</ele>
        <time>2021-08-08T15:24:52Z</time>
      </trkpt>
      <trkpt lat="48.99153" lon="0.06766">
        <ele>117.21</ele>
        <time>2021-08-08T15:24:53Z</time>
      </trkpt>
      <trkpt lat="48.99151" lon="0.06773">
        <ele>117.38</ele>
        <time>2021-08-08T15:24:54Z</time>
      </trkpt>
      <trkpt lat="48.99149" lon="0.0678">
        <ele>117.56</ele>
        <time>2021-08-08T15:24:55Z</time>
      </trkpt>
      <trkpt lat="48.99147" lon="0.06787">
        <ele>117.67</ele>
        <time>2021-08-08T15:24:56Z</time>
      </trkpt>
      <trkpt lat="48.99145" lon="0.06794">
        <ele>117.75</ele>
        <time>2021-08-08T15:24:57Z</time>
      </trkpt>
      <trkpt lat="48.99143" lon="0.06801">
        <ele>117.82</ele>
        <time>2021-08-08T15:24:58Z</time>
      </trkpt>
      <trkpt lat="48.99141" lon="0.06808">
        <ele>117.96</ele>
        <time>2021-08-08T15:24:59Z</time>
      </trkpt>
      <trkpt lat="48.99139" lon="0.06814">
        <ele>118.19</ele>
        <time>2021-08-08T15:25:00Z</time>
      </trkpt>
      <trkpt lat="48.99138" lon="0.0682">
        <ele>118.46</ele>
        <time>2021-08-08T15:25:01Z</time>
      </trkpt>
      <trkpt lat="48.99136" lon="0.06827">
        <ele>118.76</ele>
        <time>2021-08-08T15:25:02Z</time>
      </trkpt>
      <trkpt lat="48.99135" lon="0.06834">
        <ele>119.08</ele>
        <time>2021-08-08T15:25:03Z</time>
      </trkpt>
      <trkpt lat="48.99133" lon="0.06841">
        <ele>119.53</ele>
        <time>2021-08-08T15:25:04Z</time>
      </trkpt>
      <trkpt lat="48.99131" lon="0.06848">
        <ele>119.98</ele>
        <time>2021-08-08T15:25:05Z</time>
      </trkpt>
      <trkpt lat="48.99129" lon="0.06854">
        <ele>120.41</ele>
        <time>2021-08-08T15:25:06Z</time>
      </trkpt>
      <trkpt lat="48.99128" lon="0.06861">
        <ele>120.81</ele>
        <time>2021-08-08T15:25:07Z</time>
      </trkpt>
      <trkpt lat="48.99126" lon="0.06867">
        <ele>121.08</ele>
        <time>2021-08-08T15:25:08Z</time>
      </trkpt>
      <trkpt lat="48.99125" lon="0.06872">
        <ele>121.3</ele>
        <time>2021-08-08T15:25:09Z</time>
      </trkpt>
      <trkpt lat="48.99123" lon="0.06877">
        <ele>121.5</ele>
        <time>2021-08-08T15:25:10Z</time>
      </trkpt>
      <trkpt lat="48.99122" lon="0.06882">
        <ele>121.69</ele>
        <time>2021-08-08T15:25:11Z</time>
      </trkpt>
      <trkpt lat="48.99121" lon="0.06887">
        <ele>121.86</ele>
        <time>2021-08-08T15:25:12Z</time>
      </trkpt>
      <trkpt lat="48.99119" lon="0.06892">
        <ele>122.04</ele>
        <time>2021-08-08T15:25:13Z</time>
      </trkpt>
      <trkpt lat="48.99117" lon="0.06897">
        <ele>122.23</ele>
        <time>2021-08-08T15:25:14Z</time>
      </trkpt>
      <trkpt lat="48.99116" lon="0.06903">
        <ele>122.41</ele>
        <time>2021-08-08T15:25:15Z</time>
      </trkpt>
      <trkpt lat="48.99114" lon="0.06908">
        <ele>122.61</ele>
        <time>2021-08-08T15:25:16Z</time>
      </trkpt>
      <trkpt lat="48.99112" lon="0.06913">
        <ele>122.79</ele>
        <time>2021-08-08T15:25:17Z</time>
      </trkpt>
      <trkpt lat="48.9911" lon="0.06918">
        <ele>122.99</ele>
        <time>2021-08-08T15:25:18Z</time>
      </trkpt>
      <trkpt lat="48.99109" lon="0.06924">
        <ele>123.24</ele>
        <time>2021-08-08T15:25:19Z</time>
      </trkpt>
      <trkpt lat="48.99107" lon="0.06929">
        <ele>123.49</ele>
        <time>2021-08-08T15:25:20Z</time>
      </trkpt>
      <trkpt lat="48.99106" lon="0.06935">
        <ele>123.75</ele>
        <time>2021-08-08T15:25:21Z</time>
      </trkpt>
      <trkpt lat="48.99104" lon="0.06941">
        <ele>124.01</ele>
        <time>2021-08-08T15:25:22Z</time>
      </trkpt>
      <trkpt lat="48.99103" lon="0.06947">
        <ele>124.25</ele>
        <time>2021-08-08T15:25:23Z</time>
      </trkpt>
      <trkpt lat="48.99102" lon="0.06953">
        <ele>124.52</ele>
        <time>2021-08-08T15:25:24Z</time>
      </trkpt>
      <trkpt lat="48.99101" lon="0.06959">
        <ele>124.78</ele>
        <time>2021-08-08T15:25:25Z</time>
      </trkpt>
      <trkpt lat="48.991" lon="0.06965">
        <ele>125.04</ele>
        <time>2021-08-08T15:25:26Z</time>
      </trkpt>
      <trkpt lat="48.99098" lon="0.06971">
        <ele>125.31</ele>
        <time>2021-08-08T15:25:27Z</time>
      </trkpt>
      <trkpt lat="48.99097" lon="0.06978">
        <ele>125.6</ele>
        <time>2021-08-08T15:25:28Z</time>
      </trkpt>
      <trkpt lat="48.99095" lon="0.06985">
        <ele>125.89</ele>
        <time>2021-08-08T15:25:29Z</time>
      </trkpt>
      <trkpt lat="48.99094" lon="0.06991">
        <ele>126.19</ele>
        <time>2021-08-08T15:25:30Z</time>
      </trkpt>
      <trkpt lat="48.99092" lon="0.06998">
        <ele>126.48</ele>
        <time>2021-08-08T15:25:31Z</time>
      </trkpt>
      <trkpt lat="48.99092" lon="0.07004">
        <ele>126.64</ele>
        <time>2021-08-08T15:25:32Z</time>
      </trkpt>
      <trkpt lat="48.9909" lon="0.0701">
        <ele>126.72</ele>
        <time>2021-08-08T15:25:33Z</time>
      </trkpt>
      <trkpt lat="48.99089" lon="0.07016">
        <ele>126.77</ele>
        <time>2021-08-08T15:25:34Z</time>
      </trkpt>
      <trkpt lat="48.99088" lon="0.07023">
        <ele>126.82</ele>
        <time>2021-08-08T15:25:35Z</time>
      </trkpt>
      <trkpt lat="48.99087" lon="0.07029">
        <ele>126.88</ele>
        <time>2021-08-08T15:25:36Z</time>
      </trkpt>
      <trkpt lat="48.99086" lon="0.07035">
        <ele>127.06</ele>
        <time>2021-08-08T15:25:37Z</time>
      </trkpt>
      <trkpt lat="48.99086" lon="0.07041">
        <ele>127.27</ele>
        <time>2021-08-08T15:25:38Z</time>
      </trkpt>
      <trkpt lat="48.99086" lon="0.07047">
        <ele>127.48</ele>
        <time>2021-08-08T15:25:39Z</time>
      </trkpt>
      <trkpt lat="48.99085" lon="0.07054">
        <ele>127.73</ele>
        <time>2021-08-08T15:25:40Z</time>
      </trkpt>
      <trkpt lat="48.99084" lon="0.0706">
        <ele>127.9</ele>
        <time>2021-08-08T15:25:41Z</time>
      </trkpt>
      <trkpt lat="48.99083" lon="0.07066">
        <ele>127.98</ele>
        <time>2021-08-08T15:25:42Z</time>
      </trkpt>
      <trkpt lat="48.99082" lon="0.07072">
        <ele>128.04</ele>
        <time>2021-08-08T15:25:43Z</time>
      </trkpt>
      <trkpt lat="48.99081" lon="0.07078">
        <ele>128.08</ele>
        <time>2021-08-08T15:25:44Z</time>
      </trkpt>
      <trkpt lat="48.9908" lon="0.07083">
        <ele>128.1</ele>
        <time>2021-08-08T15:25:45Z</time>
      </trkpt>
      <trkpt lat="48.99079" lon="0.07089">
        <ele>128.27</ele>
        <time>2021-08-08T15:25:46Z</time>
      </trkpt>
      <trkpt lat="48.99078" lon="0.07095">
        <ele>128.51</ele>
        <time>2021-08-08T15:25:47Z</time>
      </trkpt>
      <trkpt lat="48.99077" lon="0.07102">
        <ele>128.77</ele>
        <time>2021-08-08T15:25:48Z</time>
      </trkpt>
      <trkpt lat="48.99076" lon="0.07108">
        <ele>129.05</ele>
        <time>2021-08-08T15:25:49Z</time>
      </trkpt>
      <trkpt lat="48.99074" lon="0.07115">
        <ele>129.25</ele>
        <time>2021-08-08T15:25:50Z</time>
      </trkpt>
      <trkpt lat="48.99073" lon="0.0712">
        <ele>129.33</ele>
        <time>2021-08-08T15:25:51Z</time>
      </trkpt>
      <trkpt lat="48.99072" lon="0.07125">
        <ele>129.38</ele>
        <time>2021-08-08T15:25:52Z</time>
      </trkpt>
      <trkpt lat="48.99071" lon="0.07131">
        <ele>129.42</ele>
        <time>2021-08-08T15:25:53Z</time>
      </trkpt>
      <trkpt lat="48.99069" lon="0.07138">
        <ele>129.48</ele>
        <time>2021-08-08T15:25:54Z</time>
      </trkpt>
      <trkpt lat="48.99067" lon="0.07143">
        <ele>129.56</ele>
        <time>2021-08-08T15:25:55Z</time>
      </trkpt>
      <trkpt lat="48.99065" lon="0.07148">
        <ele>129.63</ele>
        <time>2021-08-08T15:25:56Z</time>
      </trkpt>
      <trkpt lat="48.99062" lon="0.07153">
        <ele>129.74</ele>
        <time>2021-08-08T15:25:57Z</time>
      </trkpt>
      <trkpt lat="48.99058" lon="0.07156">
        <ele>129.86</ele>
        <time>2021-08-08T15:25:58Z</time>
      </trkpt>
      <trkpt lat="48.99054" lon="0.07158">
        <ele>130.05</ele>
        <time>2021-08-08T15:25:59Z</time>
      </trkpt>
      <trkpt lat="48.99049" lon="0.0716">
        <ele>130.36</ele>
        <time>2021-08-08T15:26:00Z</time>
      </trkpt>
      <trkpt lat="48.99044" lon="0.07161">
        <ele>130.71</ele>
        <time>2021-08-08T15:26:01Z</time>
      </trkpt>
      <trkpt lat="48.9904" lon="0.07161">
        <ele>131.02</ele>
        <time>2021-08-08T15:26:02Z</time>
      </trkpt>
      <trkpt lat="48.99036" lon="0.07161">
        <ele>131.31</ele>
        <time>2021-08-08T15:26:03Z</time>
      </trkpt>
      <trkpt lat="48.99032" lon="0.07159">
        <ele>131.59</ele>
        <time>2021-08-08T15:26:04Z</time>
      </trkpt>
      <trkpt lat="48.99028" lon="0.07158">
        <ele>131.87</ele>
        <time>2021-08-08T15:26:05Z</time>
      </trkpt>
      <trkpt lat="48.99024" lon="0.07156">
        <ele>132.05</ele>
        <time>2021-08-08T15:26:06Z</time>
      </trkpt>
      <trkpt lat="48.99021" lon="0.07156">
        <ele>132.19</ele>
        <time>2021-08-08T15:26:07Z</time>
      </trkpt>
      <trkpt lat="48.99017" lon="0.07155">
        <ele>132.33</ele>
        <time>2021-08-08T15:26:08Z</time>
      </trkpt>
      <trkpt lat="48.99013" lon="0.07154">
        <ele>132.47</ele>
        <time>2021-08-08T15:26:09Z</time>
      </trkpt>
      <trkpt lat="48.99009" lon="0.07154">
        <ele>132.62</ele>
        <time>2021-08-08T15:26:10Z</time>
      </trkpt>
      <trkpt lat="48.99005" lon="0.07153">
        <ele>132.75</ele>
        <time>2021-08-08T15:26:11Z</time>
      </trkpt>
      <trkpt lat="48.99001" lon="0.07152">
        <ele>132.89</ele>
        <time>2021-08-08T15:26:12Z</time>
      </trkpt>
      <trkpt lat="48.98997" lon="0.07152">
        <ele>133.05</ele>
        <time>2021-08-08T15:26:13Z</time>
      </trkpt>
      <trkpt lat="48.98992" lon="0.07151">
        <ele>133.22</ele>
        <time>2021-08-08T15:26:14Z</time>
      </trkpt>
      <trkpt lat="48.98987" lon="0.0715">
        <ele>133.39</ele>
        <time>2021-08-08T15:26:15Z</time>
      </trkpt>
      <trkpt lat="48.98982" lon="0.0715">
        <ele>133.57</ele>
        <time>2021-08-08T15:26:16Z</time>
      </trkpt>
      <trkpt lat="48.98977" lon="0.07149">
        <ele>133.75</ele>
        <time>2021-08-08T15:26:17Z</time>
      </trkpt>
      <trkpt lat="48.98972" lon="0.07148">
        <ele>133.93</ele>
        <time>2021-08-08T15:26:18Z</time>
      </trkpt>
      <trkpt lat="48.98968" lon="0.07146">
        <ele>134.09</ele>
        <time>2021-08-08T15:26:19Z</time>
      </trkpt>
      <trkpt lat="48.98963" lon="0.07145">
        <ele>134.25</ele>
        <time>2021-08-08T15:26:20Z</time>
      </trkpt>
      <trkpt lat="48.98958" lon="0.07145">
        <ele>134.42</ele>
        <time>2021-08-08T15:26:21Z</time>
      </trkpt>
      <trkpt lat="48.98954" lon="0.07145">
        <ele>134.6</ele>
        <time>2021-08-08T15:26:22Z</time>
      </trkpt>
      <trkpt lat="48.98949" lon="0.07147">
        <ele>134.77</ele>
        <time>2021-08-08T15:26:23Z</time>
      </trkpt>
      <trkpt lat="48.98945" lon="0.07149">
        <ele>134.93</ele>
        <time>2021-08-08T15:26:24Z</time>
      </trkpt>
      <trkpt lat="48.9894" lon="0.07151">
        <ele>135.08</ele>
        <time>2021-08-08T15:26:25Z</time>
      </trkpt>
      <trkpt lat="48.98937" lon="0.07154">
        <ele>135.22</ele>
        <time>2021-08-08T15:26:26Z</time>
      </trkpt>
      <trkpt lat="48.98934" lon="0.07158">
        <ele>135.34</ele>
        <time>2021-08-08T15:26:27Z</time>
      </trkpt>
      <trkpt lat="48.98931" lon="0.07162">
        <ele>135.45</ele>
        <time>2021-08-08T15:26:28Z</time>
      </trkpt>
      <trkpt lat="48.98926" lon="0.07165">
        <ele>135.59</ele>
        <time>2021-08-08T15:26:29Z</time>
      </trkpt>
      <trkpt lat="48.98923" lon="0.07169">
        <ele>135.72</ele>
        <time>2021-08-08T15:26:30Z</time>
      </trkpt>
      <trkpt lat="48.98919" lon="0.07174">
        <ele>135.85</ele>
        <time>2021-08-08T15:26:31Z</time>
      </trkpt>
      <trkpt lat="48.98915" lon="0.07178">
        <ele>135.99</ele>
        <time>2021-08-08T15:26:32Z</time>
      </trkpt>
      <trkpt lat="48.98912" lon="0.07183">
        <ele>136.13</ele>
        <time>2021-08-08T15:26:33Z</time>
      </trkpt>
      <trkpt lat="48.98907" lon="0.07188">
        <ele>136.28</ele>
        <time>2021-08-08T15:26:34Z</time>
      </trkpt>
      <trkpt lat="48.98903" lon="0.07193">
        <ele>136.43</ele>
        <time>2021-08-08T15:26:35Z</time>
      </trkpt>
      <trkpt lat="48.98899" lon="0.07197">
        <ele>136.52</ele>
        <time>2021-08-08T15:26:36Z</time>
      </trkpt>
      <trkpt lat="48.98896" lon="0.07201">
        <ele>136.54</ele>
        <time>2021-08-08T15:26:37Z</time>
      </trkpt>
      <trkpt lat="48.98893" lon="0.07206">
        <ele>136.53</ele>
        <time>2021-08-08T15:26:38Z</time>
      </trkpt>
      <trkpt lat="48.98889" lon="0.0721">
        <ele>136.47</ele>
        <time>2021-08-08T15:26:39Z</time>
      </trkpt>
      <trkpt lat="48.98885" lon="0.07214">
        <ele>136.44</ele>
        <time>2021-08-08T15:26:40Z</time>
      </trkpt>
      <trkpt lat="48.98881" lon="0.07218">
        <ele>136.44</ele>
        <time>2021-08-08T15:26:41Z</time>
      </trkpt>
      <trkpt lat="48.98877" lon="0.07223">
        <ele>136.42</ele>
        <time>2021-08-08T15:26:42Z</time>
      </trkpt>
      <trkpt lat="48.98874" lon="0.07228">
        <ele>136.43</ele>
        <time>2021-08-08T15:26:43Z</time>
      </trkpt>
      <trkpt lat="48.9887" lon="0.07233">
        <ele>136.42</ele>
        <time>2021-08-08T15:26:44Z</time>
      </trkpt>
      <trkpt lat="48.98866" lon="0.07238">
        <ele>136.37</ele>
        <time>2021-08-08T15:26:45Z</time>
      </trkpt>
      <trkpt lat="48.98862" lon="0.07242">
        <ele>136.3</ele>
        <time>2021-08-08T15:26:46Z</time>
      </trkpt>
      <trkpt lat="48.98858" lon="0.07246">
        <ele>136.25</ele>
        <time>2021-08-08T15:26:47Z</time>
      </trkpt>
      <trkpt lat="48.98854" lon="0.07252">
        <ele>136.22</ele>
        <time>2021-08-08T15:26:48Z</time>
      </trkpt>
      <trkpt lat="48.9885" lon="0.07256">
        <ele>136.2</ele>
        <time>2021-08-08T15:26:49Z</time>
      </trkpt>
      <trkpt lat="48.98845" lon="0.07261">
        <ele>136.19</ele>
        <time>2021-08-08T15:26:50Z</time>
      </trkpt>
      <trkpt lat="48.98841" lon="0.07266">
        <ele>136.15</ele>
        <time>2021-08-08T15:26:51Z</time>
      </trkpt>
      <trkpt lat="48.98837" lon="0.07271">
        <ele>136.14</ele>
        <time>2021-08-08T15:26:52Z</time>
      </trkpt>
      <trkpt lat="48.98832" lon="0.07275">
        <ele>136.11</ele>
        <time>2021-08-08T15:26:53Z</time>
      </trkpt>
      <trkpt lat="48.98827" lon="0.07279">
        <ele>135.99</ele>
        <time>2021-08-08T15:26:54Z</time>
      </trkpt>
      <trkpt lat="48.98822" lon="0.07285">
        <ele>135.83</ele>
        <time>2021-08-08T15:26:55Z</time>
      </trkpt>
      <trkpt lat="48.98817" lon="0.07289">
        <ele>135.67</ele>
        <time>2021-08-08T15:26:56Z</time>
      </trkpt>
      <trkpt lat="48.98812" lon="0.07293">
        <ele>135.5</ele>
        <time>2021-08-08T15:26:57Z</time>
      </trkpt>
      <trkpt lat="48.98807" lon="0.07298">
        <ele>135.35</ele>
        <time>2021-08-08T15:26:58Z</time>
      </trkpt>
      <trkpt lat="48.98803" lon="0.07302">
        <ele>135.22</ele>
        <time>2021-08-08T15:26:59Z</time>
      </trkpt>
      <trkpt lat="48.98797" lon="0.07306">
        <ele>135.06</ele>
        <time>2021-08-08T15:27:00Z</time>
      </trkpt>
      <trkpt lat="48.98791" lon="0.0731">
        <ele>134.9</ele>
        <time>2021-08-08T15:27:01Z</time>
      </trkpt>
      <trkpt lat="48.98786" lon="0.07314">
        <ele>134.75</ele>
        <time>2021-08-08T15:27:02Z</time>
      </trkpt>
      <trkpt lat="48.98781" lon="0.07318">
        <ele>134.6</ele>
        <time>2021-08-08T15:27:03Z</time>
      </trkpt>
      <trkpt lat="48.98775" lon="0.07322">
        <ele>134.46</ele>
        <time>2021-08-08T15:27:04Z</time>
      </trkpt>
      <trkpt lat="48.9877" lon="0.07326">
        <ele>134.33</ele>
        <time>2021-08-08T15:27:05Z</time>
      </trkpt>
      <trkpt lat="48.98764" lon="0.07329">
        <ele>134.2</ele>
        <time>2021-08-08T15:27:06Z</time>
      </trkpt>
      <trkpt lat="48.98758" lon="0.07334">
        <ele>134.04</ele>
        <time>2021-08-08T15:27:07Z</time>
      </trkpt>
      <trkpt lat="48.98753" lon="0.07339">
        <ele>133.86</ele>
        <time>2021-08-08T15:27:08Z</time>
      </trkpt>
      <trkpt lat="48.98748" lon="0.07345">
        <ele>133.73</ele>
        <time>2021-08-08T15:27:09Z</time>
      </trkpt>
      <trkpt lat="48.98743" lon="0.07351">
        <ele>133.66</ele>
        <time>2021-08-08T15:27:10Z</time>
      </trkpt>
      <trkpt lat="48.98739" lon="0.07357">
        <ele>133.59</ele>
        <time>2021-08-08T15:27:11Z</time>
      </trkpt>
      <trkpt lat="48.98735" lon="0.07363">
        <ele>133.53</ele>
        <time>2021-08-08T15:27:12Z</time>
      </trkpt>
      <trkpt lat="48.98732" lon="0.07369">
        <ele>133.49</ele>
        <time>2021-08-08T15:27:13Z</time>
      </trkpt>
      <trkpt lat="48.98728" lon="0.07376">
        <ele>133.41</ele>
        <time>2021-08-08T15:27:14Z</time>
      </trkpt>
      <trkpt lat="48.98725" lon="0.07383">
        <ele>133.26</ele>
        <time>2021-08-08T15:27:15Z</time>
      </trkpt>
      <trkpt lat="48.98721" lon="0.07389">
        <ele>133.1</ele>
        <time>2021-08-08T15:27:16Z</time>
      </trkpt>
      <trkpt lat="48.98718" lon="0.07395">
        <ele>133.11</ele>
        <time>2021-08-08T15:27:17Z</time>
      </trkpt>
      <trkpt lat="48.98715" lon="0.074">
        <ele>133.14</ele>
        <time>2021-08-08T15:27:18Z</time>
      </trkpt>
      <trkpt lat="48.98712" lon="0.07405">
        <ele>133.15</ele>
        <time>2021-08-08T15:27:19Z</time>
      </trkpt>
      <trkpt lat="48.98708" lon="0.0741">
        <ele>133.13</ele>
        <time>2021-08-08T15:27:20Z</time>
      </trkpt>
      <trkpt lat="48.98704" lon="0.07415">
        <ele>133.07</ele>
        <time>2021-08-08T15:27:21Z</time>
      </trkpt>
      <trkpt lat="48.987" lon="0.0742">
        <ele>132.94</ele>
        <time>2021-08-08T15:27:22Z</time>
      </trkpt>
      <trkpt lat="48.98695" lon="0.07425">
        <ele>132.78</ele>
        <time>2021-08-08T15:27:23Z</time>
      </trkpt>
      <trkpt lat="48.9869" lon="0.0743">
        <ele>132.7</ele>
        <time>2021-08-08T15:27:24Z</time>
      </trkpt>
      <trkpt lat="48.98686" lon="0.07434">
        <ele>132.68</ele>
        <time>2021-08-08T15:27:25Z</time>
      </trkpt>
      <trkpt lat="48.9868" lon="0.0744">
        <ele>132.68</ele>
        <time>2021-08-08T15:27:26Z</time>
      </trkpt>
      <trkpt lat="48.98676" lon="0.07444">
        <ele>132.68</ele>
        <time>2021-08-08T15:27:27Z</time>
      </trkpt>
      <trkpt lat="48.9867" lon="0.0745">
        <ele>132.81</ele>
        <time>2021-08-08T15:27:28Z</time>
      </trkpt>
      <trkpt lat="48.98666" lon="0.07456">
        <ele>132.95</ele>
        <time>2021-08-08T15:27:29Z</time>
      </trkpt>
      <trkpt lat="48.98663" lon="0.07462">
        <ele>133.08</ele>
        <time>2021-08-08T15:27:30Z</time>
      </trkpt>
      <trkpt lat="48.9866" lon="0.0747">
        <ele>133.18</ele>
        <time>2021-08-08T15:27:31Z</time>
      </trkpt>
      <trkpt lat="48.98658" lon="0.07477">
        <ele>133.15</ele>
        <time>2021-08-08T15:27:32Z</time>
      </trkpt>
      <trkpt lat="48.98657" lon="0.07485">
        <ele>132.98</ele>
        <time>2021-08-08T15:27:33Z</time>
      </trkpt>
      <trkpt lat="48.98656" lon="0.07492">
        <ele>132.75</ele>
        <time>2021-08-08T15:27:34Z</time>
      </trkpt>
      <trkpt lat="48.98654" lon="0.075">
        <ele>132.54</ele>
        <time>2021-08-08T15:27:35Z</time>
      </trkpt>
      <trkpt lat="48.98653" lon="0.07507">
        <ele>132.52</ele>
        <time>2021-08-08T15:27:36Z</time>
      </trkpt>
      <trkpt lat="48.98651" lon="0.07514">
        <ele>132.55</ele>
        <time>2021-08-08T15:27:37Z</time>
      </trkpt>
      <trkpt lat="48.9865" lon="0.07522">
        <ele>132.58</ele>
        <time>2021-08-08T15:27:38Z</time>
      </trkpt>
      <trkpt lat="48.9865" lon="0.07529">
        <ele>132.62</ele>
        <time>2021-08-08T15:27:39Z</time>
      </trkpt>
      <trkpt lat="48.98649" lon="0.07535">
        <ele>132.69</ele>
        <time>2021-08-08T15:27:40Z</time>
      </trkpt>
      <trkpt lat="48.98649" lon="0.0754">
        <ele>132.76</ele>
        <time>2021-08-08T15:27:41Z</time>
      </trkpt>
      <trkpt lat="48.9865" lon="0.07546">
        <ele>132.84</ele>
        <time>2021-08-08T15:27:42Z</time>
      </trkpt>
      <trkpt lat="48.9865" lon="0.07551">
        <ele>132.91</ele>
        <time>2021-08-08T15:27:43Z</time>
      </trkpt>
      <trkpt lat="48.98651" lon="0.07555">
        <ele>132.97</ele>
        <time>2021-08-08T15:27:44Z</time>
      </trkpt>
      <trkpt lat="48.98651" lon="0.0756">
        <ele>133.21</ele>
        <time>2021-08-08T15:27:45Z</time>
      </trkpt>
      <trkpt lat="48.98651" lon="0.07564">
        <ele>133.47</ele>
        <time>2021-08-08T15:27:46Z</time>
      </trkpt>
      <trkpt lat="48.98651" lon="0.07568">
        <ele>133.79</ele>
        <time>2021-08-08T15:27:47Z</time>
      </trkpt>
      <trkpt lat="48.98651" lon="0.07574">
        <ele>134.14</ele>
        <time>2021-08-08T15:27:48Z</time>
      </trkpt>
      <trkpt lat="48.9865" lon="0.07579">
        <ele>134.52</ele>
        <time>2021-08-08T15:27:49Z</time>
      </trkpt>
      <trkpt lat="48.9865" lon="0.07584">
        <ele>134.87</ele>
        <time>2021-08-08T15:27:50Z</time>
      </trkpt>
      <trkpt lat="48.98649" lon="0.07588">
        <ele>135.21</ele>
        <time>2021-08-08T15:27:51Z</time>
      </trkpt>
      <trkpt lat="48.98649" lon="0.07593">
        <ele>135.53</ele>
        <time>2021-08-08T15:27:52Z</time>
      </trkpt>
      <trkpt lat="48.98649" lon="0.07597">
        <ele>135.86</ele>
        <time>2021-08-08T15:27:53Z</time>
      </trkpt>
      <trkpt lat="48.98649" lon="0.07601">
        <ele>136.17</ele>
        <time>2021-08-08T15:27:54Z</time>
      </trkpt>
      <trkpt lat="48.98648" lon="0.07605">
        <ele>136.45</ele>
        <time>2021-08-08T15:27:55Z</time>
      </trkpt>
      <trkpt lat="48.98648" lon="0.07609">
        <ele>136.73</ele>
        <time>2021-08-08T15:27:56Z</time>
      </trkpt>
      <trkpt lat="48.98649" lon="0.07614">
        <ele>137.05</ele>
        <time>2021-08-08T15:27:57Z</time>
      </trkpt>
      <trkpt lat="48.98649" lon="0.07618">
        <ele>137.36</ele>
        <time>2021-08-08T15:27:58Z</time>
      </trkpt>
      <trkpt lat="48.98649" lon="0.07624">
        <ele>137.74</ele>
        <time>2021-08-08T15:27:59Z</time>
      </trkpt>
      <trkpt lat="48.98648" lon="0.07628">
        <ele>138.09</ele>
        <time>2021-08-08T15:28:00Z</time>
      </trkpt>
      <trkpt lat="48.98647" lon="0.07634">
        <ele>138.46</ele>
        <time>2021-08-08T15:28:01Z</time>
      </trkpt>
      <trkpt lat="48.98647" lon="0.07638">
        <ele>138.79</ele>
        <time>2021-08-08T15:28:02Z</time>
      </trkpt>
      <trkpt lat="48.98647" lon="0.07643">
        <ele>139.16</ele>
        <time>2021-08-08T15:28:03Z</time>
      </trkpt>
      <trkpt lat="48.98646" lon="0.07649">
        <ele>139.57</ele>
        <time>2021-08-08T15:28:04Z</time>
      </trkpt>
      <trkpt lat="48.98646" lon="0.07655">
        <ele>139.98</ele>
        <time>2021-08-08T15:28:05Z</time>
      </trkpt>
      <trkpt lat="48.98646" lon="0.0766">
        <ele>140.35</ele>
        <time>2021-08-08T15:28:06Z</time>
      </trkpt>
      <trkpt lat="48.98645" lon="0.07666">
        <ele>140.75</ele>
        <time>2021-08-08T15:28:07Z</time>
      </trkpt>
      <trkpt lat="48.98645" lon="0.0767">
        <ele>141.11</ele>
        <time>2021-08-08T15:28:08Z</time>
      </trkpt>
      <trkpt lat="48.98643" lon="0.07676">
        <ele>141.5</ele>
        <time>2021-08-08T15:28:09Z</time>
      </trkpt>
      <trkpt lat="48.98643" lon="0.07682">
        <ele>141.92</ele>
        <time>2021-08-08T15:28:10Z</time>
      </trkpt>
      <trkpt lat="48.98643" lon="0.07688">
        <ele>142.34</ele>
        <time>2021-08-08T15:28:11Z</time>
      </trkpt>
      <trkpt lat="48.98643" lon="0.07693">
        <ele>142.7</ele>
        <time>2021-08-08T15:28:12Z</time>
      </trkpt>
      <trkpt lat="48.98643" lon="0.07698">
        <ele>143.11</ele>
        <time>2021-08-08T15:28:13Z</time>
      </trkpt>
      <trkpt lat="48.98643" lon="0.07703">
        <ele>143.45</ele>
        <time>2021-08-08T15:28:14Z</time>
      </trkpt>
      <trkpt lat="48.98643" lon="0.07707">
        <ele>143.79</ele>
        <time>2021-08-08T15:28:15Z</time>
      </trkpt>
      <trkpt lat="48.98644" lon="0.07712">
        <ele>144.13</ele>
        <time>2021-08-08T15:28:16Z</time>
      </trkpt>
      <trkpt lat="48.98644" lon="0.07716">
        <ele>144.42</ele>
        <time>2021-08-08T15:28:17Z</time>
      </trkpt>
      <trkpt lat="48.98644" lon="0.07719">
        <ele>144.67</ele>
        <time>2021-08-08T15:28:18Z</time>
      </trkpt>
      <trkpt lat="48.98645" lon="0.07724">
        <ele>144.97</ele>
        <time>2021-08-08T15:28:19Z</time>
      </trkpt>
      <trkpt lat="48.98647" lon="0.07729">
        <ele>145.32</ele>
        <time>2021-08-08T15:28:20Z</time>
      </trkpt>
      <trkpt lat="48.98647" lon="0.07732">
        <ele>145.6</ele>
        <time>2021-08-08T15:28:21Z</time>
      </trkpt>
      <trkpt lat="48.98647" lon="0.07735">
        <ele>145.85</ele>
        <time>2021-08-08T15:28:22Z</time>
      </trkpt>
      <trkpt lat="48.98647" lon="0.07739">
        <ele>146.1</ele>
        <time>2021-08-08T15:28:23Z</time>
      </trkpt>
      <trkpt lat="48.98647" lon="0.07743">
        <ele>146.38</ele>
        <time>2021-08-08T15:28:24Z</time>
      </trkpt>
      <trkpt lat="48.98648" lon="0.07745">
        <ele>146.56</ele>
        <time>2021-08-08T15:28:25Z</time>
      </trkpt>
      <trkpt lat="48.98649" lon="0.07747">
        <ele>146.72</ele>
        <time>2021-08-08T15:28:26Z</time>
      </trkpt>
      <trkpt lat="48.98648" lon="0.07749">
        <ele>146.88</ele>
        <time>2021-08-08T15:28:27Z</time>
      </trkpt>
      <trkpt lat="48.98649" lon="0.07752">
        <ele>147.06</ele>
        <time>2021-08-08T15:28:28Z</time>
      </trkpt>
      <trkpt lat="48.98649" lon="0.07755">
        <ele>147.25</ele>
        <time>2021-08-08T15:28:29Z</time>
      </trkpt>
      <trkpt lat="48.9865" lon="0.07757">
        <ele>147.44</ele>
        <time>2021-08-08T15:28:30Z</time>
      </trkpt>
      <trkpt lat="48.9865" lon="0.0776">
        <ele>147.62</ele>
        <time>2021-08-08T15:28:31Z</time>
      </trkpt>
      <trkpt lat="48.9865" lon="0.07762">
        <ele>147.81</ele>
        <time>2021-08-08T15:28:32Z</time>
      </trkpt>
      <trkpt lat="48.9865" lon="0.07765">
        <ele>147.99</ele>
        <time>2021-08-08T15:28:33Z</time>
      </trkpt>
      <trkpt lat="48.9865" lon="0.07768">
        <ele>148.18</ele>
        <time>2021-08-08T15:28:34Z</time>
      </trkpt>
      <trkpt lat="48.9865" lon="0.0777">
        <ele>148.37</ele>
        <time>2021-08-08T15:28:35Z</time>
      </trkpt>
      <trkpt lat="48.9865" lon="0.07774">
        <ele>148.61</ele>
        <time>2021-08-08T15:28:36Z</time>
      </trkpt>
      <trkpt lat="48.98649" lon="0.07778">
        <ele>148.88</ele>
        <time>2021-08-08T15:28:37Z</time>
      </trkpt>
      <trkpt lat="48.98649" lon="0.07781">
        <ele>149.12</ele>
        <time>2021-08-08T15:28:38Z</time>
      </trkpt>
      <trkpt lat="48.9865" lon="0.07785">
        <ele>149.38</ele>
        <time>2021-08-08T15:28:39Z</time>
      </trkpt>
      <trkpt lat="48.9865" lon="0.07788">
        <ele>149.62</ele>
        <time>2021-08-08T15:28:40Z</time>
      </trkpt>
      <trkpt lat="48.9865" lon="0.07791">
        <ele>149.86</ele>
        <time>2021-08-08T15:28:41Z</time>
      </trkpt>
      <trkpt lat="48.9865" lon="0.07795">
        <ele>150.12</ele>
        <time>2021-08-08T15:28:42Z</time>
      </trkpt>
      <trkpt lat="48.9865" lon="0.07797">
        <ele>150.32</ele>
        <time>2021-08-08T15:28:43Z</time>
      </trkpt>
      <trkpt lat="48.9865" lon="0.07799">
        <ele>150.48</ele>
        <time>2021-08-08T15:28:44Z</time>
      </trkpt>
      <trkpt lat="48.9865" lon="0.07801">
        <ele>150.62</ele>
        <time>2021-08-08T15:28:45Z</time>
      </trkpt>
      <trkpt lat="48.98649" lon="0.07804">
        <ele>150.78</ele>
        <time>2021-08-08T15:28:46Z</time>
      </trkpt>
      <trkpt lat="48.98647" lon="0.07805">
        <ele>150.91</ele>
        <time>2021-08-08T15:28:47Z</time>
      </trkpt>
      <trkpt lat="48.98646" lon="0.07806">
        <ele>150.99</ele>
        <time>2021-08-08T15:28:48Z</time>
      </trkpt>
      <trkpt lat="48.98643" lon="0.07807">
        <ele>151.08</ele>
        <time>2021-08-08T15:28:49Z</time>
      </trkpt>
      <trkpt lat="48.98642" lon="0.07809">
        <ele>151.28</ele>
        <time>2021-08-08T15:28:50Z</time>
      </trkpt>
      <trkpt lat="48.9864" lon="0.07812">
        <ele>151.55</ele>
        <time>2021-08-08T15:28:51Z</time>
      </trkpt>
      <trkpt lat="48.9864" lon="0.07813">
        <ele>151.75</ele>
        <time>2021-08-08T15:28:52Z</time>
      </trkpt>
      <trkpt lat="48.98639" lon="0.07815">
        <ele>151.98</ele>
        <time>2021-08-08T15:28:53Z</time>
      </trkpt>
      <trkpt lat="48.98637" lon="0.07817">
        <ele>152.17</ele>
        <time>2021-08-08T15:28:54Z</time>
      </trkpt>
      <trkpt lat="48.98636" lon="0.07819">
        <ele>152.31</ele>
        <time>2021-08-08T15:28:55Z</time>
      </trkpt>
      <trkpt lat="48.98635" lon="0.0782">
        <ele>152.45</ele>
        <time>2021-08-08T15:28:56Z</time>
      </trkpt>
      <trkpt lat="48.98634" lon="0.07823">
        <ele>152.66</ele>
        <time>2021-08-08T15:28:57Z</time>
      </trkpt>
      <trkpt lat="48.98634" lon="0.07825">
        <ele>152.88</ele>
        <time>2021-08-08T15:28:58Z</time>
      </trkpt>
      <trkpt lat="48.98634" lon="0.07826">
        <ele>153.04</ele>
        <time>2021-08-08T15:28:59Z</time>
      </trkpt>
      <trkpt lat="48.98634" lon="0.07829">
        <ele>153.28</ele>
        <time>2021-08-08T15:29:00Z</time>
      </trkpt>
      <trkpt lat="48.98633" lon="0.07833">
        <ele>153.58</ele>
        <time>2021-08-08T15:29:01Z</time>
      </trkpt>
      <trkpt lat="48.98633" lon="0.07836">
        <ele>153.86</ele>
        <time>2021-08-08T15:29:02Z</time>
      </trkpt>
      <trkpt lat="48.98633" lon="0.07839">
        <ele>154.11</ele>
        <time>2021-08-08T15:29:03Z</time>
      </trkpt>
      <trkpt lat="48.98633" lon="0.07842">
        <ele>154.36</ele>
        <time>2021-08-08T15:29:04Z</time>
      </trkpt>
      <trkpt lat="48.98632" lon="0.07846">
        <ele>154.65</ele>
        <time>2021-08-08T15:29:05Z</time>
      </trkpt>
      <trkpt lat="48.98633" lon="0.07847">
        <ele>154.84</ele>
        <time>2021-08-08T15:29:06Z</time>
      </trkpt>
      <trkpt lat="48.98633" lon="0.07849">
        <ele>154.98</ele>
        <time>2021-08-08T15:29:07Z</time>
      </trkpt>
      <trkpt lat="48.98633" lon="0.07851">
        <ele>155.12</ele>
        <time>2021-08-08T15:29:08Z</time>
      </trkpt>
      <trkpt lat="48.98633" lon="0.07852">
        <ele>155.21</ele>
        <time>2021-08-08T15:29:09Z</time>
      </trkpt>
      <trkpt lat="48.98634" lon="0.07853">
        <ele>155.29</ele>
        <time>2021-08-08T15:29:10Z</time>
      </trkpt>
      <trkpt lat="48.98634" lon="0.07853">
        <ele>155.35</ele>
        <time>2021-08-08T15:29:11Z</time>
      </trkpt>
      <trkpt lat="48.98634" lon="0.07853">
        <ele>155.37</ele>
        <time>2021-08-08T15:29:12Z</time>
      </trkpt>
      <trkpt lat="48.98631" lon="0.07855">
        <ele>155.48</ele>
        <time>2021-08-08T15:29:13Z</time>
      </trkpt>
      <trkpt lat="48.9863" lon="0.07857">
        <ele>155.59</ele>
        <time>2021-08-08T15:29:14Z</time>
      </trkpt>
      <trkpt lat="48.9863" lon="0.07857">
        <ele>155.67</ele>
        <time>2021-08-08T15:29:15Z</time>
      </trkpt>
      <trkpt lat="48.9863" lon="0.07859">
        <ele>155.77</ele>
        <time>2021-08-08T15:29:16Z</time>
      </trkpt>
      <trkpt lat="48.9863" lon="0.0786">
        <ele>155.85</ele>
        <time>2021-08-08T15:29:17Z</time>
      </trkpt>
      <trkpt lat="48.98629" lon="0.07861">
        <ele>155.95</ele>
        <time>2021-08-08T15:29:18Z</time>
      </trkpt>
      <trkpt lat="48.98629" lon="0.07863">
        <ele>156.07</ele>
        <time>2021-08-08T15:29:19Z</time>
      </trkpt>
      <trkpt lat="48.98629" lon="0.07864">
        <ele>156.18</ele>
        <time>2021-08-08T15:29:20Z</time>
      </trkpt>
      <trkpt lat="48.98629" lon="0.07865">
        <ele>156.23</ele>
        <time>2021-08-08T15:29:21Z</time>
      </trkpt>
      <trkpt lat="48.98629" lon="0.07866">
        <ele>156.29</ele>
        <time>2021-08-08T15:29:22Z</time>
      </trkpt>
      <trkpt lat="48.98629" lon="0.07866">
        <ele>156.31</ele>
        <time>2021-08-08T15:29:23Z</time>
      </trkpt>
      <trkpt lat="48.98629" lon="0.07866">
        <ele>156.31</ele>
        <time>2021-08-08T15:29:24Z</time>
      </trkpt>
      <trkpt lat="48.98629" lon="0.07866">
        <ele>156.32</ele>
        <time>2021-08-08T15:29:25Z</time>
      </trkpt>
      <trkpt lat="48.98629" lon="0.07866">
        <ele>156.32</ele>
        <time>2021-08-08T15:29:26Z</time>
      </trkpt>
      <trkpt lat="48.98629" lon="0.07866">
        <ele>156.32</ele>
        <time>2021-08-08T15:29:27Z</time>
      </trkpt>
      <trkpt lat="48.98629" lon="0.07866">
        <ele>156.32</ele>
        <time>2021-08-08T15:29:28Z</time>
      </trkpt>
      <trkpt lat="48.98629" lon="0.07866">
        <ele>156.32</ele>
        <time>2021-08-08T15:29:29Z</time>
      </trkpt>
      <trkpt lat="48.98629" lon="0.07866">
        <ele>156.32</ele>
        <time>2021-08-08T15:29:30Z</time>
      </trkpt>
      <trkpt lat="48.98629" lon="0.07866">
        <ele>156.32</ele>
        <time>2021-08-08T15:29:31Z</time>
      </trkpt>
      <trkpt lat="48.98629" lon="0.07866">
        <ele>156.32</ele>
        <time>2021-08-08T15:29:32Z</time>
      </trkpt>
      <trkpt lat="48.98629" lon="0.07866">
        <ele>156.32</ele>
        <time>2021-08-08T15:29:33Z</time>
      </trkpt>
      <trkpt lat="48.98629" lon="0.07866">
        <ele>156.32</ele>
        <time>2021-08-08T15:29:34Z</time>
      </trkpt>
      <trkpt lat="48.98629" lon="0.07866">
        <ele>156.32</ele>
        <time>2021-08-08T15:29:35Z</time>
      </trkpt>
      <trkpt lat="48.98629" lon="0.07866">
        <ele>156.32</ele>
        <time>2021-08-08T15:29:36Z</time>
      </trkpt>
      <trkpt lat="48.98629" lon="0.07866">
        <ele>156.32</ele>
        <time>2021-08-08T15:29:37Z</time>
      </trkpt>
      <trkpt lat="48.98629" lon="0.07866">
        <ele>156.32</ele>
        <time>2021-08-08T15:29:38Z</time>
      </trkpt>
      <trkpt lat="48.98629" lon="0.07866">
        <ele>156.32</ele>
        <time>2021-08-08T15:29:39Z</time>
      </trkpt>
      <trkpt lat="48.98629" lon="0.07866">
        <ele>156.32</ele>
        <time>2021-08-08T15:29:40Z</time>
      </trkpt>
      <trkpt lat="48.98629" lon="0.07866">
        <ele>156.32</ele>
        <time>2021-08-08T15:29:41Z</time>
      </trkpt>
      <trkpt lat="48.98629" lon="0.07866">
        <ele>156.32</ele>
        <time>2021-08-08T15:29:42Z</time>
      </trkpt>
      <trkpt lat="48.98629" lon="0.07866">
        <ele>156.32</ele>
        <time>2021-08-08T15:29:43Z</time>
      </trkpt>
      <trkpt lat="48.98629" lon="0.07866">
        <ele>156.32</ele>
        <time>2021-08-08T15:29:44Z</time>
      </trkpt>
      <trkpt lat="48.98629" lon="0.07866">
        <ele>156.32</ele>
        <time>2021-08-08T15:29:45Z</time>
      </trkpt>
      <trkpt lat="48.98629" lon="0.07866">
        <ele>156.32</ele>
        <time>2021-08-08T15:29:46Z</time>
      </trkpt>
      <trkpt lat="48.98629" lon="0.07866">
        <ele>156.32</ele>
        <time>2021-08-08T15:29:47Z</time>
      </trkpt>
      <trkpt lat="48.98629" lon="0.07866">
        <ele>156.32</ele>
        <time>2021-08-08T15:29:48Z</time>
      </trkpt>
      <trkpt lat="48.98629" lon="0.07866">
        <ele>156.32</ele>
        <time>2021-08-08T15:29:49Z</time>
      </trkpt>
      <trkpt lat="48.98629" lon="0.07866">
        <ele>156.32</ele>
        <time>2021-08-08T15:29:50Z</time>
      </trkpt>
      <trkpt lat="48.98629" lon="0.07866">
        <ele>156.32</ele>
        <time>2021-08-08T15:29:51Z</time>
      </trkpt>
      <trkpt lat="48.98629" lon="0.07866">
        <ele>156.32</ele>
        <time>2021-08-08T15:29:52Z</time>
      </trkpt>
      <trkpt lat="48.98629" lon="0.07866">
        <ele>156.32</ele>
        <time>2021-08-08T15:29:53Z</time>
      </trkpt>
      <trkpt lat="48.98629" lon="0.07866">
        <ele>156.32</ele>
        <time>2021-08-08T15:29:54Z</time>
      </trkpt>
      <trkpt lat="48.98629" lon="0.07866">
        <ele>156.32</ele>
        <time>2021-08-08T15:29:55Z</time>
      </trkpt>
      <trkpt lat="48.98629" lon="0.07866">
        <ele>156.32</ele>
        <time>2021-08-08T15:29:56Z</time>
      </trkpt>
      <trkpt lat="48.98627" lon="0.07881">
        <ele>157.1</ele>
        <time>2021-08-08T15:29:57Z</time>
      </trkpt>
      <trkpt lat="48.98626" lon="0.07883">
        <ele>157.44</ele>
        <time>2021-08-08T15:29:58Z</time>
      </trkpt>
      <trkpt lat="48.98624" lon="0.07886">
        <ele>157.7</ele>
        <time>2021-08-08T15:29:59Z</time>
      </trkpt>
      <trkpt lat="48.98623" lon="0.07888">
        <ele>157.86</ele>
        <time>2021-08-08T15:30:00Z</time>
      </trkpt>
      <trkpt lat="48.98621" lon="0.07891">
        <ele>158.05</ele>
        <time>2021-08-08T15:30:01Z</time>
      </trkpt>
      <trkpt lat="48.98621" lon="0.07892">
        <ele>158.17</ele>
        <time>2021-08-08T15:30:02Z</time>
      </trkpt>
      <trkpt lat="48.98619" lon="0.07894">
        <ele>158.33</ele>
        <time>2021-08-08T15:30:03Z</time>
      </trkpt>
      <trkpt lat="48.98619" lon="0.07895">
        <ele>158.42</ele>
        <time>2021-08-08T15:30:04Z</time>
      </trkpt>
      <trkpt lat="48.98618" lon="0.07896">
        <ele>158.5</ele>
        <time>2021-08-08T15:30:05Z</time>
      </trkpt>
      <trkpt lat="48.98618" lon="0.07897">
        <ele>158.54</ele>
        <time>2021-08-08T15:30:06Z</time>
      </trkpt>
      <trkpt lat="48.98618" lon="0.07897">
        <ele>158.6</ele>
        <time>2021-08-08T15:30:07Z</time>
      </trkpt>
      <trkpt lat="48.98618" lon="0.07897">
        <ele>158.61</ele>
        <time>2021-08-08T15:30:08Z</time>
      </trkpt>
      <trkpt lat="48.98618" lon="0.07897">
        <ele>158.62</ele>
        <time>2021-08-08T15:30:09Z</time>
      </trkpt>
      <trkpt lat="48.98618" lon="0.07897">
        <ele>158.62</ele>
        <time>2021-08-08T15:30:10Z</time>
      </trkpt>
      <trkpt lat="48.98618" lon="0.07897">
        <ele>158.62</ele>
        <time>2021-08-08T15:30:11Z</time>
      </trkpt>
      <trkpt lat="48.98618" lon="0.07897">
        <ele>158.62</ele>
        <time>2021-08-08T15:30:12Z</time>
      </trkpt>
      <trkpt lat="48.98618" lon="0.07897">
        <ele>158.62</ele>
        <time>2021-08-08T15:30:13Z</time>
      </trkpt>
      <trkpt lat="48.98618" lon="0.07897">
        <ele>158.62</ele>
        <time>2021-08-08T15:30:14Z</time>
      </trkpt>
      <trkpt lat="48.98618" lon="0.07897">
        <ele>158.62</ele>
        <time>2021-08-08T15:30:15Z</time>
      </trkpt>
      <trkpt lat="48.98618" lon="0.07897">
        <ele>158.62</ele>
        <time>2021-08-08T15:30:16Z</time>
      </trkpt>
      <trkpt lat="48.98618" lon="0.07897">
        <ele>158.62</ele>
        <time>2021-08-08T15:30:17Z</time>
      </trkpt>
      <trkpt lat="48.98618" lon="0.07897">
        <ele>158.62</ele>
        <time>2021-08-08T15:30:18Z</time>
      </trkpt>
      <trkpt lat="48.98618" lon="0.07897">
        <ele>158.62</ele>
        <time>2021-08-08T15:30:19Z</time>
      </trkpt>
      <trkpt lat="48.98618" lon="0.07897">
        <ele>158.62</ele>
        <time>2021-08-08T15:30:20Z</time>
      </trkpt>
      <trkpt lat="48.98618" lon="0.07897">
        <ele>158.62</ele>
        <time>2021-08-08T15:30:21Z</time>
      </trkpt>
      <trkpt lat="48.9861" lon="0.07905">
        <ele>158.98</ele>
        <time>2021-08-08T15:30:22Z</time>
      </trkpt>
      <trkpt lat="48.98609" lon="0.07906">
        <ele>159.12</ele>
        <time>2021-08-08T15:30:23Z</time>
      </trkpt>
      <trkpt lat="48.98607" lon="0.07906">
        <ele>159.19</ele>
        <time>2021-08-08T15:30:24Z</time>
      </trkpt>
      <trkpt lat="48.98607" lon="0.07908">
        <ele>159.27</ele>
        <time>2021-08-08T15:30:25Z</time>
      </trkpt>
      <trkpt lat="48.98607" lon="0.07908">
        <ele>159.29</ele>
        <time>2021-08-08T15:30:26Z</time>
      </trkpt>
      <trkpt lat="48.98607" lon="0.07908">
        <ele>159.3</ele>
        <time>2021-08-08T15:30:27Z</time>
      </trkpt>
      <trkpt lat="48.98607" lon="0.07908">
        <ele>159.3</ele>
        <time>2021-08-08T15:30:28Z</time>
      </trkpt>
      <trkpt lat="48.98607" lon="0.07908">
        <ele>159.3</ele>
        <time>2021-08-08T15:30:29Z</time>
      </trkpt>
      <trkpt lat="48.98607" lon="0.07908">
        <ele>159.3</ele>
        <time>2021-08-08T15:30:30Z</time>
      </trkpt>
      <trkpt lat="48.98607" lon="0.07908">
        <ele>159.3</ele>
        <time>2021-08-08T15:30:31Z</time>
      </trkpt>
      <trkpt lat="48.98607" lon="0.07908">
        <ele>159.3</ele>
        <time>2021-08-08T15:30:32Z</time>
      </trkpt>
      <trkpt lat="48.98607" lon="0.07908">
        <ele>159.3</ele>
        <time>2021-08-08T15:30:33Z</time>
      </trkpt>
      <trkpt lat="48.98607" lon="0.07908">
        <ele>159.3</ele>
        <time>2021-08-08T15:30:34Z</time>
      </trkpt>
      <trkpt lat="48.98601" lon="0.07918">
        <ele>159.87</ele>
        <time>2021-08-08T15:30:35Z</time>
      </trkpt>
      <trkpt lat="48.98601" lon="0.07921">
        <ele>160.19</ele>
        <time>2021-08-08T15:30:36Z</time>
      </trkpt>
      <trkpt lat="48.986" lon="0.07926">
        <ele>160.5</ele>
        <time>2021-08-08T15:30:37Z</time>
      </trkpt>
      <trkpt lat="48.986" lon="0.07931">
        <ele>160.86</ele>
        <time>2021-08-08T15:30:38Z</time>
      </trkpt>
      <trkpt lat="48.986" lon="0.07935">
        <ele>161.16</ele>
        <time>2021-08-08T15:30:39Z</time>
      </trkpt>
      <trkpt lat="48.986" lon="0.07936">
        <ele>161.33</ele>
        <time>2021-08-08T15:30:40Z</time>
      </trkpt>
      <trkpt lat="48.986" lon="0.07938">
        <ele>161.47</ele>
        <time>2021-08-08T15:30:41Z</time>
      </trkpt>
      <trkpt lat="48.986" lon="0.0794">
        <ele>161.62</ele>
        <time>2021-08-08T15:30:42Z</time>
      </trkpt>
      <trkpt lat="48.98599" lon="0.0794">
        <ele>161.68</ele>
        <time>2021-08-08T15:30:43Z</time>
      </trkpt>
      <trkpt lat="48.98598" lon="0.07941">
        <ele>161.71</ele>
        <time>2021-08-08T15:30:44Z</time>
      </trkpt>
      <trkpt lat="48.98596" lon="0.07941">
        <ele>161.75</ele>
        <time>2021-08-08T15:30:45Z</time>
      </trkpt>
      <trkpt lat="48.98595" lon="0.07939">
        <ele>161.68</ele>
        <time>2021-08-08T15:30:46Z</time>
      </trkpt>
      <trkpt lat="48.98593" lon="0.07938">
        <ele>161.59</ele>
        <time>2021-08-08T15:30:47Z</time>
      </trkpt>
      <trkpt lat="48.98591" lon="0.07935">
        <ele>161.39</ele>
        <time>2021-08-08T15:30:48Z</time>
      </trkpt>
      <trkpt lat="48.98588" lon="0.07933">
        <ele>161.22</ele>
        <time>2021-08-08T15:30:49Z</time>
      </trkpt>
      <trkpt lat="48.98585" lon="0.07931">
        <ele>161.09</ele>
        <time>2021-08-08T15:30:50Z</time>
      </trkpt>
      <trkpt lat="48.98582" lon="0.07929">
        <ele>160.97</ele>
        <time>2021-08-08T15:30:51Z</time>
      </trkpt>
      <trkpt lat="48.98579" lon="0.07928">
        <ele>160.84</ele>
        <time>2021-08-08T15:30:52Z</time>
      </trkpt>
      <trkpt lat="48.98576" lon="0.07926">
        <ele>160.7</ele>
        <time>2021-08-08T15:30:53Z</time>
      </trkpt>
      <trkpt lat="48.98572" lon="0.07925">
        <ele>160.65</ele>
        <time>2021-08-08T15:30:54Z</time>
      </trkpt>
      <trkpt lat="48.98568" lon="0.07924">
        <ele>160.58</ele>
        <time>2021-08-08T15:30:55Z</time>
      </trkpt>
      <trkpt lat="48.98564" lon="0.07923">
        <ele>160.51</ele>
        <time>2021-08-08T15:30:56Z</time>
      </trkpt>
      <trkpt lat="48.9856" lon="0.07922">
        <ele>160.43</ele>
        <time>2021-08-08T15:30:57Z</time>
      </trkpt>
      <trkpt lat="48.98556" lon="0.07921">
        <ele>160.36</ele>
        <time>2021-08-08T15:30:58Z</time>
      </trkpt>
      <trkpt lat="48.98553" lon="0.0792">
        <ele>160.23</ele>
        <time>2021-08-08T15:30:59Z</time>
      </trkpt>
      <trkpt lat="48.98549" lon="0.07918">
        <ele>159.99</ele>
        <time>2021-08-08T15:31:00Z</time>
      </trkpt>
      <trkpt lat="48.98545" lon="0.07916">
        <ele>159.7</ele>
        <time>2021-08-08T15:31:01Z</time>
      </trkpt>
      <trkpt lat="48.98541" lon="0.07914">
        <ele>159.37</ele>
        <time>2021-08-08T15:31:02Z</time>
      </trkpt>
      <trkpt lat="48.98536" lon="0.07914">
        <ele>159.18</ele>
        <time>2021-08-08T15:31:03Z</time>
      </trkpt>
      <trkpt lat="48.98533" lon="0.07914">
        <ele>159.06</ele>
        <time>2021-08-08T15:31:04Z</time>
      </trkpt>
      <trkpt lat="48.98528" lon="0.07913">
        <ele>158.87</ele>
        <time>2021-08-08T15:31:05Z</time>
      </trkpt>
      <trkpt lat="48.98524" lon="0.07913">
        <ele>158.76</ele>
        <time>2021-08-08T15:31:06Z</time>
      </trkpt>
      <trkpt lat="48.98519" lon="0.07914">
        <ele>158.75</ele>
        <time>2021-08-08T15:31:07Z</time>
      </trkpt>
      <trkpt lat="48.98514" lon="0.07914">
        <ele>158.78</ele>
        <time>2021-08-08T15:31:08Z</time>
      </trkpt>
      <trkpt lat="48.98509" lon="0.07915">
        <ele>158.82</ele>
        <time>2021-08-08T15:31:09Z</time>
      </trkpt>
      <trkpt lat="48.98505" lon="0.07915">
        <ele>158.84</ele>
        <time>2021-08-08T15:31:10Z</time>
      </trkpt>
      <trkpt lat="48.98501" lon="0.07916">
        <ele>158.86</ele>
        <time>2021-08-08T15:31:11Z</time>
      </trkpt>
      <trkpt lat="48.98497" lon="0.07915">
        <ele>158.85</ele>
        <time>2021-08-08T15:31:12Z</time>
      </trkpt>
      <trkpt lat="48.98493" lon="0.07915">
        <ele>158.83</ele>
        <time>2021-08-08T15:31:13Z</time>
      </trkpt>
      <trkpt lat="48.98488" lon="0.07915">
        <ele>158.83</ele>
        <time>2021-08-08T15:31:14Z</time>
      </trkpt>
      <trkpt lat="48.98484" lon="0.07916">
        <ele>158.9</ele>
        <time>2021-08-08T15:31:15Z</time>
      </trkpt>
      <trkpt lat="48.98481" lon="0.07916">
        <ele>158.94</ele>
        <time>2021-08-08T15:31:16Z</time>
      </trkpt>
      <trkpt lat="48.98476" lon="0.07918">
        <ele>159.03</ele>
        <time>2021-08-08T15:31:17Z</time>
      </trkpt>
      <trkpt lat="48.98471" lon="0.07918">
        <ele>159.04</ele>
        <time>2021-08-08T15:31:18Z</time>
      </trkpt>
      <trkpt lat="48.98466" lon="0.07918">
        <ele>158.91</ele>
        <time>2021-08-08T15:31:19Z</time>
      </trkpt>
      <trkpt lat="48.98461" lon="0.07919">
        <ele>158.81</ele>
        <time>2021-08-08T15:31:20Z</time>
      </trkpt>
      <trkpt lat="48.98456" lon="0.07922">
        <ele>158.81</ele>
        <time>2021-08-08T15:31:21Z</time>
      </trkpt>
      <trkpt lat="48.98451" lon="0.07926">
        <ele>158.85</ele>
        <time>2021-08-08T15:31:22Z</time>
      </trkpt>
      <trkpt lat="48.98446" lon="0.07928">
        <ele>158.84</ele>
        <time>2021-08-08T15:31:23Z</time>
      </trkpt>
      <trkpt lat="48.98441" lon="0.0793">
        <ele>158.81</ele>
        <time>2021-08-08T15:31:24Z</time>
      </trkpt>
      <trkpt lat="48.98436" lon="0.07932">
        <ele>158.82</ele>
        <time>2021-08-08T15:31:25Z</time>
      </trkpt>
      <trkpt lat="48.98431" lon="0.07935">
        <ele>158.83</ele>
        <time>2021-08-08T15:31:26Z</time>
      </trkpt>
      <trkpt lat="48.98426" lon="0.07937">
        <ele>158.81</ele>
        <time>2021-08-08T15:31:27Z</time>
      </trkpt>
      <trkpt lat="48.98421" lon="0.07939">
        <ele>158.76</ele>
        <time>2021-08-08T15:31:28Z</time>
      </trkpt>
      <trkpt lat="48.98416" lon="0.07942">
        <ele>158.75</ele>
        <time>2021-08-08T15:31:29Z</time>
      </trkpt>
      <trkpt lat="48.9841" lon="0.07947">
        <ele>158.76</ele>
        <time>2021-08-08T15:31:30Z</time>
      </trkpt>
      <trkpt lat="48.98405" lon="0.07951">
        <ele>158.82</ele>
        <time>2021-08-08T15:31:31Z</time>
      </trkpt>
      <trkpt lat="48.98401" lon="0.07955">
        <ele>158.96</ele>
        <time>2021-08-08T15:31:32Z</time>
      </trkpt>
      <trkpt lat="48.98397" lon="0.0796">
        <ele>159.16</ele>
        <time>2021-08-08T15:31:33Z</time>
      </trkpt>
      <trkpt lat="48.98393" lon="0.07964">
        <ele>159.34</ele>
        <time>2021-08-08T15:31:34Z</time>
      </trkpt>
      <trkpt lat="48.9839" lon="0.07968">
        <ele>159.48</ele>
        <time>2021-08-08T15:31:35Z</time>
      </trkpt>
      <trkpt lat="48.98386" lon="0.0797">
        <ele>159.57</ele>
        <time>2021-08-08T15:31:36Z</time>
      </trkpt>
      <trkpt lat="48.98382" lon="0.07975">
        <ele>159.67</ele>
        <time>2021-08-08T15:31:37Z</time>
      </trkpt>
      <trkpt lat="48.98379" lon="0.07978">
        <ele>159.78</ele>
        <time>2021-08-08T15:31:38Z</time>
      </trkpt>
      <trkpt lat="48.98375" lon="0.07983">
        <ele>159.91</ele>
        <time>2021-08-08T15:31:39Z</time>
      </trkpt>
      <trkpt lat="48.98371" lon="0.07988">
        <ele>160.09</ele>
        <time>2021-08-08T15:31:40Z</time>
      </trkpt>
      <trkpt lat="48.98365" lon="0.07993">
        <ele>160.31</ele>
        <time>2021-08-08T15:31:41Z</time>
      </trkpt>
      <trkpt lat="48.98359" lon="0.07997">
        <ele>160.4</ele>
        <time>2021-08-08T15:31:42Z</time>
      </trkpt>
      <trkpt lat="48.98354" lon="0.08001">
        <ele>160.36</ele>
        <time>2021-08-08T15:31:43Z</time>
      </trkpt>
      <trkpt lat="48.9835" lon="0.08004">
        <ele>160.16</ele>
        <time>2021-08-08T15:31:44Z</time>
      </trkpt>
      <trkpt lat="48.98345" lon="0.08007">
        <ele>159.99</ele>
        <time>2021-08-08T15:31:45Z</time>
      </trkpt>
      <trkpt lat="48.9834" lon="0.08009">
        <ele>159.7</ele>
        <time>2021-08-08T15:31:46Z</time>
      </trkpt>
      <trkpt lat="48.98335" lon="0.08011">
        <ele>159.48</ele>
        <time>2021-08-08T15:31:47Z</time>
      </trkpt>
      <trkpt lat="48.98331" lon="0.08014">
        <ele>159.29</ele>
        <time>2021-08-08T15:31:48Z</time>
      </trkpt>
      <trkpt lat="48.98326" lon="0.08015">
        <ele>159.05</ele>
        <time>2021-08-08T15:31:49Z</time>
      </trkpt>
      <trkpt lat="48.98321" lon="0.08017">
        <ele>158.79</ele>
        <time>2021-08-08T15:31:50Z</time>
      </trkpt>
      <trkpt lat="48.98314" lon="0.08021">
        <ele>158.5</ele>
        <time>2021-08-08T15:31:51Z</time>
      </trkpt>
      <trkpt lat="48.98308" lon="0.08027">
        <ele>158.3</ele>
        <time>2021-08-08T15:31:52Z</time>
      </trkpt>
      <trkpt lat="48.98303" lon="0.08033">
        <ele>158.11</ele>
        <time>2021-08-08T15:31:53Z</time>
      </trkpt>
      <trkpt lat="48.98298" lon="0.0804">
        <ele>158.03</ele>
        <time>2021-08-08T15:31:54Z</time>
      </trkpt>
      <trkpt lat="48.98293" lon="0.08046">
        <ele>157.97</ele>
        <time>2021-08-08T15:31:55Z</time>
      </trkpt>
      <trkpt lat="48.98289" lon="0.08052">
        <ele>157.97</ele>
        <time>2021-08-08T15:31:56Z</time>
      </trkpt>
      <trkpt lat="48.98285" lon="0.08058">
        <ele>157.96</ele>
        <time>2021-08-08T15:31:57Z</time>
      </trkpt>
      <trkpt lat="48.98281" lon="0.08065">
        <ele>158.03</ele>
        <time>2021-08-08T15:31:58Z</time>
      </trkpt>
      <trkpt lat="48.98278" lon="0.08071">
        <ele>158.12</ele>
        <time>2021-08-08T15:31:59Z</time>
      </trkpt>
      <trkpt lat="48.98275" lon="0.08077">
        <ele>158.35</ele>
        <time>2021-08-08T15:32:00Z</time>
      </trkpt>
      <trkpt lat="48.98272" lon="0.08083">
        <ele>158.63</ele>
        <time>2021-08-08T15:32:01Z</time>
      </trkpt>
      <trkpt lat="48.98269" lon="0.08089">
        <ele>159.09</ele>
        <time>2021-08-08T15:32:02Z</time>
      </trkpt>
      <trkpt lat="48.98266" lon="0.08095">
        <ele>159.63</ele>
        <time>2021-08-08T15:32:03Z</time>
      </trkpt>
      <trkpt lat="48.98262" lon="0.08101">
        <ele>160.13</ele>
        <time>2021-08-08T15:32:04Z</time>
      </trkpt>
      <trkpt lat="48.9826" lon="0.08105">
        <ele>160.55</ele>
        <time>2021-08-08T15:32:05Z</time>
      </trkpt>
      <trkpt lat="48.98256" lon="0.08109">
        <ele>160.83</ele>
        <time>2021-08-08T15:32:06Z</time>
      </trkpt>
      <trkpt lat="48.98252" lon="0.08113">
        <ele>161.2</ele>
        <time>2021-08-08T15:32:07Z</time>
      </trkpt>
      <trkpt lat="48.98247" lon="0.08117">
        <ele>161.53</ele>
        <time>2021-08-08T15:32:08Z</time>
      </trkpt>
      <trkpt lat="48.98243" lon="0.08119">
        <ele>161.74</ele>
        <time>2021-08-08T15:32:09Z</time>
      </trkpt>
      <trkpt lat="48.98242" lon="0.08116">
        <ele>161.47</ele>
        <time>2021-08-08T15:32:10Z</time>
      </trkpt>
      <trkpt lat="48.9824" lon="0.08113">
        <ele>161.06</ele>
        <time>2021-08-08T15:32:11Z</time>
      </trkpt>
      <trkpt lat="48.98238" lon="0.08108">
        <ele>160.48</ele>
        <time>2021-08-08T15:32:12Z</time>
      </trkpt>
      <trkpt lat="48.98237" lon="0.08102">
        <ele>159.82</ele>
        <time>2021-08-08T15:32:13Z</time>
      </trkpt>
      <trkpt lat="48.98236" lon="0.08096">
        <ele>159.18</ele>
        <time>2021-08-08T15:32:14Z</time>
      </trkpt>
      <trkpt lat="48.9824" lon="0.08088">
        <ele>158.42</ele>
        <time>2021-08-08T15:32:15Z</time>
      </trkpt>
      <trkpt lat="48.9824" lon="0.08077">
        <ele>157.55</ele>
        <time>2021-08-08T15:32:16Z</time>
      </trkpt>
      <trkpt lat="48.98239" lon="0.08067">
        <ele>156.75</ele>
        <time>2021-08-08T15:32:17Z</time>
      </trkpt>
      <trkpt lat="48.98237" lon="0.08055">
        <ele>155.9</ele>
        <time>2021-08-08T15:32:18Z</time>
      </trkpt>
      <trkpt lat="48.98234" lon="0.08046">
        <ele>155.32</ele>
        <time>2021-08-08T15:32:19Z</time>
      </trkpt>
      <trkpt lat="48.98231" lon="0.08037">
        <ele>154.85</ele>
        <time>2021-08-08T15:32:20Z</time>
      </trkpt>
      <trkpt lat="48.9823" lon="0.08028">
        <ele>154.47</ele>
        <time>2021-08-08T15:32:21Z</time>
      </trkpt>
      <trkpt lat="48.9823" lon="0.08023">
        <ele>154.16</ele>
        <time>2021-08-08T15:32:22Z</time>
      </trkpt>
      <trkpt lat="48.98229" lon="0.08017">
        <ele>153.88</ele>
        <time>2021-08-08T15:32:23Z</time>
      </trkpt>
      <trkpt lat="48.98228" lon="0.08011">
        <ele>153.61</ele>
        <time>2021-08-08T15:32:24Z</time>
      </trkpt>
      <trkpt lat="48.98229" lon="0.08006">
        <ele>153.36</ele>
        <time>2021-08-08T15:32:25Z</time>
      </trkpt>
      <trkpt lat="48.98228" lon="0.08">
        <ele>153.11</ele>
        <time>2021-08-08T15:32:26Z</time>
      </trkpt>
      <trkpt lat="48.98228" lon="0.07993">
        <ele>153</ele>
        <time>2021-08-08T15:32:27Z</time>
      </trkpt>
      <trkpt lat="48.98227" lon="0.07986">
        <ele>152.94</ele>
        <time>2021-08-08T15:32:28Z</time>
      </trkpt>
      <trkpt lat="48.98227" lon="0.07979">
        <ele>152.89</ele>
        <time>2021-08-08T15:32:29Z</time>
      </trkpt>
      <trkpt lat="48.98227" lon="0.07973">
        <ele>152.84</ele>
        <time>2021-08-08T15:32:30Z</time>
      </trkpt>
      <trkpt lat="48.98227" lon="0.07967">
        <ele>152.94</ele>
        <time>2021-08-08T15:32:31Z</time>
      </trkpt>
      <trkpt lat="48.98226" lon="0.07962">
        <ele>153.09</ele>
        <time>2021-08-08T15:32:32Z</time>
      </trkpt>
      <trkpt lat="48.98226" lon="0.07958">
        <ele>153.26</ele>
        <time>2021-08-08T15:32:33Z</time>
      </trkpt>
      <trkpt lat="48.98225" lon="0.07953">
        <ele>153.45</ele>
        <time>2021-08-08T15:32:34Z</time>
      </trkpt>
      <trkpt lat="48.98225" lon="0.07948">
        <ele>153.62</ele>
        <time>2021-08-08T15:32:35Z</time>
      </trkpt>
      <trkpt lat="48.98224" lon="0.07943">
        <ele>153.87</ele>
        <time>2021-08-08T15:32:36Z</time>
      </trkpt>
      <trkpt lat="48.98223" lon="0.07939">
        <ele>154.18</ele>
        <time>2021-08-08T15:32:37Z</time>
      </trkpt>
      <trkpt lat="48.98223" lon="0.07935">
        <ele>154.51</ele>
        <time>2021-08-08T15:32:38Z</time>
      </trkpt>
      <trkpt lat="48.98222" lon="0.07933">
        <ele>154.79</ele>
        <time>2021-08-08T15:32:39Z</time>
      </trkpt>
      <trkpt lat="48.9822" lon="0.07931">
        <ele>155.04</ele>
        <time>2021-08-08T15:32:40Z</time>
      </trkpt>
      <trkpt lat="48.98219" lon="0.07929">
        <ele>155.29</ele>
        <time>2021-08-08T15:32:41Z</time>
      </trkpt>
      <trkpt lat="48.98218" lon="0.07926">
        <ele>155.58</ele>
        <time>2021-08-08T15:32:42Z</time>
      </trkpt>
      <trkpt lat="48.98216" lon="0.07923">
        <ele>155.86</ele>
        <time>2021-08-08T15:32:43Z</time>
      </trkpt>
      <trkpt lat="48.98215" lon="0.07921">
        <ele>156.16</ele>
        <time>2021-08-08T15:32:44Z</time>
      </trkpt>
      <trkpt lat="48.98213" lon="0.07919">
        <ele>156.43</ele>
        <time>2021-08-08T15:32:45Z</time>
      </trkpt>
      <trkpt lat="48.98211" lon="0.07916">
        <ele>156.7</ele>
        <time>2021-08-08T15:32:46Z</time>
      </trkpt>
      <trkpt lat="48.9821" lon="0.07912">
        <ele>156.98</ele>
        <time>2021-08-08T15:32:47Z</time>
      </trkpt>
      <trkpt lat="48.98209" lon="0.07909">
        <ele>157.25</ele>
        <time>2021-08-08T15:32:48Z</time>
      </trkpt>
      <trkpt lat="48.98208" lon="0.07905">
        <ele>157.54</ele>
        <time>2021-08-08T15:32:49Z</time>
      </trkpt>
      <trkpt lat="48.98207" lon="0.07903">
        <ele>157.77</ele>
        <time>2021-08-08T15:32:50Z</time>
      </trkpt>
      <trkpt lat="48.98205" lon="0.079">
        <ele>158.09</ele>
        <time>2021-08-08T15:32:51Z</time>
      </trkpt>
      <trkpt lat="48.98203" lon="0.07897">
        <ele>158.43</ele>
        <time>2021-08-08T15:32:52Z</time>
      </trkpt>
      <trkpt lat="48.98199" lon="0.07891">
        <ele>159.05</ele>
        <time>2021-08-08T15:32:54Z</time>
      </trkpt>
      <trkpt lat="48.982" lon="0.07889">
        <ele>159.28</ele>
        <time>2021-08-08T15:32:55Z</time>
      </trkpt>
      <trkpt lat="48.982" lon="0.07886">
        <ele>159.35</ele>
        <time>2021-08-08T15:32:56Z</time>
      </trkpt>
      <trkpt lat="48.982" lon="0.07883">
        <ele>159.4</ele>
        <time>2021-08-08T15:32:57Z</time>
      </trkpt>
      <trkpt lat="48.98199" lon="0.0788">
        <ele>159.49</ele>
        <time>2021-08-08T15:32:58Z</time>
      </trkpt>
      <trkpt lat="48.98198" lon="0.07878">
        <ele>159.56</ele>
        <time>2021-08-08T15:32:59Z</time>
      </trkpt>
      <trkpt lat="48.98197" lon="0.07875">
        <ele>159.68</ele>
        <time>2021-08-08T15:33:00Z</time>
      </trkpt>
      <trkpt lat="48.98196" lon="0.07871">
        <ele>159.81</ele>
        <time>2021-08-08T15:33:01Z</time>
      </trkpt>
      <trkpt lat="48.98195" lon="0.07867">
        <ele>159.9</ele>
        <time>2021-08-08T15:33:02Z</time>
      </trkpt>
      <trkpt lat="48.98194" lon="0.07863">
        <ele>160</ele>
        <time>2021-08-08T15:33:03Z</time>
      </trkpt>
      <trkpt lat="48.98192" lon="0.07859">
        <ele>160.05</ele>
        <time>2021-08-08T15:33:04Z</time>
      </trkpt>
      <trkpt lat="48.98191" lon="0.07855">
        <ele>160.03</ele>
        <time>2021-08-08T15:33:05Z</time>
      </trkpt>
      <trkpt lat="48.98191" lon="0.07851">
        <ele>159.95</ele>
        <time>2021-08-08T15:33:06Z</time>
      </trkpt>
      <trkpt lat="48.9819" lon="0.07847">
        <ele>159.86</ele>
        <time>2021-08-08T15:33:07Z</time>
      </trkpt>
      <trkpt lat="48.98189" lon="0.07843">
        <ele>159.78</ele>
        <time>2021-08-08T15:33:08Z</time>
      </trkpt>
      <trkpt lat="48.98188" lon="0.07838">
        <ele>159.67</ele>
        <time>2021-08-08T15:33:09Z</time>
      </trkpt>
      <trkpt lat="48.98187" lon="0.07834">
        <ele>159.57</ele>
        <time>2021-08-08T15:33:10Z</time>
      </trkpt>
      <trkpt lat="48.98187" lon="0.07829">
        <ele>159.52</ele>
        <time>2021-08-08T15:33:11Z</time>
      </trkpt>
      <trkpt lat="48.98187" lon="0.07823">
        <ele>159.54</ele>
        <time>2021-08-08T15:33:12Z</time>
      </trkpt>
      <trkpt lat="48.98186" lon="0.07817">
        <ele>159.6</ele>
        <time>2021-08-08T15:33:13Z</time>
      </trkpt>
      <trkpt lat="48.98185" lon="0.07811">
        <ele>159.64</ele>
        <time>2021-08-08T15:33:14Z</time>
      </trkpt>
      <trkpt lat="48.98185" lon="0.07804">
        <ele>159.64</ele>
        <time>2021-08-08T15:33:15Z</time>
      </trkpt>
      <trkpt lat="48.98184" lon="0.07798">
        <ele>159.51</ele>
        <time>2021-08-08T15:33:16Z</time>
      </trkpt>
      <trkpt lat="48.98184" lon="0.07791">
        <ele>159.35</ele>
        <time>2021-08-08T15:33:17Z</time>
      </trkpt>
      <trkpt lat="48.98183" lon="0.07785">
        <ele>159.17</ele>
        <time>2021-08-08T15:33:18Z</time>
      </trkpt>
      <trkpt lat="48.98183" lon="0.07779">
        <ele>158.97</ele>
        <time>2021-08-08T15:33:19Z</time>
      </trkpt>
      <trkpt lat="48.98183" lon="0.07771">
        <ele>158.82</ele>
        <time>2021-08-08T15:33:20Z</time>
      </trkpt>
      <trkpt lat="48.98183" lon="0.07765">
        <ele>158.69</ele>
        <time>2021-08-08T15:33:21Z</time>
      </trkpt>
      <trkpt lat="48.98184" lon="0.07757">
        <ele>158.56</ele>
        <time>2021-08-08T15:33:22Z</time>
      </trkpt>
      <trkpt lat="48.98184" lon="0.07749">
        <ele>158.41</ele>
        <time>2021-08-08T15:33:23Z</time>
      </trkpt>
      <trkpt lat="48.98184" lon="0.07742">
        <ele>158.16</ele>
        <time>2021-08-08T15:33:24Z</time>
      </trkpt>
      <trkpt lat="48.98184" lon="0.07735">
        <ele>157.92</ele>
        <time>2021-08-08T15:33:25Z</time>
      </trkpt>
      <trkpt lat="48.98185" lon="0.07728">
        <ele>157.66</ele>
        <time>2021-08-08T15:33:26Z</time>
      </trkpt>
      <trkpt lat="48.98184" lon="0.07719">
        <ele>157.38</ele>
        <time>2021-08-08T15:33:27Z</time>
      </trkpt>
      <trkpt lat="48.98184" lon="0.07712">
        <ele>157.12</ele>
        <time>2021-08-08T15:33:28Z</time>
      </trkpt>
      <trkpt lat="48.98184" lon="0.07705">
        <ele>156.86</ele>
        <time>2021-08-08T15:33:29Z</time>
      </trkpt>
      <trkpt lat="48.98184" lon="0.07698">
        <ele>156.61</ele>
        <time>2021-08-08T15:33:30Z</time>
      </trkpt>
      <trkpt lat="48.98184" lon="0.07692">
        <ele>156.39</ele>
        <time>2021-08-08T15:33:31Z</time>
      </trkpt>
      <trkpt lat="48.98184" lon="0.07684">
        <ele>156.11</ele>
        <time>2021-08-08T15:33:32Z</time>
      </trkpt>
      <trkpt lat="48.98184" lon="0.07676">
        <ele>155.83</ele>
        <time>2021-08-08T15:33:33Z</time>
      </trkpt>
      <trkpt lat="48.98184" lon="0.07669">
        <ele>155.56</ele>
        <time>2021-08-08T15:33:34Z</time>
      </trkpt>
      <trkpt lat="48.98183" lon="0.07658">
        <ele>155.22</ele>
        <time>2021-08-08T15:33:35Z</time>
      </trkpt>
      <trkpt lat="48.98184" lon="0.0765">
        <ele>154.9</ele>
        <time>2021-08-08T15:33:36Z</time>
      </trkpt>
      <trkpt lat="48.98184" lon="0.07642">
        <ele>154.6</ele>
        <time>2021-08-08T15:33:37Z</time>
      </trkpt>
      <trkpt lat="48.98185" lon="0.07633">
        <ele>154.27</ele>
        <time>2021-08-08T15:33:38Z</time>
      </trkpt>
      <trkpt lat="48.98186" lon="0.07624">
        <ele>153.92</ele>
        <time>2021-08-08T15:33:39Z</time>
      </trkpt>
      <trkpt lat="48.98186" lon="0.07612">
        <ele>153.53</ele>
        <time>2021-08-08T15:33:40Z</time>
      </trkpt>
      <trkpt lat="48.98187" lon="0.07602">
        <ele>153.13</ele>
        <time>2021-08-08T15:33:41Z</time>
      </trkpt>
      <trkpt lat="48.98188" lon="0.07594">
        <ele>152.77</ele>
        <time>2021-08-08T15:33:42Z</time>
      </trkpt>
      <trkpt lat="48.98189" lon="0.07585">
        <ele>152.43</ele>
        <time>2021-08-08T15:33:43Z</time>
      </trkpt>
      <trkpt lat="48.9819" lon="0.07576">
        <ele>152.1</ele>
        <time>2021-08-08T15:33:44Z</time>
      </trkpt>
      <trkpt lat="48.9819" lon="0.07568">
        <ele>151.82</ele>
        <time>2021-08-08T15:33:45Z</time>
      </trkpt>
      <trkpt lat="48.9819" lon="0.0756">
        <ele>151.54</ele>
        <time>2021-08-08T15:33:46Z</time>
      </trkpt>
      <trkpt lat="48.98191" lon="0.07551">
        <ele>151.34</ele>
        <time>2021-08-08T15:33:47Z</time>
      </trkpt>
      <trkpt lat="48.98191" lon="0.07542">
        <ele>151.25</ele>
        <time>2021-08-08T15:33:48Z</time>
      </trkpt>
      <trkpt lat="48.98191" lon="0.07535">
        <ele>151.23</ele>
        <time>2021-08-08T15:33:49Z</time>
      </trkpt>
      <trkpt lat="48.98145" lon="0.07491">
        <ele>156.01171875</ele>
      </trkpt>
      <trkpt lat="48.98068" lon="0.0748">
        <ele>162.7890625</ele>
      </trkpt>
      <trkpt lat="48.97934" lon="0.07461">
        <ele>171.03125</ele>
      </trkpt>
      <trkpt lat="48.97943" lon="0.07428">
        <ele>168.984375</ele>
      </trkpt>
      <trkpt lat="48.9794" lon="0.07348">
        <ele>164.06640625</ele>
      </trkpt>
      <trkpt lat="48.97928" lon="0.07299">
        <ele>160.29296875</ele>
      </trkpt>
      <trkpt lat="48.97951" lon="0.07211">
        <ele>161.0625</ele>
      </trkpt>
      <trkpt lat="48.97996" lon="0.07199">
        <ele>162.73828125</ele>
      </trkpt>
      <trkpt lat="48.98042" lon="0.07134">
        <ele>168.8359375</ele>
      </trkpt>
      <trkpt lat="48.9805" lon="0.07117">
        <ele>170.37890625</ele>
      </trkpt>
      <trkpt lat="48.98089" lon="0.07076">
        <ele>172.94921875</ele>
      </trkpt>
      <trkpt lat="48.98104" lon="0.07052">
        <ele>173.64453125</ele>
      </trkpt>
      <trkpt lat="48.98146" lon="0.07048">
        <ele>173.328125</ele>
      </trkpt>
      <trkpt lat="48.98178" lon="0.07031">
        <ele>173.9375</ele>
      </trkpt>
      <trkpt lat="48.98201" lon="0.07017">
        <ele>173.79</ele>
        <time>2021-08-08T15:36:06Z</time>
      </trkpt>
      <trkpt lat="48.98203" lon="0.07013">
        <ele>173.73</ele>
        <time>2021-08-08T15:36:07Z</time>
      </trkpt>
      <trkpt lat="48.98204" lon="0.07008">
        <ele>173.67</ele>
        <time>2021-08-08T15:36:08Z</time>
      </trkpt>
      <trkpt lat="48.98206" lon="0.07004">
        <ele>173.61</ele>
        <time>2021-08-08T15:36:09Z</time>
      </trkpt>
      <trkpt lat="48.98207" lon="0.06999">
        <ele>173.58</ele>
        <time>2021-08-08T15:36:10Z</time>
      </trkpt>
      <trkpt lat="48.98208" lon="0.06995">
        <ele>173.66</ele>
        <time>2021-08-08T15:36:11Z</time>
      </trkpt>
      <trkpt lat="48.98209" lon="0.06991">
        <ele>173.76</ele>
        <time>2021-08-08T15:36:12Z</time>
      </trkpt>
      <trkpt lat="48.9821" lon="0.06987">
        <ele>173.87</ele>
        <time>2021-08-08T15:36:13Z</time>
      </trkpt>
      <trkpt lat="48.98211" lon="0.06983">
        <ele>173.98</ele>
        <time>2021-08-08T15:36:14Z</time>
      </trkpt>
      <trkpt lat="48.98213" lon="0.06978">
        <ele>174.07</ele>
        <time>2021-08-08T15:36:15Z</time>
      </trkpt>
      <trkpt lat="48.98214" lon="0.06974">
        <ele>174.18</ele>
        <time>2021-08-08T15:36:16Z</time>
      </trkpt>
      <trkpt lat="48.98216" lon="0.06968">
        <ele>174.22</ele>
        <time>2021-08-08T15:36:17Z</time>
      </trkpt>
      <trkpt lat="48.98216" lon="0.06964">
        <ele>174.22</ele>
        <time>2021-08-08T15:36:18Z</time>
      </trkpt>
      <trkpt lat="48.98217" lon="0.06961">
        <ele>174.19</ele>
        <time>2021-08-08T15:36:19Z</time>
      </trkpt>
      <trkpt lat="48.98217" lon="0.06958">
        <ele>174.18</ele>
        <time>2021-08-08T15:36:20Z</time>
      </trkpt>
      <trkpt lat="48.98218" lon="0.06954">
        <ele>174.17</ele>
        <time>2021-08-08T15:36:21Z</time>
      </trkpt>
      <trkpt lat="48.98218" lon="0.06951">
        <ele>174.17</ele>
        <time>2021-08-08T15:36:22Z</time>
      </trkpt>
      <trkpt lat="48.98217" lon="0.06947">
        <ele>174.17</ele>
        <time>2021-08-08T15:36:23Z</time>
      </trkpt>
      <trkpt lat="48.98217" lon="0.06943">
        <ele>174.17</ele>
        <time>2021-08-08T15:36:24Z</time>
      </trkpt>
      <trkpt lat="48.98218" lon="0.0694">
        <ele>174.17</ele>
        <time>2021-08-08T15:36:25Z</time>
      </trkpt>
      <trkpt lat="48.98217" lon="0.06936">
        <ele>174.18</ele>
        <time>2021-08-08T15:36:26Z</time>
      </trkpt>
      <trkpt lat="48.98216" lon="0.06931">
        <ele>174.2</ele>
        <time>2021-08-08T15:36:27Z</time>
      </trkpt>
      <trkpt lat="48.98216" lon="0.06928">
        <ele>174.22</ele>
        <time>2021-08-08T15:36:28Z</time>
      </trkpt>
      <trkpt lat="48.98215" lon="0.06925">
        <ele>174.25</ele>
        <time>2021-08-08T15:36:29Z</time>
      </trkpt>
      <trkpt lat="48.98215" lon="0.06922">
        <ele>174.27</ele>
        <time>2021-08-08T15:36:30Z</time>
      </trkpt>
      <trkpt lat="48.98214" lon="0.06919">
        <ele>174.27</ele>
        <time>2021-08-08T15:36:31Z</time>
      </trkpt>
      <trkpt lat="48.98215" lon="0.06917">
        <ele>174.27</ele>
        <time>2021-08-08T15:36:32Z</time>
      </trkpt>
      <trkpt lat="48.98215" lon="0.06914">
        <ele>174.35</ele>
        <time>2021-08-08T15:36:33Z</time>
      </trkpt>
      <trkpt lat="48.98214" lon="0.06909">
        <ele>174.49</ele>
        <time>2021-08-08T15:36:34Z</time>
      </trkpt>
      <trkpt lat="48.98214" lon="0.06905">
        <ele>174.65</ele>
        <time>2021-08-08T15:36:35Z</time>
      </trkpt>
      <trkpt lat="48.98215" lon="0.06901">
        <ele>174.78</ele>
        <time>2021-08-08T15:36:36Z</time>
      </trkpt>
      <trkpt lat="48.98214" lon="0.06897">
        <ele>174.92</ele>
        <time>2021-08-08T15:36:37Z</time>
      </trkpt>
      <trkpt lat="48.98214" lon="0.06893">
        <ele>175.08</ele>
        <time>2021-08-08T15:36:38Z</time>
      </trkpt>
      <trkpt lat="48.98213" lon="0.06889">
        <ele>175.26</ele>
        <time>2021-08-08T15:36:39Z</time>
      </trkpt>
      <trkpt lat="48.98212" lon="0.06885">
        <ele>175.33</ele>
        <time>2021-08-08T15:36:40Z</time>
      </trkpt>
      <trkpt lat="48.98211" lon="0.06881">
        <ele>175.38</ele>
        <time>2021-08-08T15:36:41Z</time>
      </trkpt>
      <trkpt lat="48.9821" lon="0.06878">
        <ele>175.42</ele>
        <time>2021-08-08T15:36:42Z</time>
      </trkpt>
      <trkpt lat="48.98209" lon="0.06875">
        <ele>175.45</ele>
        <time>2021-08-08T15:36:43Z</time>
      </trkpt>
      <trkpt lat="48.98209" lon="0.06872">
        <ele>175.48</ele>
        <time>2021-08-08T15:36:44Z</time>
      </trkpt>
      <trkpt lat="48.98208" lon="0.06869">
        <ele>175.51</ele>
        <time>2021-08-08T15:36:45Z</time>
      </trkpt>
      <trkpt lat="48.98207" lon="0.06863">
        <ele>175.54</ele>
        <time>2021-08-08T15:36:46Z</time>
      </trkpt>
      <trkpt lat="48.98206" lon="0.06861">
        <ele>175.57</ele>
        <time>2021-08-08T15:36:47Z</time>
      </trkpt>
      <trkpt lat="48.98205" lon="0.06859">
        <ele>175.6</ele>
        <time>2021-08-08T15:36:48Z</time>
      </trkpt>
      <trkpt lat="48.98204" lon="0.06855">
        <ele>175.64</ele>
        <time>2021-08-08T15:36:49Z</time>
      </trkpt>
      <trkpt lat="48.98204" lon="0.06852">
        <ele>175.66</ele>
        <time>2021-08-08T15:36:50Z</time>
      </trkpt>
      <trkpt lat="48.98203" lon="0.06849">
        <ele>175.68</ele>
        <time>2021-08-08T15:36:51Z</time>
      </trkpt>
      <trkpt lat="48.98202" lon="0.06846">
        <ele>175.71</ele>
        <time>2021-08-08T15:36:52Z</time>
      </trkpt>
      <trkpt lat="48.98201" lon="0.06843">
        <ele>175.74</ele>
        <time>2021-08-08T15:36:53Z</time>
      </trkpt>
      <trkpt lat="48.98201" lon="0.0684">
        <ele>175.76</ele>
        <time>2021-08-08T15:36:54Z</time>
      </trkpt>
      <trkpt lat="48.982" lon="0.06836">
        <ele>175.79</ele>
        <time>2021-08-08T15:36:55Z</time>
      </trkpt>
      <trkpt lat="48.98199" lon="0.06833">
        <ele>175.82</ele>
        <time>2021-08-08T15:36:56Z</time>
      </trkpt>
      <trkpt lat="48.98199" lon="0.06828">
        <ele>175.83</ele>
        <time>2021-08-08T15:36:57Z</time>
      </trkpt>
      <trkpt lat="48.98199" lon="0.06824">
        <ele>175.85</ele>
        <time>2021-08-08T15:36:58Z</time>
      </trkpt>
      <trkpt lat="48.98198" lon="0.06819">
        <ele>175.86</ele>
        <time>2021-08-08T15:36:59Z</time>
      </trkpt>
      <trkpt lat="48.98197" lon="0.06815">
        <ele>175.88</ele>
        <time>2021-08-08T15:37:00Z</time>
      </trkpt>
      <trkpt lat="48.98197" lon="0.0681">
        <ele>175.9</ele>
        <time>2021-08-08T15:37:01Z</time>
      </trkpt>
      <trkpt lat="48.98197" lon="0.06805">
        <ele>175.9</ele>
        <time>2021-08-08T15:37:02Z</time>
      </trkpt>
      <trkpt lat="48.98197" lon="0.068">
        <ele>175.9</ele>
        <time>2021-08-08T15:37:03Z</time>
      </trkpt>
      <trkpt lat="48.98197" lon="0.06796">
        <ele>175.91</ele>
        <time>2021-08-08T15:37:04Z</time>
      </trkpt>
      <trkpt lat="48.98196" lon="0.06793">
        <ele>175.93</ele>
        <time>2021-08-08T15:37:05Z</time>
      </trkpt>
      <trkpt lat="48.98195" lon="0.0679">
        <ele>175.97</ele>
        <time>2021-08-08T15:37:06Z</time>
      </trkpt>
      <trkpt lat="48.98194" lon="0.06787">
        <ele>175.99</ele>
        <time>2021-08-08T15:37:07Z</time>
      </trkpt>
      <trkpt lat="48.98194" lon="0.06786">
        <ele>176.01</ele>
        <time>2021-08-08T15:37:08Z</time>
      </trkpt>
      <trkpt lat="48.98194" lon="0.06785">
        <ele>176.01</ele>
        <time>2021-08-08T15:37:09Z</time>
      </trkpt>
      <trkpt lat="48.98194" lon="0.06783">
        <ele>176.01</ele>
        <time>2021-08-08T15:37:10Z</time>
      </trkpt>
      <trkpt lat="48.98194" lon="0.06782">
        <ele>176.02</ele>
        <time>2021-08-08T15:37:11Z</time>
      </trkpt>
      <trkpt lat="48.98194" lon="0.06782">
        <ele>176.02</ele>
        <time>2021-08-08T15:37:12Z</time>
      </trkpt>
      <trkpt lat="48.98193" lon="0.06778">
        <ele>176.05</ele>
        <time>2021-08-08T15:37:13Z</time>
      </trkpt>
      <trkpt lat="48.98191" lon="0.06777">
        <ele>176.09</ele>
        <time>2021-08-08T15:37:14Z</time>
      </trkpt>
      <trkpt lat="48.98191" lon="0.06775">
        <ele>176.11</ele>
        <time>2021-08-08T15:37:15Z</time>
      </trkpt>
      <trkpt lat="48.98192" lon="0.06773">
        <ele>176.1</ele>
        <time>2021-08-08T15:37:16Z</time>
      </trkpt>
      <trkpt lat="48.98192" lon="0.06773">
        <ele>176.1</ele>
        <time>2021-08-08T15:37:17Z</time>
      </trkpt>
      <trkpt lat="48.98191" lon="0.06769">
        <ele>176.11</ele>
        <time>2021-08-08T15:37:18Z</time>
      </trkpt>
      <trkpt lat="48.98192" lon="0.06766">
        <ele>176.1</ele>
        <time>2021-08-08T15:37:19Z</time>
      </trkpt>
      <trkpt lat="48.98191" lon="0.06764">
        <ele>176.11</ele>
        <time>2021-08-08T15:37:20Z</time>
      </trkpt>
      <trkpt lat="48.98191" lon="0.06761">
        <ele>176.12</ele>
        <time>2021-08-08T15:37:21Z</time>
      </trkpt>
      <trkpt lat="48.98191" lon="0.06758">
        <ele>176.13</ele>
        <time>2021-08-08T15:37:22Z</time>
      </trkpt>
      <trkpt lat="48.98191" lon="0.06754">
        <ele>176.13</ele>
        <time>2021-08-08T15:37:23Z</time>
      </trkpt>
      <trkpt lat="48.98191" lon="0.06749">
        <ele>176.11</ele>
        <time>2021-08-08T15:37:24Z</time>
      </trkpt>
      <trkpt lat="48.9819" lon="0.06744">
        <ele>176</ele>
        <time>2021-08-08T15:37:25Z</time>
      </trkpt>
      <trkpt lat="48.9819" lon="0.06742">
        <ele>175.91</ele>
        <time>2021-08-08T15:37:26Z</time>
      </trkpt>
      <trkpt lat="48.9819" lon="0.06741">
        <ele>175.87</ele>
        <time>2021-08-08T15:37:27Z</time>
      </trkpt>
      <trkpt lat="48.9819" lon="0.0674">
        <ele>175.82</ele>
        <time>2021-08-08T15:37:28Z</time>
      </trkpt>
      <trkpt lat="48.9819" lon="0.0674">
        <ele>175.81</ele>
        <time>2021-08-08T15:37:29Z</time>
      </trkpt>
      <trkpt lat="48.9819" lon="0.0674">
        <ele>175.8</ele>
        <time>2021-08-08T15:37:30Z</time>
      </trkpt>
      <trkpt lat="48.9819" lon="0.0674">
        <ele>175.8</ele>
        <time>2021-08-08T15:37:31Z</time>
      </trkpt>
      <trkpt lat="48.9819" lon="0.0674">
        <ele>175.8</ele>
        <time>2021-08-08T15:37:32Z</time>
      </trkpt>
      <trkpt lat="48.9819" lon="0.0674">
        <ele>175.8</ele>
        <time>2021-08-08T15:37:33Z</time>
      </trkpt>
      <trkpt lat="48.9819" lon="0.0674">
        <ele>175.8</ele>
        <time>2021-08-08T15:37:34Z</time>
      </trkpt>
      <trkpt lat="48.9819" lon="0.0674">
        <ele>175.8</ele>
        <time>2021-08-08T15:37:35Z</time>
      </trkpt>
      <trkpt lat="48.9819" lon="0.0674">
        <ele>175.8</ele>
        <time>2021-08-08T15:37:36Z</time>
      </trkpt>
      <trkpt lat="48.9819" lon="0.0674">
        <ele>175.8</ele>
        <time>2021-08-08T15:37:37Z</time>
      </trkpt>
      <trkpt lat="48.9819" lon="0.0674">
        <ele>175.8</ele>
        <time>2021-08-08T15:37:38Z</time>
      </trkpt>
      <trkpt lat="48.9819" lon="0.0674">
        <ele>175.8</ele>
        <time>2021-08-08T15:37:39Z</time>
      </trkpt>
      <trkpt lat="48.9819" lon="0.0674">
        <ele>175.8</ele>
        <time>2021-08-08T15:37:40Z</time>
      </trkpt>
      <trkpt lat="48.9819" lon="0.0674">
        <ele>175.8</ele>
        <time>2021-08-08T15:37:41Z</time>
      </trkpt>
      <trkpt lat="48.9819" lon="0.0674">
        <ele>175.8</ele>
        <time>2021-08-08T15:37:42Z</time>
      </trkpt>
      <trkpt lat="48.9819" lon="0.0674">
        <ele>175.8</ele>
        <time>2021-08-08T15:37:43Z</time>
      </trkpt>
      <trkpt lat="48.9819" lon="0.0674">
        <ele>175.8</ele>
        <time>2021-08-08T15:37:44Z</time>
      </trkpt>
      <trkpt lat="48.98193" lon="0.06727">
        <ele>175.39</ele>
        <time>2021-08-08T15:37:45Z</time>
      </trkpt>
      <trkpt lat="48.98194" lon="0.06725">
        <ele>175.22</ele>
        <time>2021-08-08T15:37:46Z</time>
      </trkpt>
      <trkpt lat="48.98194" lon="0.06724">
        <ele>175.12</ele>
        <time>2021-08-08T15:37:47Z</time>
      </trkpt>
      <trkpt lat="48.98195" lon="0.06722">
        <ele>175.03</ele>
        <time>2021-08-08T15:37:48Z</time>
      </trkpt>
      <trkpt lat="48.98195" lon="0.06722">
        <ele>175</ele>
        <time>2021-08-08T15:37:49Z</time>
      </trkpt>
      <trkpt lat="48.98196" lon="0.06718">
        <ele>174.97</ele>
        <time>2021-08-08T15:37:50Z</time>
      </trkpt>
      <trkpt lat="48.98196" lon="0.06718">
        <ele>174.96</ele>
        <time>2021-08-08T15:37:51Z</time>
      </trkpt>
      <trkpt lat="48.98196" lon="0.06716">
        <ele>174.95</ele>
        <time>2021-08-08T15:37:52Z</time>
      </trkpt>
      <trkpt lat="48.98196" lon="0.06715">
        <ele>174.95</ele>
        <time>2021-08-08T15:37:53Z</time>
      </trkpt>
      <trkpt lat="48.98196" lon="0.06715">
        <ele>174.94</ele>
        <time>2021-08-08T15:37:54Z</time>
      </trkpt>
      <trkpt lat="48.98196" lon="0.06715">
        <ele>174.94</ele>
        <time>2021-08-08T15:37:55Z</time>
      </trkpt>
      <trkpt lat="48.98196" lon="0.06708">
        <ele>174.96</ele>
        <time>2021-08-08T15:37:56Z</time>
      </trkpt>
      <trkpt lat="48.98195" lon="0.06707">
        <ele>174.98</ele>
        <time>2021-08-08T15:37:57Z</time>
      </trkpt>
      <trkpt lat="48.98194" lon="0.06705">
        <ele>175</ele>
        <time>2021-08-08T15:37:58Z</time>
      </trkpt>
      <trkpt lat="48.98194" lon="0.06704">
        <ele>175.02</ele>
        <time>2021-08-08T15:37:59Z</time>
      </trkpt>
      <trkpt lat="48.98193" lon="0.06702">
        <ele>175.04</ele>
        <time>2021-08-08T15:38:00Z</time>
      </trkpt>
      <trkpt lat="48.98193" lon="0.06701">
        <ele>175.04</ele>
        <time>2021-08-08T15:38:01Z</time>
      </trkpt>
      <trkpt lat="48.98193" lon="0.06701">
        <ele>175.05</ele>
        <time>2021-08-08T15:38:02Z</time>
      </trkpt>
      <trkpt lat="48.98193" lon="0.06701">
        <ele>175.05</ele>
        <time>2021-08-08T15:38:03Z</time>
      </trkpt>
      <trkpt lat="48.98193" lon="0.06701">
        <ele>175.05</ele>
        <time>2021-08-08T15:38:04Z</time>
      </trkpt>
      <trkpt lat="48.98193" lon="0.06701">
        <ele>175.05</ele>
        <time>2021-08-08T15:38:05Z</time>
      </trkpt>
      <trkpt lat="48.98193" lon="0.06701">
        <ele>175.05</ele>
        <time>2021-08-08T15:38:06Z</time>
      </trkpt>
      <trkpt lat="48.98193" lon="0.06701">
        <ele>175.05</ele>
        <time>2021-08-08T15:38:07Z</time>
      </trkpt>
      <trkpt lat="48.98193" lon="0.06701">
        <ele>175.05</ele>
        <time>2021-08-08T15:38:08Z</time>
      </trkpt>
      <trkpt lat="48.98193" lon="0.06701">
        <ele>175.05</ele>
        <time>2021-08-08T15:38:09Z</time>
      </trkpt>
      <trkpt lat="48.98193" lon="0.06701">
        <ele>175.05</ele>
        <time>2021-08-08T15:38:10Z</time>
      </trkpt>
      <trkpt lat="48.98194" lon="0.06686">
        <ele>174.82</ele>
        <time>2021-08-08T15:38:11Z</time>
      </trkpt>
      <trkpt lat="48.98194" lon="0.06684">
        <ele>174.7</ele>
        <time>2021-08-08T15:38:12Z</time>
      </trkpt>
      <trkpt lat="48.98194" lon="0.06682">
        <ele>174.6</ele>
        <time>2021-08-08T15:38:13Z</time>
      </trkpt>
      <trkpt lat="48.98194" lon="0.06678">
        <ele>174.48</ele>
        <time>2021-08-08T15:38:14Z</time>
      </trkpt>
      <trkpt lat="48.98194" lon="0.06675">
        <ele>174.38</ele>
        <time>2021-08-08T15:38:15Z</time>
      </trkpt>
      <trkpt lat="48.98194" lon="0.06673">
        <ele>174.29</ele>
        <time>2021-08-08T15:38:16Z</time>
      </trkpt>
      <trkpt lat="48.98193" lon="0.06672">
        <ele>174.25</ele>
        <time>2021-08-08T15:38:17Z</time>
      </trkpt>
      <trkpt lat="48.98193" lon="0.06672">
        <ele>174.25</ele>
        <time>2021-08-08T15:38:18Z</time>
      </trkpt>
      <trkpt lat="48.98193" lon="0.06672">
        <ele>174.25</ele>
        <time>2021-08-08T15:38:19Z</time>
      </trkpt>
      <trkpt lat="48.98193" lon="0.06671">
        <ele>174.22</ele>
        <time>2021-08-08T15:38:20Z</time>
      </trkpt>
      <trkpt lat="48.98193" lon="0.06671">
        <ele>174.22</ele>
        <time>2021-08-08T15:38:21Z</time>
      </trkpt>
      <trkpt lat="48.98193" lon="0.06671">
        <ele>174.21</ele>
        <time>2021-08-08T15:38:22Z</time>
      </trkpt>
      <trkpt lat="48.98193" lon="0.06671">
        <ele>174.21</ele>
        <time>2021-08-08T15:38:23Z</time>
      </trkpt>
      <trkpt lat="48.98193" lon="0.06671">
        <ele>174.21</ele>
        <time>2021-08-08T15:38:24Z</time>
      </trkpt>
      <trkpt lat="48.98193" lon="0.06671">
        <ele>174.21</ele>
        <time>2021-08-08T15:38:25Z</time>
      </trkpt>
      <trkpt lat="48.98193" lon="0.06671">
        <ele>174.21</ele>
        <time>2021-08-08T15:38:26Z</time>
      </trkpt>
      <trkpt lat="48.98193" lon="0.06671">
        <ele>174.21</ele>
        <time>2021-08-08T15:38:27Z</time>
      </trkpt>
      <trkpt lat="48.98193" lon="0.06671">
        <ele>174.21</ele>
        <time>2021-08-08T15:38:28Z</time>
      </trkpt>
      <trkpt lat="48.98196" lon="0.06658">
        <ele>174.05</ele>
        <time>2021-08-08T15:38:29Z</time>
      </trkpt>
      <trkpt lat="48.98196" lon="0.06657">
        <ele>174</ele>
        <time>2021-08-08T15:38:30Z</time>
      </trkpt>
      <trkpt lat="48.98197" lon="0.06656">
        <ele>173.98</ele>
        <time>2021-08-08T15:38:31Z</time>
      </trkpt>
      <trkpt lat="48.98197" lon="0.06655">
        <ele>173.97</ele>
        <time>2021-08-08T15:38:32Z</time>
      </trkpt>
      <trkpt lat="48.98197" lon="0.06655">
        <ele>173.96</ele>
        <time>2021-08-08T15:38:33Z</time>
      </trkpt>
      <trkpt lat="48.98197" lon="0.06655">
        <ele>173.96</ele>
        <time>2021-08-08T15:38:34Z</time>
      </trkpt>
      <trkpt lat="48.98197" lon="0.06655">
        <ele>173.96</ele>
        <time>2021-08-08T15:38:35Z</time>
      </trkpt>
      <trkpt lat="48.98197" lon="0.06655">
        <ele>173.96</ele>
        <time>2021-08-08T15:38:36Z</time>
      </trkpt>
      <trkpt lat="48.98197" lon="0.06655">
        <ele>173.96</ele>
        <time>2021-08-08T15:38:37Z</time>
      </trkpt>
      <trkpt lat="48.98197" lon="0.06655">
        <ele>173.96</ele>
        <time>2021-08-08T15:38:38Z</time>
      </trkpt>
      <trkpt lat="48.98197" lon="0.06655">
        <ele>173.96</ele>
        <time>2021-08-08T15:38:39Z</time>
      </trkpt>
      <trkpt lat="48.98197" lon="0.06655">
        <ele>173.96</ele>
        <time>2021-08-08T15:38:40Z</time>
      </trkpt>
      <trkpt lat="48.98197" lon="0.06655">
        <ele>173.96</ele>
        <time>2021-08-08T15:38:41Z</time>
      </trkpt>
      <trkpt lat="48.98197" lon="0.06655">
        <ele>173.96</ele>
        <time>2021-08-08T15:38:42Z</time>
      </trkpt>
      <trkpt lat="48.98196" lon="0.06646">
        <ele>173.97</ele>
        <time>2021-08-08T15:38:43Z</time>
      </trkpt>
      <trkpt lat="48.98196" lon="0.06645">
        <ele>173.96</ele>
        <time>2021-08-08T15:38:44Z</time>
      </trkpt>
      <trkpt lat="48.98196" lon="0.06643">
        <ele>173.96</ele>
        <time>2021-08-08T15:38:45Z</time>
      </trkpt>
      <trkpt lat="48.98195" lon="0.06642">
        <ele>173.97</ele>
        <time>2021-08-08T15:38:46Z</time>
      </trkpt>
      <trkpt lat="48.98195" lon="0.0664">
        <ele>173.98</ele>
        <time>2021-08-08T15:38:47Z</time>
      </trkpt>
      <trkpt lat="48.98194" lon="0.06639">
        <ele>173.98</ele>
        <time>2021-08-08T15:38:48Z</time>
      </trkpt>
      <trkpt lat="48.98194" lon="0.06636">
        <ele>173.93</ele>
        <time>2021-08-08T15:38:49Z</time>
      </trkpt>
      <trkpt lat="48.98194" lon="0.06633">
        <ele>173.85</ele>
        <time>2021-08-08T15:38:50Z</time>
      </trkpt>
      <trkpt lat="48.98194" lon="0.06631">
        <ele>173.77</ele>
        <time>2021-08-08T15:38:51Z</time>
      </trkpt>
      <trkpt lat="48.98193" lon="0.06629">
        <ele>173.7</ele>
        <time>2021-08-08T15:38:52Z</time>
      </trkpt>
      <trkpt lat="48.98193" lon="0.06626">
        <ele>173.62</ele>
        <time>2021-08-08T15:38:53Z</time>
      </trkpt>
      <trkpt lat="48.98193" lon="0.06623">
        <ele>173.49</ele>
        <time>2021-08-08T15:38:54Z</time>
      </trkpt>
      <trkpt lat="48.98193" lon="0.06619">
        <ele>173.35</ele>
        <time>2021-08-08T15:38:55Z</time>
      </trkpt>
      <trkpt lat="48.98192" lon="0.06616">
        <ele>173.23</ele>
        <time>2021-08-08T15:38:56Z</time>
      </trkpt>
      <trkpt lat="48.98191" lon="0.06613">
        <ele>173.12</ele>
        <time>2021-08-08T15:38:57Z</time>
      </trkpt>
      <trkpt lat="48.9819" lon="0.06611">
        <ele>173.04</ele>
        <time>2021-08-08T15:38:58Z</time>
      </trkpt>
      <trkpt lat="48.98192" lon="0.06609">
        <ele>172.9</ele>
        <time>2021-08-08T15:38:59Z</time>
      </trkpt>
      <trkpt lat="48.98193" lon="0.06607">
        <ele>172.76</ele>
        <time>2021-08-08T15:39:00Z</time>
      </trkpt>
      <trkpt lat="48.98194" lon="0.06605">
        <ele>172.61</ele>
        <time>2021-08-08T15:39:01Z</time>
      </trkpt>
      <trkpt lat="48.98196" lon="0.06603">
        <ele>172.43</ele>
        <time>2021-08-08T15:39:02Z</time>
      </trkpt>
      <trkpt lat="48.98198" lon="0.066">
        <ele>172.2</ele>
        <time>2021-08-08T15:39:03Z</time>
      </trkpt>
      <trkpt lat="48.98201" lon="0.06599">
        <ele>171.95</ele>
        <time>2021-08-08T15:39:04Z</time>
      </trkpt>
      <trkpt lat="48.98204" lon="0.06596">
        <ele>171.68</ele>
        <time>2021-08-08T15:39:05Z</time>
      </trkpt>
      <trkpt lat="48.98207" lon="0.06593">
        <ele>171.37</ele>
        <time>2021-08-08T15:39:06Z</time>
      </trkpt>
      <trkpt lat="48.9821" lon="0.06588">
        <ele>170.96</ele>
        <time>2021-08-08T15:39:07Z</time>
      </trkpt>
      <trkpt lat="48.98213" lon="0.06584">
        <ele>170.55</ele>
        <time>2021-08-08T15:39:08Z</time>
      </trkpt>
      <trkpt lat="48.98216" lon="0.0658">
        <ele>170.25</ele>
        <time>2021-08-08T15:39:09Z</time>
      </trkpt>
      <trkpt lat="48.98218" lon="0.06578">
        <ele>170.03</ele>
        <time>2021-08-08T15:39:10Z</time>
      </trkpt>
      <trkpt lat="48.9822" lon="0.06575">
        <ele>169.85</ele>
        <time>2021-08-08T15:39:11Z</time>
      </trkpt>
      <trkpt lat="48.98222" lon="0.06572">
        <ele>169.66</ele>
        <time>2021-08-08T15:39:12Z</time>
      </trkpt>
      <trkpt lat="48.98224" lon="0.06568">
        <ele>169.47</ele>
        <time>2021-08-08T15:39:13Z</time>
      </trkpt>
      <trkpt lat="48.98227" lon="0.06564">
        <ele>169.25</ele>
        <time>2021-08-08T15:39:14Z</time>
      </trkpt>
      <trkpt lat="48.9823" lon="0.06562">
        <ele>169.04</ele>
        <time>2021-08-08T15:39:15Z</time>
      </trkpt>
      <trkpt lat="48.98233" lon="0.06559">
        <ele>168.82</ele>
        <time>2021-08-08T15:39:16Z</time>
      </trkpt>
      <trkpt lat="48.98236" lon="0.06555">
        <ele>168.59</ele>
        <time>2021-08-08T15:39:17Z</time>
      </trkpt>
      <trkpt lat="48.98239" lon="0.06552">
        <ele>168.29</ele>
        <time>2021-08-08T15:39:18Z</time>
      </trkpt>
      <trkpt lat="48.98242" lon="0.06548">
        <ele>167.91</ele>
        <time>2021-08-08T15:39:19Z</time>
      </trkpt>
      <trkpt lat="48.98245" lon="0.06544">
        <ele>167.49</ele>
        <time>2021-08-08T15:39:20Z</time>
      </trkpt>
      <trkpt lat="48.98248" lon="0.06538">
        <ele>167.03</ele>
        <time>2021-08-08T15:39:21Z</time>
      </trkpt>
      <trkpt lat="48.98252" lon="0.06534">
        <ele>166.51</ele>
        <time>2021-08-08T15:39:22Z</time>
      </trkpt>
      <trkpt lat="48.98255" lon="0.06529">
        <ele>165.94</ele>
        <time>2021-08-08T15:39:23Z</time>
      </trkpt>
      <trkpt lat="48.98259" lon="0.06525">
        <ele>165.38</ele>
        <time>2021-08-08T15:39:24Z</time>
      </trkpt>
      <trkpt lat="48.98263" lon="0.06521">
        <ele>164.83</ele>
        <time>2021-08-08T15:39:25Z</time>
      </trkpt>
      <trkpt lat="48.98267" lon="0.06518">
        <ele>164.3</ele>
        <time>2021-08-08T15:39:26Z</time>
      </trkpt>
      <trkpt lat="48.98271" lon="0.06514">
        <ele>163.77</ele>
        <time>2021-08-08T15:39:27Z</time>
      </trkpt>
      <trkpt lat="48.98273" lon="0.06512">
        <ele>163.34</ele>
        <time>2021-08-08T15:39:28Z</time>
      </trkpt>
      <trkpt lat="48.98277" lon="0.06509">
        <ele>162.9</ele>
        <time>2021-08-08T15:39:29Z</time>
      </trkpt>
      <trkpt lat="48.98281" lon="0.06505">
        <ele>162.27</ele>
        <time>2021-08-08T15:39:30Z</time>
      </trkpt>
      <trkpt lat="48.98285" lon="0.06502">
        <ele>161.6</ele>
        <time>2021-08-08T15:39:31Z</time>
      </trkpt>
      <trkpt lat="48.98289" lon="0.06499">
        <ele>160.95</ele>
        <time>2021-08-08T15:39:32Z</time>
      </trkpt>
      <trkpt lat="48.98294" lon="0.06497">
        <ele>160.3</ele>
        <time>2021-08-08T15:39:33Z</time>
      </trkpt>
      <trkpt lat="48.98299" lon="0.06495">
        <ele>159.66</ele>
        <time>2021-08-08T15:39:34Z</time>
      </trkpt>
      <trkpt lat="48.98304" lon="0.06495">
        <ele>159.04</ele>
        <time>2021-08-08T15:39:35Z</time>
      </trkpt>
      <trkpt lat="48.9831" lon="0.06492">
        <ele>158.29</ele>
        <time>2021-08-08T15:39:36Z</time>
      </trkpt>
      <trkpt lat="48.98318" lon="0.06488">
        <ele>157.26</ele>
        <time>2021-08-08T15:39:37Z</time>
      </trkpt>
      <trkpt lat="48.98322" lon="0.06484">
        <ele>156.45</ele>
        <time>2021-08-08T15:39:38Z</time>
      </trkpt>
      <trkpt lat="48.98328" lon="0.06481">
        <ele>155.6</ele>
        <time>2021-08-08T15:39:39Z</time>
      </trkpt>
      <trkpt lat="48.98333" lon="0.06478">
        <ele>154.76</ele>
        <time>2021-08-08T15:39:40Z</time>
      </trkpt>
      <trkpt lat="48.98339" lon="0.06474">
        <ele>153.92</ele>
        <time>2021-08-08T15:39:41Z</time>
      </trkpt>
      <trkpt lat="48.98344" lon="0.06471">
        <ele>153.05</ele>
        <time>2021-08-08T15:39:42Z</time>
      </trkpt>
      <trkpt lat="48.9835" lon="0.06467">
        <ele>152.23</ele>
        <time>2021-08-08T15:39:43Z</time>
      </trkpt>
      <trkpt lat="48.98354" lon="0.06464">
        <ele>151.53</ele>
        <time>2021-08-08T15:39:44Z</time>
      </trkpt>
      <trkpt lat="48.98359" lon="0.06462">
        <ele>150.83</ele>
        <time>2021-08-08T15:39:45Z</time>
      </trkpt>
      <trkpt lat="48.9836" lon="0.0646">
        <ele>150.41</ele>
        <time>2021-08-08T15:39:46Z</time>
      </trkpt>
      <trkpt lat="48.98358" lon="0.06458">
        <ele>150.3</ele>
        <time>2021-08-08T15:39:47Z</time>
      </trkpt>
      <trkpt lat="48.98357" lon="0.06457">
        <ele>150.35</ele>
        <time>2021-08-08T15:39:48Z</time>
      </trkpt>
      <trkpt lat="48.98356" lon="0.06457">
        <ele>150.4</ele>
        <time>2021-08-08T15:39:49Z</time>
      </trkpt>
      <trkpt lat="48.98356" lon="0.06456">
        <ele>150.39</ele>
        <time>2021-08-08T15:39:50Z</time>
      </trkpt>
      <trkpt lat="48.98356" lon="0.06456">
        <ele>150.39</ele>
        <time>2021-08-08T15:39:51Z</time>
      </trkpt>
      <trkpt lat="48.98357" lon="0.06452">
        <ele>150.12</ele>
        <time>2021-08-08T15:39:52Z</time>
      </trkpt>
      <trkpt lat="48.98357" lon="0.0645">
        <ele>149.9</ele>
        <time>2021-08-08T15:39:53Z</time>
      </trkpt>
      <trkpt lat="48.98358" lon="0.06452">
        <ele>149.87</ele>
        <time>2021-08-08T15:39:54Z</time>
      </trkpt>
      <trkpt lat="48.98357" lon="0.06448">
        <ele>149.75</ele>
        <time>2021-08-08T15:39:55Z</time>
      </trkpt>
      <trkpt lat="48.98357" lon="0.06445">
        <ele>149.57</ele>
        <time>2021-08-08T15:39:56Z</time>
      </trkpt>
      <trkpt lat="48.98357" lon="0.06445">
        <ele>149.52</ele>
        <time>2021-08-08T15:39:57Z</time>
      </trkpt>
      <trkpt lat="48.98355" lon="0.06443">
        <ele>149.52</ele>
        <time>2021-08-08T15:39:58Z</time>
      </trkpt>
      <trkpt lat="48.98355" lon="0.06442">
        <ele>149.4</ele>
        <time>2021-08-08T15:39:59Z</time>
      </trkpt>
      <trkpt lat="48.98356" lon="0.0644">
        <ele>149.17</ele>
        <time>2021-08-08T15:40:00Z</time>
      </trkpt>
      <trkpt lat="48.98357" lon="0.06436">
        <ele>148.76</ele>
        <time>2021-08-08T15:40:01Z</time>
      </trkpt>
      <trkpt lat="48.98359" lon="0.06433">
        <ele>148.24</ele>
        <time>2021-08-08T15:40:02Z</time>
      </trkpt>
      <trkpt lat="48.98362" lon="0.06431">
        <ele>147.65</ele>
        <time>2021-08-08T15:40:03Z</time>
      </trkpt>
      <trkpt lat="48.98366" lon="0.06429">
        <ele>147.02</ele>
        <time>2021-08-08T15:40:04Z</time>
      </trkpt>
      <trkpt lat="48.98371" lon="0.06425">
        <ele>146.14</ele>
        <time>2021-08-08T15:40:05Z</time>
      </trkpt>
      <trkpt lat="48.98375" lon="0.0642">
        <ele>145.27</ele>
        <time>2021-08-08T15:40:06Z</time>
      </trkpt>
      <trkpt lat="48.98377" lon="0.06419">
        <ele>144.73</ele>
        <time>2021-08-08T15:40:07Z</time>
      </trkpt>
      <trkpt lat="48.98383" lon="0.06412">
        <ele>143.73</ele>
        <time>2021-08-08T15:40:08Z</time>
      </trkpt>
      <trkpt lat="48.98386" lon="0.06406">
        <ele>142.89</ele>
        <time>2021-08-08T15:40:09Z</time>
      </trkpt>
      <trkpt lat="48.9839" lon="0.06401">
        <ele>142.11</ele>
        <time>2021-08-08T15:40:10Z</time>
      </trkpt>
      <trkpt lat="48.98394" lon="0.06396">
        <ele>141.28</ele>
        <time>2021-08-08T15:40:11Z</time>
      </trkpt>
      <trkpt lat="48.98399" lon="0.06392">
        <ele>140.49</ele>
        <time>2021-08-08T15:40:12Z</time>
      </trkpt>
      <trkpt lat="48.98404" lon="0.06387">
        <ele>139.57</ele>
        <time>2021-08-08T15:40:13Z</time>
      </trkpt>
      <trkpt lat="48.98409" lon="0.06383">
        <ele>138.75</ele>
        <time>2021-08-08T15:40:14Z</time>
      </trkpt>
      <trkpt lat="48.98413" lon="0.06377">
        <ele>137.89</ele>
        <time>2021-08-08T15:40:15Z</time>
      </trkpt>
      <trkpt lat="48.98417" lon="0.06369">
        <ele>136.96</ele>
        <time>2021-08-08T15:40:16Z</time>
      </trkpt>
      <trkpt lat="48.98421" lon="0.0636">
        <ele>136.02</ele>
        <time>2021-08-08T15:40:17Z</time>
      </trkpt>
      <trkpt lat="48.98424" lon="0.06351">
        <ele>135.18</ele>
        <time>2021-08-08T15:40:18Z</time>
      </trkpt>
      <trkpt lat="48.98427" lon="0.06343">
        <ele>134.5</ele>
        <time>2021-08-08T15:40:19Z</time>
      </trkpt>
      <trkpt lat="48.9843" lon="0.06335">
        <ele>133.88</ele>
        <time>2021-08-08T15:40:20Z</time>
      </trkpt>
      <trkpt lat="48.98432" lon="0.06328">
        <ele>133.39</ele>
        <time>2021-08-08T15:40:21Z</time>
      </trkpt>
      <trkpt lat="48.98435" lon="0.0632">
        <ele>132.8</ele>
        <time>2021-08-08T15:40:22Z</time>
      </trkpt>
      <trkpt lat="48.98439" lon="0.06313">
        <ele>132.15</ele>
        <time>2021-08-08T15:40:23Z</time>
      </trkpt>
      <trkpt lat="48.98443" lon="0.06305">
        <ele>131.4</ele>
        <time>2021-08-08T15:40:24Z</time>
      </trkpt>
      <trkpt lat="48.98447" lon="0.06298">
        <ele>130.86</ele>
        <time>2021-08-08T15:40:25Z</time>
      </trkpt>
      <trkpt lat="48.98451" lon="0.06288">
        <ele>130.35</ele>
        <time>2021-08-08T15:40:26Z</time>
      </trkpt>
      <trkpt lat="48.98454" lon="0.06281">
        <ele>129.93</ele>
        <time>2021-08-08T15:40:27Z</time>
      </trkpt>
      <trkpt lat="48.98458" lon="0.06273">
        <ele>129.52</ele>
        <time>2021-08-08T15:40:28Z</time>
      </trkpt>
      <trkpt lat="48.98462" lon="0.06266">
        <ele>129.12</ele>
        <time>2021-08-08T15:40:29Z</time>
      </trkpt>
      <trkpt lat="48.98465" lon="0.06258">
        <ele>128.72</ele>
        <time>2021-08-08T15:40:30Z</time>
      </trkpt>
      <trkpt lat="48.98469" lon="0.0625">
        <ele>128.29</ele>
        <time>2021-08-08T15:40:31Z</time>
      </trkpt>
      <trkpt lat="48.98472" lon="0.06242">
        <ele>127.9</ele>
        <time>2021-08-08T15:40:32Z</time>
      </trkpt>
      <trkpt lat="48.98474" lon="0.06235">
        <ele>127.53</ele>
        <time>2021-08-08T15:40:33Z</time>
      </trkpt>
      <trkpt lat="48.98477" lon="0.06227">
        <ele>127.16</ele>
        <time>2021-08-08T15:40:34Z</time>
      </trkpt>
      <trkpt lat="48.9848" lon="0.0622">
        <ele>126.85</ele>
        <time>2021-08-08T15:40:35Z</time>
      </trkpt>
      <trkpt lat="48.98482" lon="0.06215">
        <ele>126.69</ele>
        <time>2021-08-08T15:40:36Z</time>
      </trkpt>
      <trkpt lat="48.98485" lon="0.06209">
        <ele>126.59</ele>
        <time>2021-08-08T15:40:37Z</time>
      </trkpt>
      <trkpt lat="48.98488" lon="0.06204">
        <ele>126.49</ele>
        <time>2021-08-08T15:40:38Z</time>
      </trkpt>
      <trkpt lat="48.98489" lon="0.06199">
        <ele>126.42</ele>
        <time>2021-08-08T15:40:39Z</time>
      </trkpt>
      <trkpt lat="48.98492" lon="0.06195">
        <ele>126.34</ele>
        <time>2021-08-08T15:40:40Z</time>
      </trkpt>
      <trkpt lat="48.98493" lon="0.0619">
        <ele>126.16</ele>
        <time>2021-08-08T15:40:41Z</time>
      </trkpt>
      <trkpt lat="48.98495" lon="0.06186">
        <ele>125.97</ele>
        <time>2021-08-08T15:40:42Z</time>
      </trkpt>
      <trkpt lat="48.98497" lon="0.06183">
        <ele>125.79</ele>
        <time>2021-08-08T15:40:43Z</time>
      </trkpt>
      <trkpt lat="48.98498" lon="0.0618">
        <ele>125.63</ele>
        <time>2021-08-08T15:40:44Z</time>
      </trkpt>
      <trkpt lat="48.98499" lon="0.06179">
        <ele>125.52</ele>
        <time>2021-08-08T15:40:45Z</time>
      </trkpt>
      <trkpt lat="48.98499" lon="0.06176">
        <ele>125.44</ele>
        <time>2021-08-08T15:40:46Z</time>
      </trkpt>
      <trkpt lat="48.98498" lon="0.06176">
        <ele>125.4</ele>
        <time>2021-08-08T15:40:47Z</time>
      </trkpt>
      <trkpt lat="48.98498" lon="0.06175">
        <ele>125.38</ele>
        <time>2021-08-08T15:40:48Z</time>
      </trkpt>
      <trkpt lat="48.98498" lon="0.06175">
        <ele>125.37</ele>
        <time>2021-08-08T15:40:49Z</time>
      </trkpt>
      <trkpt lat="48.98498" lon="0.06175">
        <ele>125.37</ele>
        <time>2021-08-08T15:40:50Z</time>
      </trkpt>
      <trkpt lat="48.98498" lon="0.06175">
        <ele>125.37</ele>
        <time>2021-08-08T15:40:51Z</time>
      </trkpt>
      <trkpt lat="48.98498" lon="0.06175">
        <ele>125.37</ele>
        <time>2021-08-08T15:40:52Z</time>
      </trkpt>
      <trkpt lat="48.98502" lon="0.06171">
        <ele>125.22</ele>
        <time>2021-08-08T15:40:53Z</time>
      </trkpt>
      <trkpt lat="48.98504" lon="0.06169">
        <ele>125.12</ele>
        <time>2021-08-08T15:40:54Z</time>
      </trkpt>
      <trkpt lat="48.98507" lon="0.06169">
        <ele>125.07</ele>
        <time>2021-08-08T15:40:55Z</time>
      </trkpt>
      <trkpt lat="48.98508" lon="0.06166">
        <ele>125.02</ele>
        <time>2021-08-08T15:40:56Z</time>
      </trkpt>
      <trkpt lat="48.98509" lon="0.06163">
        <ele>125.01</ele>
        <time>2021-08-08T15:40:57Z</time>
      </trkpt>
      <trkpt lat="48.9851" lon="0.06161">
        <ele>125</ele>
        <time>2021-08-08T15:40:58Z</time>
      </trkpt>
      <trkpt lat="48.9851" lon="0.06159">
        <ele>125</ele>
        <time>2021-08-08T15:40:59Z</time>
      </trkpt>
      <trkpt lat="48.98512" lon="0.06157">
        <ele>125</ele>
        <time>2021-08-08T15:41:00Z</time>
      </trkpt>
      <trkpt lat="48.98513" lon="0.06155">
        <ele>125</ele>
        <time>2021-08-08T15:41:01Z</time>
      </trkpt>
      <trkpt lat="48.98514" lon="0.06153">
        <ele>125</ele>
        <time>2021-08-08T15:41:02Z</time>
      </trkpt>
      <trkpt lat="48.98515" lon="0.06151">
        <ele>125</ele>
        <time>2021-08-08T15:41:03Z</time>
      </trkpt>
      <trkpt lat="48.98516" lon="0.06149">
        <ele>125</ele>
        <time>2021-08-08T15:41:04Z</time>
      </trkpt>
      <trkpt lat="48.98517" lon="0.06145">
        <ele>125</ele>
        <time>2021-08-08T15:41:05Z</time>
      </trkpt>
      <trkpt lat="48.98518" lon="0.06142">
        <ele>125</ele>
        <time>2021-08-08T15:41:06Z</time>
      </trkpt>
      <trkpt lat="48.9852" lon="0.06139">
        <ele>125</ele>
        <time>2021-08-08T15:41:07Z</time>
      </trkpt>
      <trkpt lat="48.98521" lon="0.06136">
        <ele>124.95</ele>
        <time>2021-08-08T15:41:08Z</time>
      </trkpt>
      <trkpt lat="48.98522" lon="0.06135">
        <ele>124.91</ele>
        <time>2021-08-08T15:41:09Z</time>
      </trkpt>
      <trkpt lat="48.98522" lon="0.06134">
        <ele>124.87</ele>
        <time>2021-08-08T15:41:10Z</time>
      </trkpt>
      <trkpt lat="48.98524" lon="0.06133">
        <ele>124.83</ele>
        <time>2021-08-08T15:41:11Z</time>
      </trkpt>
      <trkpt lat="48.98525" lon="0.06131">
        <ele>124.78</ele>
        <time>2021-08-08T15:41:12Z</time>
      </trkpt>
      <trkpt lat="48.98526" lon="0.0613">
        <ele>124.72</ele>
        <time>2021-08-08T15:41:13Z</time>
      </trkpt>
      <trkpt lat="48.98526" lon="0.06129">
        <ele>124.68</ele>
        <time>2021-08-08T15:41:14Z</time>
      </trkpt>
      <trkpt lat="48.98526" lon="0.06129">
        <ele>124.66</ele>
        <time>2021-08-08T15:41:15Z</time>
      </trkpt>
      <trkpt lat="48.98526" lon="0.06128">
        <ele>124.65</ele>
        <time>2021-08-08T15:41:16Z</time>
      </trkpt>
      <trkpt lat="48.98526" lon="0.06128">
        <ele>124.64</ele>
        <time>2021-08-08T15:41:17Z</time>
      </trkpt>
      <trkpt lat="48.98526" lon="0.06128">
        <ele>124.64</ele>
        <time>2021-08-08T15:41:18Z</time>
      </trkpt>
      <trkpt lat="48.98526" lon="0.06128">
        <ele>124.64</ele>
        <time>2021-08-08T15:41:19Z</time>
      </trkpt>
      <trkpt lat="48.98526" lon="0.06128">
        <ele>124.64</ele>
        <time>2021-08-08T15:41:20Z</time>
      </trkpt>
      <trkpt lat="48.98526" lon="0.06128">
        <ele>124.64</ele>
        <time>2021-08-08T15:41:21Z</time>
      </trkpt>
      <trkpt lat="48.98526" lon="0.06128">
        <ele>124.64</ele>
        <time>2021-08-08T15:41:22Z</time>
      </trkpt>
      <trkpt lat="48.98526" lon="0.06128">
        <ele>124.64</ele>
        <time>2021-08-08T15:41:23Z</time>
      </trkpt>
      <trkpt lat="48.98526" lon="0.06128">
        <ele>124.64</ele>
        <time>2021-08-08T15:41:24Z</time>
      </trkpt>
      <trkpt lat="48.98525" lon="0.06123">
        <ele>124.54</ele>
        <time>2021-08-08T15:41:25Z</time>
      </trkpt>
      <trkpt lat="48.98525" lon="0.0612">
        <ele>124.43</ele>
        <time>2021-08-08T15:41:26Z</time>
      </trkpt>
      <trkpt lat="48.98525" lon="0.06116">
        <ele>124.3</ele>
        <time>2021-08-08T15:41:27Z</time>
      </trkpt>
      <trkpt lat="48.98525" lon="0.06111">
        <ele>124.17</ele>
        <time>2021-08-08T15:41:28Z</time>
      </trkpt>
      <trkpt lat="48.98525" lon="0.06106">
        <ele>124.23</ele>
        <time>2021-08-08T15:41:29Z</time>
      </trkpt>
      <trkpt lat="48.98525" lon="0.06101">
        <ele>124.36</ele>
        <time>2021-08-08T15:41:30Z</time>
      </trkpt>
      <trkpt lat="48.98525" lon="0.06097">
        <ele>124.5</ele>
        <time>2021-08-08T15:41:31Z</time>
      </trkpt>
      <trkpt lat="48.98525" lon="0.06093">
        <ele>124.63</ele>
        <time>2021-08-08T15:41:32Z</time>
      </trkpt>
      <trkpt lat="48.98525" lon="0.06089">
        <ele>124.75</ele>
        <time>2021-08-08T15:41:33Z</time>
      </trkpt>
      <trkpt lat="48.98526" lon="0.06084">
        <ele>124.9</ele>
        <time>2021-08-08T15:41:34Z</time>
      </trkpt>
      <trkpt lat="48.98526" lon="0.0608">
        <ele>124.97</ele>
        <time>2021-08-08T15:41:35Z</time>
      </trkpt>
      <trkpt lat="48.98526" lon="0.06075">
        <ele>124.99</ele>
        <time>2021-08-08T15:41:36Z</time>
      </trkpt>
      <trkpt lat="48.98526" lon="0.06071">
        <ele>125</ele>
        <time>2021-08-08T15:41:37Z</time>
      </trkpt>
      <trkpt lat="48.98527" lon="0.06067">
        <ele>125</ele>
        <time>2021-08-08T15:41:38Z</time>
      </trkpt>
      <trkpt lat="48.98527" lon="0.06062">
        <ele>125</ele>
        <time>2021-08-08T15:41:39Z</time>
      </trkpt>
      <trkpt lat="48.98527" lon="0.06056">
        <ele>125</ele>
        <time>2021-08-08T15:41:40Z</time>
      </trkpt>
      <trkpt lat="48.98527" lon="0.0605">
        <ele>125.13</ele>
        <time>2021-08-08T15:41:41Z</time>
      </trkpt>
      <trkpt lat="48.98527" lon="0.06045">
        <ele>125.31</ele>
        <time>2021-08-08T15:41:42Z</time>
      </trkpt>
      <trkpt lat="48.98528" lon="0.06039">
        <ele>125.52</ele>
        <time>2021-08-08T15:41:43Z</time>
      </trkpt>
      <trkpt lat="48.98528" lon="0.06032">
        <ele>125.75</ele>
        <time>2021-08-08T15:41:44Z</time>
      </trkpt>
      <trkpt lat="48.98528" lon="0.06025">
        <ele>125.93</ele>
        <time>2021-08-08T15:41:45Z</time>
      </trkpt>
      <trkpt lat="48.98528" lon="0.06019">
        <ele>125.98</ele>
        <time>2021-08-08T15:41:46Z</time>
      </trkpt>
      <trkpt lat="48.98528" lon="0.06013">
        <ele>125.99</ele>
        <time>2021-08-08T15:41:47Z</time>
      </trkpt>
      <trkpt lat="48.98528" lon="0.06007">
        <ele>126</ele>
        <time>2021-08-08T15:41:48Z</time>
      </trkpt>
      <trkpt lat="48.98528" lon="0.06002">
        <ele>126</ele>
        <time>2021-08-08T15:41:49Z</time>
      </trkpt>
      <trkpt lat="48.98528" lon="0.05997">
        <ele>126.08</ele>
        <time>2021-08-08T15:41:50Z</time>
      </trkpt>
      <trkpt lat="48.98528" lon="0.05992">
        <ele>126.22</ele>
        <time>2021-08-08T15:41:51Z</time>
      </trkpt>
      <trkpt lat="48.98527" lon="0.05988">
        <ele>126.36</ele>
        <time>2021-08-08T15:41:52Z</time>
      </trkpt>
      <trkpt lat="48.98527" lon="0.05984">
        <ele>126.5</ele>
        <time>2021-08-08T15:41:53Z</time>
      </trkpt>
      <trkpt lat="48.98527" lon="0.0598">
        <ele>126.65</ele>
        <time>2021-08-08T15:41:54Z</time>
      </trkpt>
      <trkpt lat="48.98526" lon="0.05976">
        <ele>126.79</ele>
        <time>2021-08-08T15:41:55Z</time>
      </trkpt>
      <trkpt lat="48.98525" lon="0.05971">
        <ele>126.96</ele>
        <time>2021-08-08T15:41:56Z</time>
      </trkpt>
      <trkpt lat="48.98524" lon="0.05967">
        <ele>127.12</ele>
        <time>2021-08-08T15:41:57Z</time>
      </trkpt>
      <trkpt lat="48.98522" lon="0.05963">
        <ele>127.28</ele>
        <time>2021-08-08T15:41:58Z</time>
      </trkpt>
      <trkpt lat="48.98521" lon="0.05959">
        <ele>127.41</ele>
        <time>2021-08-08T15:41:59Z</time>
      </trkpt>
      <trkpt lat="48.9852" lon="0.05956">
        <ele>127.52</ele>
        <time>2021-08-08T15:42:00Z</time>
      </trkpt>
      <trkpt lat="48.9852" lon="0.05954">
        <ele>127.62</ele>
        <time>2021-08-08T15:42:01Z</time>
      </trkpt>
      <trkpt lat="48.9852" lon="0.05953">
        <ele>127.66</ele>
        <time>2021-08-08T15:42:02Z</time>
      </trkpt>
      <trkpt lat="48.9852" lon="0.05953">
        <ele>127.68</ele>
        <time>2021-08-08T15:42:03Z</time>
      </trkpt>
      <trkpt lat="48.9852" lon="0.05952">
        <ele>127.71</ele>
        <time>2021-08-08T15:42:04Z</time>
      </trkpt>
      <trkpt lat="48.9852" lon="0.05952">
        <ele>127.72</ele>
        <time>2021-08-08T15:42:05Z</time>
      </trkpt>
      <trkpt lat="48.9852" lon="0.05952">
        <ele>127.72</ele>
        <time>2021-08-08T15:42:06Z</time>
      </trkpt>
      <trkpt lat="48.98516" lon="0.05949">
        <ele>127.8</ele>
        <time>2021-08-08T15:42:07Z</time>
      </trkpt>
      <trkpt lat="48.98515" lon="0.05949">
        <ele>127.82</ele>
        <time>2021-08-08T15:42:08Z</time>
      </trkpt>
      <trkpt lat="48.98514" lon="0.05949">
        <ele>127.85</ele>
        <time>2021-08-08T15:42:09Z</time>
      </trkpt>
      <trkpt lat="48.98512" lon="0.05947">
        <ele>127.88</ele>
        <time>2021-08-08T15:42:10Z</time>
      </trkpt>
      <trkpt lat="48.9851" lon="0.05946">
        <ele>127.91</ele>
        <time>2021-08-08T15:42:11Z</time>
      </trkpt>
      <trkpt lat="48.98508" lon="0.05944">
        <ele>127.98</ele>
        <time>2021-08-08T15:42:12Z</time>
      </trkpt>
      <trkpt lat="48.98506" lon="0.05941">
        <ele>128.09</ele>
        <time>2021-08-08T15:42:13Z</time>
      </trkpt>
      <trkpt lat="48.98504" lon="0.05938">
        <ele>128.18</ele>
        <time>2021-08-08T15:42:14Z</time>
      </trkpt>
      <trkpt lat="48.98503" lon="0.05934">
        <ele>128.31</ele>
        <time>2021-08-08T15:42:15Z</time>
      </trkpt>
      <trkpt lat="48.985" lon="0.05929">
        <ele>128.48</ele>
        <time>2021-08-08T15:42:16Z</time>
      </trkpt>
      <trkpt lat="48.98499" lon="0.05927">
        <ele>128.58</ele>
        <time>2021-08-08T15:42:17Z</time>
      </trkpt>
      <trkpt lat="48.98498" lon="0.05922">
        <ele>128.68</ele>
        <time>2021-08-08T15:42:18Z</time>
      </trkpt>
      <trkpt lat="48.98497" lon="0.05919">
        <ele>128.79</ele>
        <time>2021-08-08T15:42:19Z</time>
      </trkpt>
      <trkpt lat="48.98497" lon="0.05915">
        <ele>128.86</ele>
        <time>2021-08-08T15:42:20Z</time>
      </trkpt>
      <trkpt lat="48.98497" lon="0.05912">
        <ele>128.87</ele>
        <time>2021-08-08T15:42:21Z</time>
      </trkpt>
      <trkpt lat="48.98497" lon="0.05909">
        <ele>128.88</ele>
        <time>2021-08-08T15:42:22Z</time>
      </trkpt>
      <trkpt lat="48.98497" lon="0.05904">
        <ele>128.89</ele>
        <time>2021-08-08T15:42:23Z</time>
      </trkpt>
      <trkpt lat="48.98497" lon="0.059">
        <ele>128.89</ele>
        <time>2021-08-08T15:42:24Z</time>
      </trkpt>
      <trkpt lat="48.98498" lon="0.05895">
        <ele>128.9</ele>
        <time>2021-08-08T15:42:25Z</time>
      </trkpt>
      <trkpt lat="48.98498" lon="0.0589">
        <ele>128.91</ele>
        <time>2021-08-08T15:42:26Z</time>
      </trkpt>
      <trkpt lat="48.98498" lon="0.05886">
        <ele>128.99</ele>
        <time>2021-08-08T15:42:27Z</time>
      </trkpt>
      <trkpt lat="48.98498" lon="0.05883">
        <ele>129.09</ele>
        <time>2021-08-08T15:42:28Z</time>
      </trkpt>
      <trkpt lat="48.98497" lon="0.05878">
        <ele>129.22</ele>
        <time>2021-08-08T15:42:29Z</time>
      </trkpt>
      <trkpt lat="48.98497" lon="0.05874">
        <ele>129.37</ele>
        <time>2021-08-08T15:42:30Z</time>
      </trkpt>
      <trkpt lat="48.98497" lon="0.0587">
        <ele>129.52</ele>
        <time>2021-08-08T15:42:31Z</time>
      </trkpt>
      <trkpt lat="48.98498" lon="0.05867">
        <ele>129.66</ele>
        <time>2021-08-08T15:42:32Z</time>
      </trkpt>
      <trkpt lat="48.98498" lon="0.05863">
        <ele>129.8</ele>
        <time>2021-08-08T15:42:33Z</time>
      </trkpt>
      <trkpt lat="48.98498" lon="0.05859">
        <ele>129.95</ele>
        <time>2021-08-08T15:42:34Z</time>
      </trkpt>
      <trkpt lat="48.98498" lon="0.05855">
        <ele>130.09</ele>
        <time>2021-08-08T15:42:35Z</time>
      </trkpt>
      <trkpt lat="48.98498" lon="0.05851">
        <ele>130.22</ele>
        <time>2021-08-08T15:42:36Z</time>
      </trkpt>
      <trkpt lat="48.98498" lon="0.05847">
        <ele>130.37</ele>
        <time>2021-08-08T15:42:37Z</time>
      </trkpt>
      <trkpt lat="48.98498" lon="0.05841">
        <ele>130.54</ele>
        <time>2021-08-08T15:42:38Z</time>
      </trkpt>
      <trkpt lat="48.98498" lon="0.05837">
        <ele>130.7</ele>
        <time>2021-08-08T15:42:39Z</time>
      </trkpt>
      <trkpt lat="48.98499" lon="0.05832">
        <ele>130.86</ele>
        <time>2021-08-08T15:42:40Z</time>
      </trkpt>
      <trkpt lat="48.98499" lon="0.05828">
        <ele>131.03</ele>
        <time>2021-08-08T15:42:41Z</time>
      </trkpt>
      <trkpt lat="48.98499" lon="0.05823">
        <ele>131.23</ele>
        <time>2021-08-08T15:42:42Z</time>
      </trkpt>
      <trkpt lat="48.985" lon="0.05819">
        <ele>131.44</ele>
        <time>2021-08-08T15:42:43Z</time>
      </trkpt>
      <trkpt lat="48.98501" lon="0.05814">
        <ele>131.61</ele>
        <time>2021-08-08T15:42:44Z</time>
      </trkpt>
      <trkpt lat="48.98502" lon="0.05809">
        <ele>131.8</ele>
        <time>2021-08-08T15:42:45Z</time>
      </trkpt>
      <trkpt lat="48.98502" lon="0.05804">
        <ele>131.99</ele>
        <time>2021-08-08T15:42:46Z</time>
      </trkpt>
      <trkpt lat="48.98502" lon="0.05799">
        <ele>132.16</ele>
        <time>2021-08-08T15:42:47Z</time>
      </trkpt>
      <trkpt lat="48.98503" lon="0.05795">
        <ele>132.32</ele>
        <time>2021-08-08T15:42:48Z</time>
      </trkpt>
      <trkpt lat="48.98504" lon="0.05791">
        <ele>132.46</ele>
        <time>2021-08-08T15:42:49Z</time>
      </trkpt>
      <trkpt lat="48.98503" lon="0.05787">
        <ele>132.6</ele>
        <time>2021-08-08T15:42:50Z</time>
      </trkpt>
      <trkpt lat="48.98503" lon="0.05783">
        <ele>132.75</ele>
        <time>2021-08-08T15:42:51Z</time>
      </trkpt>
      <trkpt lat="48.98504" lon="0.0578">
        <ele>132.88</ele>
        <time>2021-08-08T15:42:52Z</time>
      </trkpt>
      <trkpt lat="48.98504" lon="0.05778">
        <ele>132.96</ele>
        <time>2021-08-08T15:42:53Z</time>
      </trkpt>
      <trkpt lat="48.98504" lon="0.05776">
        <ele>133.05</ele>
        <time>2021-08-08T15:42:54Z</time>
      </trkpt>
      <trkpt lat="48.98503" lon="0.05774">
        <ele>133.12</ele>
        <time>2021-08-08T15:42:55Z</time>
      </trkpt>
      <trkpt lat="48.98504" lon="0.05773">
        <ele>133.18</ele>
        <time>2021-08-08T15:42:56Z</time>
      </trkpt>
      <trkpt lat="48.98504" lon="0.05773">
        <ele>133.2</ele>
        <time>2021-08-08T15:42:57Z</time>
      </trkpt>
      <trkpt lat="48.98504" lon="0.05773">
        <ele>133.21</ele>
        <time>2021-08-08T15:42:58Z</time>
      </trkpt>
      <trkpt lat="48.98504" lon="0.05773">
        <ele>133.21</ele>
        <time>2021-08-08T15:42:59Z</time>
      </trkpt>
      <trkpt lat="48.98504" lon="0.05773">
        <ele>133.21</ele>
        <time>2021-08-08T15:43:00Z</time>
      </trkpt>
      <trkpt lat="48.98504" lon="0.05773">
        <ele>133.21</ele>
        <time>2021-08-08T15:43:01Z</time>
      </trkpt>
      <trkpt lat="48.98504" lon="0.05773">
        <ele>133.21</ele>
        <time>2021-08-08T15:43:02Z</time>
      </trkpt>
      <trkpt lat="48.98504" lon="0.05773">
        <ele>133.21</ele>
        <time>2021-08-08T15:43:03Z</time>
      </trkpt>
      <trkpt lat="48.98504" lon="0.05773">
        <ele>133.21</ele>
        <time>2021-08-08T15:43:04Z</time>
      </trkpt>
      <trkpt lat="48.98504" lon="0.05773">
        <ele>133.21</ele>
        <time>2021-08-08T15:43:05Z</time>
      </trkpt>
      <trkpt lat="48.98504" lon="0.05773">
        <ele>133.21</ele>
        <time>2021-08-08T15:43:06Z</time>
      </trkpt>
      <trkpt lat="48.98506" lon="0.05759">
        <ele>133.64</ele>
        <time>2021-08-08T15:43:07Z</time>
      </trkpt>
      <trkpt lat="48.98506" lon="0.05758">
        <ele>133.8</ele>
        <time>2021-08-08T15:43:08Z</time>
      </trkpt>
      <trkpt lat="48.98506" lon="0.05757">
        <ele>133.89</ele>
        <time>2021-08-08T15:43:09Z</time>
      </trkpt>
      <trkpt lat="48.98506" lon="0.05755">
        <ele>133.98</ele>
        <time>2021-08-08T15:43:10Z</time>
      </trkpt>
      <trkpt lat="48.98506" lon="0.05755">
        <ele>134</ele>
        <time>2021-08-08T15:43:11Z</time>
      </trkpt>
      <trkpt lat="48.98506" lon="0.05755">
        <ele>134.01</ele>
        <time>2021-08-08T15:43:12Z</time>
      </trkpt>
      <trkpt lat="48.98506" lon="0.05755">
        <ele>134.01</ele>
        <time>2021-08-08T15:43:13Z</time>
      </trkpt>
      <trkpt lat="48.98508" lon="0.05747">
        <ele>134.26</ele>
        <time>2021-08-08T15:43:14Z</time>
      </trkpt>
      <trkpt lat="48.98508" lon="0.05746">
        <ele>134.38</ele>
        <time>2021-08-08T15:43:15Z</time>
      </trkpt>
      <trkpt lat="48.98508" lon="0.05743">
        <ele>134.49</ele>
        <time>2021-08-08T15:43:17Z</time>
      </trkpt>
      <trkpt lat="48.98508" lon="0.05743">
        <ele>134.52</ele>
        <time>2021-08-08T15:43:18Z</time>
      </trkpt>
      <trkpt lat="48.98508" lon="0.05743">
        <ele>134.53</ele>
        <time>2021-08-08T15:43:19Z</time>
      </trkpt>
      <trkpt lat="48.98508" lon="0.05743">
        <ele>134.53</ele>
        <time>2021-08-08T15:43:20Z</time>
      </trkpt>
      <trkpt lat="48.98508" lon="0.05743">
        <ele>134.53</ele>
        <time>2021-08-08T15:43:21Z</time>
      </trkpt>
      <trkpt lat="48.98508" lon="0.05743">
        <ele>134.53</ele>
        <time>2021-08-08T15:43:22Z</time>
      </trkpt>
      <trkpt lat="48.98508" lon="0.05733">
        <ele>134.8</ele>
        <time>2021-08-08T15:43:23Z</time>
      </trkpt>
      <trkpt lat="48.98508" lon="0.05731">
        <ele>134.93</ele>
        <time>2021-08-08T15:43:24Z</time>
      </trkpt>
      <trkpt lat="48.98508" lon="0.05728">
        <ele>135.04</ele>
        <time>2021-08-08T15:43:25Z</time>
      </trkpt>
      <trkpt lat="48.98508" lon="0.05727">
        <ele>135.08</ele>
        <time>2021-08-08T15:43:26Z</time>
      </trkpt>
      <trkpt lat="48.98508" lon="0.05726">
        <ele>135.13</ele>
        <time>2021-08-08T15:43:27Z</time>
      </trkpt>
      <trkpt lat="48.98508" lon="0.05726">
        <ele>135.14</ele>
        <time>2021-08-08T15:43:28Z</time>
      </trkpt>
      <trkpt lat="48.98508" lon="0.05726">
        <ele>135.14</ele>
        <time>2021-08-08T15:43:29Z</time>
      </trkpt>
      <trkpt lat="48.98508" lon="0.05726">
        <ele>135.15</ele>
        <time>2021-08-08T15:43:30Z</time>
      </trkpt>
      <trkpt lat="48.98508" lon="0.05726">
        <ele>135.15</ele>
        <time>2021-08-08T15:43:31Z</time>
      </trkpt>
      <trkpt lat="48.98508" lon="0.05726">
        <ele>135.15</ele>
        <time>2021-08-08T15:43:32Z</time>
      </trkpt>
      <trkpt lat="48.98508" lon="0.05726">
        <ele>135.15</ele>
        <time>2021-08-08T15:43:33Z</time>
      </trkpt>
      <trkpt lat="48.98508" lon="0.05726">
        <ele>135.15</ele>
        <time>2021-08-08T15:43:34Z</time>
      </trkpt>
      <trkpt lat="48.98508" lon="0.05726">
        <ele>135.15</ele>
        <time>2021-08-08T15:43:35Z</time>
      </trkpt>
      <trkpt lat="48.98508" lon="0.05726">
        <ele>135.15</ele>
        <time>2021-08-08T15:43:36Z</time>
      </trkpt>
      <trkpt lat="48.98509" lon="0.05711">
        <ele>135.55</ele>
        <time>2021-08-08T15:43:37Z</time>
      </trkpt>
      <trkpt lat="48.98509" lon="0.0571">
        <ele>135.69</ele>
        <time>2021-08-08T15:43:38Z</time>
      </trkpt>
      <trkpt lat="48.98509" lon="0.05708">
        <ele>135.79</ele>
        <time>2021-08-08T15:43:39Z</time>
      </trkpt>
      <trkpt lat="48.98509" lon="0.05707">
        <ele>135.85</ele>
        <time>2021-08-08T15:43:40Z</time>
      </trkpt>
      <trkpt lat="48.98509" lon="0.05707">
        <ele>135.88</ele>
        <time>2021-08-08T15:43:41Z</time>
      </trkpt>
      <trkpt lat="48.98509" lon="0.05707">
        <ele>135.88</ele>
        <time>2021-08-08T15:43:42Z</time>
      </trkpt>
      <trkpt lat="48.98509" lon="0.05707">
        <ele>135.88</ele>
        <time>2021-08-08T15:43:43Z</time>
      </trkpt>
      <trkpt lat="48.98509" lon="0.05707">
        <ele>135.88</ele>
        <time>2021-08-08T15:43:44Z</time>
      </trkpt>
      <trkpt lat="48.98509" lon="0.05707">
        <ele>135.88</ele>
        <time>2021-08-08T15:43:45Z</time>
      </trkpt>
      <trkpt lat="48.98509" lon="0.05707">
        <ele>135.88</ele>
        <time>2021-08-08T15:43:46Z</time>
      </trkpt>
      <trkpt lat="48.98509" lon="0.05707">
        <ele>135.88</ele>
        <time>2021-08-08T15:43:47Z</time>
      </trkpt>
      <trkpt lat="48.98509" lon="0.05707">
        <ele>135.88</ele>
        <time>2021-08-08T15:43:48Z</time>
      </trkpt>
      <trkpt lat="48.98509" lon="0.05707">
        <ele>135.88</ele>
        <time>2021-08-08T15:43:49Z</time>
      </trkpt>
      <trkpt lat="48.98509" lon="0.05707">
        <ele>135.88</ele>
        <time>2021-08-08T15:43:50Z</time>
      </trkpt>
      <trkpt lat="48.98509" lon="0.05707">
        <ele>135.88</ele>
        <time>2021-08-08T15:43:51Z</time>
      </trkpt>
      <trkpt lat="48.98509" lon="0.05707">
        <ele>135.88</ele>
        <time>2021-08-08T15:43:52Z</time>
      </trkpt>
      <trkpt lat="48.98509" lon="0.05707">
        <ele>135.88</ele>
        <time>2021-08-08T15:43:53Z</time>
      </trkpt>
      <trkpt lat="48.98509" lon="0.05707">
        <ele>135.88</ele>
        <time>2021-08-08T15:43:54Z</time>
      </trkpt>
      <trkpt lat="48.98509" lon="0.05707">
        <ele>135.88</ele>
        <time>2021-08-08T15:43:55Z</time>
      </trkpt>
      <trkpt lat="48.98511" lon="0.05693">
        <ele>136.34</ele>
        <time>2021-08-08T15:43:56Z</time>
      </trkpt>
      <trkpt lat="48.98511" lon="0.05693">
        <ele>136.43</ele>
        <time>2021-08-08T15:43:57Z</time>
      </trkpt>
      <trkpt lat="48.98511" lon="0.05693">
        <ele>136.46</ele>
        <time>2021-08-08T15:43:58Z</time>
      </trkpt>
      <trkpt lat="48.98511" lon="0.05693">
        <ele>136.5</ele>
        <time>2021-08-08T15:43:59Z</time>
      </trkpt>
      <trkpt lat="48.98511" lon="0.05693">
        <ele>136.51</ele>
        <time>2021-08-08T15:44:00Z</time>
      </trkpt>
      <trkpt lat="48.98511" lon="0.05693">
        <ele>136.52</ele>
        <time>2021-08-08T15:44:01Z</time>
      </trkpt>
      <trkpt lat="48.98511" lon="0.05693">
        <ele>136.52</ele>
        <time>2021-08-08T15:44:02Z</time>
      </trkpt>
      <trkpt lat="48.98511" lon="0.05693">
        <ele>136.52</ele>
        <time>2021-08-08T15:44:03Z</time>
      </trkpt>
      <trkpt lat="48.98511" lon="0.05693">
        <ele>136.52</ele>
        <time>2021-08-08T15:44:04Z</time>
      </trkpt>
      <trkpt lat="48.98511" lon="0.05693">
        <ele>136.52</ele>
        <time>2021-08-08T15:44:05Z</time>
      </trkpt>
      <trkpt lat="48.98511" lon="0.05693">
        <ele>136.52</ele>
        <time>2021-08-08T15:44:06Z</time>
      </trkpt>
      <trkpt lat="48.98511" lon="0.05693">
        <ele>136.52</ele>
        <time>2021-08-08T15:44:07Z</time>
      </trkpt>
      <trkpt lat="48.98511" lon="0.05693">
        <ele>136.52</ele>
        <time>2021-08-08T15:44:08Z</time>
      </trkpt>
      <trkpt lat="48.98511" lon="0.05693">
        <ele>136.52</ele>
        <time>2021-08-08T15:44:09Z</time>
      </trkpt>
      <trkpt lat="48.98511" lon="0.05693">
        <ele>136.52</ele>
        <time>2021-08-08T15:44:10Z</time>
      </trkpt>
      <trkpt lat="48.98511" lon="0.05693">
        <ele>136.52</ele>
        <time>2021-08-08T15:44:11Z</time>
      </trkpt>
      <trkpt lat="48.98511" lon="0.05693">
        <ele>136.52</ele>
        <time>2021-08-08T15:44:12Z</time>
      </trkpt>
      <trkpt lat="48.98511" lon="0.05693">
        <ele>136.52</ele>
        <time>2021-08-08T15:44:13Z</time>
      </trkpt>
      <trkpt lat="48.98511" lon="0.05693">
        <ele>136.52</ele>
        <time>2021-08-08T15:44:14Z</time>
      </trkpt>
      <trkpt lat="48.98511" lon="0.05693">
        <ele>136.52</ele>
        <time>2021-08-08T15:44:15Z</time>
      </trkpt>
      <trkpt lat="48.98511" lon="0.05693">
        <ele>136.52</ele>
        <time>2021-08-08T15:44:16Z</time>
      </trkpt>
      <trkpt lat="48.98511" lon="0.05693">
        <ele>136.52</ele>
        <time>2021-08-08T15:44:17Z</time>
      </trkpt>
      <trkpt lat="48.98511" lon="0.05693">
        <ele>136.52</ele>
        <time>2021-08-08T15:44:18Z</time>
      </trkpt>
      <trkpt lat="48.98511" lon="0.05693">
        <ele>136.52</ele>
        <time>2021-08-08T15:44:19Z</time>
      </trkpt>
      <trkpt lat="48.98511" lon="0.05693">
        <ele>136.52</ele>
        <time>2021-08-08T15:44:20Z</time>
      </trkpt>
      <trkpt lat="48.98511" lon="0.05693">
        <ele>136.52</ele>
        <time>2021-08-08T15:44:21Z</time>
      </trkpt>
      <trkpt lat="48.98511" lon="0.05693">
        <ele>136.52</ele>
        <time>2021-08-08T15:44:22Z</time>
      </trkpt>
      <trkpt lat="48.98519" lon="0.05687">
        <ele>137.02</ele>
        <time>2021-08-08T15:44:23Z</time>
      </trkpt>
      <trkpt lat="48.98519" lon="0.05688">
        <ele>137.13</ele>
        <time>2021-08-08T15:44:24Z</time>
      </trkpt>
      <trkpt lat="48.98519" lon="0.05687">
        <ele>137.2</ele>
        <time>2021-08-08T15:44:25Z</time>
      </trkpt>
      <trkpt lat="48.98519" lon="0.05687">
        <ele>137.21</ele>
        <time>2021-08-08T15:44:26Z</time>
      </trkpt>
      <trkpt lat="48.98519" lon="0.05687">
        <ele>137.21</ele>
        <time>2021-08-08T15:44:27Z</time>
      </trkpt>
      <trkpt lat="48.98519" lon="0.05687">
        <ele>137.21</ele>
        <time>2021-08-08T15:44:28Z</time>
      </trkpt>
      <trkpt lat="48.98519" lon="0.05687">
        <ele>137.21</ele>
        <time>2021-08-08T15:44:29Z</time>
      </trkpt>
      <trkpt lat="48.98519" lon="0.05687">
        <ele>137.21</ele>
        <time>2021-08-08T15:44:30Z</time>
      </trkpt>
      <trkpt lat="48.98519" lon="0.05687">
        <ele>137.21</ele>
        <time>2021-08-08T15:44:31Z</time>
      </trkpt>
      <trkpt lat="48.98519" lon="0.05687">
        <ele>137.21</ele>
        <time>2021-08-08T15:44:32Z</time>
      </trkpt>
      <trkpt lat="48.98519" lon="0.05687">
        <ele>137.21</ele>
        <time>2021-08-08T15:44:33Z</time>
      </trkpt>
      <trkpt lat="48.98519" lon="0.05687">
        <ele>137.21</ele>
        <time>2021-08-08T15:44:34Z</time>
      </trkpt>
      <trkpt lat="48.98519" lon="0.05687">
        <ele>137.21</ele>
        <time>2021-08-08T15:44:35Z</time>
      </trkpt>
      <trkpt lat="48.98519" lon="0.05687">
        <ele>137.21</ele>
        <time>2021-08-08T15:44:36Z</time>
      </trkpt>
      <trkpt lat="48.98519" lon="0.05687">
        <ele>137.21</ele>
        <time>2021-08-08T15:44:37Z</time>
      </trkpt>
      <trkpt lat="48.98519" lon="0.05687">
        <ele>137.21</ele>
        <time>2021-08-08T15:44:38Z</time>
      </trkpt>
      <trkpt lat="48.98519" lon="0.05687">
        <ele>137.21</ele>
        <time>2021-08-08T15:44:39Z</time>
      </trkpt>
      <trkpt lat="48.98519" lon="0.05687">
        <ele>137.21</ele>
        <time>2021-08-08T15:44:40Z</time>
      </trkpt>
      <trkpt lat="48.98519" lon="0.05687">
        <ele>137.21</ele>
        <time>2021-08-08T15:44:41Z</time>
      </trkpt>
      <trkpt lat="48.98519" lon="0.05687">
        <ele>137.21</ele>
        <time>2021-08-08T15:44:42Z</time>
      </trkpt>
      <trkpt lat="48.98519" lon="0.05687">
        <ele>137.21</ele>
        <time>2021-08-08T15:44:43Z</time>
      </trkpt>
      <trkpt lat="48.98519" lon="0.05687">
        <ele>137.21</ele>
        <time>2021-08-08T15:44:44Z</time>
      </trkpt>
      <trkpt lat="48.98519" lon="0.05687">
        <ele>137.21</ele>
        <time>2021-08-08T15:44:45Z</time>
      </trkpt>
      <trkpt lat="48.98519" lon="0.05687">
        <ele>137.21</ele>
        <time>2021-08-08T15:44:46Z</time>
      </trkpt>
      <trkpt lat="48.98519" lon="0.05687">
        <ele>137.21</ele>
        <time>2021-08-08T15:44:47Z</time>
      </trkpt>
      <trkpt lat="48.98519" lon="0.05687">
        <ele>137.21</ele>
        <time>2021-08-08T15:44:48Z</time>
      </trkpt>
      <trkpt lat="48.98519" lon="0.05687">
        <ele>137.21</ele>
        <time>2021-08-08T15:44:49Z</time>
      </trkpt>
      <trkpt lat="48.98519" lon="0.05687">
        <ele>137.21</ele>
        <time>2021-08-08T15:44:50Z</time>
      </trkpt>
      <trkpt lat="48.98519" lon="0.05687">
        <ele>137.21</ele>
        <time>2021-08-08T15:44:51Z</time>
      </trkpt>
      <trkpt lat="48.98519" lon="0.05687">
        <ele>137.21</ele>
        <time>2021-08-08T15:44:52Z</time>
      </trkpt>
      <trkpt lat="48.98519" lon="0.05687">
        <ele>137.21</ele>
        <time>2021-08-08T15:44:53Z</time>
      </trkpt>
      <trkpt lat="48.98519" lon="0.05687">
        <ele>137.21</ele>
        <time>2021-08-08T15:44:54Z</time>
      </trkpt>
      <trkpt lat="48.98519" lon="0.05687">
        <ele>137.21</ele>
        <time>2021-08-08T15:44:55Z</time>
      </trkpt>
      <trkpt lat="48.98519" lon="0.05687">
        <ele>137.21</ele>
        <time>2021-08-08T15:44:56Z</time>
      </trkpt>
      <trkpt lat="48.98519" lon="0.05687">
        <ele>137.21</ele>
        <time>2021-08-08T15:44:57Z</time>
      </trkpt>
      <trkpt lat="48.98519" lon="0.05687">
        <ele>137.21</ele>
        <time>2021-08-08T15:44:58Z</time>
      </trkpt>
      <trkpt lat="48.98519" lon="0.05687">
        <ele>137.21</ele>
        <time>2021-08-08T15:44:59Z</time>
      </trkpt>
      <trkpt lat="48.98519" lon="0.05687">
        <ele>137.21</ele>
        <time>2021-08-08T15:45:00Z</time>
      </trkpt>
      <trkpt lat="48.98519" lon="0.05687">
        <ele>137.21</ele>
        <time>2021-08-08T15:45:01Z</time>
      </trkpt>
      <trkpt lat="48.98519" lon="0.05687">
        <ele>137.21</ele>
        <time>2021-08-08T15:45:02Z</time>
      </trkpt>
      <trkpt lat="48.98519" lon="0.05687">
        <ele>137.21</ele>
        <time>2021-08-08T15:45:03Z</time>
      </trkpt>
      <trkpt lat="48.98519" lon="0.05687">
        <ele>137.21</ele>
        <time>2021-08-08T15:45:04Z</time>
      </trkpt>
      <trkpt lat="48.98519" lon="0.05687">
        <ele>137.21</ele>
        <time>2021-08-08T15:45:05Z</time>
      </trkpt>
      <trkpt lat="48.98519" lon="0.05687">
        <ele>137.21</ele>
        <time>2021-08-08T15:45:06Z</time>
      </trkpt>
      <trkpt lat="48.98519" lon="0.05687">
        <ele>137.21</ele>
        <time>2021-08-08T15:45:07Z</time>
      </trkpt>
      <trkpt lat="48.98519" lon="0.05687">
        <ele>137.21</ele>
        <time>2021-08-08T15:45:08Z</time>
      </trkpt>
      <trkpt lat="48.98519" lon="0.05687">
        <ele>137.21</ele>
        <time>2021-08-08T15:45:09Z</time>
      </trkpt>
      <trkpt lat="48.98519" lon="0.05687">
        <ele>137.21</ele>
        <time>2021-08-08T15:45:10Z</time>
      </trkpt>
      <trkpt lat="48.98519" lon="0.05687">
        <ele>137.21</ele>
        <time>2021-08-08T15:45:11Z</time>
      </trkpt>
      <trkpt lat="48.98519" lon="0.05687">
        <ele>137.21</ele>
        <time>2021-08-08T15:45:12Z</time>
      </trkpt>
      <trkpt lat="48.98519" lon="0.05687">
        <ele>137.21</ele>
        <time>2021-08-08T15:45:13Z</time>
      </trkpt>
      <trkpt lat="48.98519" lon="0.05687">
        <ele>137.21</ele>
        <time>2021-08-08T15:45:14Z</time>
      </trkpt>
      <trkpt lat="48.98519" lon="0.05687">
        <ele>137.21</ele>
        <time>2021-08-08T15:45:15Z</time>
      </trkpt>
      <trkpt lat="48.98519" lon="0.05687">
        <ele>137.21</ele>
        <time>2021-08-08T15:45:16Z</time>
      </trkpt>
      <trkpt lat="48.98519" lon="0.05687">
        <ele>137.21</ele>
        <time>2021-08-08T15:45:17Z</time>
      </trkpt>
      <trkpt lat="48.98519" lon="0.05687">
        <ele>137.21</ele>
        <time>2021-08-08T15:45:18Z</time>
      </trkpt>
      <trkpt lat="48.98519" lon="0.05687">
        <ele>137.21</ele>
        <time>2021-08-08T15:45:19Z</time>
      </trkpt>
      <trkpt lat="48.98519" lon="0.05687">
        <ele>137.21</ele>
        <time>2021-08-08T15:45:20Z</time>
      </trkpt>
      <trkpt lat="48.98519" lon="0.05687">
        <ele>137.21</ele>
        <time>2021-08-08T15:45:21Z</time>
      </trkpt>
      <trkpt lat="48.98519" lon="0.05687">
        <ele>137.21</ele>
        <time>2021-08-08T15:45:22Z</time>
      </trkpt>
      <trkpt lat="48.98519" lon="0.05687">
        <ele>137.21</ele>
        <time>2021-08-08T15:45:23Z</time>
      </trkpt>
      <trkpt lat="48.98519" lon="0.05687">
        <ele>137.21</ele>
        <time>2021-08-08T15:45:24Z</time>
      </trkpt>
      <trkpt lat="48.98519" lon="0.05687">
        <ele>137.21</ele>
        <time>2021-08-08T15:45:25Z</time>
      </trkpt>
      <trkpt lat="48.98519" lon="0.05687">
        <ele>137.21</ele>
        <time>2021-08-08T15:45:26Z</time>
      </trkpt>
      <trkpt lat="48.98519" lon="0.05687">
        <ele>137.21</ele>
        <time>2021-08-08T15:45:27Z</time>
      </trkpt>
      <trkpt lat="48.98519" lon="0.05687">
        <ele>137.21</ele>
        <time>2021-08-08T15:45:28Z</time>
      </trkpt>
      <trkpt lat="48.98519" lon="0.05687">
        <ele>137.21</ele>
        <time>2021-08-08T15:45:29Z</time>
      </trkpt>
      <trkpt lat="48.98519" lon="0.05687">
        <ele>137.21</ele>
        <time>2021-08-08T15:45:30Z</time>
      </trkpt>
      <trkpt lat="48.98519" lon="0.05687">
        <ele>137.21</ele>
        <time>2021-08-08T15:45:31Z</time>
      </trkpt>
      <trkpt lat="48.98519" lon="0.05687">
        <ele>137.21</ele>
        <time>2021-08-08T15:45:32Z</time>
      </trkpt>
      <trkpt lat="48.98519" lon="0.05687">
        <ele>137.21</ele>
        <time>2021-08-08T15:45:33Z</time>
      </trkpt>
      <trkpt lat="48.98519" lon="0.05687">
        <ele>137.21</ele>
        <time>2021-08-08T15:45:34Z</time>
      </trkpt>
      <trkpt lat="48.98519" lon="0.05687">
        <ele>137.21</ele>
        <time>2021-08-08T15:45:35Z</time>
      </trkpt>
      <trkpt lat="48.98519" lon="0.05687">
        <ele>137.21</ele>
        <time>2021-08-08T15:45:36Z</time>
      </trkpt>
      <trkpt lat="48.98519" lon="0.05687">
        <ele>137.21</ele>
        <time>2021-08-08T15:45:37Z</time>
      </trkpt>
      <trkpt lat="48.98513" lon="0.05682">
        <ele>137.33</ele>
        <time>2021-08-08T15:45:38Z</time>
      </trkpt>
      <trkpt lat="48.98514" lon="0.0568">
        <ele>137.5</ele>
        <time>2021-08-08T15:45:39Z</time>
      </trkpt>
      <trkpt lat="48.98513" lon="0.05677">
        <ele>137.64</ele>
        <time>2021-08-08T15:45:40Z</time>
      </trkpt>
      <trkpt lat="48.98513" lon="0.05676">
        <ele>137.75</ele>
        <time>2021-08-08T15:45:41Z</time>
      </trkpt>
      <trkpt lat="48.98513" lon="0.05675">
        <ele>137.84</ele>
        <time>2021-08-08T15:45:42Z</time>
      </trkpt>
      <trkpt lat="48.98513" lon="0.05674">
        <ele>137.9</ele>
        <time>2021-08-08T15:45:43Z</time>
      </trkpt>
      <trkpt lat="48.98513" lon="0.05674">
        <ele>137.95</ele>
        <time>2021-08-08T15:45:44Z</time>
      </trkpt>
      <trkpt lat="48.98513" lon="0.05674">
        <ele>137.97</ele>
        <time>2021-08-08T15:45:45Z</time>
      </trkpt>
      <trkpt lat="48.98513" lon="0.05674">
        <ele>137.97</ele>
        <time>2021-08-08T15:45:46Z</time>
      </trkpt>
      <trkpt lat="48.98513" lon="0.05674">
        <ele>137.98</ele>
        <time>2021-08-08T15:45:47Z</time>
      </trkpt>
      <trkpt lat="48.98513" lon="0.05674">
        <ele>137.98</ele>
        <time>2021-08-08T15:45:48Z</time>
      </trkpt>
      <trkpt lat="48.98513" lon="0.05674">
        <ele>137.98</ele>
        <time>2021-08-08T15:45:49Z</time>
      </trkpt>
      <trkpt lat="48.98513" lon="0.05674">
        <ele>137.98</ele>
        <time>2021-08-08T15:45:50Z</time>
      </trkpt>
      <trkpt lat="48.98513" lon="0.05674">
        <ele>137.98</ele>
        <time>2021-08-08T15:45:51Z</time>
      </trkpt>
      <trkpt lat="48.98513" lon="0.05674">
        <ele>137.98</ele>
        <time>2021-08-08T15:45:52Z</time>
      </trkpt>
      <trkpt lat="48.98513" lon="0.05674">
        <ele>137.98</ele>
        <time>2021-08-08T15:45:53Z</time>
      </trkpt>
      <trkpt lat="48.98513" lon="0.05674">
        <ele>137.98</ele>
        <time>2021-08-08T15:45:54Z</time>
      </trkpt>
      <trkpt lat="48.98513" lon="0.05674">
        <ele>137.98</ele>
        <time>2021-08-08T15:45:55Z</time>
      </trkpt>
      <trkpt lat="48.98513" lon="0.05674">
        <ele>137.98</ele>
        <time>2021-08-08T15:45:56Z</time>
      </trkpt>
      <trkpt lat="48.98514" lon="0.05659">
        <ele>138.75</ele>
        <time>2021-08-08T15:45:57Z</time>
      </trkpt>
      <trkpt lat="48.98514" lon="0.05657">
        <ele>139.07</ele>
        <time>2021-08-08T15:45:58Z</time>
      </trkpt>
      <trkpt lat="48.98514" lon="0.05655">
        <ele>139.25</ele>
        <time>2021-08-08T15:45:59Z</time>
      </trkpt>
      <trkpt lat="48.98515" lon="0.05654">
        <ele>139.4</ele>
        <time>2021-08-08T15:46:00Z</time>
      </trkpt>
      <trkpt lat="48.98515" lon="0.05653">
        <ele>139.5</ele>
        <time>2021-08-08T15:46:01Z</time>
      </trkpt>
      <trkpt lat="48.98515" lon="0.05651">
        <ele>139.61</ele>
        <time>2021-08-08T15:46:02Z</time>
      </trkpt>
      <trkpt lat="48.98515" lon="0.0565">
        <ele>139.72</ele>
        <time>2021-08-08T15:46:03Z</time>
      </trkpt>
      <trkpt lat="48.98515" lon="0.05648">
        <ele>139.86</ele>
        <time>2021-08-08T15:46:04Z</time>
      </trkpt>
      <trkpt lat="48.98516" lon="0.05648">
        <ele>139.92</ele>
        <time>2021-08-08T15:46:05Z</time>
      </trkpt>
      <trkpt lat="48.98516" lon="0.05647">
        <ele>139.97</ele>
        <time>2021-08-08T15:46:06Z</time>
      </trkpt>
      <trkpt lat="48.98516" lon="0.05646">
        <ele>140.01</ele>
        <time>2021-08-08T15:46:07Z</time>
      </trkpt>
      <trkpt lat="48.98515" lon="0.05646">
        <ele>140.04</ele>
        <time>2021-08-08T15:46:08Z</time>
      </trkpt>
      <trkpt lat="48.98515" lon="0.05646">
        <ele>140.05</ele>
        <time>2021-08-08T15:46:09Z</time>
      </trkpt>
      <trkpt lat="48.98515" lon="0.05646">
        <ele>140.06</ele>
        <time>2021-08-08T15:46:10Z</time>
      </trkpt>
      <trkpt lat="48.98515" lon="0.05646">
        <ele>140.06</ele>
        <time>2021-08-08T15:46:11Z</time>
      </trkpt>
      <trkpt lat="48.98515" lon="0.05646">
        <ele>140.06</ele>
        <time>2021-08-08T15:46:12Z</time>
      </trkpt>
      <trkpt lat="48.98515" lon="0.05646">
        <ele>140.06</ele>
        <time>2021-08-08T15:46:13Z</time>
      </trkpt>
      <trkpt lat="48.98515" lon="0.05646">
        <ele>140.06</ele>
        <time>2021-08-08T15:46:14Z</time>
      </trkpt>
      <trkpt lat="48.98515" lon="0.05646">
        <ele>140.06</ele>
        <time>2021-08-08T15:46:15Z</time>
      </trkpt>
      <trkpt lat="48.98515" lon="0.05646">
        <ele>140.06</ele>
        <time>2021-08-08T15:46:16Z</time>
      </trkpt>
      <trkpt lat="48.9852" lon="0.05633">
        <ele>140.77</ele>
        <time>2021-08-08T15:46:17Z</time>
      </trkpt>
      <trkpt lat="48.98521" lon="0.05631">
        <ele>141.11</ele>
        <time>2021-08-08T15:46:18Z</time>
      </trkpt>
      <trkpt lat="48.98522" lon="0.0563">
        <ele>141.32</ele>
        <time>2021-08-08T15:46:19Z</time>
      </trkpt>
      <trkpt lat="48.98523" lon="0.05628">
        <ele>141.48</ele>
        <time>2021-08-08T15:46:20Z</time>
      </trkpt>
      <trkpt lat="48.98525" lon="0.05627">
        <ele>141.61</ele>
        <time>2021-08-08T15:46:21Z</time>
      </trkpt>
      <trkpt lat="48.98526" lon="0.05626">
        <ele>141.76</ele>
        <time>2021-08-08T15:46:22Z</time>
      </trkpt>
      <trkpt lat="48.98527" lon="0.05625">
        <ele>141.92</ele>
        <time>2021-08-08T15:46:23Z</time>
      </trkpt>
      <trkpt lat="48.98528" lon="0.05623">
        <ele>142.1</ele>
        <time>2021-08-08T15:46:24Z</time>
      </trkpt>
      <trkpt lat="48.9853" lon="0.05622">
        <ele>142.28</ele>
        <time>2021-08-08T15:46:25Z</time>
      </trkpt>
      <trkpt lat="48.98531" lon="0.05621">
        <ele>142.47</ele>
        <time>2021-08-08T15:46:26Z</time>
      </trkpt>
      <trkpt lat="48.98532" lon="0.05619">
        <ele>142.65</ele>
        <time>2021-08-08T15:46:27Z</time>
      </trkpt>
      <trkpt lat="48.98534" lon="0.05619">
        <ele>142.79</ele>
        <time>2021-08-08T15:46:28Z</time>
      </trkpt>
      <trkpt lat="48.98535" lon="0.05618">
        <ele>142.94</ele>
        <time>2021-08-08T15:46:29Z</time>
      </trkpt>
      <trkpt lat="48.98536" lon="0.05618">
        <ele>143.08</ele>
        <time>2021-08-08T15:46:30Z</time>
      </trkpt>
      <trkpt lat="48.98538" lon="0.05617">
        <ele>143.23</ele>
        <time>2021-08-08T15:46:31Z</time>
      </trkpt>
      <trkpt lat="48.98538" lon="0.05617">
        <ele>143.32</ele>
        <time>2021-08-08T15:46:32Z</time>
      </trkpt>
      <trkpt lat="48.98541" lon="0.05615">
        <ele>143.54</ele>
        <time>2021-08-08T15:46:33Z</time>
      </trkpt>
      <trkpt lat="48.98542" lon="0.05615">
        <ele>143.69</ele>
        <time>2021-08-08T15:46:34Z</time>
      </trkpt>
      <trkpt lat="48.98543" lon="0.05615">
        <ele>143.8</ele>
        <time>2021-08-08T15:46:35Z</time>
      </trkpt>
      <trkpt lat="48.98544" lon="0.05613">
        <ele>143.92</ele>
        <time>2021-08-08T15:46:36Z</time>
      </trkpt>
      <trkpt lat="48.98544" lon="0.05612">
        <ele>144.06</ele>
        <time>2021-08-08T15:46:37Z</time>
      </trkpt>
      <trkpt lat="48.98545" lon="0.05611">
        <ele>144.25</ele>
        <time>2021-08-08T15:46:38Z</time>
      </trkpt>
      <trkpt lat="48.98546" lon="0.05609">
        <ele>144.46</ele>
        <time>2021-08-08T15:46:39Z</time>
      </trkpt>
      <trkpt lat="48.98548" lon="0.05609">
        <ele>144.63</ele>
        <time>2021-08-08T15:46:40Z</time>
      </trkpt>
      <trkpt lat="48.98548" lon="0.05608">
        <ele>144.74</ele>
        <time>2021-08-08T15:46:41Z</time>
      </trkpt>
      <trkpt lat="48.98547" lon="0.05607">
        <ele>144.83</ele>
        <time>2021-08-08T15:46:42Z</time>
      </trkpt>
      <trkpt lat="48.98548" lon="0.05606">
        <ele>144.98</ele>
        <time>2021-08-08T15:46:43Z</time>
      </trkpt>
      <trkpt lat="48.98549" lon="0.05605">
        <ele>145.22</ele>
        <time>2021-08-08T15:46:44Z</time>
      </trkpt>
      <trkpt lat="48.98551" lon="0.05604">
        <ele>145.4</ele>
        <time>2021-08-08T15:46:45Z</time>
      </trkpt>
      <trkpt lat="48.98552" lon="0.05603">
        <ele>145.62</ele>
        <time>2021-08-08T15:46:46Z</time>
      </trkpt>
      <trkpt lat="48.98555" lon="0.05602">
        <ele>145.87</ele>
        <time>2021-08-08T15:46:47Z</time>
      </trkpt>
      <trkpt lat="48.98558" lon="0.05601">
        <ele>146.03</ele>
        <time>2021-08-08T15:46:48Z</time>
      </trkpt>
      <trkpt lat="48.9856" lon="0.05601">
        <ele>146.13</ele>
        <time>2021-08-08T15:46:49Z</time>
      </trkpt>
      <trkpt lat="48.98561" lon="0.05601">
        <ele>146.21</ele>
        <time>2021-08-08T15:46:50Z</time>
      </trkpt>
      <trkpt lat="48.98564" lon="0.05599">
        <ele>146.37</ele>
        <time>2021-08-08T15:46:51Z</time>
      </trkpt>
      <trkpt lat="48.98565" lon="0.05599">
        <ele>146.45</ele>
        <time>2021-08-08T15:46:52Z</time>
      </trkpt>
      <trkpt lat="48.98567" lon="0.05599">
        <ele>146.5</ele>
        <time>2021-08-08T15:46:53Z</time>
      </trkpt>
      <trkpt lat="48.98569" lon="0.05599">
        <ele>146.52</ele>
        <time>2021-08-08T15:46:54Z</time>
      </trkpt>
      <trkpt lat="48.98571" lon="0.05599">
        <ele>146.59</ele>
        <time>2021-08-08T15:46:55Z</time>
      </trkpt>
      <trkpt lat="48.98574" lon="0.05598">
        <ele>146.74</ele>
        <time>2021-08-08T15:46:56Z</time>
      </trkpt>
      <trkpt lat="48.98576" lon="0.05596">
        <ele>146.88</ele>
        <time>2021-08-08T15:46:57Z</time>
      </trkpt>
      <trkpt lat="48.98579" lon="0.05595">
        <ele>147.02</ele>
        <time>2021-08-08T15:46:58Z</time>
      </trkpt>
      <trkpt lat="48.98582" lon="0.05594">
        <ele>147.14</ele>
        <time>2021-08-08T15:46:59Z</time>
      </trkpt>
      <trkpt lat="48.98584" lon="0.05593">
        <ele>147.25</ele>
        <time>2021-08-08T15:47:00Z</time>
      </trkpt>
      <trkpt lat="48.98586" lon="0.05593">
        <ele>147.3</ele>
        <time>2021-08-08T15:47:01Z</time>
      </trkpt>
      <trkpt lat="48.98588" lon="0.05593">
        <ele>147.3</ele>
        <time>2021-08-08T15:47:02Z</time>
      </trkpt>
      <trkpt lat="48.9859" lon="0.05592">
        <ele>147.35</ele>
        <time>2021-08-08T15:47:03Z</time>
      </trkpt>
      <trkpt lat="48.98593" lon="0.05591">
        <ele>147.43</ele>
        <time>2021-08-08T15:47:04Z</time>
      </trkpt>
      <trkpt lat="48.98597" lon="0.05589">
        <ele>147.53</ele>
        <time>2021-08-08T15:47:05Z</time>
      </trkpt>
      <trkpt lat="48.98601" lon="0.05586">
        <ele>147.7</ele>
        <time>2021-08-08T15:47:06Z</time>
      </trkpt>
      <trkpt lat="48.98603" lon="0.05586">
        <ele>147.79</ele>
        <time>2021-08-08T15:47:07Z</time>
      </trkpt>
      <trkpt lat="48.98605" lon="0.05584">
        <ele>147.89</ele>
        <time>2021-08-08T15:47:08Z</time>
      </trkpt>
      <trkpt lat="48.98609" lon="0.05582">
        <ele>148.07</ele>
        <time>2021-08-08T15:47:09Z</time>
      </trkpt>
      <trkpt lat="48.98612" lon="0.0558">
        <ele>148.3</ele>
        <time>2021-08-08T15:47:10Z</time>
      </trkpt>
      <trkpt lat="48.98616" lon="0.05579">
        <ele>148.44</ele>
        <time>2021-08-08T15:47:11Z</time>
      </trkpt>
      <trkpt lat="48.98619" lon="0.05577">
        <ele>148.6</ele>
        <time>2021-08-08T15:47:12Z</time>
      </trkpt>
      <trkpt lat="48.98622" lon="0.05576">
        <ele>148.72</ele>
        <time>2021-08-08T15:47:13Z</time>
      </trkpt>
      <trkpt lat="48.98624" lon="0.05576">
        <ele>148.8</ele>
        <time>2021-08-08T15:47:14Z</time>
      </trkpt>
      <trkpt lat="48.98626" lon="0.05575">
        <ele>148.86</ele>
        <time>2021-08-08T15:47:15Z</time>
      </trkpt>
      <trkpt lat="48.98628" lon="0.05574">
        <ele>148.98</ele>
        <time>2021-08-08T15:47:16Z</time>
      </trkpt>
      <trkpt lat="48.98629" lon="0.05573">
        <ele>149.09</ele>
        <time>2021-08-08T15:47:17Z</time>
      </trkpt>
      <trkpt lat="48.98631" lon="0.05573">
        <ele>149.13</ele>
        <time>2021-08-08T15:47:18Z</time>
      </trkpt>
      <trkpt lat="48.98633" lon="0.05571">
        <ele>149.27</ele>
        <time>2021-08-08T15:47:19Z</time>
      </trkpt>
      <trkpt lat="48.98634" lon="0.05569">
        <ele>149.49</ele>
        <time>2021-08-08T15:47:20Z</time>
      </trkpt>
      <trkpt lat="48.98636" lon="0.05566">
        <ele>149.73</ele>
        <time>2021-08-08T15:47:21Z</time>
      </trkpt>
      <trkpt lat="48.98639" lon="0.05562">
        <ele>150.09</ele>
        <time>2021-08-08T15:47:22Z</time>
      </trkpt>
      <trkpt lat="48.98642" lon="0.05559">
        <ele>150.42</ele>
        <time>2021-08-08T15:47:23Z</time>
      </trkpt>
      <trkpt lat="48.98644" lon="0.05556">
        <ele>150.64</ele>
        <time>2021-08-08T15:47:24Z</time>
      </trkpt>
      <trkpt lat="48.98648" lon="0.05553">
        <ele>150.79</ele>
        <time>2021-08-08T15:47:25Z</time>
      </trkpt>
      <trkpt lat="48.98651" lon="0.0555">
        <ele>150.92</ele>
        <time>2021-08-08T15:47:26Z</time>
      </trkpt>
      <trkpt lat="48.98653" lon="0.05547">
        <ele>151.03</ele>
        <time>2021-08-08T15:47:27Z</time>
      </trkpt>
      <trkpt lat="48.98656" lon="0.05545">
        <ele>151.1</ele>
        <time>2021-08-08T15:47:28Z</time>
      </trkpt>
      <trkpt lat="48.98659" lon="0.05543">
        <ele>151.15</ele>
        <time>2021-08-08T15:47:29Z</time>
      </trkpt>
      <trkpt lat="48.98662" lon="0.05541">
        <ele>151.18</ele>
        <time>2021-08-08T15:47:30Z</time>
      </trkpt>
      <trkpt lat="48.98666" lon="0.05541">
        <ele>151.11</ele>
        <time>2021-08-08T15:47:31Z</time>
      </trkpt>
      <trkpt lat="48.98669" lon="0.0554">
        <ele>151.08</ele>
        <time>2021-08-08T15:47:32Z</time>
      </trkpt>
      <trkpt lat="48.98673" lon="0.05539">
        <ele>151</ele>
        <time>2021-08-08T15:47:33Z</time>
      </trkpt>
      <trkpt lat="48.98676" lon="0.05539">
        <ele>150.91</ele>
        <time>2021-08-08T15:47:34Z</time>
      </trkpt>
      <trkpt lat="48.9868" lon="0.05537">
        <ele>150.84</ele>
        <time>2021-08-08T15:47:35Z</time>
      </trkpt>
      <trkpt lat="48.98684" lon="0.05536">
        <ele>150.81</ele>
        <time>2021-08-08T15:47:36Z</time>
      </trkpt>
      <trkpt lat="48.98688" lon="0.05533">
        <ele>150.81</ele>
        <time>2021-08-08T15:47:37Z</time>
      </trkpt>
      <trkpt lat="48.98692" lon="0.05531">
        <ele>150.83</ele>
        <time>2021-08-08T15:47:38Z</time>
      </trkpt>
      <trkpt lat="48.98696" lon="0.05528">
        <ele>150.95</ele>
        <time>2021-08-08T15:47:39Z</time>
      </trkpt>
      <trkpt lat="48.987" lon="0.05524">
        <ele>151.18</ele>
        <time>2021-08-08T15:47:40Z</time>
      </trkpt>
      <trkpt lat="48.98705" lon="0.05521">
        <ele>151.4</ele>
        <time>2021-08-08T15:47:41Z</time>
      </trkpt>
      <trkpt lat="48.98709" lon="0.05518">
        <ele>151.63</ele>
        <time>2021-08-08T15:47:42Z</time>
      </trkpt>
      <trkpt lat="48.98715" lon="0.05517">
        <ele>151.74</ele>
        <time>2021-08-08T15:47:43Z</time>
      </trkpt>
      <trkpt lat="48.98719" lon="0.05515">
        <ele>151.88</ele>
        <time>2021-08-08T15:47:44Z</time>
      </trkpt>
      <trkpt lat="48.98722" lon="0.05513">
        <ele>152</ele>
        <time>2021-08-08T15:47:45Z</time>
      </trkpt>
      <trkpt lat="48.98726" lon="0.05511">
        <ele>152.13</ele>
        <time>2021-08-08T15:47:46Z</time>
      </trkpt>
      <trkpt lat="48.98729" lon="0.05508">
        <ele>152.27</ele>
        <time>2021-08-08T15:47:47Z</time>
      </trkpt>
      <trkpt lat="48.98732" lon="0.05507">
        <ele>152.35</ele>
        <time>2021-08-08T15:47:48Z</time>
      </trkpt>
      <trkpt lat="48.98736" lon="0.05506">
        <ele>152.41</ele>
        <time>2021-08-08T15:47:49Z</time>
      </trkpt>
      <trkpt lat="48.98739" lon="0.05507">
        <ele>152.38</ele>
        <time>2021-08-08T15:47:50Z</time>
      </trkpt>
      <trkpt lat="48.98742" lon="0.05507">
        <ele>152.3</ele>
        <time>2021-08-08T15:47:51Z</time>
      </trkpt>
      <trkpt lat="48.98745" lon="0.05509">
        <ele>152.15</ele>
        <time>2021-08-08T15:47:52Z</time>
      </trkpt>
      <trkpt lat="48.98748" lon="0.05512">
        <ele>151.85</ele>
        <time>2021-08-08T15:47:53Z</time>
      </trkpt>
      <trkpt lat="48.98752" lon="0.05514">
        <ele>151.65</ele>
        <time>2021-08-08T15:47:54Z</time>
      </trkpt>
      <trkpt lat="48.98754" lon="0.05516">
        <ele>151.47</ele>
        <time>2021-08-08T15:47:55Z</time>
      </trkpt>
      <trkpt lat="48.98756" lon="0.05519">
        <ele>151.3</ele>
        <time>2021-08-08T15:47:56Z</time>
      </trkpt>
      <trkpt lat="48.98758" lon="0.05522">
        <ele>151.04</ele>
        <time>2021-08-08T15:47:57Z</time>
      </trkpt>
      <trkpt lat="48.98759" lon="0.05522">
        <ele>150.97</ele>
        <time>2021-08-08T15:47:58Z</time>
      </trkpt>
      <trkpt lat="48.9876" lon="0.05523">
        <ele>150.92</ele>
        <time>2021-08-08T15:47:59Z</time>
      </trkpt>
      <trkpt lat="48.9876" lon="0.05523">
        <ele>150.91</ele>
        <time>2021-08-08T15:48:00Z</time>
      </trkpt>
      <trkpt lat="48.9876" lon="0.05523">
        <ele>150.91</ele>
        <time>2021-08-08T15:48:01Z</time>
      </trkpt>
      <trkpt lat="48.98761" lon="0.05528">
        <ele>150.52</ele>
        <time>2021-08-08T15:48:02Z</time>
      </trkpt>
      <trkpt lat="48.98761" lon="0.05531">
        <ele>150.23</ele>
        <time>2021-08-08T15:48:03Z</time>
      </trkpt>
      <trkpt lat="48.98764" lon="0.05533">
        <ele>150.06</ele>
        <time>2021-08-08T15:48:04Z</time>
      </trkpt>
      <trkpt lat="48.98766" lon="0.05535">
        <ele>149.97</ele>
        <time>2021-08-08T15:48:05Z</time>
      </trkpt>
      <trkpt lat="48.98767" lon="0.05535">
        <ele>149.93</ele>
        <time>2021-08-08T15:48:06Z</time>
      </trkpt>
      <trkpt lat="48.98768" lon="0.05536">
        <ele>149.89</ele>
        <time>2021-08-08T15:48:07Z</time>
      </trkpt>
      <trkpt lat="48.98769" lon="0.05537">
        <ele>149.78</ele>
        <time>2021-08-08T15:48:08Z</time>
      </trkpt>
      <trkpt lat="48.9877" lon="0.05539">
        <ele>149.66</ele>
        <time>2021-08-08T15:48:09Z</time>
      </trkpt>
      <trkpt lat="48.98772" lon="0.0554">
        <ele>149.58</ele>
        <time>2021-08-08T15:48:10Z</time>
      </trkpt>
      <trkpt lat="48.98775" lon="0.0554">
        <ele>149.63</ele>
        <time>2021-08-08T15:48:11Z</time>
      </trkpt>
      <trkpt lat="48.98777" lon="0.05539">
        <ele>149.69</ele>
        <time>2021-08-08T15:48:12Z</time>
      </trkpt>
      <trkpt lat="48.98778" lon="0.05539">
        <ele>149.81</ele>
        <time>2021-08-08T15:48:13Z</time>
      </trkpt>
      <trkpt lat="48.98779" lon="0.0554">
        <ele>149.8</ele>
        <time>2021-08-08T15:48:14Z</time>
      </trkpt>
      <trkpt lat="48.9878" lon="0.05541">
        <ele>149.77</ele>
        <time>2021-08-08T15:48:15Z</time>
      </trkpt>
      <trkpt lat="48.98781" lon="0.05541">
        <ele>149.79</ele>
        <time>2021-08-08T15:48:16Z</time>
      </trkpt>
      <trkpt lat="48.98783" lon="0.05542">
        <ele>149.84</ele>
        <time>2021-08-08T15:48:17Z</time>
      </trkpt>
      <trkpt lat="48.98785" lon="0.05541">
        <ele>149.99</ele>
        <time>2021-08-08T15:48:18Z</time>
      </trkpt>
      <trkpt lat="48.98786" lon="0.05541">
        <ele>150.11</ele>
        <time>2021-08-08T15:48:19Z</time>
      </trkpt>
      <trkpt lat="48.98788" lon="0.05542">
        <ele>150.18</ele>
        <time>2021-08-08T15:48:20Z</time>
      </trkpt>
      <trkpt lat="48.98789" lon="0.05542">
        <ele>150.26</ele>
        <time>2021-08-08T15:48:21Z</time>
      </trkpt>
      <trkpt lat="48.9879" lon="0.05542">
        <ele>150.35</ele>
        <time>2021-08-08T15:48:22Z</time>
      </trkpt>
      <trkpt lat="48.98792" lon="0.05543">
        <ele>150.37</ele>
        <time>2021-08-08T15:48:23Z</time>
      </trkpt>
      <trkpt lat="48.98793" lon="0.05544">
        <ele>150.37</ele>
        <time>2021-08-08T15:48:24Z</time>
      </trkpt>
      <trkpt lat="48.98794" lon="0.05546">
        <ele>150.29</ele>
        <time>2021-08-08T15:48:25Z</time>
      </trkpt>
      <trkpt lat="48.98796" lon="0.05547">
        <ele>150.22</ele>
        <time>2021-08-08T15:48:26Z</time>
      </trkpt>
      <trkpt lat="48.98797" lon="0.05549">
        <ele>150.14</ele>
        <time>2021-08-08T15:48:27Z</time>
      </trkpt>
      <trkpt lat="48.98798" lon="0.0555">
        <ele>150.05</ele>
        <time>2021-08-08T15:48:28Z</time>
      </trkpt>
      <trkpt lat="48.98799" lon="0.05552">
        <ele>150</ele>
        <time>2021-08-08T15:48:29Z</time>
      </trkpt>
      <trkpt lat="48.988" lon="0.05553">
        <ele>149.9</ele>
        <time>2021-08-08T15:48:30Z</time>
      </trkpt>
      <trkpt lat="48.98801" lon="0.05554">
        <ele>149.88</ele>
        <time>2021-08-08T15:48:31Z</time>
      </trkpt>
      <trkpt lat="48.98802" lon="0.05554">
        <ele>149.91</ele>
        <time>2021-08-08T15:48:32Z</time>
      </trkpt>
      <trkpt lat="48.98803" lon="0.05553">
        <ele>149.99</ele>
        <time>2021-08-08T15:48:33Z</time>
      </trkpt>
      <trkpt lat="48.98803" lon="0.05553">
        <ele>150.01</ele>
        <time>2021-08-08T15:48:34Z</time>
      </trkpt>
      <trkpt lat="48.98803" lon="0.05553">
        <ele>150.02</ele>
        <time>2021-08-08T15:48:35Z</time>
      </trkpt>
      <trkpt lat="48.98803" lon="0.05553">
        <ele>150.02</ele>
        <time>2021-08-08T15:48:36Z</time>
      </trkpt>
      <trkpt lat="48.98803" lon="0.05553">
        <ele>150.02</ele>
        <time>2021-08-08T15:48:37Z</time>
      </trkpt>
      <trkpt lat="48.98803" lon="0.05553">
        <ele>150.02</ele>
        <time>2021-08-08T15:48:38Z</time>
      </trkpt>
      <trkpt lat="48.98803" lon="0.05553">
        <ele>150.02</ele>
        <time>2021-08-08T15:48:39Z</time>
      </trkpt>
      <trkpt lat="48.98803" lon="0.05553">
        <ele>150.02</ele>
        <time>2021-08-08T15:48:40Z</time>
      </trkpt>
      <trkpt lat="48.98803" lon="0.05553">
        <ele>150.02</ele>
        <time>2021-08-08T15:48:41Z</time>
      </trkpt>
      <trkpt lat="48.98803" lon="0.05553">
        <ele>150.02</ele>
        <time>2021-08-08T15:48:42Z</time>
      </trkpt>
      <trkpt lat="48.98803" lon="0.05553">
        <ele>150.02</ele>
        <time>2021-08-08T15:48:43Z</time>
      </trkpt>
      <trkpt lat="48.98803" lon="0.05553">
        <ele>150.02</ele>
        <time>2021-08-08T15:48:44Z</time>
      </trkpt>
      <trkpt lat="48.98803" lon="0.05553">
        <ele>150.02</ele>
        <time>2021-08-08T15:48:45Z</time>
      </trkpt>
      <trkpt lat="48.98803" lon="0.05553">
        <ele>150.02</ele>
        <time>2021-08-08T15:48:46Z</time>
      </trkpt>
      <trkpt lat="48.98811" lon="0.05561">
        <ele>149.83</ele>
        <time>2021-08-08T15:48:47Z</time>
      </trkpt>
      <trkpt lat="48.98812" lon="0.05562">
        <ele>149.81</ele>
        <time>2021-08-08T15:48:48Z</time>
      </trkpt>
      <trkpt lat="48.98813" lon="0.05563">
        <ele>149.79</ele>
        <time>2021-08-08T15:48:49Z</time>
      </trkpt>
      <trkpt lat="48.98814" lon="0.05564">
        <ele>149.7</ele>
        <time>2021-08-08T15:48:50Z</time>
      </trkpt>
      <trkpt lat="48.98814" lon="0.05564">
        <ele>149.67</ele>
        <time>2021-08-08T15:48:51Z</time>
      </trkpt>
      <trkpt lat="48.98814" lon="0.05564">
        <ele>149.66</ele>
        <time>2021-08-08T15:48:52Z</time>
      </trkpt>
      <trkpt lat="48.98814" lon="0.05564">
        <ele>149.66</ele>
        <time>2021-08-08T15:48:53Z</time>
      </trkpt>
      <trkpt lat="48.98814" lon="0.05564">
        <ele>149.66</ele>
        <time>2021-08-08T15:48:54Z</time>
      </trkpt>
      <trkpt lat="48.98814" lon="0.05564">
        <ele>149.66</ele>
        <time>2021-08-08T15:48:55Z</time>
      </trkpt>
      <trkpt lat="48.98814" lon="0.05564">
        <ele>149.66</ele>
        <time>2021-08-08T15:48:56Z</time>
      </trkpt>
      <trkpt lat="48.98814" lon="0.05564">
        <ele>149.66</ele>
        <time>2021-08-08T15:48:57Z</time>
      </trkpt>
      <trkpt lat="48.98814" lon="0.05564">
        <ele>149.66</ele>
        <time>2021-08-08T15:48:58Z</time>
      </trkpt>
      <trkpt lat="48.98814" lon="0.05564">
        <ele>149.66</ele>
        <time>2021-08-08T15:48:59Z</time>
      </trkpt>
      <trkpt lat="48.98814" lon="0.05564">
        <ele>149.66</ele>
        <time>2021-08-08T15:49:00Z</time>
      </trkpt>
      <trkpt lat="48.98814" lon="0.05564">
        <ele>149.66</ele>
        <time>2021-08-08T15:49:01Z</time>
      </trkpt>
      <trkpt lat="48.98814" lon="0.05564">
        <ele>149.66</ele>
        <time>2021-08-08T15:49:02Z</time>
      </trkpt>
      <trkpt lat="48.98814" lon="0.05564">
        <ele>149.66</ele>
        <time>2021-08-08T15:49:03Z</time>
      </trkpt>
      <trkpt lat="48.98814" lon="0.05564">
        <ele>149.66</ele>
        <time>2021-08-08T15:49:04Z</time>
      </trkpt>
      <trkpt lat="48.98822" lon="0.05569">
        <ele>149.68</ele>
        <time>2021-08-08T15:49:05Z</time>
      </trkpt>
      <trkpt lat="48.98823" lon="0.0557">
        <ele>149.73</ele>
        <time>2021-08-08T15:49:06Z</time>
      </trkpt>
      <trkpt lat="48.98825" lon="0.0557">
        <ele>149.81</ele>
        <time>2021-08-08T15:49:07Z</time>
      </trkpt>
      <trkpt lat="48.98827" lon="0.05569">
        <ele>150.04</ele>
        <time>2021-08-08T15:49:08Z</time>
      </trkpt>
      <trkpt lat="48.98829" lon="0.05568">
        <ele>150.24</ele>
        <time>2021-08-08T15:49:09Z</time>
      </trkpt>
      <trkpt lat="48.9883" lon="0.05568">
        <ele>150.38</ele>
        <time>2021-08-08T15:49:10Z</time>
      </trkpt>
      <trkpt lat="48.98832" lon="0.05567">
        <ele>150.57</ele>
        <time>2021-08-08T15:49:11Z</time>
      </trkpt>
      <trkpt lat="48.98833" lon="0.05567">
        <ele>150.69</ele>
        <time>2021-08-08T15:49:12Z</time>
      </trkpt>
      <trkpt lat="48.98834" lon="0.05567">
        <ele>150.77</ele>
        <time>2021-08-08T15:49:13Z</time>
      </trkpt>
      <trkpt lat="48.98835" lon="0.05567">
        <ele>150.84</ele>
        <time>2021-08-08T15:49:14Z</time>
      </trkpt>
      <trkpt lat="48.98836" lon="0.05566">
        <ele>151.01</ele>
        <time>2021-08-08T15:49:15Z</time>
      </trkpt>
      <trkpt lat="48.98837" lon="0.05566">
        <ele>151.16</ele>
        <time>2021-08-08T15:49:16Z</time>
      </trkpt>
      <trkpt lat="48.98839" lon="0.05568">
        <ele>151.23</ele>
        <time>2021-08-08T15:49:17Z</time>
      </trkpt>
      <trkpt lat="48.98841" lon="0.05568">
        <ele>151.39</ele>
        <time>2021-08-08T15:49:18Z</time>
      </trkpt>
      <trkpt lat="48.98842" lon="0.05568">
        <ele>151.51</ele>
        <time>2021-08-08T15:49:19Z</time>
      </trkpt>
      <trkpt lat="48.98844" lon="0.05568">
        <ele>151.69</ele>
        <time>2021-08-08T15:49:20Z</time>
      </trkpt>
      <trkpt lat="48.98846" lon="0.05567">
        <ele>151.94</ele>
        <time>2021-08-08T15:49:21Z</time>
      </trkpt>
      <trkpt lat="48.98847" lon="0.05567">
        <ele>152.1</ele>
        <time>2021-08-08T15:49:22Z</time>
      </trkpt>
      <trkpt lat="48.98849" lon="0.05567">
        <ele>152.24</ele>
        <time>2021-08-08T15:49:23Z</time>
      </trkpt>
      <trkpt lat="48.9885" lon="0.05568">
        <ele>152.34</ele>
        <time>2021-08-08T15:49:24Z</time>
      </trkpt>
      <trkpt lat="48.98852" lon="0.05569">
        <ele>152.47</ele>
        <time>2021-08-08T15:49:25Z</time>
      </trkpt>
      <trkpt lat="48.98854" lon="0.05569">
        <ele>152.72</ele>
        <time>2021-08-08T15:49:26Z</time>
      </trkpt>
      <trkpt lat="48.98857" lon="0.05568">
        <ele>152.97</ele>
        <time>2021-08-08T15:49:27Z</time>
      </trkpt>
      <trkpt lat="48.98858" lon="0.05568">
        <ele>153.17</ele>
        <time>2021-08-08T15:49:28Z</time>
      </trkpt>
      <trkpt lat="48.9886" lon="0.05568">
        <ele>153.36</ele>
        <time>2021-08-08T15:49:29Z</time>
      </trkpt>
      <trkpt lat="48.98863" lon="0.05567">
        <ele>153.63</ele>
        <time>2021-08-08T15:49:30Z</time>
      </trkpt>
      <trkpt lat="48.98865" lon="0.05567">
        <ele>153.87</ele>
        <time>2021-08-08T15:49:31Z</time>
      </trkpt>
      <trkpt lat="48.98866" lon="0.05566">
        <ele>154.06</ele>
        <time>2021-08-08T15:49:32Z</time>
      </trkpt>
      <trkpt lat="48.98867" lon="0.05566">
        <ele>154.22</ele>
        <time>2021-08-08T15:49:33Z</time>
      </trkpt>
      <trkpt lat="48.98867" lon="0.05566">
        <ele>154.27</ele>
        <time>2021-08-08T15:49:34Z</time>
      </trkpt>
      <trkpt lat="48.98867" lon="0.05566">
        <ele>154.28</ele>
        <time>2021-08-08T15:49:35Z</time>
      </trkpt>
      <trkpt lat="48.98867" lon="0.05566">
        <ele>154.29</ele>
        <time>2021-08-08T15:49:36Z</time>
      </trkpt>
      <trkpt lat="48.98867" lon="0.05566">
        <ele>154.29</ele>
        <time>2021-08-08T15:49:37Z</time>
      </trkpt>
      <trkpt lat="48.98867" lon="0.05566">
        <ele>154.29</ele>
        <time>2021-08-08T15:49:38Z</time>
      </trkpt>
      <trkpt lat="48.98876" lon="0.05563">
        <ele>155.03</ele>
        <time>2021-08-08T15:49:39Z</time>
      </trkpt>
      <trkpt lat="48.98879" lon="0.05563">
        <ele>155.45</ele>
        <time>2021-08-08T15:49:40Z</time>
      </trkpt>
      <trkpt lat="48.98881" lon="0.05563">
        <ele>155.78</ele>
        <time>2021-08-08T15:49:41Z</time>
      </trkpt>
      <trkpt lat="48.98883" lon="0.05563">
        <ele>155.98</ele>
        <time>2021-08-08T15:49:42Z</time>
      </trkpt>
      <trkpt lat="48.98884" lon="0.05563">
        <ele>156.15</ele>
        <time>2021-08-08T15:49:43Z</time>
      </trkpt>
      <trkpt lat="48.98886" lon="0.05564">
        <ele>156.33</ele>
        <time>2021-08-08T15:49:44Z</time>
      </trkpt>
      <trkpt lat="48.98888" lon="0.05565">
        <ele>156.52</ele>
        <time>2021-08-08T15:49:45Z</time>
      </trkpt>
      <trkpt lat="48.9889" lon="0.05566">
        <ele>156.66</ele>
        <time>2021-08-08T15:49:46Z</time>
      </trkpt>
      <trkpt lat="48.98891" lon="0.05567">
        <ele>156.73</ele>
        <time>2021-08-08T15:49:47Z</time>
      </trkpt>
      <trkpt lat="48.98893" lon="0.05566">
        <ele>156.86</ele>
        <time>2021-08-08T15:49:48Z</time>
      </trkpt>
      <trkpt lat="48.98893" lon="0.05567">
        <ele>156.94</ele>
        <time>2021-08-08T15:49:49Z</time>
      </trkpt>
      <trkpt lat="48.98893" lon="0.05567">
        <ele>156.96</ele>
        <time>2021-08-08T15:49:50Z</time>
      </trkpt>
      <trkpt lat="48.98893" lon="0.05567">
        <ele>156.97</ele>
        <time>2021-08-08T15:49:51Z</time>
      </trkpt>
      <trkpt lat="48.98893" lon="0.05567">
        <ele>156.97</ele>
        <time>2021-08-08T15:49:52Z</time>
      </trkpt>
      <trkpt lat="48.98893" lon="0.05567">
        <ele>156.97</ele>
        <time>2021-08-08T15:49:53Z</time>
      </trkpt>
      <trkpt lat="48.98901" lon="0.05576">
        <ele>157.3</ele>
        <time>2021-08-08T15:49:54Z</time>
      </trkpt>
      <trkpt lat="48.98903" lon="0.05576">
        <ele>157.52</ele>
        <time>2021-08-08T15:49:55Z</time>
      </trkpt>
      <trkpt lat="48.98904" lon="0.05578">
        <ele>157.64</ele>
        <time>2021-08-08T15:49:56Z</time>
      </trkpt>
      <trkpt lat="48.98905" lon="0.0558">
        <ele>157.72</ele>
        <time>2021-08-08T15:49:57Z</time>
      </trkpt>
      <trkpt lat="48.98905" lon="0.0558">
        <ele>157.75</ele>
        <time>2021-08-08T15:49:58Z</time>
      </trkpt>
      <trkpt lat="48.98905" lon="0.0558">
        <ele>157.76</ele>
        <time>2021-08-08T15:49:59Z</time>
      </trkpt>
      <trkpt lat="48.98905" lon="0.0558">
        <ele>157.76</ele>
        <time>2021-08-08T15:50:00Z</time>
      </trkpt>
      <trkpt lat="48.98905" lon="0.0558">
        <ele>157.76</ele>
        <time>2021-08-08T15:50:01Z</time>
      </trkpt>
      <trkpt lat="48.98905" lon="0.0558">
        <ele>157.76</ele>
        <time>2021-08-08T15:50:02Z</time>
      </trkpt>
      <trkpt lat="48.98905" lon="0.0558">
        <ele>157.76</ele>
        <time>2021-08-08T15:50:03Z</time>
      </trkpt>
      <trkpt lat="48.98905" lon="0.0558">
        <ele>157.76</ele>
        <time>2021-08-08T15:50:04Z</time>
      </trkpt>
      <trkpt lat="48.98905" lon="0.0558">
        <ele>157.76</ele>
        <time>2021-08-08T15:50:05Z</time>
      </trkpt>
      <trkpt lat="48.98913" lon="0.05586">
        <ele>158.24</ele>
        <time>2021-08-08T15:50:06Z</time>
      </trkpt>
      <trkpt lat="48.98914" lon="0.05587">
        <ele>158.39</ele>
        <time>2021-08-08T15:50:07Z</time>
      </trkpt>
      <trkpt lat="48.98915" lon="0.05588">
        <ele>158.45</ele>
        <time>2021-08-08T15:50:08Z</time>
      </trkpt>
      <trkpt lat="48.98916" lon="0.05589">
        <ele>158.48</ele>
        <time>2021-08-08T15:50:09Z</time>
      </trkpt>
      <trkpt lat="48.98916" lon="0.05589">
        <ele>158.49</ele>
        <time>2021-08-08T15:50:10Z</time>
      </trkpt>
      <trkpt lat="48.98916" lon="0.05589">
        <ele>158.49</ele>
        <time>2021-08-08T15:50:11Z</time>
      </trkpt>
      <trkpt lat="48.98916" lon="0.05589">
        <ele>158.5</ele>
        <time>2021-08-08T15:50:12Z</time>
      </trkpt>
      <trkpt lat="48.98916" lon="0.05589">
        <ele>158.5</ele>
        <time>2021-08-08T15:50:13Z</time>
      </trkpt>
      <trkpt lat="48.98916" lon="0.05589">
        <ele>158.5</ele>
        <time>2021-08-08T15:50:14Z</time>
      </trkpt>
      <trkpt lat="48.98916" lon="0.05589">
        <ele>158.5</ele>
        <time>2021-08-08T15:50:15Z</time>
      </trkpt>
      <trkpt lat="48.98916" lon="0.05589">
        <ele>158.5</ele>
        <time>2021-08-08T15:50:16Z</time>
      </trkpt>
      <trkpt lat="48.98916" lon="0.05589">
        <ele>158.5</ele>
        <time>2021-08-08T15:50:17Z</time>
      </trkpt>
      <trkpt lat="48.98924" lon="0.05598">
        <ele>158.61</ele>
        <time>2021-08-08T15:50:18Z</time>
      </trkpt>
      <trkpt lat="48.98924" lon="0.05599">
        <ele>158.58</ele>
        <time>2021-08-08T15:50:19Z</time>
      </trkpt>
      <trkpt lat="48.98925" lon="0.05599">
        <ele>158.58</ele>
        <time>2021-08-08T15:50:20Z</time>
      </trkpt>
      <trkpt lat="48.98923" lon="0.056">
        <ele>158.47</ele>
        <time>2021-08-08T15:50:21Z</time>
      </trkpt>
      <trkpt lat="48.98923" lon="0.056">
        <ele>158.44</ele>
        <time>2021-08-08T15:50:22Z</time>
      </trkpt>
      <trkpt lat="48.98923" lon="0.056">
        <ele>158.43</ele>
        <time>2021-08-08T15:50:23Z</time>
      </trkpt>
      <trkpt lat="48.98923" lon="0.056">
        <ele>158.43</ele>
        <time>2021-08-08T15:50:24Z</time>
      </trkpt>
      <trkpt lat="48.98923" lon="0.056">
        <ele>158.43</ele>
        <time>2021-08-08T15:50:25Z</time>
      </trkpt>
      <trkpt lat="48.98923" lon="0.056">
        <ele>158.43</ele>
        <time>2021-08-08T15:50:26Z</time>
      </trkpt>
      <trkpt lat="48.98923" lon="0.056">
        <ele>158.43</ele>
        <time>2021-08-08T15:50:27Z</time>
      </trkpt>
      <trkpt lat="48.98923" lon="0.056">
        <ele>158.43</ele>
        <time>2021-08-08T15:50:28Z</time>
      </trkpt>
      <trkpt lat="48.98923" lon="0.056">
        <ele>158.43</ele>
        <time>2021-08-08T15:50:29Z</time>
      </trkpt>
      <trkpt lat="48.98923" lon="0.056">
        <ele>158.43</ele>
        <time>2021-08-08T15:50:30Z</time>
      </trkpt>
      <trkpt lat="48.98923" lon="0.056">
        <ele>158.43</ele>
        <time>2021-08-08T15:50:31Z</time>
      </trkpt>
      <trkpt lat="48.98923" lon="0.056">
        <ele>158.43</ele>
        <time>2021-08-08T15:50:32Z</time>
      </trkpt>
      <trkpt lat="48.98923" lon="0.056">
        <ele>158.43</ele>
        <time>2021-08-08T15:50:33Z</time>
      </trkpt>
      <trkpt lat="48.98932" lon="0.05607">
        <ele>158.71</ele>
        <time>2021-08-08T15:50:34Z</time>
      </trkpt>
      <trkpt lat="48.98933" lon="0.05607">
        <ele>158.92</ele>
        <time>2021-08-08T15:50:35Z</time>
      </trkpt>
      <trkpt lat="48.98935" lon="0.05607">
        <ele>159.08</ele>
        <time>2021-08-08T15:50:36Z</time>
      </trkpt>
      <trkpt lat="48.98937" lon="0.05605">
        <ele>159.33</ele>
        <time>2021-08-08T15:50:37Z</time>
      </trkpt>
      <trkpt lat="48.98939" lon="0.05605">
        <ele>159.61</ele>
        <time>2021-08-08T15:50:38Z</time>
      </trkpt>
      <trkpt lat="48.98941" lon="0.05603">
        <ele>159.85</ele>
        <time>2021-08-08T15:50:39Z</time>
      </trkpt>
      <trkpt lat="48.98943" lon="0.05603">
        <ele>160.08</ele>
        <time>2021-08-08T15:50:40Z</time>
      </trkpt>
      <trkpt lat="48.98945" lon="0.05602">
        <ele>160.29</ele>
        <time>2021-08-08T15:50:41Z</time>
      </trkpt>
      <trkpt lat="48.98946" lon="0.05601">
        <ele>160.44</ele>
        <time>2021-08-08T15:50:42Z</time>
      </trkpt>
      <trkpt lat="48.98949" lon="0.056">
        <ele>160.63</ele>
        <time>2021-08-08T15:50:43Z</time>
      </trkpt>
      <trkpt lat="48.98952" lon="0.05599">
        <ele>160.88</ele>
        <time>2021-08-08T15:50:44Z</time>
      </trkpt>
      <trkpt lat="48.98954" lon="0.05599">
        <ele>161.03</ele>
        <time>2021-08-08T15:50:45Z</time>
      </trkpt>
      <trkpt lat="48.98955" lon="0.05599">
        <ele>161.16</ele>
        <time>2021-08-08T15:50:46Z</time>
      </trkpt>
      <trkpt lat="48.98956" lon="0.056">
        <ele>161.22</ele>
        <time>2021-08-08T15:50:47Z</time>
      </trkpt>
      <trkpt lat="48.98956" lon="0.05601">
        <ele>161.23</ele>
        <time>2021-08-08T15:50:48Z</time>
      </trkpt>
      <trkpt lat="48.98958" lon="0.05602">
        <ele>161.27</ele>
        <time>2021-08-08T15:50:49Z</time>
      </trkpt>
      <trkpt lat="48.98959" lon="0.05604">
        <ele>161.29</ele>
        <time>2021-08-08T15:50:50Z</time>
      </trkpt>
      <trkpt lat="48.98959" lon="0.05605">
        <ele>161.31</ele>
        <time>2021-08-08T15:50:51Z</time>
      </trkpt>
      <trkpt lat="48.98961" lon="0.05605">
        <ele>161.35</ele>
        <time>2021-08-08T15:50:52Z</time>
      </trkpt>
      <trkpt lat="48.98961" lon="0.05606">
        <ele>161.35</ele>
        <time>2021-08-08T15:50:53Z</time>
      </trkpt>
      <trkpt lat="48.98962" lon="0.05607">
        <ele>161.38</ele>
        <time>2021-08-08T15:50:54Z</time>
      </trkpt>
      <trkpt lat="48.98962" lon="0.05607">
        <ele>161.39</ele>
        <time>2021-08-08T15:50:55Z</time>
      </trkpt>
      <trkpt lat="48.98962" lon="0.05607">
        <ele>161.39</ele>
        <time>2021-08-08T15:50:56Z</time>
      </trkpt>
      <trkpt lat="48.98962" lon="0.05607">
        <ele>161.39</ele>
        <time>2021-08-08T15:50:57Z</time>
      </trkpt>
      <trkpt lat="48.98962" lon="0.05607">
        <ele>161.39</ele>
        <time>2021-08-08T15:50:58Z</time>
      </trkpt>
      <trkpt lat="48.98962" lon="0.05607">
        <ele>161.39</ele>
        <time>2021-08-08T15:50:59Z</time>
      </trkpt>
      <trkpt lat="48.98962" lon="0.05607">
        <ele>161.39</ele>
        <time>2021-08-08T15:51:00Z</time>
      </trkpt>
      <trkpt lat="48.98962" lon="0.05607">
        <ele>161.39</ele>
        <time>2021-08-08T15:51:01Z</time>
      </trkpt>
      <trkpt lat="48.98962" lon="0.05607">
        <ele>161.39</ele>
        <time>2021-08-08T15:51:02Z</time>
      </trkpt>
      <trkpt lat="48.98962" lon="0.05607">
        <ele>161.39</ele>
        <time>2021-08-08T15:51:03Z</time>
      </trkpt>
      <trkpt lat="48.98962" lon="0.05607">
        <ele>161.39</ele>
        <time>2021-08-08T15:51:04Z</time>
      </trkpt>
      <trkpt lat="48.98962" lon="0.05607">
        <ele>161.39</ele>
        <time>2021-08-08T15:51:05Z</time>
      </trkpt>
      <trkpt lat="48.98962" lon="0.05607">
        <ele>161.39</ele>
        <time>2021-08-08T15:51:06Z</time>
      </trkpt>
      <trkpt lat="48.98962" lon="0.05607">
        <ele>161.39</ele>
        <time>2021-08-08T15:51:07Z</time>
      </trkpt>
      <trkpt lat="48.98962" lon="0.05607">
        <ele>161.39</ele>
        <time>2021-08-08T15:51:08Z</time>
      </trkpt>
      <trkpt lat="48.98962" lon="0.05607">
        <ele>161.39</ele>
        <time>2021-08-08T15:51:09Z</time>
      </trkpt>
      <trkpt lat="48.98962" lon="0.05607">
        <ele>161.39</ele>
        <time>2021-08-08T15:51:10Z</time>
      </trkpt>
      <trkpt lat="48.98962" lon="0.05607">
        <ele>161.39</ele>
        <time>2021-08-08T15:51:11Z</time>
      </trkpt>
      <trkpt lat="48.98968" lon="0.05617">
        <ele>161.46</ele>
        <time>2021-08-08T15:51:12Z</time>
      </trkpt>
      <trkpt lat="48.9897" lon="0.05616">
        <ele>161.6</ele>
        <time>2021-08-08T15:51:13Z</time>
      </trkpt>
      <trkpt lat="48.98972" lon="0.05614">
        <ele>161.8</ele>
        <time>2021-08-08T15:51:14Z</time>
      </trkpt>
      <trkpt lat="48.98973" lon="0.05614">
        <ele>161.92</ele>
        <time>2021-08-08T15:51:15Z</time>
      </trkpt>
      <trkpt lat="48.98973" lon="0.05614">
        <ele>161.96</ele>
        <time>2021-08-08T15:51:16Z</time>
      </trkpt>
      <trkpt lat="48.98976" lon="0.05614">
        <ele>162.1</ele>
        <time>2021-08-08T15:51:17Z</time>
      </trkpt>
      <trkpt lat="48.98977" lon="0.05614">
        <ele>162.21</ele>
        <time>2021-08-08T15:51:18Z</time>
      </trkpt>
      <trkpt lat="48.9898" lon="0.05614">
        <ele>162.39</ele>
        <time>2021-08-08T15:51:19Z</time>
      </trkpt>
      <trkpt lat="48.98982" lon="0.05614">
        <ele>162.55</ele>
        <time>2021-08-08T15:51:20Z</time>
      </trkpt>
      <trkpt lat="48.98983" lon="0.05614">
        <ele>162.65</ele>
        <time>2021-08-08T15:51:21Z</time>
      </trkpt>
      <trkpt lat="48.98985" lon="0.05613">
        <ele>162.78</ele>
        <time>2021-08-08T15:51:22Z</time>
      </trkpt>
      <trkpt lat="48.98986" lon="0.05613">
        <ele>162.92</ele>
        <time>2021-08-08T15:51:23Z</time>
      </trkpt>
      <trkpt lat="48.98988" lon="0.05613">
        <ele>163.06</ele>
        <time>2021-08-08T15:51:24Z</time>
      </trkpt>
      <trkpt lat="48.9899" lon="0.05614">
        <ele>163.17</ele>
        <time>2021-08-08T15:51:25Z</time>
      </trkpt>
      <trkpt lat="48.98991" lon="0.05614">
        <ele>163.29</ele>
        <time>2021-08-08T15:51:26Z</time>
      </trkpt>
      <trkpt lat="48.98993" lon="0.05613">
        <ele>163.44</ele>
        <time>2021-08-08T15:51:27Z</time>
      </trkpt>
      <trkpt lat="48.98997" lon="0.05611">
        <ele>163.65</ele>
        <time>2021-08-08T15:51:28Z</time>
      </trkpt>
      <trkpt lat="48.98999" lon="0.05609">
        <ele>163.89</ele>
        <time>2021-08-08T15:51:29Z</time>
      </trkpt>
      <trkpt lat="48.99002" lon="0.05608">
        <ele>164.19</ele>
        <time>2021-08-08T15:51:30Z</time>
      </trkpt>
      <trkpt lat="48.99005" lon="0.05605">
        <ele>164.47</ele>
        <time>2021-08-08T15:51:31Z</time>
      </trkpt>
      <trkpt lat="48.99007" lon="0.05602">
        <ele>164.74</ele>
        <time>2021-08-08T15:51:32Z</time>
      </trkpt>
      <trkpt lat="48.9901" lon="0.056">
        <ele>165.01</ele>
        <time>2021-08-08T15:51:33Z</time>
      </trkpt>
      <trkpt lat="48.99012" lon="0.05597">
        <ele>165.28</ele>
        <time>2021-08-08T15:51:34Z</time>
      </trkpt>
      <trkpt lat="48.99014" lon="0.05595">
        <ele>165.49</ele>
        <time>2021-08-08T15:51:35Z</time>
      </trkpt>
      <trkpt lat="48.99016" lon="0.05593">
        <ele>165.71</ele>
        <time>2021-08-08T15:51:36Z</time>
      </trkpt>
      <trkpt lat="48.99018" lon="0.0559">
        <ele>165.94</ele>
        <time>2021-08-08T15:51:37Z</time>
      </trkpt>
      <trkpt lat="48.99019" lon="0.05589">
        <ele>166.1</ele>
        <time>2021-08-08T15:51:38Z</time>
      </trkpt>
      <trkpt lat="48.9902" lon="0.05588">
        <ele>166.24</ele>
        <time>2021-08-08T15:51:39Z</time>
      </trkpt>
      <trkpt lat="48.99021" lon="0.05586">
        <ele>166.36</ele>
        <time>2021-08-08T15:51:40Z</time>
      </trkpt>
      <trkpt lat="48.99021" lon="0.05583">
        <ele>166.49</ele>
        <time>2021-08-08T15:51:41Z</time>
      </trkpt>
      <trkpt lat="48.99022" lon="0.05582">
        <ele>166.59</ele>
        <time>2021-08-08T15:51:42Z</time>
      </trkpt>
      <trkpt lat="48.99022" lon="0.05579">
        <ele>166.69</ele>
        <time>2021-08-08T15:51:43Z</time>
      </trkpt>
      <trkpt lat="48.99022" lon="0.05578">
        <ele>166.77</ele>
        <time>2021-08-08T15:51:44Z</time>
      </trkpt>
      <trkpt lat="48.99023" lon="0.05577">
        <ele>166.84</ele>
        <time>2021-08-08T15:51:45Z</time>
      </trkpt>
      <trkpt lat="48.99023" lon="0.05576">
        <ele>166.9</ele>
        <time>2021-08-08T15:51:46Z</time>
      </trkpt>
      <trkpt lat="48.99024" lon="0.05574">
        <ele>166.98</ele>
        <time>2021-08-08T15:51:47Z</time>
      </trkpt>
      <trkpt lat="48.99025" lon="0.05573">
        <ele>167.11</ele>
        <time>2021-08-08T15:51:48Z</time>
      </trkpt>
      <trkpt lat="48.99026" lon="0.0557">
        <ele>167.27</ele>
        <time>2021-08-08T15:51:49Z</time>
      </trkpt>
      <trkpt lat="48.99027" lon="0.05567">
        <ele>167.46</ele>
        <time>2021-08-08T15:51:50Z</time>
      </trkpt>
      <trkpt lat="48.99028" lon="0.05565">
        <ele>167.61</ele>
        <time>2021-08-08T15:51:51Z</time>
      </trkpt>
      <trkpt lat="48.9903" lon="0.05561">
        <ele>167.79</ele>
        <time>2021-08-08T15:51:52Z</time>
      </trkpt>
      <trkpt lat="48.99031" lon="0.05559">
        <ele>167.92</ele>
        <time>2021-08-08T15:51:53Z</time>
      </trkpt>
      <trkpt lat="48.99031" lon="0.05557">
        <ele>168.02</ele>
        <time>2021-08-08T15:51:54Z</time>
      </trkpt>
      <trkpt lat="48.99031" lon="0.05555">
        <ele>168.08</ele>
        <time>2021-08-08T15:51:55Z</time>
      </trkpt>
      <trkpt lat="48.9903" lon="0.05552">
        <ele>168.09</ele>
        <time>2021-08-08T15:51:56Z</time>
      </trkpt>
      <trkpt lat="48.9903" lon="0.05549">
        <ele>168.07</ele>
        <time>2021-08-08T15:51:57Z</time>
      </trkpt>
      <trkpt lat="48.9903" lon="0.05546">
        <ele>168.07</ele>
        <time>2021-08-08T15:51:58Z</time>
      </trkpt>
      <trkpt lat="48.9903" lon="0.05542">
        <ele>168.06</ele>
        <time>2021-08-08T15:51:59Z</time>
      </trkpt>
      <trkpt lat="48.99031" lon="0.05538">
        <ele>168.09</ele>
        <time>2021-08-08T15:52:00Z</time>
      </trkpt>
      <trkpt lat="48.99031" lon="0.05535">
        <ele>168.11</ele>
        <time>2021-08-08T15:52:01Z</time>
      </trkpt>
      <trkpt lat="48.99031" lon="0.05531">
        <ele>168.13</ele>
        <time>2021-08-08T15:52:02Z</time>
      </trkpt>
      <trkpt lat="48.99031" lon="0.05528">
        <ele>168.13</ele>
        <time>2021-08-08T15:52:03Z</time>
      </trkpt>
      <trkpt lat="48.99031" lon="0.05525">
        <ele>168.22</ele>
        <time>2021-08-08T15:52:04Z</time>
      </trkpt>
      <trkpt lat="48.99032" lon="0.05522">
        <ele>168.31</ele>
        <time>2021-08-08T15:52:05Z</time>
      </trkpt>
      <trkpt lat="48.99031" lon="0.05519">
        <ele>168.41</ele>
        <time>2021-08-08T15:52:06Z</time>
      </trkpt>
      <trkpt lat="48.99032" lon="0.05516">
        <ele>168.54</ele>
        <time>2021-08-08T15:52:07Z</time>
      </trkpt>
      <trkpt lat="48.99032" lon="0.05513">
        <ele>168.64</ele>
        <time>2021-08-08T15:52:08Z</time>
      </trkpt>
      <trkpt lat="48.99032" lon="0.0551">
        <ele>168.73</ele>
        <time>2021-08-08T15:52:09Z</time>
      </trkpt>
      <trkpt lat="48.99032" lon="0.05508">
        <ele>168.83</ele>
        <time>2021-08-08T15:52:10Z</time>
      </trkpt>
      <trkpt lat="48.99032" lon="0.05504">
        <ele>168.94</ele>
        <time>2021-08-08T15:52:11Z</time>
      </trkpt>
      <trkpt lat="48.99032" lon="0.05503">
        <ele>169.03</ele>
        <time>2021-08-08T15:52:12Z</time>
      </trkpt>
      <trkpt lat="48.99032" lon="0.055">
        <ele>169.12</ele>
        <time>2021-08-08T15:52:13Z</time>
      </trkpt>
      <trkpt lat="48.99032" lon="0.055">
        <ele>169.14</ele>
        <time>2021-08-08T15:52:14Z</time>
      </trkpt>
      <trkpt lat="48.99033" lon="0.05497">
        <ele>169.16</ele>
        <time>2021-08-08T15:52:15Z</time>
      </trkpt>
      <trkpt lat="48.99034" lon="0.05493">
        <ele>169.19</ele>
        <time>2021-08-08T15:52:16Z</time>
      </trkpt>
      <trkpt lat="48.99035" lon="0.0549">
        <ele>169.24</ele>
        <time>2021-08-08T15:52:17Z</time>
      </trkpt>
      <trkpt lat="48.99035" lon="0.05486">
        <ele>169.26</ele>
        <time>2021-08-08T15:52:18Z</time>
      </trkpt>
      <trkpt lat="48.99036" lon="0.05483">
        <ele>169.29</ele>
        <time>2021-08-08T15:52:19Z</time>
      </trkpt>
      <trkpt lat="48.99036" lon="0.05481">
        <ele>169.3</ele>
        <time>2021-08-08T15:52:20Z</time>
      </trkpt>
      <trkpt lat="48.99038" lon="0.05478">
        <ele>169.35</ele>
        <time>2021-08-08T15:52:21Z</time>
      </trkpt>
      <trkpt lat="48.9904" lon="0.05476">
        <ele>169.4</ele>
        <time>2021-08-08T15:52:22Z</time>
      </trkpt>
      <trkpt lat="48.99041" lon="0.05473">
        <ele>169.47</ele>
        <time>2021-08-08T15:52:23Z</time>
      </trkpt>
      <trkpt lat="48.99044" lon="0.05471">
        <ele>169.58</ele>
        <time>2021-08-08T15:52:24Z</time>
      </trkpt>
      <trkpt lat="48.99047" lon="0.05468">
        <ele>169.75</ele>
        <time>2021-08-08T15:52:25Z</time>
      </trkpt>
      <trkpt lat="48.99049" lon="0.05466">
        <ele>169.91</ele>
        <time>2021-08-08T15:52:26Z</time>
      </trkpt>
      <trkpt lat="48.99051" lon="0.05464">
        <ele>170.06</ele>
        <time>2021-08-08T15:52:27Z</time>
      </trkpt>
      <trkpt lat="48.99054" lon="0.05461">
        <ele>170.24</ele>
        <time>2021-08-08T15:52:28Z</time>
      </trkpt>
      <trkpt lat="48.99056" lon="0.0546">
        <ele>170.41</ele>
        <time>2021-08-08T15:52:29Z</time>
      </trkpt>
      <trkpt lat="48.99058" lon="0.05457">
        <ele>170.59</ele>
        <time>2021-08-08T15:52:30Z</time>
      </trkpt>
      <trkpt lat="48.9906" lon="0.05456">
        <ele>170.76</ele>
        <time>2021-08-08T15:52:31Z</time>
      </trkpt>
      <trkpt lat="48.99062" lon="0.05454">
        <ele>170.91</ele>
        <time>2021-08-08T15:52:32Z</time>
      </trkpt>
      <trkpt lat="48.99064" lon="0.05451">
        <ele>171.06</ele>
        <time>2021-08-08T15:52:33Z</time>
      </trkpt>
      <trkpt lat="48.99066" lon="0.05448">
        <ele>171.21</ele>
        <time>2021-08-08T15:52:34Z</time>
      </trkpt>
      <trkpt lat="48.99068" lon="0.05445">
        <ele>171.37</ele>
        <time>2021-08-08T15:52:35Z</time>
      </trkpt>
      <trkpt lat="48.9907" lon="0.05441">
        <ele>171.52</ele>
        <time>2021-08-08T15:52:36Z</time>
      </trkpt>
      <trkpt lat="48.99073" lon="0.05437">
        <ele>171.71</ele>
        <time>2021-08-08T15:52:37Z</time>
      </trkpt>
      <trkpt lat="48.99074" lon="0.05432">
        <ele>171.89</ele>
        <time>2021-08-08T15:52:38Z</time>
      </trkpt>
      <trkpt lat="48.99077" lon="0.05428">
        <ele>172.12</ele>
        <time>2021-08-08T15:52:39Z</time>
      </trkpt>
      <trkpt lat="48.9908" lon="0.05425">
        <ele>172.36</ele>
        <time>2021-08-08T15:52:40Z</time>
      </trkpt>
      <trkpt lat="48.99083" lon="0.05422">
        <ele>172.65</ele>
        <time>2021-08-08T15:52:41Z</time>
      </trkpt>
      <trkpt lat="48.99085" lon="0.0542">
        <ele>172.82</ele>
        <time>2021-08-08T15:52:42Z</time>
      </trkpt>
      <trkpt lat="48.99087" lon="0.05417">
        <ele>172.94</ele>
        <time>2021-08-08T15:52:43Z</time>
      </trkpt>
      <trkpt lat="48.9909" lon="0.05414">
        <ele>173</ele>
        <time>2021-08-08T15:52:44Z</time>
      </trkpt>
      <trkpt lat="48.99093" lon="0.0541">
        <ele>173.06</ele>
        <time>2021-08-08T15:52:45Z</time>
      </trkpt>
      <trkpt lat="48.99095" lon="0.05407">
        <ele>173.12</ele>
        <time>2021-08-08T15:52:46Z</time>
      </trkpt>
      <trkpt lat="48.99097" lon="0.05405">
        <ele>173.19</ele>
        <time>2021-08-08T15:52:47Z</time>
      </trkpt>
      <trkpt lat="48.99099" lon="0.05402">
        <ele>173.27</ele>
        <time>2021-08-08T15:52:48Z</time>
      </trkpt>
      <trkpt lat="48.99101" lon="0.05398">
        <ele>173.38</ele>
        <time>2021-08-08T15:52:49Z</time>
      </trkpt>
      <trkpt lat="48.99102" lon="0.05394">
        <ele>173.51</ele>
        <time>2021-08-08T15:52:50Z</time>
      </trkpt>
      <trkpt lat="48.99103" lon="0.0539">
        <ele>173.63</ele>
        <time>2021-08-08T15:52:51Z</time>
      </trkpt>
      <trkpt lat="48.99104" lon="0.05383">
        <ele>173.71</ele>
        <time>2021-08-08T15:52:52Z</time>
      </trkpt>
      <trkpt lat="48.99104" lon="0.05378">
        <ele>173.74</ele>
        <time>2021-08-08T15:52:53Z</time>
      </trkpt>
      <trkpt lat="48.99105" lon="0.05373">
        <ele>173.76</ele>
        <time>2021-08-08T15:52:54Z</time>
      </trkpt>
      <trkpt lat="48.99105" lon="0.05367">
        <ele>173.77</ele>
        <time>2021-08-08T15:52:55Z</time>
      </trkpt>
      <trkpt lat="48.99105" lon="0.05363">
        <ele>173.78</ele>
        <time>2021-08-08T15:52:56Z</time>
      </trkpt>
      <trkpt lat="48.99106" lon="0.05359">
        <ele>173.8</ele>
        <time>2021-08-08T15:52:57Z</time>
      </trkpt>
      <trkpt lat="48.99106" lon="0.05355">
        <ele>173.81</ele>
        <time>2021-08-08T15:52:58Z</time>
      </trkpt>
      <trkpt lat="48.99106" lon="0.05351">
        <ele>173.83</ele>
        <time>2021-08-08T15:52:59Z</time>
      </trkpt>
      <trkpt lat="48.99107" lon="0.05348">
        <ele>173.84</ele>
        <time>2021-08-08T15:53:00Z</time>
      </trkpt>
      <trkpt lat="48.99107" lon="0.05345">
        <ele>173.85</ele>
        <time>2021-08-08T15:53:01Z</time>
      </trkpt>
      <trkpt lat="48.99108" lon="0.05342">
        <ele>173.87</ele>
        <time>2021-08-08T15:53:02Z</time>
      </trkpt>
      <trkpt lat="48.99109" lon="0.05339">
        <ele>173.9</ele>
        <time>2021-08-08T15:53:03Z</time>
      </trkpt>
      <trkpt lat="48.99109" lon="0.05337">
        <ele>173.91</ele>
        <time>2021-08-08T15:53:04Z</time>
      </trkpt>
      <trkpt lat="48.99109" lon="0.05337">
        <ele>173.92</ele>
        <time>2021-08-08T15:53:05Z</time>
      </trkpt>
      <trkpt lat="48.99109" lon="0.05337">
        <ele>173.93</ele>
        <time>2021-08-08T15:53:06Z</time>
      </trkpt>
      <trkpt lat="48.99109" lon="0.05337">
        <ele>173.93</ele>
        <time>2021-08-08T15:53:07Z</time>
      </trkpt>
      <trkpt lat="48.99109" lon="0.05337">
        <ele>173.94</ele>
        <time>2021-08-08T15:53:08Z</time>
      </trkpt>
      <trkpt lat="48.99109" lon="0.05337">
        <ele>173.94</ele>
        <time>2021-08-08T15:53:09Z</time>
      </trkpt>
      <trkpt lat="48.99109" lon="0.05337">
        <ele>173.94</ele>
        <time>2021-08-08T15:53:10Z</time>
      </trkpt>
      <trkpt lat="48.99109" lon="0.05337">
        <ele>173.94</ele>
        <time>2021-08-08T15:53:11Z</time>
      </trkpt>
      <trkpt lat="48.99109" lon="0.05337">
        <ele>173.94</ele>
        <time>2021-08-08T15:53:12Z</time>
      </trkpt>
      <trkpt lat="48.99109" lon="0.05337">
        <ele>173.94</ele>
        <time>2021-08-08T15:53:13Z</time>
      </trkpt>
      <trkpt lat="48.99109" lon="0.05337">
        <ele>173.94</ele>
        <time>2021-08-08T15:53:14Z</time>
      </trkpt>
      <trkpt lat="48.99109" lon="0.05337">
        <ele>173.94</ele>
        <time>2021-08-08T15:53:15Z</time>
      </trkpt>
      <trkpt lat="48.99109" lon="0.05337">
        <ele>173.94</ele>
        <time>2021-08-08T15:53:16Z</time>
      </trkpt>
      <trkpt lat="48.99109" lon="0.05337">
        <ele>173.94</ele>
        <time>2021-08-08T15:53:17Z</time>
      </trkpt>
      <trkpt lat="48.99109" lon="0.05337">
        <ele>173.94</ele>
        <time>2021-08-08T15:53:18Z</time>
      </trkpt>
      <trkpt lat="48.99109" lon="0.05337">
        <ele>173.94</ele>
        <time>2021-08-08T15:53:19Z</time>
      </trkpt>
      <trkpt lat="48.99109" lon="0.05337">
        <ele>173.94</ele>
        <time>2021-08-08T15:53:20Z</time>
      </trkpt>
      <trkpt lat="48.99109" lon="0.05337">
        <ele>173.94</ele>
        <time>2021-08-08T15:53:21Z</time>
      </trkpt>
      <trkpt lat="48.99109" lon="0.05337">
        <ele>173.94</ele>
        <time>2021-08-08T15:53:22Z</time>
      </trkpt>
      <trkpt lat="48.99109" lon="0.05337">
        <ele>173.94</ele>
        <time>2021-08-08T15:53:23Z</time>
      </trkpt>
      <trkpt lat="48.99109" lon="0.05337">
        <ele>173.94</ele>
        <time>2021-08-08T15:53:24Z</time>
      </trkpt>
      <trkpt lat="48.99109" lon="0.05337">
        <ele>173.94</ele>
        <time>2021-08-08T15:53:25Z</time>
      </trkpt>
      <trkpt lat="48.99109" lon="0.05337">
        <ele>173.94</ele>
        <time>2021-08-08T15:53:26Z</time>
      </trkpt>
      <trkpt lat="48.99109" lon="0.05337">
        <ele>173.94</ele>
        <time>2021-08-08T15:53:27Z</time>
      </trkpt>
      <trkpt lat="48.99109" lon="0.05337">
        <ele>173.94</ele>
        <time>2021-08-08T15:53:28Z</time>
      </trkpt>
      <trkpt lat="48.99109" lon="0.05337">
        <ele>173.94</ele>
        <time>2021-08-08T15:53:29Z</time>
      </trkpt>
      <trkpt lat="48.99109" lon="0.05337">
        <ele>173.94</ele>
        <time>2021-08-08T15:53:30Z</time>
      </trkpt>
      <trkpt lat="48.99109" lon="0.05337">
        <ele>173.94</ele>
        <time>2021-08-08T15:53:31Z</time>
      </trkpt>
      <trkpt lat="48.99109" lon="0.05337">
        <ele>173.94</ele>
        <time>2021-08-08T15:53:32Z</time>
      </trkpt>
      <trkpt lat="48.99109" lon="0.05337">
        <ele>173.94</ele>
        <time>2021-08-08T15:53:33Z</time>
      </trkpt>
      <trkpt lat="48.99109" lon="0.05337">
        <ele>173.94</ele>
        <time>2021-08-08T15:53:34Z</time>
      </trkpt>
      <trkpt lat="48.99109" lon="0.05337">
        <ele>173.94</ele>
        <time>2021-08-08T15:53:35Z</time>
      </trkpt>
      <trkpt lat="48.99109" lon="0.05337">
        <ele>173.94</ele>
        <time>2021-08-08T15:53:36Z</time>
      </trkpt>
      <trkpt lat="48.99109" lon="0.05337">
        <ele>173.94</ele>
        <time>2021-08-08T15:53:37Z</time>
      </trkpt>
      <trkpt lat="48.99109" lon="0.05337">
        <ele>173.94</ele>
        <time>2021-08-08T15:53:38Z</time>
      </trkpt>
      <trkpt lat="48.99109" lon="0.05337">
        <ele>173.94</ele>
        <time>2021-08-08T15:53:39Z</time>
      </trkpt>
      <trkpt lat="48.99112" lon="0.05333">
        <ele>174.01</ele>
        <time>2021-08-08T15:53:40Z</time>
      </trkpt>
      <trkpt lat="48.99112" lon="0.05333">
        <ele>174.01</ele>
        <time>2021-08-08T15:53:41Z</time>
      </trkpt>
      <trkpt lat="48.99113" lon="0.0533">
        <ele>174.06</ele>
        <time>2021-08-08T15:53:42Z</time>
      </trkpt>
      <trkpt lat="48.99114" lon="0.05326">
        <ele>174.1</ele>
        <time>2021-08-08T15:53:43Z</time>
      </trkpt>
      <trkpt lat="48.99116" lon="0.05323">
        <ele>174.16</ele>
        <time>2021-08-08T15:53:44Z</time>
      </trkpt>
      <trkpt lat="48.99117" lon="0.05319">
        <ele>174.21</ele>
        <time>2021-08-08T15:53:45Z</time>
      </trkpt>
      <trkpt lat="48.99119" lon="0.05315">
        <ele>174.27</ele>
        <time>2021-08-08T15:53:46Z</time>
      </trkpt>
      <trkpt lat="48.99121" lon="0.05311">
        <ele>174.33</ele>
        <time>2021-08-08T15:53:47Z</time>
      </trkpt>
      <trkpt lat="48.99122" lon="0.05306">
        <ele>174.38</ele>
        <time>2021-08-08T15:53:48Z</time>
      </trkpt>
      <trkpt lat="48.99123" lon="0.05302">
        <ele>174.43</ele>
        <time>2021-08-08T15:53:49Z</time>
      </trkpt>
      <trkpt lat="48.99125" lon="0.05297">
        <ele>174.47</ele>
        <time>2021-08-08T15:53:50Z</time>
      </trkpt>
      <trkpt lat="48.99126" lon="0.05292">
        <ele>174.52</ele>
        <time>2021-08-08T15:53:51Z</time>
      </trkpt>
      <trkpt lat="48.99128" lon="0.05287">
        <ele>174.58</ele>
        <time>2021-08-08T15:53:52Z</time>
      </trkpt>
      <trkpt lat="48.9913" lon="0.05282">
        <ele>174.65</ele>
        <time>2021-08-08T15:53:53Z</time>
      </trkpt>
      <trkpt lat="48.99131" lon="0.05276">
        <ele>174.71</ele>
        <time>2021-08-08T15:53:54Z</time>
      </trkpt>
      <trkpt lat="48.99132" lon="0.05271">
        <ele>174.78</ele>
        <time>2021-08-08T15:53:55Z</time>
      </trkpt>
      <trkpt lat="48.99132" lon="0.05264">
        <ele>174.85</ele>
        <time>2021-08-08T15:53:56Z</time>
      </trkpt>
      <trkpt lat="48.99133" lon="0.05258">
        <ele>174.91</ele>
        <time>2021-08-08T15:53:57Z</time>
      </trkpt>
      <trkpt lat="48.99134" lon="0.05252">
        <ele>174.97</ele>
        <time>2021-08-08T15:53:58Z</time>
      </trkpt>
      <trkpt lat="48.99135" lon="0.05246">
        <ele>174.99</ele>
        <time>2021-08-08T15:53:59Z</time>
      </trkpt>
      <trkpt lat="48.99136" lon="0.0524">
        <ele>175</ele>
        <time>2021-08-08T15:54:00Z</time>
      </trkpt>
      <trkpt lat="48.99137" lon="0.05236">
        <ele>175</ele>
        <time>2021-08-08T15:54:01Z</time>
      </trkpt>
      <trkpt lat="48.99136" lon="0.0523">
        <ele>175</ele>
        <time>2021-08-08T15:54:02Z</time>
      </trkpt>
      <trkpt lat="48.99136" lon="0.05225">
        <ele>175</ele>
        <time>2021-08-08T15:54:03Z</time>
      </trkpt>
      <trkpt lat="48.99136" lon="0.05218">
        <ele>175.09</ele>
        <time>2021-08-08T15:54:04Z</time>
      </trkpt>
      <trkpt lat="48.99137" lon="0.05212">
        <ele>175.26</ele>
        <time>2021-08-08T15:54:05Z</time>
      </trkpt>
      <trkpt lat="48.99137" lon="0.05206">
        <ele>175.46</ele>
        <time>2021-08-08T15:54:06Z</time>
      </trkpt>
      <trkpt lat="48.99136" lon="0.05199">
        <ele>175.65</ele>
        <time>2021-08-08T15:54:07Z</time>
      </trkpt>
      <trkpt lat="48.99134" lon="0.05194">
        <ele>175.78</ele>
        <time>2021-08-08T15:54:08Z</time>
      </trkpt>
      <trkpt lat="48.99133" lon="0.05188">
        <ele>175.78</ele>
        <time>2021-08-08T15:54:09Z</time>
      </trkpt>
      <trkpt lat="48.99132" lon="0.05183">
        <ele>175.75</ele>
        <time>2021-08-08T15:54:10Z</time>
      </trkpt>
      <trkpt lat="48.9913" lon="0.05178">
        <ele>175.7</ele>
        <time>2021-08-08T15:54:11Z</time>
      </trkpt>
      <trkpt lat="48.99129" lon="0.05172">
        <ele>175.67</ele>
        <time>2021-08-08T15:54:12Z</time>
      </trkpt>
      <trkpt lat="48.99126" lon="0.05165">
        <ele>175.58</ele>
        <time>2021-08-08T15:54:13Z</time>
      </trkpt>
      <trkpt lat="48.99124" lon="0.05159">
        <ele>175.5</ele>
        <time>2021-08-08T15:54:14Z</time>
      </trkpt>
      <trkpt lat="48.99123" lon="0.05153">
        <ele>175.45</ele>
        <time>2021-08-08T15:54:15Z</time>
      </trkpt>
      <trkpt lat="48.99121" lon="0.05148">
        <ele>175.38</ele>
        <time>2021-08-08T15:54:16Z</time>
      </trkpt>
      <trkpt lat="48.99119" lon="0.05142">
        <ele>175.31</ele>
        <time>2021-08-08T15:54:17Z</time>
      </trkpt>
      <trkpt lat="48.99117" lon="0.05134">
        <ele>175.34</ele>
        <time>2021-08-08T15:54:18Z</time>
      </trkpt>
      <trkpt lat="48.99114" lon="0.05129">
        <ele>175.39</ele>
        <time>2021-08-08T15:54:19Z</time>
      </trkpt>
      <trkpt lat="48.99111" lon="0.05124">
        <ele>175.48</ele>
        <time>2021-08-08T15:54:20Z</time>
      </trkpt>
      <trkpt lat="48.99109" lon="0.05117">
        <ele>175.64</ele>
        <time>2021-08-08T15:54:21Z</time>
      </trkpt>
      <trkpt lat="48.99107" lon="0.05111">
        <ele>175.78</ele>
        <time>2021-08-08T15:54:22Z</time>
      </trkpt>
      <trkpt lat="48.99105" lon="0.05107">
        <ele>175.79</ele>
        <time>2021-08-08T15:54:23Z</time>
      </trkpt>
      <trkpt lat="48.99103" lon="0.05103">
        <ele>175.79</ele>
        <time>2021-08-08T15:54:24Z</time>
      </trkpt>
      <trkpt lat="48.991" lon="0.05099">
        <ele>175.79</ele>
        <time>2021-08-08T15:54:25Z</time>
      </trkpt>
      <trkpt lat="48.99098" lon="0.05093">
        <ele>175.82</ele>
        <time>2021-08-08T15:54:26Z</time>
      </trkpt>
      <trkpt lat="48.99096" lon="0.05089">
        <ele>175.87</ele>
        <time>2021-08-08T15:54:27Z</time>
      </trkpt>
      <trkpt lat="48.99094" lon="0.05086">
        <ele>175.92</ele>
        <time>2021-08-08T15:54:28Z</time>
      </trkpt>
      <trkpt lat="48.99094" lon="0.0508">
        <ele>175.98</ele>
        <time>2021-08-08T15:54:29Z</time>
      </trkpt>
      <trkpt lat="48.99093" lon="0.05073">
        <ele>175.99</ele>
        <time>2021-08-08T15:54:30Z</time>
      </trkpt>
      <trkpt lat="48.99093" lon="0.05066">
        <ele>176</ele>
        <time>2021-08-08T15:54:31Z</time>
      </trkpt>
      <trkpt lat="48.99093" lon="0.05058">
        <ele>176</ele>
        <time>2021-08-08T15:54:32Z</time>
      </trkpt>
      <trkpt lat="48.99092" lon="0.05052">
        <ele>176</ele>
        <time>2021-08-08T15:54:33Z</time>
      </trkpt>
      <trkpt lat="48.99091" lon="0.05047">
        <ele>176</ele>
        <time>2021-08-08T15:54:34Z</time>
      </trkpt>
      <trkpt lat="48.99089" lon="0.0504">
        <ele>176</ele>
        <time>2021-08-08T15:54:35Z</time>
      </trkpt>
      <trkpt lat="48.99088" lon="0.05035">
        <ele>176</ele>
        <time>2021-08-08T15:54:36Z</time>
      </trkpt>
      <trkpt lat="48.99087" lon="0.05028">
        <ele>176</ele>
        <time>2021-08-08T15:54:37Z</time>
      </trkpt>
      <trkpt lat="48.99086" lon="0.05022">
        <ele>176</ele>
        <time>2021-08-08T15:54:38Z</time>
      </trkpt>
      <trkpt lat="48.99086" lon="0.05014">
        <ele>176</ele>
        <time>2021-08-08T15:54:39Z</time>
      </trkpt>
      <trkpt lat="48.99086" lon="0.05007">
        <ele>176</ele>
        <time>2021-08-08T15:54:40Z</time>
      </trkpt>
      <trkpt lat="48.99085" lon="0.05002">
        <ele>176</ele>
        <time>2021-08-08T15:54:41Z</time>
      </trkpt>
      <trkpt lat="48.99084" lon="0.04997">
        <ele>176</ele>
        <time>2021-08-08T15:54:42Z</time>
      </trkpt>
      <trkpt lat="48.99084" lon="0.04991">
        <ele>176</ele>
        <time>2021-08-08T15:54:43Z</time>
      </trkpt>
      <trkpt lat="48.99083" lon="0.04985">
        <ele>176</ele>
        <time>2021-08-08T15:54:44Z</time>
      </trkpt>
      <trkpt lat="48.99083" lon="0.04976">
        <ele>176</ele>
        <time>2021-08-08T15:54:45Z</time>
      </trkpt>
      <trkpt lat="48.99082" lon="0.04967">
        <ele>176</ele>
        <time>2021-08-08T15:54:46Z</time>
      </trkpt>
      <trkpt lat="48.99081" lon="0.0496">
        <ele>176</ele>
        <time>2021-08-08T15:54:47Z</time>
      </trkpt>
      <trkpt lat="48.9908" lon="0.04952">
        <ele>176</ele>
        <time>2021-08-08T15:54:48Z</time>
      </trkpt>
      <trkpt lat="48.9908" lon="0.04944">
        <ele>175.99</ele>
        <time>2021-08-08T15:54:49Z</time>
      </trkpt>
      <trkpt lat="48.99078" lon="0.04936">
        <ele>175.78</ele>
        <time>2021-08-08T15:54:50Z</time>
      </trkpt>
      <trkpt lat="48.99078" lon="0.04929">
        <ele>175.56</ele>
        <time>2021-08-08T15:54:51Z</time>
      </trkpt>
      <trkpt lat="48.99077" lon="0.04922">
        <ele>175.31</ele>
        <time>2021-08-08T15:54:52Z</time>
      </trkpt>
      <trkpt lat="48.99078" lon="0.04916">
        <ele>175.09</ele>
        <time>2021-08-08T15:54:53Z</time>
      </trkpt>
      <trkpt lat="48.9908" lon="0.04912">
        <ele>175.03</ele>
        <time>2021-08-08T15:54:54Z</time>
      </trkpt>
      <trkpt lat="48.99081" lon="0.04906">
        <ele>175.01</ele>
        <time>2021-08-08T15:54:55Z</time>
      </trkpt>
      <trkpt lat="48.99081" lon="0.04901">
        <ele>175</ele>
        <time>2021-08-08T15:54:56Z</time>
      </trkpt>
      <trkpt lat="48.9908" lon="0.04896">
        <ele>175</ele>
        <time>2021-08-08T15:54:57Z</time>
      </trkpt>
      <trkpt lat="48.99079" lon="0.0489">
        <ele>175</ele>
        <time>2021-08-08T15:54:58Z</time>
      </trkpt>
      <trkpt lat="48.99078" lon="0.04885">
        <ele>174.91</ele>
        <time>2021-08-08T15:54:59Z</time>
      </trkpt>
      <trkpt lat="48.9908" lon="0.04878">
        <ele>174.7</ele>
        <time>2021-08-08T15:55:00Z</time>
      </trkpt>
      <trkpt lat="48.99079" lon="0.04871">
        <ele>174.47</ele>
        <time>2021-08-08T15:55:01Z</time>
      </trkpt>
      <trkpt lat="48.9908" lon="0.04865">
        <ele>174.23</ele>
        <time>2021-08-08T15:55:02Z</time>
      </trkpt>
      <trkpt lat="48.99079" lon="0.04858">
        <ele>173.99</ele>
        <time>2021-08-08T15:55:03Z</time>
      </trkpt>
      <trkpt lat="48.99079" lon="0.04853">
        <ele>173.78</ele>
        <time>2021-08-08T15:55:04Z</time>
      </trkpt>
      <trkpt lat="48.99076" lon="0.04845">
        <ele>173.53</ele>
        <time>2021-08-08T15:55:05Z</time>
      </trkpt>
      <trkpt lat="48.99076" lon="0.04839">
        <ele>173.31</ele>
        <time>2021-08-08T15:55:06Z</time>
      </trkpt>
      <trkpt lat="48.99075" lon="0.04833">
        <ele>173.09</ele>
        <time>2021-08-08T15:55:07Z</time>
      </trkpt>
      <trkpt lat="48.99075" lon="0.04827">
        <ele>172.77</ele>
        <time>2021-08-08T15:55:08Z</time>
      </trkpt>
      <trkpt lat="48.99075" lon="0.04819">
        <ele>172.33</ele>
        <time>2021-08-08T15:55:09Z</time>
      </trkpt>
      <trkpt lat="48.99076" lon="0.0481">
        <ele>171.8</ele>
        <time>2021-08-08T15:55:10Z</time>
      </trkpt>
      <trkpt lat="48.99076" lon="0.04801">
        <ele>171.3</ele>
        <time>2021-08-08T15:55:11Z</time>
      </trkpt>
      <trkpt lat="48.99075" lon="0.04794">
        <ele>170.91</ele>
        <time>2021-08-08T15:55:12Z</time>
      </trkpt>
      <trkpt lat="48.99076" lon="0.04785">
        <ele>170.51</ele>
        <time>2021-08-08T15:55:13Z</time>
      </trkpt>
      <trkpt lat="48.99078" lon="0.04778">
        <ele>170.17</ele>
        <time>2021-08-08T15:55:14Z</time>
      </trkpt>
      <trkpt lat="48.99079" lon="0.04772">
        <ele>169.75</ele>
        <time>2021-08-08T15:55:15Z</time>
      </trkpt>
      <trkpt lat="48.9908" lon="0.04765">
        <ele>169.3</ele>
        <time>2021-08-08T15:55:16Z</time>
      </trkpt>
      <trkpt lat="48.99079" lon="0.04758">
        <ele>168.77</ele>
        <time>2021-08-08T15:55:17Z</time>
      </trkpt>
      <trkpt lat="48.99079" lon="0.04749">
        <ele>168</ele>
        <time>2021-08-08T15:55:18Z</time>
      </trkpt>
      <trkpt lat="48.99078" lon="0.0474">
        <ele>166.31</ele>
        <time>2021-08-08T15:55:19Z</time>
      </trkpt>
      <trkpt lat="48.99076" lon="0.04731">
        <ele>164.19</ele>
        <time>2021-08-08T15:55:20Z</time>
      </trkpt>
      <trkpt lat="48.99073" lon="0.04721">
        <ele>162.07</ele>
        <time>2021-08-08T15:55:21Z</time>
      </trkpt>
      <trkpt lat="48.99069" lon="0.04713">
        <ele>160.29</ele>
        <time>2021-08-08T15:55:22Z</time>
      </trkpt>
      <trkpt lat="48.99066" lon="0.04704">
        <ele>158.49</ele>
        <time>2021-08-08T15:55:23Z</time>
      </trkpt>
      <trkpt lat="48.99063" lon="0.04696">
        <ele>156.84</ele>
        <time>2021-08-08T15:55:24Z</time>
      </trkpt>
      <trkpt lat="48.9906" lon="0.04688">
        <ele>155.16</ele>
        <time>2021-08-08T15:55:25Z</time>
      </trkpt>
      <trkpt lat="48.99057" lon="0.0468">
        <ele>153.52</ele>
        <time>2021-08-08T15:55:26Z</time>
      </trkpt>
      <trkpt lat="48.99054" lon="0.04671">
        <ele>151.81</ele>
        <time>2021-08-08T15:55:27Z</time>
      </trkpt>
      <trkpt lat="48.9905" lon="0.04662">
        <ele>150.2</ele>
        <time>2021-08-08T15:55:28Z</time>
      </trkpt>
      <trkpt lat="48.99043" lon="0.04649">
        <ele>148.45</ele>
        <time>2021-08-08T15:55:29Z</time>
      </trkpt>
      <trkpt lat="48.99037" lon="0.04638">
        <ele>146.92</ele>
        <time>2021-08-08T15:55:30Z</time>
      </trkpt>
      <trkpt lat="48.99033" lon="0.04631">
        <ele>146.14</ele>
        <time>2021-08-08T15:55:31Z</time>
      </trkpt>
      <trkpt lat="48.99031" lon="0.04627">
        <ele>145.65</ele>
        <time>2021-08-08T15:55:32Z</time>
      </trkpt>
      <trkpt lat="48.99029" lon="0.04621">
        <ele>145.21</ele>
        <time>2021-08-08T15:55:33Z</time>
      </trkpt>
      <trkpt lat="48.99028" lon="0.04618">
        <ele>144.87</ele>
        <time>2021-08-08T15:55:34Z</time>
      </trkpt>
      <trkpt lat="48.99027" lon="0.04617">
        <ele>144.69</ele>
        <time>2021-08-08T15:55:35Z</time>
      </trkpt>
      <trkpt lat="48.99027" lon="0.04618">
        <ele>144.79</ele>
        <time>2021-08-08T15:55:36Z</time>
      </trkpt>
      <trkpt lat="48.99028" lon="0.0462">
        <ele>144.9</ele>
        <time>2021-08-08T15:55:37Z</time>
      </trkpt>
      <trkpt lat="48.99028" lon="0.0462">
        <ele>144.95</ele>
        <time>2021-08-08T15:55:38Z</time>
      </trkpt>
      <trkpt lat="48.99028" lon="0.0462">
        <ele>144.97</ele>
        <time>2021-08-08T15:55:39Z</time>
      </trkpt>
      <trkpt lat="48.99028" lon="0.0462">
        <ele>144.97</ele>
        <time>2021-08-08T15:55:40Z</time>
      </trkpt>
      <trkpt lat="48.99028" lon="0.0462">
        <ele>144.97</ele>
        <time>2021-08-08T15:55:41Z</time>
      </trkpt>
      <trkpt lat="48.99028" lon="0.0462">
        <ele>144.97</ele>
        <time>2021-08-08T15:55:42Z</time>
      </trkpt>
      <trkpt lat="48.99028" lon="0.0462">
        <ele>144.97</ele>
        <time>2021-08-08T15:55:43Z</time>
      </trkpt>
      <trkpt lat="48.99028" lon="0.0462">
        <ele>144.97</ele>
        <time>2021-08-08T15:55:44Z</time>
      </trkpt>
      <trkpt lat="48.99028" lon="0.0462">
        <ele>144.97</ele>
        <time>2021-08-08T15:55:45Z</time>
      </trkpt>
      <trkpt lat="48.99023" lon="0.04612">
        <ele>144.47</ele>
        <time>2021-08-08T15:55:46Z</time>
      </trkpt>
      <trkpt lat="48.99023" lon="0.04605">
        <ele>143.67</ele>
        <time>2021-08-08T15:55:47Z</time>
      </trkpt>
      <trkpt lat="48.99021" lon="0.04596">
        <ele>142.57</ele>
        <time>2021-08-08T15:55:48Z</time>
      </trkpt>
      <trkpt lat="48.99021" lon="0.04591">
        <ele>141.68</ele>
        <time>2021-08-08T15:55:49Z</time>
      </trkpt>
      <trkpt lat="48.9902" lon="0.04584">
        <ele>140.72</ele>
        <time>2021-08-08T15:55:50Z</time>
      </trkpt>
      <trkpt lat="48.99019" lon="0.04575">
        <ele>139.65</ele>
        <time>2021-08-08T15:55:51Z</time>
      </trkpt>
      <trkpt lat="48.99017" lon="0.04572">
        <ele>138.99</ele>
        <time>2021-08-08T15:55:52Z</time>
      </trkpt>
      <trkpt lat="48.99013" lon="0.04569">
        <ele>138.6</ele>
        <time>2021-08-08T15:55:53Z</time>
      </trkpt>
      <trkpt lat="48.99011" lon="0.04567">
        <ele>138.33</ele>
        <time>2021-08-08T15:55:54Z</time>
      </trkpt>
      <trkpt lat="48.99011" lon="0.04567">
        <ele>138.3</ele>
        <time>2021-08-08T15:55:55Z</time>
      </trkpt>
      <trkpt lat="48.9901" lon="0.04567">
        <ele>138.29</ele>
        <time>2021-08-08T15:55:56Z</time>
      </trkpt>
      <trkpt lat="48.99009" lon="0.04567">
        <ele>138.33</ele>
        <time>2021-08-08T15:55:57Z</time>
      </trkpt>
      <trkpt lat="48.99009" lon="0.04567">
        <ele>138.34</ele>
        <time>2021-08-08T15:55:58Z</time>
      </trkpt>
      <trkpt lat="48.99009" lon="0.04567">
        <ele>138.34</ele>
        <time>2021-08-08T15:55:59Z</time>
      </trkpt>
      <trkpt lat="48.99009" lon="0.04567">
        <ele>138.34</ele>
        <time>2021-08-08T15:56:00Z</time>
      </trkpt>
      <trkpt lat="48.99009" lon="0.04567">
        <ele>138.34</ele>
        <time>2021-08-08T15:56:01Z</time>
      </trkpt>
      <trkpt lat="48.99005" lon="0.04573">
        <ele>139.06</ele>
        <time>2021-08-08T15:56:02Z</time>
      </trkpt>
      <trkpt lat="48.99004" lon="0.04576">
        <ele>139.55</ele>
        <time>2021-08-08T15:56:03Z</time>
      </trkpt>
      <trkpt lat="48.99003" lon="0.04577">
        <ele>139.81</ele>
        <time>2021-08-08T15:56:04Z</time>
      </trkpt>
      <trkpt lat="48.99001" lon="0.04578">
        <ele>140.07</ele>
        <time>2021-08-08T15:56:05Z</time>
      </trkpt>
      <trkpt lat="48.99" lon="0.04581">
        <ele>140.45</ele>
        <time>2021-08-08T15:56:06Z</time>
      </trkpt>
      <trkpt lat="48.98999" lon="0.04583">
        <ele>140.75</ele>
        <time>2021-08-08T15:56:07Z</time>
      </trkpt>
      <trkpt lat="48.98998" lon="0.04584">
        <ele>140.96</ele>
        <time>2021-08-08T15:56:08Z</time>
      </trkpt>
      <trkpt lat="48.98995" lon="0.04585">
        <ele>141.21</ele>
        <time>2021-08-08T15:56:09Z</time>
      </trkpt>
      <trkpt lat="48.98994" lon="0.04588">
        <ele>141.52</ele>
        <time>2021-08-08T15:56:10Z</time>
      </trkpt>
      <trkpt lat="48.98991" lon="0.0459">
        <ele>141.86</ele>
        <time>2021-08-08T15:56:11Z</time>
      </trkpt>
      <trkpt lat="48.98989" lon="0.04593">
        <ele>142.23</ele>
        <time>2021-08-08T15:56:12Z</time>
      </trkpt>
      <trkpt lat="48.98987" lon="0.04595">
        <ele>142.58</ele>
        <time>2021-08-08T15:56:13Z</time>
      </trkpt>
      <trkpt lat="48.98985" lon="0.04598">
        <ele>142.95</ele>
        <time>2021-08-08T15:56:14Z</time>
      </trkpt>
      <trkpt lat="48.98984" lon="0.046">
        <ele>143.32</ele>
        <time>2021-08-08T15:56:15Z</time>
      </trkpt>
      <trkpt lat="48.98983" lon="0.04602">
        <ele>143.59</ele>
        <time>2021-08-08T15:56:16Z</time>
      </trkpt>
      <trkpt lat="48.98982" lon="0.04604">
        <ele>143.83</ele>
        <time>2021-08-08T15:56:17Z</time>
      </trkpt>
      <trkpt lat="48.9898" lon="0.04606">
        <ele>144.12</ele>
        <time>2021-08-08T15:56:18Z</time>
      </trkpt>
      <trkpt lat="48.98978" lon="0.0461">
        <ele>144.61</ele>
        <time>2021-08-08T15:56:19Z</time>
      </trkpt>
      <trkpt lat="48.98977" lon="0.04613">
        <ele>145.03</ele>
        <time>2021-08-08T15:56:20Z</time>
      </trkpt>
      <trkpt lat="48.98976" lon="0.04616">
        <ele>145.36</ele>
        <time>2021-08-08T15:56:21Z</time>
      </trkpt>
      <trkpt lat="48.98975" lon="0.04617">
        <ele>145.59</ele>
        <time>2021-08-08T15:56:22Z</time>
      </trkpt>
      <trkpt lat="48.98973" lon="0.0462">
        <ele>145.88</ele>
        <time>2021-08-08T15:56:23Z</time>
      </trkpt>
      <trkpt lat="48.98972" lon="0.04623">
        <ele>146.14</ele>
        <time>2021-08-08T15:56:24Z</time>
      </trkpt>
      <trkpt lat="48.98971" lon="0.04624">
        <ele>146.3</ele>
        <time>2021-08-08T15:56:25Z</time>
      </trkpt>
      <trkpt lat="48.9897" lon="0.04626">
        <ele>146.49</ele>
        <time>2021-08-08T15:56:26Z</time>
      </trkpt>
      <trkpt lat="48.98969" lon="0.04627">
        <ele>146.69</ele>
        <time>2021-08-08T15:56:27Z</time>
      </trkpt>
      <trkpt lat="48.98967" lon="0.0463">
        <ele>146.9</ele>
        <time>2021-08-08T15:56:28Z</time>
      </trkpt>
      <trkpt lat="48.98966" lon="0.04633">
        <ele>147.2</ele>
        <time>2021-08-08T15:56:29Z</time>
      </trkpt>
      <trkpt lat="48.98964" lon="0.04635">
        <ele>147.48</ele>
        <time>2021-08-08T15:56:30Z</time>
      </trkpt>
      <trkpt lat="48.98962" lon="0.04637">
        <ele>147.71</ele>
        <time>2021-08-08T15:56:31Z</time>
      </trkpt>
      <trkpt lat="48.98961" lon="0.0464">
        <ele>148.04</ele>
        <time>2021-08-08T15:56:32Z</time>
      </trkpt>
      <trkpt lat="48.98959" lon="0.04642">
        <ele>148.37</ele>
        <time>2021-08-08T15:56:33Z</time>
      </trkpt>
      <trkpt lat="48.98957" lon="0.04645">
        <ele>148.8</ele>
        <time>2021-08-08T15:56:34Z</time>
      </trkpt>
      <trkpt lat="48.98955" lon="0.04649">
        <ele>149.3</ele>
        <time>2021-08-08T15:56:35Z</time>
      </trkpt>
      <trkpt lat="48.98954" lon="0.04651">
        <ele>149.71</ele>
        <time>2021-08-08T15:56:36Z</time>
      </trkpt>
      <trkpt lat="48.98952" lon="0.04653">
        <ele>150.09</ele>
        <time>2021-08-08T15:56:37Z</time>
      </trkpt>
      <trkpt lat="48.9895" lon="0.04656">
        <ele>150.42</ele>
        <time>2021-08-08T15:56:38Z</time>
      </trkpt>
      <trkpt lat="48.98948" lon="0.04658">
        <ele>150.7</ele>
        <time>2021-08-08T15:56:39Z</time>
      </trkpt>
      <trkpt lat="48.98947" lon="0.0466">
        <ele>151</ele>
        <time>2021-08-08T15:56:40Z</time>
      </trkpt>
      <trkpt lat="48.98945" lon="0.04662">
        <ele>151.26</ele>
        <time>2021-08-08T15:56:41Z</time>
      </trkpt>
      <trkpt lat="48.98943" lon="0.04664">
        <ele>151.4</ele>
        <time>2021-08-08T15:56:42Z</time>
      </trkpt>
      <trkpt lat="48.98942" lon="0.04666">
        <ele>151.44</ele>
        <time>2021-08-08T15:56:43Z</time>
      </trkpt>
      <trkpt lat="48.9894" lon="0.04667">
        <ele>151.53</ele>
        <time>2021-08-08T15:56:44Z</time>
      </trkpt>
      <trkpt lat="48.98939" lon="0.0467">
        <ele>151.69</ele>
        <time>2021-08-08T15:56:45Z</time>
      </trkpt>
      <trkpt lat="48.98937" lon="0.04672">
        <ele>151.85</ele>
        <time>2021-08-08T15:56:46Z</time>
      </trkpt>
      <trkpt lat="48.98935" lon="0.04673">
        <ele>151.76</ele>
        <time>2021-08-08T15:56:47Z</time>
      </trkpt>
      <trkpt lat="48.98933" lon="0.04674">
        <ele>151.72</ele>
        <time>2021-08-08T15:56:48Z</time>
      </trkpt>
      <trkpt lat="48.9893" lon="0.04675">
        <ele>151.62</ele>
        <time>2021-08-08T15:56:49Z</time>
      </trkpt>
      <trkpt lat="48.98928" lon="0.04677">
        <ele>151.73</ele>
        <time>2021-08-08T15:56:50Z</time>
      </trkpt>
      <trkpt lat="48.98925" lon="0.0468">
        <ele>151.9</ele>
        <time>2021-08-08T15:56:51Z</time>
      </trkpt>
      <trkpt lat="48.98923" lon="0.04682">
        <ele>152.05</ele>
        <time>2021-08-08T15:56:52Z</time>
      </trkpt>
      <trkpt lat="48.98921" lon="0.04684">
        <ele>152.19</ele>
        <time>2021-08-08T15:56:53Z</time>
      </trkpt>
      <trkpt lat="48.98919" lon="0.04688">
        <ele>152.71</ele>
        <time>2021-08-08T15:56:54Z</time>
      </trkpt>
      <trkpt lat="48.98917" lon="0.0469">
        <ele>153.01</ele>
        <time>2021-08-08T15:56:55Z</time>
      </trkpt>
      <trkpt lat="48.98915" lon="0.04692">
        <ele>153.14</ele>
        <time>2021-08-08T15:56:56Z</time>
      </trkpt>
      <trkpt lat="48.98912" lon="0.04692">
        <ele>153.06</ele>
        <time>2021-08-08T15:56:57Z</time>
      </trkpt>
      <trkpt lat="48.9891" lon="0.04694">
        <ele>153.16</ele>
        <time>2021-08-08T15:56:58Z</time>
      </trkpt>
      <trkpt lat="48.98908" lon="0.04696">
        <ele>153.28</ele>
        <time>2021-08-08T15:56:59Z</time>
      </trkpt>
      <trkpt lat="48.98906" lon="0.04698">
        <ele>153.45</ele>
        <time>2021-08-08T15:57:00Z</time>
      </trkpt>
      <trkpt lat="48.98904" lon="0.04699">
        <ele>153.62</ele>
        <time>2021-08-08T15:57:01Z</time>
      </trkpt>
      <trkpt lat="48.98902" lon="0.04701">
        <ele>153.74</ele>
        <time>2021-08-08T15:57:02Z</time>
      </trkpt>
      <trkpt lat="48.989" lon="0.04702">
        <ele>153.75</ele>
        <time>2021-08-08T15:57:03Z</time>
      </trkpt>
      <trkpt lat="48.98898" lon="0.04703">
        <ele>153.86</ele>
        <time>2021-08-08T15:57:04Z</time>
      </trkpt>
      <trkpt lat="48.98896" lon="0.04702">
        <ele>153.59</ele>
        <time>2021-08-08T15:57:05Z</time>
      </trkpt>
      <trkpt lat="48.98893" lon="0.04703">
        <ele>153.42</ele>
        <time>2021-08-08T15:57:06Z</time>
      </trkpt>
      <trkpt lat="48.98891" lon="0.04705">
        <ele>153.47</ele>
        <time>2021-08-08T15:57:07Z</time>
      </trkpt>
      <trkpt lat="48.98889" lon="0.04707">
        <ele>153.56</ele>
        <time>2021-08-08T15:57:08Z</time>
      </trkpt>
      <trkpt lat="48.98886" lon="0.04709">
        <ele>153.85</ele>
        <time>2021-08-08T15:57:09Z</time>
      </trkpt>
      <trkpt lat="48.98882" lon="0.04713">
        <ele>154.2</ele>
        <time>2021-08-08T15:57:10Z</time>
      </trkpt>
      <trkpt lat="48.98879" lon="0.04715">
        <ele>154.41</ele>
        <time>2021-08-08T15:57:11Z</time>
      </trkpt>
      <trkpt lat="48.98876" lon="0.04718">
        <ele>154.89</ele>
        <time>2021-08-08T15:57:12Z</time>
      </trkpt>
      <trkpt lat="48.98874" lon="0.0472">
        <ele>155.3</ele>
        <time>2021-08-08T15:57:13Z</time>
      </trkpt>
      <trkpt lat="48.98872" lon="0.04721">
        <ele>155.42</ele>
        <time>2021-08-08T15:57:14Z</time>
      </trkpt>
      <trkpt lat="48.9887" lon="0.04721">
        <ele>155.41</ele>
        <time>2021-08-08T15:57:15Z</time>
      </trkpt>
      <trkpt lat="48.98868" lon="0.04723">
        <ele>155.67</ele>
        <time>2021-08-08T15:57:16Z</time>
      </trkpt>
      <trkpt lat="48.98865" lon="0.04725">
        <ele>155.98</ele>
        <time>2021-08-08T15:57:17Z</time>
      </trkpt>
      <trkpt lat="48.98863" lon="0.04726">
        <ele>156.13</ele>
        <time>2021-08-08T15:57:18Z</time>
      </trkpt>
      <trkpt lat="48.98861" lon="0.04727">
        <ele>156.29</ele>
        <time>2021-08-08T15:57:19Z</time>
      </trkpt>
      <trkpt lat="48.98859" lon="0.04728">
        <ele>156.59</ele>
        <time>2021-08-08T15:57:20Z</time>
      </trkpt>
      <trkpt lat="48.98856" lon="0.0473">
        <ele>156.94</ele>
        <time>2021-08-08T15:57:21Z</time>
      </trkpt>
      <trkpt lat="48.98853" lon="0.04732">
        <ele>157.33</ele>
        <time>2021-08-08T15:57:22Z</time>
      </trkpt>
      <trkpt lat="48.98851" lon="0.04733">
        <ele>157.59</ele>
        <time>2021-08-08T15:57:23Z</time>
      </trkpt>
      <trkpt lat="48.9885" lon="0.04733">
        <ele>157.7</ele>
        <time>2021-08-08T15:57:24Z</time>
      </trkpt>
      <trkpt lat="48.98848" lon="0.04733">
        <ele>157.73</ele>
        <time>2021-08-08T15:57:25Z</time>
      </trkpt>
      <trkpt lat="48.98846" lon="0.04735">
        <ele>158.05</ele>
        <time>2021-08-08T15:57:26Z</time>
      </trkpt>
      <trkpt lat="48.98845" lon="0.04737">
        <ele>158.42</ele>
        <time>2021-08-08T15:57:27Z</time>
      </trkpt>
      <trkpt lat="48.98842" lon="0.04739">
        <ele>158.96</ele>
        <time>2021-08-08T15:57:28Z</time>
      </trkpt>
      <trkpt lat="48.9884" lon="0.04741">
        <ele>159.47</ele>
        <time>2021-08-08T15:57:29Z</time>
      </trkpt>
      <trkpt lat="48.98838" lon="0.04743">
        <ele>159.97</ele>
        <time>2021-08-08T15:57:30Z</time>
      </trkpt>
      <trkpt lat="48.98835" lon="0.04746">
        <ele>160.63</ele>
        <time>2021-08-08T15:57:31Z</time>
      </trkpt>
      <trkpt lat="48.98833" lon="0.04747">
        <ele>161.04</ele>
        <time>2021-08-08T15:57:32Z</time>
      </trkpt>
      <trkpt lat="48.98831" lon="0.04749">
        <ele>161.39</ele>
        <time>2021-08-08T15:57:33Z</time>
      </trkpt>
      <trkpt lat="48.98829" lon="0.04751">
        <ele>161.77</ele>
        <time>2021-08-08T15:57:34Z</time>
      </trkpt>
      <trkpt lat="48.98826" lon="0.04752">
        <ele>162.01</ele>
        <time>2021-08-08T15:57:35Z</time>
      </trkpt>
      <trkpt lat="48.98824" lon="0.04754">
        <ele>162.27</ele>
        <time>2021-08-08T15:57:36Z</time>
      </trkpt>
      <trkpt lat="48.98822" lon="0.04757">
        <ele>162.61</ele>
        <time>2021-08-08T15:57:37Z</time>
      </trkpt>
      <trkpt lat="48.98819" lon="0.04759">
        <ele>162.95</ele>
        <time>2021-08-08T15:57:38Z</time>
      </trkpt>
      <trkpt lat="48.98817" lon="0.04761">
        <ele>163.24</ele>
        <time>2021-08-08T15:57:39Z</time>
      </trkpt>
      <trkpt lat="48.98814" lon="0.04762">
        <ele>163.41</ele>
        <time>2021-08-08T15:57:40Z</time>
      </trkpt>
      <trkpt lat="48.98812" lon="0.04764">
        <ele>163.69</ele>
        <time>2021-08-08T15:57:41Z</time>
      </trkpt>
      <trkpt lat="48.9881" lon="0.04766">
        <ele>163.97</ele>
        <time>2021-08-08T15:57:42Z</time>
      </trkpt>
      <trkpt lat="48.98806" lon="0.0477">
        <ele>164.37</ele>
        <time>2021-08-08T15:57:43Z</time>
      </trkpt>
      <trkpt lat="48.98804" lon="0.04771">
        <ele>164.69</ele>
        <time>2021-08-08T15:57:44Z</time>
      </trkpt>
      <trkpt lat="48.98801" lon="0.04772">
        <ele>164.92</ele>
        <time>2021-08-08T15:57:45Z</time>
      </trkpt>
      <trkpt lat="48.98799" lon="0.04775">
        <ele>165.29</ele>
        <time>2021-08-08T15:57:46Z</time>
      </trkpt>
      <trkpt lat="48.98796" lon="0.04777">
        <ele>165.68</ele>
        <time>2021-08-08T15:57:47Z</time>
      </trkpt>
      <trkpt lat="48.98794" lon="0.04778">
        <ele>165.94</ele>
        <time>2021-08-08T15:57:48Z</time>
      </trkpt>
      <trkpt lat="48.98791" lon="0.0478">
        <ele>166.11</ele>
        <time>2021-08-08T15:57:49Z</time>
      </trkpt>
      <trkpt lat="48.98789" lon="0.04782">
        <ele>166.25</ele>
        <time>2021-08-08T15:57:50Z</time>
      </trkpt>
      <trkpt lat="48.98785" lon="0.04784">
        <ele>166.39</ele>
        <time>2021-08-08T15:57:51Z</time>
      </trkpt>
      <trkpt lat="48.98782" lon="0.04786">
        <ele>166.51</ele>
        <time>2021-08-08T15:57:52Z</time>
      </trkpt>
      <trkpt lat="48.9878" lon="0.04788">
        <ele>166.65</ele>
        <time>2021-08-08T15:57:53Z</time>
      </trkpt>
      <trkpt lat="48.98778" lon="0.04789">
        <ele>166.75</ele>
        <time>2021-08-08T15:57:54Z</time>
      </trkpt>
      <trkpt lat="48.98776" lon="0.04791">
        <ele>166.88</ele>
        <time>2021-08-08T15:57:55Z</time>
      </trkpt>
      <trkpt lat="48.98774" lon="0.04794">
        <ele>167.07</ele>
        <time>2021-08-08T15:57:56Z</time>
      </trkpt>
      <trkpt lat="48.98772" lon="0.04797">
        <ele>167.32</ele>
        <time>2021-08-08T15:57:57Z</time>
      </trkpt>
      <trkpt lat="48.9877" lon="0.048">
        <ele>167.53</ele>
        <time>2021-08-08T15:57:58Z</time>
      </trkpt>
      <trkpt lat="48.98768" lon="0.04803">
        <ele>167.72</ele>
        <time>2021-08-08T15:57:59Z</time>
      </trkpt>
      <trkpt lat="48.98766" lon="0.04805">
        <ele>167.91</ele>
        <time>2021-08-08T15:58:00Z</time>
      </trkpt>
      <trkpt lat="48.98763" lon="0.0481">
        <ele>168.17</ele>
        <time>2021-08-08T15:58:01Z</time>
      </trkpt>
      <trkpt lat="48.98763" lon="0.04811">
        <ele>168.34</ele>
        <time>2021-08-08T15:58:02Z</time>
      </trkpt>
      <trkpt lat="48.98761" lon="0.04815">
        <ele>168.59</ele>
        <time>2021-08-08T15:58:03Z</time>
      </trkpt>
      <trkpt lat="48.98761" lon="0.04818">
        <ele>168.79</ele>
        <time>2021-08-08T15:58:04Z</time>
      </trkpt>
      <trkpt lat="48.98761" lon="0.04821">
        <ele>169</ele>
        <time>2021-08-08T15:58:05Z</time>
      </trkpt>
      <trkpt lat="48.98761" lon="0.04825">
        <ele>169.27</ele>
        <time>2021-08-08T15:58:06Z</time>
      </trkpt>
      <trkpt lat="48.98762" lon="0.04828">
        <ele>169.5</ele>
        <time>2021-08-08T15:58:07Z</time>
      </trkpt>
      <trkpt lat="48.98762" lon="0.04831">
        <ele>169.73</ele>
        <time>2021-08-08T15:58:08Z</time>
      </trkpt>
      <trkpt lat="48.98762" lon="0.04834">
        <ele>169.97</ele>
        <time>2021-08-08T15:58:09Z</time>
      </trkpt>
      <trkpt lat="48.98762" lon="0.04838">
        <ele>170.23</ele>
        <time>2021-08-08T15:58:10Z</time>
      </trkpt>
      <trkpt lat="48.98762" lon="0.04842">
        <ele>170.52</ele>
        <time>2021-08-08T15:58:11Z</time>
      </trkpt>
      <trkpt lat="48.98762" lon="0.04847">
        <ele>170.82</ele>
        <time>2021-08-08T15:58:12Z</time>
      </trkpt>
      <trkpt lat="48.98764" lon="0.04851">
        <ele>171.15</ele>
        <time>2021-08-08T15:58:13Z</time>
      </trkpt>
      <trkpt lat="48.98764" lon="0.04856">
        <ele>171.48</ele>
        <time>2021-08-08T15:58:14Z</time>
      </trkpt>
      <trkpt lat="48.98763" lon="0.0486">
        <ele>171.8</ele>
        <time>2021-08-08T15:58:15Z</time>
      </trkpt>
      <trkpt lat="48.98762" lon="0.04864">
        <ele>172.02</ele>
        <time>2021-08-08T15:58:16Z</time>
      </trkpt>
      <trkpt lat="48.98763" lon="0.04867">
        <ele>172.16</ele>
        <time>2021-08-08T15:58:17Z</time>
      </trkpt>
      <trkpt lat="48.98762" lon="0.0487">
        <ele>172.28</ele>
        <time>2021-08-08T15:58:18Z</time>
      </trkpt>
      <trkpt lat="48.98762" lon="0.04873">
        <ele>172.39</ele>
        <time>2021-08-08T15:58:19Z</time>
      </trkpt>
      <trkpt lat="48.98762" lon="0.04876">
        <ele>172.48</ele>
        <time>2021-08-08T15:58:20Z</time>
      </trkpt>
      <trkpt lat="48.98762" lon="0.04879">
        <ele>172.59</ele>
        <time>2021-08-08T15:58:21Z</time>
      </trkpt>
      <trkpt lat="48.98764" lon="0.04882">
        <ele>172.69</ele>
        <time>2021-08-08T15:58:22Z</time>
      </trkpt>
      <trkpt lat="48.98765" lon="0.04884">
        <ele>172.78</ele>
        <time>2021-08-08T15:58:23Z</time>
      </trkpt>
      <trkpt lat="48.98767" lon="0.04886">
        <ele>172.86</ele>
        <time>2021-08-08T15:58:24Z</time>
      </trkpt>
      <trkpt lat="48.98768" lon="0.04889">
        <ele>172.96</ele>
        <time>2021-08-08T15:58:25Z</time>
      </trkpt>
      <trkpt lat="48.98769" lon="0.04892">
        <ele>173.07</ele>
        <time>2021-08-08T15:58:26Z</time>
      </trkpt>
      <trkpt lat="48.98771" lon="0.04894">
        <ele>173.14</ele>
        <time>2021-08-08T15:58:27Z</time>
      </trkpt>
      <trkpt lat="48.98772" lon="0.04896">
        <ele>173.23</ele>
        <time>2021-08-08T15:58:28Z</time>
      </trkpt>
      <trkpt lat="48.98774" lon="0.049">
        <ele>173.34</ele>
        <time>2021-08-08T15:58:29Z</time>
      </trkpt>
      <trkpt lat="48.98775" lon="0.04904">
        <ele>173.48</ele>
        <time>2021-08-08T15:58:30Z</time>
      </trkpt>
      <trkpt lat="48.98777" lon="0.04908">
        <ele>173.63</ele>
        <time>2021-08-08T15:58:31Z</time>
      </trkpt>
      <trkpt lat="48.9878" lon="0.04914">
        <ele>173.83</ele>
        <time>2021-08-08T15:58:32Z</time>
      </trkpt>
      <trkpt lat="48.98782" lon="0.04919">
        <ele>174.01</ele>
        <time>2021-08-08T15:58:33Z</time>
      </trkpt>
      <trkpt lat="48.98784" lon="0.04923">
        <ele>174.17</ele>
        <time>2021-08-08T15:58:34Z</time>
      </trkpt>
      <trkpt lat="48.98786" lon="0.04929">
        <ele>174.36</ele>
        <time>2021-08-08T15:58:35Z</time>
      </trkpt>
      <trkpt lat="48.98789" lon="0.04933">
        <ele>174.52</ele>
        <time>2021-08-08T15:58:36Z</time>
      </trkpt>
      <trkpt lat="48.98791" lon="0.04937">
        <ele>174.67</ele>
        <time>2021-08-08T15:58:37Z</time>
      </trkpt>
      <trkpt lat="48.98794" lon="0.04939">
        <ele>174.77</ele>
        <time>2021-08-08T15:58:38Z</time>
      </trkpt>
      <trkpt lat="48.98795" lon="0.04942">
        <ele>174.86</ele>
        <time>2021-08-08T15:58:39Z</time>
      </trkpt>
      <trkpt lat="48.98798" lon="0.04943">
        <ele>174.92</ele>
        <time>2021-08-08T15:58:40Z</time>
      </trkpt>
      <trkpt lat="48.98801" lon="0.04946">
        <ele>175.02</ele>
        <time>2021-08-08T15:58:41Z</time>
      </trkpt>
      <trkpt lat="48.98804" lon="0.04948">
        <ele>175.1</ele>
        <time>2021-08-08T15:58:42Z</time>
      </trkpt>
      <trkpt lat="48.98807" lon="0.04951">
        <ele>175.2</ele>
        <time>2021-08-08T15:58:43Z</time>
      </trkpt>
      <trkpt lat="48.98807" lon="0.04961">
        <ele>175.63</ele>
        <time>2021-08-08T16:02:40Z</time>
      </trkpt>
      <trkpt lat="48.98803" lon="0.04959">
        <ele>175.57</ele>
        <time>2021-08-08T16:02:41Z</time>
      </trkpt>
      <trkpt lat="48.98798" lon="0.04959">
        <ele>175.55</ele>
        <time>2021-08-08T16:02:42Z</time>
      </trkpt>
      <trkpt lat="48.98795" lon="0.0496">
        <ele>175.57</ele>
        <time>2021-08-08T16:02:43Z</time>
      </trkpt>
      <trkpt lat="48.98793" lon="0.04963">
        <ele>175.65</ele>
        <time>2021-08-08T16:02:44Z</time>
      </trkpt>
      <trkpt lat="48.9879" lon="0.04968">
        <ele>175.78</ele>
        <time>2021-08-08T16:02:45Z</time>
      </trkpt>
      <trkpt lat="48.98787" lon="0.04974">
        <ele>175.91</ele>
        <time>2021-08-08T16:02:46Z</time>
      </trkpt>
      <trkpt lat="48.98784" lon="0.0498">
        <ele>175.82</ele>
        <time>2021-08-08T16:02:47Z</time>
      </trkpt>
      <trkpt lat="48.98781" lon="0.04986">
        <ele>175.64</ele>
        <time>2021-08-08T16:02:48Z</time>
      </trkpt>
      <trkpt lat="48.98778" lon="0.04992">
        <ele>175.41</ele>
        <time>2021-08-08T16:02:49Z</time>
      </trkpt>
      <trkpt lat="48.98776" lon="0.04997">
        <ele>175.2</ele>
        <time>2021-08-08T16:02:50Z</time>
      </trkpt>
      <trkpt lat="48.98772" lon="0.05002">
        <ele>175.06</ele>
        <time>2021-08-08T16:02:51Z</time>
      </trkpt>
      <trkpt lat="48.98769" lon="0.05007">
        <ele>175.02</ele>
        <time>2021-08-08T16:02:52Z</time>
      </trkpt>
      <trkpt lat="48.98765" lon="0.05011">
        <ele>175.01</ele>
        <time>2021-08-08T16:02:53Z</time>
      </trkpt>
      <trkpt lat="48.98762" lon="0.05017">
        <ele>175</ele>
        <time>2021-08-08T16:02:54Z</time>
      </trkpt>
      <trkpt lat="48.98759" lon="0.05022">
        <ele>175</ele>
        <time>2021-08-08T16:02:55Z</time>
      </trkpt>
      <trkpt lat="48.98757" lon="0.05026">
        <ele>175</ele>
        <time>2021-08-08T16:02:56Z</time>
      </trkpt>
      <trkpt lat="48.98754" lon="0.05031">
        <ele>175</ele>
        <time>2021-08-08T16:02:57Z</time>
      </trkpt>
      <trkpt lat="48.9875" lon="0.05035">
        <ele>175</ele>
        <time>2021-08-08T16:02:58Z</time>
      </trkpt>
      <trkpt lat="48.98747" lon="0.05038">
        <ele>175</ele>
        <time>2021-08-08T16:02:59Z</time>
      </trkpt>
      <trkpt lat="48.98744" lon="0.05041">
        <ele>175</ele>
        <time>2021-08-08T16:03:00Z</time>
      </trkpt>
      <trkpt lat="48.98739" lon="0.05044">
        <ele>175</ele>
        <time>2021-08-08T16:03:01Z</time>
      </trkpt>
      <trkpt lat="48.98735" lon="0.05047">
        <ele>175</ele>
        <time>2021-08-08T16:03:02Z</time>
      </trkpt>
      <trkpt lat="48.98731" lon="0.05049">
        <ele>175</ele>
        <time>2021-08-08T16:03:03Z</time>
      </trkpt>
      <trkpt lat="48.98727" lon="0.05051">
        <ele>175</ele>
        <time>2021-08-08T16:03:04Z</time>
      </trkpt>
      <trkpt lat="48.98723" lon="0.05053">
        <ele>175</ele>
        <time>2021-08-08T16:03:05Z</time>
      </trkpt>
      <trkpt lat="48.98718" lon="0.05055">
        <ele>174.9</ele>
        <time>2021-08-08T16:03:06Z</time>
      </trkpt>
      <trkpt lat="48.98713" lon="0.05057">
        <ele>174.72</ele>
        <time>2021-08-08T16:03:07Z</time>
      </trkpt>
      <trkpt lat="48.98709" lon="0.0506">
        <ele>174.51</ele>
        <time>2021-08-08T16:03:08Z</time>
      </trkpt>
      <trkpt lat="48.98703" lon="0.05064">
        <ele>174.31</ele>
        <time>2021-08-08T16:03:09Z</time>
      </trkpt>
      <trkpt lat="48.98699" lon="0.05067">
        <ele>174.16</ele>
        <time>2021-08-08T16:03:10Z</time>
      </trkpt>
      <trkpt lat="48.98693" lon="0.05069">
        <ele>174.06</ele>
        <time>2021-08-08T16:03:11Z</time>
      </trkpt>
      <trkpt lat="48.98688" lon="0.0507">
        <ele>174.1</ele>
        <time>2021-08-08T16:03:12Z</time>
      </trkpt>
      <trkpt lat="48.98684" lon="0.05071">
        <ele>174.15</ele>
        <time>2021-08-08T16:03:13Z</time>
      </trkpt>
      <trkpt lat="48.98679" lon="0.05072">
        <ele>174.2</ele>
        <time>2021-08-08T16:03:14Z</time>
      </trkpt>
      <trkpt lat="48.98676" lon="0.05072">
        <ele>174.25</ele>
        <time>2021-08-08T16:03:15Z</time>
      </trkpt>
      <trkpt lat="48.98672" lon="0.05073">
        <ele>174.29</ele>
        <time>2021-08-08T16:03:16Z</time>
      </trkpt>
      <trkpt lat="48.98669" lon="0.05073">
        <ele>174.33</ele>
        <time>2021-08-08T16:03:17Z</time>
      </trkpt>
      <trkpt lat="48.98665" lon="0.05074">
        <ele>174.37</ele>
        <time>2021-08-08T16:03:18Z</time>
      </trkpt>
      <trkpt lat="48.98661" lon="0.05074">
        <ele>174.43</ele>
        <time>2021-08-08T16:03:19Z</time>
      </trkpt>
      <trkpt lat="48.98656" lon="0.05076">
        <ele>174.52</ele>
        <time>2021-08-08T16:03:20Z</time>
      </trkpt>
      <trkpt lat="48.98651" lon="0.05077">
        <ele>174.62</ele>
        <time>2021-08-08T16:03:21Z</time>
      </trkpt>
      <trkpt lat="48.98646" lon="0.05077">
        <ele>174.75</ele>
        <time>2021-08-08T16:03:22Z</time>
      </trkpt>
      <trkpt lat="48.98641" lon="0.05077">
        <ele>174.89</ele>
        <time>2021-08-08T16:03:23Z</time>
      </trkpt>
      <trkpt lat="48.98635" lon="0.05076">
        <ele>174.97</ele>
        <time>2021-08-08T16:03:24Z</time>
      </trkpt>
      <trkpt lat="48.9863" lon="0.05075">
        <ele>174.99</ele>
        <time>2021-08-08T16:03:25Z</time>
      </trkpt>
      <trkpt lat="48.98624" lon="0.05074">
        <ele>175</ele>
        <time>2021-08-08T16:03:26Z</time>
      </trkpt>
      <trkpt lat="48.98619" lon="0.05073">
        <ele>175</ele>
        <time>2021-08-08T16:03:27Z</time>
      </trkpt>
      <trkpt lat="48.98613" lon="0.05072">
        <ele>175</ele>
        <time>2021-08-08T16:03:28Z</time>
      </trkpt>
      <trkpt lat="48.98608" lon="0.05071">
        <ele>175</ele>
        <time>2021-08-08T16:03:29Z</time>
      </trkpt>
      <trkpt lat="48.98603" lon="0.05069">
        <ele>175</ele>
        <time>2021-08-08T16:03:30Z</time>
      </trkpt>
      <trkpt lat="48.98598" lon="0.05067">
        <ele>175</ele>
        <time>2021-08-08T16:03:31Z</time>
      </trkpt>
      <trkpt lat="48.98591" lon="0.05067">
        <ele>175</ele>
        <time>2021-08-08T16:03:32Z</time>
      </trkpt>
      <trkpt lat="48.98585" lon="0.05068">
        <ele>175</ele>
        <time>2021-08-08T16:03:33Z</time>
      </trkpt>
      <trkpt lat="48.98581" lon="0.05068">
        <ele>175.07</ele>
        <time>2021-08-08T16:03:34Z</time>
      </trkpt>
      <trkpt lat="48.98576" lon="0.05067">
        <ele>175.2</ele>
        <time>2021-08-08T16:03:35Z</time>
      </trkpt>
      <trkpt lat="48.98572" lon="0.05067">
        <ele>175.35</ele>
        <time>2021-08-08T16:03:36Z</time>
      </trkpt>
      <trkpt lat="48.98568" lon="0.05068">
        <ele>175.5</ele>
        <time>2021-08-08T16:03:37Z</time>
      </trkpt>
      <trkpt lat="48.98562" lon="0.05069">
        <ele>175.68</ele>
        <time>2021-08-08T16:03:38Z</time>
      </trkpt>
      <trkpt lat="48.98558" lon="0.05069">
        <ele>175.85</ele>
        <time>2021-08-08T16:03:39Z</time>
      </trkpt>
      <trkpt lat="48.98551" lon="0.05069">
        <ele>175.96</ele>
        <time>2021-08-08T16:03:40Z</time>
      </trkpt>
      <trkpt lat="48.98545" lon="0.0507">
        <ele>175.99</ele>
        <time>2021-08-08T16:03:41Z</time>
      </trkpt>
      <trkpt lat="48.98539" lon="0.05071">
        <ele>176</ele>
        <time>2021-08-08T16:03:42Z</time>
      </trkpt>
      <trkpt lat="48.98532" lon="0.05071">
        <ele>176</ele>
        <time>2021-08-08T16:03:43Z</time>
      </trkpt>
      <trkpt lat="48.98525" lon="0.05072">
        <ele>175.93</ele>
        <time>2021-08-08T16:03:44Z</time>
      </trkpt>
      <trkpt lat="48.98518" lon="0.05073">
        <ele>175.73</ele>
        <time>2021-08-08T16:03:45Z</time>
      </trkpt>
      <trkpt lat="48.98511" lon="0.05073">
        <ele>175.49</ele>
        <time>2021-08-08T16:03:46Z</time>
      </trkpt>
      <trkpt lat="48.98504" lon="0.05073">
        <ele>175.25</ele>
        <time>2021-08-08T16:03:47Z</time>
      </trkpt>
      <trkpt lat="48.98496" lon="0.05072">
        <ele>175.08</ele>
        <time>2021-08-08T16:03:48Z</time>
      </trkpt>
      <trkpt lat="48.98487" lon="0.05071">
        <ele>175.02</ele>
        <time>2021-08-08T16:03:49Z</time>
      </trkpt>
      <trkpt lat="48.98481" lon="0.05071">
        <ele>175.01</ele>
        <time>2021-08-08T16:03:50Z</time>
      </trkpt>
      <trkpt lat="48.98476" lon="0.0507">
        <ele>175</ele>
        <time>2021-08-08T16:03:51Z</time>
      </trkpt>
      <trkpt lat="48.98472" lon="0.0507">
        <ele>175</ele>
        <time>2021-08-08T16:03:52Z</time>
      </trkpt>
      <trkpt lat="48.98467" lon="0.05069">
        <ele>175</ele>
        <time>2021-08-08T16:03:53Z</time>
      </trkpt>
      <trkpt lat="48.98461" lon="0.05069">
        <ele>175</ele>
        <time>2021-08-08T16:03:54Z</time>
      </trkpt>
      <trkpt lat="48.98454" lon="0.05067">
        <ele>175</ele>
        <time>2021-08-08T16:03:55Z</time>
      </trkpt>
      <trkpt lat="48.98448" lon="0.05065">
        <ele>175</ele>
        <time>2021-08-08T16:03:56Z</time>
      </trkpt>
      <trkpt lat="48.98442" lon="0.05063">
        <ele>174.98</ele>
        <time>2021-08-08T16:03:57Z</time>
      </trkpt>
      <trkpt lat="48.98435" lon="0.0506">
        <ele>174.95</ele>
        <time>2021-08-08T16:03:58Z</time>
      </trkpt>
      <trkpt lat="48.98429" lon="0.05059">
        <ele>174.93</ele>
        <time>2021-08-08T16:03:59Z</time>
      </trkpt>
      <trkpt lat="48.98424" lon="0.05057">
        <ele>174.94</ele>
        <time>2021-08-08T16:04:00Z</time>
      </trkpt>
      <trkpt lat="48.98418" lon="0.05056">
        <ele>174.97</ele>
        <time>2021-08-08T16:04:01Z</time>
      </trkpt>
      <trkpt lat="48.98411" lon="0.05054">
        <ele>174.84</ele>
        <time>2021-08-08T16:04:02Z</time>
      </trkpt>
      <trkpt lat="48.98404" lon="0.05053">
        <ele>174.64</ele>
        <time>2021-08-08T16:04:03Z</time>
      </trkpt>
      <trkpt lat="48.98397" lon="0.05051">
        <ele>174.39</ele>
        <time>2021-08-08T16:04:04Z</time>
      </trkpt>
      <trkpt lat="48.98388" lon="0.05049">
        <ele>174.12</ele>
        <time>2021-08-08T16:04:05Z</time>
      </trkpt>
      <trkpt lat="48.98381" lon="0.05048">
        <ele>174.03</ele>
        <time>2021-08-08T16:04:06Z</time>
      </trkpt>
      <trkpt lat="48.98375" lon="0.05049">
        <ele>174.01</ele>
        <time>2021-08-08T16:04:07Z</time>
      </trkpt>
      <trkpt lat="48.98367" lon="0.0505">
        <ele>174</ele>
        <time>2021-08-08T16:04:08Z</time>
      </trkpt>
      <trkpt lat="48.98359" lon="0.05052">
        <ele>173.94</ele>
        <time>2021-08-08T16:04:09Z</time>
      </trkpt>
      <trkpt lat="48.98351" lon="0.05053">
        <ele>173.74</ele>
        <time>2021-08-08T16:04:10Z</time>
      </trkpt>
      <trkpt lat="48.98344" lon="0.05053">
        <ele>173.49</ele>
        <time>2021-08-08T16:04:11Z</time>
      </trkpt>
      <trkpt lat="48.98337" lon="0.05051">
        <ele>173.25</ele>
        <time>2021-08-08T16:04:12Z</time>
      </trkpt>
      <trkpt lat="48.98332" lon="0.05051">
        <ele>173.07</ele>
        <time>2021-08-08T16:04:13Z</time>
      </trkpt>
      <trkpt lat="48.98326" lon="0.05048">
        <ele>173.02</ele>
        <time>2021-08-08T16:04:14Z</time>
      </trkpt>
      <trkpt lat="48.98319" lon="0.05046">
        <ele>173.01</ele>
        <time>2021-08-08T16:04:15Z</time>
      </trkpt>
      <trkpt lat="48.98312" lon="0.05044">
        <ele>173</ele>
        <time>2021-08-08T16:04:16Z</time>
      </trkpt>
      <trkpt lat="48.98307" lon="0.05041">
        <ele>173</ele>
        <time>2021-08-08T16:04:17Z</time>
      </trkpt>
      <trkpt lat="48.98301" lon="0.0504">
        <ele>172.89</ele>
        <time>2021-08-08T16:04:18Z</time>
      </trkpt>
      <trkpt lat="48.98296" lon="0.05038">
        <ele>172.73</ele>
        <time>2021-08-08T16:04:19Z</time>
      </trkpt>
      <trkpt lat="48.9829" lon="0.05037">
        <ele>172.53</ele>
        <time>2021-08-08T16:04:20Z</time>
      </trkpt>
      <trkpt lat="48.98283" lon="0.05036">
        <ele>172.3</ele>
        <time>2021-08-08T16:04:21Z</time>
      </trkpt>
      <trkpt lat="48.98276" lon="0.05036">
        <ele>172.04</ele>
        <time>2021-08-08T16:04:22Z</time>
      </trkpt>
      <trkpt lat="48.98269" lon="0.05035">
        <ele>171.78</ele>
        <time>2021-08-08T16:04:23Z</time>
      </trkpt>
      <trkpt lat="48.98262" lon="0.05035">
        <ele>171.53</ele>
        <time>2021-08-08T16:04:24Z</time>
      </trkpt>
      <trkpt lat="48.98256" lon="0.05037">
        <ele>171.3</ele>
        <time>2021-08-08T16:04:25Z</time>
      </trkpt>
      <trkpt lat="48.98251" lon="0.05039">
        <ele>171.12</ele>
        <time>2021-08-08T16:04:26Z</time>
      </trkpt>
      <trkpt lat="48.98248" lon="0.0504">
        <ele>171.01</ele>
        <time>2021-08-08T16:04:27Z</time>
      </trkpt>
      <trkpt lat="48.98246" lon="0.05039">
        <ele>170.93</ele>
        <time>2021-08-08T16:04:51Z</time>
      </trkpt>
      <trkpt lat="48.98245" lon="0.05035">
        <ele>170.88</ele>
        <time>2021-08-08T16:04:52Z</time>
      </trkpt>
      <trkpt lat="48.98245" lon="0.05031">
        <ele>170.84</ele>
        <time>2021-08-08T16:04:53Z</time>
      </trkpt>
      <trkpt lat="48.98245" lon="0.05027">
        <ele>170.78</ele>
        <time>2021-08-08T16:04:54Z</time>
      </trkpt>
      <trkpt lat="48.98244" lon="0.05022">
        <ele>170.64</ele>
        <time>2021-08-08T16:04:55Z</time>
      </trkpt>
      <trkpt lat="48.98244" lon="0.05017">
        <ele>170.46</ele>
        <time>2021-08-08T16:04:56Z</time>
      </trkpt>
      <trkpt lat="48.98242" lon="0.05012">
        <ele>170.24</ele>
        <time>2021-08-08T16:04:57Z</time>
      </trkpt>
      <trkpt lat="48.98241" lon="0.05007">
        <ele>170</ele>
        <time>2021-08-08T16:04:58Z</time>
      </trkpt>
      <trkpt lat="48.98238" lon="0.05001">
        <ele>169.73</ele>
        <time>2021-08-08T16:04:59Z</time>
      </trkpt>
      <trkpt lat="48.98235" lon="0.04995">
        <ele>169.07</ele>
        <time>2021-08-08T16:05:00Z</time>
      </trkpt>
      <trkpt lat="48.98231" lon="0.04989">
        <ele>168.04</ele>
        <time>2021-08-08T16:05:01Z</time>
      </trkpt>
      <trkpt lat="48.98226" lon="0.04982">
        <ele>166.7</ele>
        <time>2021-08-08T16:05:02Z</time>
      </trkpt>
      <trkpt lat="48.98222" lon="0.04977">
        <ele>165.35</ele>
        <time>2021-08-08T16:05:03Z</time>
      </trkpt>
      <trkpt lat="48.98217" lon="0.04971">
        <ele>164.06</ele>
        <time>2021-08-08T16:05:04Z</time>
      </trkpt>
      <trkpt lat="48.98211" lon="0.04965">
        <ele>162.62</ele>
        <time>2021-08-08T16:05:05Z</time>
      </trkpt>
      <trkpt lat="48.98204" lon="0.04961">
        <ele>161.27</ele>
        <time>2021-08-08T16:05:06Z</time>
      </trkpt>
      <trkpt lat="48.98195" lon="0.04957">
        <ele>159.89</ele>
        <time>2021-08-08T16:05:07Z</time>
      </trkpt>
      <trkpt lat="48.98186" lon="0.04953">
        <ele>158.63</ele>
        <time>2021-08-08T16:05:08Z</time>
      </trkpt>
      <trkpt lat="48.98177" lon="0.04951">
        <ele>157.49</ele>
        <time>2021-08-08T16:05:09Z</time>
      </trkpt>
      <trkpt lat="48.98169" lon="0.04948">
        <ele>156.36</ele>
        <time>2021-08-08T16:05:10Z</time>
      </trkpt>
      <trkpt lat="48.9816" lon="0.04946">
        <ele>155.31</ele>
        <time>2021-08-08T16:05:11Z</time>
      </trkpt>
      <trkpt lat="48.98152" lon="0.04944">
        <ele>154.25</ele>
        <time>2021-08-08T16:05:12Z</time>
      </trkpt>
      <trkpt lat="48.98144" lon="0.0494">
        <ele>153.03</ele>
        <time>2021-08-08T16:05:13Z</time>
      </trkpt>
      <trkpt lat="48.98137" lon="0.04937">
        <ele>151.97</ele>
        <time>2021-08-08T16:05:14Z</time>
      </trkpt>
      <trkpt lat="48.98129" lon="0.04934">
        <ele>151.02</ele>
        <time>2021-08-08T16:05:15Z</time>
      </trkpt>
      <trkpt lat="48.98121" lon="0.04929">
        <ele>149.83</ele>
        <time>2021-08-08T16:05:16Z</time>
      </trkpt>
      <trkpt lat="48.98113" lon="0.04927">
        <ele>148.78</ele>
        <time>2021-08-08T16:05:17Z</time>
      </trkpt>
      <trkpt lat="48.98107" lon="0.04924">
        <ele>147.75</ele>
        <time>2021-08-08T16:05:18Z</time>
      </trkpt>
      <trkpt lat="48.98102" lon="0.04922">
        <ele>146.87</ele>
        <time>2021-08-08T16:05:19Z</time>
      </trkpt>
      <trkpt lat="48.98096" lon="0.04919">
        <ele>145.9</ele>
        <time>2021-08-08T16:05:20Z</time>
      </trkpt>
      <trkpt lat="48.9809" lon="0.04917">
        <ele>144.96</ele>
        <time>2021-08-08T16:05:21Z</time>
      </trkpt>
      <trkpt lat="48.98083" lon="0.04913">
        <ele>143.69</ele>
        <time>2021-08-08T16:05:22Z</time>
      </trkpt>
      <trkpt lat="48.98076" lon="0.04909">
        <ele>142.67</ele>
        <time>2021-08-08T16:05:23Z</time>
      </trkpt>
      <trkpt lat="48.98069" lon="0.04905">
        <ele>141.61</ele>
        <time>2021-08-08T16:05:24Z</time>
      </trkpt>
      <trkpt lat="48.98062" lon="0.04901">
        <ele>140.63</ele>
        <time>2021-08-08T16:05:25Z</time>
      </trkpt>
      <trkpt lat="48.98053" lon="0.04896">
        <ele>139.81</ele>
        <time>2021-08-08T16:05:26Z</time>
      </trkpt>
      <trkpt lat="48.98044" lon="0.04893">
        <ele>139.3</ele>
        <time>2021-08-08T16:05:27Z</time>
      </trkpt>
      <trkpt lat="48.98036" lon="0.0489">
        <ele>139.02</ele>
        <time>2021-08-08T16:05:28Z</time>
      </trkpt>
      <trkpt lat="48.98028" lon="0.04887">
        <ele>138.76</ele>
        <time>2021-08-08T16:05:29Z</time>
      </trkpt>
      <trkpt lat="48.9802" lon="0.04885">
        <ele>138.45</ele>
        <time>2021-08-08T16:05:30Z</time>
      </trkpt>
      <trkpt lat="48.98013" lon="0.04879">
        <ele>137.78</ele>
        <time>2021-08-08T16:05:31Z</time>
      </trkpt>
      <trkpt lat="48.98005" lon="0.04874">
        <ele>137.01</ele>
        <time>2021-08-08T16:05:32Z</time>
      </trkpt>
      <trkpt lat="48.97997" lon="0.0487">
        <ele>136.25</ele>
        <time>2021-08-08T16:05:33Z</time>
      </trkpt>
      <trkpt lat="48.97987" lon="0.04864">
        <ele>135.42</ele>
        <time>2021-08-08T16:05:34Z</time>
      </trkpt>
      <trkpt lat="48.97978" lon="0.04858">
        <ele>134.63</ele>
        <time>2021-08-08T16:05:35Z</time>
      </trkpt>
      <trkpt lat="48.97967" lon="0.04852">
        <ele>133.95</ele>
        <time>2021-08-08T16:05:36Z</time>
      </trkpt>
      <trkpt lat="48.9796" lon="0.04844">
        <ele>133.01</ele>
        <time>2021-08-08T16:05:37Z</time>
      </trkpt>
      <trkpt lat="48.97954" lon="0.04837">
        <ele>132.19</ele>
        <time>2021-08-08T16:05:38Z</time>
      </trkpt>
      <trkpt lat="48.97949" lon="0.04829">
        <ele>131.39</ele>
        <time>2021-08-08T16:05:39Z</time>
      </trkpt>
      <trkpt lat="48.97943" lon="0.04823">
        <ele>130.73</ele>
        <time>2021-08-08T16:05:40Z</time>
      </trkpt>
      <trkpt lat="48.97937" lon="0.04816">
        <ele>129.83</ele>
        <time>2021-08-08T16:05:41Z</time>
      </trkpt>
      <trkpt lat="48.97933" lon="0.04808">
        <ele>128.82</ele>
        <time>2021-08-08T16:05:42Z</time>
      </trkpt>
      <trkpt lat="48.97927" lon="0.04804">
        <ele>128.17</ele>
        <time>2021-08-08T16:05:43Z</time>
      </trkpt>
      <trkpt lat="48.97924" lon="0.04799">
        <ele>127.54</ele>
        <time>2021-08-08T16:05:44Z</time>
      </trkpt>
      <trkpt lat="48.9792" lon="0.04792">
        <ele>126.81</ele>
        <time>2021-08-08T16:05:45Z</time>
      </trkpt>
      <trkpt lat="48.97915" lon="0.04785">
        <ele>126.1</ele>
        <time>2021-08-08T16:05:46Z</time>
      </trkpt>
      <trkpt lat="48.97911" lon="0.0478">
        <ele>125.33</ele>
        <time>2021-08-08T16:05:47Z</time>
      </trkpt>
      <trkpt lat="48.97907" lon="0.04772">
        <ele>124.57</ele>
        <time>2021-08-08T16:05:48Z</time>
      </trkpt>
      <trkpt lat="48.97904" lon="0.04763">
        <ele>123.81</ele>
        <time>2021-08-08T16:05:49Z</time>
      </trkpt>
      <trkpt lat="48.97899" lon="0.04754">
        <ele>123.01</ele>
        <time>2021-08-08T16:05:50Z</time>
      </trkpt>
      <trkpt lat="48.97895" lon="0.04746">
        <ele>122.17</ele>
        <time>2021-08-08T16:05:51Z</time>
      </trkpt>
      <trkpt lat="48.9789" lon="0.04737">
        <ele>121.1</ele>
        <time>2021-08-08T16:05:52Z</time>
      </trkpt>
      <trkpt lat="48.97883" lon="0.04732">
        <ele>120.02</ele>
        <time>2021-08-08T16:05:53Z</time>
      </trkpt>
      <trkpt lat="48.97877" lon="0.04727">
        <ele>119.04</ele>
        <time>2021-08-08T16:05:54Z</time>
      </trkpt>
      <trkpt lat="48.97872" lon="0.04721">
        <ele>118.11</ele>
        <time>2021-08-08T16:05:55Z</time>
      </trkpt>
      <trkpt lat="48.97869" lon="0.04716">
        <ele>117.36</ele>
        <time>2021-08-08T16:05:56Z</time>
      </trkpt>
      <trkpt lat="48.97865" lon="0.04711">
        <ele>116.69</ele>
        <time>2021-08-08T16:05:57Z</time>
      </trkpt>
      <trkpt lat="48.97861" lon="0.04708">
        <ele>116.16</ele>
        <time>2021-08-08T16:05:58Z</time>
      </trkpt>
      <trkpt lat="48.97856" lon="0.04709">
        <ele>115.66</ele>
        <time>2021-08-08T16:05:59Z</time>
      </trkpt>
      <trkpt lat="48.97853" lon="0.04713">
        <ele>115.35</ele>
        <time>2021-08-08T16:06:00Z</time>
      </trkpt>
      <trkpt lat="48.97847" lon="0.04713">
        <ele>114.74</ele>
        <time>2021-08-08T16:06:01Z</time>
      </trkpt>
      <trkpt lat="48.97841" lon="0.04716">
        <ele>114.14</ele>
        <time>2021-08-08T16:06:02Z</time>
      </trkpt>
      <trkpt lat="48.97837" lon="0.04718">
        <ele>113.57</ele>
        <time>2021-08-08T16:06:03Z</time>
      </trkpt>
      <trkpt lat="48.97831" lon="0.04721">
        <ele>112.96</ele>
        <time>2021-08-08T16:06:04Z</time>
      </trkpt>
      <trkpt lat="48.97823" lon="0.04725">
        <ele>112.33</ele>
        <time>2021-08-08T16:06:05Z</time>
      </trkpt>
      <trkpt lat="48.97815" lon="0.04728">
        <ele>111.6</ele>
        <time>2021-08-08T16:06:06Z</time>
      </trkpt>
      <trkpt lat="48.97806" lon="0.04731">
        <ele>110.71</ele>
        <time>2021-08-08T16:06:07Z</time>
      </trkpt>
      <trkpt lat="48.97796" lon="0.04732">
        <ele>109.46</ele>
        <time>2021-08-08T16:06:08Z</time>
      </trkpt>
      <trkpt lat="48.97786" lon="0.04734">
        <ele>108.13</ele>
        <time>2021-08-08T16:06:09Z</time>
      </trkpt>
      <trkpt lat="48.97772" lon="0.04736">
        <ele>106.64</ele>
        <time>2021-08-08T16:06:10Z</time>
      </trkpt>
      <trkpt lat="48.9776" lon="0.04737">
        <ele>105.41</ele>
        <time>2021-08-08T16:06:11Z</time>
      </trkpt>
      <trkpt lat="48.97752" lon="0.04738">
        <ele>104.54</ele>
        <time>2021-08-08T16:06:12Z</time>
      </trkpt>
      <trkpt lat="48.97742" lon="0.04736">
        <ele>103.57</ele>
        <time>2021-08-08T16:06:13Z</time>
      </trkpt>
      <trkpt lat="48.97731" lon="0.04737">
        <ele>102.45</ele>
        <time>2021-08-08T16:06:14Z</time>
      </trkpt>
      <trkpt lat="48.97722" lon="0.04742">
        <ele>101.42</ele>
        <time>2021-08-08T16:06:15Z</time>
      </trkpt>
      <trkpt lat="48.97711" lon="0.04744">
        <ele>100.35</ele>
        <time>2021-08-08T16:06:16Z</time>
      </trkpt>
      <trkpt lat="48.977" lon="0.04745">
        <ele>99.21</ele>
        <time>2021-08-08T16:06:17Z</time>
      </trkpt>
      <trkpt lat="48.97686" lon="0.04748">
        <ele>98.02</ele>
        <time>2021-08-08T16:06:18Z</time>
      </trkpt>
      <trkpt lat="48.97676" lon="0.04751">
        <ele>97.08</ele>
        <time>2021-08-08T16:06:19Z</time>
      </trkpt>
      <trkpt lat="48.97665" lon="0.04756">
        <ele>96.08</ele>
        <time>2021-08-08T16:06:20Z</time>
      </trkpt>
      <trkpt lat="48.97653" lon="0.04758">
        <ele>95.14</ele>
        <time>2021-08-08T16:06:21Z</time>
      </trkpt>
      <trkpt lat="48.97639" lon="0.04764">
        <ele>93.98</ele>
        <time>2021-08-08T16:06:22Z</time>
      </trkpt>
      <trkpt lat="48.97629" lon="0.04767">
        <ele>93.32</ele>
        <time>2021-08-08T16:06:23Z</time>
      </trkpt>
      <trkpt lat="48.97616" lon="0.04769">
        <ele>92.75</ele>
        <time>2021-08-08T16:06:24Z</time>
      </trkpt>
      <trkpt lat="48.97608" lon="0.04769">
        <ele>92.38</ele>
        <time>2021-08-08T16:06:25Z</time>
      </trkpt>
      <trkpt lat="48.97597" lon="0.04768">
        <ele>92.01</ele>
        <time>2021-08-08T16:06:26Z</time>
      </trkpt>
      <trkpt lat="48.97586" lon="0.04764">
        <ele>91.72</ele>
        <time>2021-08-08T16:06:27Z</time>
      </trkpt>
      <trkpt lat="48.97579" lon="0.04761">
        <ele>91.58</ele>
        <time>2021-08-08T16:06:28Z</time>
      </trkpt>
      <trkpt lat="48.97571" lon="0.04761">
        <ele>91.48</ele>
        <time>2021-08-08T16:06:29Z</time>
      </trkpt>
      <trkpt lat="48.97563" lon="0.04764">
        <ele>91.23</ele>
        <time>2021-08-08T16:06:30Z</time>
      </trkpt>
      <trkpt lat="48.97556" lon="0.04766">
        <ele>90.95</ele>
        <time>2021-08-08T16:06:31Z</time>
      </trkpt>
      <trkpt lat="48.97548" lon="0.04771">
        <ele>90.6</ele>
        <time>2021-08-08T16:06:32Z</time>
      </trkpt>
      <trkpt lat="48.9754" lon="0.04778">
        <ele>90.17</ele>
        <time>2021-08-08T16:06:33Z</time>
      </trkpt>
      <trkpt lat="48.97532" lon="0.04784">
        <ele>89.9</ele>
        <time>2021-08-08T16:06:34Z</time>
      </trkpt>
      <trkpt lat="48.97524" lon="0.0479">
        <ele>89.54</ele>
        <time>2021-08-08T16:06:35Z</time>
      </trkpt>
      <trkpt lat="48.97516" lon="0.04797">
        <ele>88.87</ele>
        <time>2021-08-08T16:06:36Z</time>
      </trkpt>
      <trkpt lat="48.97508" lon="0.04804">
        <ele>88.05</ele>
        <time>2021-08-08T16:06:37Z</time>
      </trkpt>
      <trkpt lat="48.97501" lon="0.04811">
        <ele>87.23</ele>
        <time>2021-08-08T16:06:38Z</time>
      </trkpt>
      <trkpt lat="48.97494" lon="0.04819">
        <ele>86.59</ele>
        <time>2021-08-08T16:06:39Z</time>
      </trkpt>
      <trkpt lat="48.97488" lon="0.04825">
        <ele>86.07</ele>
        <time>2021-08-08T16:06:40Z</time>
      </trkpt>
      <trkpt lat="48.97481" lon="0.04832">
        <ele>85.58</ele>
        <time>2021-08-08T16:06:41Z</time>
      </trkpt>
      <trkpt lat="48.97474" lon="0.04837">
        <ele>85.12</ele>
        <time>2021-08-08T16:06:42Z</time>
      </trkpt>
      <trkpt lat="48.97468" lon="0.04842">
        <ele>84.81</ele>
        <time>2021-08-08T16:06:43Z</time>
      </trkpt>
      <trkpt lat="48.97461" lon="0.04847">
        <ele>84.6</ele>
        <time>2021-08-08T16:06:44Z</time>
      </trkpt>
      <trkpt lat="48.97456" lon="0.04851">
        <ele>84.44</ele>
        <time>2021-08-08T16:06:45Z</time>
      </trkpt>
      <trkpt lat="48.97449" lon="0.04853">
        <ele>84.34</ele>
        <time>2021-08-08T16:06:46Z</time>
      </trkpt>
      <trkpt lat="48.97447" lon="0.0485">
        <ele>84.39</ele>
        <time>2021-08-08T16:06:47Z</time>
      </trkpt>
      <trkpt lat="48.97445" lon="0.04846">
        <ele>84.49</ele>
        <time>2021-08-08T16:06:48Z</time>
      </trkpt>
      <trkpt lat="48.97444" lon="0.04841">
        <ele>84.65</ele>
        <time>2021-08-08T16:06:49Z</time>
      </trkpt>
      <trkpt lat="48.97445" lon="0.04836">
        <ele>84.84</ele>
        <time>2021-08-08T16:06:50Z</time>
      </trkpt>
      <trkpt lat="48.97445" lon="0.0483">
        <ele>85.03</ele>
        <time>2021-08-08T16:06:51Z</time>
      </trkpt>
      <trkpt lat="48.97447" lon="0.04824">
        <ele>85.25</ele>
        <time>2021-08-08T16:06:52Z</time>
      </trkpt>
      <trkpt lat="48.97448" lon="0.04817">
        <ele>85.47</ele>
        <time>2021-08-08T16:06:53Z</time>
      </trkpt>
      <trkpt lat="48.97448" lon="0.04811">
        <ele>85.7</ele>
        <time>2021-08-08T16:06:54Z</time>
      </trkpt>
      <trkpt lat="48.97448" lon="0.04805">
        <ele>85.93</ele>
        <time>2021-08-08T16:06:55Z</time>
      </trkpt>
      <trkpt lat="48.97448" lon="0.04799">
        <ele>86.18</ele>
        <time>2021-08-08T16:06:56Z</time>
      </trkpt>
      <trkpt lat="48.97449" lon="0.04793">
        <ele>86.43</ele>
        <time>2021-08-08T16:06:57Z</time>
      </trkpt>
      <trkpt lat="48.97449" lon="0.04786">
        <ele>86.7</ele>
        <time>2021-08-08T16:06:58Z</time>
      </trkpt>
      <trkpt lat="48.9745" lon="0.0478">
        <ele>86.98</ele>
        <time>2021-08-08T16:06:59Z</time>
      </trkpt>
      <trkpt lat="48.97449" lon="0.04774">
        <ele>87.22</ele>
        <time>2021-08-08T16:07:00Z</time>
      </trkpt>
      <trkpt lat="48.97449" lon="0.04769">
        <ele>87.41</ele>
        <time>2021-08-08T16:07:01Z</time>
      </trkpt>
      <trkpt lat="48.97449" lon="0.04764">
        <ele>87.58</ele>
        <time>2021-08-08T16:07:02Z</time>
      </trkpt>
      <trkpt lat="48.97448" lon="0.04759">
        <ele>87.76</ele>
        <time>2021-08-08T16:07:03Z</time>
      </trkpt>
      <trkpt lat="48.97447" lon="0.04753">
        <ele>87.92</ele>
        <time>2021-08-08T16:07:04Z</time>
      </trkpt>
      <trkpt lat="48.97446" lon="0.04748">
        <ele>88.07</ele>
        <time>2021-08-08T16:07:05Z</time>
      </trkpt>
      <trkpt lat="48.97444" lon="0.04743">
        <ele>88.19</ele>
        <time>2021-08-08T16:07:06Z</time>
      </trkpt>
      <trkpt lat="48.97442" lon="0.04737">
        <ele>88.29</ele>
        <time>2021-08-08T16:07:07Z</time>
      </trkpt>
      <trkpt lat="48.9744" lon="0.04732">
        <ele>88.37</ele>
        <time>2021-08-08T16:07:08Z</time>
      </trkpt>
      <trkpt lat="48.97439" lon="0.04726">
        <ele>88.44</ele>
        <time>2021-08-08T16:07:09Z</time>
      </trkpt>
      <trkpt lat="48.97436" lon="0.0472">
        <ele>88.43</ele>
        <time>2021-08-08T16:07:10Z</time>
      </trkpt>
      <trkpt lat="48.97434" lon="0.04715">
        <ele>88.38</ele>
        <time>2021-08-08T16:07:11Z</time>
      </trkpt>
      <trkpt lat="48.97433" lon="0.0471">
        <ele>88.35</ele>
        <time>2021-08-08T16:07:12Z</time>
      </trkpt>
      <trkpt lat="48.97431" lon="0.04706">
        <ele>88.33</ele>
        <time>2021-08-08T16:07:13Z</time>
      </trkpt>
      <trkpt lat="48.9743" lon="0.04703">
        <ele>88.33</ele>
        <time>2021-08-08T16:07:14Z</time>
      </trkpt>
      <trkpt lat="48.97429" lon="0.04699">
        <ele>88.34</ele>
        <time>2021-08-08T16:07:15Z</time>
      </trkpt>
      <trkpt lat="48.97427" lon="0.04695">
        <ele>88.36</ele>
        <time>2021-08-08T16:07:16Z</time>
      </trkpt>
      <trkpt lat="48.97425" lon="0.0469">
        <ele>88.35</ele>
        <time>2021-08-08T16:07:17Z</time>
      </trkpt>
      <trkpt lat="48.97423" lon="0.04685">
        <ele>88.31</ele>
        <time>2021-08-08T16:07:18Z</time>
      </trkpt>
      <trkpt lat="48.97421" lon="0.04681">
        <ele>88.25</ele>
        <time>2021-08-08T16:07:19Z</time>
      </trkpt>
      <trkpt lat="48.97419" lon="0.04676">
        <ele>88.17</ele>
        <time>2021-08-08T16:07:20Z</time>
      </trkpt>
      <trkpt lat="48.97417" lon="0.04671">
        <ele>88.07</ele>
        <time>2021-08-08T16:07:21Z</time>
      </trkpt>
      <trkpt lat="48.97415" lon="0.04665">
        <ele>87.99</ele>
        <time>2021-08-08T16:07:22Z</time>
      </trkpt>
      <trkpt lat="48.97414" lon="0.04658">
        <ele>87.93</ele>
        <time>2021-08-08T16:07:23Z</time>
      </trkpt>
      <trkpt lat="48.97413" lon="0.0465">
        <ele>87.88</ele>
        <time>2021-08-08T16:07:24Z</time>
      </trkpt>
      <trkpt lat="48.97411" lon="0.04643">
        <ele>87.83</ele>
        <time>2021-08-08T16:07:25Z</time>
      </trkpt>
      <trkpt lat="48.9741" lon="0.04635">
        <ele>87.68</ele>
        <time>2021-08-08T16:07:26Z</time>
      </trkpt>
      <trkpt lat="48.97409" lon="0.04628">
        <ele>87.44</ele>
        <time>2021-08-08T16:07:27Z</time>
      </trkpt>
      <trkpt lat="48.97409" lon="0.0462">
        <ele>87.15</ele>
        <time>2021-08-08T16:07:28Z</time>
      </trkpt>
      <trkpt lat="48.97407" lon="0.04611">
        <ele>86.81</ele>
        <time>2021-08-08T16:07:29Z</time>
      </trkpt>
      <trkpt lat="48.97407" lon="0.04603">
        <ele>86.49</ele>
        <time>2021-08-08T16:07:30Z</time>
      </trkpt>
      <trkpt lat="48.97407" lon="0.04594">
        <ele>86.17</ele>
        <time>2021-08-08T16:07:31Z</time>
      </trkpt>
      <trkpt lat="48.97407" lon="0.04585">
        <ele>85.86</ele>
        <time>2021-08-08T16:07:32Z</time>
      </trkpt>
      <trkpt lat="48.97409" lon="0.04577">
        <ele>85.58</ele>
        <time>2021-08-08T16:07:33Z</time>
      </trkpt>
      <trkpt lat="48.9741" lon="0.04568">
        <ele>85.33</ele>
        <time>2021-08-08T16:07:34Z</time>
      </trkpt>
      <trkpt lat="48.97412" lon="0.04559">
        <ele>85.07</ele>
        <time>2021-08-08T16:07:35Z</time>
      </trkpt>
      <trkpt lat="48.97412" lon="0.04549">
        <ele>84.73</ele>
        <time>2021-08-08T16:07:36Z</time>
      </trkpt>
      <trkpt lat="48.97413" lon="0.04538">
        <ele>84.32</ele>
        <time>2021-08-08T16:07:37Z</time>
      </trkpt>
      <trkpt lat="48.97415" lon="0.04527">
        <ele>83.94</ele>
        <time>2021-08-08T16:07:38Z</time>
      </trkpt>
      <trkpt lat="48.97417" lon="0.04515">
        <ele>83.36</ele>
        <time>2021-08-08T16:07:39Z</time>
      </trkpt>
      <trkpt lat="48.9742" lon="0.04504">
        <ele>82.71</ele>
        <time>2021-08-08T16:07:40Z</time>
      </trkpt>
      <trkpt lat="48.97423" lon="0.04493">
        <ele>82.04</ele>
        <time>2021-08-08T16:07:41Z</time>
      </trkpt>
      <trkpt lat="48.97426" lon="0.04482">
        <ele>81.37</ele>
        <time>2021-08-08T16:07:42Z</time>
      </trkpt>
      <trkpt lat="48.9743" lon="0.04471">
        <ele>80.67</ele>
        <time>2021-08-08T16:07:43Z</time>
      </trkpt>
      <trkpt lat="48.97434" lon="0.0446">
        <ele>79.89</ele>
        <time>2021-08-08T16:07:44Z</time>
      </trkpt>
      <trkpt lat="48.97437" lon="0.04448">
        <ele>79.1</ele>
        <time>2021-08-08T16:07:45Z</time>
      </trkpt>
      <trkpt lat="48.97438" lon="0.04435">
        <ele>78.47</ele>
        <time>2021-08-08T16:07:46Z</time>
      </trkpt>
      <trkpt lat="48.97439" lon="0.04424">
        <ele>78.06</ele>
        <time>2021-08-08T16:07:47Z</time>
      </trkpt>
      <trkpt lat="48.97439" lon="0.04414">
        <ele>77.7</ele>
        <time>2021-08-08T16:07:48Z</time>
      </trkpt>
      <trkpt lat="48.97439" lon="0.04405">
        <ele>77.39</ele>
        <time>2021-08-08T16:07:49Z</time>
      </trkpt>
      <trkpt lat="48.97438" lon="0.04396">
        <ele>77.09</ele>
        <time>2021-08-08T16:07:50Z</time>
      </trkpt>
      <trkpt lat="48.97438" lon="0.04388">
        <ele>76.83</ele>
        <time>2021-08-08T16:07:51Z</time>
      </trkpt>
      <trkpt lat="48.97438" lon="0.04379">
        <ele>76.54</ele>
        <time>2021-08-08T16:07:52Z</time>
      </trkpt>
      <trkpt lat="48.97437" lon="0.04371">
        <ele>76.22</ele>
        <time>2021-08-08T16:07:53Z</time>
      </trkpt>
      <trkpt lat="48.97436" lon="0.04363">
        <ele>75.88</ele>
        <time>2021-08-08T16:07:54Z</time>
      </trkpt>
      <trkpt lat="48.97435" lon="0.04354">
        <ele>75.54</ele>
        <time>2021-08-08T16:07:55Z</time>
      </trkpt>
      <trkpt lat="48.97434" lon="0.04345">
        <ele>75.2</ele>
        <time>2021-08-08T16:07:56Z</time>
      </trkpt>
      <trkpt lat="48.97433" lon="0.04337">
        <ele>74.86</ele>
        <time>2021-08-08T16:07:57Z</time>
      </trkpt>
      <trkpt lat="48.97432" lon="0.04328">
        <ele>74.43</ele>
        <time>2021-08-08T16:07:58Z</time>
      </trkpt>
      <trkpt lat="48.97431" lon="0.0432">
        <ele>73.97</ele>
        <time>2021-08-08T16:07:59Z</time>
      </trkpt>
      <trkpt lat="48.9743" lon="0.0431">
        <ele>73.44</ele>
        <time>2021-08-08T16:08:00Z</time>
      </trkpt>
      <trkpt lat="48.97428" lon="0.04302">
        <ele>72.94</ele>
        <time>2021-08-08T16:08:01Z</time>
      </trkpt>
      <trkpt lat="48.97427" lon="0.04293">
        <ele>72.36</ele>
        <time>2021-08-08T16:08:02Z</time>
      </trkpt>
      <trkpt lat="48.97425" lon="0.04286">
        <ele>71.81</ele>
        <time>2021-08-08T16:08:03Z</time>
      </trkpt>
      <trkpt lat="48.97425" lon="0.04279">
        <ele>71.31</ele>
        <time>2021-08-08T16:08:04Z</time>
      </trkpt>
      <trkpt lat="48.97423" lon="0.04272">
        <ele>70.79</ele>
        <time>2021-08-08T16:08:05Z</time>
      </trkpt>
      <trkpt lat="48.97422" lon="0.04264">
        <ele>70.23</ele>
        <time>2021-08-08T16:08:06Z</time>
      </trkpt>
      <trkpt lat="48.97422" lon="0.04256">
        <ele>69.66</ele>
        <time>2021-08-08T16:08:07Z</time>
      </trkpt>
      <trkpt lat="48.9742" lon="0.04248">
        <ele>69.15</ele>
        <time>2021-08-08T16:08:08Z</time>
      </trkpt>
      <trkpt lat="48.9742" lon="0.04241">
        <ele>68.81</ele>
        <time>2021-08-08T16:08:09Z</time>
      </trkpt>
      <trkpt lat="48.97419" lon="0.04233">
        <ele>68.5</ele>
        <time>2021-08-08T16:08:10Z</time>
      </trkpt>
      <trkpt lat="48.97418" lon="0.04225">
        <ele>68.23</ele>
        <time>2021-08-08T16:08:11Z</time>
      </trkpt>
      <trkpt lat="48.97415" lon="0.04218">
        <ele>67.88</ele>
        <time>2021-08-08T16:08:12Z</time>
      </trkpt>
      <trkpt lat="48.97414" lon="0.04212">
        <ele>67.45</ele>
        <time>2021-08-08T16:08:13Z</time>
      </trkpt>
      <trkpt lat="48.97413" lon="0.04204">
        <ele>66.96</ele>
        <time>2021-08-08T16:08:14Z</time>
      </trkpt>
      <trkpt lat="48.97412" lon="0.04197">
        <ele>66.49</ele>
        <time>2021-08-08T16:08:15Z</time>
      </trkpt>
      <trkpt lat="48.97411" lon="0.04189">
        <ele>66.14</ele>
        <time>2021-08-08T16:08:16Z</time>
      </trkpt>
      <trkpt lat="48.97409" lon="0.0418">
        <ele>65.78</ele>
        <time>2021-08-08T16:08:17Z</time>
      </trkpt>
      <trkpt lat="48.97408" lon="0.04173">
        <ele>65.45</ele>
        <time>2021-08-08T16:08:18Z</time>
      </trkpt>
      <trkpt lat="48.97408" lon="0.04166">
        <ele>65.12</ele>
        <time>2021-08-08T16:08:19Z</time>
      </trkpt>
      <trkpt lat="48.97407" lon="0.04159">
        <ele>64.83</ele>
        <time>2021-08-08T16:08:20Z</time>
      </trkpt>
      <trkpt lat="48.97405" lon="0.04151">
        <ele>64.55</ele>
        <time>2021-08-08T16:08:21Z</time>
      </trkpt>
      <trkpt lat="48.97403" lon="0.04146">
        <ele>64.35</ele>
        <time>2021-08-08T16:08:22Z</time>
      </trkpt>
      <trkpt lat="48.97402" lon="0.04143">
        <ele>64.22</ele>
        <time>2021-08-08T16:08:23Z</time>
      </trkpt>
      <trkpt lat="48.97401" lon="0.04143">
        <ele>64.16</ele>
        <time>2021-08-08T16:08:24Z</time>
      </trkpt>
      <trkpt lat="48.97399" lon="0.0414">
        <ele>64.07</ele>
        <time>2021-08-08T16:08:25Z</time>
      </trkpt>
      <trkpt lat="48.97396" lon="0.04136">
        <ele>63.95</ele>
        <time>2021-08-08T16:08:26Z</time>
      </trkpt>
      <trkpt lat="48.97393" lon="0.04135">
        <ele>63.89</ele>
        <time>2021-08-08T16:08:27Z</time>
      </trkpt>
      <trkpt lat="48.97389" lon="0.04135">
        <ele>63.87</ele>
        <time>2021-08-08T16:08:28Z</time>
      </trkpt>
      <trkpt lat="48.97386" lon="0.04136">
        <ele>63.89</ele>
        <time>2021-08-08T16:08:29Z</time>
      </trkpt>
      <trkpt lat="48.97383" lon="0.04134">
        <ele>63.86</ele>
        <time>2021-08-08T16:08:30Z</time>
      </trkpt>
      <trkpt lat="48.9738" lon="0.0413">
        <ele>63.81</ele>
        <time>2021-08-08T16:08:31Z</time>
      </trkpt>
      <trkpt lat="48.97379" lon="0.04126">
        <ele>63.73</ele>
        <time>2021-08-08T16:08:32Z</time>
      </trkpt>
      <trkpt lat="48.9738" lon="0.04119">
        <ele>63.58</ele>
        <time>2021-08-08T16:08:33Z</time>
      </trkpt>
      <trkpt lat="48.97382" lon="0.04112">
        <ele>63.36</ele>
        <time>2021-08-08T16:08:34Z</time>
      </trkpt>
      <trkpt lat="48.97385" lon="0.04105">
        <ele>63.06</ele>
        <time>2021-08-08T16:08:35Z</time>
      </trkpt>
      <trkpt lat="48.97388" lon="0.04099">
        <ele>62.74</ele>
        <time>2021-08-08T16:08:36Z</time>
      </trkpt>
      <trkpt lat="48.97391" lon="0.04093">
        <ele>62.47</ele>
        <time>2021-08-08T16:08:37Z</time>
      </trkpt>
      <trkpt lat="48.97393" lon="0.04087">
        <ele>62.22</ele>
        <time>2021-08-08T16:08:38Z</time>
      </trkpt>
      <trkpt lat="48.97396" lon="0.0408">
        <ele>62.05</ele>
        <time>2021-08-08T16:08:39Z</time>
      </trkpt>
      <trkpt lat="48.974" lon="0.04073">
        <ele>61.92</ele>
        <time>2021-08-08T16:08:40Z</time>
      </trkpt>
      <trkpt lat="48.97402" lon="0.04067">
        <ele>61.77</ele>
        <time>2021-08-08T16:08:41Z</time>
      </trkpt>
      <trkpt lat="48.97406" lon="0.04059">
        <ele>61.57</ele>
        <time>2021-08-08T16:08:42Z</time>
      </trkpt>
      <trkpt lat="48.97409" lon="0.04052">
        <ele>61.33</ele>
        <time>2021-08-08T16:08:43Z</time>
      </trkpt>
      <trkpt lat="48.97412" lon="0.04044">
        <ele>61.16</ele>
        <time>2021-08-08T16:08:44Z</time>
      </trkpt>
      <trkpt lat="48.97416" lon="0.04037">
        <ele>61.06</ele>
        <time>2021-08-08T16:08:45Z</time>
      </trkpt>
      <trkpt lat="48.97419" lon="0.04029">
        <ele>60.95</ele>
        <time>2021-08-08T16:08:46Z</time>
      </trkpt>
      <trkpt lat="48.97423" lon="0.04022">
        <ele>60.86</ele>
        <time>2021-08-08T16:08:47Z</time>
      </trkpt>
      <trkpt lat="48.97426" lon="0.04015">
        <ele>60.84</ele>
        <time>2021-08-08T16:08:48Z</time>
      </trkpt>
      <trkpt lat="48.97429" lon="0.04007">
        <ele>60.87</ele>
        <time>2021-08-08T16:08:49Z</time>
      </trkpt>
      <trkpt lat="48.97433" lon="0.04">
        <ele>60.96</ele>
        <time>2021-08-08T16:08:50Z</time>
      </trkpt>
      <trkpt lat="48.97436" lon="0.03993">
        <ele>61.04</ele>
        <time>2021-08-08T16:08:51Z</time>
      </trkpt>
      <trkpt lat="48.9744" lon="0.03986">
        <ele>61.07</ele>
        <time>2021-08-08T16:08:52Z</time>
      </trkpt>
      <trkpt lat="48.97444" lon="0.03978">
        <ele>61.04</ele>
        <time>2021-08-08T16:08:53Z</time>
      </trkpt>
      <trkpt lat="48.97448" lon="0.03971">
        <ele>61.05</ele>
        <time>2021-08-08T16:08:54Z</time>
      </trkpt>
      <trkpt lat="48.97452" lon="0.03963">
        <ele>61.24</ele>
        <time>2021-08-08T16:08:55Z</time>
      </trkpt>
      <trkpt lat="48.97456" lon="0.03955">
        <ele>61.5</ele>
        <time>2021-08-08T16:08:56Z</time>
      </trkpt>
      <trkpt lat="48.9746" lon="0.03947">
        <ele>61.78</ele>
        <time>2021-08-08T16:08:57Z</time>
      </trkpt>
      <trkpt lat="48.97464" lon="0.0394">
        <ele>61.97</ele>
        <time>2021-08-08T16:08:58Z</time>
      </trkpt>
      <trkpt lat="48.97468" lon="0.03931">
        <ele>62.04</ele>
        <time>2021-08-08T16:08:59Z</time>
      </trkpt>
      <trkpt lat="48.97471" lon="0.03924">
        <ele>62.03</ele>
        <time>2021-08-08T16:09:00Z</time>
      </trkpt>
      <trkpt lat="48.97475" lon="0.03916">
        <ele>62.02</ele>
        <time>2021-08-08T16:09:01Z</time>
      </trkpt>
      <trkpt lat="48.97478" lon="0.03909">
        <ele>62.16</ele>
        <time>2021-08-08T16:09:02Z</time>
      </trkpt>
      <trkpt lat="48.9748" lon="0.03902">
        <ele>62.31</ele>
        <time>2021-08-08T16:09:03Z</time>
      </trkpt>
      <trkpt lat="48.97483" lon="0.03896">
        <ele>62.41</ele>
        <time>2021-08-08T16:09:04Z</time>
      </trkpt>
      <trkpt lat="48.97487" lon="0.03889">
        <ele>62.45</ele>
        <time>2021-08-08T16:09:05Z</time>
      </trkpt>
      <trkpt lat="48.97491" lon="0.03882">
        <ele>62.36</ele>
        <time>2021-08-08T16:09:06Z</time>
      </trkpt>
      <trkpt lat="48.97495" lon="0.03874">
        <ele>62.24</ele>
        <time>2021-08-08T16:09:07Z</time>
      </trkpt>
      <trkpt lat="48.97498" lon="0.03865">
        <ele>62.12</ele>
        <time>2021-08-08T16:09:08Z</time>
      </trkpt>
      <trkpt lat="48.97501" lon="0.03858">
        <ele>61.92</ele>
        <time>2021-08-08T16:09:09Z</time>
      </trkpt>
      <trkpt lat="48.97504" lon="0.0385">
        <ele>61.63</ele>
        <time>2021-08-08T16:09:10Z</time>
      </trkpt>
      <trkpt lat="48.97507" lon="0.03843">
        <ele>61.36</ele>
        <time>2021-08-08T16:09:11Z</time>
      </trkpt>
      <trkpt lat="48.97509" lon="0.03835">
        <ele>61.14</ele>
        <time>2021-08-08T16:09:12Z</time>
      </trkpt>
      <trkpt lat="48.97512" lon="0.03826">
        <ele>61.04</ele>
        <time>2021-08-08T16:09:13Z</time>
      </trkpt>
      <trkpt lat="48.97515" lon="0.03817">
        <ele>61.01</ele>
        <time>2021-08-08T16:09:14Z</time>
      </trkpt>
      <trkpt lat="48.97517" lon="0.03808">
        <ele>61</ele>
        <time>2021-08-08T16:09:15Z</time>
      </trkpt>
      <trkpt lat="48.9752" lon="0.03799">
        <ele>61.05</ele>
        <time>2021-08-08T16:09:16Z</time>
      </trkpt>
      <trkpt lat="48.97522" lon="0.03789">
        <ele>61.1</ele>
        <time>2021-08-08T16:09:17Z</time>
      </trkpt>
      <trkpt lat="48.97524" lon="0.0378">
        <ele>61.13</ele>
        <time>2021-08-08T16:09:18Z</time>
      </trkpt>
      <trkpt lat="48.97526" lon="0.03772">
        <ele>61.23</ele>
        <time>2021-08-08T16:09:19Z</time>
      </trkpt>
      <trkpt lat="48.97528" lon="0.03763">
        <ele>61.43</ele>
        <time>2021-08-08T16:09:20Z</time>
      </trkpt>
      <trkpt lat="48.97531" lon="0.03755">
        <ele>61.65</ele>
        <time>2021-08-08T16:09:21Z</time>
      </trkpt>
      <trkpt lat="48.97534" lon="0.03747">
        <ele>61.75</ele>
        <time>2021-08-08T16:09:22Z</time>
      </trkpt>
      <trkpt lat="48.97537" lon="0.03739">
        <ele>61.7</ele>
        <time>2021-08-08T16:09:23Z</time>
      </trkpt>
      <trkpt lat="48.97541" lon="0.03731">
        <ele>61.59</ele>
        <time>2021-08-08T16:09:24Z</time>
      </trkpt>
      <trkpt lat="48.97545" lon="0.03724">
        <ele>61.44</ele>
        <time>2021-08-08T16:09:25Z</time>
      </trkpt>
      <trkpt lat="48.9755" lon="0.03718">
        <ele>61.45</ele>
        <time>2021-08-08T16:09:26Z</time>
      </trkpt>
      <trkpt lat="48.97554" lon="0.03713">
        <ele>61.63</ele>
        <time>2021-08-08T16:09:27Z</time>
      </trkpt>
      <trkpt lat="48.97559" lon="0.03708">
        <ele>61.98</ele>
        <time>2021-08-08T16:09:28Z</time>
      </trkpt>
      <trkpt lat="48.97564" lon="0.03702">
        <ele>62.35</ele>
        <time>2021-08-08T16:09:29Z</time>
      </trkpt>
      <trkpt lat="48.97568" lon="0.03698">
        <ele>62.67</ele>
        <time>2021-08-08T16:09:30Z</time>
      </trkpt>
      <trkpt lat="48.97572" lon="0.03694">
        <ele>62.94</ele>
        <time>2021-08-08T16:09:31Z</time>
      </trkpt>
      <trkpt lat="48.97577" lon="0.0369">
        <ele>63.18</ele>
        <time>2021-08-08T16:09:32Z</time>
      </trkpt>
      <trkpt lat="48.97582" lon="0.03688">
        <ele>63.38</ele>
        <time>2021-08-08T16:09:33Z</time>
      </trkpt>
      <trkpt lat="48.97586" lon="0.03685">
        <ele>63.59</ele>
        <time>2021-08-08T16:09:34Z</time>
      </trkpt>
      <trkpt lat="48.97591" lon="0.03682">
        <ele>63.8</ele>
        <time>2021-08-08T16:09:35Z</time>
      </trkpt>
      <trkpt lat="48.97596" lon="0.0368">
        <ele>63.98</ele>
        <time>2021-08-08T16:09:36Z</time>
      </trkpt>
      <trkpt lat="48.976" lon="0.03678">
        <ele>64.14</ele>
        <time>2021-08-08T16:09:37Z</time>
      </trkpt>
      <trkpt lat="48.97605" lon="0.03675">
        <ele>64.3</ele>
        <time>2021-08-08T16:09:38Z</time>
      </trkpt>
      <trkpt lat="48.97609" lon="0.03674">
        <ele>64.44</ele>
        <time>2021-08-08T16:09:39Z</time>
      </trkpt>
      <trkpt lat="48.97614" lon="0.03671">
        <ele>64.61</ele>
        <time>2021-08-08T16:09:40Z</time>
      </trkpt>
      <trkpt lat="48.97619" lon="0.0367">
        <ele>64.75</ele>
        <time>2021-08-08T16:09:41Z</time>
      </trkpt>
      <trkpt lat="48.97624" lon="0.03668">
        <ele>64.89</ele>
        <time>2021-08-08T16:09:42Z</time>
      </trkpt>
      <trkpt lat="48.97629" lon="0.03665">
        <ele>65.05</ele>
        <time>2021-08-08T16:09:43Z</time>
      </trkpt>
      <trkpt lat="48.97633" lon="0.03663">
        <ele>65.22</ele>
        <time>2021-08-08T16:09:44Z</time>
      </trkpt>
      <trkpt lat="48.97638" lon="0.0366">
        <ele>65.4</ele>
        <time>2021-08-08T16:09:45Z</time>
      </trkpt>
      <trkpt lat="48.97641" lon="0.03658">
        <ele>65.53</ele>
        <time>2021-08-08T16:09:46Z</time>
      </trkpt>
      <trkpt lat="48.97645" lon="0.03657">
        <ele>65.58</ele>
        <time>2021-08-08T16:09:47Z</time>
      </trkpt>
      <trkpt lat="48.97648" lon="0.03656">
        <ele>65.61</ele>
        <time>2021-08-08T16:09:48Z</time>
      </trkpt>
      <trkpt lat="48.97651" lon="0.03655">
        <ele>65.62</ele>
        <time>2021-08-08T16:09:49Z</time>
      </trkpt>
      <trkpt lat="48.97654" lon="0.03654">
        <ele>65.67</ele>
        <time>2021-08-08T16:09:50Z</time>
      </trkpt>
      <trkpt lat="48.97658" lon="0.03651">
        <ele>65.71</ele>
        <time>2021-08-08T16:09:51Z</time>
      </trkpt>
      <trkpt lat="48.97662" lon="0.03649">
        <ele>65.74</ele>
        <time>2021-08-08T16:09:52Z</time>
      </trkpt>
      <trkpt lat="48.97666" lon="0.03646">
        <ele>65.75</ele>
        <time>2021-08-08T16:09:53Z</time>
      </trkpt>
      <trkpt lat="48.9767" lon="0.03644">
        <ele>65.78</ele>
        <time>2021-08-08T16:09:54Z</time>
      </trkpt>
      <trkpt lat="48.97674" lon="0.03642">
        <ele>65.84</ele>
        <time>2021-08-08T16:09:55Z</time>
      </trkpt>
      <trkpt lat="48.97678" lon="0.03639">
        <ele>65.94</ele>
        <time>2021-08-08T16:09:56Z</time>
      </trkpt>
      <trkpt lat="48.97681" lon="0.03637">
        <ele>66.06</ele>
        <time>2021-08-08T16:09:57Z</time>
      </trkpt>
      <trkpt lat="48.97685" lon="0.03634">
        <ele>66.19</ele>
        <time>2021-08-08T16:09:58Z</time>
      </trkpt>
      <trkpt lat="48.97689" lon="0.03631">
        <ele>66.29</ele>
        <time>2021-08-08T16:09:59Z</time>
      </trkpt>
      <trkpt lat="48.97693" lon="0.03628">
        <ele>66.37</ele>
        <time>2021-08-08T16:10:00Z</time>
      </trkpt>
      <trkpt lat="48.97696" lon="0.03625">
        <ele>66.45</ele>
        <time>2021-08-08T16:10:01Z</time>
      </trkpt>
      <trkpt lat="48.977" lon="0.03622">
        <ele>66.51</ele>
        <time>2021-08-08T16:10:02Z</time>
      </trkpt>
      <trkpt lat="48.97704" lon="0.03619">
        <ele>66.58</ele>
        <time>2021-08-08T16:10:03Z</time>
      </trkpt>
      <trkpt lat="48.97708" lon="0.03616">
        <ele>66.67</ele>
        <time>2021-08-08T16:10:04Z</time>
      </trkpt>
      <trkpt lat="48.97712" lon="0.03612">
        <ele>66.86</ele>
        <time>2021-08-08T16:10:05Z</time>
      </trkpt>
      <trkpt lat="48.97714" lon="0.03606">
        <ele>67.11</ele>
        <time>2021-08-08T16:10:06Z</time>
      </trkpt>
      <trkpt lat="48.97714" lon="0.036">
        <ele>67.39</ele>
        <time>2021-08-08T16:10:07Z</time>
      </trkpt>
      <trkpt lat="48.97713" lon="0.03594">
        <ele>67.7</ele>
        <time>2021-08-08T16:10:08Z</time>
      </trkpt>
      <trkpt lat="48.97712" lon="0.03588">
        <ele>68.01</ele>
        <time>2021-08-08T16:10:09Z</time>
      </trkpt>
      <trkpt lat="48.97711" lon="0.03582">
        <ele>68.35</ele>
        <time>2021-08-08T16:10:10Z</time>
      </trkpt>
      <trkpt lat="48.97711" lon="0.03576">
        <ele>68.78</ele>
        <time>2021-08-08T16:10:11Z</time>
      </trkpt>
      <trkpt lat="48.97711" lon="0.03569">
        <ele>69.22</ele>
        <time>2021-08-08T16:10:12Z</time>
      </trkpt>
      <trkpt lat="48.97711" lon="0.03563">
        <ele>69.65</ele>
        <time>2021-08-08T16:10:13Z</time>
      </trkpt>
      <trkpt lat="48.97711" lon="0.03557">
        <ele>70.08</ele>
        <time>2021-08-08T16:10:14Z</time>
      </trkpt>
      <trkpt lat="48.97711" lon="0.03551">
        <ele>70.41</ele>
        <time>2021-08-08T16:10:15Z</time>
      </trkpt>
      <trkpt lat="48.97711" lon="0.03545">
        <ele>70.65</ele>
        <time>2021-08-08T16:10:16Z</time>
      </trkpt>
      <trkpt lat="48.97712" lon="0.03539">
        <ele>70.87</ele>
        <time>2021-08-08T16:10:17Z</time>
      </trkpt>
      <trkpt lat="48.97713" lon="0.03532">
        <ele>71.07</ele>
        <time>2021-08-08T16:10:18Z</time>
      </trkpt>
      <trkpt lat="48.97715" lon="0.03526">
        <ele>71.29</ele>
        <time>2021-08-08T16:10:19Z</time>
      </trkpt>
      <trkpt lat="48.97716" lon="0.03521">
        <ele>71.59</ele>
        <time>2021-08-08T16:10:20Z</time>
      </trkpt>
      <trkpt lat="48.97718" lon="0.03515">
        <ele>71.92</ele>
        <time>2021-08-08T16:10:21Z</time>
      </trkpt>
      <trkpt lat="48.9772" lon="0.03509">
        <ele>72.27</ele>
        <time>2021-08-08T16:10:22Z</time>
      </trkpt>
      <trkpt lat="48.97722" lon="0.03504">
        <ele>72.62</ele>
        <time>2021-08-08T16:10:23Z</time>
      </trkpt>
      <trkpt lat="48.97725" lon="0.03498">
        <ele>72.82</ele>
        <time>2021-08-08T16:10:24Z</time>
      </trkpt>
      <trkpt lat="48.97727" lon="0.03492">
        <ele>72.83</ele>
        <time>2021-08-08T16:10:25Z</time>
      </trkpt>
      <trkpt lat="48.97729" lon="0.03488">
        <ele>72.77</ele>
        <time>2021-08-08T16:10:26Z</time>
      </trkpt>
      <trkpt lat="48.97732" lon="0.03484">
        <ele>72.68</ele>
        <time>2021-08-08T16:10:27Z</time>
      </trkpt>
      <trkpt lat="48.97735" lon="0.03479">
        <ele>72.58</ele>
        <time>2021-08-08T16:10:28Z</time>
      </trkpt>
      <trkpt lat="48.97738" lon="0.03475">
        <ele>72.46</ele>
        <time>2021-08-08T16:10:29Z</time>
      </trkpt>
      <trkpt lat="48.97742" lon="0.03471">
        <ele>72.34</ele>
        <time>2021-08-08T16:10:30Z</time>
      </trkpt>
      <trkpt lat="48.97745" lon="0.03468">
        <ele>72.21</ele>
        <time>2021-08-08T16:10:31Z</time>
      </trkpt>
      <trkpt lat="48.97748" lon="0.03465">
        <ele>72.1</ele>
        <time>2021-08-08T16:10:32Z</time>
      </trkpt>
      <trkpt lat="48.97751" lon="0.03462">
        <ele>71.99</ele>
        <time>2021-08-08T16:10:33Z</time>
      </trkpt>
      <trkpt lat="48.97754" lon="0.03458">
        <ele>71.89</ele>
        <time>2021-08-08T16:10:34Z</time>
      </trkpt>
      <trkpt lat="48.97757" lon="0.03455">
        <ele>71.78</ele>
        <time>2021-08-08T16:10:35Z</time>
      </trkpt>
      <trkpt lat="48.9776" lon="0.03451">
        <ele>71.67</ele>
        <time>2021-08-08T16:10:36Z</time>
      </trkpt>
      <trkpt lat="48.97764" lon="0.03448">
        <ele>71.56</ele>
        <time>2021-08-08T16:10:37Z</time>
      </trkpt>
      <trkpt lat="48.97767" lon="0.03445">
        <ele>71.43</ele>
        <time>2021-08-08T16:10:38Z</time>
      </trkpt>
      <trkpt lat="48.97771" lon="0.03442">
        <ele>71.35</ele>
        <time>2021-08-08T16:10:39Z</time>
      </trkpt>
      <trkpt lat="48.97776" lon="0.03438">
        <ele>71.3</ele>
        <time>2021-08-08T16:10:40Z</time>
      </trkpt>
      <trkpt lat="48.9778" lon="0.03433">
        <ele>71.36</ele>
        <time>2021-08-08T16:10:41Z</time>
      </trkpt>
      <trkpt lat="48.97785" lon="0.03428">
        <ele>71.42</ele>
        <time>2021-08-08T16:10:42Z</time>
      </trkpt>
      <trkpt lat="48.9779" lon="0.03423">
        <ele>71.43</ele>
        <time>2021-08-08T16:10:43Z</time>
      </trkpt>
      <trkpt lat="48.97794" lon="0.03419">
        <ele>71.41</ele>
        <time>2021-08-08T16:10:44Z</time>
      </trkpt>
      <trkpt lat="48.97799" lon="0.03414">
        <ele>71.3</ele>
        <time>2021-08-08T16:10:45Z</time>
      </trkpt>
      <trkpt lat="48.97803" lon="0.03409">
        <ele>71.15</ele>
        <time>2021-08-08T16:10:46Z</time>
      </trkpt>
      <trkpt lat="48.97808" lon="0.03404">
        <ele>70.98</ele>
        <time>2021-08-08T16:10:47Z</time>
      </trkpt>
      <trkpt lat="48.97813" lon="0.03399">
        <ele>70.81</ele>
        <time>2021-08-08T16:10:48Z</time>
      </trkpt>
      <trkpt lat="48.97818" lon="0.03393">
        <ele>70.63</ele>
        <time>2021-08-08T16:10:49Z</time>
      </trkpt>
      <trkpt lat="48.97823" lon="0.03387">
        <ele>70.43</ele>
        <time>2021-08-08T16:10:50Z</time>
      </trkpt>
      <trkpt lat="48.97828" lon="0.03381">
        <ele>70.22</ele>
        <time>2021-08-08T16:10:51Z</time>
      </trkpt>
      <trkpt lat="48.97833" lon="0.03375">
        <ele>70.06</ele>
        <time>2021-08-08T16:10:52Z</time>
      </trkpt>
      <trkpt lat="48.97839" lon="0.03369">
        <ele>69.92</ele>
        <time>2021-08-08T16:10:53Z</time>
      </trkpt>
      <trkpt lat="48.97845" lon="0.03363">
        <ele>69.71</ele>
        <time>2021-08-08T16:10:54Z</time>
      </trkpt>
      <trkpt lat="48.9785" lon="0.03356">
        <ele>69.49</ele>
        <time>2021-08-08T16:10:55Z</time>
      </trkpt>
      <trkpt lat="48.97856" lon="0.03349">
        <ele>69.28</ele>
        <time>2021-08-08T16:10:56Z</time>
      </trkpt>
      <trkpt lat="48.97861" lon="0.03341">
        <ele>69.08</ele>
        <time>2021-08-08T16:10:57Z</time>
      </trkpt>
      <trkpt lat="48.97866" lon="0.03334">
        <ele>69.03</ele>
        <time>2021-08-08T16:10:58Z</time>
      </trkpt>
      <trkpt lat="48.97872" lon="0.03326">
        <ele>69.01</ele>
        <time>2021-08-08T16:10:59Z</time>
      </trkpt>
      <trkpt lat="48.97876" lon="0.03318">
        <ele>69</ele>
        <time>2021-08-08T16:11:00Z</time>
      </trkpt>
      <trkpt lat="48.9788" lon="0.0331">
        <ele>69</ele>
        <time>2021-08-08T16:11:01Z</time>
      </trkpt>
      <trkpt lat="48.97883" lon="0.03301">
        <ele>69</ele>
        <time>2021-08-08T16:11:02Z</time>
      </trkpt>
      <trkpt lat="48.97885" lon="0.03293">
        <ele>69</ele>
        <time>2021-08-08T16:11:03Z</time>
      </trkpt>
      <trkpt lat="48.97888" lon="0.03284">
        <ele>69</ele>
        <time>2021-08-08T16:11:04Z</time>
      </trkpt>
      <trkpt lat="48.9789" lon="0.03275">
        <ele>69</ele>
        <time>2021-08-08T16:11:05Z</time>
      </trkpt>
      <trkpt lat="48.97892" lon="0.03265">
        <ele>68.96</ele>
        <time>2021-08-08T16:11:06Z</time>
      </trkpt>
      <trkpt lat="48.97894" lon="0.03256">
        <ele>68.89</ele>
        <time>2021-08-08T16:11:07Z</time>
      </trkpt>
      <trkpt lat="48.97896" lon="0.03247">
        <ele>68.8</ele>
        <time>2021-08-08T16:11:08Z</time>
      </trkpt>
      <trkpt lat="48.97898" lon="0.03238">
        <ele>68.71</ele>
        <time>2021-08-08T16:11:09Z</time>
      </trkpt>
      <trkpt lat="48.979" lon="0.03229">
        <ele>68.63</ele>
        <time>2021-08-08T16:11:10Z</time>
      </trkpt>
      <trkpt lat="48.97903" lon="0.03219">
        <ele>68.5</ele>
        <time>2021-08-08T16:11:11Z</time>
      </trkpt>
      <trkpt lat="48.97906" lon="0.0321">
        <ele>68.31</ele>
        <time>2021-08-08T16:11:12Z</time>
      </trkpt>
      <trkpt lat="48.97908" lon="0.03201">
        <ele>68.14</ele>
        <time>2021-08-08T16:11:13Z</time>
      </trkpt>
      <trkpt lat="48.97911" lon="0.03191">
        <ele>68.04</ele>
        <time>2021-08-08T16:11:14Z</time>
      </trkpt>
      <trkpt lat="48.97913" lon="0.03182">
        <ele>68.01</ele>
        <time>2021-08-08T16:11:15Z</time>
      </trkpt>
      <trkpt lat="48.97916" lon="0.03173">
        <ele>68</ele>
        <time>2021-08-08T16:11:16Z</time>
      </trkpt>
      <trkpt lat="48.97918" lon="0.03164">
        <ele>67.97</ele>
        <time>2021-08-08T16:11:17Z</time>
      </trkpt>
      <trkpt lat="48.97921" lon="0.03156">
        <ele>67.88</ele>
        <time>2021-08-08T16:11:18Z</time>
      </trkpt>
      <trkpt lat="48.97924" lon="0.03147">
        <ele>67.78</ele>
        <time>2021-08-08T16:11:19Z</time>
      </trkpt>
      <trkpt lat="48.97927" lon="0.03139">
        <ele>67.67</ele>
        <time>2021-08-08T16:11:20Z</time>
      </trkpt>
      <trkpt lat="48.9793" lon="0.0313">
        <ele>67.57</ele>
        <time>2021-08-08T16:11:21Z</time>
      </trkpt>
      <trkpt lat="48.97933" lon="0.0312">
        <ele>67.46</ele>
        <time>2021-08-08T16:11:22Z</time>
      </trkpt>
      <trkpt lat="48.97937" lon="0.03112">
        <ele>67.34</ele>
        <time>2021-08-08T16:11:23Z</time>
      </trkpt>
      <trkpt lat="48.97941" lon="0.03104">
        <ele>67.19</ele>
        <time>2021-08-08T16:11:24Z</time>
      </trkpt>
      <trkpt lat="48.97946" lon="0.03096">
        <ele>67.06</ele>
        <time>2021-08-08T16:11:25Z</time>
      </trkpt>
      <trkpt lat="48.9795" lon="0.03088">
        <ele>67.02</ele>
        <time>2021-08-08T16:11:26Z</time>
      </trkpt>
      <trkpt lat="48.97955" lon="0.0308">
        <ele>67.05</ele>
        <time>2021-08-08T16:11:27Z</time>
      </trkpt>
      <trkpt lat="48.97959" lon="0.03073">
        <ele>67.14</ele>
        <time>2021-08-08T16:11:28Z</time>
      </trkpt>
      <trkpt lat="48.97964" lon="0.03066">
        <ele>67.18</ele>
        <time>2021-08-08T16:11:29Z</time>
      </trkpt>
      <trkpt lat="48.97968" lon="0.03059">
        <ele>67.15</ele>
        <time>2021-08-08T16:11:30Z</time>
      </trkpt>
      <trkpt lat="48.97973" lon="0.03053">
        <ele>67.04</ele>
        <time>2021-08-08T16:11:31Z</time>
      </trkpt>
      <trkpt lat="48.97977" lon="0.03047">
        <ele>67.01</ele>
        <time>2021-08-08T16:11:32Z</time>
      </trkpt>
      <trkpt lat="48.97981" lon="0.03041">
        <ele>67</ele>
        <time>2021-08-08T16:11:33Z</time>
      </trkpt>
      <trkpt lat="48.97985" lon="0.03034">
        <ele>67</ele>
        <time>2021-08-08T16:11:34Z</time>
      </trkpt>
      <trkpt lat="48.97989" lon="0.03027">
        <ele>67</ele>
        <time>2021-08-08T16:11:35Z</time>
      </trkpt>
      <trkpt lat="48.97994" lon="0.03021">
        <ele>67.04</ele>
        <time>2021-08-08T16:11:36Z</time>
      </trkpt>
      <trkpt lat="48.97999" lon="0.03015">
        <ele>67.03</ele>
        <time>2021-08-08T16:11:37Z</time>
      </trkpt>
      <trkpt lat="48.98003" lon="0.03009">
        <ele>66.98</ele>
        <time>2021-08-08T16:11:38Z</time>
      </trkpt>
      <trkpt lat="48.98007" lon="0.03003">
        <ele>66.98</ele>
        <time>2021-08-08T16:11:39Z</time>
      </trkpt>
      <trkpt lat="48.98012" lon="0.02997">
        <ele>66.99</ele>
        <time>2021-08-08T16:11:40Z</time>
      </trkpt>
      <trkpt lat="48.98016" lon="0.02992">
        <ele>67</ele>
        <time>2021-08-08T16:11:41Z</time>
      </trkpt>
      <trkpt lat="48.98021" lon="0.02986">
        <ele>67</ele>
        <time>2021-08-08T16:11:42Z</time>
      </trkpt>
      <trkpt lat="48.98025" lon="0.0298">
        <ele>67</ele>
        <time>2021-08-08T16:11:43Z</time>
      </trkpt>
      <trkpt lat="48.9803" lon="0.02975">
        <ele>66.99</ele>
        <time>2021-08-08T16:11:44Z</time>
      </trkpt>
      <trkpt lat="48.98035" lon="0.0297">
        <ele>67.04</ele>
        <time>2021-08-08T16:11:45Z</time>
      </trkpt>
      <trkpt lat="48.98039" lon="0.02965">
        <ele>67.13</ele>
        <time>2021-08-08T16:11:46Z</time>
      </trkpt>
      <trkpt lat="48.98043" lon="0.02959">
        <ele>67.19</ele>
        <time>2021-08-08T16:11:47Z</time>
      </trkpt>
      <trkpt lat="48.98047" lon="0.02955">
        <ele>67.19</ele>
        <time>2021-08-08T16:11:48Z</time>
      </trkpt>
      <trkpt lat="48.98051" lon="0.0295">
        <ele>67.15</ele>
        <time>2021-08-08T16:11:49Z</time>
      </trkpt>
      <trkpt lat="48.98054" lon="0.02946">
        <ele>67.07</ele>
        <time>2021-08-08T16:11:50Z</time>
      </trkpt>
      <trkpt lat="48.98057" lon="0.02942">
        <ele>67.08</ele>
        <time>2021-08-08T16:11:51Z</time>
      </trkpt>
      <trkpt lat="48.9806" lon="0.02939">
        <ele>67.16</ele>
        <time>2021-08-08T16:11:52Z</time>
      </trkpt>
      <trkpt lat="48.98062" lon="0.02937">
        <ele>67.22</ele>
        <time>2021-08-08T16:11:53Z</time>
      </trkpt>
      <trkpt lat="48.98063" lon="0.02936">
        <ele>67.28</ele>
        <time>2021-08-08T16:11:54Z</time>
      </trkpt>
      <trkpt lat="48.98065" lon="0.02935">
        <ele>67.32</ele>
        <time>2021-08-08T16:11:55Z</time>
      </trkpt>
      <trkpt lat="48.98067" lon="0.02932">
        <ele>67.4</ele>
        <time>2021-08-08T16:11:56Z</time>
      </trkpt>
      <trkpt lat="48.98069" lon="0.02929">
        <ele>67.51</ele>
        <time>2021-08-08T16:11:57Z</time>
      </trkpt>
      <trkpt lat="48.98071" lon="0.02926">
        <ele>67.61</ele>
        <time>2021-08-08T16:11:58Z</time>
      </trkpt>
      <trkpt lat="48.98073" lon="0.02923">
        <ele>67.72</ele>
        <time>2021-08-08T16:11:59Z</time>
      </trkpt>
      <trkpt lat="48.98075" lon="0.0292">
        <ele>67.83</ele>
        <time>2021-08-08T16:12:00Z</time>
      </trkpt>
      <trkpt lat="48.98077" lon="0.02917">
        <ele>67.95</ele>
        <time>2021-08-08T16:12:01Z</time>
      </trkpt>
      <trkpt lat="48.98079" lon="0.02913">
        <ele>68.07</ele>
        <time>2021-08-08T16:12:02Z</time>
      </trkpt>
      <trkpt lat="48.98082" lon="0.0291">
        <ele>68.2</ele>
        <time>2021-08-08T16:12:03Z</time>
      </trkpt>
      <trkpt lat="48.98083" lon="0.02906">
        <ele>68.33</ele>
        <time>2021-08-08T16:12:04Z</time>
      </trkpt>
      <trkpt lat="48.98085" lon="0.02902">
        <ele>68.44</ele>
        <time>2021-08-08T16:12:05Z</time>
      </trkpt>
      <trkpt lat="48.98087" lon="0.02899">
        <ele>68.52</ele>
        <time>2021-08-08T16:12:06Z</time>
      </trkpt>
      <trkpt lat="48.9809" lon="0.02895">
        <ele>68.56</ele>
        <time>2021-08-08T16:12:07Z</time>
      </trkpt>
      <trkpt lat="48.98093" lon="0.02892">
        <ele>68.57</ele>
        <time>2021-08-08T16:12:08Z</time>
      </trkpt>
      <trkpt lat="48.98095" lon="0.02889">
        <ele>68.56</ele>
        <time>2021-08-08T16:12:09Z</time>
      </trkpt>
      <trkpt lat="48.98098" lon="0.02886">
        <ele>68.55</ele>
        <time>2021-08-08T16:12:10Z</time>
      </trkpt>
      <trkpt lat="48.981" lon="0.02882">
        <ele>68.55</ele>
        <time>2021-08-08T16:12:11Z</time>
      </trkpt>
      <trkpt lat="48.98104" lon="0.02878">
        <ele>68.56</ele>
        <time>2021-08-08T16:12:12Z</time>
      </trkpt>
      <trkpt lat="48.98107" lon="0.02874">
        <ele>68.59</ele>
        <time>2021-08-08T16:12:13Z</time>
      </trkpt>
      <trkpt lat="48.9811" lon="0.0287">
        <ele>68.66</ele>
        <time>2021-08-08T16:12:14Z</time>
      </trkpt>
      <trkpt lat="48.98112" lon="0.02866">
        <ele>68.77</ele>
        <time>2021-08-08T16:12:15Z</time>
      </trkpt>
      <trkpt lat="48.98114" lon="0.02862">
        <ele>68.92</ele>
        <time>2021-08-08T16:12:16Z</time>
      </trkpt>
      <trkpt lat="48.98116" lon="0.02858">
        <ele>69.06</ele>
        <time>2021-08-08T16:12:17Z</time>
      </trkpt>
      <trkpt lat="48.98118" lon="0.02854">
        <ele>69.2</ele>
        <time>2021-08-08T16:12:18Z</time>
      </trkpt>
      <trkpt lat="48.98121" lon="0.02849">
        <ele>69.37</ele>
        <time>2021-08-08T16:12:19Z</time>
      </trkpt>
      <trkpt lat="48.98123" lon="0.02845">
        <ele>69.52</ele>
        <time>2021-08-08T16:12:20Z</time>
      </trkpt>
      <trkpt lat="48.98125" lon="0.02841">
        <ele>69.66</ele>
        <time>2021-08-08T16:12:21Z</time>
      </trkpt>
      <trkpt lat="48.98129" lon="0.02837">
        <ele>69.8</ele>
        <time>2021-08-08T16:12:22Z</time>
      </trkpt>
      <trkpt lat="48.98133" lon="0.02833">
        <ele>69.95</ele>
        <time>2021-08-08T16:12:23Z</time>
      </trkpt>
      <trkpt lat="48.98136" lon="0.02828">
        <ele>70.12</ele>
        <time>2021-08-08T16:12:24Z</time>
      </trkpt>
      <trkpt lat="48.9814" lon="0.02823">
        <ele>70.29</ele>
        <time>2021-08-08T16:12:25Z</time>
      </trkpt>
      <trkpt lat="48.98144" lon="0.02818">
        <ele>70.47</ele>
        <time>2021-08-08T16:12:26Z</time>
      </trkpt>
      <trkpt lat="48.98147" lon="0.02814">
        <ele>70.63</ele>
        <time>2021-08-08T16:12:27Z</time>
      </trkpt>
      <trkpt lat="48.98149" lon="0.02811">
        <ele>70.75</ele>
        <time>2021-08-08T16:12:28Z</time>
      </trkpt>
      <trkpt lat="48.9815" lon="0.02808">
        <ele>70.86</ele>
        <time>2021-08-08T16:12:29Z</time>
      </trkpt>
      <trkpt lat="48.98151" lon="0.02804">
        <ele>70.98</ele>
        <time>2021-08-08T16:12:30Z</time>
      </trkpt>
      <trkpt lat="48.98152" lon="0.02801">
        <ele>71.06</ele>
        <time>2021-08-08T16:12:31Z</time>
      </trkpt>
      <trkpt lat="48.98154" lon="0.02797">
        <ele>71.12</ele>
        <time>2021-08-08T16:12:32Z</time>
      </trkpt>
      <trkpt lat="48.98156" lon="0.02793">
        <ele>71.16</ele>
        <time>2021-08-08T16:12:33Z</time>
      </trkpt>
      <trkpt lat="48.98157" lon="0.02789">
        <ele>71.19</ele>
        <time>2021-08-08T16:12:34Z</time>
      </trkpt>
      <trkpt lat="48.9816" lon="0.02786">
        <ele>71.18</ele>
        <time>2021-08-08T16:12:35Z</time>
      </trkpt>
      <trkpt lat="48.98162" lon="0.02782">
        <ele>71.14</ele>
        <time>2021-08-08T16:12:36Z</time>
      </trkpt>
      <trkpt lat="48.98164" lon="0.02778">
        <ele>71.12</ele>
        <time>2021-08-08T16:12:37Z</time>
      </trkpt>
      <trkpt lat="48.98165" lon="0.02772">
        <ele>71.2</ele>
        <time>2021-08-08T16:12:38Z</time>
      </trkpt>
      <trkpt lat="48.98167" lon="0.02768">
        <ele>71.31</ele>
        <time>2021-08-08T16:12:39Z</time>
      </trkpt>
      <trkpt lat="48.9817" lon="0.02764">
        <ele>71.45</ele>
        <time>2021-08-08T16:12:40Z</time>
      </trkpt>
      <trkpt lat="48.98174" lon="0.02756">
        <ele>71.67</ele>
        <time>2021-08-08T16:12:42Z</time>
      </trkpt>
      <trkpt lat="48.98176" lon="0.02752">
        <ele>71.84</ele>
        <time>2021-08-08T16:12:43Z</time>
      </trkpt>
      <trkpt lat="48.98179" lon="0.02748">
        <ele>72</ele>
        <time>2021-08-08T16:12:44Z</time>
      </trkpt>
      <trkpt lat="48.98181" lon="0.02745">
        <ele>72.13</ele>
        <time>2021-08-08T16:12:45Z</time>
      </trkpt>
      <trkpt lat="48.98183" lon="0.02741">
        <ele>72.27</ele>
        <time>2021-08-08T16:12:46Z</time>
      </trkpt>
      <trkpt lat="48.98184" lon="0.02737">
        <ele>72.42</ele>
        <time>2021-08-08T16:12:47Z</time>
      </trkpt>
      <trkpt lat="48.98186" lon="0.02733">
        <ele>72.55</ele>
        <time>2021-08-08T16:12:48Z</time>
      </trkpt>
      <trkpt lat="48.98188" lon="0.0273">
        <ele>72.68</ele>
        <time>2021-08-08T16:12:49Z</time>
      </trkpt>
      <trkpt lat="48.9819" lon="0.02726">
        <ele>72.8</ele>
        <time>2021-08-08T16:12:50Z</time>
      </trkpt>
      <trkpt lat="48.9819" lon="0.02723">
        <ele>72.91</ele>
        <time>2021-08-08T16:12:51Z</time>
      </trkpt>
      <trkpt lat="48.98192" lon="0.02721">
        <ele>73.01</ele>
        <time>2021-08-08T16:12:52Z</time>
      </trkpt>
      <trkpt lat="48.98193" lon="0.02718">
        <ele>73.11</ele>
        <time>2021-08-08T16:12:53Z</time>
      </trkpt>
      <trkpt lat="48.98195" lon="0.02715">
        <ele>73.2</ele>
        <time>2021-08-08T16:12:54Z</time>
      </trkpt>
      <trkpt lat="48.98196" lon="0.02713">
        <ele>73.26</ele>
        <time>2021-08-08T16:12:55Z</time>
      </trkpt>
      <trkpt lat="48.98198" lon="0.02708">
        <ele>73.33</ele>
        <time>2021-08-08T16:12:56Z</time>
      </trkpt>
      <trkpt lat="48.982" lon="0.02703">
        <ele>73.42</ele>
        <time>2021-08-08T16:12:57Z</time>
      </trkpt>
      <trkpt lat="48.98203" lon="0.02699">
        <ele>73.5</ele>
        <time>2021-08-08T16:12:58Z</time>
      </trkpt>
      <trkpt lat="48.98205" lon="0.02695">
        <ele>73.58</ele>
        <time>2021-08-08T16:12:59Z</time>
      </trkpt>
      <trkpt lat="48.98207" lon="0.02691">
        <ele>73.6</ele>
        <time>2021-08-08T16:13:00Z</time>
      </trkpt>
      <trkpt lat="48.98208" lon="0.02687">
        <ele>73.63</ele>
        <time>2021-08-08T16:13:01Z</time>
      </trkpt>
      <trkpt lat="48.9821" lon="0.02682">
        <ele>73.68</ele>
        <time>2021-08-08T16:13:02Z</time>
      </trkpt>
      <trkpt lat="48.98211" lon="0.02677">
        <ele>73.75</ele>
        <time>2021-08-08T16:13:03Z</time>
      </trkpt>
      <trkpt lat="48.98213" lon="0.02673">
        <ele>73.82</ele>
        <time>2021-08-08T16:13:04Z</time>
      </trkpt>
      <trkpt lat="48.98214" lon="0.02668">
        <ele>73.92</ele>
        <time>2021-08-08T16:13:05Z</time>
      </trkpt>
      <trkpt lat="48.98216" lon="0.02664">
        <ele>74.04</ele>
        <time>2021-08-08T16:13:06Z</time>
      </trkpt>
      <trkpt lat="48.98218" lon="0.0266">
        <ele>74.19</ele>
        <time>2021-08-08T16:13:07Z</time>
      </trkpt>
      <trkpt lat="48.9822" lon="0.02656">
        <ele>74.32</ele>
        <time>2021-08-08T16:13:08Z</time>
      </trkpt>
      <trkpt lat="48.98222" lon="0.02653">
        <ele>74.44</ele>
        <time>2021-08-08T16:13:09Z</time>
      </trkpt>
      <trkpt lat="48.98223" lon="0.0265">
        <ele>74.54</ele>
        <time>2021-08-08T16:13:10Z</time>
      </trkpt>
      <trkpt lat="48.98225" lon="0.02645">
        <ele>74.65</ele>
        <time>2021-08-08T16:13:11Z</time>
      </trkpt>
      <trkpt lat="48.98227" lon="0.02641">
        <ele>74.73</ele>
        <time>2021-08-08T16:13:12Z</time>
      </trkpt>
      <trkpt lat="48.98228" lon="0.02637">
        <ele>74.83</ele>
        <time>2021-08-08T16:13:13Z</time>
      </trkpt>
      <trkpt lat="48.9823" lon="0.02631">
        <ele>74.97</ele>
        <time>2021-08-08T16:13:14Z</time>
      </trkpt>
      <trkpt lat="48.98231" lon="0.02624">
        <ele>75.12</ele>
        <time>2021-08-08T16:13:15Z</time>
      </trkpt>
      <trkpt lat="48.98233" lon="0.0262">
        <ele>75.25</ele>
        <time>2021-08-08T16:13:16Z</time>
      </trkpt>
      <trkpt lat="48.98234" lon="0.02616">
        <ele>75.36</ele>
        <time>2021-08-08T16:13:17Z</time>
      </trkpt>
      <trkpt lat="48.98235" lon="0.02611">
        <ele>75.48</ele>
        <time>2021-08-08T16:13:18Z</time>
      </trkpt>
      <trkpt lat="48.98236" lon="0.02607">
        <ele>75.54</ele>
        <time>2021-08-08T16:13:19Z</time>
      </trkpt>
      <trkpt lat="48.98237" lon="0.02602">
        <ele>75.6</ele>
        <time>2021-08-08T16:13:20Z</time>
      </trkpt>
      <trkpt lat="48.98239" lon="0.02598">
        <ele>75.66</ele>
        <time>2021-08-08T16:13:21Z</time>
      </trkpt>
      <trkpt lat="48.98239" lon="0.02593">
        <ele>75.74</ele>
        <time>2021-08-08T16:13:22Z</time>
      </trkpt>
      <trkpt lat="48.98241" lon="0.02588">
        <ele>75.84</ele>
        <time>2021-08-08T16:13:23Z</time>
      </trkpt>
      <trkpt lat="48.98242" lon="0.02582">
        <ele>75.98</ele>
        <time>2021-08-08T16:13:24Z</time>
      </trkpt>
      <trkpt lat="48.98243" lon="0.02577">
        <ele>76.14</ele>
        <time>2021-08-08T16:13:25Z</time>
      </trkpt>
      <trkpt lat="48.98244" lon="0.02573">
        <ele>76.3</ele>
        <time>2021-08-08T16:13:26Z</time>
      </trkpt>
      <trkpt lat="48.98246" lon="0.0257">
        <ele>76.43</ele>
        <time>2021-08-08T16:13:27Z</time>
      </trkpt>
      <trkpt lat="48.98247" lon="0.02567">
        <ele>76.54</ele>
        <time>2021-08-08T16:13:28Z</time>
      </trkpt>
      <trkpt lat="48.98248" lon="0.02565">
        <ele>76.64</ele>
        <time>2021-08-08T16:13:29Z</time>
      </trkpt>
      <trkpt lat="48.98249" lon="0.02563">
        <ele>76.71</ele>
        <time>2021-08-08T16:13:30Z</time>
      </trkpt>
      <trkpt lat="48.9825" lon="0.02561">
        <ele>76.78</ele>
        <time>2021-08-08T16:13:31Z</time>
      </trkpt>
      <trkpt lat="48.98251" lon="0.02559">
        <ele>76.86</ele>
        <time>2021-08-08T16:13:32Z</time>
      </trkpt>
      <trkpt lat="48.98252" lon="0.02556">
        <ele>76.95</ele>
        <time>2021-08-08T16:13:33Z</time>
      </trkpt>
      <trkpt lat="48.98253" lon="0.02553">
        <ele>76.99</ele>
        <time>2021-08-08T16:13:34Z</time>
      </trkpt>
      <trkpt lat="48.98256" lon="0.02549">
        <ele>77</ele>
        <time>2021-08-08T16:13:35Z</time>
      </trkpt>
      <trkpt lat="48.98257" lon="0.02546">
        <ele>77</ele>
        <time>2021-08-08T16:13:36Z</time>
      </trkpt>
      <trkpt lat="48.98259" lon="0.02543">
        <ele>77</ele>
        <time>2021-08-08T16:13:37Z</time>
      </trkpt>
      <trkpt lat="48.9826" lon="0.02541">
        <ele>77</ele>
        <time>2021-08-08T16:13:38Z</time>
      </trkpt>
      <trkpt lat="48.9826" lon="0.02539">
        <ele>77</ele>
        <time>2021-08-08T16:13:39Z</time>
      </trkpt>
      <trkpt lat="48.98261" lon="0.02537">
        <ele>77</ele>
        <time>2021-08-08T16:13:40Z</time>
      </trkpt>
      <trkpt lat="48.98262" lon="0.02535">
        <ele>77</ele>
        <time>2021-08-08T16:13:41Z</time>
      </trkpt>
      <trkpt lat="48.98262" lon="0.02531">
        <ele>77</ele>
        <time>2021-08-08T16:13:42Z</time>
      </trkpt>
      <trkpt lat="48.98263" lon="0.02528">
        <ele>77</ele>
        <time>2021-08-08T16:13:43Z</time>
      </trkpt>
      <trkpt lat="48.98266" lon="0.02524">
        <ele>77.1</ele>
        <time>2021-08-08T16:13:44Z</time>
      </trkpt>
      <trkpt lat="48.98268" lon="0.02519">
        <ele>77.26</ele>
        <time>2021-08-08T16:13:45Z</time>
      </trkpt>
      <trkpt lat="48.9827" lon="0.02514">
        <ele>77.43</ele>
        <time>2021-08-08T16:13:46Z</time>
      </trkpt>
      <trkpt lat="48.98272" lon="0.02509">
        <ele>77.6</ele>
        <time>2021-08-08T16:13:47Z</time>
      </trkpt>
      <trkpt lat="48.98275" lon="0.02506">
        <ele>77.74</ele>
        <time>2021-08-08T16:13:48Z</time>
      </trkpt>
      <trkpt lat="48.98277" lon="0.02501">
        <ele>77.9</ele>
        <time>2021-08-08T16:13:49Z</time>
      </trkpt>
      <trkpt lat="48.98278" lon="0.02496">
        <ele>77.96</ele>
        <time>2021-08-08T16:13:50Z</time>
      </trkpt>
      <trkpt lat="48.9828" lon="0.02492">
        <ele>77.95</ele>
        <time>2021-08-08T16:13:51Z</time>
      </trkpt>
      <trkpt lat="48.98281" lon="0.02488">
        <ele>77.94</ele>
        <time>2021-08-08T16:13:52Z</time>
      </trkpt>
      <trkpt lat="48.98283" lon="0.02484">
        <ele>77.93</ele>
        <time>2021-08-08T16:13:53Z</time>
      </trkpt>
      <trkpt lat="48.98284" lon="0.0248">
        <ele>77.93</ele>
        <time>2021-08-08T16:13:54Z</time>
      </trkpt>
      <trkpt lat="48.98286" lon="0.02476">
        <ele>77.95</ele>
        <time>2021-08-08T16:13:55Z</time>
      </trkpt>
      <trkpt lat="48.98288" lon="0.02472">
        <ele>77.99</ele>
        <time>2021-08-08T16:13:56Z</time>
      </trkpt>
      <trkpt lat="48.98289" lon="0.02467">
        <ele>78.07</ele>
        <time>2021-08-08T16:13:57Z</time>
      </trkpt>
      <trkpt lat="48.98291" lon="0.02463">
        <ele>78.15</ele>
        <time>2021-08-08T16:13:58Z</time>
      </trkpt>
      <trkpt lat="48.98292" lon="0.02459">
        <ele>78.2</ele>
        <time>2021-08-08T16:13:59Z</time>
      </trkpt>
      <trkpt lat="48.98295" lon="0.02455">
        <ele>78.23</ele>
        <time>2021-08-08T16:14:00Z</time>
      </trkpt>
      <trkpt lat="48.98296" lon="0.0245">
        <ele>78.26</ele>
        <time>2021-08-08T16:14:01Z</time>
      </trkpt>
      <trkpt lat="48.98298" lon="0.02444">
        <ele>78.27</ele>
        <time>2021-08-08T16:14:02Z</time>
      </trkpt>
      <trkpt lat="48.98299" lon="0.02439">
        <ele>78.34</ele>
        <time>2021-08-08T16:14:03Z</time>
      </trkpt>
      <trkpt lat="48.98301" lon="0.02434">
        <ele>78.44</ele>
        <time>2021-08-08T16:14:04Z</time>
      </trkpt>
      <trkpt lat="48.98302" lon="0.02429">
        <ele>78.56</ele>
        <time>2021-08-08T16:14:05Z</time>
      </trkpt>
      <trkpt lat="48.98304" lon="0.02425">
        <ele>78.67</ele>
        <time>2021-08-08T16:14:06Z</time>
      </trkpt>
      <trkpt lat="48.98305" lon="0.02421">
        <ele>78.8</ele>
        <time>2021-08-08T16:14:07Z</time>
      </trkpt>
      <trkpt lat="48.98306" lon="0.02416">
        <ele>78.93</ele>
        <time>2021-08-08T16:14:08Z</time>
      </trkpt>
      <trkpt lat="48.98307" lon="0.02411">
        <ele>78.95</ele>
        <time>2021-08-08T16:14:09Z</time>
      </trkpt>
      <trkpt lat="48.98308" lon="0.02407">
        <ele>78.93</ele>
        <time>2021-08-08T16:14:10Z</time>
      </trkpt>
      <trkpt lat="48.98309" lon="0.02402">
        <ele>78.9</ele>
        <time>2021-08-08T16:14:11Z</time>
      </trkpt>
      <trkpt lat="48.98309" lon="0.02398">
        <ele>78.87</ele>
        <time>2021-08-08T16:14:12Z</time>
      </trkpt>
      <trkpt lat="48.9831" lon="0.02394">
        <ele>78.85</ele>
        <time>2021-08-08T16:14:13Z</time>
      </trkpt>
      <trkpt lat="48.98311" lon="0.0239">
        <ele>78.83</ele>
        <time>2021-08-08T16:14:14Z</time>
      </trkpt>
      <trkpt lat="48.98311" lon="0.02387">
        <ele>78.81</ele>
        <time>2021-08-08T16:14:15Z</time>
      </trkpt>
      <trkpt lat="48.98311" lon="0.02383">
        <ele>78.8</ele>
        <time>2021-08-08T16:14:16Z</time>
      </trkpt>
      <trkpt lat="48.98312" lon="0.02379">
        <ele>78.78</ele>
        <time>2021-08-08T16:14:17Z</time>
      </trkpt>
      <trkpt lat="48.98313" lon="0.02376">
        <ele>78.75</ele>
        <time>2021-08-08T16:14:18Z</time>
      </trkpt>
      <trkpt lat="48.98314" lon="0.02372">
        <ele>78.72</ele>
        <time>2021-08-08T16:14:19Z</time>
      </trkpt>
      <trkpt lat="48.98314" lon="0.02369">
        <ele>78.7</ele>
        <time>2021-08-08T16:14:20Z</time>
      </trkpt>
      <trkpt lat="48.98315" lon="0.02365">
        <ele>78.68</ele>
        <time>2021-08-08T16:14:21Z</time>
      </trkpt>
      <trkpt lat="48.98315" lon="0.02362">
        <ele>78.67</ele>
        <time>2021-08-08T16:14:22Z</time>
      </trkpt>
      <trkpt lat="48.98315" lon="0.02358">
        <ele>78.73</ele>
        <time>2021-08-08T16:14:23Z</time>
      </trkpt>
      <trkpt lat="48.98315" lon="0.02355">
        <ele>78.81</ele>
        <time>2021-08-08T16:14:24Z</time>
      </trkpt>
      <trkpt lat="48.98315" lon="0.02353">
        <ele>78.91</ele>
        <time>2021-08-08T16:14:25Z</time>
      </trkpt>
      <trkpt lat="48.98316" lon="0.0235">
        <ele>78.99</ele>
        <time>2021-08-08T16:14:26Z</time>
      </trkpt>
      <trkpt lat="48.98317" lon="0.02347">
        <ele>79.07</ele>
        <time>2021-08-08T16:14:27Z</time>
      </trkpt>
      <trkpt lat="48.98318" lon="0.02343">
        <ele>79.16</ele>
        <time>2021-08-08T16:14:28Z</time>
      </trkpt>
      <trkpt lat="48.98318" lon="0.0234">
        <ele>79.26</ele>
        <time>2021-08-08T16:14:29Z</time>
      </trkpt>
      <trkpt lat="48.98319" lon="0.02336">
        <ele>79.38</ele>
        <time>2021-08-08T16:14:30Z</time>
      </trkpt>
      <trkpt lat="48.9832" lon="0.02332">
        <ele>79.45</ele>
        <time>2021-08-08T16:14:31Z</time>
      </trkpt>
      <trkpt lat="48.9832" lon="0.02327">
        <ele>79.46</ele>
        <time>2021-08-08T16:14:32Z</time>
      </trkpt>
      <trkpt lat="48.98321" lon="0.02323">
        <ele>79.46</ele>
        <time>2021-08-08T16:14:33Z</time>
      </trkpt>
      <trkpt lat="48.98321" lon="0.02319">
        <ele>79.44</ele>
        <time>2021-08-08T16:14:34Z</time>
      </trkpt>
      <trkpt lat="48.98322" lon="0.02316">
        <ele>79.41</ele>
        <time>2021-08-08T16:14:35Z</time>
      </trkpt>
      <trkpt lat="48.98323" lon="0.02313">
        <ele>79.39</ele>
        <time>2021-08-08T16:14:36Z</time>
      </trkpt>
      <trkpt lat="48.98324" lon="0.02309">
        <ele>79.37</ele>
        <time>2021-08-08T16:14:37Z</time>
      </trkpt>
      <trkpt lat="48.98324" lon="0.02305">
        <ele>79.36</ele>
        <time>2021-08-08T16:14:38Z</time>
      </trkpt>
      <trkpt lat="48.98325" lon="0.02301">
        <ele>79.45</ele>
        <time>2021-08-08T16:14:39Z</time>
      </trkpt>
      <trkpt lat="48.98325" lon="0.02297">
        <ele>79.57</ele>
        <time>2021-08-08T16:14:40Z</time>
      </trkpt>
      <trkpt lat="48.98324" lon="0.02293">
        <ele>79.71</ele>
        <time>2021-08-08T16:14:41Z</time>
      </trkpt>
      <trkpt lat="48.98324" lon="0.0229">
        <ele>79.85</ele>
        <time>2021-08-08T16:14:42Z</time>
      </trkpt>
      <trkpt lat="48.98324" lon="0.02285">
        <ele>80.01</ele>
        <time>2021-08-08T16:14:43Z</time>
      </trkpt>
      <trkpt lat="48.98323" lon="0.02281">
        <ele>80.17</ele>
        <time>2021-08-08T16:14:44Z</time>
      </trkpt>
      <trkpt lat="48.98323" lon="0.02277">
        <ele>80.32</ele>
        <time>2021-08-08T16:14:45Z</time>
      </trkpt>
      <trkpt lat="48.98323" lon="0.02273">
        <ele>80.43</ele>
        <time>2021-08-08T16:14:46Z</time>
      </trkpt>
      <trkpt lat="48.98323" lon="0.02269">
        <ele>80.53</ele>
        <time>2021-08-08T16:14:47Z</time>
      </trkpt>
      <trkpt lat="48.98322" lon="0.02264">
        <ele>80.64</ele>
        <time>2021-08-08T16:14:48Z</time>
      </trkpt>
      <trkpt lat="48.98322" lon="0.0226">
        <ele>80.75</ele>
        <time>2021-08-08T16:14:49Z</time>
      </trkpt>
      <trkpt lat="48.98321" lon="0.02256">
        <ele>80.85</ele>
        <time>2021-08-08T16:14:50Z</time>
      </trkpt>
      <trkpt lat="48.9832" lon="0.02251">
        <ele>80.94</ele>
        <time>2021-08-08T16:14:51Z</time>
      </trkpt>
      <trkpt lat="48.98319" lon="0.02247">
        <ele>81.06</ele>
        <time>2021-08-08T16:14:52Z</time>
      </trkpt>
      <trkpt lat="48.98318" lon="0.02243">
        <ele>81.2</ele>
        <time>2021-08-08T16:14:53Z</time>
      </trkpt>
      <trkpt lat="48.98318" lon="0.02239">
        <ele>81.33</ele>
        <time>2021-08-08T16:14:54Z</time>
      </trkpt>
      <trkpt lat="48.98318" lon="0.02236">
        <ele>81.47</ele>
        <time>2021-08-08T16:14:55Z</time>
      </trkpt>
      <trkpt lat="48.98316" lon="0.02232">
        <ele>81.58</ele>
        <time>2021-08-08T16:14:56Z</time>
      </trkpt>
      <trkpt lat="48.98315" lon="0.02229">
        <ele>81.71</ele>
        <time>2021-08-08T16:14:57Z</time>
      </trkpt>
      <trkpt lat="48.98314" lon="0.02225">
        <ele>81.85</ele>
        <time>2021-08-08T16:14:58Z</time>
      </trkpt>
      <trkpt lat="48.98314" lon="0.02219">
        <ele>81.95</ele>
        <time>2021-08-08T16:14:59Z</time>
      </trkpt>
      <trkpt lat="48.98314" lon="0.02214">
        <ele>81.99</ele>
        <time>2021-08-08T16:15:00Z</time>
      </trkpt>
      <trkpt lat="48.98313" lon="0.0221">
        <ele>82</ele>
        <time>2021-08-08T16:15:01Z</time>
      </trkpt>
      <trkpt lat="48.98313" lon="0.02205">
        <ele>82</ele>
        <time>2021-08-08T16:15:02Z</time>
      </trkpt>
      <trkpt lat="48.98314" lon="0.02201">
        <ele>82</ele>
        <time>2021-08-08T16:15:03Z</time>
      </trkpt>
      <trkpt lat="48.98314" lon="0.02197">
        <ele>82</ele>
        <time>2021-08-08T16:15:04Z</time>
      </trkpt>
      <trkpt lat="48.98314" lon="0.02193">
        <ele>82.04</ele>
        <time>2021-08-08T16:15:05Z</time>
      </trkpt>
      <trkpt lat="48.98313" lon="0.0219">
        <ele>82.12</ele>
        <time>2021-08-08T16:15:06Z</time>
      </trkpt>
      <trkpt lat="48.98312" lon="0.02187">
        <ele>82.24</ele>
        <time>2021-08-08T16:15:07Z</time>
      </trkpt>
      <trkpt lat="48.98312" lon="0.02183">
        <ele>82.36</ele>
        <time>2021-08-08T16:15:08Z</time>
      </trkpt>
      <trkpt lat="48.98311" lon="0.02179">
        <ele>82.49</ele>
        <time>2021-08-08T16:15:09Z</time>
      </trkpt>
      <trkpt lat="48.98312" lon="0.02176">
        <ele>82.6</ele>
        <time>2021-08-08T16:15:10Z</time>
      </trkpt>
      <trkpt lat="48.98312" lon="0.02174">
        <ele>82.7</ele>
        <time>2021-08-08T16:15:11Z</time>
      </trkpt>
      <trkpt lat="48.98312" lon="0.02171">
        <ele>82.8</ele>
        <time>2021-08-08T16:15:12Z</time>
      </trkpt>
      <trkpt lat="48.98312" lon="0.02168">
        <ele>82.89</ele>
        <time>2021-08-08T16:15:13Z</time>
      </trkpt>
      <trkpt lat="48.98311" lon="0.02165">
        <ele>83</ele>
        <time>2021-08-08T16:15:14Z</time>
      </trkpt>
      <trkpt lat="48.9831" lon="0.02162">
        <ele>83.11</ele>
        <time>2021-08-08T16:15:15Z</time>
      </trkpt>
      <trkpt lat="48.98309" lon="0.02158">
        <ele>83.26</ele>
        <time>2021-08-08T16:15:16Z</time>
      </trkpt>
      <trkpt lat="48.98308" lon="0.02153">
        <ele>83.41</ele>
        <time>2021-08-08T16:15:17Z</time>
      </trkpt>
      <trkpt lat="48.98307" lon="0.02149">
        <ele>83.58</ele>
        <time>2021-08-08T16:15:18Z</time>
      </trkpt>
      <trkpt lat="48.98306" lon="0.02144">
        <ele>83.75</ele>
        <time>2021-08-08T16:15:19Z</time>
      </trkpt>
      <trkpt lat="48.98305" lon="0.02139">
        <ele>83.91</ele>
        <time>2021-08-08T16:15:20Z</time>
      </trkpt>
      <trkpt lat="48.98305" lon="0.02135">
        <ele>83.95</ele>
        <time>2021-08-08T16:15:21Z</time>
      </trkpt>
      <trkpt lat="48.98305" lon="0.02131">
        <ele>83.97</ele>
        <time>2021-08-08T16:15:22Z</time>
      </trkpt>
      <trkpt lat="48.98305" lon="0.02127">
        <ele>83.97</ele>
        <time>2021-08-08T16:15:23Z</time>
      </trkpt>
      <trkpt lat="48.98305" lon="0.02122">
        <ele>83.96</ele>
        <time>2021-08-08T16:15:24Z</time>
      </trkpt>
      <trkpt lat="48.98305" lon="0.02118">
        <ele>83.96</ele>
        <time>2021-08-08T16:15:25Z</time>
      </trkpt>
      <trkpt lat="48.98304" lon="0.02112">
        <ele>83.96</ele>
        <time>2021-08-08T16:15:26Z</time>
      </trkpt>
      <trkpt lat="48.98305" lon="0.02106">
        <ele>83.96</ele>
        <time>2021-08-08T16:15:27Z</time>
      </trkpt>
      <trkpt lat="48.98304" lon="0.021">
        <ele>83.96</ele>
        <time>2021-08-08T16:15:28Z</time>
      </trkpt>
      <trkpt lat="48.98305" lon="0.02095">
        <ele>83.96</ele>
        <time>2021-08-08T16:15:29Z</time>
      </trkpt>
      <trkpt lat="48.98305" lon="0.02089">
        <ele>83.96</ele>
        <time>2021-08-08T16:15:30Z</time>
      </trkpt>
      <trkpt lat="48.98305" lon="0.02083">
        <ele>83.99</ele>
        <time>2021-08-08T16:15:31Z</time>
      </trkpt>
      <trkpt lat="48.98305" lon="0.02076">
        <ele>84.17</ele>
        <time>2021-08-08T16:15:32Z</time>
      </trkpt>
      <trkpt lat="48.98306" lon="0.0207">
        <ele>84.41</ele>
        <time>2021-08-08T16:15:33Z</time>
      </trkpt>
      <trkpt lat="48.98307" lon="0.02063">
        <ele>84.68</ele>
        <time>2021-08-08T16:15:34Z</time>
      </trkpt>
      <trkpt lat="48.98308" lon="0.02056">
        <ele>84.95</ele>
        <time>2021-08-08T16:15:35Z</time>
      </trkpt>
      <trkpt lat="48.98309" lon="0.02049">
        <ele>85.08</ele>
        <time>2021-08-08T16:15:36Z</time>
      </trkpt>
      <trkpt lat="48.98311" lon="0.02043">
        <ele>85.15</ele>
        <time>2021-08-08T16:15:37Z</time>
      </trkpt>
      <trkpt lat="48.98312" lon="0.02036">
        <ele>85.2</ele>
        <time>2021-08-08T16:15:38Z</time>
      </trkpt>
      <trkpt lat="48.98313" lon="0.02029">
        <ele>85.25</ele>
        <time>2021-08-08T16:15:39Z</time>
      </trkpt>
      <trkpt lat="48.98314" lon="0.02022">
        <ele>85.3</ele>
        <time>2021-08-08T16:15:40Z</time>
      </trkpt>
      <trkpt lat="48.98316" lon="0.02016">
        <ele>85.35</ele>
        <time>2021-08-08T16:15:41Z</time>
      </trkpt>
      <trkpt lat="48.98318" lon="0.02009">
        <ele>85.41</ele>
        <time>2021-08-08T16:15:42Z</time>
      </trkpt>
      <trkpt lat="48.9832" lon="0.02001">
        <ele>85.48</ele>
        <time>2021-08-08T16:15:43Z</time>
      </trkpt>
      <trkpt lat="48.98321" lon="0.01995">
        <ele>85.53</ele>
        <time>2021-08-08T16:15:44Z</time>
      </trkpt>
      <trkpt lat="48.98322" lon="0.01988">
        <ele>85.58</ele>
        <time>2021-08-08T16:15:45Z</time>
      </trkpt>
      <trkpt lat="48.98323" lon="0.0198">
        <ele>85.62</ele>
        <time>2021-08-08T16:15:46Z</time>
      </trkpt>
      <trkpt lat="48.98325" lon="0.01973">
        <ele>85.68</ele>
        <time>2021-08-08T16:15:47Z</time>
      </trkpt>
      <trkpt lat="48.98327" lon="0.01966">
        <ele>85.74</ele>
        <time>2021-08-08T16:15:48Z</time>
      </trkpt>
      <trkpt lat="48.9833" lon="0.01959">
        <ele>85.83</ele>
        <time>2021-08-08T16:15:49Z</time>
      </trkpt>
      <trkpt lat="48.98332" lon="0.01952">
        <ele>85.92</ele>
        <time>2021-08-08T16:15:50Z</time>
      </trkpt>
      <trkpt lat="48.98334" lon="0.01945">
        <ele>86.04</ele>
        <time>2021-08-08T16:15:51Z</time>
      </trkpt>
      <trkpt lat="48.98336" lon="0.01938">
        <ele>86.31</ele>
        <time>2021-08-08T16:15:52Z</time>
      </trkpt>
      <trkpt lat="48.98339" lon="0.0193">
        <ele>86.63</ele>
        <time>2021-08-08T16:15:53Z</time>
      </trkpt>
      <trkpt lat="48.98341" lon="0.01923">
        <ele>86.95</ele>
        <time>2021-08-08T16:15:54Z</time>
      </trkpt>
      <trkpt lat="48.98342" lon="0.01916">
        <ele>87.2</ele>
        <time>2021-08-08T16:15:55Z</time>
      </trkpt>
      <trkpt lat="48.98344" lon="0.01909">
        <ele>87.39</ele>
        <time>2021-08-08T16:15:56Z</time>
      </trkpt>
      <trkpt lat="48.98346" lon="0.01901">
        <ele>87.51</ele>
        <time>2021-08-08T16:15:57Z</time>
      </trkpt>
      <trkpt lat="48.98348" lon="0.01894">
        <ele>87.59</ele>
        <time>2021-08-08T16:15:58Z</time>
      </trkpt>
      <trkpt lat="48.98349" lon="0.01886">
        <ele>87.57</ele>
        <time>2021-08-08T16:15:59Z</time>
      </trkpt>
      <trkpt lat="48.9835" lon="0.01878">
        <ele>87.43</ele>
        <time>2021-08-08T16:16:00Z</time>
      </trkpt>
      <trkpt lat="48.9835" lon="0.0187">
        <ele>87.21</ele>
        <time>2021-08-08T16:16:01Z</time>
      </trkpt>
      <trkpt lat="48.9835" lon="0.01862">
        <ele>86.94</ele>
        <time>2021-08-08T16:16:02Z</time>
      </trkpt>
      <trkpt lat="48.98351" lon="0.01852">
        <ele>86.75</ele>
        <time>2021-08-08T16:16:03Z</time>
      </trkpt>
      <trkpt lat="48.98352" lon="0.01842">
        <ele>86.63</ele>
        <time>2021-08-08T16:16:04Z</time>
      </trkpt>
      <trkpt lat="48.98353" lon="0.01833">
        <ele>86.47</ele>
        <time>2021-08-08T16:16:05Z</time>
      </trkpt>
      <trkpt lat="48.98354" lon="0.01825">
        <ele>86.24</ele>
        <time>2021-08-08T16:16:06Z</time>
      </trkpt>
      <trkpt lat="48.98355" lon="0.01816">
        <ele>86.01</ele>
        <time>2021-08-08T16:16:07Z</time>
      </trkpt>
      <trkpt lat="48.98356" lon="0.01807">
        <ele>85.79</ele>
        <time>2021-08-08T16:16:08Z</time>
      </trkpt>
      <trkpt lat="48.98358" lon="0.01798">
        <ele>85.61</ele>
        <time>2021-08-08T16:16:09Z</time>
      </trkpt>
      <trkpt lat="48.98362" lon="0.0179">
        <ele>85.53</ele>
        <time>2021-08-08T16:16:10Z</time>
      </trkpt>
      <trkpt lat="48.98366" lon="0.01782">
        <ele>85.54</ele>
        <time>2021-08-08T16:16:11Z</time>
      </trkpt>
      <trkpt lat="48.98371" lon="0.01776">
        <ele>85.6</ele>
        <time>2021-08-08T16:16:12Z</time>
      </trkpt>
      <trkpt lat="48.98377" lon="0.0177">
        <ele>85.65</ele>
        <time>2021-08-08T16:16:13Z</time>
      </trkpt>
      <trkpt lat="48.98382" lon="0.01763">
        <ele>85.6</ele>
        <time>2021-08-08T16:16:14Z</time>
      </trkpt>
      <trkpt lat="48.98387" lon="0.01757">
        <ele>85.45</ele>
        <time>2021-08-08T16:16:15Z</time>
      </trkpt>
      <trkpt lat="48.98392" lon="0.0175">
        <ele>85.39</ele>
        <time>2021-08-08T16:16:16Z</time>
      </trkpt>
      <trkpt lat="48.98397" lon="0.01744">
        <ele>85.55</ele>
        <time>2021-08-08T16:16:17Z</time>
      </trkpt>
      <trkpt lat="48.98402" lon="0.01738">
        <ele>85.73</ele>
        <time>2021-08-08T16:16:18Z</time>
      </trkpt>
      <trkpt lat="48.98407" lon="0.01732">
        <ele>85.86</ele>
        <time>2021-08-08T16:16:19Z</time>
      </trkpt>
      <trkpt lat="48.98413" lon="0.01726">
        <ele>85.91</ele>
        <time>2021-08-08T16:16:20Z</time>
      </trkpt>
      <trkpt lat="48.98417" lon="0.01719">
        <ele>85.96</ele>
        <time>2021-08-08T16:16:21Z</time>
      </trkpt>
      <trkpt lat="48.98423" lon="0.01714">
        <ele>86.17</ele>
        <time>2021-08-08T16:16:22Z</time>
      </trkpt>
      <trkpt lat="48.98428" lon="0.01707">
        <ele>86.35</ele>
        <time>2021-08-08T16:16:23Z</time>
      </trkpt>
      <trkpt lat="48.98433" lon="0.017">
        <ele>86.43</ele>
        <time>2021-08-08T16:16:24Z</time>
      </trkpt>
      <trkpt lat="48.98438" lon="0.01693">
        <ele>86.42</ele>
        <time>2021-08-08T16:16:25Z</time>
      </trkpt>
      <trkpt lat="48.98443" lon="0.01686">
        <ele>86.33</ele>
        <time>2021-08-08T16:16:26Z</time>
      </trkpt>
      <trkpt lat="48.98448" lon="0.01679">
        <ele>86.25</ele>
        <time>2021-08-08T16:16:27Z</time>
      </trkpt>
      <trkpt lat="48.98453" lon="0.01672">
        <ele>86.13</ele>
        <time>2021-08-08T16:16:28Z</time>
      </trkpt>
      <trkpt lat="48.98458" lon="0.01666">
        <ele>85.97</ele>
        <time>2021-08-08T16:16:29Z</time>
      </trkpt>
      <trkpt lat="48.98463" lon="0.01658">
        <ele>85.78</ele>
        <time>2021-08-08T16:16:30Z</time>
      </trkpt>
      <trkpt lat="48.98467" lon="0.0165">
        <ele>85.56</ele>
        <time>2021-08-08T16:16:31Z</time>
      </trkpt>
      <trkpt lat="48.98472" lon="0.01642">
        <ele>85.34</ele>
        <time>2021-08-08T16:16:32Z</time>
      </trkpt>
      <trkpt lat="48.98477" lon="0.01634">
        <ele>84.84</ele>
        <time>2021-08-08T16:16:33Z</time>
      </trkpt>
      <trkpt lat="48.98482" lon="0.01626">
        <ele>84.24</ele>
        <time>2021-08-08T16:16:34Z</time>
      </trkpt>
      <trkpt lat="48.98487" lon="0.01618">
        <ele>83.57</ele>
        <time>2021-08-08T16:16:35Z</time>
      </trkpt>
      <trkpt lat="48.98492" lon="0.0161">
        <ele>82.94</ele>
        <time>2021-08-08T16:16:36Z</time>
      </trkpt>
      <trkpt lat="48.98497" lon="0.01602">
        <ele>82.68</ele>
        <time>2021-08-08T16:16:37Z</time>
      </trkpt>
      <trkpt lat="48.98502" lon="0.01594">
        <ele>82.5</ele>
        <time>2021-08-08T16:16:38Z</time>
      </trkpt>
      <trkpt lat="48.98508" lon="0.01587">
        <ele>82.25</ele>
        <time>2021-08-08T16:16:39Z</time>
      </trkpt>
      <trkpt lat="48.98514" lon="0.01578">
        <ele>81.95</ele>
        <time>2021-08-08T16:16:40Z</time>
      </trkpt>
      <trkpt lat="48.9852" lon="0.0157">
        <ele>81.64</ele>
        <time>2021-08-08T16:16:41Z</time>
      </trkpt>
      <trkpt lat="48.98526" lon="0.01561">
        <ele>81.33</ele>
        <time>2021-08-08T16:16:42Z</time>
      </trkpt>
      <trkpt lat="48.98532" lon="0.01553">
        <ele>81.03</ele>
        <time>2021-08-08T16:16:43Z</time>
      </trkpt>
      <trkpt lat="48.98538" lon="0.01545">
        <ele>80.74</ele>
        <time>2021-08-08T16:16:44Z</time>
      </trkpt>
      <trkpt lat="48.98545" lon="0.01536">
        <ele>80.43</ele>
        <time>2021-08-08T16:16:45Z</time>
      </trkpt>
      <trkpt lat="48.98551" lon="0.01527">
        <ele>80.09</ele>
        <time>2021-08-08T16:16:46Z</time>
      </trkpt>
      <trkpt lat="48.98557" lon="0.01518">
        <ele>79.53</ele>
        <time>2021-08-08T16:16:47Z</time>
      </trkpt>
      <trkpt lat="48.98564" lon="0.01508">
        <ele>78.89</ele>
        <time>2021-08-08T16:16:48Z</time>
      </trkpt>
      <trkpt lat="48.9857" lon="0.01499">
        <ele>78.23</ele>
        <time>2021-08-08T16:16:49Z</time>
      </trkpt>
      <trkpt lat="48.98576" lon="0.01489">
        <ele>77.79</ele>
        <time>2021-08-08T16:16:50Z</time>
      </trkpt>
      <trkpt lat="48.98582" lon="0.0148">
        <ele>77.44</ele>
        <time>2021-08-08T16:16:51Z</time>
      </trkpt>
      <trkpt lat="48.98588" lon="0.01472">
        <ele>77.12</ele>
        <time>2021-08-08T16:16:52Z</time>
      </trkpt>
      <trkpt lat="48.98594" lon="0.01463">
        <ele>76.8</ele>
        <time>2021-08-08T16:16:53Z</time>
      </trkpt>
      <trkpt lat="48.986" lon="0.01455">
        <ele>76.5</ele>
        <time>2021-08-08T16:16:54Z</time>
      </trkpt>
      <trkpt lat="48.98606" lon="0.01446">
        <ele>76.2</ele>
        <time>2021-08-08T16:16:55Z</time>
      </trkpt>
      <trkpt lat="48.98612" lon="0.01438">
        <ele>75.9</ele>
        <time>2021-08-08T16:16:56Z</time>
      </trkpt>
      <trkpt lat="48.98618" lon="0.0143">
        <ele>75.6</ele>
        <time>2021-08-08T16:16:57Z</time>
      </trkpt>
      <trkpt lat="48.98624" lon="0.01421">
        <ele>75.3</ele>
        <time>2021-08-08T16:16:58Z</time>
      </trkpt>
      <trkpt lat="48.9863" lon="0.01413">
        <ele>74.99</ele>
        <time>2021-08-08T16:16:59Z</time>
      </trkpt>
      <trkpt lat="48.98637" lon="0.01404">
        <ele>74.68</ele>
        <time>2021-08-08T16:17:00Z</time>
      </trkpt>
      <trkpt lat="48.98643" lon="0.01396">
        <ele>74.38</ele>
        <time>2021-08-08T16:17:01Z</time>
      </trkpt>
      <trkpt lat="48.9865" lon="0.01387">
        <ele>74.03</ele>
        <time>2021-08-08T16:17:02Z</time>
      </trkpt>
      <trkpt lat="48.98656" lon="0.0138">
        <ele>73.53</ele>
        <time>2021-08-08T16:17:03Z</time>
      </trkpt>
      <trkpt lat="48.98664" lon="0.01372">
        <ele>73</ele>
        <time>2021-08-08T16:17:04Z</time>
      </trkpt>
      <trkpt lat="48.98671" lon="0.01365">
        <ele>72.39</ele>
        <time>2021-08-08T16:17:05Z</time>
      </trkpt>
      <trkpt lat="48.98679" lon="0.01359">
        <ele>71.75</ele>
        <time>2021-08-08T16:17:06Z</time>
      </trkpt>
      <trkpt lat="48.98686" lon="0.01354">
        <ele>71.21</ele>
        <time>2021-08-08T16:17:07Z</time>
      </trkpt>
      <trkpt lat="48.98694" lon="0.01348">
        <ele>70.74</ele>
        <time>2021-08-08T16:17:08Z</time>
      </trkpt>
      <trkpt lat="48.98702" lon="0.01342">
        <ele>70.33</ele>
        <time>2021-08-08T16:17:09Z</time>
      </trkpt>
      <trkpt lat="48.98709" lon="0.01337">
        <ele>69.85</ele>
        <time>2021-08-08T16:17:10Z</time>
      </trkpt>
      <trkpt lat="48.98717" lon="0.01331">
        <ele>69.31</ele>
        <time>2021-08-08T16:17:11Z</time>
      </trkpt>
      <trkpt lat="48.98725" lon="0.01324">
        <ele>68.81</ele>
        <time>2021-08-08T16:17:12Z</time>
      </trkpt>
      <trkpt lat="48.98732" lon="0.01319">
        <ele>68.33</ele>
        <time>2021-08-08T16:17:13Z</time>
      </trkpt>
      <trkpt lat="48.98739" lon="0.01312">
        <ele>67.86</ele>
        <time>2021-08-08T16:17:14Z</time>
      </trkpt>
      <trkpt lat="48.98746" lon="0.01306">
        <ele>67.36</ele>
        <time>2021-08-08T16:17:15Z</time>
      </trkpt>
      <trkpt lat="48.98753" lon="0.01299">
        <ele>66.88</ele>
        <time>2021-08-08T16:17:16Z</time>
      </trkpt>
      <trkpt lat="48.98761" lon="0.01294">
        <ele>66.39</ele>
        <time>2021-08-08T16:17:17Z</time>
      </trkpt>
      <trkpt lat="48.98769" lon="0.01288">
        <ele>65.9</ele>
        <time>2021-08-08T16:17:18Z</time>
      </trkpt>
      <trkpt lat="48.98778" lon="0.01282">
        <ele>65.38</ele>
        <time>2021-08-08T16:17:19Z</time>
      </trkpt>
      <trkpt lat="48.98785" lon="0.01275">
        <ele>64.86</ele>
        <time>2021-08-08T16:17:20Z</time>
      </trkpt>
      <trkpt lat="48.98792" lon="0.0127">
        <ele>64.4</ele>
        <time>2021-08-08T16:17:21Z</time>
      </trkpt>
      <trkpt lat="48.98798" lon="0.01266">
        <ele>64.02</ele>
        <time>2021-08-08T16:17:22Z</time>
      </trkpt>
      <trkpt lat="48.98803" lon="0.01262">
        <ele>63.68</ele>
        <time>2021-08-08T16:17:23Z</time>
      </trkpt>
      <trkpt lat="48.98806" lon="0.01255">
        <ele>63.32</ele>
        <time>2021-08-08T16:17:24Z</time>
      </trkpt>
      <trkpt lat="48.98808" lon="0.01246">
        <ele>62.93</ele>
        <time>2021-08-08T16:17:25Z</time>
      </trkpt>
      <trkpt lat="48.98809" lon="0.01236">
        <ele>62.55</ele>
        <time>2021-08-08T16:17:26Z</time>
      </trkpt>
      <trkpt lat="48.98809" lon="0.01226">
        <ele>62.17</ele>
        <time>2021-08-08T16:17:27Z</time>
      </trkpt>
      <trkpt lat="48.9881" lon="0.01216">
        <ele>61.79</ele>
        <time>2021-08-08T16:17:28Z</time>
      </trkpt>
      <trkpt lat="48.9881" lon="0.01204">
        <ele>61.39</ele>
        <time>2021-08-08T16:17:29Z</time>
      </trkpt>
      <trkpt lat="48.9881" lon="0.01193">
        <ele>60.97</ele>
        <time>2021-08-08T16:17:30Z</time>
      </trkpt>
      <trkpt lat="48.98809" lon="0.01181">
        <ele>60.55</ele>
        <time>2021-08-08T16:17:31Z</time>
      </trkpt>
      <trkpt lat="48.98809" lon="0.01168">
        <ele>60.12</ele>
        <time>2021-08-08T16:17:32Z</time>
      </trkpt>
      <trkpt lat="48.98808" lon="0.01156">
        <ele>59.73</ele>
        <time>2021-08-08T16:17:33Z</time>
      </trkpt>
      <trkpt lat="48.98807" lon="0.01144">
        <ele>59.35</ele>
        <time>2021-08-08T16:17:34Z</time>
      </trkpt>
      <trkpt lat="48.98807" lon="0.01133">
        <ele>58.96</ele>
        <time>2021-08-08T16:17:35Z</time>
      </trkpt>
      <trkpt lat="48.98807" lon="0.01122">
        <ele>58.56</ele>
        <time>2021-08-08T16:17:36Z</time>
      </trkpt>
      <trkpt lat="48.98807" lon="0.0111">
        <ele>58.17</ele>
        <time>2021-08-08T16:17:37Z</time>
      </trkpt>
      <trkpt lat="48.98807" lon="0.01098">
        <ele>58.04</ele>
        <time>2021-08-08T16:17:38Z</time>
      </trkpt>
      <trkpt lat="48.98806" lon="0.01087">
        <ele>58.01</ele>
        <time>2021-08-08T16:17:39Z</time>
      </trkpt>
      <trkpt lat="48.98805" lon="0.01075">
        <ele>57.8</ele>
        <time>2021-08-08T16:17:40Z</time>
      </trkpt>
      <trkpt lat="48.98805" lon="0.01064">
        <ele>57.47</ele>
        <time>2021-08-08T16:17:41Z</time>
      </trkpt>
      <trkpt lat="48.98805" lon="0.01052">
        <ele>57.16</ele>
        <time>2021-08-08T16:17:42Z</time>
      </trkpt>
      <trkpt lat="48.98805" lon="0.01041">
        <ele>57.06</ele>
        <time>2021-08-08T16:17:43Z</time>
      </trkpt>
      <trkpt lat="48.98804" lon="0.01029">
        <ele>57.02</ele>
        <time>2021-08-08T16:17:44Z</time>
      </trkpt>
      <trkpt lat="48.98804" lon="0.01018">
        <ele>56.77</ele>
        <time>2021-08-08T16:17:45Z</time>
      </trkpt>
      <trkpt lat="48.98804" lon="0.01006">
        <ele>56.43</ele>
        <time>2021-08-08T16:17:46Z</time>
      </trkpt>
      <trkpt lat="48.98804" lon="0.00995">
        <ele>56.16</ele>
        <time>2021-08-08T16:17:47Z</time>
      </trkpt>
      <trkpt lat="48.98804" lon="0.00983">
        <ele>56.07</ele>
        <time>2021-08-08T16:17:48Z</time>
      </trkpt>
      <trkpt lat="48.98803" lon="0.00972">
        <ele>56.02</ele>
        <time>2021-08-08T16:17:49Z</time>
      </trkpt>
      <trkpt lat="48.98803" lon="0.00961">
        <ele>56.01</ele>
        <time>2021-08-08T16:17:50Z</time>
      </trkpt>
      <trkpt lat="48.98803" lon="0.0095">
        <ele>56</ele>
        <time>2021-08-08T16:17:51Z</time>
      </trkpt>
      <trkpt lat="48.98803" lon="0.0094">
        <ele>56</ele>
        <time>2021-08-08T16:17:52Z</time>
      </trkpt>
      <trkpt lat="48.98803" lon="0.00929">
        <ele>56</ele>
        <time>2021-08-08T16:17:53Z</time>
      </trkpt>
      <trkpt lat="48.98803" lon="0.00918">
        <ele>56</ele>
        <time>2021-08-08T16:17:54Z</time>
      </trkpt>
      <trkpt lat="48.98803" lon="0.00908">
        <ele>56</ele>
        <time>2021-08-08T16:17:55Z</time>
      </trkpt>
      <trkpt lat="48.98803" lon="0.00899">
        <ele>56</ele>
        <time>2021-08-08T16:17:56Z</time>
      </trkpt>
      <trkpt lat="48.98803" lon="0.00891">
        <ele>56</ele>
        <time>2021-08-08T16:17:57Z</time>
      </trkpt>
      <trkpt lat="48.98803" lon="0.00884">
        <ele>56</ele>
        <time>2021-08-08T16:17:58Z</time>
      </trkpt>
      <trkpt lat="48.98802" lon="0.00876">
        <ele>56</ele>
        <time>2021-08-08T16:17:59Z</time>
      </trkpt>
      <trkpt lat="48.98802" lon="0.00868">
        <ele>56</ele>
        <time>2021-08-08T16:18:00Z</time>
      </trkpt>
      <trkpt lat="48.98802" lon="0.0086">
        <ele>56</ele>
        <time>2021-08-08T16:18:01Z</time>
      </trkpt>
      <trkpt lat="48.98802" lon="0.00851">
        <ele>56.03</ele>
        <time>2021-08-08T16:18:02Z</time>
      </trkpt>
      <trkpt lat="48.98802" lon="0.00843">
        <ele>56.07</ele>
        <time>2021-08-08T16:18:03Z</time>
      </trkpt>
      <trkpt lat="48.98802" lon="0.00834">
        <ele>56.11</ele>
        <time>2021-08-08T16:18:04Z</time>
      </trkpt>
      <trkpt lat="48.98802" lon="0.00825">
        <ele>56.12</ele>
        <time>2021-08-08T16:18:05Z</time>
      </trkpt>
      <trkpt lat="48.98802" lon="0.00816">
        <ele>56.12</ele>
        <time>2021-08-08T16:18:06Z</time>
      </trkpt>
      <trkpt lat="48.98802" lon="0.00807">
        <ele>56.13</ele>
        <time>2021-08-08T16:18:07Z</time>
      </trkpt>
      <trkpt lat="48.98802" lon="0.00797">
        <ele>56.3</ele>
        <time>2021-08-08T16:18:08Z</time>
      </trkpt>
      <trkpt lat="48.98802" lon="0.00788">
        <ele>56.56</ele>
        <time>2021-08-08T16:18:09Z</time>
      </trkpt>
      <trkpt lat="48.98802" lon="0.00779">
        <ele>56.84</ele>
        <time>2021-08-08T16:18:10Z</time>
      </trkpt>
      <trkpt lat="48.98802" lon="0.0077">
        <ele>56.95</ele>
        <time>2021-08-08T16:18:11Z</time>
      </trkpt>
      <trkpt lat="48.98802" lon="0.0076">
        <ele>56.99</ele>
        <time>2021-08-08T16:18:12Z</time>
      </trkpt>
      <trkpt lat="48.98802" lon="0.00751">
        <ele>57</ele>
        <time>2021-08-08T16:18:13Z</time>
      </trkpt>
      <trkpt lat="48.98802" lon="0.00742">
        <ele>57</ele>
        <time>2021-08-08T16:18:14Z</time>
      </trkpt>
      <trkpt lat="48.98802" lon="0.00733">
        <ele>57</ele>
        <time>2021-08-08T16:18:15Z</time>
      </trkpt>
      <trkpt lat="48.98801" lon="0.00724">
        <ele>57</ele>
        <time>2021-08-08T16:18:16Z</time>
      </trkpt>
      <trkpt lat="48.98801" lon="0.00715">
        <ele>57.03</ele>
        <time>2021-08-08T16:18:17Z</time>
      </trkpt>
      <trkpt lat="48.98801" lon="0.00705">
        <ele>57.08</ele>
        <time>2021-08-08T16:18:18Z</time>
      </trkpt>
      <trkpt lat="48.98801" lon="0.00696">
        <ele>57.13</ele>
        <time>2021-08-08T16:18:19Z</time>
      </trkpt>
      <trkpt lat="48.98801" lon="0.00688">
        <ele>57.3</ele>
        <time>2021-08-08T16:18:20Z</time>
      </trkpt>
      <trkpt lat="48.98801" lon="0.00678">
        <ele>57.55</ele>
        <time>2021-08-08T16:18:21Z</time>
      </trkpt>
      <trkpt lat="48.98801" lon="0.00669">
        <ele>57.82</ele>
        <time>2021-08-08T16:18:22Z</time>
      </trkpt>
      <trkpt lat="48.98801" lon="0.00659">
        <ele>57.95</ele>
        <time>2021-08-08T16:18:23Z</time>
      </trkpt>
      <trkpt lat="48.98801" lon="0.0065">
        <ele>57.98</ele>
        <time>2021-08-08T16:18:24Z</time>
      </trkpt>
      <trkpt lat="48.98801" lon="0.00641">
        <ele>58</ele>
        <time>2021-08-08T16:18:25Z</time>
      </trkpt>
      <trkpt lat="48.988" lon="0.00632">
        <ele>58.17</ele>
        <time>2021-08-08T16:18:26Z</time>
      </trkpt>
      <trkpt lat="48.988" lon="0.00623">
        <ele>58.44</ele>
        <time>2021-08-08T16:18:27Z</time>
      </trkpt>
      <trkpt lat="48.988" lon="0.00615">
        <ele>58.74</ele>
        <time>2021-08-08T16:18:28Z</time>
      </trkpt>
      <trkpt lat="48.98799" lon="0.00606">
        <ele>58.92</ele>
        <time>2021-08-08T16:18:29Z</time>
      </trkpt>
      <trkpt lat="48.98799" lon="0.00597">
        <ele>58.98</ele>
        <time>2021-08-08T16:18:30Z</time>
      </trkpt>
      <trkpt lat="48.98799" lon="0.00589">
        <ele>58.99</ele>
        <time>2021-08-08T16:18:31Z</time>
      </trkpt>
      <trkpt lat="48.98799" lon="0.0058">
        <ele>59.09</ele>
        <time>2021-08-08T16:18:32Z</time>
      </trkpt>
      <trkpt lat="48.98799" lon="0.00571">
        <ele>59.34</ele>
        <time>2021-08-08T16:18:33Z</time>
      </trkpt>
      <trkpt lat="48.98799" lon="0.00562">
        <ele>59.63</ele>
        <time>2021-08-08T16:18:34Z</time>
      </trkpt>
      <trkpt lat="48.98799" lon="0.00553">
        <ele>59.9</ele>
        <time>2021-08-08T16:18:35Z</time>
      </trkpt>
      <trkpt lat="48.98798" lon="0.00544">
        <ele>60.04</ele>
        <time>2021-08-08T16:18:36Z</time>
      </trkpt>
      <trkpt lat="48.98798" lon="0.00535">
        <ele>60.14</ele>
        <time>2021-08-08T16:18:37Z</time>
      </trkpt>
      <trkpt lat="48.98798" lon="0.00526">
        <ele>60.25</ele>
        <time>2021-08-08T16:18:38Z</time>
      </trkpt>
      <trkpt lat="48.98798" lon="0.00517">
        <ele>60.45</ele>
        <time>2021-08-08T16:18:39Z</time>
      </trkpt>
      <trkpt lat="48.98798" lon="0.00509">
        <ele>60.67</ele>
        <time>2021-08-08T16:18:40Z</time>
      </trkpt>
      <trkpt lat="48.98798" lon="0.00501">
        <ele>60.89</ele>
        <time>2021-08-08T16:18:41Z</time>
      </trkpt>
      <trkpt lat="48.98798" lon="0.00492">
        <ele>61.17</ele>
        <time>2021-08-08T16:18:42Z</time>
      </trkpt>
      <trkpt lat="48.98799" lon="0.00484">
        <ele>61.45</ele>
        <time>2021-08-08T16:18:43Z</time>
      </trkpt>
      <trkpt lat="48.98798" lon="0.00476">
        <ele>61.73</ele>
        <time>2021-08-08T16:18:44Z</time>
      </trkpt>
      <trkpt lat="48.98799" lon="0.00468">
        <ele>62.02</ele>
        <time>2021-08-08T16:18:45Z</time>
      </trkpt>
      <trkpt lat="48.98798" lon="0.0046">
        <ele>62.3</ele>
        <time>2021-08-08T16:18:46Z</time>
      </trkpt>
      <trkpt lat="48.98798" lon="0.00453">
        <ele>62.58</ele>
        <time>2021-08-08T16:18:47Z</time>
      </trkpt>
      <trkpt lat="48.98797" lon="0.00445">
        <ele>62.85</ele>
        <time>2021-08-08T16:18:48Z</time>
      </trkpt>
      <trkpt lat="48.98797" lon="0.00438">
        <ele>62.95</ele>
        <time>2021-08-08T16:18:49Z</time>
      </trkpt>
      <trkpt lat="48.98797" lon="0.00431">
        <ele>62.99</ele>
        <time>2021-08-08T16:18:50Z</time>
      </trkpt>
      <trkpt lat="48.98797" lon="0.00423">
        <ele>63</ele>
        <time>2021-08-08T16:18:51Z</time>
      </trkpt>
      <trkpt lat="48.98796" lon="0.00416">
        <ele>63.01</ele>
        <time>2021-08-08T16:18:52Z</time>
      </trkpt>
      <trkpt lat="48.98796" lon="0.00409">
        <ele>63.2</ele>
        <time>2021-08-08T16:18:53Z</time>
      </trkpt>
      <trkpt lat="48.98795" lon="0.00401">
        <ele>63.45</ele>
        <time>2021-08-08T16:18:54Z</time>
      </trkpt>
      <trkpt lat="48.98795" lon="0.00394">
        <ele>63.71</ele>
        <time>2021-08-08T16:18:55Z</time>
      </trkpt>
      <trkpt lat="48.98795" lon="0.00386">
        <ele>63.98</ele>
        <time>2021-08-08T16:18:56Z</time>
      </trkpt>
      <trkpt lat="48.98796" lon="0.00379">
        <ele>64.24</ele>
        <time>2021-08-08T16:18:57Z</time>
      </trkpt>
      <trkpt lat="48.98796" lon="0.00372">
        <ele>64.51</ele>
        <time>2021-08-08T16:18:58Z</time>
      </trkpt>
      <trkpt lat="48.98796" lon="0.00364">
        <ele>64.77</ele>
        <time>2021-08-08T16:18:59Z</time>
      </trkpt>
      <trkpt lat="48.98796" lon="0.00357">
        <ele>65.04</ele>
        <time>2021-08-08T16:19:00Z</time>
      </trkpt>
      <trkpt lat="48.98796" lon="0.00349">
        <ele>65.32</ele>
        <time>2021-08-08T16:19:01Z</time>
      </trkpt>
      <trkpt lat="48.98797" lon="0.00341">
        <ele>65.59</ele>
        <time>2021-08-08T16:19:02Z</time>
      </trkpt>
      <trkpt lat="48.98797" lon="0.00334">
        <ele>65.87</ele>
        <time>2021-08-08T16:19:03Z</time>
      </trkpt>
      <trkpt lat="48.98797" lon="0.00327">
        <ele>66.13</ele>
        <time>2021-08-08T16:19:04Z</time>
      </trkpt>
      <trkpt lat="48.98798" lon="0.0032">
        <ele>66.38</ele>
        <time>2021-08-08T16:19:05Z</time>
      </trkpt>
      <trkpt lat="48.98797" lon="0.00313">
        <ele>66.63</ele>
        <time>2021-08-08T16:19:06Z</time>
      </trkpt>
      <trkpt lat="48.98797" lon="0.00305">
        <ele>66.89</ele>
        <time>2021-08-08T16:19:07Z</time>
      </trkpt>
      <trkpt lat="48.98798" lon="0.00298">
        <ele>67.16</ele>
        <time>2021-08-08T16:19:08Z</time>
      </trkpt>
      <trkpt lat="48.98798" lon="0.00291">
        <ele>67.43</ele>
        <time>2021-08-08T16:19:09Z</time>
      </trkpt>
      <trkpt lat="48.98798" lon="0.00283">
        <ele>67.69</ele>
        <time>2021-08-08T16:19:10Z</time>
      </trkpt>
      <trkpt lat="48.98798" lon="0.00276">
        <ele>67.92</ele>
        <time>2021-08-08T16:19:11Z</time>
      </trkpt>
      <trkpt lat="48.98798" lon="0.00269">
        <ele>68.03</ele>
        <time>2021-08-08T16:19:12Z</time>
      </trkpt>
      <trkpt lat="48.98798" lon="0.00263">
        <ele>68.11</ele>
        <time>2021-08-08T16:19:13Z</time>
      </trkpt>
      <trkpt lat="48.98798" lon="0.00256">
        <ele>68.18</ele>
        <time>2021-08-08T16:19:14Z</time>
      </trkpt>
      <trkpt lat="48.98797" lon="0.00249">
        <ele>68.28</ele>
        <time>2021-08-08T16:19:15Z</time>
      </trkpt>
      <trkpt lat="48.98797" lon="0.00243">
        <ele>68.47</ele>
        <time>2021-08-08T16:19:16Z</time>
      </trkpt>
      <trkpt lat="48.98797" lon="0.00237">
        <ele>68.69</ele>
        <time>2021-08-08T16:19:17Z</time>
      </trkpt>
      <trkpt lat="48.98797" lon="0.00231">
        <ele>68.91</ele>
        <time>2021-08-08T16:19:18Z</time>
      </trkpt>
      <trkpt lat="48.98797" lon="0.00225">
        <ele>69.11</ele>
        <time>2021-08-08T16:19:19Z</time>
      </trkpt>
      <trkpt lat="48.98797" lon="0.00219">
        <ele>69.33</ele>
        <time>2021-08-08T16:19:20Z</time>
      </trkpt>
      <trkpt lat="48.98797" lon="0.00213">
        <ele>69.56</ele>
        <time>2021-08-08T16:19:21Z</time>
      </trkpt>
      <trkpt lat="48.98796" lon="0.00206">
        <ele>69.81</ele>
        <time>2021-08-08T16:19:22Z</time>
      </trkpt>
      <trkpt lat="48.98796" lon="0.00199">
        <ele>70.06</ele>
        <time>2021-08-08T16:19:23Z</time>
      </trkpt>
      <trkpt lat="48.98796" lon="0.00193">
        <ele>70.27</ele>
        <time>2021-08-08T16:19:24Z</time>
      </trkpt>
      <trkpt lat="48.98796" lon="0.00187">
        <ele>70.44</ele>
        <time>2021-08-08T16:19:25Z</time>
      </trkpt>
      <trkpt lat="48.98797" lon="0.0018">
        <ele>70.61</ele>
        <time>2021-08-08T16:19:26Z</time>
      </trkpt>
      <trkpt lat="48.98797" lon="0.00172">
        <ele>70.79</ele>
        <time>2021-08-08T16:19:27Z</time>
      </trkpt>
      <trkpt lat="48.98797" lon="0.00165">
        <ele>70.98</ele>
        <time>2021-08-08T16:19:28Z</time>
      </trkpt>
      <trkpt lat="48.98797" lon="0.00158">
        <ele>71.2</ele>
        <time>2021-08-08T16:19:29Z</time>
      </trkpt>
      <trkpt lat="48.98796" lon="0.00151">
        <ele>71.45</ele>
        <time>2021-08-08T16:19:30Z</time>
      </trkpt>
      <trkpt lat="48.98796" lon="0.00145">
        <ele>71.69</ele>
        <time>2021-08-08T16:19:31Z</time>
      </trkpt>
      <trkpt lat="48.98796" lon="0.00139">
        <ele>71.92</ele>
        <time>2021-08-08T16:19:32Z</time>
      </trkpt>
      <trkpt lat="48.98795" lon="0.00132">
        <ele>72.21</ele>
        <time>2021-08-08T16:19:33Z</time>
      </trkpt>
      <trkpt lat="48.98795" lon="0.00126">
        <ele>72.52</ele>
        <time>2021-08-08T16:19:34Z</time>
      </trkpt>
      <trkpt lat="48.98796" lon="0.00119">
        <ele>72.83</ele>
        <time>2021-08-08T16:19:35Z</time>
      </trkpt>
      <trkpt lat="48.98796" lon="0.00113">
        <ele>73.13</ele>
        <time>2021-08-08T16:19:36Z</time>
      </trkpt>
      <trkpt lat="48.98796" lon="0.00106">
        <ele>73.47</ele>
        <time>2021-08-08T16:19:37Z</time>
      </trkpt>
      <trkpt lat="48.98797" lon="0.001">
        <ele>73.86</ele>
        <time>2021-08-08T16:19:38Z</time>
      </trkpt>
      <trkpt lat="48.98797" lon="0.00093">
        <ele>74.27</ele>
        <time>2021-08-08T16:19:39Z</time>
      </trkpt>
      <trkpt lat="48.98797" lon="0.00086">
        <ele>74.67</ele>
        <time>2021-08-08T16:19:40Z</time>
      </trkpt>
      <trkpt lat="48.98798" lon="0.00079">
        <ele>75.01</ele>
        <time>2021-08-08T16:19:41Z</time>
      </trkpt>
      <trkpt lat="48.98798" lon="0.00072">
        <ele>75.29</ele>
        <time>2021-08-08T16:19:42Z</time>
      </trkpt>
      <trkpt lat="48.98799" lon="0.00065">
        <ele>75.55</ele>
        <time>2021-08-08T16:19:43Z</time>
      </trkpt>
      <trkpt lat="48.988" lon="0.00058">
        <ele>75.79</ele>
        <time>2021-08-08T16:19:44Z</time>
      </trkpt>
      <trkpt lat="48.98801" lon="0.00052">
        <ele>75.94</ele>
        <time>2021-08-08T16:19:45Z</time>
      </trkpt>
      <trkpt lat="48.98802" lon="0.00046">
        <ele>75.98</ele>
        <time>2021-08-08T16:19:46Z</time>
      </trkpt>
      <trkpt lat="48.98803" lon="0.0004">
        <ele>75.99</ele>
        <time>2021-08-08T16:19:47Z</time>
      </trkpt>
      <trkpt lat="48.98804" lon="0.00033">
        <ele>76</ele>
        <time>2021-08-08T16:19:48Z</time>
      </trkpt>
      <trkpt lat="48.98804" lon="0.00027">
        <ele>76</ele>
        <time>2021-08-08T16:19:49Z</time>
      </trkpt>
      <trkpt lat="48.98806" lon="0.0002">
        <ele>76</ele>
        <time>2021-08-08T16:19:50Z</time>
      </trkpt>
      <trkpt lat="48.98807" lon="0.00014">
        <ele>76</ele>
        <time>2021-08-08T16:19:51Z</time>
      </trkpt>
      <trkpt lat="48.98809" lon="8.0E-5">
        <ele>76</ele>
        <time>2021-08-08T16:19:52Z</time>
      </trkpt>
      <trkpt lat="48.98811" lon="1.0E-5">
        <ele>76</ele>
        <time>2021-08-08T16:19:53Z</time>
      </trkpt>
      <trkpt lat="48.98812" lon="-6.0E-5">
        <ele>76</ele>
        <time>2021-08-08T16:19:54Z</time>
      </trkpt>
      <trkpt lat="48.98812" lon="-0.00013">
        <ele>76</ele>
        <time>2021-08-08T16:19:55Z</time>
      </trkpt>
      <trkpt lat="48.98813" lon="-0.0002">
        <ele>76</ele>
        <time>2021-08-08T16:19:56Z</time>
      </trkpt>
      <trkpt lat="48.98815" lon="-0.00027">
        <ele>76</ele>
        <time>2021-08-08T16:19:57Z</time>
      </trkpt>
      <trkpt lat="48.98817" lon="-0.00033">
        <ele>76</ele>
        <time>2021-08-08T16:19:58Z</time>
      </trkpt>
      <trkpt lat="48.98819" lon="-0.0004">
        <ele>76</ele>
        <time>2021-08-08T16:19:59Z</time>
      </trkpt>
      <trkpt lat="48.98821" lon="-0.00047">
        <ele>76</ele>
        <time>2021-08-08T16:20:00Z</time>
      </trkpt>
      <trkpt lat="48.98823" lon="-0.00055">
        <ele>76</ele>
        <time>2021-08-08T16:20:01Z</time>
      </trkpt>
      <trkpt lat="48.98826" lon="-0.00063">
        <ele>75.62</ele>
        <time>2021-08-08T16:20:02Z</time>
      </trkpt>
      <trkpt lat="48.98828" lon="-0.00072">
        <ele>75.07</ele>
        <time>2021-08-08T16:20:03Z</time>
      </trkpt>
      <trkpt lat="48.98831" lon="-0.00081">
        <ele>74.44</ele>
        <time>2021-08-08T16:20:04Z</time>
      </trkpt>
      <trkpt lat="48.98833" lon="-0.00091">
        <ele>73.75</ele>
        <time>2021-08-08T16:20:05Z</time>
      </trkpt>
      <trkpt lat="48.98836" lon="-0.00102">
        <ele>72.99</ele>
        <time>2021-08-08T16:20:06Z</time>
      </trkpt>
      <trkpt lat="48.98838" lon="-0.00113">
        <ele>72.2</ele>
        <time>2021-08-08T16:20:07Z</time>
      </trkpt>
      <trkpt lat="48.98841" lon="-0.00123">
        <ele>71.44</ele>
        <time>2021-08-08T16:20:08Z</time>
      </trkpt>
      <trkpt lat="48.98845" lon="-0.00134">
        <ele>70.69</ele>
        <time>2021-08-08T16:20:09Z</time>
      </trkpt>
      <trkpt lat="48.9885" lon="-0.00143">
        <ele>70.01</ele>
        <time>2021-08-08T16:20:10Z</time>
      </trkpt>
      <trkpt lat="48.98856" lon="-0.00151">
        <ele>69.4</ele>
        <time>2021-08-08T16:20:11Z</time>
      </trkpt>
      <trkpt lat="48.98863" lon="-0.00157">
        <ele>68.92</ele>
        <time>2021-08-08T16:20:12Z</time>
      </trkpt>
      <trkpt lat="48.9887" lon="-0.00161">
        <ele>68.57</ele>
        <time>2021-08-08T16:20:13Z</time>
      </trkpt>
      <trkpt lat="48.98877" lon="-0.00164">
        <ele>68.31</ele>
        <time>2021-08-08T16:20:14Z</time>
      </trkpt>
      <trkpt lat="48.98884" lon="-0.00166">
        <ele>68.11</ele>
        <time>2021-08-08T16:20:15Z</time>
      </trkpt>
      <trkpt lat="48.98892" lon="-0.00169">
        <ele>67.9</ele>
        <time>2021-08-08T16:20:16Z</time>
      </trkpt>
      <trkpt lat="48.989" lon="-0.00171">
        <ele>67.58</ele>
        <time>2021-08-08T16:20:17Z</time>
      </trkpt>
      <trkpt lat="48.98908" lon="-0.00173">
        <ele>67.23</ele>
        <time>2021-08-08T16:20:18Z</time>
      </trkpt>
      <trkpt lat="48.98915" lon="-0.00176">
        <ele>66.86</ele>
        <time>2021-08-08T16:20:19Z</time>
      </trkpt>
      <trkpt lat="48.98923" lon="-0.00179">
        <ele>66.65</ele>
        <time>2021-08-08T16:20:20Z</time>
      </trkpt>
      <trkpt lat="48.9893" lon="-0.00182">
        <ele>66.51</ele>
        <time>2021-08-08T16:20:21Z</time>
      </trkpt>
      <trkpt lat="48.98938" lon="-0.00185">
        <ele>66.39</ele>
        <time>2021-08-08T16:20:22Z</time>
      </trkpt>
      <trkpt lat="48.98945" lon="-0.00188">
        <ele>66.28</ele>
        <time>2021-08-08T16:20:23Z</time>
      </trkpt>
      <trkpt lat="48.98952" lon="-0.0019">
        <ele>66.05</ele>
        <time>2021-08-08T16:20:24Z</time>
      </trkpt>
      <trkpt lat="48.98958" lon="-0.0019">
        <ele>65.84</ele>
        <time>2021-08-08T16:20:25Z</time>
      </trkpt>
      <trkpt lat="48.98964" lon="-0.00188">
        <ele>65.73</ele>
        <time>2021-08-08T16:20:26Z</time>
      </trkpt>
      <trkpt lat="48.98969" lon="-0.00184">
        <ele>65.79</ele>
        <time>2021-08-08T16:20:27Z</time>
      </trkpt>
      <trkpt lat="48.98972" lon="-0.00177">
        <ele>66.11</ele>
        <time>2021-08-08T16:20:28Z</time>
      </trkpt>
      <trkpt lat="48.98974" lon="-0.00169">
        <ele>66.59</ele>
        <time>2021-08-08T16:20:29Z</time>
      </trkpt>
      <trkpt lat="48.98974" lon="-0.00162">
        <ele>66.99</ele>
        <time>2021-08-08T16:20:30Z</time>
      </trkpt>
      <trkpt lat="48.98973" lon="-0.00156">
        <ele>67.28</ele>
        <time>2021-08-08T16:20:31Z</time>
      </trkpt>
      <trkpt lat="48.98972" lon="-0.00149">
        <ele>67.54</ele>
        <time>2021-08-08T16:20:32Z</time>
      </trkpt>
      <trkpt lat="48.98971" lon="-0.00142">
        <ele>67.8</ele>
        <time>2021-08-08T16:20:33Z</time>
      </trkpt>
      <trkpt lat="48.98972" lon="-0.00135">
        <ele>68.13</ele>
        <time>2021-08-08T16:20:34Z</time>
      </trkpt>
      <trkpt lat="48.98973" lon="-0.00129">
        <ele>68.58</ele>
        <time>2021-08-08T16:20:35Z</time>
      </trkpt>
      <trkpt lat="48.98975" lon="-0.00123">
        <ele>69.07</ele>
        <time>2021-08-08T16:20:36Z</time>
      </trkpt>
      <trkpt lat="48.98978" lon="-0.00118">
        <ele>69.51</ele>
        <time>2021-08-08T16:20:37Z</time>
      </trkpt>
      <trkpt lat="48.98982" lon="-0.00115">
        <ele>69.88</ele>
        <time>2021-08-08T16:20:38Z</time>
      </trkpt>
      <trkpt lat="48.98986" lon="-0.00113">
        <ele>70.19</ele>
        <time>2021-08-08T16:20:39Z</time>
      </trkpt>
      <trkpt lat="48.98991" lon="-0.00112">
        <ele>70.47</ele>
        <time>2021-08-08T16:20:40Z</time>
      </trkpt>
      <trkpt lat="48.98996" lon="-0.00112">
        <ele>70.72</ele>
        <time>2021-08-08T16:20:41Z</time>
      </trkpt>
      <trkpt lat="48.99001" lon="-0.00112">
        <ele>70.86</ele>
        <time>2021-08-08T16:20:42Z</time>
      </trkpt>
      <trkpt lat="48.99007" lon="-0.00113">
        <ele>70.86</ele>
        <time>2021-08-08T16:20:43Z</time>
      </trkpt>
      <trkpt lat="48.99012" lon="-0.00114">
        <ele>70.81</ele>
        <time>2021-08-08T16:20:44Z</time>
      </trkpt>
      <trkpt lat="48.99018" lon="-0.00115">
        <ele>70.73</ele>
        <time>2021-08-08T16:20:45Z</time>
      </trkpt>
      <trkpt lat="48.99024" lon="-0.00117">
        <ele>70.64</ele>
        <time>2021-08-08T16:20:46Z</time>
      </trkpt>
      <trkpt lat="48.9903" lon="-0.00118">
        <ele>70.56</ele>
        <time>2021-08-08T16:20:47Z</time>
      </trkpt>
      <trkpt lat="48.99036" lon="-0.00118">
        <ele>70.51</ele>
        <time>2021-08-08T16:20:48Z</time>
      </trkpt>
      <trkpt lat="48.99042" lon="-0.00118">
        <ele>70.5</ele>
        <time>2021-08-08T16:20:49Z</time>
      </trkpt>
      <trkpt lat="48.99048" lon="-0.00118">
        <ele>70.52</ele>
        <time>2021-08-08T16:20:50Z</time>
      </trkpt>
      <trkpt lat="48.99054" lon="-0.00117">
        <ele>70.58</ele>
        <time>2021-08-08T16:20:51Z</time>
      </trkpt>
      <trkpt lat="48.9906" lon="-0.00115">
        <ele>70.69</ele>
        <time>2021-08-08T16:20:52Z</time>
      </trkpt>
      <trkpt lat="48.99066" lon="-0.00112">
        <ele>70.85</ele>
        <time>2021-08-08T16:20:53Z</time>
      </trkpt>
      <trkpt lat="48.99072" lon="-0.00109">
        <ele>71.05</ele>
        <time>2021-08-08T16:20:54Z</time>
      </trkpt>
      <trkpt lat="48.99078" lon="-0.00106">
        <ele>71.26</ele>
        <time>2021-08-08T16:20:55Z</time>
      </trkpt>
      <trkpt lat="48.99084" lon="-0.00104">
        <ele>71.45</ele>
        <time>2021-08-08T16:20:56Z</time>
      </trkpt>
      <trkpt lat="48.9909" lon="-0.00101">
        <ele>71.63</ele>
        <time>2021-08-08T16:20:57Z</time>
      </trkpt>
      <trkpt lat="48.99096" lon="-0.00099">
        <ele>71.78</ele>
        <time>2021-08-08T16:20:58Z</time>
      </trkpt>
      <trkpt lat="48.99102" lon="-0.00098">
        <ele>71.9</ele>
        <time>2021-08-08T16:20:59Z</time>
      </trkpt>
      <trkpt lat="48.99108" lon="-0.00096">
        <ele>72.02</ele>
        <time>2021-08-08T16:21:00Z</time>
      </trkpt>
      <trkpt lat="48.99114" lon="-0.00095">
        <ele>72.12</ele>
        <time>2021-08-08T16:21:01Z</time>
      </trkpt>
      <trkpt lat="48.9912" lon="-0.00094">
        <ele>72.19</ele>
        <time>2021-08-08T16:21:02Z</time>
      </trkpt>
      <trkpt lat="48.99127" lon="-0.00093">
        <ele>72.26</ele>
        <time>2021-08-08T16:21:03Z</time>
      </trkpt>
      <trkpt lat="48.99133" lon="-0.00093">
        <ele>72.29</ele>
        <time>2021-08-08T16:21:04Z</time>
      </trkpt>
      <trkpt lat="48.9914" lon="-0.00093">
        <ele>72.29</ele>
        <time>2021-08-08T16:21:05Z</time>
      </trkpt>
      <trkpt lat="48.99147" lon="-0.00094">
        <ele>72.28</ele>
        <time>2021-08-08T16:21:06Z</time>
      </trkpt>
      <trkpt lat="48.99153" lon="-0.00094">
        <ele>72.26</ele>
        <time>2021-08-08T16:21:07Z</time>
      </trkpt>
      <trkpt lat="48.9916" lon="-0.00094">
        <ele>72.24</ele>
        <time>2021-08-08T16:21:08Z</time>
      </trkpt>
      <trkpt lat="48.99167" lon="-0.00094">
        <ele>72.23</ele>
        <time>2021-08-08T16:21:09Z</time>
      </trkpt>
      <trkpt lat="48.99174" lon="-0.00094">
        <ele>72.22</ele>
        <time>2021-08-08T16:21:10Z</time>
      </trkpt>
      <trkpt lat="48.99181" lon="-0.00094">
        <ele>72.21</ele>
        <time>2021-08-08T16:21:11Z</time>
      </trkpt>
      <trkpt lat="48.99188" lon="-0.00095">
        <ele>72.19</ele>
        <time>2021-08-08T16:21:12Z</time>
      </trkpt>
      <trkpt lat="48.99195" lon="-0.00094">
        <ele>72.19</ele>
        <time>2021-08-08T16:21:13Z</time>
      </trkpt>
      <trkpt lat="48.99202" lon="-0.00095">
        <ele>72.18</ele>
        <time>2021-08-08T16:21:14Z</time>
      </trkpt>
      <trkpt lat="48.9921" lon="-0.00096">
        <ele>72.13</ele>
        <time>2021-08-08T16:21:15Z</time>
      </trkpt>
      <trkpt lat="48.99217" lon="-0.00097">
        <ele>72.05</ele>
        <time>2021-08-08T16:21:16Z</time>
      </trkpt>
      <trkpt lat="48.99224" lon="-0.00099">
        <ele>71.91</ele>
        <time>2021-08-08T16:21:17Z</time>
      </trkpt>
      <trkpt lat="48.99231" lon="-0.00102">
        <ele>71.72</ele>
        <time>2021-08-08T16:21:18Z</time>
      </trkpt>
      <trkpt lat="48.99238" lon="-0.00105">
        <ele>71.51</ele>
        <time>2021-08-08T16:21:19Z</time>
      </trkpt>
      <trkpt lat="48.99245" lon="-0.00109">
        <ele>71.28</ele>
        <time>2021-08-08T16:21:20Z</time>
      </trkpt>
      <trkpt lat="48.99252" lon="-0.00112">
        <ele>71.11</ele>
        <time>2021-08-08T16:21:21Z</time>
      </trkpt>
      <trkpt lat="48.9926" lon="-0.00116">
        <ele>71.15</ele>
        <time>2021-08-08T16:21:22Z</time>
      </trkpt>
      <trkpt lat="48.99267" lon="-0.0012">
        <ele>71.24</ele>
        <time>2021-08-08T16:21:23Z</time>
      </trkpt>
      <trkpt lat="48.99273" lon="-0.00124">
        <ele>71.32</ele>
        <time>2021-08-08T16:21:24Z</time>
      </trkpt>
      <trkpt lat="48.9928" lon="-0.00128">
        <ele>71.36</ele>
        <time>2021-08-08T16:21:25Z</time>
      </trkpt>
      <trkpt lat="48.99287" lon="-0.00131">
        <ele>71.3</ele>
        <time>2021-08-08T16:21:26Z</time>
      </trkpt>
      <trkpt lat="48.99293" lon="-0.00134">
        <ele>71.22</ele>
        <time>2021-08-08T16:21:27Z</time>
      </trkpt>
      <trkpt lat="48.993" lon="-0.00136">
        <ele>71.13</ele>
        <time>2021-08-08T16:21:28Z</time>
      </trkpt>
      <trkpt lat="48.99307" lon="-0.00139">
        <ele>71.05</ele>
        <time>2021-08-08T16:21:29Z</time>
      </trkpt>
      <trkpt lat="48.99314" lon="-0.00141">
        <ele>70.98</ele>
        <time>2021-08-08T16:21:30Z</time>
      </trkpt>
      <trkpt lat="48.99321" lon="-0.00143">
        <ele>70.94</ele>
        <time>2021-08-08T16:21:31Z</time>
      </trkpt>
      <trkpt lat="48.99328" lon="-0.00146">
        <ele>70.95</ele>
        <time>2021-08-08T16:21:32Z</time>
      </trkpt>
      <trkpt lat="48.99336" lon="-0.00148">
        <ele>71.03</ele>
        <time>2021-08-08T16:21:33Z</time>
      </trkpt>
      <trkpt lat="48.99343" lon="-0.00151">
        <ele>71.15</ele>
        <time>2021-08-08T16:21:34Z</time>
      </trkpt>
      <trkpt lat="48.9935" lon="-0.00153">
        <ele>71.25</ele>
        <time>2021-08-08T16:21:35Z</time>
      </trkpt>
      <trkpt lat="48.99358" lon="-0.00156">
        <ele>71.3</ele>
        <time>2021-08-08T16:21:36Z</time>
      </trkpt>
      <trkpt lat="48.99364" lon="-0.0016">
        <ele>71.32</ele>
        <time>2021-08-08T16:21:37Z</time>
      </trkpt>
      <trkpt lat="48.99371" lon="-0.00164">
        <ele>71.39</ele>
        <time>2021-08-08T16:21:38Z</time>
      </trkpt>
      <trkpt lat="48.99378" lon="-0.00168">
        <ele>71.54</ele>
        <time>2021-08-08T16:21:39Z</time>
      </trkpt>
      <trkpt lat="48.99384" lon="-0.00172">
        <ele>71.74</ele>
        <time>2021-08-08T16:21:40Z</time>
      </trkpt>
      <trkpt lat="48.99391" lon="-0.00176">
        <ele>71.97</ele>
        <time>2021-08-08T16:21:41Z</time>
      </trkpt>
      <trkpt lat="48.99397" lon="-0.0018">
        <ele>72.2</ele>
        <time>2021-08-08T16:21:42Z</time>
      </trkpt>
      <trkpt lat="48.99404" lon="-0.00184">
        <ele>72.45</ele>
        <time>2021-08-08T16:21:43Z</time>
      </trkpt>
      <trkpt lat="48.99411" lon="-0.00188">
        <ele>72.7</ele>
        <time>2021-08-08T16:21:44Z</time>
      </trkpt>
      <trkpt lat="48.99418" lon="-0.00192">
        <ele>72.91</ele>
        <time>2021-08-08T16:21:45Z</time>
      </trkpt>
      <trkpt lat="48.99425" lon="-0.00195">
        <ele>72.93</ele>
        <time>2021-08-08T16:21:46Z</time>
      </trkpt>
      <trkpt lat="48.99432" lon="-0.00198">
        <ele>72.86</ele>
        <time>2021-08-08T16:21:47Z</time>
      </trkpt>
      <trkpt lat="48.99439" lon="-0.00201">
        <ele>72.75</ele>
        <time>2021-08-08T16:21:48Z</time>
      </trkpt>
      <trkpt lat="48.99445" lon="-0.00205">
        <ele>72.65</ele>
        <time>2021-08-08T16:21:49Z</time>
      </trkpt>
      <trkpt lat="48.99452" lon="-0.00209">
        <ele>72.53</ele>
        <time>2021-08-08T16:21:50Z</time>
      </trkpt>
      <trkpt lat="48.99458" lon="-0.00213">
        <ele>72.4</ele>
        <time>2021-08-08T16:21:51Z</time>
      </trkpt>
      <trkpt lat="48.99465" lon="-0.00217">
        <ele>72.25</ele>
        <time>2021-08-08T16:21:52Z</time>
      </trkpt>
      <trkpt lat="48.99471" lon="-0.00221">
        <ele>72.11</ele>
        <time>2021-08-08T16:21:53Z</time>
      </trkpt>
      <trkpt lat="48.99477" lon="-0.00225">
        <ele>71.96</ele>
        <time>2021-08-08T16:21:54Z</time>
      </trkpt>
      <trkpt lat="48.99484" lon="-0.00229">
        <ele>71.81</ele>
        <time>2021-08-08T16:21:55Z</time>
      </trkpt>
      <trkpt lat="48.99491" lon="-0.00233">
        <ele>71.67</ele>
        <time>2021-08-08T16:21:56Z</time>
      </trkpt>
      <trkpt lat="48.99498" lon="-0.00237">
        <ele>71.53</ele>
        <time>2021-08-08T16:21:57Z</time>
      </trkpt>
      <trkpt lat="48.99505" lon="-0.00241">
        <ele>71.39</ele>
        <time>2021-08-08T16:21:58Z</time>
      </trkpt>
      <trkpt lat="48.99511" lon="-0.00245">
        <ele>71.24</ele>
        <time>2021-08-08T16:21:59Z</time>
      </trkpt>
      <trkpt lat="48.99518" lon="-0.0025">
        <ele>71.07</ele>
        <time>2021-08-08T16:22:00Z</time>
      </trkpt>
      <trkpt lat="48.99525" lon="-0.00255">
        <ele>71.01</ele>
        <time>2021-08-08T16:22:01Z</time>
      </trkpt>
      <trkpt lat="48.99532" lon="-0.0026">
        <ele>71.06</ele>
        <time>2021-08-08T16:22:02Z</time>
      </trkpt>
      <trkpt lat="48.99538" lon="-0.00265">
        <ele>71.14</ele>
        <time>2021-08-08T16:22:03Z</time>
      </trkpt>
      <trkpt lat="48.99545" lon="-0.00269">
        <ele>71.19</ele>
        <time>2021-08-08T16:22:04Z</time>
      </trkpt>
      <trkpt lat="48.99552" lon="-0.00273">
        <ele>71.17</ele>
        <time>2021-08-08T16:22:05Z</time>
      </trkpt>
      <trkpt lat="48.99559" lon="-0.00277">
        <ele>71.15</ele>
        <time>2021-08-08T16:22:06Z</time>
      </trkpt>
      <trkpt lat="48.99566" lon="-0.00281">
        <ele>71.28</ele>
        <time>2021-08-08T16:22:07Z</time>
      </trkpt>
      <trkpt lat="48.99573" lon="-0.00286">
        <ele>71.4</ele>
        <time>2021-08-08T16:22:08Z</time>
      </trkpt>
      <trkpt lat="48.99581" lon="-0.0029">
        <ele>71.48</ele>
        <time>2021-08-08T16:22:09Z</time>
      </trkpt>
      <trkpt lat="48.99588" lon="-0.00293">
        <ele>71.52</ele>
        <time>2021-08-08T16:22:10Z</time>
      </trkpt>
      <trkpt lat="48.99595" lon="-0.00297">
        <ele>71.59</ele>
        <time>2021-08-08T16:22:11Z</time>
      </trkpt>
      <trkpt lat="48.99603" lon="-0.003">
        <ele>71.71</ele>
        <time>2021-08-08T16:22:12Z</time>
      </trkpt>
      <trkpt lat="48.9961" lon="-0.00304">
        <ele>71.88</ele>
        <time>2021-08-08T16:22:13Z</time>
      </trkpt>
      <trkpt lat="48.99617" lon="-0.00308">
        <ele>71.91</ele>
        <time>2021-08-08T16:22:14Z</time>
      </trkpt>
      <trkpt lat="48.99624" lon="-0.00312">
        <ele>71.88</ele>
        <time>2021-08-08T16:22:15Z</time>
      </trkpt>
      <trkpt lat="48.9963" lon="-0.00317">
        <ele>71.87</ele>
        <time>2021-08-08T16:22:16Z</time>
      </trkpt>
      <trkpt lat="48.99636" lon="-0.00321">
        <ele>71.92</ele>
        <time>2021-08-08T16:22:17Z</time>
      </trkpt>
      <trkpt lat="48.99643" lon="-0.00325">
        <ele>71.98</ele>
        <time>2021-08-08T16:22:18Z</time>
      </trkpt>
      <trkpt lat="48.9965" lon="-0.0033">
        <ele>71.99</ele>
        <time>2021-08-08T16:22:19Z</time>
      </trkpt>
      <trkpt lat="48.99656" lon="-0.00335">
        <ele>71.99</ele>
        <time>2021-08-08T16:22:20Z</time>
      </trkpt>
      <trkpt lat="48.99663" lon="-0.00339">
        <ele>71.98</ele>
        <time>2021-08-08T16:22:21Z</time>
      </trkpt>
      <trkpt lat="48.9967" lon="-0.00343">
        <ele>71.99</ele>
        <time>2021-08-08T16:22:22Z</time>
      </trkpt>
      <trkpt lat="48.99677" lon="-0.00348">
        <ele>72</ele>
        <time>2021-08-08T16:22:23Z</time>
      </trkpt>
      <trkpt lat="48.99684" lon="-0.00352">
        <ele>72</ele>
        <time>2021-08-08T16:22:24Z</time>
      </trkpt>
      <trkpt lat="48.99691" lon="-0.00357">
        <ele>72</ele>
        <time>2021-08-08T16:22:25Z</time>
      </trkpt>
      <trkpt lat="48.99697" lon="-0.00363">
        <ele>72</ele>
        <time>2021-08-08T16:22:26Z</time>
      </trkpt>
      <trkpt lat="48.99704" lon="-0.00368">
        <ele>72</ele>
        <time>2021-08-08T16:22:27Z</time>
      </trkpt>
      <trkpt lat="48.99711" lon="-0.00373">
        <ele>72</ele>
        <time>2021-08-08T16:22:28Z</time>
      </trkpt>
      <trkpt lat="48.99719" lon="-0.00378">
        <ele>72</ele>
        <time>2021-08-08T16:22:29Z</time>
      </trkpt>
      <trkpt lat="48.99725" lon="-0.00383">
        <ele>72.06</ele>
        <time>2021-08-08T16:22:30Z</time>
      </trkpt>
      <trkpt lat="48.99732" lon="-0.00389">
        <ele>72.26</ele>
        <time>2021-08-08T16:22:31Z</time>
      </trkpt>
      <trkpt lat="48.99738" lon="-0.00395">
        <ele>72.48</ele>
        <time>2021-08-08T16:22:32Z</time>
      </trkpt>
      <trkpt lat="48.99745" lon="-0.00401">
        <ele>72.71</ele>
        <time>2021-08-08T16:22:33Z</time>
      </trkpt>
      <trkpt lat="48.99751" lon="-0.00406">
        <ele>72.91</ele>
        <time>2021-08-08T16:22:34Z</time>
      </trkpt>
      <trkpt lat="48.99757" lon="-0.00412">
        <ele>72.97</ele>
        <time>2021-08-08T16:22:35Z</time>
      </trkpt>
      <trkpt lat="48.99763" lon="-0.00417">
        <ele>72.99</ele>
        <time>2021-08-08T16:22:36Z</time>
      </trkpt>
      <trkpt lat="48.99768" lon="-0.00421">
        <ele>72.96</ele>
        <time>2021-08-08T16:22:37Z</time>
      </trkpt>
      <trkpt lat="48.99773" lon="-0.00426">
        <ele>72.95</ele>
        <time>2021-08-08T16:22:38Z</time>
      </trkpt>
      <trkpt lat="48.99778" lon="-0.0043">
        <ele>72.98</ele>
        <time>2021-08-08T16:22:39Z</time>
      </trkpt>
      <trkpt lat="48.99782" lon="-0.00435">
        <ele>73</ele>
        <time>2021-08-08T16:22:40Z</time>
      </trkpt>
      <trkpt lat="48.99786" lon="-0.0044">
        <ele>73</ele>
        <time>2021-08-08T16:22:41Z</time>
      </trkpt>
      <trkpt lat="48.99789" lon="-0.00443">
        <ele>73</ele>
        <time>2021-08-08T16:22:42Z</time>
      </trkpt>
      <trkpt lat="48.99793" lon="-0.00443">
        <ele>73</ele>
        <time>2021-08-08T16:22:43Z</time>
      </trkpt>
      <trkpt lat="48.99796" lon="-0.00439">
        <ele>73</ele>
        <time>2021-08-08T16:22:44Z</time>
      </trkpt>
      <trkpt lat="48.99798" lon="-0.00436">
        <ele>73</ele>
        <time>2021-08-08T16:22:45Z</time>
      </trkpt>
      <trkpt lat="48.99799" lon="-0.00433">
        <ele>73</ele>
        <time>2021-08-08T16:22:46Z</time>
      </trkpt>
      <trkpt lat="48.99799" lon="-0.00431">
        <ele>73</ele>
        <time>2021-08-08T16:22:47Z</time>
      </trkpt>
      <trkpt lat="48.99799" lon="-0.00431">
        <ele>73</ele>
        <time>2021-08-08T16:22:48Z</time>
      </trkpt>
      <trkpt lat="48.99798" lon="-0.00431">
        <ele>73</ele>
        <time>2021-08-08T16:22:49Z</time>
      </trkpt>
      <trkpt lat="48.99798" lon="-0.00431">
        <ele>73</ele>
        <time>2021-08-08T16:22:50Z</time>
      </trkpt>
      <trkpt lat="48.99798" lon="-0.00431">
        <ele>73</ele>
        <time>2021-08-08T16:22:51Z</time>
      </trkpt>
      <trkpt lat="48.99798" lon="-0.00431">
        <ele>73</ele>
        <time>2021-08-08T16:22:52Z</time>
      </trkpt>
      <trkpt lat="48.99798" lon="-0.00431">
        <ele>73</ele>
        <time>2021-08-08T16:22:53Z</time>
      </trkpt>
      <trkpt lat="48.99798" lon="-0.00431">
        <ele>73</ele>
        <time>2021-08-08T16:22:54Z</time>
      </trkpt>
      <trkpt lat="48.99798" lon="-0.00431">
        <ele>73</ele>
        <time>2021-08-08T16:22:55Z</time>
      </trkpt>
      <trkpt lat="48.99798" lon="-0.00431">
        <ele>73</ele>
        <time>2021-08-08T16:22:57Z</time>
      </trkpt>
      <trkpt lat="48.99798" lon="-0.00431">
        <ele>73</ele>
        <time>2021-08-08T16:22:58Z</time>
      </trkpt>
    </trkseg>
  </trk>
</gpx>